<?xml version='1.0' encoding='UTF-8'?><gpx version="1.1" creator="JPX - https://github.com/jenetics/jpx" xmlns="http://www.topografix.com/GPX/1/1"><trk><trkseg><trkpt lat="44.22382644980257" lon="12.225513709006085"><ele>18.0</ele><time>2026-04-12T08:34:42.999Z</time></trkpt><trkpt lat="44.22372864945174" lon="12.225471587778276"><ele>18.0</ele><time>2026-04-12T08:34:43.999Z</time></trkpt><trkpt lat="44.223616843032204" lon="12.225433139012605"><ele>18.0</ele><time>2026-04-12T08:34:44.999Z</time></trkpt><trkpt lat="44.22348667957857" lon="12.225382714143473"><ele>18.0</ele><time>2026-04-12T08:34:45.999Z</time></trkpt><trkpt lat="44.22335376928145" lon="12.225329682771367"><ele>18.0</ele><time>2026-04-12T08:34:46.999Z</time></trkpt><trkpt lat="44.22320560246118" lon="12.225261558563139"><ele>18.0</ele><time>2026-04-12T08:34:47.999Z</time></trkpt><trkpt lat="44.22305171409863" lon="12.225198015247798"><ele>18.0</ele><time>2026-04-12T08:34:48.999Z</time></trkpt><trkpt lat="44.22290032423234" lon="12.225115436900921"><ele>17.333333333333332</ele><time>2026-04-12T08:34:49.999Z</time></trkpt><trkpt lat="44.222759545432176" lon="12.225055436990726"><ele>16.666666666666664</ele><time>2026-04-12T08:34:51Z</time></trkpt><trkpt lat="44.222605652212316" lon="12.224978977686972"><ele>16.0</ele><time>2026-04-12T08:34:52Z</time></trkpt><trkpt lat="44.22244734874529" lon="12.22490154186511"><ele>16.0</ele><time>2026-04-12T08:34:53Z</time></trkpt><trkpt lat="44.22230350979481" lon="12.224869268024568"><ele>16.0</ele><time>2026-04-12T08:34:54Z</time></trkpt><trkpt lat="44.22216513843595" lon="12.224842161885169"><ele>16.0</ele><time>2026-04-12T08:34:55Z</time></trkpt><trkpt lat="44.22202534477894" lon="12.224819467238033"><ele>16.0</ele><time>2026-04-12T08:34:56Z</time></trkpt><trkpt lat="44.221872321880305" lon="12.224764818783566"><ele>16.0</ele><time>2026-04-12T08:34:57Z</time></trkpt><trkpt lat="44.22170661543147" lon="12.224762507080369"><ele>16.0</ele><time>2026-04-12T08:34:58Z</time></trkpt><trkpt lat="44.22153870207223" lon="12.224709979161304"><ele>16.0</ele><time>2026-04-12T08:34:59Z</time></trkpt><trkpt lat="44.22136111837117" lon="12.224674049978535"><ele>16.333333333333332</ele><time>2026-04-12T08:35:00Z</time></trkpt><trkpt lat="44.22117641619371" lon="12.224659874038963"><ele>16.666666666666668</ele><time>2026-04-12T08:35:01Z</time></trkpt><trkpt lat="44.22097827283567" lon="12.224606554405103"><ele>17.0</ele><time>2026-04-12T08:35:02Z</time></trkpt><trkpt lat="44.22078495769319" lon="12.224570411525432"><ele>17.333333333333336</ele><time>2026-04-12T08:35:03Z</time></trkpt><trkpt lat="44.22059443525843" lon="12.224536086534512"><ele>17.666666666666668</ele><time>2026-04-12T08:35:04Z</time></trkpt><trkpt lat="44.22040100154609" lon="12.224499068742668"><ele>18.0</ele><time>2026-04-12T08:35:05Z</time></trkpt><trkpt lat="44.22021264328098" lon="12.224463990103043"><ele>18.0</ele><time>2026-04-12T08:35:06Z</time></trkpt><trkpt lat="44.2200258645488" lon="12.224425544642584"><ele>18.0</ele><time>2026-04-12T08:35:07Z</time></trkpt><trkpt lat="44.219848367659665" lon="12.224368967836599"><ele>18.0</ele><time>2026-04-12T08:35:08Z</time></trkpt><trkpt lat="44.21966380473675" lon="12.224334299009143"><ele>17.666666666666668</ele><time>2026-04-12T08:35:09Z</time></trkpt><trkpt lat="44.219477591923976" lon="12.22431086153132"><ele>17.333333333333336</ele><time>2026-04-12T08:35:10Z</time></trkpt><trkpt lat="44.21928376107624" lon="12.224301230927212"><ele>17.0</ele><time>2026-04-12T08:35:11Z</time></trkpt><trkpt lat="44.21909643779238" lon="12.224295104139562"><ele>16.666666666666668</ele><time>2026-04-12T08:35:12Z</time></trkpt><trkpt lat="44.218897299121274" lon="12.2242928491116"><ele>16.333333333333332</ele><time>2026-04-12T08:35:13Z</time></trkpt><trkpt lat="44.218700257098035" lon="12.224291746111561"><ele>16.0</ele><time>2026-04-12T08:35:14Z</time></trkpt><trkpt lat="44.21850097060084" lon="12.224291077118263"><ele>16.0</ele><time>2026-04-12T08:35:15Z</time></trkpt><trkpt lat="44.21829002886397" lon="12.224315846367912"><ele>16.0</ele><time>2026-04-12T08:35:16Z</time></trkpt><trkpt lat="44.218088398321214" lon="12.224378816622128"><ele>16.0</ele><time>2026-04-12T08:35:17Z</time></trkpt><trkpt lat="44.21786897500436" lon="12.224422708776002"><ele>15.666666666666666</ele><time>2026-04-12T08:35:18Z</time></trkpt><trkpt lat="44.21765054526143" lon="12.224444864777972"><ele>15.333333333333332</ele><time>2026-04-12T08:35:19Z</time></trkpt><trkpt lat="44.21743371980921" lon="12.224489898451377"><ele>15.0</ele><time>2026-04-12T08:35:20Z</time></trkpt><trkpt lat="44.21724169979802" lon="12.224536711782772"><ele>15.666666666666668</ele><time>2026-04-12T08:35:21Z</time></trkpt><trkpt lat="44.217064912578195" lon="12.224613974644562"><ele>16.333333333333336</ele><time>2026-04-12T08:35:22Z</time></trkpt><trkpt lat="44.21689455342817" lon="12.224660726990392"><ele>17.0</ele><time>2026-04-12T08:35:23Z</time></trkpt><trkpt lat="44.21672204018794" lon="12.22472655887397"><ele>17.0</ele><time>2026-04-12T08:35:24Z</time></trkpt><trkpt lat="44.216552190987954" lon="12.22479400832256"><ele>17.0</ele><time>2026-04-12T08:35:25Z</time></trkpt><trkpt lat="44.21640937716283" lon="12.224850721643467"><ele>17.0</ele><time>2026-04-12T08:35:26Z</time></trkpt><trkpt lat="44.216270708779334" lon="12.224900992861325"><ele>17.333333333333336</ele><time>2026-04-12T08:35:27Z</time></trkpt><trkpt lat="44.21612217992979" lon="12.224943374387571"><ele>17.666666666666668</ele><time>2026-04-12T08:35:28Z</time></trkpt><trkpt lat="44.21597123172686" lon="12.224956849112036"><ele>18.0</ele><time>2026-04-12T08:35:29Z</time></trkpt><trkpt lat="44.2158122730382" lon="12.224953480973541"><ele>18.0</ele><time>2026-04-12T08:35:30Z</time></trkpt><trkpt lat="44.21565766631848" lon="12.224971302844276"><ele>18.0</ele><time>2026-04-12T08:35:31Z</time></trkpt><trkpt lat="44.21549978050635" lon="12.224957670939425"><ele>18.0</ele><time>2026-04-12T08:35:32Z</time></trkpt><trkpt lat="44.21533234799554" lon="12.224950900336902"><ele>18.333333333333332</ele><time>2026-04-12T08:35:33Z</time></trkpt><trkpt lat="44.21516634027593" lon="12.224939622202802"><ele>18.666666666666664</ele><time>2026-04-12T08:35:34Z</time></trkpt><trkpt lat="44.21499688766077" lon="12.224941644202602"><ele>19.0</ele><time>2026-04-12T08:35:35Z</time></trkpt><trkpt lat="44.214833510219364" lon="12.224894722994343"><ele>18.666666666666664</ele><time>2026-04-12T08:35:36Z</time></trkpt><trkpt lat="44.21467004361059" lon="12.224850616346265"><ele>18.333333333333332</ele><time>2026-04-12T08:35:37Z</time></trkpt><trkpt lat="44.21449751229462" lon="12.224802003687381"><ele>18.0</ele><time>2026-04-12T08:35:38Z</time></trkpt><trkpt lat="44.21432063071928" lon="12.22475041938447"><ele>18.0</ele><time>2026-04-12T08:35:39Z</time></trkpt><trkpt lat="44.214137982206985" lon="12.224699824930935"><ele>18.0</ele><time>2026-04-12T08:35:40Z</time></trkpt><trkpt lat="44.213972658764774" lon="12.224651704505249"><ele>18.0</ele><time>2026-04-12T08:35:41Z</time></trkpt><trkpt lat="44.213820956443236" lon="12.224607604683673"><ele>18.0</ele><time>2026-04-12T08:35:42Z</time></trkpt><trkpt lat="44.21368282110506" lon="12.224567920376467"><ele>18.0</ele><time>2026-04-12T08:35:42.999Z</time></trkpt><trkpt lat="44.21355416969492" lon="12.224532390521759"><ele>18.0</ele><time>2026-04-12T08:35:43.999Z</time></trkpt><trkpt lat="44.21342809981059" lon="12.224497573620585"><ele>18.0</ele><time>2026-04-12T08:35:44.999Z</time></trkpt><trkpt lat="44.21332087854546" lon="12.224471488004257"><ele>18.0</ele><time>2026-04-12T08:35:45.999Z</time></trkpt><trkpt lat="44.213234650328644" lon="12.224454428431846"><ele>18.0</ele><time>2026-04-12T08:35:46.999Z</time></trkpt><trkpt lat="44.213177001099794" lon="12.22438502901201"><ele>18.0</ele><time>2026-04-12T08:35:47.999Z</time></trkpt><trkpt lat="44.21319571011901" lon="12.224275208740197"><ele>18.0</ele><time>2026-04-12T08:35:48.999Z</time></trkpt><trkpt lat="44.21321682637817" lon="12.224155150046439"><ele>18.0</ele><time>2026-04-12T08:35:49.999Z</time></trkpt><trkpt lat="44.21320820635541" lon="12.223990295664926"><ele>18.0</ele><time>2026-04-12T08:35:50.999Z</time></trkpt><trkpt lat="44.2132111360838" lon="12.223866233621544"><ele>18.0</ele><time>2026-04-12T08:35:51.999Z</time></trkpt><trkpt lat="44.21315732590553" lon="12.223789232767048"><ele>18.0</ele><time>2026-04-12T08:35:52.999Z</time></trkpt><trkpt lat="44.21305743074861" lon="12.223839448017525"><ele>18.0</ele><time>2026-04-12T08:35:53.999Z</time></trkpt><trkpt lat="44.21295356748962" lon="12.223889156168056"><ele>18.0</ele><time>2026-04-12T08:35:54.999Z</time></trkpt><trkpt lat="44.21282221825223" lon="12.223939411689003"><ele>18.0</ele><time>2026-04-12T08:35:55.999Z</time></trkpt><trkpt lat="44.21269894358845" lon="12.224015054080292"><ele>18.0</ele><time>2026-04-12T08:35:56.999Z</time></trkpt><trkpt lat="44.21257953666358" lon="12.224120854691602"><ele>18.0</ele><time>2026-04-12T08:35:57.999Z</time></trkpt><trkpt lat="44.212449000322216" lon="12.224220698763665"><ele>18.0</ele><time>2026-04-12T08:35:58.999Z</time></trkpt><trkpt lat="44.212313553183016" lon="12.22433547892168"><ele>18.0</ele><time>2026-04-12T08:35:59.999Z</time></trkpt><trkpt lat="44.212168180973116" lon="12.224421340660154"><ele>18.0</ele><time>2026-04-12T08:36:01.001Z</time></trkpt><trkpt lat="44.21203693510586" lon="12.224511703273096"><ele>18.0</ele><time>2026-04-12T08:36:02.001Z</time></trkpt><trkpt lat="44.21190897597688" lon="12.224591713582452"><ele>18.0</ele><time>2026-04-12T08:36:03.001Z</time></trkpt><trkpt lat="44.211780747192094" lon="12.22465805314313"><ele>18.0</ele><time>2026-04-12T08:36:04.001Z</time></trkpt><trkpt lat="44.21167010228842" lon="12.224742890495413"><ele>18.0</ele><time>2026-04-12T08:36:05.001Z</time></trkpt><trkpt lat="44.21154365110889" lon="12.224812811538454"><ele>18.0</ele><time>2026-04-12T08:36:06.001Z</time></trkpt><trkpt lat="44.21141032882444" lon="12.224883690099874"><ele>18.0</ele><time>2026-04-12T08:36:07.001Z</time></trkpt><trkpt lat="44.21127530930668" lon="12.224934881469393"><ele>18.0</ele><time>2026-04-12T08:36:08.001Z</time></trkpt><trkpt lat="44.21115551883966" lon="12.224895526120253"><ele>18.0</ele><time>2026-04-12T08:36:09.001Z</time></trkpt><trkpt lat="44.21103244488016" lon="12.224834232970514"><ele>18.0</ele><time>2026-04-12T08:36:10.001Z</time></trkpt><trkpt lat="44.21087774767119" lon="12.224808462257366"><ele>18.0</ele><time>2026-04-12T08:36:11.001Z</time></trkpt><trkpt lat="44.21070687956246" lon="12.2248074912937"><ele>18.333333333333332</ele><time>2026-04-12T08:36:12.001Z</time></trkpt><trkpt lat="44.2105258796828" lon="12.224765427724817"><ele>18.666666666666664</ele><time>2026-04-12T08:36:13.001Z</time></trkpt><trkpt lat="44.21035828160755" lon="12.224754055582071"><ele>19.0</ele><time>2026-04-12T08:36:14.001Z</time></trkpt><trkpt lat="44.21020828655083" lon="12.224749896559933"><ele>19.0</ele><time>2026-04-12T08:36:15.001Z</time></trkpt><trkpt lat="44.210061766919246" lon="12.224746329354508"><ele>19.0</ele><time>2026-04-12T08:36:16Z</time></trkpt><trkpt lat="44.20991249394323" lon="12.224744851022054"><ele>19.0</ele><time>2026-04-12T08:36:17Z</time></trkpt><trkpt lat="44.20977310804833" lon="12.224751410813237"><ele>19.0</ele><time>2026-04-12T08:36:18Z</time></trkpt><trkpt lat="44.209651268254646" lon="12.224785483489153"><ele>19.2</ele><time>2026-04-12T08:36:19Z</time></trkpt><trkpt lat="44.209539934922" lon="12.224764944455826"><ele>19.4</ele><time>2026-04-12T08:36:20Z</time></trkpt><trkpt lat="44.20943520958513" lon="12.224758125792379"><ele>19.6</ele><time>2026-04-12T08:36:21Z</time></trkpt><trkpt lat="44.20931947347347" lon="12.224748663515161"><ele>19.8</ele><time>2026-04-12T08:36:22Z</time></trkpt><trkpt lat="44.20920839844926" lon="12.224761871904049"><ele>20.0</ele><time>2026-04-12T08:36:23Z</time></trkpt><trkpt lat="44.209091362352645" lon="12.224754189318096"><ele>19.75</ele><time>2026-04-12T08:36:24Z</time></trkpt><trkpt lat="44.208966510891145" lon="12.224752454523703"><ele>19.5</ele><time>2026-04-12T08:36:25Z</time></trkpt><trkpt lat="44.208836544738155" lon="12.224753537141268"><ele>19.25</ele><time>2026-04-12T08:36:26Z</time></trkpt><trkpt lat="44.20871599110723" lon="12.22476554387379"><ele>19.0</ele><time>2026-04-12T08:36:27Z</time></trkpt><trkpt lat="44.20861377907277" lon="12.224771444737165"><ele>19.0</ele><time>2026-04-12T08:36:28Z</time></trkpt><trkpt lat="44.20852044972203" lon="12.224785271653033"><ele>19.0</ele><time>2026-04-12T08:36:29Z</time></trkpt><trkpt lat="44.20843942315748" lon="12.224797868189585"><ele>19.0</ele><time>2026-04-12T08:36:30Z</time></trkpt><trkpt lat="44.208342958675644" lon="12.224807493153858"><ele>19.0</ele><time>2026-04-12T08:36:32Z</time></trkpt><trkpt lat="44.208254481794356" lon="12.22479307814071"><ele>19.0</ele><time>2026-04-12T08:36:34Z</time></trkpt><trkpt lat="44.20815311723221" lon="12.22480839502577"><ele>19.0</ele><time>2026-04-12T08:36:37Z</time></trkpt><trkpt lat="44.20800608022356" lon="12.22479276819061"><ele>19.0</ele><time>2026-04-12T08:36:39Z</time></trkpt><trkpt lat="44.20790540355107" lon="12.224774888885815"><ele>19.0</ele><time>2026-04-12T08:36:40Z</time></trkpt><trkpt lat="44.20782026182457" lon="12.224756908149143"><ele>19.0</ele><time>2026-04-12T08:36:41Z</time></trkpt><trkpt lat="44.207755101434095" lon="12.224743376783515"><ele>19.0</ele><time>2026-04-12T08:36:42Z</time></trkpt><trkpt lat="44.20768505558904" lon="12.224733652897518"><ele>19.0</ele><time>2026-04-12T08:36:43Z</time></trkpt><trkpt lat="44.20762012061163" lon="12.224716770836627"><ele>19.0</ele><time>2026-04-12T08:36:44Z</time></trkpt><trkpt lat="44.20749341821944" lon="12.224699456253392"><ele>19.0</ele><time>2026-04-12T08:36:46Z</time></trkpt><trkpt lat="44.20741712006909" lon="12.224692937694291"><ele>19.0</ele><time>2026-04-12T08:36:47Z</time></trkpt><trkpt lat="44.20733786223271" lon="12.224687411958028"><ele>19.0</ele><time>2026-04-12T08:36:48Z</time></trkpt><trkpt lat="44.20725880059171" lon="12.224683064211817"><ele>19.0</ele><time>2026-04-12T08:36:49Z</time></trkpt><trkpt lat="44.20717136771531" lon="12.22467009559626"><ele>18.599999999999998</ele><time>2026-04-12T08:36:50Z</time></trkpt><trkpt lat="44.207085548160315" lon="12.224657955949292"><ele>18.2</ele><time>2026-04-12T08:36:51Z</time></trkpt><trkpt lat="44.206999179534485" lon="12.22464412699407"><ele>17.799999999999997</ele><time>2026-04-12T08:36:51.999Z</time></trkpt><trkpt lat="44.2069186453833" lon="12.224627275309134"><ele>17.4</ele><time>2026-04-12T08:36:52.999Z</time></trkpt><trkpt lat="44.20685028727671" lon="12.224605075192486"><ele>17.0</ele><time>2026-04-12T08:36:53.999Z</time></trkpt><trkpt lat="44.206724004817865" lon="12.224564008794603"><ele>17.0</ele><time>2026-04-12T08:36:55.999Z</time></trkpt><trkpt lat="44.20665669491321" lon="12.224538738245888"><ele>17.0</ele><time>2026-04-12T08:36:56.999Z</time></trkpt><trkpt lat="44.206595058189436" lon="12.224517264295924"><ele>17.0</ele><time>2026-04-12T08:36:57.999Z</time></trkpt><trkpt lat="44.206501696690076" lon="12.224482369613925"><ele>17.0</ele><time>2026-04-12T08:36:59.999Z</time></trkpt><trkpt lat="44.20642210077808" lon="12.22444581415441"><ele>17.0</ele><time>2026-04-12T08:37:01.999Z</time></trkpt><trkpt lat="44.20635549106703" lon="12.22443446380447"><ele>17.0</ele><time>2026-04-12T08:37:02.999Z</time></trkpt><trkpt lat="44.20628366827812" lon="12.224429013086956"><ele>17.333333333333336</ele><time>2026-04-12T08:37:03.999Z</time></trkpt><trkpt lat="44.20621847185946" lon="12.224427678341971"><ele>17.666666666666668</ele><time>2026-04-12T08:37:04.999Z</time></trkpt><trkpt lat="44.20615205822684" lon="12.22445935586805"><ele>18.0</ele><time>2026-04-12T08:37:05.999Z</time></trkpt><trkpt lat="44.206078705001076" lon="12.224450620325625"><ele>18.333333333333332</ele><time>2026-04-12T08:37:06.999Z</time></trkpt><trkpt lat="44.20601618955866" lon="12.224515883933403"><ele>18.666666666666664</ele><time>2026-04-12T08:37:07.999Z</time></trkpt><trkpt lat="44.20600477339381" lon="12.224630950288072"><ele>19.0</ele><time>2026-04-12T08:37:08.999Z</time></trkpt><trkpt lat="44.20598029876937" lon="12.224766917416915"><ele>18.833333333333332</ele><time>2026-04-12T08:37:09.999Z</time></trkpt><trkpt lat="44.205952592013766" lon="12.224883385475982"><ele>18.666666666666664</ele><time>2026-04-12T08:37:10.999Z</time></trkpt><trkpt lat="44.20593466204962" lon="12.22500459682296"><ele>18.5</ele><time>2026-04-12T08:37:11.999Z</time></trkpt><trkpt lat="44.20591419220146" lon="12.225123978803872"><ele>18.333333333333332</ele><time>2026-04-12T08:37:12.999Z</time></trkpt><trkpt lat="44.2058905769113" lon="12.225209351929529"><ele>18.166666666666668</ele><time>2026-04-12T08:37:13.999Z</time></trkpt><trkpt lat="44.205839525450514" lon="12.22530324166051"><ele>18.0</ele><time>2026-04-12T08:37:15.999Z</time></trkpt><trkpt lat="44.20577791285962" lon="12.22525816990485"><ele>18.0</ele><time>2026-04-12T08:37:16.999Z</time></trkpt><trkpt lat="44.20568023609441" lon="12.225232036459568"><ele>18.0</ele><time>2026-04-12T08:37:18.999Z</time></trkpt><trkpt lat="44.20558886759432" lon="12.22519112012523"><ele>18.0</ele><time>2026-04-12T08:37:19.999Z</time></trkpt><trkpt lat="44.205475194190356" lon="12.225163086814021"><ele>18.0</ele><time>2026-04-12T08:37:20.999Z</time></trkpt><trkpt lat="44.205349421981005" lon="12.225122211260004"><ele>18.0</ele><time>2026-04-12T08:37:21.999Z</time></trkpt><trkpt lat="44.2052063518043" lon="12.225068132986204"><ele>18.0</ele><time>2026-04-12T08:37:22.999Z</time></trkpt><trkpt lat="44.205055184703966" lon="12.225003805171722"><ele>18.0</ele><time>2026-04-12T08:37:23.999Z</time></trkpt><trkpt lat="44.20490481004388" lon="12.224936155231031"><ele>18.0</ele><time>2026-04-12T08:37:24.999Z</time></trkpt><trkpt lat="44.20473692238119" lon="12.224887048938735"><ele>17.666666666666668</ele><time>2026-04-12T08:37:25.999Z</time></trkpt><trkpt lat="44.20455524526285" lon="12.224868468336949"><ele>17.333333333333336</ele><time>2026-04-12T08:37:26.999Z</time></trkpt><trkpt lat="44.20436629301964" lon="12.224863630809343"><ele>17.0</ele><time>2026-04-12T08:37:27.999Z</time></trkpt><trkpt lat="44.20415784020358" lon="12.22486391389227"><ele>17.333333333333336</ele><time>2026-04-12T08:37:28.999Z</time></trkpt><trkpt lat="44.20394622641214" lon="12.22486671765253"><ele>17.666666666666668</ele><time>2026-04-12T08:37:29.999Z</time></trkpt><trkpt lat="44.203727751169424" lon="12.224865222196595"><ele>18.0</ele><time>2026-04-12T08:37:30.999Z</time></trkpt><trkpt lat="44.203490656089365" lon="12.224851881884955"><ele>18.0</ele><time>2026-04-12T08:37:31.999Z</time></trkpt><trkpt lat="44.20327401301957" lon="12.224831101929837"><ele>18.0</ele><time>2026-04-12T08:37:32.999Z</time></trkpt><trkpt lat="44.2030778056306" lon="12.224804370349895"><ele>18.0</ele><time>2026-04-12T08:37:33.999Z</time></trkpt><trkpt lat="44.20287951672158" lon="12.224776379031297"><ele>19.333333333333332</ele><time>2026-04-12T08:37:34.999Z</time></trkpt><trkpt lat="44.202712773319696" lon="12.224752840788863"><ele>20.666666666666664</ele><time>2026-04-12T08:37:35.999Z</time></trkpt><trkpt lat="44.20254732914402" lon="12.224729485930443"><ele>22.0</ele><time>2026-04-12T08:37:36.999Z</time></trkpt><trkpt lat="44.20238866428473" lon="12.224706277904978"><ele>21.8</ele><time>2026-04-12T08:37:37.999Z</time></trkpt><trkpt lat="44.20226706615657" lon="12.22468750228069"><ele>21.6</ele><time>2026-04-12T08:37:38.999Z</time></trkpt><trkpt lat="44.202160539316054" lon="12.224669879310131"><ele>21.400000000000002</ele><time>2026-04-12T08:37:39.999Z</time></trkpt><trkpt lat="44.20207078620964" lon="12.224655031284673"><ele>21.200000000000003</ele><time>2026-04-12T08:37:40.999Z</time></trkpt><trkpt lat="44.20197098862655" lon="12.22463852156142"><ele>21.0</ele><time>2026-04-12T08:37:42.999Z</time></trkpt><trkpt lat="44.20192842684027" lon="12.22483348566505"><ele>20.8</ele><time>2026-04-12T08:37:45.999Z</time></trkpt><trkpt lat="44.20193598444547" lon="12.225007156262821"><ele>20.6</ele><time>2026-04-12T08:37:46.999Z</time></trkpt><trkpt lat="44.2019381001727" lon="12.225176084204147"><ele>20.4</ele><time>2026-04-12T08:37:47.999Z</time></trkpt><trkpt lat="44.20193359834322" lon="12.22529652888053"><ele>20.2</ele><time>2026-04-12T08:37:48.999Z</time></trkpt><trkpt lat="44.201902451509945" lon="12.225390941393385"><ele>20.0</ele><time>2026-04-12T08:37:50.999Z</time></trkpt><trkpt lat="44.20182467697366" lon="12.22533859233468"><ele>20.0</ele><time>2026-04-12T08:37:51.998Z</time></trkpt><trkpt lat="44.20174037199866" lon="12.225328824251102"><ele>20.0</ele><time>2026-04-12T08:37:52.998Z</time></trkpt><trkpt lat="44.201629324325" lon="12.225314385640923"><ele>20.0</ele><time>2026-04-12T08:37:53.998Z</time></trkpt><trkpt lat="44.20151641462264" lon="12.225319224437397"><ele>20.0</ele><time>2026-04-12T08:37:54.998Z</time></trkpt><trkpt lat="44.2014017297409" lon="12.225296797461922"><ele>20.0</ele><time>2026-04-12T08:37:55.998Z</time></trkpt><trkpt lat="44.20127732353556" lon="12.225284899266892"><ele>20.0</ele><time>2026-04-12T08:37:56.998Z</time></trkpt><trkpt lat="44.201148982544474" lon="12.225260803547968"><ele>20.0</ele><time>2026-04-12T08:37:57.998Z</time></trkpt><trkpt lat="44.20101073839368" lon="12.225240190604454"><ele>20.0</ele><time>2026-04-12T08:37:58.998Z</time></trkpt><trkpt lat="44.20087314277439" lon="12.225226228225647"><ele>20.0</ele><time>2026-04-12T08:37:59.998Z</time></trkpt><trkpt lat="44.200734735514914" lon="12.225208263246572"><ele>20.25</ele><time>2026-04-12T08:38:00.998Z</time></trkpt><trkpt lat="44.20059246361944" lon="12.225188041697674"><ele>20.5</ele><time>2026-04-12T08:38:01.998Z</time></trkpt><trkpt lat="44.20045081808442" lon="12.225167944697807"><ele>20.75</ele><time>2026-04-12T08:38:02.998Z</time></trkpt><trkpt lat="44.20030723600929" lon="12.225147981930217"><ele>21.0</ele><time>2026-04-12T08:38:03.998Z</time></trkpt><trkpt lat="44.20016282663556" lon="12.225126590638778"><ele>21.0</ele><time>2026-04-12T08:38:04.998Z</time></trkpt><trkpt lat="44.20002162531501" lon="12.225108021514911"><ele>21.0</ele><time>2026-04-12T08:38:06Z</time></trkpt><trkpt lat="44.19987642480844" lon="12.22508928367962"><ele>21.0</ele><time>2026-04-12T08:38:07Z</time></trkpt><trkpt lat="44.19972299502657" lon="12.225065360140693"><ele>21.0</ele><time>2026-04-12T08:38:08Z</time></trkpt><trkpt lat="44.1995644062304" lon="12.225043161643258"><ele>20.666666666666668</ele><time>2026-04-12T08:38:09Z</time></trkpt><trkpt lat="44.19940904611808" lon="12.225022053815415"><ele>20.333333333333336</ele><time>2026-04-12T08:38:10Z</time></trkpt><trkpt lat="44.199249237800686" lon="12.225000968032484"><ele>20.0</ele><time>2026-04-12T08:38:11Z</time></trkpt><trkpt lat="44.19910210918524" lon="12.224979035938368"><ele>19.75</ele><time>2026-04-12T08:38:12Z</time></trkpt><trkpt lat="44.19897145018818" lon="12.224983572712901"><ele>19.5</ele><time>2026-04-12T08:38:13Z</time></trkpt><trkpt lat="44.198853743878104" lon="12.225005249435153"><ele>19.25</ele><time>2026-04-12T08:38:14Z</time></trkpt><trkpt lat="44.19872813401292" lon="12.225056951423674"><ele>19.0</ele><time>2026-04-12T08:38:15Z</time></trkpt><trkpt lat="44.198586932301836" lon="12.225111976973347"><ele>19.0</ele><time>2026-04-12T08:38:16Z</time></trkpt><trkpt lat="44.19843938271815" lon="12.22516370432895"><ele>19.0</ele><time>2026-04-12T08:38:17Z</time></trkpt><trkpt lat="44.198302698439896" lon="12.225230864369385"><ele>19.0</ele><time>2026-04-12T08:38:18Z</time></trkpt><trkpt lat="44.19816651074089" lon="12.225323649167384"><ele>19.0</ele><time>2026-04-12T08:38:19Z</time></trkpt><trkpt lat="44.19804132418693" lon="12.225386278714465"><ele>19.0</ele><time>2026-04-12T08:38:20Z</time></trkpt><trkpt lat="44.19791638111971" lon="12.225431108649303"><ele>19.0</ele><time>2026-04-12T08:38:21Z</time></trkpt><trkpt lat="44.197770604710854" lon="12.22547745384217"><ele>19.0</ele><time>2026-04-12T08:38:22Z</time></trkpt><trkpt lat="44.197632591603984" lon="12.22551553820293"><ele>19.0</ele><time>2026-04-12T08:38:23Z</time></trkpt><trkpt lat="44.197528339444105" lon="12.225573315129058"><ele>19.0</ele><time>2026-04-12T08:38:24Z</time></trkpt><trkpt lat="44.197439402175476" lon="12.225586386718112"><ele>19.0</ele><time>2026-04-12T08:38:25Z</time></trkpt><trkpt lat="44.19736915714294" lon="12.225617182279201"><ele>19.0</ele><time>2026-04-12T08:38:26Z</time></trkpt><trkpt lat="44.197282430937705" lon="12.22563618138551"><ele>19.0</ele><time>2026-04-12T08:38:28Z</time></trkpt><trkpt lat="44.19730922747953" lon="12.225505543287223"><ele>19.0</ele><time>2026-04-12T08:38:30Z</time></trkpt><trkpt lat="44.197309249180506" lon="12.225402263452859"><ele>19.0</ele><time>2026-04-12T08:38:33Z</time></trkpt><trkpt lat="44.19730924917999" lon="12.225286097187771"><ele>19.25</ele><time>2026-04-12T08:38:35Z</time></trkpt><trkpt lat="44.19730980567241" lon="12.225089369936017"><ele>19.5</ele><time>2026-04-12T08:38:37Z</time></trkpt><trkpt lat="44.197311407335114" lon="12.224956045395905"><ele>19.75</ele><time>2026-04-12T08:38:38Z</time></trkpt><trkpt lat="44.197313352905674" lon="12.22479409347116"><ele>20.0</ele><time>2026-04-12T08:38:39Z</time></trkpt><trkpt lat="44.19731500899472" lon="12.224656238349242"><ele>20.25</ele><time>2026-04-12T08:38:40Z</time></trkpt><trkpt lat="44.19731699906351" lon="12.224490582289837"><ele>20.5</ele><time>2026-04-12T08:38:41Z</time></trkpt><trkpt lat="44.197318702762445" lon="12.224302216792696"><ele>20.75</ele><time>2026-04-12T08:38:42Z</time></trkpt><trkpt lat="44.19732064792301" lon="12.224106265534044"><ele>21.0</ele><time>2026-04-12T08:38:43Z</time></trkpt><trkpt lat="44.19732334372875" lon="12.223892953035062"><ele>21.0</ele><time>2026-04-12T08:38:44Z</time></trkpt><trkpt lat="44.197321426351884" lon="12.223658376128475"><ele>21.0</ele><time>2026-04-12T08:38:45Z</time></trkpt><trkpt lat="44.19731458298546" lon="12.223458778944526"><ele>21.0</ele><time>2026-04-12T08:38:46Z</time></trkpt><trkpt lat="44.19731780798306" lon="12.223287924912093"><ele>21.0</ele><time>2026-04-12T08:38:47Z</time></trkpt><trkpt lat="44.19732450394952" lon="12.223129099516418"><ele>21.200000000000003</ele><time>2026-04-12T08:38:48Z</time></trkpt><trkpt lat="44.19732939464403" lon="12.222986709915746"><ele>21.400000000000002</ele><time>2026-04-12T08:38:49Z</time></trkpt><trkpt lat="44.19731609311596" lon="12.222853181012113"><ele>21.6</ele><time>2026-04-12T08:38:50Z</time></trkpt><trkpt lat="44.197343576610876" lon="12.222726558502893"><ele>21.8</ele><time>2026-04-12T08:38:50.999Z</time></trkpt><trkpt lat="44.19742897420959" lon="12.222622051210774"><ele>22.0</ele><time>2026-04-12T08:38:51.999Z</time></trkpt><trkpt lat="44.19752709137453" lon="12.22252828697627"><ele>22.0</ele><time>2026-04-12T08:38:52.999Z</time></trkpt><trkpt lat="44.19766143407948" lon="12.222541670958988"><ele>22.0</ele><time>2026-04-12T08:38:53.999Z</time></trkpt><trkpt lat="44.197782015257324" lon="12.22247274081926"><ele>22.0</ele><time>2026-04-12T08:38:54.999Z</time></trkpt><trkpt lat="44.197903251803375" lon="12.222399015265362"><ele>22.0</ele><time>2026-04-12T08:38:55.999Z</time></trkpt><trkpt lat="44.1980173707751" lon="12.222274102589985"><ele>21.666666666666664</ele><time>2026-04-12T08:38:56.999Z</time></trkpt><trkpt lat="44.1981205406175" lon="12.222108025423557"><ele>21.333333333333332</ele><time>2026-04-12T08:38:57.999Z</time></trkpt><trkpt lat="44.19819992264717" lon="12.221915893978906"><ele>21.0</ele><time>2026-04-12T08:38:58.999Z</time></trkpt><trkpt lat="44.19825322706377" lon="12.221710500672181"><ele>21.0</ele><time>2026-04-12T08:38:59.999Z</time></trkpt><trkpt lat="44.198272739780954" lon="12.22149010772094"><ele>21.0</ele><time>2026-04-12T08:39:00.999Z</time></trkpt><trkpt lat="44.198266115358464" lon="12.221286131003197"><ele>21.0</ele><time>2026-04-12T08:39:01.999Z</time></trkpt><trkpt lat="44.19822350917577" lon="12.22107289617972"><ele>21.0</ele><time>2026-04-12T08:39:02.999Z</time></trkpt><trkpt lat="44.19816221896443" lon="12.220869349244296"><ele>21.0</ele><time>2026-04-12T08:39:03.999Z</time></trkpt><trkpt lat="44.1980801435141" lon="12.220689576286679"><ele>21.0</ele><time>2026-04-12T08:39:04.999Z</time></trkpt><trkpt lat="44.19798508164599" lon="12.220526063774422"><ele>21.0</ele><time>2026-04-12T08:39:05.999Z</time></trkpt><trkpt lat="44.19792060473738" lon="12.220360344326005"><ele>21.0</ele><time>2026-04-12T08:39:06.999Z</time></trkpt><trkpt lat="44.19786281167648" lon="12.220203834925757"><ele>21.0</ele><time>2026-04-12T08:39:07.999Z</time></trkpt><trkpt lat="44.19782265025422" lon="12.220036872424968"><ele>21.0</ele><time>2026-04-12T08:39:08.999Z</time></trkpt><trkpt lat="44.19781638600692" lon="12.219852848074503"><ele>21.0</ele><time>2026-04-12T08:39:09.999Z</time></trkpt><trkpt lat="44.19783234042112" lon="12.21965376029021"><ele>21.0</ele><time>2026-04-12T08:39:10.999Z</time></trkpt><trkpt lat="44.19785748665077" lon="12.219446480975083"><ele>21.0</ele><time>2026-04-12T08:39:11.999Z</time></trkpt><trkpt lat="44.19791924661997" lon="12.219256495206501"><ele>21.0</ele><time>2026-04-12T08:39:12.999Z</time></trkpt><trkpt lat="44.19803060694467" lon="12.219084390635624"><ele>20.666666666666668</ele><time>2026-04-12T08:39:13.999Z</time></trkpt><trkpt lat="44.198097016634485" lon="12.218869965039158"><ele>20.333333333333336</ele><time>2026-04-12T08:39:14.999Z</time></trkpt><trkpt lat="44.198190558872064" lon="12.218640408187069"><ele>20.0</ele><time>2026-04-12T08:39:15.999Z</time></trkpt><trkpt lat="44.198280629468655" lon="12.21841024760889"><ele>20.0</ele><time>2026-04-12T08:39:16.999Z</time></trkpt><trkpt lat="44.19837024517689" lon="12.218191612917"><ele>20.0</ele><time>2026-04-12T08:39:17.999Z</time></trkpt><trkpt lat="44.198461060214896" lon="12.21797146016144"><ele>20.0</ele><time>2026-04-12T08:39:18.999Z</time></trkpt><trkpt lat="44.19854345768427" lon="12.217775442679553"><ele>20.5</ele><time>2026-04-12T08:39:19.999Z</time></trkpt><trkpt lat="44.19861975933507" lon="12.21759309010581"><ele>21.0</ele><time>2026-04-12T08:39:20.999Z</time></trkpt><trkpt lat="44.19868921265637" lon="12.217449538929216"><ele>21.5</ele><time>2026-04-12T08:39:21.999Z</time></trkpt><trkpt lat="44.198740191549746" lon="12.217314829236837"><ele>22.0</ele><time>2026-04-12T08:39:22.999Z</time></trkpt><trkpt lat="44.19878451221108" lon="12.217212799749595"><ele>22.0</ele><time>2026-04-12T08:39:23.999Z</time></trkpt><trkpt lat="44.19882525199962" lon="12.217102295762912"><ele>22.0</ele><time>2026-04-12T08:39:25.999Z</time></trkpt><trkpt lat="44.19866246185029" lon="12.217012005376631"><ele>22.0</ele><time>2026-04-12T08:39:31.999Z</time></trkpt><trkpt lat="44.19856744547275" lon="12.217041544215096"><ele>22.0</ele><time>2026-04-12T08:39:32.999Z</time></trkpt><trkpt lat="44.19847509096109" lon="12.217057326031842"><ele>22.0</ele><time>2026-04-12T08:39:33.999Z</time></trkpt><trkpt lat="44.198386274299686" lon="12.21706765066734"><ele>22.0</ele><time>2026-04-12T08:39:34.999Z</time></trkpt><trkpt lat="44.198304903270035" lon="12.217078512823733"><ele>22.0</ele><time>2026-04-12T08:39:35.999Z</time></trkpt><trkpt lat="44.19823322710327" lon="12.217078164764716"><ele>22.0</ele><time>2026-04-12T08:39:36.999Z</time></trkpt><trkpt lat="44.19826235742131" lon="12.21696253039683"><ele>22.0</ele><time>2026-04-12T08:39:38.999Z</time></trkpt><trkpt lat="44.198266049740106" lon="12.216859506778182"><ele>22.0</ele><time>2026-04-12T08:39:56.998Z</time></trkpt><trkpt lat="44.19826093679025" lon="12.216975150257412"><ele>21.5</ele><time>2026-04-12T08:40:21Z</time></trkpt><trkpt lat="44.19812768978559" lon="12.217090917036604"><ele>21.0</ele><time>2026-04-12T08:40:24Z</time></trkpt><trkpt lat="44.19803753361291" lon="12.217106546424477"><ele>20.5</ele><time>2026-04-12T08:40:25Z</time></trkpt><trkpt lat="44.19792936599393" lon="12.21710055904301"><ele>20.0</ele><time>2026-04-12T08:40:26Z</time></trkpt><trkpt lat="44.19779259587689" lon="12.217099472363309"><ele>20.0</ele><time>2026-04-12T08:40:27Z</time></trkpt><trkpt lat="44.19765086299587" lon="12.217107478732347"><ele>20.0</ele><time>2026-04-12T08:40:28Z</time></trkpt><trkpt lat="44.19749135764416" lon="12.217111934736272"><ele>20.0</ele><time>2026-04-12T08:40:29Z</time></trkpt><trkpt lat="44.19733233462693" lon="12.217112338568693"><ele>20.0</ele><time>2026-04-12T08:40:30Z</time></trkpt><trkpt lat="44.197170545433096" lon="12.217111102000386"><ele>20.0</ele><time>2026-04-12T08:40:31Z</time></trkpt><trkpt lat="44.19700069194955" lon="12.217111981806715"><ele>20.0</ele><time>2026-04-12T08:40:32Z</time></trkpt><trkpt lat="44.19681695653956" lon="12.217115120867662"><ele>20.0</ele><time>2026-04-12T08:40:33Z</time></trkpt><trkpt lat="44.19662523358791" lon="12.21712263816302"><ele>20.0</ele><time>2026-04-12T08:40:34Z</time></trkpt><trkpt lat="44.196424262481585" lon="12.217124059400692"><ele>20.0</ele><time>2026-04-12T08:40:35Z</time></trkpt><trkpt lat="44.19621563479565" lon="12.217118865080552"><ele>20.333333333333336</ele><time>2026-04-12T08:40:36Z</time></trkpt><trkpt lat="44.1960109471601" lon="12.217123918312105"><ele>20.666666666666668</ele><time>2026-04-12T08:40:37Z</time></trkpt><trkpt lat="44.195815722608906" lon="12.217128421201098"><ele>21.0</ele><time>2026-04-12T08:40:38Z</time></trkpt><trkpt lat="44.195623150022925" lon="12.217135022807566"><ele>21.333333333333332</ele><time>2026-04-12T08:40:39Z</time></trkpt><trkpt lat="44.19543310535994" lon="12.217136537359432"><ele>21.666666666666664</ele><time>2026-04-12T08:40:40Z</time></trkpt><trkpt lat="44.19523491077617" lon="12.217148481711606"><ele>22.0</ele><time>2026-04-12T08:40:41Z</time></trkpt><trkpt lat="44.19504043052394" lon="12.217160632013421"><ele>22.0</ele><time>2026-04-12T08:40:42Z</time></trkpt><trkpt lat="44.19484074866544" lon="12.217192871819654"><ele>22.0</ele><time>2026-04-12T08:40:43Z</time></trkpt><trkpt lat="44.194624731609025" lon="12.217231224773956"><ele>22.0</ele><time>2026-04-12T08:40:44Z</time></trkpt><trkpt lat="44.194410444771165" lon="12.217272680600598"><ele>21.5</ele><time>2026-04-12T08:40:45Z</time></trkpt><trkpt lat="44.194180137853095" lon="12.217295076559711"><ele>21.0</ele><time>2026-04-12T08:40:46Z</time></trkpt><trkpt lat="44.1939358856592" lon="12.217315199008555"><ele>21.333333333333332</ele><time>2026-04-12T08:40:47Z</time></trkpt><trkpt lat="44.19370174840238" lon="12.217332409458075"><ele>21.666666666666664</ele><time>2026-04-12T08:40:48Z</time></trkpt><trkpt lat="44.19358398993587" lon="12.217344088667273"><ele>22.0</ele><time>2026-04-12T08:40:49Z</time></trkpt><trkpt lat="44.1934071840354" lon="12.217342024926603"><ele>22.0</ele><time>2026-04-12T08:40:49.999Z</time></trkpt><trkpt lat="44.193178943883524" lon="12.21736627943975"><ele>22.0</ele><time>2026-04-12T08:40:50.999Z</time></trkpt><trkpt lat="44.19299697040663" lon="12.217380142104131"><ele>22.0</ele><time>2026-04-12T08:40:51.999Z</time></trkpt><trkpt lat="44.192833549333805" lon="12.21739122330546"><ele>22.0</ele><time>2026-04-12T08:40:52.999Z</time></trkpt><trkpt lat="44.19269318084238" lon="12.217393628882515"><ele>22.0</ele><time>2026-04-12T08:40:53.999Z</time></trkpt><trkpt lat="44.19256760604936" lon="12.217388688997774"><ele>22.0</ele><time>2026-04-12T08:40:54.999Z</time></trkpt><trkpt lat="44.19245523933016" lon="12.217374234075168"><ele>22.0</ele><time>2026-04-12T08:40:55.999Z</time></trkpt><trkpt lat="44.192329019235345" lon="12.217337629909013"><ele>22.25</ele><time>2026-04-12T08:40:56.999Z</time></trkpt><trkpt lat="44.192205449688004" lon="12.217276514888948"><ele>22.5</ele><time>2026-04-12T08:40:57.999Z</time></trkpt><trkpt lat="44.19209540976957" lon="12.217226765273672"><ele>22.75</ele><time>2026-04-12T08:40:58.999Z</time></trkpt><trkpt lat="44.191976355854244" lon="12.217232874265457"><ele>23.0</ele><time>2026-04-12T08:40:59.999Z</time></trkpt><trkpt lat="44.19185611888956" lon="12.21731728930456"><ele>23.0</ele><time>2026-04-12T08:41:00.999Z</time></trkpt><trkpt lat="44.191724881986744" lon="12.217406964769303"><ele>22.0</ele><time>2026-04-12T08:41:01.999Z</time></trkpt></trkseg><trkseg><trkpt lat="44.19772779961679" lon="12.217132432595616"><ele>20.0</ele><time>2026-04-12T08:54:06.999Z</time></trkpt><trkpt lat="44.19784577260262" lon="12.21713088974163"><ele>20.0</ele><time>2026-04-12T08:54:07.999Z</time></trkpt><trkpt lat="44.1979587308481" lon="12.217129356887172"><ele>20.0</ele><time>2026-04-12T08:54:08.999Z</time></trkpt><trkpt lat="44.19806656345429" lon="12.217119069320054"><ele>20.0</ele><time>2026-04-12T08:54:09.999Z</time></trkpt><trkpt lat="44.19815885721473" lon="12.217105929721425"><ele>20.0</ele><time>2026-04-12T08:54:10.999Z</time></trkpt><trkpt lat="44.19823040606233" lon="12.21711498012646"><ele>20.2</ele><time>2026-04-12T08:54:11.999Z</time></trkpt><trkpt lat="44.19827282415177" lon="12.21689025678042"><ele>20.4</ele><time>2026-04-12T08:54:13.999Z</time></trkpt><trkpt lat="44.19829803506868" lon="12.216778710462396"><ele>20.6</ele><time>2026-04-12T08:54:14.999Z</time></trkpt><trkpt lat="44.19833694177006" lon="12.216668445709708"><ele>20.8</ele><time>2026-04-12T08:54:15.999Z</time></trkpt><trkpt lat="44.19839119048996" lon="12.216538074851389"><ele>21.0</ele><time>2026-04-12T08:54:16.999Z</time></trkpt><trkpt lat="44.198422269875756" lon="12.216434897503966"><ele>21.0</ele><time>2026-04-12T08:54:17.999Z</time></trkpt><trkpt lat="44.19843795981005" lon="12.216307796343521"><ele>21.0</ele><time>2026-04-12T08:54:18.999Z</time></trkpt><trkpt lat="44.19842048464508" lon="12.216186794368802"><ele>21.0</ele><time>2026-04-12T08:54:19.999Z</time></trkpt><trkpt lat="44.1984098396298" lon="12.216097804091756"><ele>21.0</ele><time>2026-04-12T08:54:20.999Z</time></trkpt><trkpt lat="44.198400528437816" lon="12.215997887745942"><ele>21.0</ele><time>2026-04-12T08:54:22.999Z</time></trkpt><trkpt lat="44.19835048557366" lon="12.215616759892086"><ele>20.666666666666668</ele><time>2026-04-12T08:54:24.999Z</time></trkpt><trkpt lat="44.19833936214014" lon="12.215496892786131"><ele>20.333333333333332</ele><time>2026-04-12T08:54:25.999Z</time></trkpt><trkpt lat="44.19833010708605" lon="12.215392818319309"><ele>20.0</ele><time>2026-04-12T08:54:26.999Z</time></trkpt><trkpt lat="44.1983343464654" lon="12.215243451560712"><ele>19.666666666666664</ele><time>2026-04-12T08:54:28.998Z</time></trkpt><trkpt lat="44.1983350798848" lon="12.215142371757015"><ele>19.333333333333332</ele><time>2026-04-12T08:54:31.998Z</time></trkpt><trkpt lat="44.198379855142335" lon="12.215054625173215"><ele>19.0</ele><time>2026-04-12T08:54:36.998Z</time></trkpt><trkpt lat="44.19843600239606" lon="12.215010895139654"><ele>19.0</ele><time>2026-04-12T08:54:38.998Z</time></trkpt><trkpt lat="44.198420623968076" lon="12.214911189825814"><ele>19.0</ele><time>2026-04-12T08:54:41.998Z</time></trkpt><trkpt lat="44.19845935902373" lon="12.215011123450187"><ele>19.0</ele><time>2026-04-12T08:54:43.998Z</time></trkpt><trkpt lat="44.19841484862222" lon="12.214911078176618"><ele>19.0</ele><time>2026-04-12T08:54:58Z</time></trkpt><trkpt lat="44.19846193478077" lon="12.215008828590834"><ele>19.0</ele><time>2026-04-12T08:54:59Z</time></trkpt><trkpt lat="44.198421828905346" lon="12.214929440350375"><ele>19.0</ele><time>2026-04-12T08:55:32.999Z</time></trkpt><trkpt lat="44.19844816068974" lon="12.215088490310588"><ele>19.0</ele><time>2026-04-12T08:55:37.999Z</time></trkpt><trkpt lat="44.198542690422215" lon="12.215133229554588"><ele>19.0</ele><time>2026-04-12T08:55:40.999Z</time></trkpt><trkpt lat="44.198600646845335" lon="12.215089248311303"><ele>19.0</ele><time>2026-04-12T08:55:43.999Z</time></trkpt><trkpt lat="44.19869557313971" lon="12.215066760554274"><ele>19.0</ele><time>2026-04-12T08:55:45.999Z</time></trkpt><trkpt lat="44.198801188823694" lon="12.215096082485475"><ele>19.0</ele><time>2026-04-12T08:55:47.999Z</time></trkpt><trkpt lat="44.19887391414382" lon="12.215069548688398"><ele>19.0</ele><time>2026-04-12T08:55:49.999Z</time></trkpt><trkpt lat="44.198928430030264" lon="12.215025076028748"><ele>19.0</ele><time>2026-04-12T08:55:52.999Z</time></trkpt><trkpt lat="44.19897904914965" lon="12.214928636130876"><ele>19.0</ele><time>2026-04-12T08:55:55.999Z</time></trkpt><trkpt lat="44.199015537797244" lon="12.21483662603653"><ele>19.0</ele><time>2026-04-12T08:55:58.999Z</time></trkpt><trkpt lat="44.19895899121002" lon="12.214788907892258"><ele>19.0</ele><time>2026-04-12T08:55:59.999Z</time></trkpt><trkpt lat="44.19895621787239" lon="12.214619799402211"><ele>19.0</ele><time>2026-04-12T08:56:02.999Z</time></trkpt><trkpt lat="44.19895653013032" lon="12.214508822389305"><ele>19.0</ele><time>2026-04-12T08:56:04.999Z</time></trkpt><trkpt lat="44.19895841023998" lon="12.214348840652853"><ele>19.2</ele><time>2026-04-12T08:56:06.999Z</time></trkpt><trkpt lat="44.19896054642529" lon="12.214172813193104"><ele>19.4</ele><time>2026-04-12T08:56:08.999Z</time></trkpt><trkpt lat="44.19896220128213" lon="12.214036449237973"><ele>19.6</ele><time>2026-04-12T08:56:09.999Z</time></trkpt><trkpt lat="44.198963935207125" lon="12.21389356902604"><ele>19.8</ele><time>2026-04-12T08:56:12.999Z</time></trkpt><trkpt lat="44.19896482249203" lon="12.213785873295548"><ele>20.0</ele><time>2026-04-12T08:56:14.999Z</time></trkpt><trkpt lat="44.19896584502147" lon="12.213640082238747"><ele>20.0</ele><time>2026-04-12T08:56:16.999Z</time></trkpt><trkpt lat="44.198977326146846" lon="12.213504513944509"><ele>20.0</ele><time>2026-04-12T08:56:18.999Z</time></trkpt><trkpt lat="44.19897933817723" lon="12.213376411576416"><ele>20.0</ele><time>2026-04-12T08:56:20.999Z</time></trkpt><trkpt lat="44.1989776536691" lon="12.213168139167085"><ele>20.0</ele><time>2026-04-12T08:56:22.999Z</time></trkpt><trkpt lat="44.19896311090318" lon="12.213078459533383"><ele>20.0</ele><time>2026-04-12T08:56:23.999Z</time></trkpt><trkpt lat="44.19891766350584" lon="12.212911800040503"><ele>20.0</ele><time>2026-04-12T08:56:24.999Z</time></trkpt><trkpt lat="44.19888465165963" lon="12.212784685956006"><ele>20.0</ele><time>2026-04-12T08:56:25.999Z</time></trkpt><trkpt lat="44.198877559276525" lon="12.212662325567612"><ele>20.0</ele><time>2026-04-12T08:56:26.999Z</time></trkpt><trkpt lat="44.19887126442582" lon="12.212539739968818"><ele>20.0</ele><time>2026-04-12T08:56:27.999Z</time></trkpt><trkpt lat="44.19887496324058" lon="12.212421788331104"><ele>20.0</ele><time>2026-04-12T08:56:28.999Z</time></trkpt><trkpt lat="44.19888221294253" lon="12.212286339291428"><ele>20.2</ele><time>2026-04-12T08:56:29.999Z</time></trkpt><trkpt lat="44.19889237866764" lon="12.212152501568522"><ele>20.4</ele><time>2026-04-12T08:56:30.999Z</time></trkpt><trkpt lat="44.198903488371855" lon="12.212023167784036"><ele>20.6</ele><time>2026-04-12T08:56:31.999Z</time></trkpt><trkpt lat="44.19891756673988" lon="12.211883838150404"><ele>20.8</ele><time>2026-04-12T08:56:32.998Z</time></trkpt><trkpt lat="44.19891900038881" lon="12.211740124803597"><ele>21.0</ele><time>2026-04-12T08:56:33.998Z</time></trkpt><trkpt lat="44.19893478808226" lon="12.211605003643884"><ele>21.0</ele><time>2026-04-12T08:56:34.998Z</time></trkpt><trkpt lat="44.19894463538973" lon="12.211502950338145"><ele>21.0</ele><time>2026-04-12T08:56:35.998Z</time></trkpt><trkpt lat="44.198947880065845" lon="12.211410396120243"><ele>21.0</ele><time>2026-04-12T08:56:37.998Z</time></trkpt><trkpt lat="44.19882899693832" lon="12.211381445151092"><ele>21.0</ele><time>2026-04-12T08:56:48.998Z</time></trkpt><trkpt lat="44.19873931177811" lon="12.211390665823005"><ele>21.0</ele><time>2026-04-12T08:56:49.998Z</time></trkpt><trkpt lat="44.19862691194228" lon="12.211397128907185"><ele>20.75</ele><time>2026-04-12T08:56:50.998Z</time></trkpt><trkpt lat="44.198513564873714" lon="12.211394350962921"><ele>20.5</ele><time>2026-04-12T08:56:51.998Z</time></trkpt><trkpt lat="44.198386051957584" lon="12.211396371191476"><ele>20.25</ele><time>2026-04-12T08:56:52.998Z</time></trkpt><trkpt lat="44.198248023858746" lon="12.211431984055155"><ele>20.0</ele><time>2026-04-12T08:56:53.998Z</time></trkpt><trkpt lat="44.19808618236788" lon="12.211435311335153"><ele>20.0</ele><time>2026-04-12T08:56:54.998Z</time></trkpt><trkpt lat="44.197940306918525" lon="12.211442654346536"><ele>20.0</ele><time>2026-04-12T08:56:55.998Z</time></trkpt><trkpt lat="44.197797248940915" lon="12.21143944092099"><ele>20.0</ele><time>2026-04-12T08:56:56.998Z</time></trkpt><trkpt lat="44.19765871478419" lon="12.21144200137491"><ele>20.0</ele><time>2026-04-12T08:56:57.998Z</time></trkpt><trkpt lat="44.19752069053056" lon="12.211444165994857"><ele>20.0</ele><time>2026-04-12T08:56:58.998Z</time></trkpt><trkpt lat="44.19740993730778" lon="12.211430105365588"><ele>20.0</ele><time>2026-04-12T08:57:00Z</time></trkpt><trkpt lat="44.19731540482473" lon="12.211455143113447"><ele>20.0</ele><time>2026-04-12T08:57:01Z</time></trkpt><trkpt lat="44.197249642021056" lon="12.211445687637264"><ele>20.0</ele><time>2026-04-12T08:57:02Z</time></trkpt><trkpt lat="44.197194206709106" lon="12.211345005986107"><ele>20.0</ele><time>2026-04-12T08:57:04Z</time></trkpt><trkpt lat="44.197210993509735" lon="12.211244189246818"><ele>20.0</ele><time>2026-04-12T08:57:05Z</time></trkpt><trkpt lat="44.19720542767547" lon="12.21111066888183"><ele>20.0</ele><time>2026-04-12T08:57:06Z</time></trkpt><trkpt lat="44.19719111939245" lon="12.210957334471614"><ele>20.0</ele><time>2026-04-12T08:57:07Z</time></trkpt><trkpt lat="44.19718971211313" lon="12.210795425276359"><ele>20.0</ele><time>2026-04-12T08:57:08Z</time></trkpt><trkpt lat="44.19717965313951" lon="12.210610119782867"><ele>20.0</ele><time>2026-04-12T08:57:09Z</time></trkpt><trkpt lat="44.19716804067068" lon="12.210417037780982"><ele>20.0</ele><time>2026-04-12T08:57:10Z</time></trkpt><trkpt lat="44.19715921774736" lon="12.21021204266091"><ele>20.0</ele><time>2026-04-12T08:57:11Z</time></trkpt><trkpt lat="44.197147573800116" lon="12.210002723194995"><ele>20.0</ele><time>2026-04-12T08:57:12Z</time></trkpt><trkpt lat="44.197137534318905" lon="12.20979074134442"><ele>20.25</ele><time>2026-04-12T08:57:13Z</time></trkpt><trkpt lat="44.197128906762345" lon="12.209597762984705"><ele>20.5</ele><time>2026-04-12T08:57:14Z</time></trkpt><trkpt lat="44.19712593744684" lon="12.209407412434528"><ele>20.75</ele><time>2026-04-12T08:57:15Z</time></trkpt><trkpt lat="44.19713621019528" lon="12.20926689814231"><ele>21.0</ele><time>2026-04-12T08:57:16Z</time></trkpt><trkpt lat="44.19715595783083" lon="12.209163825358154"><ele>21.0</ele><time>2026-04-12T08:57:17Z</time></trkpt><trkpt lat="44.19722980638433" lon="12.209066052247548"><ele>21.0</ele><time>2026-04-12T08:57:19Z</time></trkpt><trkpt lat="44.197293784771404" lon="12.20910234969158"><ele>21.0</ele><time>2026-04-12T08:57:20Z</time></trkpt><trkpt lat="44.197360568584024" lon="12.209072313559057"><ele>21.0</ele><time>2026-04-12T08:57:21Z</time></trkpt><trkpt lat="44.19743115755937" lon="12.209007635696585"><ele>21.0</ele><time>2026-04-12T08:57:22Z</time></trkpt><trkpt lat="44.19746356505721" lon="12.20891039654197"><ele>21.0</ele><time>2026-04-12T08:57:23Z</time></trkpt><trkpt lat="44.19743704198481" lon="12.20878985239835"><ele>21.0</ele><time>2026-04-12T08:57:24Z</time></trkpt><trkpt lat="44.197404151608005" lon="12.208679188168125"><ele>21.0</ele><time>2026-04-12T08:57:25Z</time></trkpt><trkpt lat="44.19737337033236" lon="12.208564915398282"><ele>21.0</ele><time>2026-04-12T08:57:26Z</time></trkpt><trkpt lat="44.19736059807194" lon="12.208464638019475"><ele>21.0</ele><time>2026-04-12T08:57:27Z</time></trkpt><trkpt lat="44.197255581052055" lon="12.208465921961006"><ele>21.0</ele><time>2026-04-12T08:57:28Z</time></trkpt><trkpt lat="44.19728133252063" lon="12.208349063890505"><ele>21.0</ele><time>2026-04-12T08:57:29Z</time></trkpt><trkpt lat="44.19716570923192" lon="12.208344464552635"><ele>21.0</ele><time>2026-04-12T08:57:31Z</time></trkpt><trkpt lat="44.19709065480368" lon="12.208313160974441"><ele>21.0</ele><time>2026-04-12T08:57:32Z</time></trkpt><trkpt lat="44.197006449349075" lon="12.20827414791777"><ele>21.0</ele><time>2026-04-12T08:57:33Z</time></trkpt><trkpt lat="44.19691093626923" lon="12.208243224047632"><ele>21.0</ele><time>2026-04-12T08:57:34Z</time></trkpt><trkpt lat="44.196811749690625" lon="12.20821802466695"><ele>21.0</ele><time>2026-04-12T08:57:34.999Z</time></trkpt><trkpt lat="44.19672335172078" lon="12.208174832317486"><ele>20.833333333333332</ele><time>2026-04-12T08:57:35.999Z</time></trkpt><trkpt lat="44.19667443791664" lon="12.208104866649053"><ele>20.666666666666668</ele><time>2026-04-12T08:57:36.999Z</time></trkpt><trkpt lat="44.19668274883477" lon="12.208015775116852"><ele>20.5</ele><time>2026-04-12T08:57:37.999Z</time></trkpt><trkpt lat="44.19673484801244" lon="12.207930231110685"><ele>20.333333333333336</ele><time>2026-04-12T08:57:38.999Z</time></trkpt><trkpt lat="44.1967656230128" lon="12.207813756743263"><ele>20.166666666666668</ele><time>2026-04-12T08:57:39.999Z</time></trkpt><trkpt lat="44.196805081040104" lon="12.20770826751129"><ele>20.0</ele><time>2026-04-12T08:57:40.999Z</time></trkpt><trkpt lat="44.19685410519875" lon="12.207562872874846"><ele>20.0</ele><time>2026-04-12T08:57:41.999Z</time></trkpt><trkpt lat="44.19690636824282" lon="12.207411328574832"><ele>20.0</ele><time>2026-04-12T08:57:42.999Z</time></trkpt><trkpt lat="44.19696027189905" lon="12.207251116816774"><ele>20.0</ele><time>2026-04-12T08:57:43.999Z</time></trkpt><trkpt lat="44.19701357423218" lon="12.20709103096087"><ele>20.0</ele><time>2026-04-12T08:57:44.999Z</time></trkpt><trkpt lat="44.19705434913201" lon="12.206973806096283"><ele>20.0</ele><time>2026-04-12T08:57:45.999Z</time></trkpt><trkpt lat="44.19709680622336" lon="12.206887838811042"><ele>20.0</ele><time>2026-04-12T08:57:46.999Z</time></trkpt><trkpt lat="44.197120431738725" lon="12.20677971185185"><ele>20.0</ele><time>2026-04-12T08:57:48.999Z</time></trkpt><trkpt lat="44.19694010279179" lon="12.2066695864083"><ele>20.0</ele><time>2026-04-12T08:57:49.999Z</time></trkpt><trkpt lat="44.196840843315364" lon="12.20664790354998"><ele>20.0</ele><time>2026-04-12T08:57:50.999Z</time></trkpt><trkpt lat="44.196740672794384" lon="12.20658853593149"><ele>20.0</ele><time>2026-04-12T08:57:51.999Z</time></trkpt><trkpt lat="44.19661826594328" lon="12.206561146022148"><ele>20.0</ele><time>2026-04-12T08:57:52.999Z</time></trkpt><trkpt lat="44.196497300257924" lon="12.206503518209677"><ele>20.0</ele><time>2026-04-12T08:57:53.999Z</time></trkpt><trkpt lat="44.19637706667836" lon="12.206454343762196"><ele>20.0</ele><time>2026-04-12T08:57:54.999Z</time></trkpt><trkpt lat="44.1962484003201" lon="12.20640197088257"><ele>20.0</ele><time>2026-04-12T08:57:55.999Z</time></trkpt><trkpt lat="44.19610924926583" lon="12.206349369890773"><ele>20.0</ele><time>2026-04-12T08:57:56.999Z</time></trkpt><trkpt lat="44.19597400076526" lon="12.206290749301877"><ele>20.0</ele><time>2026-04-12T08:57:57.999Z</time></trkpt><trkpt lat="44.19582849170007" lon="12.206230197296165"><ele>20.0</ele><time>2026-04-12T08:57:58.999Z</time></trkpt><trkpt lat="44.1956895609403" lon="12.206174643428774"><ele>20.0</ele><time>2026-04-12T08:57:59.999Z</time></trkpt><trkpt lat="44.19553804876035" lon="12.20611924257744"><ele>20.0</ele><time>2026-04-12T08:58:00.999Z</time></trkpt><trkpt lat="44.19539098237064" lon="12.20606286137671"><ele>20.0</ele><time>2026-04-12T08:58:01.999Z</time></trkpt><trkpt lat="44.19523899943288" lon="12.205999240320642"><ele>20.0</ele><time>2026-04-12T08:58:02.999Z</time></trkpt><trkpt lat="44.19508652331331" lon="12.205934983364148"><ele>20.0</ele><time>2026-04-12T08:58:03.999Z</time></trkpt><trkpt lat="44.194926843580916" lon="12.205867581710317"><ele>20.0</ele><time>2026-04-12T08:58:04.999Z</time></trkpt><trkpt lat="44.19478192579518" lon="12.20580982789659"><ele>20.0</ele><time>2026-04-12T08:58:05.999Z</time></trkpt><trkpt lat="44.19464186400716" lon="12.205747610120532"><ele>20.0</ele><time>2026-04-12T08:58:06.999Z</time></trkpt><trkpt lat="44.194489937683535" lon="12.205669732171357"><ele>20.333333333333336</ele><time>2026-04-12T08:58:07.999Z</time></trkpt><trkpt lat="44.19434215465641" lon="12.205580578070775"><ele>20.666666666666668</ele><time>2026-04-12T08:58:08.999Z</time></trkpt><trkpt lat="44.19419215140906" lon="12.205487557129098"><ele>21.0</ele><time>2026-04-12T08:58:09.999Z</time></trkpt><trkpt lat="44.19404443971311" lon="12.205398674201566"><ele>20.666666666666668</ele><time>2026-04-12T08:58:10.999Z</time></trkpt><trkpt lat="44.193899304758204" lon="12.205306317984544"><ele>20.333333333333336</ele><time>2026-04-12T08:58:11.999Z</time></trkpt><trkpt lat="44.19374818545422" lon="12.205213144769257"><ele>20.0</ele><time>2026-04-12T08:58:12.999Z</time></trkpt><trkpt lat="44.193592460880325" lon="12.205121182503394"><ele>20.0</ele><time>2026-04-12T08:58:13.999Z</time></trkpt><trkpt lat="44.19344150396916" lon="12.205031205428533"><ele>20.0</ele><time>2026-04-12T08:58:14.999Z</time></trkpt><trkpt lat="44.193284901901905" lon="12.204944655539824"><ele>20.0</ele><time>2026-04-12T08:58:15.999Z</time></trkpt><trkpt lat="44.193131991119486" lon="12.204844556869121"><ele>20.666666666666668</ele><time>2026-04-12T08:58:16.999Z</time></trkpt><trkpt lat="44.1929697953881" lon="12.204764117759177"><ele>21.333333333333332</ele><time>2026-04-12T08:58:17.999Z</time></trkpt><trkpt lat="44.19280818423625" lon="12.204689056537346"><ele>22.0</ele><time>2026-04-12T08:58:18.999Z</time></trkpt><trkpt lat="44.192643535207175" lon="12.20463507146333"><ele>22.0</ele><time>2026-04-12T08:58:19.999Z</time></trkpt><trkpt lat="44.19248282417703" lon="12.204554569453864"><ele>22.0</ele><time>2026-04-12T08:58:20.999Z</time></trkpt><trkpt lat="44.19232035611894" lon="12.204475809219964"><ele>22.0</ele><time>2026-04-12T08:58:21.999Z</time></trkpt><trkpt lat="44.192170048203195" lon="12.204400500155922"><ele>21.666666666666664</ele><time>2026-04-12T08:58:22.999Z</time></trkpt><trkpt lat="44.192008257333626" lon="12.204326947985967"><ele>21.333333333333332</ele><time>2026-04-12T08:58:23.999Z</time></trkpt><trkpt lat="44.19184681201956" lon="12.204252445856314"><ele>21.0</ele><time>2026-04-12T08:58:24.999Z</time></trkpt><trkpt lat="44.191679781798626" lon="12.204176656871981"><ele>21.0</ele><time>2026-04-12T08:58:25.999Z</time></trkpt><trkpt lat="44.19151585316298" lon="12.204098657988194"><ele>21.0</ele><time>2026-04-12T08:58:26.999Z</time></trkpt><trkpt lat="44.19135087725412" lon="12.20401841977443"><ele>21.0</ele><time>2026-04-12T08:58:27.999Z</time></trkpt><trkpt lat="44.191179505960484" lon="12.20393618222377"><ele>20.333333333333332</ele><time>2026-04-12T08:58:28.999Z</time></trkpt><trkpt lat="44.19100617736372" lon="12.203852748221982"><ele>19.666666666666664</ele><time>2026-04-12T08:58:29.999Z</time></trkpt><trkpt lat="44.19085447103112" lon="12.203769763713723"><ele>19.0</ele><time>2026-04-12T08:58:30.999Z</time></trkpt><trkpt lat="44.19070737537138" lon="12.203688947097067"><ele>19.333333333333332</ele><time>2026-04-12T08:58:31.999Z</time></trkpt><trkpt lat="44.190556169999375" lon="12.203596434024686"><ele>19.666666666666668</ele><time>2026-04-12T08:58:32.999Z</time></trkpt><trkpt lat="44.190408468598456" lon="12.203490917523979"><ele>20.0</ele><time>2026-04-12T08:58:33.999Z</time></trkpt><trkpt lat="44.190268241493875" lon="12.203379450369388"><ele>20.0</ele><time>2026-04-12T08:58:34.999Z</time></trkpt><trkpt lat="44.190116503528266" lon="12.203238958765958"><ele>20.0</ele><time>2026-04-12T08:58:35.999Z</time></trkpt><trkpt lat="44.18997593010636" lon="12.203094442143922"><ele>20.0</ele><time>2026-04-12T08:58:36.999Z</time></trkpt><trkpt lat="44.18982632195033" lon="12.20293409202455"><ele>20.333333333333336</ele><time>2026-04-12T08:58:37.999Z</time></trkpt><trkpt lat="44.18967805240879" lon="12.202760210538928"><ele>20.666666666666668</ele><time>2026-04-12T08:58:38.999Z</time></trkpt><trkpt lat="44.18953209864491" lon="12.202595828910287"><ele>21.0</ele><time>2026-04-12T08:58:39.999Z</time></trkpt><trkpt lat="44.18939779178951" lon="12.202449286071046"><ele>21.666666666666668</ele><time>2026-04-12T08:58:40.999Z</time></trkpt><trkpt lat="44.18926866869685" lon="12.202305958215561"><ele>22.333333333333336</ele><time>2026-04-12T08:58:41.999Z</time></trkpt><trkpt lat="44.18914090784433" lon="12.202166517830433"><ele>23.0</ele><time>2026-04-12T08:58:42.999Z</time></trkpt><trkpt lat="44.189020544723654" lon="12.20203587334997"><ele>22.666666666666668</ele><time>2026-04-12T08:58:43.999Z</time></trkpt><trkpt lat="44.18889297940262" lon="12.201898037264801"><ele>22.333333333333332</ele><time>2026-04-12T08:58:44.998Z</time></trkpt><trkpt lat="44.188768697693526" lon="12.201769847837193"><ele>22.0</ele><time>2026-04-12T08:58:45.998Z</time></trkpt><trkpt lat="44.188626172377745" lon="12.201654437110975"><ele>22.0</ele><time>2026-04-12T08:58:46.998Z</time></trkpt><trkpt lat="44.188469460224425" lon="12.201566716268427"><ele>22.0</ele><time>2026-04-12T08:58:47.998Z</time></trkpt><trkpt lat="44.18828862766575" lon="12.201509933476126"><ele>22.0</ele><time>2026-04-12T08:58:48.998Z</time></trkpt><trkpt lat="44.18810939957021" lon="12.201488715453051"><ele>21.666666666666664</ele><time>2026-04-12T08:58:49.998Z</time></trkpt><trkpt lat="44.18793481366613" lon="12.20150025517758"><ele>21.333333333333332</ele><time>2026-04-12T08:58:50.998Z</time></trkpt><trkpt lat="44.187778688337396" lon="12.201541115986004"><ele>21.0</ele><time>2026-04-12T08:58:51.998Z</time></trkpt><trkpt lat="44.18762958363023" lon="12.201603040327443"><ele>21.0</ele><time>2026-04-12T08:58:52.998Z</time></trkpt><trkpt lat="44.18746586644849" lon="12.201634328949915"><ele>21.0</ele><time>2026-04-12T08:58:53.998Z</time></trkpt><trkpt lat="44.187309878157286" lon="12.201668799950232"><ele>21.0</ele><time>2026-04-12T08:58:54.998Z</time></trkpt><trkpt lat="44.18715258949554" lon="12.201688185157153"><ele>20.75</ele><time>2026-04-12T08:58:55.998Z</time></trkpt><trkpt lat="44.187008631462554" lon="12.201710632193079"><ele>20.5</ele><time>2026-04-12T08:58:56.998Z</time></trkpt><trkpt lat="44.186860991239286" lon="12.201713703927163"><ele>20.25</ele><time>2026-04-12T08:58:57.998Z</time></trkpt><trkpt lat="44.18671630664133" lon="12.20172444122598"><ele>20.0</ele><time>2026-04-12T08:58:58.998Z</time></trkpt><trkpt lat="44.18656527840556" lon="12.201738012584286"><ele>20.2</ele><time>2026-04-12T08:58:59.998Z</time></trkpt><trkpt lat="44.186444838341906" lon="12.20175179926066"><ele>20.4</ele><time>2026-04-12T08:59:00.998Z</time></trkpt><trkpt lat="44.186341633114885" lon="12.201761609890216"><ele>20.6</ele><time>2026-04-12T08:59:01.998Z</time></trkpt><trkpt lat="44.186245207249286" lon="12.201768914280894"><ele>20.8</ele><time>2026-04-12T08:59:02.998Z</time></trkpt><trkpt lat="44.18615295705696" lon="12.20177289373161"><ele>21.0</ele><time>2026-04-12T08:59:03.998Z</time></trkpt><trkpt lat="44.186074611318595" lon="12.201778658060402"><ele>21.0</ele><time>2026-04-12T08:59:04.998Z</time></trkpt><trkpt lat="44.18598898887806" lon="12.201787002119044"><ele>21.0</ele><time>2026-04-12T08:59:06Z</time></trkpt><trkpt lat="44.18586377676889" lon="12.201808476359187"><ele>21.0</ele><time>2026-04-12T08:59:08Z</time></trkpt><trkpt lat="44.18579530663236" lon="12.201802646878999"><ele>21.0</ele><time>2026-04-12T08:59:09Z</time></trkpt><trkpt lat="44.185710423376925" lon="12.201777130679954"><ele>21.0</ele><time>2026-04-12T08:59:11Z</time></trkpt><trkpt lat="44.18575167595617" lon="12.201634022351387"><ele>21.0</ele><time>2026-04-12T08:59:12Z</time></trkpt><trkpt lat="44.18575185957805" lon="12.201526639316333"><ele>21.0</ele><time>2026-04-12T08:59:13Z</time></trkpt><trkpt lat="44.18575205334979" lon="12.201413321579707"><ele>21.0</ele><time>2026-04-12T08:59:14Z</time></trkpt><trkpt lat="44.18575223828405" lon="12.201305171858301"><ele>21.0</ele><time>2026-04-12T08:59:15Z</time></trkpt><trkpt lat="44.18575239531464" lon="12.201213340159507"><ele>21.0</ele><time>2026-04-12T08:59:16Z</time></trkpt><trkpt lat="44.185751116360976" lon="12.20103678629228"><ele>21.0</ele><time>2026-04-12T08:59:18Z</time></trkpt><trkpt lat="44.185750149948106" lon="12.200931746988925"><ele>21.4</ele><time>2026-04-12T08:59:19Z</time></trkpt><trkpt lat="44.185748979988595" lon="12.20080458448522"><ele>21.8</ele><time>2026-04-12T08:59:20Z</time></trkpt><trkpt lat="44.18573205353126" lon="12.200660562999639"><ele>22.2</ele><time>2026-04-12T08:59:21Z</time></trkpt><trkpt lat="44.18573169738733" lon="12.200511992937821"><ele>22.599999999999998</ele><time>2026-04-12T08:59:22Z</time></trkpt><trkpt lat="44.185751164368334" lon="12.20036175399849"><ele>23.0</ele><time>2026-04-12T08:59:23Z</time></trkpt><trkpt lat="44.185757726747696" lon="12.200222602589639"><ele>23.0</ele><time>2026-04-12T08:59:24Z</time></trkpt><trkpt lat="44.185767391033046" lon="12.200065557943065"><ele>23.0</ele><time>2026-04-12T08:59:25Z</time></trkpt><trkpt lat="44.18577762403417" lon="12.199899271648395"><ele>23.0</ele><time>2026-04-12T08:59:26Z</time></trkpt><trkpt lat="44.18578987070599" lon="12.199734659887557"><ele>23.0</ele><time>2026-04-12T08:59:27Z</time></trkpt><trkpt lat="44.18580457378719" lon="12.199572751043156"><ele>23.0</ele><time>2026-04-12T08:59:28Z</time></trkpt><trkpt lat="44.18581880924429" lon="12.199428233270728"><ele>23.0</ele><time>2026-04-12T08:59:29Z</time></trkpt><trkpt lat="44.185834535777026" lon="12.199281184723258"><ele>23.0</ele><time>2026-04-12T08:59:30Z</time></trkpt><trkpt lat="44.185850817603765" lon="12.199128943515802"><ele>23.0</ele><time>2026-04-12T08:59:31Z</time></trkpt><trkpt lat="44.18585160674391" lon="12.198970423651708"><ele>23.0</ele><time>2026-04-12T08:59:32Z</time></trkpt><trkpt lat="44.18587501889395" lon="12.198816824744613"><ele>23.2</ele><time>2026-04-12T08:59:33Z</time></trkpt><trkpt lat="44.185884959151394" lon="12.19866341449688"><ele>23.4</ele><time>2026-04-12T08:59:34Z</time></trkpt><trkpt lat="44.18590329954749" lon="12.19854652056309"><ele>23.599999999999998</ele><time>2026-04-12T08:59:35Z</time></trkpt><trkpt lat="44.18590810964128" lon="12.198449510344263"><ele>23.799999999999997</ele><time>2026-04-12T08:59:35.999Z</time></trkpt><trkpt lat="44.18592010278522" lon="12.198331135015678"><ele>24.0</ele><time>2026-04-12T08:59:37.999Z</time></trkpt><trkpt lat="44.18602790104725" lon="12.198299154927561"><ele>23.999999999999996</ele><time>2026-04-12T08:59:40.999Z</time></trkpt><trkpt lat="44.18609292149712" lon="12.19827664311514"><ele>24.0</ele><time>2026-04-12T08:59:41.999Z</time></trkpt><trkpt lat="44.186156410117185" lon="12.198279335705271"><ele>24.0</ele><time>2026-04-12T08:59:42.999Z</time></trkpt><trkpt lat="44.186232400111585" lon="12.198275625963614"><ele>24.0</ele><time>2026-04-12T08:59:43.999Z</time></trkpt><trkpt lat="44.18629876193615" lon="12.198274525922345"><ele>24.0</ele><time>2026-04-12T08:59:44.999Z</time></trkpt><trkpt lat="44.18637811235873" lon="12.198275650720747"><ele>23.999999999999996</ele><time>2026-04-12T08:59:45.999Z</time></trkpt><trkpt lat="44.186451992170795" lon="12.198275024533782"><ele>24.0</ele><time>2026-04-12T08:59:46.999Z</time></trkpt><trkpt lat="44.1865310983228" lon="12.198271001234865"><ele>24.2</ele><time>2026-04-12T08:59:47.999Z</time></trkpt><trkpt lat="44.18663004270955" lon="12.198270402561663"><ele>24.4</ele><time>2026-04-12T08:59:48.999Z</time></trkpt><trkpt lat="44.18673428305171" lon="12.198272541816223"><ele>24.6</ele><time>2026-04-12T08:59:49.999Z</time></trkpt><trkpt lat="44.18683846970025" lon="12.198268692396734"><ele>24.8</ele><time>2026-04-12T08:59:50.999Z</time></trkpt><trkpt lat="44.18694793255146" lon="12.19826303293842"><ele>25.0</ele><time>2026-04-12T08:59:51.999Z</time></trkpt><trkpt lat="44.187054330551184" lon="12.198260482283402"><ele>25.0</ele><time>2026-04-12T08:59:52.999Z</time></trkpt><trkpt lat="44.18716675097769" lon="12.198256360975211"><ele>25.0</ele><time>2026-04-12T08:59:53.999Z</time></trkpt><trkpt lat="44.18726694130394" lon="12.198260208438757"><ele>25.0</ele><time>2026-04-12T08:59:54.999Z</time></trkpt><trkpt lat="44.18736912574169" lon="12.19826149193161"><ele>25.0</ele><time>2026-04-12T08:59:55.999Z</time></trkpt><trkpt lat="44.18747483088537" lon="12.198251233520393"><ele>25.0</ele><time>2026-04-12T08:59:56.999Z</time></trkpt><trkpt lat="44.18757968433871" lon="12.198236668526258"><ele>25.0</ele><time>2026-04-12T08:59:57.999Z</time></trkpt><trkpt lat="44.18770270939175" lon="12.198233884603484"><ele>25.0</ele><time>2026-04-12T08:59:58.999Z</time></trkpt><trkpt lat="44.18782186752024" lon="12.198220480270642"><ele>25.0</ele><time>2026-04-12T08:59:59.999Z</time></trkpt><trkpt lat="44.18794820837283" lon="12.198206109620498"><ele>25.0</ele><time>2026-04-12T09:00:00.999Z</time></trkpt><trkpt lat="44.18808102811429" lon="12.19819088239515"><ele>24.5</ele><time>2026-04-12T09:00:01.999Z</time></trkpt><trkpt lat="44.188216295611646" lon="12.198173225787414"><ele>24.0</ele><time>2026-04-12T09:00:02.999Z</time></trkpt><trkpt lat="44.188353373345734" lon="12.198157418279926"><ele>23.5</ele><time>2026-04-12T09:00:03.999Z</time></trkpt><trkpt lat="44.1884872624634" lon="12.198142085586067"><ele>23.0</ele><time>2026-04-12T09:00:04.999Z</time></trkpt><trkpt lat="44.18861584576244" lon="12.198134261203199"><ele>22.799999999999997</ele><time>2026-04-12T09:00:05.999Z</time></trkpt><trkpt lat="44.18874417692379" lon="12.198118829082889"><ele>22.6</ele><time>2026-04-12T09:00:06.999Z</time></trkpt><trkpt lat="44.18885461810301" lon="12.198110786554325"><ele>22.4</ele><time>2026-04-12T09:00:07.999Z</time></trkpt><trkpt lat="44.18895646976059" lon="12.198101588336804"><ele>22.200000000000003</ele><time>2026-04-12T09:00:08.999Z</time></trkpt><trkpt lat="44.18905212378881" lon="12.19808932180453"><ele>22.0</ele><time>2026-04-12T09:00:09.999Z</time></trkpt><trkpt lat="44.18913722481961" lon="12.198077199667175"><ele>22.0</ele><time>2026-04-12T09:00:10.999Z</time></trkpt><trkpt lat="44.189210052692786" lon="12.198045633265593"><ele>22.0</ele><time>2026-04-12T09:00:11.999Z</time></trkpt><trkpt lat="44.189246641594764" lon="12.197856647300972"><ele>22.0</ele><time>2026-04-12T09:00:13.999Z</time></trkpt><trkpt lat="44.1892166077051" lon="12.197757152330931"><ele>22.0</ele><time>2026-04-12T09:00:14.999Z</time></trkpt><trkpt lat="44.18916945557519" lon="12.197652503031732"><ele>22.0</ele><time>2026-04-12T09:00:15.999Z</time></trkpt><trkpt lat="44.189146518372844" lon="12.197535586334324"><ele>22.0</ele><time>2026-04-12T09:00:16.999Z</time></trkpt><trkpt lat="44.189124985019" lon="12.197421637365002"><ele>22.0</ele><time>2026-04-12T09:00:17.999Z</time></trkpt><trkpt lat="44.189100492338675" lon="12.197290332049485"><ele>22.0</ele><time>2026-04-12T09:00:18.999Z</time></trkpt><trkpt lat="44.189073255854865" lon="12.197139266941022"><ele>22.0</ele><time>2026-04-12T09:00:19.999Z</time></trkpt><trkpt lat="44.18904589876175" lon="12.196987532971345"><ele>22.0</ele><time>2026-04-12T09:00:20.999Z</time></trkpt><trkpt lat="44.18901660127439" lon="12.19682503618831"><ele>22.25</ele><time>2026-04-12T09:00:21.999Z</time></trkpt><trkpt lat="44.18898660553081" lon="12.196658667310222"><ele>22.5</ele><time>2026-04-12T09:00:22.999Z</time></trkpt><trkpt lat="44.18895699341079" lon="12.19649442634637"><ele>22.75</ele><time>2026-04-12T09:00:23.999Z</time></trkpt><trkpt lat="44.18892855209454" lon="12.196336678628937"><ele>23.0</ele><time>2026-04-12T09:00:24.999Z</time></trkpt><trkpt lat="44.18890403572797" lon="12.196196199378722"><ele>23.0</ele><time>2026-04-12T09:00:25.999Z</time></trkpt><trkpt lat="44.18888389912612" lon="12.196070500865021"><ele>23.0</ele><time>2026-04-12T09:00:26.999Z</time></trkpt><trkpt lat="44.188851875587616" lon="12.195944760882751"><ele>23.0</ele><time>2026-04-12T09:00:27.999Z</time></trkpt><trkpt lat="44.188850164233855" lon="12.195789440151794"><ele>23.0</ele><time>2026-04-12T09:00:28.999Z</time></trkpt><trkpt lat="44.18884459144833" lon="12.195625736585582"><ele>23.0</ele><time>2026-04-12T09:00:29.999Z</time></trkpt><trkpt lat="44.18884847798611" lon="12.195451835142569"><ele>23.0</ele><time>2026-04-12T09:00:30.999Z</time></trkpt><trkpt lat="44.18885458523901" lon="12.19526611448234"><ele>23.0</ele><time>2026-04-12T09:00:31.999Z</time></trkpt><trkpt lat="44.18886145831884" lon="12.195096340089588"><ele>23.0</ele><time>2026-04-12T09:00:32.999Z</time></trkpt><trkpt lat="44.18886751516431" lon="12.19494672781631"><ele>23.0</ele><time>2026-04-12T09:00:33.999Z</time></trkpt><trkpt lat="44.18887369626429" lon="12.194793241982428"><ele>22.75</ele><time>2026-04-12T09:00:34.999Z</time></trkpt><trkpt lat="44.18888007379335" lon="12.194631677909626"><ele>22.5</ele><time>2026-04-12T09:00:35.999Z</time></trkpt><trkpt lat="44.188870428317124" lon="12.1944581009392"><ele>22.25</ele><time>2026-04-12T09:00:36.999Z</time></trkpt><trkpt lat="44.18887855817661" lon="12.194291988947679"><ele>22.0</ele><time>2026-04-12T09:00:37.999Z</time></trkpt><trkpt lat="44.18888006001098" lon="12.194120940376026"><ele>22.0</ele><time>2026-04-12T09:00:38.999Z</time></trkpt><trkpt lat="44.18887261571211" lon="12.193950095847821"><ele>22.0</ele><time>2026-04-12T09:00:39.999Z</time></trkpt><trkpt lat="44.188860422471514" lon="12.193784596029799"><ele>22.0</ele><time>2026-04-12T09:00:40.999Z</time></trkpt><trkpt lat="44.18887756294988" lon="12.193621174304244"><ele>22.0</ele><time>2026-04-12T09:00:41.999Z</time></trkpt><trkpt lat="44.1888907365448" lon="12.193479787897568"><ele>22.0</ele><time>2026-04-12T09:00:42.999Z</time></trkpt><trkpt lat="44.18890785508548" lon="12.193332694998263"><ele>22.0</ele><time>2026-04-12T09:00:43.999Z</time></trkpt><trkpt lat="44.1889151554159" lon="12.193170511147455"><ele>22.0</ele><time>2026-04-12T09:00:44.999Z</time></trkpt><trkpt lat="44.18893319590885" lon="12.193016097919305"><ele>22.0</ele><time>2026-04-12T09:00:45.999Z</time></trkpt><trkpt lat="44.18894560875958" lon="12.192867909502937"><ele>22.0</ele><time>2026-04-12T09:00:46.999Z</time></trkpt><trkpt lat="44.188961946029906" lon="12.19272676403506"><ele>22.25</ele><time>2026-04-12T09:00:47.999Z</time></trkpt><trkpt lat="44.188977940764374" lon="12.1925805318619"><ele>22.5</ele><time>2026-04-12T09:00:48.999Z</time></trkpt><trkpt lat="44.18899448541343" lon="12.192426799116133"><ele>22.75</ele><time>2026-04-12T09:00:49.999Z</time></trkpt><trkpt lat="44.189017255348894" lon="12.192254788033514"><ele>23.0</ele><time>2026-04-12T09:00:50.999Z</time></trkpt><trkpt lat="44.18903723249433" lon="12.19208031458513"><ele>23.0</ele><time>2026-04-12T09:00:51.998Z</time></trkpt><trkpt lat="44.18905853300129" lon="12.191889215580058"><ele>23.0</ele><time>2026-04-12T09:00:52.998Z</time></trkpt><trkpt lat="44.189096017108255" lon="12.191706306097554"><ele>23.0</ele><time>2026-04-12T09:00:53.998Z</time></trkpt><trkpt lat="44.189117105654084" lon="12.191517199965247"><ele>23.0</ele><time>2026-04-12T09:00:54.998Z</time></trkpt><trkpt lat="44.18912072752099" lon="12.191335887754514"><ele>23.0</ele><time>2026-04-12T09:00:55.998Z</time></trkpt><trkpt lat="44.18913797316192" lon="12.191183368515356"><ele>23.0</ele><time>2026-04-12T09:00:56.998Z</time></trkpt><trkpt lat="44.18916615082794" lon="12.191044135615885"><ele>23.0</ele><time>2026-04-12T09:00:57.998Z</time></trkpt><trkpt lat="44.18916783880156" lon="12.190882093218363"><ele>23.0</ele><time>2026-04-12T09:00:58.998Z</time></trkpt><trkpt lat="44.189176452222725" lon="12.19071894247099"><ele>23.0</ele><time>2026-04-12T09:00:59.998Z</time></trkpt><trkpt lat="44.18918901694344" lon="12.1905568876322"><ele>23.4</ele><time>2026-04-12T09:01:00.998Z</time></trkpt><trkpt lat="44.18919922573605" lon="12.190390109521921"><ele>23.799999999999997</ele><time>2026-04-12T09:01:01.998Z</time></trkpt><trkpt lat="44.18918568642607" lon="12.190237401283426"><ele>24.2</ele><time>2026-04-12T09:01:02.998Z</time></trkpt><trkpt lat="44.189173636585146" lon="12.190109158886505"><ele>24.6</ele><time>2026-04-12T09:01:03.998Z</time></trkpt><trkpt lat="44.189159434532435" lon="12.18999630122699"><ele>25.0</ele><time>2026-04-12T09:01:04.998Z</time></trkpt><trkpt lat="44.189128832918826" lon="12.189884651273017"><ele>25.0</ele><time>2026-04-12T09:01:06.998Z</time></trkpt><trkpt lat="44.189107251059234" lon="12.18976478349397"><ele>25.0</ele><time>2026-04-12T09:01:14Z</time></trkpt><trkpt lat="44.18893595917188" lon="12.189771208182437"><ele>25.0</ele><time>2026-04-12T09:01:16Z</time></trkpt><trkpt lat="44.18884524315256" lon="12.189778220366282"><ele>25.0</ele><time>2026-04-12T09:01:17Z</time></trkpt><trkpt lat="44.18873556236555" lon="12.18976324859182"><ele>25.0</ele><time>2026-04-12T09:01:18Z</time></trkpt><trkpt lat="44.18862447730722" lon="12.189733226178973"><ele>25.0</ele><time>2026-04-12T09:01:19Z</time></trkpt><trkpt lat="44.18850508667878" lon="12.189690714920822"><ele>25.0</ele><time>2026-04-12T09:01:20Z</time></trkpt><trkpt lat="44.188377535426184" lon="12.189636438546184"><ele>25.0</ele><time>2026-04-12T09:01:21Z</time></trkpt><trkpt lat="44.18825054234986" lon="12.189572285154346"><ele>24.75</ele><time>2026-04-12T09:01:22Z</time></trkpt><trkpt lat="44.18812990564544" lon="12.189497364301753"><ele>24.5</ele><time>2026-04-12T09:01:23Z</time></trkpt><trkpt lat="44.188009178658824" lon="12.189426728353203"><ele>24.25</ele><time>2026-04-12T09:01:24Z</time></trkpt><trkpt lat="44.18788002912154" lon="12.189349285441612"><ele>24.0</ele><time>2026-04-12T09:01:25Z</time></trkpt><trkpt lat="44.18774804118847" lon="12.189269421435894"><ele>24.0</ele><time>2026-04-12T09:01:26Z</time></trkpt><trkpt lat="44.18762805611627" lon="12.189182044630385"><ele>24.0</ele><time>2026-04-12T09:01:27Z</time></trkpt><trkpt lat="44.18749737837911" lon="12.189088282692685"><ele>24.0</ele><time>2026-04-12T09:01:28Z</time></trkpt><trkpt lat="44.18740997685971" lon="12.188862157913775"><ele>24.666666666666664</ele><time>2026-04-12T09:01:29Z</time></trkpt><trkpt lat="44.18726160951811" lon="12.188684779086989"><ele>25.333333333333332</ele><time>2026-04-12T09:01:30Z</time></trkpt><trkpt lat="44.18710829503519" lon="12.188504372541326"><ele>26.0</ele><time>2026-04-12T09:01:31Z</time></trkpt><trkpt lat="44.186947441999486" lon="12.188313355191188"><ele>25.333333333333332</ele><time>2026-04-12T09:01:32Z</time></trkpt><trkpt lat="44.186784860812864" lon="12.188143444927977"><ele>24.666666666666664</ele><time>2026-04-12T09:01:33Z</time></trkpt><trkpt lat="44.186642013117925" lon="12.187973983746026"><ele>24.0</ele><time>2026-04-12T09:01:34Z</time></trkpt><trkpt lat="44.186522521648754" lon="12.187800835501575"><ele>24.25</ele><time>2026-04-12T09:01:35Z</time></trkpt><trkpt lat="44.18641058525417" lon="12.187665822858706"><ele>24.5</ele><time>2026-04-12T09:01:36Z</time></trkpt><trkpt lat="44.186294502031885" lon="12.18752646408077"><ele>24.75</ele><time>2026-04-12T09:01:37Z</time></trkpt><trkpt lat="44.186190985096985" lon="12.187403197100656"><ele>25.0</ele><time>2026-04-12T09:01:38Z</time></trkpt><trkpt lat="44.1860879520721" lon="12.187280506204504"><ele>25.0</ele><time>2026-04-12T09:01:39Z</time></trkpt><trkpt lat="44.185994116384336" lon="12.187168767618928"><ele>25.0</ele><time>2026-04-12T09:01:40Z</time></trkpt><trkpt lat="44.185906726929865" lon="12.187064705046293"><ele>25.0</ele><time>2026-04-12T09:01:41Z</time></trkpt><trkpt lat="44.18581434775153" lon="12.18695168484228"><ele>25.0</ele><time>2026-04-12T09:01:42Z</time></trkpt><trkpt lat="44.18571425463946" lon="12.186828119794685"><ele>25.0</ele><time>2026-04-12T09:01:43Z</time></trkpt><trkpt lat="44.18560413872024" lon="12.186692822379245"><ele>25.0</ele><time>2026-04-12T09:01:44Z</time></trkpt><trkpt lat="44.18548630684304" lon="12.186551224229039"><ele>25.0</ele><time>2026-04-12T09:01:45Z</time></trkpt><trkpt lat="44.18536715586352" lon="12.186408042405622"><ele>25.0</ele><time>2026-04-12T09:01:46Z</time></trkpt><trkpt lat="44.18525996791537" lon="12.186272354366306"><ele>25.0</ele><time>2026-04-12T09:01:47Z</time></trkpt><trkpt lat="44.185164949812005" lon="12.186148689997507"><ele>25.0</ele><time>2026-04-12T09:01:48Z</time></trkpt><trkpt lat="44.185100128611715" lon="12.186020704743191"><ele>25.0</ele><time>2026-04-12T09:01:49Z</time></trkpt><trkpt lat="44.1850978184514" lon="12.185861967240886"><ele>24.5</ele><time>2026-04-12T09:01:50Z</time></trkpt><trkpt lat="44.18510459070791" lon="12.185673663756553"><ele>24.0</ele><time>2026-04-12T09:01:50.999Z</time></trkpt><trkpt lat="44.18511490746042" lon="12.185470795566069"><ele>23.5</ele><time>2026-04-12T09:01:51.999Z</time></trkpt><trkpt lat="44.18508683153738" lon="12.185277599283191"><ele>23.0</ele><time>2026-04-12T09:01:52.999Z</time></trkpt><trkpt lat="44.18500448847896" lon="12.185131677675722"><ele>23.0</ele><time>2026-04-12T09:01:53.999Z</time></trkpt><trkpt lat="44.18490133385106" lon="12.185016533583067"><ele>23.0</ele><time>2026-04-12T09:01:54.999Z</time></trkpt><trkpt lat="44.184800470409265" lon="12.18485791348759"><ele>23.0</ele><time>2026-04-12T09:01:55.999Z</time></trkpt><trkpt lat="44.18468568023316" lon="12.184697533497305"><ele>23.0</ele><time>2026-04-12T09:01:56.999Z</time></trkpt><trkpt lat="44.184569182154824" lon="12.184528992654956"><ele>23.0</ele><time>2026-04-12T09:01:57.999Z</time></trkpt><trkpt lat="44.1844513058681" lon="12.184348528405403"><ele>23.0</ele><time>2026-04-12T09:01:58.999Z</time></trkpt><trkpt lat="44.18432735959048" lon="12.18415930042996"><ele>23.0</ele><time>2026-04-12T09:01:59.999Z</time></trkpt><trkpt lat="44.18419924508658" lon="12.183964875801358"><ele>23.0</ele><time>2026-04-12T09:02:00.999Z</time></trkpt><trkpt lat="44.18405913606269" lon="12.183761704666754"><ele>23.0</ele><time>2026-04-12T09:02:01.999Z</time></trkpt><trkpt lat="44.18391155755357" lon="12.183596115219036"><ele>23.0</ele><time>2026-04-12T09:02:02.999Z</time></trkpt><trkpt lat="44.18379805431727" lon="12.183420828389195"><ele>23.25</ele><time>2026-04-12T09:02:03.999Z</time></trkpt><trkpt lat="44.18367108414309" lon="12.183270301252662"><ele>23.5</ele><time>2026-04-12T09:02:04.999Z</time></trkpt><trkpt lat="44.183564436331224" lon="12.183144521145833"><ele>23.75</ele><time>2026-04-12T09:02:05.999Z</time></trkpt><trkpt lat="44.18346026458331" lon="12.183018523523053"><ele>24.0</ele><time>2026-04-12T09:02:06.999Z</time></trkpt><trkpt lat="44.183372363431744" lon="12.182908674929788"><ele>24.0</ele><time>2026-04-12T09:02:07.999Z</time></trkpt><trkpt lat="44.18330249275538" lon="12.182818936007072"><ele>24.0</ele><time>2026-04-12T09:02:08.999Z</time></trkpt><trkpt lat="44.183254043586544" lon="12.182753772261728"><ele>24.0</ele><time>2026-04-12T09:02:09.999Z</time></trkpt><trkpt lat="44.18322762813237" lon="12.182671731132714"><ele>24.0</ele><time>2026-04-12T09:02:11.999Z</time></trkpt><trkpt lat="44.183377339037435" lon="12.182584065322152"><ele>24.0</ele><time>2026-04-12T09:02:12.999Z</time></trkpt><trkpt lat="44.18347576862962" lon="12.182494198397793"><ele>24.0</ele><time>2026-04-12T09:02:13.999Z</time></trkpt><trkpt lat="44.18359366415677" lon="12.18238191671798"><ele>24.0</ele><time>2026-04-12T09:02:14.999Z</time></trkpt><trkpt lat="44.18372260382416" lon="12.182250076980889"><ele>24.0</ele><time>2026-04-12T09:02:15.999Z</time></trkpt><trkpt lat="44.183868375494264" lon="12.182074694819244"><ele>24.0</ele><time>2026-04-12T09:02:16.999Z</time></trkpt><trkpt lat="44.18398983114475" lon="12.181878333285031"><ele>24.0</ele><time>2026-04-12T09:02:17.999Z</time></trkpt><trkpt lat="44.184136529420634" lon="12.181672571202391"><ele>24.0</ele><time>2026-04-12T09:02:18.999Z</time></trkpt><trkpt lat="44.18428355261064" lon="12.181469600205242"><ele>24.333333333333336</ele><time>2026-04-12T09:02:19.999Z</time></trkpt><trkpt lat="44.18442416727314" lon="12.18127382558984"><ele>24.666666666666668</ele><time>2026-04-12T09:02:20.999Z</time></trkpt><trkpt lat="44.18457718237607" lon="12.181096258407608"><ele>25.0</ele><time>2026-04-12T09:02:21.999Z</time></trkpt><trkpt lat="44.184722007889555" lon="12.180892025079109"><ele>24.666666666666668</ele><time>2026-04-12T09:02:22.999Z</time></trkpt><trkpt lat="44.18486397534775" lon="12.180685087175329"><ele>24.333333333333336</ele><time>2026-04-12T09:02:23.999Z</time></trkpt><trkpt lat="44.18501109026261" lon="12.180470645981826"><ele>24.0</ele><time>2026-04-12T09:02:24.999Z</time></trkpt><trkpt lat="44.18515614195329" lon="12.180256331656908"><ele>24.0</ele><time>2026-04-12T09:02:25.999Z</time></trkpt><trkpt lat="44.18529916524645" lon="12.180036926650255"><ele>24.0</ele><time>2026-04-12T09:02:26.999Z</time></trkpt><trkpt lat="44.185439429943955" lon="12.179825337490044"><ele>24.0</ele><time>2026-04-12T09:02:27.999Z</time></trkpt><trkpt lat="44.185572391381484" lon="12.17959562713586"><ele>24.0</ele><time>2026-04-12T09:02:28.999Z</time></trkpt><trkpt lat="44.18573141834663" lon="12.179397377085623"><ele>24.0</ele><time>2026-04-12T09:02:29.999Z</time></trkpt><trkpt lat="44.18587810341261" lon="12.179183703190215"><ele>24.0</ele><time>2026-04-12T09:02:30.999Z</time></trkpt><trkpt lat="44.186027814836955" lon="12.178968688280145"><ele>24.0</ele><time>2026-04-12T09:02:31.999Z</time></trkpt><trkpt lat="44.18617985661595" lon="12.178750575154437"><ele>24.0</ele><time>2026-04-12T09:02:32.999Z</time></trkpt><trkpt lat="44.186323805640335" lon="12.178535115392439"><ele>24.0</ele><time>2026-04-12T09:02:33.999Z</time></trkpt><trkpt lat="44.186469180196234" lon="12.178305898323313"><ele>23.333333333333332</ele><time>2026-04-12T09:02:34.999Z</time></trkpt><trkpt lat="44.1866066981027" lon="12.178074547453502"><ele>22.666666666666664</ele><time>2026-04-12T09:02:35.999Z</time></trkpt><trkpt lat="44.18674281590331" lon="12.177836617393176"><ele>22.0</ele><time>2026-04-12T09:02:36.999Z</time></trkpt><trkpt lat="44.18685961669921" lon="12.17762968131037"><ele>22.0</ele><time>2026-04-12T09:02:37.999Z</time></trkpt><trkpt lat="44.18697154902965" lon="12.17742904867244"><ele>22.0</ele><time>2026-04-12T09:02:38.999Z</time></trkpt><trkpt lat="44.18708465991899" lon="12.177227105969353"><ele>22.0</ele><time>2026-04-12T09:02:39.999Z</time></trkpt><trkpt lat="44.18720254417572" lon="12.17701810455958"><ele>22.0</ele><time>2026-04-12T09:02:40.999Z</time></trkpt><trkpt lat="44.187321134681554" lon="12.176807850988354"><ele>22.0</ele><time>2026-04-12T09:02:41.999Z</time></trkpt><trkpt lat="44.18742719919723" lon="12.176585244172662"><ele>22.0</ele><time>2026-04-12T09:02:42.999Z</time></trkpt><trkpt lat="44.18754927896506" lon="12.176368644618153"><ele>21.666666666666664</ele><time>2026-04-12T09:02:43.999Z</time></trkpt><trkpt lat="44.18768260675801" lon="12.176166983624288"><ele>21.333333333333332</ele><time>2026-04-12T09:02:44.999Z</time></trkpt><trkpt lat="44.18778864187993" lon="12.175982476981618"><ele>21.0</ele><time>2026-04-12T09:02:45.999Z</time></trkpt><trkpt lat="44.18788668665647" lon="12.175813213797834"><ele>21.200000000000003</ele><time>2026-04-12T09:02:46.999Z</time></trkpt><trkpt lat="44.18797075168221" lon="12.175668085051633"><ele>21.400000000000002</ele><time>2026-04-12T09:02:47.999Z</time></trkpt><trkpt lat="44.188033983027125" lon="12.175558923542818"><ele>21.6</ele><time>2026-04-12T09:02:48.999Z</time></trkpt><trkpt lat="44.18808740878408" lon="12.175466689974376"><ele>21.8</ele><time>2026-04-12T09:02:49.999Z</time></trkpt><trkpt lat="44.188118269830674" lon="12.175382447458222"><ele>22.0</ele><time>2026-04-12T09:02:50.999Z</time></trkpt><trkpt lat="44.188183843646506" lon="12.175273042240462"><ele>22.0</ele><time>2026-04-12T09:02:52.999Z</time></trkpt><trkpt lat="44.18823718602475" lon="12.175186772434884"><ele>22.0</ele><time>2026-04-12T09:02:56.999Z</time></trkpt><trkpt lat="44.18832196968269" lon="12.175052614420004"><ele>22.0</ele><time>2026-04-12T09:02:58.999Z</time></trkpt><trkpt lat="44.18841774311674" lon="12.174900838144806"><ele>22.0</ele><time>2026-04-12T09:03:00.999Z</time></trkpt><trkpt lat="44.188479226463734" lon="12.174847077267618"><ele>22.0</ele><time>2026-04-12T09:03:01.999Z</time></trkpt><trkpt lat="44.18864420183305" lon="12.174620381108287"><ele>21.75</ele><time>2026-04-12T09:03:02.999Z</time></trkpt><trkpt lat="44.18874018605974" lon="12.174480277142862"><ele>21.5</ele><time>2026-04-12T09:03:03.999Z</time></trkpt><trkpt lat="44.18883957515375" lon="12.17433935631804"><ele>21.25</ele><time>2026-04-12T09:03:04.999Z</time></trkpt><trkpt lat="44.18894178602625" lon="12.174200366773132"><ele>21.0</ele><time>2026-04-12T09:03:05.999Z</time></trkpt><trkpt lat="44.18904583777185" lon="12.174058276618098"><ele>21.5</ele><time>2026-04-12T09:03:06.999Z</time></trkpt><trkpt lat="44.189149976009304" lon="12.17391390430183"><ele>22.0</ele><time>2026-04-12T09:03:07.999Z</time></trkpt><trkpt lat="44.189254316763304" lon="12.173768437203396"><ele>22.5</ele><time>2026-04-12T09:03:08.999Z</time></trkpt><trkpt lat="44.189345679338615" lon="12.17364554580068"><ele>23.0</ele><time>2026-04-12T09:03:09.999Z</time></trkpt><trkpt lat="44.189416515785005" lon="12.173518671678053"><ele>23.0</ele><time>2026-04-12T09:03:10.999Z</time></trkpt><trkpt lat="44.189467199234585" lon="12.173389205532908"><ele>23.0</ele><time>2026-04-12T09:03:11.998Z</time></trkpt><trkpt lat="44.18948784486487" lon="12.173262900955065"><ele>23.0</ele><time>2026-04-12T09:03:12.998Z</time></trkpt><trkpt lat="44.18949407168406" lon="12.173150047305562"><ele>23.0</ele><time>2026-04-12T09:03:13.998Z</time></trkpt><trkpt lat="44.18951050020035" lon="12.173049162613717"><ele>23.0</ele><time>2026-04-12T09:03:14.998Z</time></trkpt><trkpt lat="44.18952797446161" lon="12.172952353876312"><ele>23.0</ele><time>2026-04-12T09:03:15.998Z</time></trkpt><trkpt lat="44.18957464397335" lon="12.172847083524676"><ele>22.25</ele><time>2026-04-12T09:03:16.998Z</time></trkpt><trkpt lat="44.18962377122711" lon="12.172725685309539"><ele>21.5</ele><time>2026-04-12T09:03:18Z</time></trkpt><trkpt lat="44.1896861127605" lon="12.172595332892678"><ele>20.75</ele><time>2026-04-12T09:03:19Z</time></trkpt><trkpt lat="44.18977425170377" lon="12.172463948154498"><ele>20.0</ele><time>2026-04-12T09:03:20Z</time></trkpt><trkpt lat="44.18986788725079" lon="12.17232613520651"><ele>20.0</ele><time>2026-04-12T09:03:21Z</time></trkpt><trkpt lat="44.18997083941148" lon="12.172187803846757"><ele>20.0</ele><time>2026-04-12T09:03:22Z</time></trkpt><trkpt lat="44.19008482371875" lon="12.172041031769576"><ele>20.0</ele><time>2026-04-12T09:03:23Z</time></trkpt><trkpt lat="44.19020158646552" lon="12.171899146171842"><ele>20.0</ele><time>2026-04-12T09:03:24Z</time></trkpt><trkpt lat="44.190319245844464" lon="12.171760385169256"><ele>20.0</ele><time>2026-04-12T09:03:25Z</time></trkpt><trkpt lat="44.19044391503675" lon="12.1716133574089"><ele>20.0</ele><time>2026-04-12T09:03:26Z</time></trkpt><trkpt lat="44.19056801371645" lon="12.171464210747924"><ele>20.333333333333336</ele><time>2026-04-12T09:03:27Z</time></trkpt><trkpt lat="44.19069759802675" lon="12.17130508531878"><ele>20.666666666666668</ele><time>2026-04-12T09:03:28Z</time></trkpt><trkpt lat="44.1908435202948" lon="12.171111857479668"><ele>21.0</ele><time>2026-04-12T09:03:29Z</time></trkpt><trkpt lat="44.19099036252494" lon="12.170918018579286"><ele>21.0</ele><time>2026-04-12T09:03:30Z</time></trkpt><trkpt lat="44.19113158590475" lon="12.170734993156444"><ele>21.0</ele><time>2026-04-12T09:03:31Z</time></trkpt><trkpt lat="44.19126294487913" lon="12.170570057493572"><ele>21.0</ele><time>2026-04-12T09:03:32Z</time></trkpt><trkpt lat="44.19139736168316" lon="12.170416252562404"><ele>20.666666666666668</ele><time>2026-04-12T09:03:33Z</time></trkpt><trkpt lat="44.19152806656186" lon="12.170267750178043"><ele>20.333333333333336</ele><time>2026-04-12T09:03:34Z</time></trkpt><trkpt lat="44.1916461635484" lon="12.170099373326329"><ele>20.0</ele><time>2026-04-12T09:03:35Z</time></trkpt><trkpt lat="44.191770606552616" lon="12.169922487857328"><ele>20.0</ele><time>2026-04-12T09:03:36Z</time></trkpt><trkpt lat="44.19188811621106" lon="12.16971930338758"><ele>20.0</ele><time>2026-04-12T09:03:37Z</time></trkpt><trkpt lat="44.19200251627462" lon="12.169502335472066"><ele>20.0</ele><time>2026-04-12T09:03:38Z</time></trkpt><trkpt lat="44.19212235410417" lon="12.169284025251061"><ele>20.0</ele><time>2026-04-12T09:03:39Z</time></trkpt><trkpt lat="44.192247021109274" lon="12.169079043473197"><ele>20.0</ele><time>2026-04-12T09:03:40Z</time></trkpt><trkpt lat="44.192365401627015" lon="12.168874645560367"><ele>20.0</ele><time>2026-04-12T09:03:41Z</time></trkpt><trkpt lat="44.192482031145154" lon="12.168666981685572"><ele>20.333333333333336</ele><time>2026-04-12T09:03:42Z</time></trkpt><trkpt lat="44.19261175618983" lon="12.168475543983698"><ele>20.666666666666668</ele><time>2026-04-12T09:03:43Z</time></trkpt><trkpt lat="44.192726014380675" lon="12.168257333836241"><ele>21.0</ele><time>2026-04-12T09:03:44Z</time></trkpt><trkpt lat="44.19284814558394" lon="12.168018549225417"><ele>20.333333333333332</ele><time>2026-04-12T09:03:45Z</time></trkpt><trkpt lat="44.1929824973138" lon="12.167779275110105"><ele>19.666666666666664</ele><time>2026-04-12T09:03:46Z</time></trkpt><trkpt lat="44.19311926066659" lon="12.167563549635032"><ele>19.0</ele><time>2026-04-12T09:03:47Z</time></trkpt><trkpt lat="44.19325795268321" lon="12.167360169638055"><ele>18.666666666666664</ele><time>2026-04-12T09:03:48Z</time></trkpt><trkpt lat="44.193383703520844" lon="12.167145101579024"><ele>18.333333333333332</ele><time>2026-04-12T09:03:49Z</time></trkpt><trkpt lat="44.19351993844395" lon="12.16694664190838"><ele>18.0</ele><time>2026-04-12T09:03:50Z</time></trkpt><trkpt lat="44.193653513895406" lon="12.166745174408648"><ele>18.0</ele><time>2026-04-12T09:03:51Z</time></trkpt><trkpt lat="44.193796194969636" lon="12.166568593011071"><ele>18.0</ele><time>2026-04-12T09:03:52Z</time></trkpt><trkpt lat="44.19392756721743" lon="12.166376243459695"><ele>18.0</ele><time>2026-04-12T09:03:53Z</time></trkpt><trkpt lat="44.19406459699511" lon="12.166180479527444"><ele>18.333333333333332</ele><time>2026-04-12T09:03:54Z</time></trkpt><trkpt lat="44.19420166676977" lon="12.165984658716003"><ele>18.666666666666664</ele><time>2026-04-12T09:03:55Z</time></trkpt><trkpt lat="44.19434220461083" lon="12.165783882808407"><ele>19.0</ele><time>2026-04-12T09:03:56Z</time></trkpt><trkpt lat="44.19448564372803" lon="12.165579933358519"><ele>19.333333333333332</ele><time>2026-04-12T09:03:57Z</time></trkpt><trkpt lat="44.194634944730154" lon="12.165372092289179"><ele>19.666666666666668</ele><time>2026-04-12T09:03:58Z</time></trkpt><trkpt lat="44.194786824006165" lon="12.165160660627237"><ele>20.0</ele><time>2026-04-12T09:03:59Z</time></trkpt><trkpt lat="44.194937889247825" lon="12.164950362263317"><ele>20.0</ele><time>2026-04-12T09:04:00Z</time></trkpt><trkpt lat="44.19509001940222" lon="12.164749123835183"><ele>20.0</ele><time>2026-04-12T09:04:01Z</time></trkpt><trkpt lat="44.195228797750374" lon="12.164574827672737"><ele>20.0</ele><time>2026-04-12T09:04:02Z</time></trkpt><trkpt lat="44.19536035170558" lon="12.164409748771234"><ele>20.0</ele><time>2026-04-12T09:04:03Z</time></trkpt><trkpt lat="44.195488839294384" lon="12.16423435759967"><ele>20.0</ele><time>2026-04-12T09:04:04Z</time></trkpt><trkpt lat="44.195620324437115" lon="12.164060827208711"><ele>20.0</ele><time>2026-04-12T09:04:05Z</time></trkpt><trkpt lat="44.19574782173863" lon="12.163892681255241"><ele>20.0</ele><time>2026-04-12T09:04:06Z</time></trkpt><trkpt lat="44.19586128384186" lon="12.16372863485496"><ele>20.0</ele><time>2026-04-12T09:04:06.999Z</time></trkpt><trkpt lat="44.19595637846674" lon="12.163573449372777"><ele>20.0</ele><time>2026-04-12T09:04:07.999Z</time></trkpt><trkpt lat="44.19602884498917" lon="12.163413759658495"><ele>20.0</ele><time>2026-04-12T09:04:08.999Z</time></trkpt><trkpt lat="44.19610090948984" lon="12.163276182063335"><ele>20.0</ele><time>2026-04-12T09:04:09.999Z</time></trkpt><trkpt lat="44.19617013974386" lon="12.163132638798132"><ele>20.0</ele><time>2026-04-12T09:04:10.999Z</time></trkpt><trkpt lat="44.196253453107104" lon="12.162999667591546"><ele>20.0</ele><time>2026-04-12T09:04:11.999Z</time></trkpt><trkpt lat="44.196310348800104" lon="12.162866368581861"><ele>20.0</ele><time>2026-04-12T09:04:12.999Z</time></trkpt><trkpt lat="44.19637686628034" lon="12.162767819412528"><ele>20.0</ele><time>2026-04-12T09:04:13.999Z</time></trkpt><trkpt lat="44.19643835702286" lon="12.162680914648076"><ele>20.0</ele><time>2026-04-12T09:04:14.999Z</time></trkpt><trkpt lat="44.19648810370736" lon="12.162606355730084"><ele>20.0</ele><time>2026-04-12T09:04:15.999Z</time></trkpt><trkpt lat="44.19657322073187" lon="12.162495974758018"><ele>20.0</ele><time>2026-04-12T09:04:17.999Z</time></trkpt><trkpt lat="44.196642752239306" lon="12.162401810125381"><ele>20.0</ele><time>2026-04-12T09:04:19.999Z</time></trkpt><trkpt lat="44.19669718912468" lon="12.162312342827756"><ele>20.0</ele><time>2026-04-12T09:04:21.999Z</time></trkpt><trkpt lat="44.1966693032514" lon="12.162176323689087"><ele>20.0</ele><time>2026-04-12T09:04:22.999Z</time></trkpt><trkpt lat="44.19664622788589" lon="12.162020163295574"><ele>20.0</ele><time>2026-04-12T09:04:23.999Z</time></trkpt><trkpt lat="44.19665729366546" lon="12.161862404040024"><ele>20.0</ele><time>2026-04-12T09:04:24.999Z</time></trkpt><trkpt lat="44.196695320460705" lon="12.161664803017102"><ele>19.75</ele><time>2026-04-12T09:04:25.999Z</time></trkpt><trkpt lat="44.19673629974245" lon="12.161469472034987"><ele>19.5</ele><time>2026-04-12T09:04:26.999Z</time></trkpt><trkpt lat="44.19678085933948" lon="12.161252718375936"><ele>19.25</ele><time>2026-04-12T09:04:27.999Z</time></trkpt><trkpt lat="44.19681699266493" lon="12.161067842221614"><ele>19.0</ele><time>2026-04-12T09:04:28.999Z</time></trkpt><trkpt lat="44.19684562479972" lon="12.160908452931979"><ele>19.0</ele><time>2026-04-12T09:04:29.999Z</time></trkpt><trkpt lat="44.19687051617161" lon="12.160765703235095"><ele>19.0</ele><time>2026-04-12T09:04:30.999Z</time></trkpt><trkpt lat="44.19688831027397" lon="12.160668400862503"><ele>19.0</ele><time>2026-04-12T09:04:31.999Z</time></trkpt><trkpt lat="44.196925549096306" lon="12.160555884196338"><ele>19.0</ele><time>2026-04-12T09:04:34.999Z</time></trkpt><trkpt lat="44.19677207114579" lon="12.160473998106395"><ele>19.0</ele><time>2026-04-12T09:04:35.999Z</time></trkpt><trkpt lat="44.19667468493675" lon="12.160433822743425"><ele>19.2</ele><time>2026-04-12T09:04:36.999Z</time></trkpt><trkpt lat="44.196586390943956" lon="12.160391817224077"><ele>19.4</ele><time>2026-04-12T09:04:37.999Z</time></trkpt><trkpt lat="44.196512594131036" lon="12.1603460709847"><ele>19.6</ele><time>2026-04-12T09:04:38.999Z</time></trkpt><trkpt lat="44.196435524369335" lon="12.160295796859973"><ele>19.8</ele><time>2026-04-12T09:04:39.999Z</time></trkpt><trkpt lat="44.19634627259648" lon="12.160240832667496"><ele>20.0</ele><time>2026-04-12T09:04:40.999Z</time></trkpt><trkpt lat="44.19625150224083" lon="12.160188087685585"><ele>20.0</ele><time>2026-04-12T09:04:41.999Z</time></trkpt><trkpt lat="44.19615153466518" lon="12.160130512200395"><ele>20.0</ele><time>2026-04-12T09:04:42.999Z</time></trkpt><trkpt lat="44.19603904993559" lon="12.160063190533473"><ele>20.0</ele><time>2026-04-12T09:04:43.999Z</time></trkpt><trkpt lat="44.19592228094177" lon="12.159997604485646"><ele>20.0</ele><time>2026-04-12T09:04:44.999Z</time></trkpt><trkpt lat="44.19580032670519" lon="12.159923870078849"><ele>20.0</ele><time>2026-04-12T09:04:45.999Z</time></trkpt><trkpt lat="44.19567414133147" lon="12.1598391218517"><ele>20.0</ele><time>2026-04-12T09:04:46.999Z</time></trkpt><trkpt lat="44.19554237615549" lon="12.159763433669822"><ele>20.0</ele><time>2026-04-12T09:04:47.999Z</time></trkpt><trkpt lat="44.19541069198372" lon="12.159676123363806"><ele>20.0</ele><time>2026-04-12T09:04:48.999Z</time></trkpt><trkpt lat="44.19528099835881" lon="12.159590356319214"><ele>20.0</ele><time>2026-04-12T09:04:49.999Z</time></trkpt><trkpt lat="44.19516070387047" lon="12.159473979281094"><ele>20.0</ele><time>2026-04-12T09:04:50.999Z</time></trkpt><trkpt lat="44.195036511102906" lon="12.159357507957408"><ele>20.0</ele><time>2026-04-12T09:04:51.999Z</time></trkpt><trkpt lat="44.194911523701265" lon="12.159218529228252"><ele>19.333333333333336</ele><time>2026-04-12T09:04:52.999Z</time></trkpt><trkpt lat="44.19479378992257" lon="12.15907022191685"><ele>18.666666666666668</ele><time>2026-04-12T09:04:53.999Z</time></trkpt><trkpt lat="44.194668611805454" lon="12.158903889059147"><ele>18.0</ele><time>2026-04-12T09:04:54.999Z</time></trkpt><trkpt lat="44.19453965734315" lon="12.158732538990211"><ele>18.0</ele><time>2026-04-12T09:04:55.999Z</time></trkpt><trkpt lat="44.194397227254925" lon="12.158576819122516"><ele>18.0</ele><time>2026-04-12T09:04:56.999Z</time></trkpt><trkpt lat="44.19426985687411" lon="12.15840488456268"><ele>18.0</ele><time>2026-04-12T09:04:57.999Z</time></trkpt><trkpt lat="44.19413643885992" lon="12.158229505064899"><ele>18.0</ele><time>2026-04-12T09:04:58.999Z</time></trkpt><trkpt lat="44.19399892273413" lon="12.158046850298934"><ele>18.0</ele><time>2026-04-12T09:04:59.999Z</time></trkpt><trkpt lat="44.1938649742921" lon="12.157866783964996"><ele>18.0</ele><time>2026-04-12T09:05:00.999Z</time></trkpt><trkpt lat="44.19372779196346" lon="12.157683892910033"><ele>18.0</ele><time>2026-04-12T09:05:01.999Z</time></trkpt><trkpt lat="44.193586942866055" lon="12.157500525601998"><ele>18.0</ele><time>2026-04-12T09:05:02.999Z</time></trkpt><trkpt lat="44.19345302791502" lon="12.157325306526714"><ele>18.0</ele><time>2026-04-12T09:05:03.999Z</time></trkpt><trkpt lat="44.19331513116533" lon="12.157146740551998"><ele>18.0</ele><time>2026-04-12T09:05:04.999Z</time></trkpt><trkpt lat="44.193179173641866" lon="12.156968808068891"><ele>18.0</ele><time>2026-04-12T09:05:05.999Z</time></trkpt><trkpt lat="44.193044956211175" lon="12.156791659375056"><ele>18.0</ele><time>2026-04-12T09:05:06.999Z</time></trkpt><trkpt lat="44.192910389784515" lon="12.156618374367879"><ele>18.666666666666668</ele><time>2026-04-12T09:05:07.999Z</time></trkpt><trkpt lat="44.19278745481321" lon="12.15642772403389"><ele>19.333333333333336</ele><time>2026-04-12T09:05:08.999Z</time></trkpt><trkpt lat="44.19264583368636" lon="12.156273409343465"><ele>20.0</ele><time>2026-04-12T09:05:09.999Z</time></trkpt><trkpt lat="44.192515827239745" lon="12.156094879228258"><ele>20.0</ele><time>2026-04-12T09:05:10.999Z</time></trkpt><trkpt lat="44.192381721358906" lon="12.155921655968793"><ele>20.0</ele><time>2026-04-12T09:05:11.999Z</time></trkpt><trkpt lat="44.19224324809565" lon="12.15574186446715"><ele>20.0</ele><time>2026-04-12T09:05:12.999Z</time></trkpt><trkpt lat="44.19211943805208" lon="12.155550562703715"><ele>20.25</ele><time>2026-04-12T09:05:13.999Z</time></trkpt><trkpt lat="44.19201219239286" lon="12.155407279784669"><ele>20.5</ele><time>2026-04-12T09:05:14.999Z</time></trkpt><trkpt lat="44.191909523837" lon="12.155301302805722"><ele>20.75</ele><time>2026-04-12T09:05:15.999Z</time></trkpt><trkpt lat="44.19182959750391" lon="12.155196575856976"><ele>21.0</ele><time>2026-04-12T09:05:16.999Z</time></trkpt><trkpt lat="44.191737481224415" lon="12.155082040815326"><ele>21.0</ele><time>2026-04-12T09:05:17.999Z</time></trkpt><trkpt lat="44.19164800647675" lon="12.154940121721376"><ele>21.0</ele><time>2026-04-12T09:05:18.999Z</time></trkpt><trkpt lat="44.19151524736763" lon="12.154850598979552"><ele>21.0</ele><time>2026-04-12T09:05:19.999Z</time></trkpt><trkpt lat="44.19138176821922" lon="12.154754311203272"><ele>21.0</ele><time>2026-04-12T09:05:20.999Z</time></trkpt><trkpt lat="44.191238788412306" lon="12.154685062495043"><ele>21.25</ele><time>2026-04-12T09:05:21.999Z</time></trkpt><trkpt lat="44.19108123491757" lon="12.154663783175012"><ele>21.5</ele><time>2026-04-12T09:05:22.999Z</time></trkpt><trkpt lat="44.19094897856581" lon="12.154663185277593"><ele>21.75</ele><time>2026-04-12T09:05:24Z</time></trkpt><trkpt lat="44.190836471651565" lon="12.15466333578035"><ele>22.0</ele><time>2026-04-12T09:05:25Z</time></trkpt><trkpt lat="44.19072772344701" lon="12.154668782419154"><ele>22.0</ele><time>2026-04-12T09:05:26Z</time></trkpt><trkpt lat="44.19062601931375" lon="12.154671309929563"><ele>22.0</ele><time>2026-04-12T09:05:27Z</time></trkpt><trkpt lat="44.19055936360603" lon="12.154671359200881"><ele>22.0</ele><time>2026-04-12T09:05:28Z</time></trkpt><trkpt lat="44.190486311405806" lon="12.154643132935547"><ele>22.0</ele><time>2026-04-12T09:05:32Z</time></trkpt><trkpt lat="44.190601826958925" lon="12.154671376262975"><ele>22.0</ele><time>2026-04-12T09:05:36Z</time></trkpt><trkpt lat="44.19073492657869" lon="12.15470319887964"><ele>22.0</ele><time>2026-04-12T09:05:37Z</time></trkpt><trkpt lat="44.190856326044276" lon="12.154692403504066"><ele>22.0</ele><time>2026-04-12T09:05:38Z</time></trkpt><trkpt lat="44.19096681901775" lon="12.154689245109932"><ele>22.0</ele><time>2026-04-12T09:05:39Z</time></trkpt><trkpt lat="44.191078928023664" lon="12.15469540362823"><ele>22.0</ele><time>2026-04-12T09:05:40Z</time></trkpt><trkpt lat="44.19116643043768" lon="12.154706221116124"><ele>22.0</ele><time>2026-04-12T09:05:41Z</time></trkpt><trkpt lat="44.19123278457726" lon="12.154711733153938"><ele>22.0</ele><time>2026-04-12T09:05:42Z</time></trkpt><trkpt lat="44.19129839820433" lon="12.154716396618264"><ele>22.0</ele><time>2026-04-12T09:05:43Z</time></trkpt><trkpt lat="44.1913397954196" lon="12.154591825771213"><ele>22.0</ele><time>2026-04-12T09:05:45Z</time></trkpt><trkpt lat="44.191318947888355" lon="12.154452866823533"><ele>22.0</ele><time>2026-04-12T09:05:46Z</time></trkpt><trkpt lat="44.19129473026864" lon="12.154271576887055"><ele>22.0</ele><time>2026-04-12T09:05:47Z</time></trkpt><trkpt lat="44.19129003406422" lon="12.154065004239799"><ele>21.333333333333332</ele><time>2026-04-12T09:05:48Z</time></trkpt><trkpt lat="44.19129733770425" lon="12.15383210740265"><ele>20.666666666666668</ele><time>2026-04-12T09:05:49Z</time></trkpt><trkpt lat="44.19129119304103" lon="12.153599905395433"><ele>20.0</ele><time>2026-04-12T09:05:50Z</time></trkpt><trkpt lat="44.19131255310991" lon="12.153385086614415"><ele>20.0</ele><time>2026-04-12T09:05:51Z</time></trkpt><trkpt lat="44.19131055111301" lon="12.153186158293487"><ele>20.0</ele><time>2026-04-12T09:05:52Z</time></trkpt><trkpt lat="44.19130847030257" lon="12.152976086968831"><ele>20.0</ele><time>2026-04-12T09:05:53Z</time></trkpt><trkpt lat="44.191306866340526" lon="12.152748408420676"><ele>20.0</ele><time>2026-04-12T09:05:54Z</time></trkpt><trkpt lat="44.191305271368066" lon="12.152522005297795"><ele>20.0</ele><time>2026-04-12T09:05:55Z</time></trkpt><trkpt lat="44.19129167546536" lon="12.152281895558591"><ele>20.0</ele><time>2026-04-12T09:05:56Z</time></trkpt><trkpt lat="44.19128944549945" lon="12.152021034453632"><ele>20.333333333333336</ele><time>2026-04-12T09:05:57Z</time></trkpt><trkpt lat="44.19130013393814" lon="12.151792757086564"><ele>20.666666666666668</ele><time>2026-04-12T09:05:58Z</time></trkpt><trkpt lat="44.19129876214089" lon="12.151571825974823"><ele>21.0</ele><time>2026-04-12T09:05:59Z</time></trkpt><trkpt lat="44.191297964953044" lon="12.15134673991602"><ele>21.0</ele><time>2026-04-12T09:06:00Z</time></trkpt><trkpt lat="44.191281088145324" lon="12.151141579813647"><ele>21.0</ele><time>2026-04-12T09:06:01Z</time></trkpt><trkpt lat="44.19127968855241" lon="12.150955455427479"><ele>21.0</ele><time>2026-04-12T09:06:02Z</time></trkpt><trkpt lat="44.191293142328355" lon="12.15077384252613"><ele>21.0</ele><time>2026-04-12T09:06:03Z</time></trkpt><trkpt lat="44.191289511052254" lon="12.150574337401034"><ele>20.666666666666668</ele><time>2026-04-12T09:06:04Z</time></trkpt><trkpt lat="44.19128587930721" lon="12.150374806531492"><ele>20.333333333333336</ele><time>2026-04-12T09:06:05Z</time></trkpt><trkpt lat="44.191281913395834" lon="12.150156916157945"><ele>20.0</ele><time>2026-04-12T09:06:06Z</time></trkpt><trkpt lat="44.19127730427933" lon="12.149926658644993"><ele>20.0</ele><time>2026-04-12T09:06:07Z</time></trkpt><trkpt lat="44.191272230452114" lon="12.149675392122589"><ele>20.0</ele><time>2026-04-12T09:06:08Z</time></trkpt><trkpt lat="44.19126747915822" lon="12.149440099052434"><ele>20.0</ele><time>2026-04-12T09:06:09Z</time></trkpt><trkpt lat="44.191263507608" lon="12.149243419963149"><ele>20.0</ele><time>2026-04-12T09:06:10Z</time></trkpt><trkpt lat="44.191258597662404" lon="12.14906988803326"><ele>20.0</ele><time>2026-04-12T09:06:11Z</time></trkpt><trkpt lat="44.191254348930016" lon="12.14892185554218"><ele>20.0</ele><time>2026-04-12T09:06:12Z</time></trkpt><trkpt lat="44.19125082519197" lon="12.14879908380581"><ele>20.0</ele><time>2026-04-12T09:06:13Z</time></trkpt><trkpt lat="44.19124627142213" lon="12.148640421927354"><ele>20.0</ele><time>2026-04-12T09:06:15Z</time></trkpt><trkpt lat="44.1910022016352" lon="12.148639504186189"><ele>20.0</ele><time>2026-04-12T09:06:16.999Z</time></trkpt><trkpt lat="44.190877524946984" lon="12.14865910577964"><ele>20.0</ele><time>2026-04-12T09:06:17.999Z</time></trkpt><trkpt lat="44.190738386798266" lon="12.148657051242708"><ele>20.0</ele><time>2026-04-12T09:06:18.999Z</time></trkpt><trkpt lat="44.19059446270859" lon="12.148664875805727"><ele>20.0</ele><time>2026-04-12T09:06:19.999Z</time></trkpt><trkpt lat="44.190458631492305" lon="12.148662964983659"><ele>20.0</ele><time>2026-04-12T09:06:20.999Z</time></trkpt><trkpt lat="44.190320478175735" lon="12.148666682046843"><ele>20.0</ele><time>2026-04-12T09:06:21.999Z</time></trkpt><trkpt lat="44.19017911602383" lon="12.148672291166685"><ele>20.0</ele><time>2026-04-12T09:06:22.999Z</time></trkpt><trkpt lat="44.19002404960497" lon="12.148673793936611"><ele>20.0</ele><time>2026-04-12T09:06:23.999Z</time></trkpt><trkpt lat="44.18987102759645" lon="12.148679422439528"><ele>20.333333333333336</ele><time>2026-04-12T09:06:24.999Z</time></trkpt><trkpt lat="44.18970727302692" lon="12.148681230054363"><ele>20.666666666666668</ele><time>2026-04-12T09:06:25.999Z</time></trkpt><trkpt lat="44.18954639987344" lon="12.14868399347156"><ele>21.0</ele><time>2026-04-12T09:06:26.999Z</time></trkpt><trkpt lat="44.18937174484573" lon="12.148688771576206"><ele>21.0</ele><time>2026-04-12T09:06:27.999Z</time></trkpt><trkpt lat="44.18919209184269" lon="12.148674813118678"><ele>21.0</ele><time>2026-04-12T09:06:28.999Z</time></trkpt><trkpt lat="44.18902584580113" lon="12.148694692710148"><ele>21.0</ele><time>2026-04-12T09:06:29.999Z</time></trkpt><trkpt lat="44.18887583430103" lon="12.148697438886252"><ele>21.0</ele><time>2026-04-12T09:06:30.999Z</time></trkpt><trkpt lat="44.18873982853486" lon="12.148705745861564"><ele>21.0</ele><time>2026-04-12T09:06:31.999Z</time></trkpt><trkpt lat="44.18861389668227" lon="12.148686186128394"><ele>21.0</ele><time>2026-04-12T09:06:32.999Z</time></trkpt><trkpt lat="44.188502509152435" lon="12.148688456948388"><ele>21.0</ele><time>2026-04-12T09:06:33.999Z</time></trkpt><trkpt lat="44.18838599108189" lon="12.14869236029333"><ele>21.0</ele><time>2026-04-12T09:06:34.999Z</time></trkpt><trkpt lat="44.18828794565223" lon="12.148694595414783"><ele>21.0</ele><time>2026-04-12T09:06:35.999Z</time></trkpt><trkpt lat="44.18821067284296" lon="12.148690961131738"><ele>21.0</ele><time>2026-04-12T09:06:36.999Z</time></trkpt><trkpt lat="44.18813536468147" lon="12.14867909375834"><ele>21.0</ele><time>2026-04-12T09:06:38.999Z</time></trkpt><trkpt lat="44.18813409795868" lon="12.148470145148723"><ele>21.0</ele><time>2026-04-12T09:06:41.999Z</time></trkpt><trkpt lat="44.18814098496363" lon="12.148304562605963"><ele>21.0</ele><time>2026-04-12T09:06:42.999Z</time></trkpt><trkpt lat="44.18814962311154" lon="12.148092536269843"><ele>21.0</ele><time>2026-04-12T09:06:43.999Z</time></trkpt><trkpt lat="44.188156174425494" lon="12.14786263078133"><ele>21.0</ele><time>2026-04-12T09:06:44.999Z</time></trkpt><trkpt lat="44.188161710867405" lon="12.147598807676287"><ele>21.333333333333332</ele><time>2026-04-12T09:06:45.999Z</time></trkpt><trkpt lat="44.188164942344514" lon="12.147326423892908"><ele>21.666666666666664</ele><time>2026-04-12T09:06:46.999Z</time></trkpt><trkpt lat="44.18816523999124" lon="12.147015676515714"><ele>22.0</ele><time>2026-04-12T09:06:47.999Z</time></trkpt><trkpt lat="44.18816271050897" lon="12.146701031543023"><ele>22.5</ele><time>2026-04-12T09:06:48.999Z</time></trkpt><trkpt lat="44.188142815358624" lon="12.146375793953204"><ele>23.0</ele><time>2026-04-12T09:06:49.999Z</time></trkpt><trkpt lat="44.188152969927245" lon="12.146074431384045"><ele>23.0</ele><time>2026-04-12T09:06:50.999Z</time></trkpt><trkpt lat="44.188146049305146" lon="12.145749547824279"><ele>23.0</ele><time>2026-04-12T09:06:51.999Z</time></trkpt><trkpt lat="44.18813822743365" lon="12.145421591075305"><ele>23.0</ele><time>2026-04-12T09:06:52.999Z</time></trkpt><trkpt lat="44.188116031565" lon="12.145102905593872"><ele>23.0</ele><time>2026-04-12T09:06:53.999Z</time></trkpt><trkpt lat="44.18810862924043" lon="12.144793638181474"><ele>23.0</ele><time>2026-04-12T09:06:54.999Z</time></trkpt><trkpt lat="44.188106593763926" lon="12.144447989514433"><ele>23.0</ele><time>2026-04-12T09:06:55.999Z</time></trkpt><trkpt lat="44.188092227723615" lon="12.144076449150683"><ele>23.0</ele><time>2026-04-12T09:06:56.999Z</time></trkpt><trkpt lat="44.18808297837576" lon="12.143710017336522"><ele>23.0</ele><time>2026-04-12T09:06:57.999Z</time></trkpt><trkpt lat="44.1880908964343" lon="12.143369855920657"><ele>24.0</ele><time>2026-04-12T09:06:58.999Z</time></trkpt><trkpt lat="44.18808367953814" lon="12.14303469491513"><ele>25.0</ele><time>2026-04-12T09:06:59.999Z</time></trkpt><trkpt lat="44.188074857812204" lon="12.142669353426921"><ele>24.5</ele><time>2026-04-12T09:07:00.999Z</time></trkpt><trkpt lat="44.18806594653986" lon="12.142281004134936"><ele>24.0</ele><time>2026-04-12T09:07:01.999Z</time></trkpt><trkpt lat="44.18805739739769" lon="12.141927229054117"><ele>24.0</ele><time>2026-04-12T09:07:02.999Z</time></trkpt><trkpt lat="44.188050443740515" lon="12.141639477870878"><ele>24.0</ele><time>2026-04-12T09:07:03.999Z</time></trkpt><trkpt lat="44.18804344873595" lon="12.141350015377236"><ele>24.0</ele><time>2026-04-12T09:07:04.999Z</time></trkpt><trkpt lat="44.18803652555012" lon="12.141063525030338"><ele>23.666666666666668</ele><time>2026-04-12T09:07:05.999Z</time></trkpt><trkpt lat="44.18803023900042" lon="12.140783592378954"><ele>23.333333333333336</ele><time>2026-04-12T09:07:06.999Z</time></trkpt><trkpt lat="44.188025775202576" lon="12.140543773703602"><ele>23.0</ele><time>2026-04-12T09:07:07.999Z</time></trkpt><trkpt lat="44.1880215659302" lon="12.140317629376582"><ele>23.0</ele><time>2026-04-12T09:07:08.999Z</time></trkpt><trkpt lat="44.18801821245276" lon="12.140137462825553"><ele>23.0</ele><time>2026-04-12T09:07:09.999Z</time></trkpt><trkpt lat="44.18801550286759" lon="12.139991889610586"><ele>23.0</ele><time>2026-04-12T09:07:10.999Z</time></trkpt><trkpt lat="44.188013422490485" lon="12.139866298438639"><ele>23.0</ele><time>2026-04-12T09:07:11.999Z</time></trkpt><trkpt lat="44.18801238382555" lon="12.139746436985588"><ele>23.0</ele><time>2026-04-12T09:07:13.999Z</time></trkpt><trkpt lat="44.18779408294578" lon="12.13974195072424"><ele>23.0</ele><time>2026-04-12T09:07:14.999Z</time></trkpt><trkpt lat="44.187669883820774" lon="12.139761090207564"><ele>23.0</ele><time>2026-04-12T09:07:15.999Z</time></trkpt><trkpt lat="44.18752770567737" lon="12.139767481835483"><ele>23.0</ele><time>2026-04-12T09:07:16.999Z</time></trkpt><trkpt lat="44.18737124179043" lon="12.139759717942832"><ele>23.0</ele><time>2026-04-12T09:07:17.999Z</time></trkpt><trkpt lat="44.187200329038895" lon="12.13973695293517"><ele>22.666666666666668</ele><time>2026-04-12T09:07:18.999Z</time></trkpt><trkpt lat="44.187028729619016" lon="12.139744430066289"><ele>22.333333333333332</ele><time>2026-04-12T09:07:19.999Z</time></trkpt><trkpt lat="44.186860525141476" lon="12.139744938365325"><ele>22.0</ele><time>2026-04-12T09:07:20.999Z</time></trkpt><trkpt lat="44.18668064589583" lon="12.139724169937677"><ele>22.333333333333332</ele><time>2026-04-12T09:07:21.999Z</time></trkpt><trkpt lat="44.186496796951594" lon="12.13971730013755"><ele>22.666666666666668</ele><time>2026-04-12T09:07:22.999Z</time></trkpt><trkpt lat="44.186342315843106" lon="12.13973145629629"><ele>23.0</ele><time>2026-04-12T09:07:23.999Z</time></trkpt><trkpt lat="44.18620954455072" lon="12.13971875850466"><ele>23.0</ele><time>2026-04-12T09:07:24.999Z</time></trkpt><trkpt lat="44.186091818511954" lon="12.139729081089651"><ele>23.0</ele><time>2026-04-12T09:07:25.999Z</time></trkpt><trkpt lat="44.18598926719692" lon="12.139770816318665"><ele>23.0</ele><time>2026-04-12T09:07:26.999Z</time></trkpt><trkpt lat="44.185937858043864" lon="12.139904410150251"><ele>23.0</ele><time>2026-04-12T09:07:27.999Z</time></trkpt><trkpt lat="44.185900591695635" lon="12.140035922062857"><ele>23.0</ele><time>2026-04-12T09:07:28.999Z</time></trkpt><trkpt lat="44.18592612254167" lon="12.140210952759615"><ele>23.2</ele><time>2026-04-12T09:07:30Z</time></trkpt><trkpt lat="44.185910540792655" lon="12.140368834583109"><ele>23.4</ele><time>2026-04-12T09:07:31Z</time></trkpt><trkpt lat="44.18583808753763" lon="12.14045467673833"><ele>23.599999999999998</ele><time>2026-04-12T09:07:32Z</time></trkpt><trkpt lat="44.18572977911409" lon="12.140465673569452"><ele>23.799999999999997</ele><time>2026-04-12T09:07:33Z</time></trkpt><trkpt lat="44.1856168201869" lon="12.140441681941633"><ele>24.0</ele><time>2026-04-12T09:07:34Z</time></trkpt><trkpt lat="44.18548878770461" lon="12.140440077077956"><ele>24.5</ele><time>2026-04-12T09:07:35Z</time></trkpt><trkpt lat="44.18534564479353" lon="12.140444532129203"><ele>25.0</ele><time>2026-04-12T09:07:36Z</time></trkpt><trkpt lat="44.18520345463588" lon="12.140442541796471"><ele>25.5</ele><time>2026-04-12T09:07:37Z</time></trkpt><trkpt lat="44.18509205295684" lon="12.140439879604033"><ele>26.0</ele><time>2026-04-12T09:07:38Z</time></trkpt><trkpt lat="44.18499691279201" lon="12.140465736744769"><ele>26.0</ele><time>2026-04-12T09:07:39Z</time></trkpt><trkpt lat="44.18492341390741" lon="12.14056101536939"><ele>26.0</ele><time>2026-04-12T09:07:40Z</time></trkpt><trkpt lat="44.1848688082111" lon="12.140716222547727"><ele>26.0</ele><time>2026-04-12T09:07:41Z</time></trkpt><trkpt lat="44.18485629586967" lon="12.140901827046685"><ele>26.0</ele><time>2026-04-12T09:07:42Z</time></trkpt><trkpt lat="44.18487041914219" lon="12.141097858634629"><ele>25.666666666666664</ele><time>2026-04-12T09:07:43Z</time></trkpt><trkpt lat="44.1848825304065" lon="12.141309161809309"><ele>25.333333333333336</ele><time>2026-04-12T09:07:44Z</time></trkpt><trkpt lat="44.18488291293845" lon="12.141539055486893"><ele>25.0</ele><time>2026-04-12T09:07:45Z</time></trkpt><trkpt lat="44.184880325119394" lon="12.1417705172217"><ele>25.0</ele><time>2026-04-12T09:07:46Z</time></trkpt><trkpt lat="44.184882345918396" lon="12.142001373888876"><ele>25.0</ele><time>2026-04-12T09:07:47Z</time></trkpt><trkpt lat="44.184884697031535" lon="12.14223776906008"><ele>25.0</ele><time>2026-04-12T09:07:48Z</time></trkpt><trkpt lat="44.18488483058261" lon="12.142473319591994"><ele>25.0</ele><time>2026-04-12T09:07:49Z</time></trkpt><trkpt lat="44.184885603614894" lon="12.142711511733925"><ele>25.0</ele><time>2026-04-12T09:07:50Z</time></trkpt><trkpt lat="44.18489000862253" lon="12.14294833658184"><ele>25.0</ele><time>2026-04-12T09:07:51Z</time></trkpt><trkpt lat="44.18489487630099" lon="12.143195015912383"><ele>25.0</ele><time>2026-04-12T09:07:52Z</time></trkpt><trkpt lat="44.18489751955033" lon="12.143446035624015"><ele>25.0</ele><time>2026-04-12T09:07:53Z</time></trkpt><trkpt lat="44.184901181561166" lon="12.143675350841562"><ele>25.0</ele><time>2026-04-12T09:07:54Z</time></trkpt><trkpt lat="44.18490212191611" lon="12.143919744553212"><ele>25.0</ele><time>2026-04-12T09:07:55Z</time></trkpt><trkpt lat="44.184901663235536" lon="12.144145379038141"><ele>25.0</ele><time>2026-04-12T09:07:56Z</time></trkpt><trkpt lat="44.18489826775229" lon="12.14438742851706"><ele>25.0</ele><time>2026-04-12T09:07:57Z</time></trkpt><trkpt lat="44.18489928140943" lon="12.144613481835005"><ele>25.0</ele><time>2026-04-12T09:07:58Z</time></trkpt><trkpt lat="44.18490095852337" lon="12.144824582835927"><ele>25.0</ele><time>2026-04-12T09:07:59Z</time></trkpt><trkpt lat="44.184898209306134" lon="12.145031693408544"><ele>25.0</ele><time>2026-04-12T09:08:00Z</time></trkpt><trkpt lat="44.18489641898132" lon="12.145241885725524"><ele>24.666666666666668</ele><time>2026-04-12T09:08:01Z</time></trkpt><trkpt lat="44.18489721418837" lon="12.145457553755755"><ele>24.333333333333336</ele><time>2026-04-12T09:08:02Z</time></trkpt><trkpt lat="44.184899221512644" lon="12.145677827486685"><ele>24.0</ele><time>2026-04-12T09:08:03Z</time></trkpt><trkpt lat="44.18488424915305" lon="12.14590961194774"><ele>24.0</ele><time>2026-04-12T09:08:04Z</time></trkpt><trkpt lat="44.18488297839361" lon="12.146114840839354"><ele>24.0</ele><time>2026-04-12T09:08:05Z</time></trkpt><trkpt lat="44.184880089021775" lon="12.146325584000946"><ele>24.0</ele><time>2026-04-12T09:08:06Z</time></trkpt><trkpt lat="44.18487692034759" lon="12.146516931764959"><ele>24.0</ele><time>2026-04-12T09:08:07Z</time></trkpt><trkpt lat="44.18488200098854" lon="12.146942609843713"><ele>24.0</ele><time>2026-04-12T09:08:08Z</time></trkpt><trkpt lat="44.18487742398111" lon="12.147191946421188"><ele>24.0</ele><time>2026-04-12T09:08:09Z</time></trkpt><trkpt lat="44.18486605078824" lon="12.147446566547876"><ele>24.0</ele><time>2026-04-12T09:08:10Z</time></trkpt><trkpt lat="44.184879792108156" lon="12.147701457337533"><ele>24.0</ele><time>2026-04-12T09:08:11Z</time></trkpt><trkpt lat="44.184881056185446" lon="12.147957761415263"><ele>24.0</ele><time>2026-04-12T09:08:12Z</time></trkpt><trkpt lat="44.18488412400956" lon="12.14820560294241"><ele>24.0</ele><time>2026-04-12T09:08:13Z</time></trkpt><trkpt lat="44.1848867896288" lon="12.148427187161694"><ele>23.5</ele><time>2026-04-12T09:08:14Z</time></trkpt><trkpt lat="44.18488585381205" lon="12.148632676054897"><ele>23.0</ele><time>2026-04-12T09:08:15Z</time></trkpt><trkpt lat="44.18488683975811" lon="12.148822741855346"><ele>22.5</ele><time>2026-04-12T09:08:16Z</time></trkpt><trkpt lat="44.18488847050024" lon="12.149000086131807"><ele>22.0</ele><time>2026-04-12T09:08:17Z</time></trkpt><trkpt lat="44.184890163211506" lon="12.14917049938177"><ele>21.75</ele><time>2026-04-12T09:08:18Z</time></trkpt><trkpt lat="44.184892385169675" lon="12.14935420200489"><ele>21.5</ele><time>2026-04-12T09:08:19Z</time></trkpt><trkpt lat="44.18489544299503" lon="12.149550712183522"><ele>21.25</ele><time>2026-04-12T09:08:20Z</time></trkpt><trkpt lat="44.184896668867424" lon="12.14973526934184"><ele>21.0</ele><time>2026-04-12T09:08:21Z</time></trkpt><trkpt lat="44.184897385058186" lon="12.149895590220574"><ele>21.0</ele><time>2026-04-12T09:08:22Z</time></trkpt><trkpt lat="44.18489744813734" lon="12.150018484792263"><ele>21.0</ele><time>2026-04-12T09:08:23Z</time></trkpt><trkpt lat="44.184901400005316" lon="12.15012547898497"><ele>21.0</ele><time>2026-04-12T09:08:23.999Z</time></trkpt><trkpt lat="44.184850364755306" lon="12.150238812209057"><ele>21.0</ele><time>2026-04-12T09:08:25.999Z</time></trkpt><trkpt lat="44.18472788311317" lon="12.150337634896387"><ele>21.0</ele><time>2026-04-12T09:08:27.999Z</time></trkpt><trkpt lat="44.18470320430964" lon="12.150436773959072"><ele>21.5</ele><time>2026-04-12T09:08:28.999Z</time></trkpt><trkpt lat="44.18469808634667" lon="12.150600390540426"><ele>22.0</ele><time>2026-04-12T09:08:29.999Z</time></trkpt><trkpt lat="44.18467251847859" lon="12.150749503867864"><ele>22.5</ele><time>2026-04-12T09:08:30.999Z</time></trkpt><trkpt lat="44.184608783205874" lon="12.150910421815166"><ele>23.0</ele><time>2026-04-12T09:08:31.999Z</time></trkpt><trkpt lat="44.18453842136148" lon="12.151072819377834"><ele>23.0</ele><time>2026-04-12T09:08:32.999Z</time></trkpt><trkpt lat="44.184472846779556" lon="12.151221608574694"><ele>23.0</ele><time>2026-04-12T09:08:33.999Z</time></trkpt><trkpt lat="44.18441831957869" lon="12.151360579196488"><ele>23.0</ele><time>2026-04-12T09:08:34.999Z</time></trkpt><trkpt lat="44.18437822999801" lon="12.151467013251503"><ele>23.0</ele><time>2026-04-12T09:08:35.999Z</time></trkpt><trkpt lat="44.18433797606513" lon="12.151555910854302"><ele>23.0</ele><time>2026-04-12T09:08:36.999Z</time></trkpt><trkpt lat="44.18428939850284" lon="12.151624739103374"><ele>22.799999999999997</ele><time>2026-04-12T09:08:37.999Z</time></trkpt><trkpt lat="44.1841475270272" lon="12.151648970283082"><ele>22.6</ele><time>2026-04-12T09:08:39.999Z</time></trkpt><trkpt lat="44.18406823184423" lon="12.15163663913643"><ele>22.4</ele><time>2026-04-12T09:08:40.999Z</time></trkpt><trkpt lat="44.18396627543602" lon="12.151624270391254"><ele>22.200000000000003</ele><time>2026-04-12T09:08:41.999Z</time></trkpt><trkpt lat="44.18386782915892" lon="12.151623854775671"><ele>22.0</ele><time>2026-04-12T09:08:42.999Z</time></trkpt><trkpt lat="44.18375593876721" lon="12.151631067187562"><ele>22.400000000000002</ele><time>2026-04-12T09:08:43.999Z</time></trkpt><trkpt lat="44.18364084471316" lon="12.151631845737585"><ele>22.8</ele><time>2026-04-12T09:08:44.999Z</time></trkpt><trkpt lat="44.18352939505514" lon="12.15163206149742"><ele>23.2</ele><time>2026-04-12T09:08:45.999Z</time></trkpt><trkpt lat="44.183437581926604" lon="12.151628410448001"><ele>23.6</ele><time>2026-04-12T09:08:46.999Z</time></trkpt><trkpt lat="44.18335686190417" lon="12.151623976018467"><ele>24.0</ele><time>2026-04-12T09:08:47.999Z</time></trkpt><trkpt lat="44.183255211211325" lon="12.151627816620286"><ele>23.75</ele><time>2026-04-12T09:08:48.999Z</time></trkpt><trkpt lat="44.183123213492394" lon="12.15162326526708"><ele>23.5</ele><time>2026-04-12T09:08:49.999Z</time></trkpt><trkpt lat="44.183011558961866" lon="12.151616724915241"><ele>23.25</ele><time>2026-04-12T09:08:50.999Z</time></trkpt><trkpt lat="44.18290337173032" lon="12.151629219417693"><ele>23.0</ele><time>2026-04-12T09:08:51.999Z</time></trkpt><trkpt lat="44.1828028895636" lon="12.151624478240247"><ele>23.0</ele><time>2026-04-12T09:08:52.999Z</time></trkpt><trkpt lat="44.18268339264581" lon="12.151625595330053"><ele>23.0</ele><time>2026-04-12T09:08:53.999Z</time></trkpt><trkpt lat="44.18256549753495" lon="12.151622558981243"><ele>23.0</ele><time>2026-04-12T09:08:54.999Z</time></trkpt><trkpt lat="44.182438238563115" lon="12.151625844402568"><ele>23.0</ele><time>2026-04-12T09:08:55.999Z</time></trkpt><trkpt lat="44.18231094351533" lon="12.151623034816653"><ele>23.0</ele><time>2026-04-12T09:08:56.999Z</time></trkpt><trkpt lat="44.18219667193328" lon="12.151623570738455"><ele>23.0</ele><time>2026-04-12T09:08:57.999Z</time></trkpt><trkpt lat="44.182085712136676" lon="12.15162670593598"><ele>23.0</ele><time>2026-04-12T09:08:58.999Z</time></trkpt><trkpt lat="44.18197601555942" lon="12.151621254335842"><ele>23.0</ele><time>2026-04-12T09:08:59.999Z</time></trkpt><trkpt lat="44.18188597336445" lon="12.151621991744875"><ele>23.0</ele><time>2026-04-12T09:09:00.999Z</time></trkpt><trkpt lat="44.18180558431972" lon="12.151623675351901"><ele>23.0</ele><time>2026-04-12T09:09:01.999Z</time></trkpt><trkpt lat="44.18174349961514" lon="12.151581202953063"><ele>23.0</ele><time>2026-04-12T09:09:04.999Z</time></trkpt><trkpt lat="44.18172996753954" lon="12.151491894348512"><ele>23.0</ele><time>2026-04-12T09:09:06.999Z</time></trkpt><trkpt lat="44.181758255932884" lon="12.151352628252505"><ele>23.0</ele><time>2026-04-12T09:10:20Z</time></trkpt><trkpt lat="44.181679822352216" lon="12.15120826225826"><ele>23.0</ele><time>2026-04-12T09:10:22Z</time></trkpt><trkpt lat="44.18160944012873" lon="12.15119529761443"><ele>23.0</ele><time>2026-04-12T09:10:23Z</time></trkpt><trkpt lat="44.18151548837476" lon="12.151222125334984"><ele>23.25</ele><time>2026-04-12T09:10:24Z</time></trkpt><trkpt lat="44.18138208561943" lon="12.151230640924561"><ele>23.5</ele><time>2026-04-12T09:10:25Z</time></trkpt><trkpt lat="44.181258902035815" lon="12.151236552491369"><ele>23.75</ele><time>2026-04-12T09:10:26Z</time></trkpt><trkpt lat="44.181141381980744" lon="12.151252316872522"><ele>24.0</ele><time>2026-04-12T09:10:27Z</time></trkpt><trkpt lat="44.181005860835555" lon="12.15125714942626"><ele>24.0</ele><time>2026-04-12T09:10:28Z</time></trkpt><trkpt lat="44.1808737704553" lon="12.151266652361683"><ele>24.0</ele><time>2026-04-12T09:10:29Z</time></trkpt><trkpt lat="44.18073005550278" lon="12.151269072260796"><ele>24.0</ele><time>2026-04-12T09:10:30Z</time></trkpt><trkpt lat="44.18058155632251" lon="12.151272300639743"><ele>24.0</ele><time>2026-04-12T09:10:31Z</time></trkpt><trkpt lat="44.1804278143809" lon="12.151273560368997"><ele>23.75</ele><time>2026-04-12T09:10:32Z</time></trkpt><trkpt lat="44.18029544524407" lon="12.151231479012868"><ele>23.5</ele><time>2026-04-12T09:10:33Z</time></trkpt><trkpt lat="44.18015770113446" lon="12.15117605765292"><ele>23.25</ele><time>2026-04-12T09:10:34Z</time></trkpt><trkpt lat="44.17999620019399" lon="12.151102632573998"><ele>23.0</ele><time>2026-04-12T09:10:35Z</time></trkpt><trkpt lat="44.17980777549136" lon="12.151004729019785"><ele>24.0</ele><time>2026-04-12T09:10:35.999Z</time></trkpt><trkpt lat="44.17963229530421" lon="12.150911942717599"><ele>25.0</ele><time>2026-04-12T09:10:36.999Z</time></trkpt><trkpt lat="44.17944692329837" lon="12.1508193825996"><ele>26.0</ele><time>2026-04-12T09:10:37.999Z</time></trkpt><trkpt lat="44.17926704507509" lon="12.150732703686806"><ele>25.666666666666664</ele><time>2026-04-12T09:10:38.999Z</time></trkpt><trkpt lat="44.179098761884724" lon="12.150654965920571"><ele>25.333333333333336</ele><time>2026-04-12T09:10:39.999Z</time></trkpt><trkpt lat="44.17893892546204" lon="12.150584647146976"><ele>25.0</ele><time>2026-04-12T09:10:40.999Z</time></trkpt><trkpt lat="44.17877071636782" lon="12.150510644883195"><ele>25.0</ele><time>2026-04-12T09:10:41.999Z</time></trkpt><trkpt lat="44.17861354440008" lon="12.150437843153394"><ele>25.0</ele><time>2026-04-12T09:10:42.999Z</time></trkpt><trkpt lat="44.17844217786382" lon="12.150364835256278"><ele>25.0</ele><time>2026-04-12T09:10:43.999Z</time></trkpt><trkpt lat="44.17830167509741" lon="12.1503081562612"><ele>25.0</ele><time>2026-04-12T09:10:44.999Z</time></trkpt><trkpt lat="44.178169614595426" lon="12.150250499486923"><ele>25.0</ele><time>2026-04-12T09:10:45.999Z</time></trkpt><trkpt lat="44.178023873663165" lon="12.150186330489666"><ele>25.0</ele><time>2026-04-12T09:10:46.999Z</time></trkpt><trkpt lat="44.17788575885085" lon="12.150133843344952"><ele>25.0</ele><time>2026-04-12T09:10:47.999Z</time></trkpt><trkpt lat="44.17776783659677" lon="12.15008923370316"><ele>25.0</ele><time>2026-04-12T09:10:48.999Z</time></trkpt><trkpt lat="44.177647714468065" lon="12.150037482589566"><ele>25.0</ele><time>2026-04-12T09:10:49.999Z</time></trkpt><trkpt lat="44.17754092650258" lon="12.14998975722764"><ele>25.0</ele><time>2026-04-12T09:10:50.999Z</time></trkpt><trkpt lat="44.17744511065763" lon="12.14995013432362"><ele>25.0</ele><time>2026-04-12T09:10:51.999Z</time></trkpt><trkpt lat="44.177358329239645" lon="12.149912056736458"><ele>25.0</ele><time>2026-04-12T09:10:52.999Z</time></trkpt><trkpt lat="44.17726904150474" lon="12.149875282106164"><ele>25.2</ele><time>2026-04-12T09:10:53.999Z</time></trkpt><trkpt lat="44.177172255899855" lon="12.149829551736492"><ele>25.4</ele><time>2026-04-12T09:10:54.999Z</time></trkpt><trkpt lat="44.17709782267242" lon="12.149800333770237"><ele>25.6</ele><time>2026-04-12T09:10:55.999Z</time></trkpt><trkpt lat="44.17702874956661" lon="12.149772087218722"><ele>25.8</ele><time>2026-04-12T09:10:56.999Z</time></trkpt><trkpt lat="44.176963611438545" lon="12.149678666628636"><ele>26.0</ele><time>2026-04-12T09:10:58.999Z</time></trkpt><trkpt lat="44.17701256053275" lon="12.149512002734166"><ele>25.999999999999996</ele><time>2026-04-12T09:11:00.999Z</time></trkpt><trkpt lat="44.17706251418628" lon="12.149391442187559"><ele>26.0</ele><time>2026-04-12T09:11:01.999Z</time></trkpt><trkpt lat="44.177115791307315" lon="12.149262860206901"><ele>26.0</ele><time>2026-04-12T09:11:02.999Z</time></trkpt><trkpt lat="44.17714441066062" lon="12.14914915424024"><ele>26.0</ele><time>2026-04-12T09:11:03.999Z</time></trkpt><trkpt lat="44.17720072827497" lon="12.149060165622442"><ele>25.999999999999996</ele><time>2026-04-12T09:11:05.999Z</time></trkpt><trkpt lat="44.17723451068413" lon="12.148979312998838"><ele>26.0</ele><time>2026-04-12T09:11:11.999Z</time></trkpt><trkpt lat="44.177085761537384" lon="12.148919128437328"><ele>26.0</ele><time>2026-04-12T09:11:12.999Z</time></trkpt><trkpt lat="44.17698644260517" lon="12.148927892564238"><ele>26.0</ele><time>2026-04-12T09:11:13.999Z</time></trkpt><trkpt lat="44.1768560984855" lon="12.148938520482837"><ele>26.0</ele><time>2026-04-12T09:11:14.999Z</time></trkpt><trkpt lat="44.17672316319949" lon="12.148940297826407"><ele>26.0</ele><time>2026-04-12T09:11:15.999Z</time></trkpt><trkpt lat="44.17658159426799" lon="12.148944178065651"><ele>25.666666666666664</ele><time>2026-04-12T09:11:16.999Z</time></trkpt><trkpt lat="44.176428212579175" lon="12.148944835446546"><ele>25.333333333333336</ele><time>2026-04-12T09:11:17.999Z</time></trkpt><trkpt lat="44.17627437834365" lon="12.148944101885974"><ele>25.0</ele><time>2026-04-12T09:11:18.999Z</time></trkpt><trkpt lat="44.176124941209" lon="12.14894378640582"><ele>25.0</ele><time>2026-04-12T09:11:19.999Z</time></trkpt><trkpt lat="44.17596979137344" lon="12.148944634444849"><ele>25.0</ele><time>2026-04-12T09:11:20.999Z</time></trkpt><trkpt lat="44.17580802685506" lon="12.148945674119613"><ele>25.0</ele><time>2026-04-12T09:11:21.999Z</time></trkpt><trkpt lat="44.17563613270193" lon="12.148948381746113"><ele>24.666666666666668</ele><time>2026-04-12T09:11:22.999Z</time></trkpt><trkpt lat="44.17544997605842" lon="12.148952399520319"><ele>24.333333333333336</ele><time>2026-04-12T09:11:23.999Z</time></trkpt><trkpt lat="44.175269842966664" lon="12.148955076927969"><ele>24.0</ele><time>2026-04-12T09:11:24.999Z</time></trkpt><trkpt lat="44.17508418671794" lon="12.148956709443905"><ele>24.0</ele><time>2026-04-12T09:11:25.999Z</time></trkpt><trkpt lat="44.17489649947424" lon="12.148951990918622"><ele>24.0</ele><time>2026-04-12T09:11:26.999Z</time></trkpt><trkpt lat="44.17470088529232" lon="12.14893634469111"><ele>24.0</ele><time>2026-04-12T09:11:27.999Z</time></trkpt><trkpt lat="44.17449860845167" lon="12.148938600229767"><ele>24.333333333333336</ele><time>2026-04-12T09:11:28.999Z</time></trkpt><trkpt lat="44.17428852035324" lon="12.148942427917518"><ele>24.666666666666668</ele><time>2026-04-12T09:11:29.999Z</time></trkpt><trkpt lat="44.17407223641841" lon="12.148945223341858"><ele>25.0</ele><time>2026-04-12T09:11:30.999Z</time></trkpt><trkpt lat="44.17385483112906" lon="12.14894306809795"><ele>25.0</ele><time>2026-04-12T09:11:31.999Z</time></trkpt><trkpt lat="44.17362396735991" lon="12.148939351683323"><ele>25.0</ele><time>2026-04-12T09:11:32.999Z</time></trkpt><trkpt lat="44.17338031944548" lon="12.148936682927594"><ele>25.0</ele><time>2026-04-12T09:11:33.999Z</time></trkpt><trkpt lat="44.173136515038166" lon="12.148936190912526"><ele>25.0</ele><time>2026-04-12T09:11:34.999Z</time></trkpt><trkpt lat="44.1729081264046" lon="12.148931618326566"><ele>25.0</ele><time>2026-04-12T09:11:35.999Z</time></trkpt><trkpt lat="44.172721563085524" lon="12.148925642159844"><ele>25.0</ele><time>2026-04-12T09:11:36.999Z</time></trkpt><trkpt lat="44.172562417413474" lon="12.14894722272615"><ele>25.0</ele><time>2026-04-12T09:11:37.999Z</time></trkpt><trkpt lat="44.17243644555225" lon="12.148931459898657"><ele>24.75</ele><time>2026-04-12T09:11:38.999Z</time></trkpt><trkpt lat="44.172307180815565" lon="12.148928591635329"><ele>24.5</ele><time>2026-04-12T09:11:39.999Z</time></trkpt><trkpt lat="44.172206160178845" lon="12.14892780533722"><ele>24.25</ele><time>2026-04-12T09:11:40.999Z</time></trkpt><trkpt lat="44.17208416251708" lon="12.148933379528764"><ele>24.0</ele><time>2026-04-12T09:11:42Z</time></trkpt><trkpt lat="44.17198366919855" lon="12.148933334643456"><ele>24.0</ele><time>2026-04-12T09:11:43Z</time></trkpt><trkpt lat="44.17189126520895" lon="12.148926214697788"><ele>24.0</ele><time>2026-04-12T09:11:44Z</time></trkpt><trkpt lat="44.17180071937321" lon="12.148919086388917"><ele>24.0</ele><time>2026-04-12T09:11:45Z</time></trkpt><trkpt lat="44.171728122232544" lon="12.148933077461638"><ele>24.0</ele><time>2026-04-12T09:11:46Z</time></trkpt><trkpt lat="44.17161280216211" lon="12.148953372683126"><ele>24.0</ele><time>2026-04-12T09:11:47Z</time></trkpt><trkpt lat="44.171502071517914" lon="12.14895271546415"><ele>24.0</ele><time>2026-04-12T09:11:48Z</time></trkpt><trkpt lat="44.17139492683404" lon="12.14894968189033"><ele>24.0</ele><time>2026-04-12T09:11:49Z</time></trkpt><trkpt lat="44.17128915591042" lon="12.148941936615376"><ele>24.0</ele><time>2026-04-12T09:11:50Z</time></trkpt><trkpt lat="44.17120345220355" lon="12.148930500380253"><ele>24.0</ele><time>2026-04-12T09:11:51Z</time></trkpt><trkpt lat="44.171104106451644" lon="12.148924041079297"><ele>24.0</ele><time>2026-04-12T09:11:52Z</time></trkpt><trkpt lat="44.17098655247066" lon="12.14893800784679"><ele>24.0</ele><time>2026-04-12T09:11:53Z</time></trkpt><trkpt lat="44.17087892739729" lon="12.14895626264754"><ele>24.0</ele><time>2026-04-12T09:11:54Z</time></trkpt><trkpt lat="44.17073643372044" lon="12.148971818440685"><ele>24.0</ele><time>2026-04-12T09:11:55Z</time></trkpt><trkpt lat="44.170583744821315" lon="12.149041066387433"><ele>24.0</ele><time>2026-04-12T09:11:56Z</time></trkpt><trkpt lat="44.17045019886237" lon="12.14913756199095"><ele>24.75</ele><time>2026-04-12T09:11:57Z</time></trkpt><trkpt lat="44.170323018302824" lon="12.149154321676203"><ele>25.5</ele><time>2026-04-12T09:11:58Z</time></trkpt><trkpt lat="44.17017057701852" lon="12.14914019762409"><ele>26.25</ele><time>2026-04-12T09:11:59Z</time></trkpt><trkpt lat="44.170053615534094" lon="12.149157426108674"><ele>27.0</ele><time>2026-04-12T09:12:00Z</time></trkpt><trkpt lat="44.169973043543855" lon="12.149175909596686"><ele>27.0</ele><time>2026-04-12T09:12:01Z</time></trkpt><trkpt lat="44.16991246664291" lon="12.149218644120568"><ele>27.0</ele><time>2026-04-12T09:12:02Z</time></trkpt><trkpt lat="44.16978176793766" lon="12.149313880670386"><ele>27.0</ele><time>2026-04-12T09:12:04Z</time></trkpt><trkpt lat="44.16967337914892" lon="12.149404104371227"><ele>27.0</ele><time>2026-04-12T09:12:05Z</time></trkpt><trkpt lat="44.16953908906993" lon="12.149531254527949"><ele>27.0</ele><time>2026-04-12T09:12:06Z</time></trkpt><trkpt lat="44.16937959697107" lon="12.149671076656729"><ele>27.0</ele><time>2026-04-12T09:12:07Z</time></trkpt><trkpt lat="44.1691949501748" lon="12.149829300393328"><ele>27.0</ele><time>2026-04-12T09:12:08Z</time></trkpt><trkpt lat="44.16900062171922" lon="12.14999940566396"><ele>31.0</ele><time>2026-04-12T09:12:09Z</time></trkpt><trkpt lat="44.1687976875697" lon="12.150171433667026"><ele>35.0</ele><time>2026-04-12T09:12:10Z</time></trkpt><trkpt lat="44.168587780525016" lon="12.150355783700158"><ele>35.0</ele><time>2026-04-12T09:12:11Z</time></trkpt><trkpt lat="44.16837073160039" lon="12.150541826667945"><ele>35.0</ele><time>2026-04-12T09:12:12Z</time></trkpt><trkpt lat="44.168156784026806" lon="12.150731019598146"><ele>41.0</ele><time>2026-04-12T09:12:13Z</time></trkpt><trkpt lat="44.16793531565215" lon="12.150921687662535"><ele>47.0</ele><time>2026-04-12T09:12:14Z</time></trkpt><trkpt lat="44.1677391116513" lon="12.1510902479606"><ele>47.0</ele><time>2026-04-12T09:12:15Z</time></trkpt><trkpt lat="44.16756725358898" lon="12.151248029967064"><ele>47.0</ele><time>2026-04-12T09:12:16Z</time></trkpt><trkpt lat="44.16738406293595" lon="12.151422988144395"><ele>47.0</ele><time>2026-04-12T09:12:17Z</time></trkpt><trkpt lat="44.16720510526882" lon="12.151576638816293"><ele>51.666666666666664</ele><time>2026-04-12T09:12:18Z</time></trkpt><trkpt lat="44.167035515176266" lon="12.151725895095721"><ele>56.33333333333333</ele><time>2026-04-12T09:12:19Z</time></trkpt><trkpt lat="44.16683800710964" lon="12.151886343916779"><ele>61.0</ele><time>2026-04-12T09:12:20Z</time></trkpt><trkpt lat="44.16667879568451" lon="12.152030112643825"><ele>61.0</ele><time>2026-04-12T09:12:21Z</time></trkpt><trkpt lat="44.16653389173313" lon="12.152164013434431"><ele>61.0</ele><time>2026-04-12T09:12:22Z</time></trkpt><trkpt lat="44.16640396538967" lon="12.152274350386344"><ele>61.0</ele><time>2026-04-12T09:12:23Z</time></trkpt><trkpt lat="44.1662832320502" lon="12.152349862089391"><ele>61.0</ele><time>2026-04-12T09:12:24Z</time></trkpt><trkpt lat="44.16616607537738" lon="12.152342502631543"><ele>61.0</ele><time>2026-04-12T09:12:25Z</time></trkpt><trkpt lat="44.16606479590232" lon="12.15227947727593"><ele>61.0</ele><time>2026-04-12T09:12:26Z</time></trkpt><trkpt lat="44.16593787573597" lon="12.152212753669572"><ele>61.0</ele><time>2026-04-12T09:12:27Z</time></trkpt><trkpt lat="44.16579420117132" lon="12.152144494464693"><ele>60.666666666666664</ele><time>2026-04-12T09:12:28Z</time></trkpt><trkpt lat="44.165649072886005" lon="12.152046967010326"><ele>60.33333333333333</ele><time>2026-04-12T09:12:29Z</time></trkpt><trkpt lat="44.165481038295326" lon="12.151936163946194"><ele>60.0</ele><time>2026-04-12T09:12:30Z</time></trkpt><trkpt lat="44.16526991311417" lon="12.151824631241903"><ele>60.0</ele><time>2026-04-12T09:12:31Z</time></trkpt><trkpt lat="44.16505498697253" lon="12.151717980344886"><ele>60.0</ele><time>2026-04-12T09:12:32Z</time></trkpt><trkpt lat="44.16485730095936" lon="12.151621451520448"><ele>60.0</ele><time>2026-04-12T09:12:33Z</time></trkpt><trkpt lat="44.16468009059117" lon="12.151538564731437"><ele>57.0</ele><time>2026-04-12T09:12:34Z</time></trkpt><trkpt lat="44.164506862648004" lon="12.151451701874423"><ele>54.0</ele><time>2026-04-12T09:12:35Z</time></trkpt><trkpt lat="44.16433431918136" lon="12.15137550773313"><ele>51.0</ele><time>2026-04-12T09:12:36Z</time></trkpt><trkpt lat="44.1641868576935" lon="12.151316703551643"><ele>51.0</ele><time>2026-04-12T09:12:36.999Z</time></trkpt><trkpt lat="44.16405644804548" lon="12.151260052702593"><ele>51.0</ele><time>2026-04-12T09:12:37.999Z</time></trkpt><trkpt lat="44.16393748809817" lon="12.151206117568506"><ele>51.0</ele><time>2026-04-12T09:12:38.999Z</time></trkpt><trkpt lat="44.16382280336271" lon="12.151155043439566"><ele>51.0</ele><time>2026-04-12T09:12:39.999Z</time></trkpt><trkpt lat="44.16372979370821" lon="12.151124213964989"><ele>52.25</ele><time>2026-04-12T09:12:40.999Z</time></trkpt><trkpt lat="44.163644939584174" lon="12.151112856201319"><ele>53.5</ele><time>2026-04-12T09:12:41.999Z</time></trkpt><trkpt lat="44.16355971200091" lon="12.150977459282387"><ele>54.75</ele><time>2026-04-12T09:12:42.999Z</time></trkpt><trkpt lat="44.16342794932726" lon="12.150905840188619"><ele>56.0</ele><time>2026-04-12T09:12:43.999Z</time></trkpt><trkpt lat="44.16325700595648" lon="12.150834681849574"><ele>55.66666666666667</ele><time>2026-04-12T09:12:44.999Z</time></trkpt><trkpt lat="44.1630845441676" lon="12.150783455680129"><ele>55.33333333333333</ele><time>2026-04-12T09:12:45.999Z</time></trkpt><trkpt lat="44.162907817087834" lon="12.150750833944208"><ele>55.0</ele><time>2026-04-12T09:12:46.999Z</time></trkpt><trkpt lat="44.16272747010674" lon="12.150719287453203"><ele>54.75</ele><time>2026-04-12T09:12:47.999Z</time></trkpt><trkpt lat="44.16256485228389" lon="12.150681161277156"><ele>54.5</ele><time>2026-04-12T09:12:48.999Z</time></trkpt><trkpt lat="44.16242707664509" lon="12.150652895160889"><ele>54.25</ele><time>2026-04-12T09:12:49.999Z</time></trkpt><trkpt lat="44.16230906279668" lon="12.150630976060846"><ele>54.0</ele><time>2026-04-12T09:12:50.999Z</time></trkpt><trkpt lat="44.16221979648703" lon="12.150613811708634"><ele>54.0</ele><time>2026-04-12T09:12:51.999Z</time></trkpt><trkpt lat="44.16214350666351" lon="12.15060510931635"><ele>54.00000000000001</ele><time>2026-04-12T09:12:52.999Z</time></trkpt><trkpt lat="44.16207505306052" lon="12.150570985778215"><ele>54.00000000000001</ele><time>2026-04-12T09:12:54.999Z</time></trkpt><trkpt lat="44.16206345711481" lon="12.150723836286158"><ele>54.0</ele><time>2026-04-12T09:12:55.999Z</time></trkpt><trkpt lat="44.162043857554934" lon="12.150899143758025"><ele>54.0</ele><time>2026-04-12T09:12:57.999Z</time></trkpt><trkpt lat="44.161991031749984" lon="12.15102000517903"><ele>54.0</ele><time>2026-04-12T09:12:58.999Z</time></trkpt><trkpt lat="44.16185704272317" lon="12.151185434837004"><ele>54.0</ele><time>2026-04-12T09:13:00.999Z</time></trkpt><trkpt lat="44.16178597067413" lon="12.151296651627638"><ele>54.0</ele><time>2026-04-12T09:13:01.999Z</time></trkpt><trkpt lat="44.16169050700226" lon="12.151440687062157"><ele>54.0</ele><time>2026-04-12T09:13:02.999Z</time></trkpt><trkpt lat="44.1615941260225" lon="12.151564000240903"><ele>52.0</ele><time>2026-04-12T09:13:03.999Z</time></trkpt><trkpt lat="44.16151538674296" lon="12.151685988050625"><ele>50.0</ele><time>2026-04-12T09:13:04.999Z</time></trkpt><trkpt lat="44.161434318188896" lon="12.151821732364702"><ele>48.0</ele><time>2026-04-12T09:13:05.999Z</time></trkpt><trkpt lat="44.161352696975094" lon="12.151936916579952"><ele>46.0</ele><time>2026-04-12T09:13:06.999Z</time></trkpt><trkpt lat="44.16125434052145" lon="12.152051487356914"><ele>46.0</ele><time>2026-04-12T09:13:07.999Z</time></trkpt><trkpt lat="44.161131111661824" lon="12.152163216406406"><ele>46.0</ele><time>2026-04-12T09:13:08.999Z</time></trkpt><trkpt lat="44.16100298237536" lon="12.15228531677351"><ele>46.0</ele><time>2026-04-12T09:13:09.999Z</time></trkpt><trkpt lat="44.16089173108453" lon="12.152389022528094"><ele>46.0</ele><time>2026-04-12T09:13:10.999Z</time></trkpt><trkpt lat="44.160779212755685" lon="12.152539441971282"><ele>43.75</ele><time>2026-04-12T09:13:11.999Z</time></trkpt><trkpt lat="44.16067399836668" lon="12.152662044464854"><ele>41.5</ele><time>2026-04-12T09:13:12.999Z</time></trkpt><trkpt lat="44.16058455256306" lon="12.152777605190382"><ele>39.25</ele><time>2026-04-12T09:13:13.999Z</time></trkpt><trkpt lat="44.160497998184184" lon="12.15287657485032"><ele>37.0</ele><time>2026-04-12T09:13:14.999Z</time></trkpt><trkpt lat="44.16039576790706" lon="12.152953337122664"><ele>37.0</ele><time>2026-04-12T09:13:15.999Z</time></trkpt><trkpt lat="44.1602954596261" lon="12.153007008829139"><ele>37.0</ele><time>2026-04-12T09:13:16.999Z</time></trkpt><trkpt lat="44.160215364414555" lon="12.153036580913373"><ele>37.0</ele><time>2026-04-12T09:13:17.999Z</time></trkpt><trkpt lat="44.16013177986114" lon="12.153059199432613"><ele>37.0</ele><time>2026-04-12T09:13:19.999Z</time></trkpt><trkpt lat="44.160137531799634" lon="12.15323000309106"><ele>37.0</ele><time>2026-04-12T09:13:20.999Z</time></trkpt><trkpt lat="44.160137071789535" lon="12.153393749745105"><ele>36.0</ele><time>2026-04-12T09:13:21.999Z</time></trkpt><trkpt lat="44.16013402771382" lon="12.153564863865329"><ele>35.0</ele><time>2026-04-12T09:13:22.999Z</time></trkpt><trkpt lat="44.16011540006101" lon="12.153760443477399"><ele>34.0</ele><time>2026-04-12T09:13:23.999Z</time></trkpt><trkpt lat="44.160112525846344" lon="12.153973545331421"><ele>33.0</ele><time>2026-04-12T09:13:24.999Z</time></trkpt><trkpt lat="44.160103292669405" lon="12.154128005441283"><ele>32.75</ele><time>2026-04-12T09:13:25.999Z</time></trkpt><trkpt lat="44.16008024840043" lon="12.154320386774865"><ele>32.5</ele><time>2026-04-12T09:13:26.999Z</time></trkpt><trkpt lat="44.16008150210999" lon="12.154492987860163"><ele>32.25</ele><time>2026-04-12T09:13:27.999Z</time></trkpt><trkpt lat="44.16005619899615" lon="12.154650249054091"><ele>32.0</ele><time>2026-04-12T09:13:28.999Z</time></trkpt><trkpt lat="44.1600620162174" lon="12.15479669673859"><ele>32.0</ele><time>2026-04-12T09:13:29.999Z</time></trkpt><trkpt lat="44.16012689644777" lon="12.154938321631848"><ele>32.0</ele><time>2026-04-12T09:13:30.999Z</time></trkpt><trkpt lat="44.16020158700548" lon="12.154989152355482"><ele>32.0</ele><time>2026-04-12T09:13:31.999Z</time></trkpt><trkpt lat="44.16029987737021" lon="12.155044808243899"><ele>32.0</ele><time>2026-04-12T09:13:32.999Z</time></trkpt><trkpt lat="44.16033291169515" lon="12.155173286696932"><ele>32.0</ele><time>2026-04-12T09:13:34.999Z</time></trkpt><trkpt lat="44.16029254835089" lon="12.155029515155084"><ele>32.0</ele><time>2026-04-12T09:14:35Z</time></trkpt><trkpt lat="44.16021476023246" lon="12.154957384470753"><ele>32.0</ele><time>2026-04-12T09:14:36Z</time></trkpt><trkpt lat="44.16013582352115" lon="12.154909588638537"><ele>32.0</ele><time>2026-04-12T09:14:38Z</time></trkpt><trkpt lat="44.160080767741235" lon="12.154866224456851"><ele>32.0</ele><time>2026-04-12T09:14:41.999Z</time></trkpt><trkpt lat="44.16003778008095" lon="12.154710959516278"><ele>32.0</ele><time>2026-04-12T09:14:53.999Z</time></trkpt><trkpt lat="44.16008466427132" lon="12.154461999213126"><ele>32.0</ele><time>2026-04-12T09:14:55.999Z</time></trkpt><trkpt lat="44.16009316391359" lon="12.154319053929111"><ele>32.0</ele><time>2026-04-12T09:14:56.999Z</time></trkpt><trkpt lat="44.16009998657606" lon="12.154148276426106"><ele>32.0</ele><time>2026-04-12T09:14:57.999Z</time></trkpt><trkpt lat="44.16011557996031" lon="12.153937418891884"><ele>32.0</ele><time>2026-04-12T09:14:58.999Z</time></trkpt><trkpt lat="44.160128523269975" lon="12.153750488444357"><ele>32.2</ele><time>2026-04-12T09:14:59.999Z</time></trkpt><trkpt lat="44.16013523574195" lon="12.153593947878667"><ele>32.400000000000006</ele><time>2026-04-12T09:15:00.999Z</time></trkpt><trkpt lat="44.16013906013" lon="12.153460983330275"><ele>32.599999999999994</ele><time>2026-04-12T09:15:01.999Z</time></trkpt><trkpt lat="44.16014477403515" lon="12.153346234581969"><ele>32.8</ele><time>2026-04-12T09:15:02.999Z</time></trkpt><trkpt lat="44.16015062740786" lon="12.153251434676548"><ele>33.0</ele><time>2026-04-12T09:15:03.999Z</time></trkpt><trkpt lat="44.160141249781326" lon="12.153109889961595"><ele>33.666666666666664</ele><time>2026-04-12T09:15:05.999Z</time></trkpt><trkpt lat="44.1600419500737" lon="12.153072528460688"><ele>34.333333333333336</ele><time>2026-04-12T09:15:07.999Z</time></trkpt><trkpt lat="44.159967823497745" lon="12.153100850043764"><ele>35.0</ele><time>2026-04-12T09:15:08.999Z</time></trkpt><trkpt lat="44.15988819742628" lon="12.153152294928216"><ele>35.66666666666667</ele><time>2026-04-12T09:15:09.999Z</time></trkpt><trkpt lat="44.15980380202132" lon="12.153201240393456"><ele>36.333333333333336</ele><time>2026-04-12T09:15:10.999Z</time></trkpt><trkpt lat="44.15972735087326" lon="12.15323186951046"><ele>37.0</ele><time>2026-04-12T09:15:11.999Z</time></trkpt><trkpt lat="44.15963882135813" lon="12.153270361388612"><ele>37.0</ele><time>2026-04-12T09:15:12.999Z</time></trkpt><trkpt lat="44.15955843301654" lon="12.153343750535084"><ele>37.0</ele><time>2026-04-12T09:15:13.999Z</time></trkpt><trkpt lat="44.159488740834064" lon="12.153427931432383"><ele>37.0</ele><time>2026-04-12T09:15:14.999Z</time></trkpt><trkpt lat="44.15944119791186" lon="12.153509659632977"><ele>37.0</ele><time>2026-04-12T09:15:15.999Z</time></trkpt><trkpt lat="44.15935023646019" lon="12.15361161148289"><ele>37.0</ele><time>2026-04-12T09:15:17.999Z</time></trkpt><trkpt lat="44.15927904438497" lon="12.15360928802384"><ele>37.0</ele><time>2026-04-12T09:15:18.999Z</time></trkpt><trkpt lat="44.15917775463834" lon="12.153650568107459"><ele>37.0</ele><time>2026-04-12T09:15:19.999Z</time></trkpt><trkpt lat="44.15906434181051" lon="12.153700807334342"><ele>37.0</ele><time>2026-04-12T09:15:20.999Z</time></trkpt><trkpt lat="44.15894079348163" lon="12.15376445033783"><ele>37.0</ele><time>2026-04-12T09:15:21.999Z</time></trkpt><trkpt lat="44.15887526349279" lon="12.153802221519406"><ele>37.0</ele><time>2026-04-12T09:15:22.999Z</time></trkpt><trkpt lat="44.158781298395354" lon="12.153834392271936"><ele>37.2</ele><time>2026-04-12T09:15:23.999Z</time></trkpt><trkpt lat="44.15865298720851" lon="12.1538409710885"><ele>37.400000000000006</ele><time>2026-04-12T09:15:24.999Z</time></trkpt><trkpt lat="44.15853838859309" lon="12.153886696693236"><ele>37.599999999999994</ele><time>2026-04-12T09:15:25.999Z</time></trkpt><trkpt lat="44.15844119626217" lon="12.15390114012691"><ele>37.8</ele><time>2026-04-12T09:15:26.999Z</time></trkpt><trkpt lat="44.15835448679644" lon="12.153920205759318"><ele>38.0</ele><time>2026-04-12T09:15:27.999Z</time></trkpt><trkpt lat="44.158259229748154" lon="12.153936098846279"><ele>38.0</ele><time>2026-04-12T09:15:28.999Z</time></trkpt><trkpt lat="44.15814963045911" lon="12.153965110366736"><ele>38.0</ele><time>2026-04-12T09:15:29.999Z</time></trkpt><trkpt lat="44.158031321482234" lon="12.153996531256997"><ele>38.0</ele><time>2026-04-12T09:15:30.999Z</time></trkpt><trkpt lat="44.15790513684369" lon="12.154032431415079"><ele>38.0</ele><time>2026-04-12T09:15:31.999Z</time></trkpt><trkpt lat="44.1577782454655" lon="12.154086332522397"><ele>38.0</ele><time>2026-04-12T09:15:32.999Z</time></trkpt><trkpt lat="44.15765980717162" lon="12.15414504652185"><ele>38.0</ele><time>2026-04-12T09:15:33.999Z</time></trkpt><trkpt lat="44.15756350381588" lon="12.1542091775319"><ele>38.0</ele><time>2026-04-12T09:15:34.999Z</time></trkpt><trkpt lat="44.157468300437586" lon="12.154281856602218"><ele>38.0</ele><time>2026-04-12T09:15:35.999Z</time></trkpt><trkpt lat="44.15737701715054" lon="12.154351499447415"><ele>38.0</ele><time>2026-04-12T09:15:36.999Z</time></trkpt><trkpt lat="44.157298698244595" lon="12.15440546870759"><ele>38.5</ele><time>2026-04-12T09:15:37.999Z</time></trkpt><trkpt lat="44.15723010970564" lon="12.15445546901234"><ele>39.0</ele><time>2026-04-12T09:15:38.999Z</time></trkpt><trkpt lat="44.15715240401471" lon="12.154507206357641"><ele>39.5</ele><time>2026-04-12T09:15:40.999Z</time></trkpt><trkpt lat="44.157087479653434" lon="12.154557758057273"><ele>40.0</ele><time>2026-04-12T09:15:42.999Z</time></trkpt><trkpt lat="44.157031315120065" lon="12.154600049335231"><ele>40.5</ele><time>2026-04-12T09:15:43.999Z</time></trkpt><trkpt lat="44.156956774025225" lon="12.1546608460122"><ele>41.0</ele><time>2026-04-12T09:15:44.999Z</time></trkpt><trkpt lat="44.15687186238534" lon="12.15472785463172"><ele>41.0</ele><time>2026-04-12T09:15:45.999Z</time></trkpt><trkpt lat="44.156763587883034" lon="12.154819710183745"><ele>41.0</ele><time>2026-04-12T09:15:46.999Z</time></trkpt><trkpt lat="44.15666599121971" lon="12.15492236877468"><ele>41.0</ele><time>2026-04-12T09:15:47.999Z</time></trkpt><trkpt lat="44.156566530649755" lon="12.155031266326331"><ele>41.0</ele><time>2026-04-12T09:15:48.999Z</time></trkpt><trkpt lat="44.15646648238609" lon="12.155138908605624"><ele>41.0</ele><time>2026-04-12T09:15:49.999Z</time></trkpt><trkpt lat="44.15637549209244" lon="12.155223753013077"><ele>41.0</ele><time>2026-04-12T09:15:50.999Z</time></trkpt><trkpt lat="44.15629535033751" lon="12.15529953139598"><ele>41.0</ele><time>2026-04-12T09:15:51.999Z</time></trkpt><trkpt lat="44.15622701556494" lon="12.155353071330135"><ele>41.0</ele><time>2026-04-12T09:15:52.999Z</time></trkpt><trkpt lat="44.156150341371365" lon="12.15542709607867"><ele>41.0</ele><time>2026-04-12T09:15:55Z</time></trkpt><trkpt lat="44.156173036438986" lon="12.155556370966933"><ele>41.0</ele><time>2026-04-12T09:16:00Z</time></trkpt><trkpt lat="44.15620829813291" lon="12.15565707116404"><ele>41.0</ele><time>2026-04-12T09:16:01Z</time></trkpt><trkpt lat="44.156252871011844" lon="12.155753723447345"><ele>41.0</ele><time>2026-04-12T09:16:02Z</time></trkpt><trkpt lat="44.15629721485012" lon="12.155850160961847"><ele>41.0</ele><time>2026-04-12T09:16:03Z</time></trkpt><trkpt lat="44.156343766485605" lon="12.15595002614592"><ele>41.0</ele><time>2026-04-12T09:16:04Z</time></trkpt><trkpt lat="44.156387263239836" lon="12.156076661954327"><ele>41.0</ele><time>2026-04-12T09:16:05Z</time></trkpt><trkpt lat="44.15641270552053" lon="12.156207022963077"><ele>40.4</ele><time>2026-04-12T09:16:06Z</time></trkpt><trkpt lat="44.15642000892468" lon="12.156350466605947"><ele>39.8</ele><time>2026-04-12T09:16:07Z</time></trkpt><trkpt lat="44.156408743360146" lon="12.156499389278348"><ele>39.199999999999996</ele><time>2026-04-12T09:16:08Z</time></trkpt><trkpt lat="44.15638676598411" lon="12.156628463082733"><ele>38.599999999999994</ele><time>2026-04-12T09:16:09Z</time></trkpt><trkpt lat="44.156351485634495" lon="12.156719365943816"><ele>38.0</ele><time>2026-04-12T09:16:11Z</time></trkpt><trkpt lat="44.156531251704834" lon="12.156767481087451"><ele>37.8</ele><time>2026-04-12T09:16:13Z</time></trkpt><trkpt lat="44.156621382496404" lon="12.156780215945336"><ele>37.599999999999994</ele><time>2026-04-12T09:16:14Z</time></trkpt><trkpt lat="44.15670742540661" lon="12.156794305848798"><ele>37.400000000000006</ele><time>2026-04-12T09:16:15Z</time></trkpt><trkpt lat="44.156802072328" lon="12.156830800475207"><ele>37.2</ele><time>2026-04-12T09:16:16Z</time></trkpt><trkpt lat="44.156885278188106" lon="12.156845488664818"><ele>37.0</ele><time>2026-04-12T09:16:17Z</time></trkpt><trkpt lat="44.15704841187262" lon="12.156874475575101"><ele>37.0</ele><time>2026-04-12T09:16:18Z</time></trkpt><trkpt lat="44.15714477395992" lon="12.156910925881894"><ele>37.0</ele><time>2026-04-12T09:16:19Z</time></trkpt><trkpt lat="44.157217983765065" lon="12.156923917505903"><ele>37.0</ele><time>2026-04-12T09:16:20Z</time></trkpt><trkpt lat="44.157287623026285" lon="12.1569349686221"><ele>37.0</ele><time>2026-04-12T09:16:21Z</time></trkpt><trkpt lat="44.15735498261009" lon="12.156951725845719"><ele>37.0</ele><time>2026-04-12T09:16:22Z</time></trkpt><trkpt lat="44.15747620637772" lon="12.156976932265795"><ele>37.0</ele><time>2026-04-12T09:16:24Z</time></trkpt><trkpt lat="44.15757202270348" lon="12.157042114465241"><ele>37.0</ele><time>2026-04-12T09:16:26Z</time></trkpt><trkpt lat="44.15758731747538" lon="12.15719219654936"><ele>37.0</ele><time>2026-04-12T09:16:28Z</time></trkpt><trkpt lat="44.15757561108962" lon="12.157287336022017"><ele>37.0</ele><time>2026-04-12T09:16:29Z</time></trkpt><trkpt lat="44.157564726204086" lon="12.157400053374786"><ele>37.0</ele><time>2026-04-12T09:16:30Z</time></trkpt><trkpt lat="44.15755808041101" lon="12.157542721999631"><ele>37.0</ele><time>2026-04-12T09:16:31Z</time></trkpt><trkpt lat="44.157552053327535" lon="12.157702239046662"><ele>37.0</ele><time>2026-04-12T09:16:32Z</time></trkpt><trkpt lat="44.157546367659506" lon="12.157847295419865"><ele>37.0</ele><time>2026-04-12T09:16:33Z</time></trkpt><trkpt lat="44.15753954856444" lon="12.158010142617298"><ele>37.0</ele><time>2026-04-12T09:16:34Z</time></trkpt><trkpt lat="44.15752913083309" lon="12.158173542252502"><ele>37.0</ele><time>2026-04-12T09:16:35Z</time></trkpt><trkpt lat="44.15752018120657" lon="12.15834340164305"><ele>37.0</ele><time>2026-04-12T09:16:36Z</time></trkpt><trkpt lat="44.157510622657895" lon="12.158521303890822"><ele>37.0</ele><time>2026-04-12T09:16:37Z</time></trkpt><trkpt lat="44.157503199330925" lon="12.158686024615285"><ele>37.0</ele><time>2026-04-12T09:16:38Z</time></trkpt><trkpt lat="44.15749553052869" lon="12.15885674708042"><ele>37.0</ele><time>2026-04-12T09:16:39Z</time></trkpt><trkpt lat="44.157491037286476" lon="12.15902904932361"><ele>37.0</ele><time>2026-04-12T09:16:40Z</time></trkpt><trkpt lat="44.157488450237736" lon="12.159204327303424"><ele>37.0</ele><time>2026-04-12T09:16:41Z</time></trkpt><trkpt lat="44.15748285980425" lon="12.159365441013929"><ele>37.0</ele><time>2026-04-12T09:16:42Z</time></trkpt><trkpt lat="44.157483644189185" lon="12.1595027659005"><ele>37.0</ele><time>2026-04-12T09:16:43Z</time></trkpt><trkpt lat="44.15748243454254" lon="12.159673600789905"><ele>37.0</ele><time>2026-04-12T09:16:44Z</time></trkpt><trkpt lat="44.15749846042403" lon="12.159860496566283"><ele>37.0</ele><time>2026-04-12T09:16:44.999Z</time></trkpt><trkpt lat="44.15752808704763" lon="12.160052845066897"><ele>37.0</ele><time>2026-04-12T09:16:45.999Z</time></trkpt><trkpt lat="44.157563174279815" lon="12.16024199361037"><ele>37.0</ele><time>2026-04-12T09:16:46.999Z</time></trkpt><trkpt lat="44.157594108365934" lon="12.160411168974258"><ele>37.0</ele><time>2026-04-12T09:16:47.999Z</time></trkpt><trkpt lat="44.15761613949233" lon="12.160555913976998"><ele>37.0</ele><time>2026-04-12T09:16:48.999Z</time></trkpt><trkpt lat="44.15764449680368" lon="12.160683032761014"><ele>37.0</ele><time>2026-04-12T09:16:49.999Z</time></trkpt><trkpt lat="44.15766256890287" lon="12.160799455143891"><ele>37.0</ele><time>2026-04-12T09:16:50.999Z</time></trkpt><trkpt lat="44.157661769714295" lon="12.160922856865879"><ele>37.0</ele><time>2026-04-12T09:16:52.999Z</time></trkpt><trkpt lat="44.15767821609781" lon="12.161018532515376"><ele>37.0</ele><time>2026-04-12T09:16:56.999Z</time></trkpt><trkpt lat="44.15784833833076" lon="12.161013296099032"><ele>37.0</ele><time>2026-04-12T09:16:57.999Z</time></trkpt><trkpt lat="44.15795996441476" lon="12.161022220184174"><ele>37.0</ele><time>2026-04-12T09:16:58.999Z</time></trkpt><trkpt lat="44.15807509415849" lon="12.161053926777445"><ele>37.0</ele><time>2026-04-12T09:16:59.999Z</time></trkpt><trkpt lat="44.15819608721143" lon="12.161090207101951"><ele>37.0</ele><time>2026-04-12T09:17:00.999Z</time></trkpt><trkpt lat="44.15832871394455" lon="12.161138597333563"><ele>36.75</ele><time>2026-04-12T09:17:01.999Z</time></trkpt><trkpt lat="44.158453048325995" lon="12.161224025113224"><ele>36.5</ele><time>2026-04-12T09:17:02.999Z</time></trkpt><trkpt lat="44.15859471700936" lon="12.161303297671553"><ele>36.25</ele><time>2026-04-12T09:17:03.999Z</time></trkpt><trkpt lat="44.15873699200629" lon="12.161384956124422"><ele>36.0</ele><time>2026-04-12T09:17:04.999Z</time></trkpt><trkpt lat="44.158900446378816" lon="12.161478770393591"><ele>35.666666666666664</ele><time>2026-04-12T09:17:05.999Z</time></trkpt><trkpt lat="44.15904565248744" lon="12.161562577756644"><ele>35.33333333333333</ele><time>2026-04-12T09:17:06.999Z</time></trkpt><trkpt lat="44.159207761647714" lon="12.161643464121385"><ele>35.0</ele><time>2026-04-12T09:17:07.999Z</time></trkpt><trkpt lat="44.15936138686046" lon="12.161724122615603"><ele>35.0</ele><time>2026-04-12T09:17:08.999Z</time></trkpt><trkpt lat="44.15952570360595" lon="12.161828419245218"><ele>35.0</ele><time>2026-04-12T09:17:09.999Z</time></trkpt><trkpt lat="44.159673077918384" lon="12.161907536682882"><ele>35.0</ele><time>2026-04-12T09:17:10.999Z</time></trkpt><trkpt lat="44.159827293749004" lon="12.16198511636645"><ele>34.0</ele><time>2026-04-12T09:17:11.999Z</time></trkpt><trkpt lat="44.15998818356876" lon="12.162074834385548"><ele>33.0</ele><time>2026-04-12T09:17:12.999Z</time></trkpt><trkpt lat="44.16015415074805" lon="12.162169721775955"><ele>32.0</ele><time>2026-04-12T09:17:13.999Z</time></trkpt><trkpt lat="44.16030366782486" lon="12.162243411088507"><ele>32.0</ele><time>2026-04-12T09:17:14.999Z</time></trkpt><trkpt lat="44.1604693145921" lon="12.162338499098013"><ele>32.0</ele><time>2026-04-12T09:17:15.999Z</time></trkpt><trkpt lat="44.16063761408021" lon="12.162433323868433"><ele>32.0</ele><time>2026-04-12T09:17:16.999Z</time></trkpt><trkpt lat="44.16080755058978" lon="12.16254781406348"><ele>31.333333333333332</ele><time>2026-04-12T09:17:17.999Z</time></trkpt><trkpt lat="44.16097634341536" lon="12.162664399222454"><ele>30.666666666666664</ele><time>2026-04-12T09:17:18.999Z</time></trkpt><trkpt lat="44.16114821693183" lon="12.162732931455015"><ele>30.0</ele><time>2026-04-12T09:17:19.999Z</time></trkpt><trkpt lat="44.1613167697692" lon="12.162826408231025"><ele>30.0</ele><time>2026-04-12T09:17:20.999Z</time></trkpt><trkpt lat="44.16150006527712" lon="12.162931601688268"><ele>30.0</ele><time>2026-04-12T09:17:21.999Z</time></trkpt><trkpt lat="44.1616854190896" lon="12.163036968121569"><ele>30.0</ele><time>2026-04-12T09:17:22.999Z</time></trkpt><trkpt lat="44.16187052265015" lon="12.163136412002597"><ele>30.333333333333336</ele><time>2026-04-12T09:17:23.999Z</time></trkpt><trkpt lat="44.16204524655422" lon="12.163225354462229"><ele>30.666666666666668</ele><time>2026-04-12T09:17:24.999Z</time></trkpt><trkpt lat="44.16221290285115" lon="12.163339482823782"><ele>31.0</ele><time>2026-04-12T09:17:25.999Z</time></trkpt><trkpt lat="44.16238269011719" lon="12.16341079600489"><ele>30.333333333333336</ele><time>2026-04-12T09:17:26.999Z</time></trkpt><trkpt lat="44.16255161653223" lon="12.163507661321749"><ele>29.666666666666664</ele><time>2026-04-12T09:17:27.999Z</time></trkpt><trkpt lat="44.1627200410986" lon="12.163606199094062"><ele>29.0</ele><time>2026-04-12T09:17:28.999Z</time></trkpt><trkpt lat="44.16289374679465" lon="12.16370280507293"><ele>29.0</ele><time>2026-04-12T09:17:29.999Z</time></trkpt><trkpt lat="44.16306190063365" lon="12.163800874691418"><ele>29.0</ele><time>2026-04-12T09:17:30.999Z</time></trkpt><trkpt lat="44.16321495237079" lon="12.163891176698645"><ele>29.0</ele><time>2026-04-12T09:17:31.999Z</time></trkpt><trkpt lat="44.1633711042312" lon="12.16398301233546"><ele>29.0</ele><time>2026-04-12T09:17:32.999Z</time></trkpt><trkpt lat="44.16353319480705" lon="12.164074549578986"><ele>29.0</ele><time>2026-04-12T09:17:33.999Z</time></trkpt><trkpt lat="44.163687815800394" lon="12.164155761148049"><ele>29.0</ele><time>2026-04-12T09:17:34.999Z</time></trkpt><trkpt lat="44.1638158542672" lon="12.164218236711019"><ele>29.0</ele><time>2026-04-12T09:17:35.999Z</time></trkpt><trkpt lat="44.16392934300193" lon="12.164274097040966"><ele>29.0</ele><time>2026-04-12T09:17:36.999Z</time></trkpt><trkpt lat="44.16402732402489" lon="12.164322548314736"><ele>29.0</ele><time>2026-04-12T09:17:37.999Z</time></trkpt><trkpt lat="44.16408051535296" lon="12.164396157455958"><ele>29.0</ele><time>2026-04-12T09:17:38.999Z</time></trkpt><trkpt lat="44.1640307033142" lon="12.164644290737188"><ele>29.0</ele><time>2026-04-12T09:17:42.999Z</time></trkpt><trkpt lat="44.164025642348115" lon="12.164785997285831"><ele>29.0</ele><time>2026-04-12T09:17:43.999Z</time></trkpt><trkpt lat="44.16402213709341" lon="12.164926952527908"><ele>29.0</ele><time>2026-04-12T09:17:44.999Z</time></trkpt><trkpt lat="44.16403295030155" lon="12.16509583439903"><ele>29.0</ele><time>2026-04-12T09:17:45.999Z</time></trkpt><trkpt lat="44.16402666566844" lon="12.165270354502153"><ele>28.799999999999997</ele><time>2026-04-12T09:17:46.999Z</time></trkpt><trkpt lat="44.16401740737034" lon="12.165416550398351"><ele>28.599999999999998</ele><time>2026-04-12T09:17:47.999Z</time></trkpt><trkpt lat="44.164010487507994" lon="12.165538658342989"><ele>28.4</ele><time>2026-04-12T09:17:48.999Z</time></trkpt><trkpt lat="44.16399219534158" lon="12.165639087623848"><ele>28.2</ele><time>2026-04-12T09:17:49.999Z</time></trkpt><trkpt lat="44.163951488695325" lon="12.165712964250144"><ele>28.0</ele><time>2026-04-12T09:17:50.999Z</time></trkpt><trkpt lat="44.16383198695456" lon="12.165676650166244"><ele>28.0</ele><time>2026-04-12T09:17:52.999Z</time></trkpt><trkpt lat="44.163699934545896" lon="12.165701922691571"><ele>28.0</ele><time>2026-04-12T09:17:54.999Z</time></trkpt><trkpt lat="44.16362196505504" lon="12.165788743832097"><ele>28.0</ele><time>2026-04-12T09:17:56.999Z</time></trkpt><trkpt lat="44.16364336577828" lon="12.165974636774449"><ele>28.0</ele><time>2026-04-12T09:17:58.999Z</time></trkpt><trkpt lat="44.16364389432202" lon="12.166120313985603"><ele>28.0</ele><time>2026-04-12T09:18:00Z</time></trkpt><trkpt lat="44.16362210528806" lon="12.166224214320513"><ele>27.999999999999996</ele><time>2026-04-12T09:18:01Z</time></trkpt><trkpt lat="44.16354852720544" lon="12.166282495517041"><ele>27.999999999999996</ele><time>2026-04-12T09:18:02Z</time></trkpt><trkpt lat="44.163479937692806" lon="12.166328370712412"><ele>28.0</ele><time>2026-04-12T09:18:03Z</time></trkpt><trkpt lat="44.163359188580074" lon="12.166316151630284"><ele>28.0</ele><time>2026-04-12T09:18:04Z</time></trkpt><trkpt lat="44.16322156238764" lon="12.166393689666942"><ele>28.333333333333336</ele><time>2026-04-12T09:18:05Z</time></trkpt><trkpt lat="44.16307683269686" lon="12.166499697515073"><ele>28.666666666666664</ele><time>2026-04-12T09:18:06Z</time></trkpt><trkpt lat="44.16291311629095" lon="12.166594865629307"><ele>29.0</ele><time>2026-04-12T09:18:07Z</time></trkpt><trkpt lat="44.162758643614325" lon="12.166666332594069"><ele>29.0</ele><time>2026-04-12T09:18:08Z</time></trkpt><trkpt lat="44.16261361340549" lon="12.16671532763949"><ele>29.0</ele><time>2026-04-12T09:18:09Z</time></trkpt><trkpt lat="44.16246092621907" lon="12.166798444424002"><ele>29.0</ele><time>2026-04-12T09:18:10Z</time></trkpt><trkpt lat="44.16230151788426" lon="12.166900127557335"><ele>29.25</ele><time>2026-04-12T09:18:11Z</time></trkpt><trkpt lat="44.16213787521901" lon="12.166947851523977"><ele>29.5</ele><time>2026-04-12T09:18:12Z</time></trkpt><trkpt lat="44.16200430484893" lon="12.167000250120102"><ele>29.75</ele><time>2026-04-12T09:18:13Z</time></trkpt><trkpt lat="44.161893334412376" lon="12.167047031209531"><ele>30.0</ele><time>2026-04-12T09:18:14Z</time></trkpt><trkpt lat="44.16179984391584" lon="12.167114990978458"><ele>30.0</ele><time>2026-04-12T09:18:15Z</time></trkpt><trkpt lat="44.161732180442385" lon="12.167143103370442"><ele>30.0</ele><time>2026-04-12T09:18:16Z</time></trkpt><trkpt lat="44.16173265571781" lon="12.167285928609246"><ele>30.0</ele><time>2026-04-12T09:18:18Z</time></trkpt><trkpt lat="44.16164066868951" lon="12.167348822477669"><ele>30.0</ele><time>2026-04-12T09:18:20Z</time></trkpt><trkpt lat="44.16156625620378" lon="12.167267773782129"><ele>30.0</ele><time>2026-04-12T09:18:21Z</time></trkpt><trkpt lat="44.16147389783295" lon="12.167267027565376"><ele>30.0</ele><time>2026-04-12T09:18:22Z</time></trkpt><trkpt lat="44.16141265156406" lon="12.167317362400144"><ele>30.0</ele><time>2026-04-12T09:18:23Z</time></trkpt><trkpt lat="44.16139761528688" lon="12.167492698276764"><ele>30.0</ele><time>2026-04-12T09:18:24Z</time></trkpt><trkpt lat="44.1613697197361" lon="12.167668613776714"><ele>30.0</ele><time>2026-04-12T09:18:25Z</time></trkpt><trkpt lat="44.16136064126515" lon="12.16787852044885"><ele>29.666666666666664</ele><time>2026-04-12T09:18:26Z</time></trkpt><trkpt lat="44.16130339144866" lon="12.168119191554199"><ele>29.333333333333332</ele><time>2026-04-12T09:18:27Z</time></trkpt><trkpt lat="44.16128044211086" lon="12.168336824019656"><ele>29.0</ele><time>2026-04-12T09:18:28Z</time></trkpt><trkpt lat="44.16123497941457" lon="12.168507156133227"><ele>29.4</ele><time>2026-04-12T09:18:29Z</time></trkpt><trkpt lat="44.16122262124868" lon="12.168671943339458"><ele>29.799999999999997</ele><time>2026-04-12T09:18:30Z</time></trkpt><trkpt lat="44.16119522712505" lon="12.168813167934088"><ele>30.200000000000003</ele><time>2026-04-12T09:18:31Z</time></trkpt><trkpt lat="44.16117037280711" lon="12.168940359374028"><ele>30.6</ele><time>2026-04-12T09:18:32Z</time></trkpt><trkpt lat="44.16113681529746" lon="12.169092763693156"><ele>31.0</ele><time>2026-04-12T09:18:33Z</time></trkpt><trkpt lat="44.161096392352874" lon="12.169267771237626"><ele>31.75</ele><time>2026-04-12T09:18:34Z</time></trkpt><trkpt lat="44.161062526114065" lon="12.169447203741504"><ele>32.5</ele><time>2026-04-12T09:18:35Z</time></trkpt><trkpt lat="44.16102628684791" lon="12.169639905825617"><ele>33.25</ele><time>2026-04-12T09:18:36Z</time></trkpt><trkpt lat="44.16100452650297" lon="12.169838218580342"><ele>34.0</ele><time>2026-04-12T09:18:37Z</time></trkpt><trkpt lat="44.1609712369803" lon="12.170036043271116"><ele>34.75</ele><time>2026-04-12T09:18:38Z</time></trkpt><trkpt lat="44.160946641684745" lon="12.170250660128055"><ele>35.5</ele><time>2026-04-12T09:18:39Z</time></trkpt><trkpt lat="44.16091452673771" lon="12.170424429788614"><ele>36.25</ele><time>2026-04-12T09:18:40Z</time></trkpt><trkpt lat="44.160896390780806" lon="12.1705607972653"><ele>37.0</ele><time>2026-04-12T09:18:41Z</time></trkpt><trkpt lat="44.160877632003285" lon="12.170675317023546"><ele>36.800000000000004</ele><time>2026-04-12T09:18:42Z</time></trkpt><trkpt lat="44.16086348779745" lon="12.17076724836418"><ele>36.6</ele><time>2026-04-12T09:18:43Z</time></trkpt><trkpt lat="44.16084573465565" lon="12.170856998351805"><ele>36.400000000000006</ele><time>2026-04-12T09:18:45Z</time></trkpt><trkpt lat="44.16068009737654" lon="12.170796551741681"><ele>36.2</ele><time>2026-04-12T09:18:50Z</time></trkpt><trkpt lat="44.16057358405103" lon="12.170773305009238"><ele>36.0</ele><time>2026-04-12T09:18:51Z</time></trkpt><trkpt lat="44.16047891071398" lon="12.170753971225798"><ele>36.75</ele><time>2026-04-12T09:18:53Z</time></trkpt><trkpt lat="44.160442751395664" lon="12.170974789604845"><ele>37.5</ele><time>2026-04-12T09:18:54Z</time></trkpt><trkpt lat="44.16042391007344" lon="12.171119611799876"><ele>38.25</ele><time>2026-04-12T09:18:55Z</time></trkpt><trkpt lat="44.16041831395515" lon="12.171259198381174"><ele>39.0</ele><time>2026-04-12T09:18:56Z</time></trkpt><trkpt lat="44.16040451500509" lon="12.171403047995865"><ele>38.2</ele><time>2026-04-12T09:18:57Z</time></trkpt><trkpt lat="44.16038936229945" lon="12.171548246467584"><ele>37.4</ele><time>2026-04-12T09:18:57.999Z</time></trkpt><trkpt lat="44.160377148282414" lon="12.171695082873168"><ele>36.6</ele><time>2026-04-12T09:18:58.999Z</time></trkpt><trkpt lat="44.160363985828994" lon="12.171831160974515"><ele>35.8</ele><time>2026-04-12T09:18:59.999Z</time></trkpt><trkpt lat="44.16035373956807" lon="12.171958182303594"><ele>35.0</ele><time>2026-04-12T09:19:00.999Z</time></trkpt><trkpt lat="44.16034109791676" lon="12.172114220437072"><ele>35.0</ele><time>2026-04-12T09:19:01.999Z</time></trkpt><trkpt lat="44.16032979494963" lon="12.172250409112248"><ele>35.0</ele><time>2026-04-12T09:19:02.999Z</time></trkpt><trkpt lat="44.16031577183913" lon="12.172388373368259"><ele>35.0</ele><time>2026-04-12T09:19:03.999Z</time></trkpt><trkpt lat="44.16029926525519" lon="12.172539139706885"><ele>35.0</ele><time>2026-04-12T09:19:04.999Z</time></trkpt><trkpt lat="44.160284419274774" lon="12.172667918465413"><ele>35.0</ele><time>2026-04-12T09:19:05.999Z</time></trkpt><trkpt lat="44.16026962960366" lon="12.172772974729279"><ele>34.4</ele><time>2026-04-12T09:19:06.999Z</time></trkpt><trkpt lat="44.16026196585178" lon="12.172928504095227"><ele>33.8</ele><time>2026-04-12T09:19:08.999Z</time></trkpt><trkpt lat="44.160257545097565" lon="12.173095123823327"><ele>33.2</ele><time>2026-04-12T09:19:10.999Z</time></trkpt><trkpt lat="44.16025341846421" lon="12.173227408959637"><ele>32.6</ele><time>2026-04-12T09:19:11.999Z</time></trkpt><trkpt lat="44.1602414463682" lon="12.1733311613779"><ele>32.0</ele><time>2026-04-12T09:19:12.999Z</time></trkpt><trkpt lat="44.16024088481046" lon="12.173486508092832"><ele>32.0</ele><time>2026-04-12T09:19:13.999Z</time></trkpt><trkpt lat="44.16024563501822" lon="12.173615106730926"><ele>32.0</ele><time>2026-04-12T09:19:14.999Z</time></trkpt><trkpt lat="44.16025896538474" lon="12.173753609591099"><ele>32.0</ele><time>2026-04-12T09:19:15.999Z</time></trkpt><trkpt lat="44.16026994298107" lon="12.17391696034338"><ele>32.0</ele><time>2026-04-12T09:19:16.999Z</time></trkpt><trkpt lat="44.16029124588826" lon="12.174091735840529"><ele>32.0</ele><time>2026-04-12T09:19:17.999Z</time></trkpt><trkpt lat="44.16031220371525" lon="12.17428264057412"><ele>32.0</ele><time>2026-04-12T09:19:18.999Z</time></trkpt><trkpt lat="44.16031836802772" lon="12.174477551768923"><ele>32.0</ele><time>2026-04-12T09:19:19.999Z</time></trkpt><trkpt lat="44.16032906995093" lon="12.17462268078336"><ele>32.0</ele><time>2026-04-12T09:19:20.999Z</time></trkpt><trkpt lat="44.16032266625961" lon="12.174778999267659"><ele>32.0</ele><time>2026-04-12T09:19:21.999Z</time></trkpt><trkpt lat="44.16031496474099" lon="12.174952268635534"><ele>32.0</ele><time>2026-04-12T09:19:22.999Z</time></trkpt><trkpt lat="44.16031715680128" lon="12.17510241993228"><ele>32.0</ele><time>2026-04-12T09:19:23.999Z</time></trkpt><trkpt lat="44.16030795815592" lon="12.175239030476288"><ele>32.0</ele><time>2026-04-12T09:19:24.999Z</time></trkpt><trkpt lat="44.16031038558348" lon="12.175397564323639"><ele>32.0</ele><time>2026-04-12T09:19:25.999Z</time></trkpt><trkpt lat="44.1603223036962" lon="12.175550929648765"><ele>32.0</ele><time>2026-04-12T09:19:26.999Z</time></trkpt><trkpt lat="44.16034940209947" lon="12.175688308166414"><ele>32.2</ele><time>2026-04-12T09:19:27.999Z</time></trkpt><trkpt lat="44.16037436059029" lon="12.175774568193162"><ele>32.400000000000006</ele><time>2026-04-12T09:19:28.999Z</time></trkpt><trkpt lat="44.16039556305561" lon="12.175869800459653"><ele>32.599999999999994</ele><time>2026-04-12T09:19:30.999Z</time></trkpt><trkpt lat="44.1602600110285" lon="12.17584808266923"><ele>32.8</ele><time>2026-04-12T09:19:34.999Z</time></trkpt><trkpt lat="44.16016711345192" lon="12.175846367040942"><ele>33.0</ele><time>2026-04-12T09:19:35.999Z</time></trkpt><trkpt lat="44.160076180685486" lon="12.175845070474784"><ele>33.0</ele><time>2026-04-12T09:19:36.999Z</time></trkpt><trkpt lat="44.1599647104463" lon="12.17584578397376"><ele>33.0</ele><time>2026-04-12T09:19:37.999Z</time></trkpt><trkpt lat="44.15985405880067" lon="12.175846762202427"><ele>33.0</ele><time>2026-04-12T09:19:38.999Z</time></trkpt><trkpt lat="44.15973710312351" lon="12.175869821907531"><ele>33.0</ele><time>2026-04-12T09:19:39.999Z</time></trkpt><trkpt lat="44.159623153015254" lon="12.175850062027818"><ele>33.0</ele><time>2026-04-12T09:19:40.999Z</time></trkpt><trkpt lat="44.159505021373676" lon="12.175851750220914"><ele>33.0</ele><time>2026-04-12T09:19:41.999Z</time></trkpt><trkpt lat="44.15937975858334" lon="12.175853540321507"><ele>33.0</ele><time>2026-04-12T09:19:42.999Z</time></trkpt><trkpt lat="44.15926319689761" lon="12.175855206078891"><ele>33.0</ele><time>2026-04-12T09:19:43.999Z</time></trkpt><trkpt lat="44.15914992554203" lon="12.175856824814375"><ele>32.75</ele><time>2026-04-12T09:19:44.999Z</time></trkpt><trkpt lat="44.15902793434253" lon="12.17585825712472"><ele>32.5</ele><time>2026-04-12T09:19:45.999Z</time></trkpt><trkpt lat="44.158904708765235" lon="12.175857226597307"><ele>32.25</ele><time>2026-04-12T09:19:46.999Z</time></trkpt><trkpt lat="44.1587900579192" lon="12.175856267777643"><ele>32.0</ele><time>2026-04-12T09:19:47.999Z</time></trkpt><trkpt lat="44.15868922174687" lon="12.175855424491333"><ele>31.999999999999996</ele><time>2026-04-12T09:19:48.999Z</time></trkpt><trkpt lat="44.15858525752974" lon="12.17585455504417"><ele>32.0</ele><time>2026-04-12T09:19:49.999Z</time></trkpt><trkpt lat="44.15849725779205" lon="12.175852288930235"><ele>32.0</ele><time>2026-04-12T09:19:50.999Z</time></trkpt><trkpt lat="44.158406238410464" lon="12.175849055437391"><ele>32.0</ele><time>2026-04-12T09:19:51.999Z</time></trkpt><trkpt lat="44.15833907979919" lon="12.175846669604198"><ele>31.999999999999996</ele><time>2026-04-12T09:19:52.999Z</time></trkpt><trkpt lat="44.15825862938312" lon="12.175844091979991"><ele>32.0</ele><time>2026-04-12T09:19:53.999Z</time></trkpt><trkpt lat="44.15816057853319" lon="12.175841445760781"><ele>32.33333333333333</ele><time>2026-04-12T09:19:54.999Z</time></trkpt><trkpt lat="44.15802300729086" lon="12.175837732957774"><ele>32.666666666666664</ele><time>2026-04-12T09:19:56.999Z</time></trkpt><trkpt lat="44.15793691499774" lon="12.175835541822496"><ele>33.0</ele><time>2026-04-12T09:19:57.999Z</time></trkpt><trkpt lat="44.15786384312452" lon="12.175835160815526"><ele>33.333333333333336</ele><time>2026-04-12T09:19:58.999Z</time></trkpt><trkpt lat="44.15779870457593" lon="12.175834821173696"><ele>33.66666666666667</ele><time>2026-04-12T09:19:59.999Z</time></trkpt><trkpt lat="44.15771902047657" lon="12.175834405688379"><ele>34.0</ele><time>2026-04-12T09:20:00.999Z</time></trkpt><trkpt lat="44.15763478826523" lon="12.175835501020357"><ele>34.0</ele><time>2026-04-12T09:20:01.999Z</time></trkpt><trkpt lat="44.15754780590369" lon="12.175839368872081"><ele>34.0</ele><time>2026-04-12T09:20:02.999Z</time></trkpt><trkpt lat="44.15745261887034" lon="12.175848005788202"><ele>34.0</ele><time>2026-04-12T09:20:03.999Z</time></trkpt><trkpt lat="44.157364673236984" lon="12.175858991499895"><ele>34.0</ele><time>2026-04-12T09:20:04.999Z</time></trkpt><trkpt lat="44.157275880112394" lon="12.175896365155486"><ele>34.0</ele><time>2026-04-12T09:20:06Z</time></trkpt><trkpt lat="44.15716822117855" lon="12.175890484081124"><ele>34.333333333333336</ele><time>2026-04-12T09:20:07Z</time></trkpt><trkpt lat="44.15707658750091" lon="12.175904335711538"><ele>34.66666666666667</ele><time>2026-04-12T09:20:08Z</time></trkpt><trkpt lat="44.157005630758825" lon="12.17592814312574"><ele>35.0</ele><time>2026-04-12T09:20:09Z</time></trkpt><trkpt lat="44.15691995439675" lon="12.175946546675458"><ele>35.333333333333336</ele><time>2026-04-12T09:20:10Z</time></trkpt><trkpt lat="44.15682067708542" lon="12.175963897313997"><ele>35.666666666666664</ele><time>2026-04-12T09:20:11Z</time></trkpt><trkpt lat="44.15673515442586" lon="12.175972925463913"><ele>36.0</ele><time>2026-04-12T09:20:12Z</time></trkpt><trkpt lat="44.15662912476849" lon="12.175982192828945"><ele>36.0</ele><time>2026-04-12T09:20:13Z</time></trkpt><trkpt lat="44.15652737195276" lon="12.175970938950254"><ele>36.0</ele><time>2026-04-12T09:20:14Z</time></trkpt><trkpt lat="44.15643061403786" lon="12.175989898333302"><ele>36.0</ele><time>2026-04-12T09:20:15Z</time></trkpt><trkpt lat="44.15632569194119" lon="12.17599815434892"><ele>36.0</ele><time>2026-04-12T09:20:16Z</time></trkpt><trkpt lat="44.15622615088169" lon="12.175998995593774"><ele>36.0</ele><time>2026-04-12T09:20:17Z</time></trkpt><trkpt lat="44.15613661744957" lon="12.176008585229642"><ele>36.0</ele><time>2026-04-12T09:20:18Z</time></trkpt><trkpt lat="44.15605044545468" lon="12.17601100636651"><ele>36.0</ele><time>2026-04-12T09:20:19Z</time></trkpt><trkpt lat="44.15595965430427" lon="12.176014618992497"><ele>36.0</ele><time>2026-04-12T09:20:20Z</time></trkpt><trkpt lat="44.15587323953902" lon="12.176018386867238"><ele>36.0</ele><time>2026-04-12T09:20:21Z</time></trkpt><trkpt lat="44.1557810379319" lon="12.176030221760293"><ele>36.0</ele><time>2026-04-12T09:20:22Z</time></trkpt><trkpt lat="44.15568563948329" lon="12.176035851307958"><ele>36.4</ele><time>2026-04-12T09:20:23Z</time></trkpt><trkpt lat="44.155595397787465" lon="12.176035279154375"><ele>36.8</ele><time>2026-04-12T09:20:24Z</time></trkpt><trkpt lat="44.155495397223575" lon="12.176047692250089"><ele>37.199999999999996</ele><time>2026-04-12T09:20:25Z</time></trkpt><trkpt lat="44.15539571249982" lon="12.176052195481383"><ele>37.6</ele><time>2026-04-12T09:20:26Z</time></trkpt><trkpt lat="44.15529825437813" lon="12.176058845157186"><ele>38.0</ele><time>2026-04-12T09:20:27Z</time></trkpt><trkpt lat="44.155215875775305" lon="12.176053711320943"><ele>38.0</ele><time>2026-04-12T09:20:28Z</time></trkpt><trkpt lat="44.15514435841102" lon="12.17606385087518"><ele>38.0</ele><time>2026-04-12T09:20:29Z</time></trkpt><trkpt lat="44.15502276811027" lon="12.176085601401201"><ele>38.0</ele><time>2026-04-12T09:20:31Z</time></trkpt><trkpt lat="44.15494925786395" lon="12.176061393607776"><ele>38.0</ele><time>2026-04-12T09:20:33Z</time></trkpt><trkpt lat="44.154967283065346" lon="12.17591943244049"><ele>38.0</ele><time>2026-04-12T09:20:35Z</time></trkpt><trkpt lat="44.154963619688324" lon="12.175813652735158"><ele>38.0</ele><time>2026-04-12T09:20:36Z</time></trkpt><trkpt lat="44.15495959277585" lon="12.175697375690298"><ele>37.8</ele><time>2026-04-12T09:20:37Z</time></trkpt><trkpt lat="44.15493952388544" lon="12.175585032916494"><ele>37.599999999999994</ele><time>2026-04-12T09:20:38Z</time></trkpt><trkpt lat="44.154935473499506" lon="12.175444801870917"><ele>37.400000000000006</ele><time>2026-04-12T09:20:39Z</time></trkpt><trkpt lat="44.15494731079248" lon="12.175282632175538"><ele>37.2</ele><time>2026-04-12T09:20:40Z</time></trkpt><trkpt lat="44.15494294986717" lon="12.175143541301669"><ele>37.0</ele><time>2026-04-12T09:20:41Z</time></trkpt><trkpt lat="44.15493687137398" lon="12.174986381498814"><ele>37.25</ele><time>2026-04-12T09:20:42Z</time></trkpt><trkpt lat="44.15491926852944" lon="12.174812463163015"><ele>37.5</ele><time>2026-04-12T09:20:43Z</time></trkpt><trkpt lat="44.15490917669795" lon="12.17464299001427"><ele>37.75</ele><time>2026-04-12T09:20:44Z</time></trkpt><trkpt lat="44.15490665966996" lon="12.174450112121203"><ele>38.0</ele><time>2026-04-12T09:20:45Z</time></trkpt><trkpt lat="44.15489503664692" lon="12.174276314419478"><ele>38.0</ele><time>2026-04-12T09:20:46Z</time></trkpt><trkpt lat="44.15488825373586" lon="12.174075976739644"><ele>38.0</ele><time>2026-04-12T09:20:47Z</time></trkpt><trkpt lat="44.154880413785335" lon="12.173885595483078"><ele>38.0</ele><time>2026-04-12T09:20:48Z</time></trkpt><trkpt lat="44.15488627082837" lon="12.17370998834135"><ele>38.0</ele><time>2026-04-12T09:20:49Z</time></trkpt><trkpt lat="44.154878875332344" lon="12.173553555158565"><ele>38.0</ele><time>2026-04-12T09:20:50Z</time></trkpt><trkpt lat="44.154871921446166" lon="12.173415632292375"><ele>38.0</ele><time>2026-04-12T09:20:51Z</time></trkpt><trkpt lat="44.15486516086048" lon="12.173281542475493"><ele>38.0</ele><time>2026-04-12T09:20:52Z</time></trkpt><trkpt lat="44.15484286545017" lon="12.173137729156029"><ele>38.0</ele><time>2026-04-12T09:20:53Z</time></trkpt><trkpt lat="44.15483940184392" lon="12.173005845676308"><ele>38.0</ele><time>2026-04-12T09:20:54Z</time></trkpt><trkpt lat="44.15482848302564" lon="12.172890784391697"><ele>38.75</ele><time>2026-04-12T09:20:55Z</time></trkpt><trkpt lat="44.15483497387072" lon="12.17271922538735"><ele>39.5</ele><time>2026-04-12T09:20:57Z</time></trkpt><trkpt lat="44.15482876028362" lon="12.172599766728096"><ele>40.25</ele><time>2026-04-12T09:20:59Z</time></trkpt><trkpt lat="44.15460110173706" lon="12.172625021539238"><ele>41.0</ele><time>2026-04-12T09:21:00.999Z</time></trkpt><trkpt lat="44.15451316208961" lon="12.172670356443017"><ele>41.0</ele><time>2026-04-12T09:21:01.999Z</time></trkpt><trkpt lat="44.15435443858312" lon="12.172714631447407"><ele>41.0</ele><time>2026-04-12T09:21:02.999Z</time></trkpt><trkpt lat="44.15418552086008" lon="12.172799738934978"><ele>41.0</ele><time>2026-04-12T09:21:03.999Z</time></trkpt><trkpt lat="44.15409346386189" lon="12.172759436996877"><ele>41.0</ele><time>2026-04-12T09:21:04.999Z</time></trkpt><trkpt lat="44.153932313508825" lon="12.17280481297591"><ele>41.75</ele><time>2026-04-12T09:21:05.999Z</time></trkpt><trkpt lat="44.153780743601054" lon="12.172843125938462"><ele>42.5</ele><time>2026-04-12T09:21:06.999Z</time></trkpt><trkpt lat="44.15365342046441" lon="12.17287516009478"><ele>43.25</ele><time>2026-04-12T09:21:07.999Z</time></trkpt><trkpt lat="44.153538023424034" lon="12.172908761620205"><ele>44.0</ele><time>2026-04-12T09:21:08.999Z</time></trkpt><trkpt lat="44.15342442113655" lon="12.17297957650273"><ele>44.0</ele><time>2026-04-12T09:21:09.999Z</time></trkpt><trkpt lat="44.15328881001146" lon="12.173100878996625"><ele>44.0</ele><time>2026-04-12T09:21:10.999Z</time></trkpt><trkpt lat="44.15315412123724" lon="12.173230885545147"><ele>44.0</ele><time>2026-04-12T09:21:11.999Z</time></trkpt><trkpt lat="44.15303903144869" lon="12.17333424401911"><ele>44.0</ele><time>2026-04-12T09:21:12.999Z</time></trkpt><trkpt lat="44.152918384719754" lon="12.173425670352042"><ele>44.0</ele><time>2026-04-12T09:21:13.999Z</time></trkpt><trkpt lat="44.15278875364892" lon="12.173500550062329"><ele>44.0</ele><time>2026-04-12T09:21:14.999Z</time></trkpt><trkpt lat="44.152667427299846" lon="12.173543391959276"><ele>44.0</ele><time>2026-04-12T09:21:15.999Z</time></trkpt><trkpt lat="44.15252449335041" lon="12.173566027407416"><ele>45.0</ele><time>2026-04-12T09:21:16.999Z</time></trkpt><trkpt lat="44.152371058617625" lon="12.173585626133196"><ele>46.0</ele><time>2026-04-12T09:21:17.999Z</time></trkpt><trkpt lat="44.15223191259304" lon="12.173595069813196"><ele>47.0</ele><time>2026-04-12T09:21:18.999Z</time></trkpt><trkpt lat="44.152132972760484" lon="12.173588288038491"><ele>48.0</ele><time>2026-04-12T09:21:19.999Z</time></trkpt><trkpt lat="44.152051049106554" lon="12.173580770899726"><ele>48.0</ele><time>2026-04-12T09:21:20.999Z</time></trkpt><trkpt lat="44.151975896911964" lon="12.173575019258212"><ele>48.0</ele><time>2026-04-12T09:21:21.999Z</time></trkpt><trkpt lat="44.15185968720833" lon="12.173581946129174"><ele>48.0</ele><time>2026-04-12T09:21:23.999Z</time></trkpt><trkpt lat="44.15179053137646" lon="12.173580485762542"><ele>48.0</ele><time>2026-04-12T09:21:25.999Z</time></trkpt><trkpt lat="44.15167190776899" lon="12.173569639128772"><ele>48.0</ele><time>2026-04-12T09:21:27.999Z</time></trkpt><trkpt lat="44.151592215704724" lon="12.173573013355744"><ele>48.0</ele><time>2026-04-12T09:21:28.999Z</time></trkpt><trkpt lat="44.151504723344424" lon="12.1735765733215"><ele>48.0</ele><time>2026-04-12T09:21:29.999Z</time></trkpt><trkpt lat="44.15142133575128" lon="12.173575849330442"><ele>48.0</ele><time>2026-04-12T09:21:30.999Z</time></trkpt><trkpt lat="44.15134098854762" lon="12.173573595112643"><ele>48.0</ele><time>2026-04-12T09:21:31.999Z</time></trkpt><trkpt lat="44.15125825270627" lon="12.173577215672276"><ele>48.0</ele><time>2026-04-12T09:21:32.999Z</time></trkpt><trkpt lat="44.151173566069886" lon="12.173577603351484"><ele>48.0</ele><time>2026-04-12T09:21:33.999Z</time></trkpt><trkpt lat="44.151078594594416" lon="12.173573312131689"><ele>48.0</ele><time>2026-04-12T09:21:34.999Z</time></trkpt><trkpt lat="44.15097982484604" lon="12.173561027878964"><ele>48.0</ele><time>2026-04-12T09:21:35.999Z</time></trkpt><trkpt lat="44.150876751158755" lon="12.173541012058003"><ele>48.0</ele><time>2026-04-12T09:21:36.999Z</time></trkpt><trkpt lat="44.150755256754664" lon="12.173510025579287"><ele>48.0</ele><time>2026-04-12T09:21:37.999Z</time></trkpt><trkpt lat="44.15063015632651" lon="12.173466551751213"><ele>48.0</ele><time>2026-04-12T09:21:38.999Z</time></trkpt><trkpt lat="44.150498200747435" lon="12.17340968830122"><ele>48.0</ele><time>2026-04-12T09:21:39.999Z</time></trkpt><trkpt lat="44.15036120365462" lon="12.173359030623132"><ele>48.0</ele><time>2026-04-12T09:21:40.999Z</time></trkpt><trkpt lat="44.150224758250744" lon="12.17331129185087"><ele>48.0</ele><time>2026-04-12T09:21:41.999Z</time></trkpt><trkpt lat="44.15010282019551" lon="12.173256821441537"><ele>48.0</ele><time>2026-04-12T09:21:42.999Z</time></trkpt><trkpt lat="44.14999618728763" lon="12.173205447309302"><ele>48.0</ele><time>2026-04-12T09:21:43.999Z</time></trkpt><trkpt lat="44.14990790861002" lon="12.173158739417696"><ele>48.0</ele><time>2026-04-12T09:21:44.999Z</time></trkpt><trkpt lat="44.14981528437016" lon="12.17307897769809"><ele>48.0</ele><time>2026-04-12T09:21:45.999Z</time></trkpt><trkpt lat="44.14972046016566" lon="12.172982112691829"><ele>48.0</ele><time>2026-04-12T09:21:46.999Z</time></trkpt><trkpt lat="44.149619773370254" lon="12.17286518188824"><ele>49.25</ele><time>2026-04-12T09:21:47.999Z</time></trkpt><trkpt lat="44.14952457915974" lon="12.17273619554418"><ele>50.5</ele><time>2026-04-12T09:21:48.999Z</time></trkpt><trkpt lat="44.14943422720342" lon="12.172600462889422"><ele>51.75</ele><time>2026-04-12T09:21:49.999Z</time></trkpt><trkpt lat="44.14935461247347" lon="12.172466374873052"><ele>53.0</ele><time>2026-04-12T09:21:50.999Z</time></trkpt><trkpt lat="44.14925304243897" lon="12.172326345747528"><ele>53.5</ele><time>2026-04-12T09:21:51.999Z</time></trkpt><trkpt lat="44.14912108474629" lon="12.172195439782518"><ele>54.0</ele><time>2026-04-12T09:21:52.999Z</time></trkpt><trkpt lat="44.14898088572646" lon="12.172101950345924"><ele>54.5</ele><time>2026-04-12T09:21:53.999Z</time></trkpt><trkpt lat="44.14886927477805" lon="12.172032544043295"><ele>55.0</ele><time>2026-04-12T09:21:54.999Z</time></trkpt><trkpt lat="44.14877918299678" lon="12.171966157982437"><ele>55.0</ele><time>2026-04-12T09:21:55.999Z</time></trkpt><trkpt lat="44.14871796214048" lon="12.171915586246056"><ele>55.0</ele><time>2026-04-12T09:21:56.999Z</time></trkpt><trkpt lat="44.14866186560003" lon="12.171875731811944"><ele>55.0</ele><time>2026-04-12T09:21:57.999Z</time></trkpt><trkpt lat="44.14857620054755" lon="12.171792901731434"><ele>55.0</ele><time>2026-04-12T09:21:58.999Z</time></trkpt><trkpt lat="44.148476342865564" lon="12.171715298960114"><ele>55.0</ele><time>2026-04-12T09:21:59.999Z</time></trkpt><trkpt lat="44.14836257225498" lon="12.171625901552925"><ele>55.0</ele><time>2026-04-12T09:22:00.999Z</time></trkpt><trkpt lat="44.14824953695093" lon="12.171551129844602"><ele>55.0</ele><time>2026-04-12T09:22:01.999Z</time></trkpt><trkpt lat="44.148134386091236" lon="12.171462228619236"><ele>55.0</ele><time>2026-04-12T09:22:02.999Z</time></trkpt><trkpt lat="44.14802183446075" lon="12.171351909634907"><ele>55.0</ele><time>2026-04-12T09:22:03.999Z</time></trkpt><trkpt lat="44.14790988771154" lon="12.171255873036552"><ele>55.25</ele><time>2026-04-12T09:22:04.999Z</time></trkpt><trkpt lat="44.14780256120511" lon="12.171164000787629"><ele>55.5</ele><time>2026-04-12T09:22:05.999Z</time></trkpt><trkpt lat="44.14770198145318" lon="12.171072519771307"><ele>55.75</ele><time>2026-04-12T09:22:06.999Z</time></trkpt><trkpt lat="44.14760915745075" lon="12.17097705123693"><ele>56.0</ele><time>2026-04-12T09:22:07.999Z</time></trkpt><trkpt lat="44.14751370360035" lon="12.170902347025603"><ele>56.0</ele><time>2026-04-12T09:22:08.999Z</time></trkpt><trkpt lat="44.14742728824355" lon="12.170825846238499"><ele>55.99999999999999</ele><time>2026-04-12T09:22:09.999Z</time></trkpt><trkpt lat="44.14734824701913" lon="12.170750294442469"><ele>55.99999999999999</ele><time>2026-04-12T09:22:10.999Z</time></trkpt><trkpt lat="44.147288572860774" lon="12.17064842204328"><ele>56.0</ele><time>2026-04-12T09:22:12Z</time></trkpt><trkpt lat="44.147180396913086" lon="12.170585269245317"><ele>56.0</ele><time>2026-04-12T09:22:13Z</time></trkpt><trkpt lat="44.14709134185792" lon="12.170528860874487"><ele>57.8</ele><time>2026-04-12T09:22:14Z</time></trkpt><trkpt lat="44.14699364665528" lon="12.17044263512345"><ele>59.599999999999994</ele><time>2026-04-12T09:22:16Z</time></trkpt><trkpt lat="44.146917667054105" lon="12.170415750069424"><ele>61.4</ele><time>2026-04-12T09:22:18Z</time></trkpt><trkpt lat="44.14681662075862" lon="12.170352936190268"><ele>63.2</ele><time>2026-04-12T09:22:20Z</time></trkpt><trkpt lat="44.146741187132186" lon="12.170308041827733"><ele>65.0</ele><time>2026-04-12T09:22:21Z</time></trkpt><trkpt lat="44.14667173633009" lon="12.170237006900217"><ele>65.0</ele><time>2026-04-12T09:22:22Z</time></trkpt><trkpt lat="44.14660277561591" lon="12.170141711630823"><ele>65.0</ele><time>2026-04-12T09:22:23Z</time></trkpt><trkpt lat="44.14652605061305" lon="12.170064416576205"><ele>65.0</ele><time>2026-04-12T09:22:24Z</time></trkpt><trkpt lat="44.14644350120057" lon="12.169957676800536"><ele>65.0</ele><time>2026-04-12T09:22:25Z</time></trkpt><trkpt lat="44.14635877534169" lon="12.169826647910991"><ele>65.0</ele><time>2026-04-12T09:22:26Z</time></trkpt><trkpt lat="44.146273506956625" lon="12.169695720507779"><ele>65.25</ele><time>2026-04-12T09:22:27Z</time></trkpt><trkpt lat="44.14619169559857" lon="12.169595688943039"><ele>65.5</ele><time>2026-04-12T09:22:28Z</time></trkpt><trkpt lat="44.14613280390477" lon="12.169472481126347"><ele>65.75</ele><time>2026-04-12T09:22:29Z</time></trkpt><trkpt lat="44.14605766040168" lon="12.169336338150611"><ele>66.0</ele><time>2026-04-12T09:22:30Z</time></trkpt><trkpt lat="44.14598581047877" lon="12.169217615918106"><ele>66.0</ele><time>2026-04-12T09:22:31Z</time></trkpt><trkpt lat="44.14593004362553" lon="12.169128080332198"><ele>66.0</ele><time>2026-04-12T09:22:32Z</time></trkpt><trkpt lat="44.14587419186468" lon="12.169028512926351"><ele>66.0</ele><time>2026-04-12T09:22:33Z</time></trkpt><trkpt lat="44.14581146029372" lon="12.168922164333523"><ele>66.0</ele><time>2026-04-12T09:22:34Z</time></trkpt><trkpt lat="44.145745604677316" lon="12.16879387034687"><ele>66.0</ele><time>2026-04-12T09:22:35Z</time></trkpt><trkpt lat="44.145669464667336" lon="12.168661632515285"><ele>67.25</ele><time>2026-04-12T09:22:36Z</time></trkpt><trkpt lat="44.145579834006746" lon="12.168514862328497"><ele>68.5</ele><time>2026-04-12T09:22:37Z</time></trkpt><trkpt lat="44.14551859603733" lon="12.168408861432418"><ele>69.75</ele><time>2026-04-12T09:22:38Z</time></trkpt><trkpt lat="44.14544007790052" lon="12.168294586350783"><ele>71.0</ele><time>2026-04-12T09:22:39Z</time></trkpt><trkpt lat="44.145349455826604" lon="12.168159730878179"><ele>72.33333333333334</ele><time>2026-04-12T09:22:40Z</time></trkpt><trkpt lat="44.14526702266865" lon="12.168034798775292"><ele>73.66666666666667</ele><time>2026-04-12T09:22:41Z</time></trkpt><trkpt lat="44.14521836035549" lon="12.167914350674359"><ele>75.0</ele><time>2026-04-12T09:22:42Z</time></trkpt><trkpt lat="44.14520294051748" lon="12.167815948662874"><ele>76.33333333333333</ele><time>2026-04-12T09:22:43Z</time></trkpt><trkpt lat="44.14519792441688" lon="12.167705594332752"><ele>77.66666666666666</ele><time>2026-04-12T09:22:44Z</time></trkpt><trkpt lat="44.14522822215035" lon="12.16761440123614"><ele>79.0</ele><time>2026-04-12T09:22:45Z</time></trkpt><trkpt lat="44.14525871952345" lon="12.167479455410305"><ele>80.0</ele><time>2026-04-12T09:22:46Z</time></trkpt><trkpt lat="44.14529691179849" lon="12.167323897302087"><ele>81.0</ele><time>2026-04-12T09:22:47Z</time></trkpt><trkpt lat="44.14532548815268" lon="12.167233051020798"><ele>82.0</ele><time>2026-04-12T09:22:48Z</time></trkpt><trkpt lat="44.14535908149581" lon="12.167153602468144"><ele>83.0</ele><time>2026-04-12T09:22:49Z</time></trkpt><trkpt lat="44.14540421356654" lon="12.167061443035145"><ele>84.0</ele><time>2026-04-12T09:22:50Z</time></trkpt><trkpt lat="44.145436255208786" lon="12.166976553401087"><ele>85.0</ele><time>2026-04-12T09:22:51Z</time></trkpt><trkpt lat="44.14547208893216" lon="12.166875640361733"><ele>85.0</ele><time>2026-04-12T09:22:52Z</time></trkpt><trkpt lat="44.14551789346016" lon="12.16676457418019"><ele>85.0</ele><time>2026-04-12T09:22:53Z</time></trkpt><trkpt lat="44.14558824707229" lon="12.166653558239206"><ele>85.0</ele><time>2026-04-12T09:22:54Z</time></trkpt><trkpt lat="44.14563264246991" lon="12.166559760477053"><ele>85.0</ele><time>2026-04-12T09:22:55Z</time></trkpt><trkpt lat="44.14569409189798" lon="12.166452141432648"><ele>85.0</ele><time>2026-04-12T09:22:56Z</time></trkpt><trkpt lat="44.145743410631795" lon="12.166353145432664"><ele>88.6</ele><time>2026-04-12T09:22:57Z</time></trkpt><trkpt lat="44.14580327820494" lon="12.166251671026124"><ele>92.2</ele><time>2026-04-12T09:22:58Z</time></trkpt><trkpt lat="44.14585497840518" lon="12.166174525281782"><ele>95.80000000000001</ele><time>2026-04-12T09:22:59Z</time></trkpt><trkpt lat="44.145913369845466" lon="12.166089949806556"><ele>99.4</ele><time>2026-04-12T09:23:01Z</time></trkpt><trkpt lat="44.145954698952245" lon="12.1659422282527"><ele>103.0</ele><time>2026-04-12T09:23:02.999Z</time></trkpt><trkpt lat="44.145979846743224" lon="12.165833609832717"><ele>103.4</ele><time>2026-04-12T09:23:03.999Z</time></trkpt><trkpt lat="44.146010358107524" lon="12.16568724523586"><ele>103.80000000000001</ele><time>2026-04-12T09:23:04.999Z</time></trkpt><trkpt lat="44.14603681580729" lon="12.16556362216517"><ele>104.2</ele><time>2026-04-12T09:23:05.999Z</time></trkpt><trkpt lat="44.14605710349537" lon="12.165455214063547"><ele>104.6</ele><time>2026-04-12T09:23:06.999Z</time></trkpt><trkpt lat="44.146080542516124" lon="12.165339019135892"><ele>105.0</ele><time>2026-04-12T09:23:07.999Z</time></trkpt><trkpt lat="44.1461155969131" lon="12.165191731431003"><ele>105.0</ele><time>2026-04-12T09:23:08.999Z</time></trkpt><trkpt lat="44.14614549314443" lon="12.165061600267435"><ele>105.0</ele><time>2026-04-12T09:23:09.999Z</time></trkpt><trkpt lat="44.14617287168219" lon="12.164919782193852"><ele>105.0</ele><time>2026-04-12T09:23:10.999Z</time></trkpt><trkpt lat="44.14619665796195" lon="12.164765056708333"><ele>105.0</ele><time>2026-04-12T09:23:11.999Z</time></trkpt><trkpt lat="44.14621564513636" lon="12.164608012280832"><ele>105.0</ele><time>2026-04-12T09:23:12.999Z</time></trkpt><trkpt lat="44.14622996861689" lon="12.16444726937812"><ele>105.4</ele><time>2026-04-12T09:23:13.999Z</time></trkpt><trkpt lat="44.14624046895212" lon="12.16430220895854"><ele>105.8</ele><time>2026-04-12T09:23:14.999Z</time></trkpt><trkpt lat="44.1462543685915" lon="12.164186921517148"><ele>106.19999999999999</ele><time>2026-04-12T09:23:15.999Z</time></trkpt><trkpt lat="44.1462620124538" lon="12.164092916462456"><ele>106.6</ele><time>2026-04-12T09:23:16.999Z</time></trkpt><trkpt lat="44.146303311335096" lon="12.163975664193776"><ele>107.0</ele><time>2026-04-12T09:23:18.999Z</time></trkpt><trkpt lat="44.146215096849595" lon="12.163821451210953"><ele>107.8</ele><time>2026-04-12T09:23:21.999Z</time></trkpt><trkpt lat="44.14612745431476" lon="12.16372914132996"><ele>108.6</ele><time>2026-04-12T09:23:22.999Z</time></trkpt><trkpt lat="44.14606524806586" lon="12.163631923221564"><ele>109.39999999999999</ele><time>2026-04-12T09:23:23.999Z</time></trkpt><trkpt lat="44.1459997814484" lon="12.163561435701057"><ele>110.19999999999999</ele><time>2026-04-12T09:23:25.999Z</time></trkpt><trkpt lat="44.145926315568175" lon="12.163762172977354"><ele>111.0</ele><time>2026-04-12T09:23:27.999Z</time></trkpt><trkpt lat="44.1458663401624" lon="12.16392093305462"><ele>110.0</ele><time>2026-04-12T09:23:28.999Z</time></trkpt><trkpt lat="44.145802490066785" lon="12.164095960900132"><ele>109.0</ele><time>2026-04-12T09:23:29.999Z</time></trkpt><trkpt lat="44.14574151533085" lon="12.164249211590798"><ele>108.0</ele><time>2026-04-12T09:23:30.999Z</time></trkpt><trkpt lat="44.14567532407359" lon="12.16440788073431"><ele>107.0</ele><time>2026-04-12T09:23:31.999Z</time></trkpt><trkpt lat="44.14561146654973" lon="12.164538342758302"><ele>106.8</ele><time>2026-04-12T09:23:32.999Z</time></trkpt><trkpt lat="44.145537236114784" lon="12.164660469548426"><ele>106.6</ele><time>2026-04-12T09:23:33.999Z</time></trkpt><trkpt lat="44.14545099479929" lon="12.164772332678398"><ele>106.39999999999999</ele><time>2026-04-12T09:23:34.999Z</time></trkpt><trkpt lat="44.14536671335848" lon="12.164842214863283"><ele>106.19999999999999</ele><time>2026-04-12T09:23:35.999Z</time></trkpt><trkpt lat="44.14528277286366" lon="12.164883855679085"><ele>106.0</ele><time>2026-04-12T09:23:36.999Z</time></trkpt><trkpt lat="44.145172932964364" lon="12.164917694794717"><ele>104.19999999999999</ele><time>2026-04-12T09:23:37.999Z</time></trkpt><trkpt lat="44.14506009422219" lon="12.164967888825819"><ele>102.39999999999999</ele><time>2026-04-12T09:23:38.999Z</time></trkpt><trkpt lat="44.14496615020352" lon="12.165035162667536"><ele>100.6</ele><time>2026-04-12T09:23:39.999Z</time></trkpt><trkpt lat="44.14488158298097" lon="12.165110330212025"><ele>98.8</ele><time>2026-04-12T09:23:40.999Z</time></trkpt><trkpt lat="44.144802872101955" lon="12.165163735600078"><ele>97.0</ele><time>2026-04-12T09:23:41.999Z</time></trkpt><trkpt lat="44.144714075237" lon="12.165170279845578"><ele>95.25</ele><time>2026-04-12T09:23:42.999Z</time></trkpt><trkpt lat="44.14463207324537" lon="12.165183538287696"><ele>93.5</ele><time>2026-04-12T09:23:43.999Z</time></trkpt><trkpt lat="44.144526869563805" lon="12.165233475947609"><ele>91.75</ele><time>2026-04-12T09:23:44.999Z</time></trkpt><trkpt lat="44.14438615452981" lon="12.165257939719304"><ele>90.0</ele><time>2026-04-12T09:23:46.999Z</time></trkpt><trkpt lat="44.14426478557168" lon="12.16530084896502"><ele>90.0</ele><time>2026-04-12T09:23:47.999Z</time></trkpt><trkpt lat="44.14412992342247" lon="12.16537001658136"><ele>90.0</ele><time>2026-04-12T09:23:48.999Z</time></trkpt><trkpt lat="44.14400159611887" lon="12.165435061266392"><ele>90.0</ele><time>2026-04-12T09:23:49.999Z</time></trkpt><trkpt lat="44.14388986975852" lon="12.165487562729192"><ele>90.0</ele><time>2026-04-12T09:23:50.999Z</time></trkpt><trkpt lat="44.143792672720586" lon="12.165561177589657"><ele>89.8</ele><time>2026-04-12T09:23:51.999Z</time></trkpt><trkpt lat="44.143709461765226" lon="12.165606989582114"><ele>89.6</ele><time>2026-04-12T09:23:52.999Z</time></trkpt><trkpt lat="44.14361738328494" lon="12.165672124503626"><ele>89.4</ele><time>2026-04-12T09:23:53.999Z</time></trkpt><trkpt lat="44.14355730093933" lon="12.165727257911476"><ele>89.2</ele><time>2026-04-12T09:23:54.999Z</time></trkpt><trkpt lat="44.14347793083672" lon="12.165814186825145"><ele>89.0</ele><time>2026-04-12T09:23:56.999Z</time></trkpt><trkpt lat="44.14338814881161" lon="12.165755598152328"><ele>89.0</ele><time>2026-04-12T09:23:58.999Z</time></trkpt><trkpt lat="44.14334905731763" lon="12.165680406248542"><ele>89.0</ele><time>2026-04-12T09:23:59.999Z</time></trkpt><trkpt lat="44.14331939062948" lon="12.165590439574038"><ele>89.0</ele><time>2026-04-12T09:24:00.999Z</time></trkpt><trkpt lat="44.14329182161794" lon="12.165488877525398"><ele>89.0</ele><time>2026-04-12T09:24:01.999Z</time></trkpt><trkpt lat="44.143233528590045" lon="12.165349069523876"><ele>89.0</ele><time>2026-04-12T09:24:02.999Z</time></trkpt><trkpt lat="44.14319759620271" lon="12.165227843335593"><ele>89.0</ele><time>2026-04-12T09:24:03.999Z</time></trkpt><trkpt lat="44.14316508445007" lon="12.165114901047971"><ele>90.80000000000001</ele><time>2026-04-12T09:24:04.999Z</time></trkpt><trkpt lat="44.143138945385125" lon="12.165003058155833"><ele>92.60000000000001</ele><time>2026-04-12T09:24:05.999Z</time></trkpt><trkpt lat="44.14310196896325" lon="12.164919054803693"><ele>94.4</ele><time>2026-04-12T09:24:06.999Z</time></trkpt><trkpt lat="44.14300280666511" lon="12.164760239733372"><ele>96.2</ele><time>2026-04-12T09:24:08.999Z</time></trkpt><trkpt lat="44.142863206813445" lon="12.164722947613818"><ele>98.0</ele><time>2026-04-12T09:24:10.999Z</time></trkpt><trkpt lat="44.14274099691179" lon="12.164800923264597"><ele>97.99999999999999</ele><time>2026-04-12T09:24:12.999Z</time></trkpt><trkpt lat="44.14264310734072" lon="12.16488899718419"><ele>98.0</ele><time>2026-04-12T09:24:14.999Z</time></trkpt><trkpt lat="44.14254970999206" lon="12.164940247981344"><ele>98.0</ele><time>2026-04-12T09:24:15.999Z</time></trkpt><trkpt lat="44.14246153287409" lon="12.164980302318789"><ele>98.0</ele><time>2026-04-12T09:24:18Z</time></trkpt><trkpt lat="44.142395325391526" lon="12.165013666691623"><ele>97.99999999999999</ele><time>2026-04-12T09:24:19Z</time></trkpt><trkpt lat="44.142332593501614" lon="12.165036183682448"><ele>98.0</ele><time>2026-04-12T09:24:20Z</time></trkpt><trkpt lat="44.14224066662219" lon="12.165075087136579"><ele>98.49999999999999</ele><time>2026-04-12T09:24:22Z</time></trkpt><trkpt lat="44.14216019574147" lon="12.165075933754704"><ele>99.0</ele><time>2026-04-12T09:24:24Z</time></trkpt><trkpt lat="44.14209557740224" lon="12.165095699198584"><ele>99.5</ele><time>2026-04-12T09:24:27Z</time></trkpt><trkpt lat="44.14202375924234" lon="12.165169158746243"><ele>100.0</ele><time>2026-04-12T09:24:29Z</time></trkpt><trkpt lat="44.141948106146984" lon="12.165271671309924"><ele>100.49999999999999</ele><time>2026-04-12T09:24:31Z</time></trkpt><trkpt lat="44.14184867497156" lon="12.165286603096021"><ele>101.0</ele><time>2026-04-12T09:24:33Z</time></trkpt><trkpt lat="44.141812034088986" lon="12.165203353985124"><ele>101.0</ele><time>2026-04-12T09:24:45Z</time></trkpt><trkpt lat="44.14182173193505" lon="12.165068583103507"><ele>101.0</ele><time>2026-04-12T09:24:47Z</time></trkpt><trkpt lat="44.141880081795" lon="12.164935341848471"><ele>101.0</ele><time>2026-04-12T09:24:49Z</time></trkpt><trkpt lat="44.141937219761175" lon="12.164818623990627"><ele>101.0</ele><time>2026-04-12T09:24:51Z</time></trkpt><trkpt lat="44.141944733600155" lon="12.164662713261622"><ele>101.0</ele><time>2026-04-12T09:24:53Z</time></trkpt><trkpt lat="44.14193796641973" lon="12.16453038267799"><ele>104.0</ele><time>2026-04-12T09:24:54Z</time></trkpt><trkpt lat="44.14192495559905" lon="12.164313715076416"><ele>107.0</ele><time>2026-04-12T09:24:56Z</time></trkpt><trkpt lat="44.14191684096274" lon="12.164200309162068"><ele>110.0</ele><time>2026-04-12T09:24:57Z</time></trkpt><trkpt lat="44.141919377252414" lon="12.164022816990181"><ele>113.0</ele><time>2026-04-12T09:24:59Z</time></trkpt><trkpt lat="44.141911297043706" lon="12.163864606391947"><ele>112.99999999999999</ele><time>2026-04-12T09:25:01Z</time></trkpt><trkpt lat="44.141908702694934" lon="12.163767494513335"><ele>113.0</ele><time>2026-04-12T09:25:03Z</time></trkpt><trkpt lat="44.141848568999585" lon="12.163807425482439"><ele>113.0</ele><time>2026-04-12T09:25:07Z</time></trkpt><trkpt lat="44.141886538089544" lon="12.163926898382467"><ele>113.0</ele><time>2026-04-12T09:25:11Z</time></trkpt><trkpt lat="44.14191946880139" lon="12.164038204567246"><ele>112.99999999999999</ele><time>2026-04-12T09:25:13.999Z</time></trkpt><trkpt lat="44.141912116993296" lon="12.164177193208609"><ele>113.0</ele><time>2026-04-12T09:25:15.999Z</time></trkpt><trkpt lat="44.141915616502885" lon="12.164328794719546"><ele>113.0</ele><time>2026-04-12T09:25:17.999Z</time></trkpt><trkpt lat="44.14191731663422" lon="12.164461664090316"><ele>113.00000000000001</ele><time>2026-04-12T09:25:19.999Z</time></trkpt><trkpt lat="44.14192652870017" lon="12.164610911360068"><ele>113.00000000000001</ele><time>2026-04-12T09:25:21.999Z</time></trkpt><trkpt lat="44.14192263859224" lon="12.164773702971056"><ele>113.0</ele><time>2026-04-12T09:25:23.999Z</time></trkpt><trkpt lat="44.14191062436859" lon="12.16488064918219"><ele>113.0</ele><time>2026-04-12T09:25:25.999Z</time></trkpt><trkpt lat="44.14187097536172" lon="12.164977037800346"><ele>110.99999999999999</ele><time>2026-04-12T09:25:27.999Z</time></trkpt><trkpt lat="44.14182354113541" lon="12.16504973897757"><ele>109.0</ele><time>2026-04-12T09:25:29.999Z</time></trkpt><trkpt lat="44.14180128218084" lon="12.165160028978898"><ele>107.0</ele><time>2026-04-12T09:25:32.999Z</time></trkpt><trkpt lat="44.14180071293936" lon="12.165260508878793"><ele>105.0</ele><time>2026-04-12T09:25:35.999Z</time></trkpt><trkpt lat="44.1417272771413" lon="12.165278750395803"><ele>102.99999999999999</ele><time>2026-04-12T09:25:38.999Z</time></trkpt><trkpt lat="44.141628005121255" lon="12.165308915631844"><ele>101.0</ele><time>2026-04-12T09:25:40.999Z</time></trkpt><trkpt lat="44.141540793899395" lon="12.16529515073051"><ele>100.8</ele><time>2026-04-12T09:25:42.999Z</time></trkpt><trkpt lat="44.14146338107938" lon="12.165223817008018"><ele>100.6</ele><time>2026-04-12T09:25:44.999Z</time></trkpt><trkpt lat="44.14144854620247" lon="12.16507951339749"><ele>100.4</ele><time>2026-04-12T09:25:47.999Z</time></trkpt><trkpt lat="44.14144685870384" lon="12.164974752350261"><ele>100.2</ele><time>2026-04-12T09:25:49.999Z</time></trkpt><trkpt lat="44.1414220664012" lon="12.164747561252259"><ele>100.0</ele><time>2026-04-12T09:25:51.999Z</time></trkpt><trkpt lat="44.14140805950224" lon="12.164578573577836"><ele>102.83333333333334</ele><time>2026-04-12T09:25:52.999Z</time></trkpt><trkpt lat="44.141398960746244" lon="12.16449059675265"><ele>105.66666666666667</ele><time>2026-04-12T09:25:53.999Z</time></trkpt><trkpt lat="44.141357266497224" lon="12.164344471139914"><ele>108.5</ele><time>2026-04-12T09:25:55.999Z</time></trkpt><trkpt lat="44.14130810112767" lon="12.164265051468362"><ele>111.33333333333334</ele><time>2026-04-12T09:25:56.999Z</time></trkpt><trkpt lat="44.14124518265597" lon="12.164219875198212"><ele>114.16666666666667</ele><time>2026-04-12T09:25:57.999Z</time></trkpt><trkpt lat="44.141172597219786" lon="12.164200983379779"><ele>117.0</ele><time>2026-04-12T09:25:58.999Z</time></trkpt><trkpt lat="44.14109208319708" lon="12.164204740671524"><ele>117.0</ele><time>2026-04-12T09:25:59.999Z</time></trkpt><trkpt lat="44.14098229326195" lon="12.164202592739574"><ele>116.99999999999999</ele><time>2026-04-12T09:26:00.999Z</time></trkpt><trkpt lat="44.14089865288421" lon="12.164213794903349"><ele>116.99999999999999</ele><time>2026-04-12T09:26:01.999Z</time></trkpt><trkpt lat="44.1408034692522" lon="12.16420575414665"><ele>117.0</ele><time>2026-04-12T09:26:02.999Z</time></trkpt><trkpt lat="44.14071115799616" lon="12.164213352835231"><ele>117.0</ele><time>2026-04-12T09:26:03.999Z</time></trkpt><trkpt lat="44.14062600423675" lon="12.164197166641221"><ele>117.39999999999999</ele><time>2026-04-12T09:26:04.999Z</time></trkpt><trkpt lat="44.14051281073997" lon="12.164231271589388"><ele>117.79999999999998</ele><time>2026-04-12T09:26:06.999Z</time></trkpt><trkpt lat="44.140431066984995" lon="12.16426542255741"><ele>118.2</ele><time>2026-04-12T09:26:08.999Z</time></trkpt><trkpt lat="44.140340644972355" lon="12.16421727100036"><ele>118.6</ele><time>2026-04-12T09:26:54Z</time></trkpt><trkpt lat="44.14023797605759" lon="12.164211500901455"><ele>119.0</ele><time>2026-04-12T09:26:56Z</time></trkpt><trkpt lat="44.14015483498138" lon="12.164227327388955"><ele>119.0</ele><time>2026-04-12T09:26:57Z</time></trkpt><trkpt lat="44.140083425704226" lon="12.164221024516749"><ele>119.0</ele><time>2026-04-12T09:26:58Z</time></trkpt><trkpt lat="44.14001849766986" lon="12.164212637365202"><ele>119.0</ele><time>2026-04-12T09:26:59Z</time></trkpt><trkpt lat="44.13995284879691" lon="12.164193342455453"><ele>119.0</ele><time>2026-04-12T09:27:00Z</time></trkpt><trkpt lat="44.139883199804615" lon="12.16416575161356"><ele>119.0</ele><time>2026-04-12T09:27:01Z</time></trkpt><trkpt lat="44.13979390558711" lon="12.164128850923532"><ele>119.0</ele><time>2026-04-12T09:27:02Z</time></trkpt><trkpt lat="44.139726321879834" lon="12.164108427203033"><ele>119.0</ele><time>2026-04-12T09:27:03Z</time></trkpt><trkpt lat="44.13963042434654" lon="12.16407381614958"><ele>119.66666666666666</ele><time>2026-04-12T09:27:05Z</time></trkpt><trkpt lat="44.1395770825274" lon="12.164013151718498"><ele>120.33333333333333</ele><time>2026-04-12T09:27:06Z</time></trkpt><trkpt lat="44.139520605011136" lon="12.163957596368185"><ele>121.0</ele><time>2026-04-12T09:27:07Z</time></trkpt><trkpt lat="44.139464246585796" lon="12.16388967356862"><ele>121.66666666666666</ele><time>2026-04-12T09:27:08Z</time></trkpt><trkpt lat="44.13939492819061" lon="12.163780357618037"><ele>122.33333333333333</ele><time>2026-04-12T09:27:10Z</time></trkpt><trkpt lat="44.13934223810668" lon="12.163648149476753"><ele>123.0</ele><time>2026-04-12T09:27:12Z</time></trkpt><trkpt lat="44.1393000874093" lon="12.163576996984215"><ele>123.0</ele><time>2026-04-12T09:27:13Z</time></trkpt><trkpt lat="44.139242229557844" lon="12.16353525607969"><ele>123.0</ele><time>2026-04-12T09:27:14Z</time></trkpt><trkpt lat="44.13915523089496" lon="12.163443981265402"><ele>123.0</ele><time>2026-04-12T09:27:16Z</time></trkpt><trkpt lat="44.13909627150013" lon="12.163350336054272"><ele>123.0</ele><time>2026-04-12T09:27:17Z</time></trkpt><trkpt lat="44.13902749242757" lon="12.163221571807652"><ele>123.0</ele><time>2026-04-12T09:27:18.999Z</time></trkpt><trkpt lat="44.13898503105359" lon="12.163149681308331"><ele>123.0</ele><time>2026-04-12T09:27:20.999Z</time></trkpt><trkpt lat="44.13892807246975" lon="12.16299099543999"><ele>121.0</ele><time>2026-04-12T09:27:22.999Z</time></trkpt><trkpt lat="44.13883975329977" lon="12.162999011334284"><ele>119.00000000000001</ele><time>2026-04-12T09:27:24.999Z</time></trkpt><trkpt lat="44.13874788287226" lon="12.16294976140109"><ele>117.00000000000001</ele><time>2026-04-12T09:27:26.999Z</time></trkpt><trkpt lat="44.138667331347975" lon="12.162837387201156"><ele>115.0</ele><time>2026-04-12T09:27:28.999Z</time></trkpt><trkpt lat="44.138627991086636" lon="12.162648771207358"><ele>113.0</ele><time>2026-04-12T09:27:30.999Z</time></trkpt><trkpt lat="44.138610560448164" lon="12.162521863051294"><ele>112.99999999999999</ele><time>2026-04-12T09:27:31.999Z</time></trkpt><trkpt lat="44.13860651724614" lon="12.162432261775539"><ele>113.0</ele><time>2026-04-12T09:27:33.999Z</time></trkpt><trkpt lat="44.138674591957454" lon="12.162374920730795"><ele>113.0</ele><time>2026-04-12T09:27:37.999Z</time></trkpt><trkpt lat="44.138780389784884" lon="12.16235873128584"><ele>113.0</ele><time>2026-04-12T09:27:42.999Z</time></trkpt><trkpt lat="44.13886685663579" lon="12.162329249948433"><ele>112.99999999999999</ele><time>2026-04-12T09:27:43.999Z</time></trkpt><trkpt lat="44.13894360723637" lon="12.162271202418966"><ele>113.0</ele><time>2026-04-12T09:27:44.999Z</time></trkpt><trkpt lat="44.13896014310308" lon="12.162072405847459"><ele>113.0</ele><time>2026-04-12T09:27:46.999Z</time></trkpt><trkpt lat="44.13899111104225" lon="12.161941060888795"><ele>113.0</ele><time>2026-04-12T09:27:47.999Z</time></trkpt><trkpt lat="44.13900673903484" lon="12.161786059559306"><ele>113.0</ele><time>2026-04-12T09:27:48.999Z</time></trkpt><trkpt lat="44.13902431374358" lon="12.161604032139449"><ele>113.0</ele><time>2026-04-12T09:27:49.999Z</time></trkpt><trkpt lat="44.13902952285786" lon="12.161451403950252"><ele>113.0</ele><time>2026-04-12T09:27:50.999Z</time></trkpt><trkpt lat="44.139044000407274" lon="12.16127491134134"><ele>113.0</ele><time>2026-04-12T09:27:51.999Z</time></trkpt><trkpt lat="44.13905487617366" lon="12.16109457512936"><ele>113.0</ele><time>2026-04-12T09:27:52.999Z</time></trkpt><trkpt lat="44.13907103309533" lon="12.160918180936049"><ele>113.0</ele><time>2026-04-12T09:27:53.999Z</time></trkpt><trkpt lat="44.13908553630579" lon="12.160746528688426"><ele>115.2</ele><time>2026-04-12T09:27:54.999Z</time></trkpt><trkpt lat="44.1390971714742" lon="12.160609050069207"><ele>117.4</ele><time>2026-04-12T09:27:55.999Z</time></trkpt><trkpt lat="44.13910881155193" lon="12.16045397578807"><ele>119.60000000000001</ele><time>2026-04-12T09:27:56.999Z</time></trkpt><trkpt lat="44.139123410756326" lon="12.160295407091859"><ele>121.80000000000001</ele><time>2026-04-12T09:27:57.999Z</time></trkpt><trkpt lat="44.13913127349597" lon="12.160174884946075"><ele>124.0</ele><time>2026-04-12T09:27:59.999Z</time></trkpt><trkpt lat="44.13913484580114" lon="12.160086787057484"><ele>124.0</ele><time>2026-04-12T09:28:00.999Z</time></trkpt><trkpt lat="44.13914240655615" lon="12.159969220032025"><ele>124.0</ele><time>2026-04-12T09:28:02.999Z</time></trkpt><trkpt lat="44.13909267355069" lon="12.159813390757325"><ele>124.0</ele><time>2026-04-12T09:28:28.999Z</time></trkpt><trkpt lat="44.139013410507914" lon="12.159730771853226"><ele>124.0</ele><time>2026-04-12T09:28:30Z</time></trkpt><trkpt lat="44.13894306345211" lon="12.159616575935745"><ele>124.0</ele><time>2026-04-12T09:28:31Z</time></trkpt><trkpt lat="44.13886236230359" lon="12.159492876207668"><ele>123.66666666666667</ele><time>2026-04-12T09:28:32Z</time></trkpt><trkpt lat="44.13880601786201" lon="12.159357855690319"><ele>123.33333333333334</ele><time>2026-04-12T09:28:33Z</time></trkpt><trkpt lat="44.138617282424555" lon="12.159315959090867"><ele>123.0</ele><time>2026-04-12T09:28:34Z</time></trkpt><trkpt lat="44.13848251760693" lon="12.159197356266407"><ele>123.0</ele><time>2026-04-12T09:28:35Z</time></trkpt><trkpt lat="44.13837885172157" lon="12.159084655471696"><ele>123.0</ele><time>2026-04-12T09:28:36Z</time></trkpt><trkpt lat="44.13827040305037" lon="12.159006401088964"><ele>123.0</ele><time>2026-04-12T09:28:37Z</time></trkpt><trkpt lat="44.13816999300832" lon="12.158911763471194"><ele>123.0</ele><time>2026-04-12T09:28:38Z</time></trkpt><trkpt lat="44.138068646488364" lon="12.158817403952225"><ele>124.25</ele><time>2026-04-12T09:28:39Z</time></trkpt><trkpt lat="44.137965488963566" lon="12.15871535055174"><ele>125.5</ele><time>2026-04-12T09:28:40Z</time></trkpt><trkpt lat="44.137863901321325" lon="12.158621163980587"><ele>126.75</ele><time>2026-04-12T09:28:41Z</time></trkpt><trkpt lat="44.13775687628323" lon="12.158522566629125"><ele>128.0</ele><time>2026-04-12T09:28:42Z</time></trkpt><trkpt lat="44.13763486368729" lon="12.158412861362228"><ele>128.0</ele><time>2026-04-12T09:28:43Z</time></trkpt><trkpt lat="44.13751521933358" lon="12.158295501639678"><ele>128.0</ele><time>2026-04-12T09:28:44Z</time></trkpt><trkpt lat="44.137384264322975" lon="12.158179495153725"><ele>128.0</ele><time>2026-04-12T09:28:45Z</time></trkpt><trkpt lat="44.13725571436382" lon="12.158054078212773"><ele>129.8</ele><time>2026-04-12T09:28:46Z</time></trkpt><trkpt lat="44.13713787159421" lon="12.157964895431732"><ele>131.60000000000002</ele><time>2026-04-12T09:28:47Z</time></trkpt><trkpt lat="44.1370486299814" lon="12.157893866283588"><ele>133.39999999999998</ele><time>2026-04-12T09:28:48Z</time></trkpt><trkpt lat="44.136964868073036" lon="12.157833930914546"><ele>135.2</ele><time>2026-04-12T09:28:49Z</time></trkpt><trkpt lat="44.136894715716956" lon="12.157778974231338"><ele>137.0</ele><time>2026-04-12T09:28:50Z</time></trkpt><trkpt lat="44.136821467476864" lon="12.157731613427268"><ele>137.0</ele><time>2026-04-12T09:28:51Z</time></trkpt><trkpt lat="44.13674731765977" lon="12.157699872529124"><ele>137.0</ele><time>2026-04-12T09:28:52Z</time></trkpt><trkpt lat="44.13664611046086" lon="12.157678860374544"><ele>137.0</ele><time>2026-04-12T09:28:53Z</time></trkpt><trkpt lat="44.136517908477494" lon="12.157671743092664"><ele>137.0</ele><time>2026-04-12T09:28:54Z</time></trkpt><trkpt lat="44.13635657502459" lon="12.157676115828105"><ele>140.66666666666666</ele><time>2026-04-12T09:28:55Z</time></trkpt><trkpt lat="44.136195924206206" lon="12.157690881726218"><ele>144.33333333333334</ele><time>2026-04-12T09:28:56Z</time></trkpt><trkpt lat="44.13602978243463" lon="12.15769940824725"><ele>148.0</ele><time>2026-04-12T09:28:57Z</time></trkpt><trkpt lat="44.135868670574794" lon="12.157684930129275"><ele>151.66666666666669</ele><time>2026-04-12T09:28:58Z</time></trkpt><trkpt lat="44.13570716400527" lon="12.157645218115825"><ele>155.33333333333334</ele><time>2026-04-12T09:28:59Z</time></trkpt><trkpt lat="44.13554312758544" lon="12.157556188711201"><ele>159.0</ele><time>2026-04-12T09:29:00Z</time></trkpt><trkpt lat="44.135384994123626" lon="12.157460383143516"><ele>159.25</ele><time>2026-04-12T09:29:01Z</time></trkpt><trkpt lat="44.13528598294678" lon="12.157360137899135"><ele>159.5</ele><time>2026-04-12T09:29:02Z</time></trkpt><trkpt lat="44.13522606276054" lon="12.157205988655425"><ele>159.75</ele><time>2026-04-12T09:29:03Z</time></trkpt><trkpt lat="44.135162092959774" lon="12.157049655925585"><ele>160.0</ele><time>2026-04-12T09:29:04Z</time></trkpt><trkpt lat="44.13506290671992" lon="12.156872062372972"><ele>160.0</ele><time>2026-04-12T09:29:05Z</time></trkpt><trkpt lat="44.13495152179697" lon="12.156722674778614"><ele>160.0</ele><time>2026-04-12T09:29:06Z</time></trkpt><trkpt lat="44.1348378919699" lon="12.156571096058858"><ele>160.0</ele><time>2026-04-12T09:29:07Z</time></trkpt><trkpt lat="44.13472030828825" lon="12.156445623635767"><ele>162.6</ele><time>2026-04-12T09:29:08Z</time></trkpt><trkpt lat="44.13462872192931" lon="12.156362251453245"><ele>165.2</ele><time>2026-04-12T09:29:09Z</time></trkpt><trkpt lat="44.13454098842383" lon="12.156282423551241"><ele>167.8</ele><time>2026-04-12T09:29:10Z</time></trkpt><trkpt lat="44.13445352164269" lon="12.15622666174171"><ele>170.4</ele><time>2026-04-12T09:29:11Z</time></trkpt><trkpt lat="44.134377397079064" lon="12.156180346212958"><ele>173.0</ele><time>2026-04-12T09:29:12Z</time></trkpt><trkpt lat="44.134287957043334" lon="12.156133197598052"><ele>173.0</ele><time>2026-04-12T09:29:14Z</time></trkpt><trkpt lat="44.13422745516857" lon="12.156083539216471"><ele>173.0</ele><time>2026-04-12T09:29:16Z</time></trkpt><trkpt lat="44.13413962344278" lon="12.156067765792525"><ele>173.0</ele><time>2026-04-12T09:29:21.999Z</time></trkpt><trkpt lat="44.134157082981226" lon="12.155925307830772"><ele>173.0</ele><time>2026-04-12T09:29:22.999Z</time></trkpt><trkpt lat="44.13411491676116" lon="12.155800641593904"><ele>173.0</ele><time>2026-04-12T09:29:23.999Z</time></trkpt><trkpt lat="44.13408610226154" lon="12.15571736562114"><ele>173.0</ele><time>2026-04-12T09:29:24.999Z</time></trkpt><trkpt lat="44.13405467055171" lon="12.155627451522111"><ele>171.5</ele><time>2026-04-12T09:29:25.999Z</time></trkpt><trkpt lat="44.13400807878001" lon="12.155494170298116"><ele>170.0</ele><time>2026-04-12T09:29:26.999Z</time></trkpt><trkpt lat="44.133953476269795" lon="12.1553433842857"><ele>168.5</ele><time>2026-04-12T09:29:27.999Z</time></trkpt><trkpt lat="44.133888441559364" lon="12.155198874002222"><ele>167.0</ele><time>2026-04-12T09:29:28.999Z</time></trkpt><trkpt lat="44.13383188193463" lon="12.155029098958465"><ele>170.66666666666666</ele><time>2026-04-12T09:29:29.999Z</time></trkpt><trkpt lat="44.133760313685826" lon="12.15483656823"><ele>174.33333333333334</ele><time>2026-04-12T09:29:30.999Z</time></trkpt><trkpt lat="44.13368356267341" lon="12.154619305371208"><ele>178.0</ele><time>2026-04-12T09:29:31.999Z</time></trkpt><trkpt lat="44.13361142725276" lon="12.154406439159738"><ele>178.0</ele><time>2026-04-12T09:29:32.999Z</time></trkpt><trkpt lat="44.1335320106457" lon="12.154178270314047"><ele>178.0</ele><time>2026-04-12T09:29:33.999Z</time></trkpt><trkpt lat="44.13347300208301" lon="12.153996476705817"><ele>178.0</ele><time>2026-04-12T09:29:34.999Z</time></trkpt><trkpt lat="44.1334177681294" lon="12.153827284021412"><ele>179.0</ele><time>2026-04-12T09:29:35.999Z</time></trkpt><trkpt lat="44.13335339195918" lon="12.153655851683014"><ele>180.0</ele><time>2026-04-12T09:29:36.999Z</time></trkpt><trkpt lat="44.133286601385784" lon="12.153472663163718"><ele>181.0</ele><time>2026-04-12T09:29:37.999Z</time></trkpt><trkpt lat="44.13322103982737" lon="12.153276470752944"><ele>182.0</ele><time>2026-04-12T09:29:38.999Z</time></trkpt><trkpt lat="44.13315833707642" lon="12.153083671178358"><ele>184.6</ele><time>2026-04-12T09:29:39.999Z</time></trkpt><trkpt lat="44.13309068915182" lon="12.152915002872628"><ele>187.2</ele><time>2026-04-12T09:29:40.999Z</time></trkpt><trkpt lat="44.13304212751905" lon="12.152781269737686"><ele>189.8</ele><time>2026-04-12T09:29:41.999Z</time></trkpt><trkpt lat="44.13300468490586" lon="12.152686906669105"><ele>192.4</ele><time>2026-04-12T09:29:42.999Z</time></trkpt><trkpt lat="44.13293543169631" lon="12.152634688063259"><ele>195.0</ele><time>2026-04-12T09:29:44.999Z</time></trkpt><trkpt lat="44.13283946508139" lon="12.152731911304546"><ele>195.0</ele><time>2026-04-12T09:29:46.999Z</time></trkpt><trkpt lat="44.132749330163286" lon="12.152782313952669"><ele>195.0</ele><time>2026-04-12T09:29:47.999Z</time></trkpt><trkpt lat="44.13266580783734" lon="12.152845345143463"><ele>195.0</ele><time>2026-04-12T09:29:48.999Z</time></trkpt><trkpt lat="44.132557927014595" lon="12.152945328400993"><ele>195.0</ele><time>2026-04-12T09:29:49.999Z</time></trkpt><trkpt lat="44.132465977714" lon="12.15301221548339"><ele>195.0</ele><time>2026-04-12T09:29:50.999Z</time></trkpt><trkpt lat="44.13239548295381" lon="12.153058999297423"><ele>194.0</ele><time>2026-04-12T09:29:51.999Z</time></trkpt><trkpt lat="44.13229102729028" lon="12.153127010702981"><ele>193.0</ele><time>2026-04-12T09:29:52.999Z</time></trkpt><trkpt lat="44.132186905426344" lon="12.15317570050972"><ele>192.0</ele><time>2026-04-12T09:29:53.999Z</time></trkpt><trkpt lat="44.132098053274156" lon="12.15322410668077"><ele>191.0</ele><time>2026-04-12T09:29:54.999Z</time></trkpt><trkpt lat="44.132029547089026" lon="12.15327689758595"><ele>190.0</ele><time>2026-04-12T09:29:55.999Z</time></trkpt><trkpt lat="44.131964022386015" lon="12.153311061625644"><ele>190.0</ele><time>2026-04-12T09:29:56.999Z</time></trkpt><trkpt lat="44.131855471233436" lon="12.15336424796619"><ele>190.0</ele><time>2026-04-12T09:29:58.999Z</time></trkpt><trkpt lat="44.13178126318317" lon="12.15339795004766"><ele>190.0</ele><time>2026-04-12T09:30:24.999Z</time></trkpt><trkpt lat="44.13171262480009" lon="12.153408221963462"><ele>190.0</ele><time>2026-04-12T09:30:25.999Z</time></trkpt><trkpt lat="44.13163607746967" lon="12.153428619686396"><ele>190.0</ele><time>2026-04-12T09:30:26.999Z</time></trkpt><trkpt lat="44.13150901607377" lon="12.153458249570058"><ele>188.0</ele><time>2026-04-12T09:30:27.999Z</time></trkpt><trkpt lat="44.1314102713798" lon="12.153480967755348"><ele>186.0</ele><time>2026-04-12T09:30:28.999Z</time></trkpt><trkpt lat="44.131286922780056" lon="12.15353092203505"><ele>184.0</ele><time>2026-04-12T09:30:29.999Z</time></trkpt><trkpt lat="44.13116648125901" lon="12.153551341723347"><ele>182.0</ele><time>2026-04-12T09:30:30.999Z</time></trkpt><trkpt lat="44.13104876303014" lon="12.153571277101403"><ele>182.0</ele><time>2026-04-12T09:30:31.999Z</time></trkpt><trkpt lat="44.130952554823324" lon="12.153555783064526"><ele>182.0</ele><time>2026-04-12T09:30:32.999Z</time></trkpt><trkpt lat="44.13087951932755" lon="12.153559725196336"><ele>182.0</ele><time>2026-04-12T09:30:33.999Z</time></trkpt><trkpt lat="44.13082259278765" lon="12.153515042169873"><ele>182.0</ele><time>2026-04-12T09:30:34.998Z</time></trkpt><trkpt lat="44.13071922705387" lon="12.153582093292549"><ele>182.0</ele><time>2026-04-12T09:30:37Z</time></trkpt><trkpt lat="44.1306298068306" lon="12.153732691664873"><ele>179.16666666666666</ele><time>2026-04-12T09:30:39Z</time></trkpt><trkpt lat="44.13058698858805" lon="12.153800158385936"><ele>176.33333333333331</ele><time>2026-04-12T09:30:40Z</time></trkpt><trkpt lat="44.13054302638848" lon="12.153871494880276"><ele>173.5</ele><time>2026-04-12T09:30:41Z</time></trkpt><trkpt lat="44.13045112579471" lon="12.153972925870242"><ele>170.66666666666666</ele><time>2026-04-12T09:30:43Z</time></trkpt><trkpt lat="44.13038211955392" lon="12.153998006839682"><ele>167.83333333333334</ele><time>2026-04-12T09:30:44Z</time></trkpt><trkpt lat="44.13025612114217" lon="12.153962655805149"><ele>165.0</ele><time>2026-04-12T09:30:46Z</time></trkpt><trkpt lat="44.130183885045625" lon="12.153956658507216"><ele>165.0</ele><time>2026-04-12T09:30:47Z</time></trkpt><trkpt lat="44.130119370310844" lon="12.153960625850953"><ele>165.0</ele><time>2026-04-12T09:30:48Z</time></trkpt><trkpt lat="44.13004565472194" lon="12.153968610906809"><ele>165.0</ele><time>2026-04-12T09:30:50Z</time></trkpt><trkpt lat="44.12995861293861" lon="12.154033124551363"><ele>165.0</ele><time>2026-04-12T09:30:52Z</time></trkpt><trkpt lat="44.129918414200354" lon="12.15417933734112"><ele>165.0</ele><time>2026-04-12T09:30:54Z</time></trkpt><trkpt lat="44.12987212514076" lon="12.154253952713642"><ele>165.0</ele><time>2026-04-12T09:30:55Z</time></trkpt><trkpt lat="44.12999247358819" lon="12.154332173054431"><ele>164.75</ele><time>2026-04-12T09:30:56Z</time></trkpt><trkpt lat="44.129963073928124" lon="12.154508895633821"><ele>164.5</ele><time>2026-04-12T09:30:58Z</time></trkpt><trkpt lat="44.12994190508873" lon="12.154607255959455"><ele>164.25</ele><time>2026-04-12T09:30:59Z</time></trkpt><trkpt lat="44.12993534234452" lon="12.154712156271739"><ele>164.0</ele><time>2026-04-12T09:31:00Z</time></trkpt><trkpt lat="44.129587804088" lon="12.154726439323328"><ele>161.16666666666666</ele><time>2026-04-12T09:31:01Z</time></trkpt><trkpt lat="44.129551587787205" lon="12.154848870619773"><ele>158.33333333333331</ele><time>2026-04-12T09:31:02Z</time></trkpt><trkpt lat="44.129528081186365" lon="12.154962710897344"><ele>155.5</ele><time>2026-04-12T09:31:03Z</time></trkpt><trkpt lat="44.1295090343265" lon="12.15504772822078"><ele>152.66666666666666</ele><time>2026-04-12T09:31:04Z</time></trkpt><trkpt lat="44.12947725824967" lon="12.155225490245929"><ele>149.83333333333334</ele><time>2026-04-12T09:31:06Z</time></trkpt><trkpt lat="44.12945663559293" lon="12.155319368739244"><ele>147.0</ele><time>2026-04-12T09:31:07Z</time></trkpt><trkpt lat="44.12943399866451" lon="12.155402215390884"><ele>147.0</ele><time>2026-04-12T09:31:08Z</time></trkpt><trkpt lat="44.12937807456593" lon="12.155560084873294"><ele>147.0</ele><time>2026-04-12T09:31:10Z</time></trkpt><trkpt lat="44.12932827210499" lon="12.15564101441426"><ele>147.0</ele><time>2026-04-12T09:31:11Z</time></trkpt><trkpt lat="44.129265719746876" lon="12.155724856453164"><ele>147.0</ele><time>2026-04-12T09:31:12Z</time></trkpt><trkpt lat="44.129183587254126" lon="12.155821208908534"><ele>147.0</ele><time>2026-04-12T09:31:13Z</time></trkpt><trkpt lat="44.12910384103792" lon="12.15588808978944"><ele>142.79999999999998</ele><time>2026-04-12T09:31:14Z</time></trkpt><trkpt lat="44.12903335462078" lon="12.155976815056672"><ele>138.6</ele><time>2026-04-12T09:31:15Z</time></trkpt><trkpt lat="44.12897762983486" lon="12.156056522186043"><ele>134.39999999999998</ele><time>2026-04-12T09:31:16Z</time></trkpt><trkpt lat="44.128909333071896" lon="12.156153135864756"><ele>130.2</ele><time>2026-04-12T09:31:17Z</time></trkpt><trkpt lat="44.128839013778126" lon="12.156250459668323"><ele>126.0</ele><time>2026-04-12T09:31:18Z</time></trkpt><trkpt lat="44.12876245292969" lon="12.156347986610706"><ele>126.0</ele><time>2026-04-12T09:31:19Z</time></trkpt><trkpt lat="44.128683193626244" lon="12.156438972060995"><ele>126.0</ele><time>2026-04-12T09:31:20Z</time></trkpt><trkpt lat="44.12862786295053" lon="12.15651544351791"><ele>126.0</ele><time>2026-04-12T09:31:21Z</time></trkpt><trkpt lat="44.12856088554213" lon="12.156598991699584"><ele>126.0</ele><time>2026-04-12T09:31:22Z</time></trkpt><trkpt lat="44.12850313551759" lon="12.156641206765286"><ele>126.0</ele><time>2026-04-12T09:31:22.999Z</time></trkpt><trkpt lat="44.12842660586849" lon="12.156679505512663"><ele>126.0</ele><time>2026-04-12T09:31:23.999Z</time></trkpt><trkpt lat="44.12833685593929" lon="12.15677912782705"><ele>125.16666666666667</ele><time>2026-04-12T09:31:25.999Z</time></trkpt><trkpt lat="44.12828611853131" lon="12.156905585178727"><ele>124.33333333333334</ele><time>2026-04-12T09:31:26.999Z</time></trkpt><trkpt lat="44.1282511131835" lon="12.157007934643426"><ele>123.5</ele><time>2026-04-12T09:31:27.999Z</time></trkpt><trkpt lat="44.1282126961397" lon="12.15708796748673"><ele>122.66666666666667</ele><time>2026-04-12T09:31:28.999Z</time></trkpt><trkpt lat="44.12816711683016" lon="12.157165169406728"><ele>121.83333333333334</ele><time>2026-04-12T09:31:31.999Z</time></trkpt><trkpt lat="44.128231618975" lon="12.157080732325491"><ele>121.0</ele><time>2026-04-12T09:31:38.999Z</time></trkpt><trkpt lat="44.128259192723306" lon="12.156999660419677"><ele>121.0</ele><time>2026-04-12T09:31:39.999Z</time></trkpt><trkpt lat="44.128303840540326" lon="12.156896838067553"><ele>121.0</ele><time>2026-04-12T09:31:40.999Z</time></trkpt><trkpt lat="44.12837153475719" lon="12.156812135741424"><ele>121.0</ele><time>2026-04-12T09:31:42.999Z</time></trkpt><trkpt lat="44.12844367639437" lon="12.156858042663128"><ele>121.0</ele><time>2026-04-12T09:32:04.999Z</time></trkpt><trkpt lat="44.128560688896286" lon="12.156934802681818"><ele>121.0</ele><time>2026-04-12T09:32:06.999Z</time></trkpt><trkpt lat="44.128627917323705" lon="12.156975223837444"><ele>121.00000000000001</ele><time>2026-04-12T09:32:07.999Z</time></trkpt><trkpt lat="44.12869994794927" lon="12.15701870091121"><ele>121.0</ele><time>2026-04-12T09:32:08.999Z</time></trkpt><trkpt lat="44.12875851157" lon="12.157066583993236"><ele>121.0</ele><time>2026-04-12T09:32:09.999Z</time></trkpt><trkpt lat="44.12882302612619" lon="12.157106332147393"><ele>121.0</ele><time>2026-04-12T09:32:10.999Z</time></trkpt><trkpt lat="44.12890249573374" lon="12.157159055782468"><ele>121.00000000000001</ele><time>2026-04-12T09:32:11.999Z</time></trkpt><trkpt lat="44.129009488460504" lon="12.15722711220317"><ele>121.0</ele><time>2026-04-12T09:32:13.999Z</time></trkpt><trkpt lat="44.12908628852824" lon="12.157288135584203"><ele>121.83333333333334</ele><time>2026-04-12T09:32:14.999Z</time></trkpt><trkpt lat="44.129165004947794" lon="12.15734326574707"><ele>122.66666666666667</ele><time>2026-04-12T09:32:15.999Z</time></trkpt><trkpt lat="44.1292252105356" lon="12.157388684354753"><ele>123.5</ele><time>2026-04-12T09:32:16.999Z</time></trkpt><trkpt lat="44.129305988193835" lon="12.157436091131622"><ele>124.33333333333334</ele><time>2026-04-12T09:32:17.999Z</time></trkpt><trkpt lat="44.12939651182598" lon="12.157487652448282"><ele>125.16666666666667</ele><time>2026-04-12T09:32:18.999Z</time></trkpt><trkpt lat="44.12946289739647" lon="12.157556835735548"><ele>126.0</ele><time>2026-04-12T09:32:19.999Z</time></trkpt><trkpt lat="44.12952862789557" lon="12.15761523569549"><ele>123.83333333333333</ele><time>2026-04-12T09:32:21.999Z</time></trkpt><trkpt lat="44.12962787867615" lon="12.157671215695828"><ele>121.66666666666666</ele><time>2026-04-12T09:32:23.999Z</time></trkpt><trkpt lat="44.129698224617805" lon="12.157692801809498"><ele>119.5</ele><time>2026-04-12T09:32:25.999Z</time></trkpt><trkpt lat="44.129747721331995" lon="12.157781755868296"><ele>117.33333333333333</ele><time>2026-04-12T09:32:28.999Z</time></trkpt><trkpt lat="44.129767445165236" lon="12.157869079819957"><ele>115.16666666666666</ele><time>2026-04-12T09:32:29.999Z</time></trkpt><trkpt lat="44.129773838256604" lon="12.157966078773752"><ele>113.0</ele><time>2026-04-12T09:32:30.999Z</time></trkpt><trkpt lat="44.12973096883872" lon="12.158051213730134"><ele>113.0</ele><time>2026-04-12T09:32:32.999Z</time></trkpt><trkpt lat="44.12960966318941" lon="12.158123245108705"><ele>113.00000000000001</ele><time>2026-04-12T09:32:34.999Z</time></trkpt><trkpt lat="44.129524871494205" lon="12.15815933576892"><ele>113.00000000000001</ele><time>2026-04-12T09:32:35.999Z</time></trkpt><trkpt lat="44.129416552437675" lon="12.158230455438698"><ele>113.0</ele><time>2026-04-12T09:32:36.999Z</time></trkpt><trkpt lat="44.129355493914034" lon="12.158307777895383"><ele>113.0</ele><time>2026-04-12T09:32:37.999Z</time></trkpt><trkpt lat="44.1292427077738" lon="12.158418012161448"><ele>111.99999999999999</ele><time>2026-04-12T09:32:39.999Z</time></trkpt><trkpt lat="44.129178346336055" lon="12.158457376739483"><ele>111.0</ele><time>2026-04-12T09:32:40.998Z</time></trkpt><trkpt lat="44.129119185502546" lon="12.158493517251078"><ele>110.0</ele><time>2026-04-12T09:32:42Z</time></trkpt><trkpt lat="44.1290266765244" lon="12.158508744170511"><ele>109.0</ele><time>2026-04-12T09:32:44Z</time></trkpt><trkpt lat="44.12893928612741" lon="12.158564406371763"><ele>107.99999999999999</ele><time>2026-04-12T09:32:46Z</time></trkpt><trkpt lat="44.12884304248289" lon="12.158610040190426"><ele>107.0</ele><time>2026-04-12T09:32:48Z</time></trkpt><trkpt lat="44.128747001155396" lon="12.158636868862729"><ele>106.39999999999999</ele><time>2026-04-12T09:32:50Z</time></trkpt><trkpt lat="44.12866451338124" lon="12.158645916901367"><ele>105.79999999999998</ele><time>2026-04-12T09:32:51Z</time></trkpt><trkpt lat="44.12856471244159" lon="12.158651535479661"><ele>105.2</ele><time>2026-04-12T09:32:52Z</time></trkpt><trkpt lat="44.128466846409616" lon="12.158651665080912"><ele>104.6</ele><time>2026-04-12T09:32:53Z</time></trkpt><trkpt lat="44.128372943560606" lon="12.158630938228864"><ele>104.0</ele><time>2026-04-12T09:32:54Z</time></trkpt><trkpt lat="44.12827739998186" lon="12.158631259716756"><ele>102.4</ele><time>2026-04-12T09:32:55Z</time></trkpt><trkpt lat="44.12816517565835" lon="12.158708026596909"><ele>100.80000000000001</ele><time>2026-04-12T09:32:57Z</time></trkpt><trkpt lat="44.128100943735355" lon="12.158735677797907"><ele>99.19999999999999</ele><time>2026-04-12T09:32:58Z</time></trkpt><trkpt lat="44.12803828971331" lon="12.158748679623795"><ele>97.6</ele><time>2026-04-12T09:32:59Z</time></trkpt><trkpt lat="44.12792175186947" lon="12.158738920472214"><ele>96.0</ele><time>2026-04-12T09:33:01Z</time></trkpt><trkpt lat="44.12780269890909" lon="12.15872222880248"><ele>96.0</ele><time>2026-04-12T09:33:03Z</time></trkpt><trkpt lat="44.12773659130947" lon="12.158686648887368"><ele>96.0</ele><time>2026-04-12T09:33:04Z</time></trkpt><trkpt lat="44.12765209199656" lon="12.158673407788944"><ele>96.0</ele><time>2026-04-12T09:33:05Z</time></trkpt><trkpt lat="44.127538892172325" lon="12.158676449053988"><ele>96.0</ele><time>2026-04-12T09:33:07Z</time></trkpt><trkpt lat="44.12755007640569" lon="12.158574134447711"><ele>96.0</ele><time>2026-04-12T09:33:31Z</time></trkpt><trkpt lat="44.12768358617013" lon="12.158614039186315"><ele>96.0</ele><time>2026-04-12T09:33:35Z</time></trkpt><trkpt lat="44.12773759697433" lon="12.158672053692333"><ele>96.0</ele><time>2026-04-12T09:33:37Z</time></trkpt><trkpt lat="44.12779114341306" lon="12.158724743443234"><ele>96.0</ele><time>2026-04-12T09:33:39Z</time></trkpt><trkpt lat="44.127882902441" lon="12.158746032772035"><ele>96.0</ele><time>2026-04-12T09:33:40.999Z</time></trkpt><trkpt lat="44.12800428582217" lon="12.158765930509054"><ele>96.0</ele><time>2026-04-12T09:33:42.999Z</time></trkpt><trkpt lat="44.12809849425441" lon="12.158738722205511"><ele>96.0</ele><time>2026-04-12T09:33:44.999Z</time></trkpt><trkpt lat="44.12818219980762" lon="12.158703059503368"><ele>97.6</ele><time>2026-04-12T09:33:46.999Z</time></trkpt><trkpt lat="44.128289934983854" lon="12.1586477518207"><ele>99.19999999999999</ele><time>2026-04-12T09:33:48.999Z</time></trkpt><trkpt lat="44.128373329500185" lon="12.158661107975433"><ele>100.80000000000001</ele><time>2026-04-12T09:33:51.999Z</time></trkpt><trkpt lat="44.12844045992062" lon="12.158654257313778"><ele>102.4</ele><time>2026-04-12T09:33:57.999Z</time></trkpt><trkpt lat="44.1285437633897" lon="12.158647859850099"><ele>104.0</ele><time>2026-04-12T09:33:59.999Z</time></trkpt><trkpt lat="44.12862703700443" lon="12.158659264428774"><ele>103.99999999999999</ele><time>2026-04-12T09:34:01.999Z</time></trkpt><trkpt lat="44.128715960070714" lon="12.158634468999596"><ele>104.0</ele><time>2026-04-12T09:34:03.999Z</time></trkpt><trkpt lat="44.128802328933936" lon="12.158603678729204"><ele>104.0</ele><time>2026-04-12T09:34:05.999Z</time></trkpt><trkpt lat="44.12888999735873" lon="12.15855755913679"><ele>104.0</ele><time>2026-04-12T09:34:07.999Z</time></trkpt><trkpt lat="44.12880338872629" lon="12.15856161542573"><ele>103.99999999999999</ele><time>2026-04-12T09:35:22Z</time></trkpt><trkpt lat="44.128739829816844" lon="12.158637180572393"><ele>104.0</ele><time>2026-04-12T09:35:24Z</time></trkpt><trkpt lat="44.128654664188986" lon="12.158650925850123"><ele>104.0</ele><time>2026-04-12T09:35:26Z</time></trkpt><trkpt lat="44.128564735097875" lon="12.158659690444857"><ele>104.0</ele><time>2026-04-12T09:35:28Z</time></trkpt><trkpt lat="44.12849942216406" lon="12.158656469770264"><ele>104.0</ele><time>2026-04-12T09:35:29Z</time></trkpt><trkpt lat="44.12838305314182" lon="12.158652132979194"><ele>104.0</ele><time>2026-04-12T09:35:31Z</time></trkpt><trkpt lat="44.12825173475141" lon="12.15864370722986"><ele>104.0</ele><time>2026-04-12T09:35:33Z</time></trkpt><trkpt lat="44.1281970756117" lon="12.158696007121243"><ele>103.99999999999999</ele><time>2026-04-12T09:35:35Z</time></trkpt><trkpt lat="44.128137976969036" lon="12.158752889938786"><ele>104.0</ele><time>2026-04-12T09:35:38Z</time></trkpt><trkpt lat="44.12818749669137" lon="12.158679164589199"><ele>104.0</ele><time>2026-04-12T09:44:44.999Z</time></trkpt><trkpt lat="44.12828673973029" lon="12.158675270531939"><ele>104.0</ele><time>2026-04-12T09:44:46.999Z</time></trkpt><trkpt lat="44.12839306728617" lon="12.158649380090006"><ele>103.99999999999999</ele><time>2026-04-12T09:44:49.999Z</time></trkpt><trkpt lat="44.12848534835945" lon="12.15864763695946"><ele>104.0</ele><time>2026-04-12T09:44:51.999Z</time></trkpt><trkpt lat="44.1286000949044" lon="12.15864338518544"><ele>104.0</ele><time>2026-04-12T09:44:53.999Z</time></trkpt><trkpt lat="44.128692904123795" lon="12.15864037737201"><ele>104.0</ele><time>2026-04-12T09:44:55.999Z</time></trkpt><trkpt lat="44.128805440161536" lon="12.15862560498877"><ele>104.0</ele><time>2026-04-12T09:44:57.999Z</time></trkpt><trkpt lat="44.128890757155" lon="12.158553575030751"><ele>104.0</ele><time>2026-04-12T09:44:59.999Z</time></trkpt><trkpt lat="44.12897272809701" lon="12.158458622997662"><ele>104.0</ele><time>2026-04-12T09:45:01.999Z</time></trkpt><trkpt lat="44.12904017796758" lon="12.158407383320151"><ele>104.49999999999999</ele><time>2026-04-12T09:45:03.998Z</time></trkpt><trkpt lat="44.1291260020738" lon="12.158434680401312"><ele>105.0</ele><time>2026-04-12T09:45:04.998Z</time></trkpt><trkpt lat="44.12919308574807" lon="12.158461741082867"><ele>105.5</ele><time>2026-04-12T09:45:06.998Z</time></trkpt><trkpt lat="44.1292674793645" lon="12.158427600830917"><ele>106.0</ele><time>2026-04-12T09:45:08.998Z</time></trkpt><trkpt lat="44.12934807764661" lon="12.158333253287472"><ele>106.49999999999999</ele><time>2026-04-12T09:45:10.998Z</time></trkpt><trkpt lat="44.12939581177615" lon="12.15827324610231"><ele>107.0</ele><time>2026-04-12T09:45:11.998Z</time></trkpt><trkpt lat="44.12949121634367" lon="12.158181626337788"><ele>107.85714285714286</ele><time>2026-04-12T09:45:13.998Z</time></trkpt><trkpt lat="44.12954819797654" lon="12.158138040720807"><ele>108.71428571428572</ele><time>2026-04-12T09:45:14.998Z</time></trkpt><trkpt lat="44.12960817396159" lon="12.158110207224668"><ele>109.57142857142858</ele><time>2026-04-12T09:45:15.998Z</time></trkpt><trkpt lat="44.129668672903705" lon="12.158084644554746"><ele>110.42857142857143</ele><time>2026-04-12T09:45:16.998Z</time></trkpt><trkpt lat="44.12973184911155" lon="12.15804245959688"><ele>111.28571428571428</ele><time>2026-04-12T09:45:19Z</time></trkpt><trkpt lat="44.12978121433065" lon="12.157968889485025"><ele>112.14285714285715</ele><time>2026-04-12T09:45:23Z</time></trkpt><trkpt lat="44.12976229475817" lon="12.157866750749832"><ele>113.0</ele><time>2026-04-12T09:45:38Z</time></trkpt><trkpt lat="44.12974507018825" lon="12.157779662935319"><ele>112.99999999999999</ele><time>2026-04-12T09:45:39Z</time></trkpt><trkpt lat="44.12972065799684" lon="12.157694175461202"><ele>113.0</ele><time>2026-04-12T09:45:40Z</time></trkpt><trkpt lat="44.12966680049785" lon="12.157619039839306"><ele>113.0</ele><time>2026-04-12T09:45:42Z</time></trkpt><trkpt lat="44.12956606588266" lon="12.157598771945331"><ele>113.0</ele><time>2026-04-12T09:45:44Z</time></trkpt><trkpt lat="44.12948398352301" lon="12.157570579173342"><ele>112.99999999999999</ele><time>2026-04-12T09:45:47Z</time></trkpt><trkpt lat="44.12942147916864" lon="12.157527991659016"><ele>113.0</ele><time>2026-04-12T09:45:49Z</time></trkpt><trkpt lat="44.1293526818301" lon="12.157446542055988"><ele>112.99999999999999</ele><time>2026-04-12T09:45:51Z</time></trkpt><trkpt lat="44.12926570263631" lon="12.157402967251874"><ele>113.0</ele><time>2026-04-12T09:45:53Z</time></trkpt><trkpt lat="44.12918691843688" lon="12.157365510316895"><ele>113.0</ele><time>2026-04-12T09:45:53.999Z</time></trkpt><trkpt lat="44.12909426664451" lon="12.157301259612789"><ele>113.0</ele><time>2026-04-12T09:45:55.999Z</time></trkpt><trkpt lat="44.12903046018329" lon="12.157250004004625"><ele>112.99999999999999</ele><time>2026-04-12T09:45:56.999Z</time></trkpt><trkpt lat="44.12896864443904" lon="12.15720373480195"><ele>113.0</ele><time>2026-04-12T09:45:57.999Z</time></trkpt><trkpt lat="44.12885840013584" lon="12.157139125802487"><ele>114.33333333333333</ele><time>2026-04-12T09:45:59.999Z</time></trkpt><trkpt lat="44.128799453374235" lon="12.157102863694707"><ele>115.66666666666666</ele><time>2026-04-12T09:46:00.999Z</time></trkpt><trkpt lat="44.12873014338907" lon="12.15703668528014"><ele>117.0</ele><time>2026-04-12T09:46:01.999Z</time></trkpt><trkpt lat="44.128666300196144" lon="12.156977108110247"><ele>118.33333333333334</ele><time>2026-04-12T09:46:02.999Z</time></trkpt><trkpt lat="44.12858232271443" lon="12.156962356518852"><ele>119.66666666666667</ele><time>2026-04-12T09:46:03.999Z</time></trkpt><trkpt lat="44.128506155090406" lon="12.156928312889066"><ele>121.0</ele><time>2026-04-12T09:46:04.999Z</time></trkpt><trkpt lat="44.12843906152831" lon="12.1568872689475"><ele>121.00000000000001</ele><time>2026-04-12T09:46:05.999Z</time></trkpt><trkpt lat="44.12835028940078" lon="12.15682631520115"><ele>121.0</ele><time>2026-04-12T09:46:07.999Z</time></trkpt><trkpt lat="44.128356203491585" lon="12.156728509229831"><ele>121.0</ele><time>2026-04-12T09:46:09.999Z</time></trkpt><trkpt lat="44.12842630431818" lon="12.156659842272319"><ele>121.0</ele><time>2026-04-12T09:46:11.999Z</time></trkpt><trkpt lat="44.128498604153705" lon="12.156695963150366"><ele>121.00000000000001</ele><time>2026-04-12T09:46:13.999Z</time></trkpt><trkpt lat="44.12854706607475" lon="12.156753897924881"><ele>121.0</ele><time>2026-04-12T09:46:14.999Z</time></trkpt><trkpt lat="44.12860707451002" lon="12.156814181228025"><ele>121.00000000000001</ele><time>2026-04-12T09:46:15.999Z</time></trkpt><trkpt lat="44.1287052025603" lon="12.156871382814975"><ele>121.0</ele><time>2026-04-12T09:46:17.999Z</time></trkpt><trkpt lat="44.12877408868273" lon="12.156896371828875"><ele>121.0</ele><time>2026-04-12T09:46:18.999Z</time></trkpt><trkpt lat="44.12884008190431" lon="12.156927624267954"><ele>121.0</ele><time>2026-04-12T09:46:19.999Z</time></trkpt><trkpt lat="44.128903712639044" lon="12.156963431803865"><ele>121.00000000000001</ele><time>2026-04-12T09:46:20.999Z</time></trkpt><trkpt lat="44.12895669679384" lon="12.157013541430981"><ele>121.0</ele><time>2026-04-12T09:46:21.999Z</time></trkpt><trkpt lat="44.129028522759505" lon="12.157082209444704"><ele>121.83333333333334</ele><time>2026-04-12T09:46:22.999Z</time></trkpt><trkpt lat="44.12910158780122" lon="12.15714002832218"><ele>122.66666666666667</ele><time>2026-04-12T09:46:23.999Z</time></trkpt><trkpt lat="44.12916391880513" lon="12.157182575396364"><ele>123.5</ele><time>2026-04-12T09:46:24.999Z</time></trkpt><trkpt lat="44.12922792628462" lon="12.15722674499438"><ele>124.33333333333334</ele><time>2026-04-12T09:46:25.999Z</time></trkpt><trkpt lat="44.1292943494652" lon="12.157267555257944"><ele>125.16666666666667</ele><time>2026-04-12T09:46:26.999Z</time></trkpt><trkpt lat="44.129395228591775" lon="12.157342396138175"><ele>126.0</ele><time>2026-04-12T09:46:28.999Z</time></trkpt><trkpt lat="44.12947840173931" lon="12.157332922530085"><ele>123.4</ele><time>2026-04-12T09:46:30.999Z</time></trkpt><trkpt lat="44.12951315947084" lon="12.157415301534401"><ele>120.8</ele><time>2026-04-12T09:48:19.999Z</time></trkpt><trkpt lat="44.12964218781248" lon="12.157465792880654"><ele>118.20000000000002</ele><time>2026-04-12T09:49:15.998Z</time></trkpt><trkpt lat="44.129716068941164" lon="12.157502397702988"><ele>115.60000000000001</ele><time>2026-04-12T09:49:16.998Z</time></trkpt><trkpt lat="44.129807443941374" lon="12.157558950467212"><ele>113.0</ele><time>2026-04-12T09:49:18.998Z</time></trkpt><trkpt lat="44.12985154616376" lon="12.157633132834956"><ele>113.66666666666666</ele><time>2026-04-12T09:49:20.998Z</time></trkpt><trkpt lat="44.12990080277605" lon="12.15775204805813"><ele>114.33333333333333</ele><time>2026-04-12T09:49:22.998Z</time></trkpt><trkpt lat="44.12995866884159" lon="12.157854092170094"><ele>115.0</ele><time>2026-04-12T09:49:24.998Z</time></trkpt><trkpt lat="44.13002453977731" lon="12.157879449729476"><ele>115.66666666666666</ele><time>2026-04-12T09:49:26.998Z</time></trkpt><trkpt lat="44.13011171751194" lon="12.157886969067228"><ele>116.33333333333333</ele><time>2026-04-12T09:49:30Z</time></trkpt><trkpt lat="44.130169635934585" lon="12.157921892185032"><ele>117.0</ele><time>2026-04-12T09:49:34Z</time></trkpt><trkpt lat="44.13030817447668" lon="12.157955387315072"><ele>117.0</ele><time>2026-04-12T09:49:36Z</time></trkpt><trkpt lat="44.13037742029125" lon="12.15798201198621"><ele>117.0</ele><time>2026-04-12T09:49:37Z</time></trkpt><trkpt lat="44.13045292935324" lon="12.15800493986457"><ele>117.0</ele><time>2026-04-12T09:49:38Z</time></trkpt><trkpt lat="44.130528662670486" lon="12.15801533592441"><ele>117.0</ele><time>2026-04-12T09:49:39Z</time></trkpt><trkpt lat="44.13060224342485" lon="12.158019747302658"><ele>117.0</ele><time>2026-04-12T09:49:40Z</time></trkpt><trkpt lat="44.13068981570572" lon="12.158027371918038"><ele>117.0</ele><time>2026-04-12T09:49:41Z</time></trkpt><trkpt lat="44.130782333993494" lon="12.158042982589283"><ele>118.0</ele><time>2026-04-12T09:49:42Z</time></trkpt><trkpt lat="44.130880691056106" lon="12.158034047635873"><ele>119.0</ele><time>2026-04-12T09:49:43Z</time></trkpt><trkpt lat="44.130958606670845" lon="12.158013221150258"><ele>120.0</ele><time>2026-04-12T09:49:44Z</time></trkpt><trkpt lat="44.131037025705865" lon="12.157995078027657"><ele>121.0</ele><time>2026-04-12T09:49:46Z</time></trkpt><trkpt lat="44.1309485726681" lon="12.158011259909808"><ele>122.0</ele><time>2026-04-12T09:49:57Z</time></trkpt><trkpt lat="44.13087835707484" lon="12.158036960958798"><ele>123.0</ele><time>2026-04-12T09:49:59Z</time></trkpt><trkpt lat="44.13078043069481" lon="12.158034089203978"><ele>121.80000000000001</ele><time>2026-04-12T09:50:04Z</time></trkpt><trkpt lat="44.13070936091296" lon="12.158027490963072"><ele>120.60000000000001</ele><time>2026-04-12T09:50:05Z</time></trkpt><trkpt lat="44.13061847184938" lon="12.158023519935579"><ele>119.39999999999999</ele><time>2026-04-12T09:50:06Z</time></trkpt><trkpt lat="44.130553392154496" lon="12.158017138912863"><ele>118.19999999999999</ele><time>2026-04-12T09:50:07Z</time></trkpt><trkpt lat="44.13043665883198" lon="12.15799998048845"><ele>117.0</ele><time>2026-04-12T09:50:09Z</time></trkpt><trkpt lat="44.13030529513648" lon="12.157965319781955"><ele>117.0</ele><time>2026-04-12T09:50:10.999Z</time></trkpt><trkpt lat="44.13023616624781" lon="12.157938711084485"><ele>117.00000000000001</ele><time>2026-04-12T09:50:12.999Z</time></trkpt><trkpt lat="44.13016814932461" lon="12.157919613057741"><ele>117.0</ele><time>2026-04-12T09:50:14.999Z</time></trkpt><trkpt lat="44.1301067215309" lon="12.157894784002856"><ele>117.0</ele><time>2026-04-12T09:50:16.999Z</time></trkpt><trkpt lat="44.13003400860988" lon="12.157871765373672"><ele>117.00000000000001</ele><time>2026-04-12T09:50:18.999Z</time></trkpt><trkpt lat="44.1299680622313" lon="12.157853081744866"><ele>117.0</ele><time>2026-04-12T09:50:20.999Z</time></trkpt><trkpt lat="44.12989877855828" lon="12.157778619204837"><ele>117.0</ele><time>2026-04-12T09:50:49.999Z</time></trkpt><trkpt lat="44.129860825110995" lon="12.157647099827967"><ele>116.19999999999999</ele><time>2026-04-12T09:50:51.999Z</time></trkpt><trkpt lat="44.12980051281556" lon="12.157560733326108"><ele>115.39999999999999</ele><time>2026-04-12T09:50:53.999Z</time></trkpt><trkpt lat="44.129683621526475" lon="12.157487577853948"><ele>114.60000000000001</ele><time>2026-04-12T09:50:55.999Z</time></trkpt><trkpt lat="44.12960003005537" lon="12.157444929361112"><ele>113.80000000000001</ele><time>2026-04-12T09:50:56.999Z</time></trkpt><trkpt lat="44.12951900996397" lon="12.1573938895355"><ele>113.0</ele><time>2026-04-12T09:50:58.999Z</time></trkpt><trkpt lat="44.12950201935658" lon="12.1573074682555"><ele>115.16666666666666</ele><time>2026-04-12T09:51:15.999Z</time></trkpt><trkpt lat="44.12942892438289" lon="12.157245537339238"><ele>117.33333333333333</ele><time>2026-04-12T09:52:29.999Z</time></trkpt><trkpt lat="44.12937962076609" lon="12.157304177156242"><ele>119.5</ele><time>2026-04-12T09:54:30Z</time></trkpt><trkpt lat="44.12928210578888" lon="12.157269856374349"><ele>121.66666666666666</ele><time>2026-04-12T09:54:31.999Z</time></trkpt><trkpt lat="44.129188798982035" lon="12.157185930867728"><ele>123.83333333333333</ele><time>2026-04-12T09:54:33.999Z</time></trkpt><trkpt lat="44.12913619487344" lon="12.15713388230391"><ele>126.0</ele><time>2026-04-12T09:54:34.999Z</time></trkpt><trkpt lat="44.12907082754838" lon="12.15708137812753"><ele>125.0</ele><time>2026-04-12T09:54:35.999Z</time></trkpt><trkpt lat="44.12897249124112" lon="12.157026534932665"><ele>124.0</ele><time>2026-04-12T09:54:37.999Z</time></trkpt><trkpt lat="44.128902096543214" lon="12.15698015288731"><ele>123.0</ele><time>2026-04-12T09:54:38.999Z</time></trkpt><trkpt lat="44.12881523599887" lon="12.156923927886865"><ele>122.0</ele><time>2026-04-12T09:54:39.999Z</time></trkpt><trkpt lat="44.12872732691277" lon="12.156853715083688"><ele>121.0</ele><time>2026-04-12T09:54:40.999Z</time></trkpt><trkpt lat="44.12864569873529" lon="12.156799560442945"><ele>121.00000000000001</ele><time>2026-04-12T09:54:41.999Z</time></trkpt><trkpt lat="44.12853734308931" lon="12.15675521389786"><ele>121.0</ele><time>2026-04-12T09:54:43.999Z</time></trkpt><trkpt lat="44.12848550308359" lon="12.15669521716468"><ele>121.0</ele><time>2026-04-12T09:54:46.999Z</time></trkpt><trkpt lat="44.12842421599433" lon="12.156660753253943"><ele>121.0</ele><time>2026-04-12T09:54:50.999Z</time></trkpt><trkpt lat="44.12837182894897" lon="12.156727048117636"><ele>121.00000000000001</ele><time>2026-04-12T09:54:53.999Z</time></trkpt><trkpt lat="44.12831287705846" lon="12.156693051553392"><ele>121.0</ele><time>2026-04-12T09:55:07.999Z</time></trkpt><trkpt lat="44.1282553831976" lon="12.156622502823737"><ele>118.50000000000001</ele><time>2026-04-12T09:55:09.999Z</time></trkpt><trkpt lat="44.12819143149924" lon="12.156559088344986"><ele>116.0</ele><time>2026-04-12T09:55:11.999Z</time></trkpt><trkpt lat="44.12813150469111" lon="12.156489060988015"><ele>113.5</ele><time>2026-04-12T09:55:13.999Z</time></trkpt><trkpt lat="44.128059589403335" lon="12.156406007533539"><ele>111.0</ele><time>2026-04-12T09:55:15.999Z</time></trkpt><trkpt lat="44.12799047031211" lon="12.15635104552163"><ele>108.50000000000001</ele><time>2026-04-12T09:55:17.999Z</time></trkpt><trkpt lat="44.12790320610422" lon="12.156316376673054"><ele>106.0</ele><time>2026-04-12T09:55:19.999Z</time></trkpt><trkpt lat="44.12783518352137" lon="12.156279560846626"><ele>106.00000000000001</ele><time>2026-04-12T09:55:20.999Z</time></trkpt><trkpt lat="44.12777353359959" lon="12.1562529113921"><ele>106.0</ele><time>2026-04-12T09:55:21.999Z</time></trkpt><trkpt lat="44.1276884946772" lon="12.156207358221257"><ele>106.0</ele><time>2026-04-12T09:55:24.999Z</time></trkpt><trkpt lat="44.127604804945655" lon="12.156224379184529"><ele>106.0</ele><time>2026-04-12T09:55:26.999Z</time></trkpt><trkpt lat="44.12752883451888" lon="12.15623413743084"><ele>106.00000000000001</ele><time>2026-04-12T09:55:28.999Z</time></trkpt><trkpt lat="44.127457964651704" lon="12.156245549823021"><ele>106.0</ele><time>2026-04-12T09:55:30.999Z</time></trkpt><trkpt lat="44.127357641000586" lon="12.156266155157539"><ele>106.33333333333334</ele><time>2026-04-12T09:55:32.999Z</time></trkpt><trkpt lat="44.127255320204" lon="12.156274098462404"><ele>106.66666666666667</ele><time>2026-04-12T09:55:34.999Z</time></trkpt><trkpt lat="44.12718965528251" lon="12.156309166821972"><ele>107.0</ele><time>2026-04-12T09:55:36.999Z</time></trkpt><trkpt lat="44.12717128210109" lon="12.156399041771232"><ele>107.33333333333334</ele><time>2026-04-12T09:55:39.999Z</time></trkpt><trkpt lat="44.12716917879465" lon="12.156547062270944"><ele>107.66666666666667</ele><time>2026-04-12T09:55:45.999Z</time></trkpt><trkpt lat="44.127163343065625" lon="12.156658092251867"><ele>108.0</ele><time>2026-04-12T09:55:46.999Z</time></trkpt><trkpt lat="44.12715833424212" lon="12.156803798194064"><ele>107.16666666666667</ele><time>2026-04-12T09:55:48Z</time></trkpt><trkpt lat="44.12714683945133" lon="12.156902533297787"><ele>106.33333333333334</ele><time>2026-04-12T09:55:49Z</time></trkpt><trkpt lat="44.12712554944295" lon="12.156987778703998"><ele>105.5</ele><time>2026-04-12T09:55:50Z</time></trkpt><trkpt lat="44.127097684817365" lon="12.157075800308386"><ele>104.66666666666667</ele><time>2026-04-12T09:55:51Z</time></trkpt><trkpt lat="44.12706674471978" lon="12.157160783461526"><ele>103.83333333333334</ele><time>2026-04-12T09:55:52Z</time></trkpt><trkpt lat="44.127042204612735" lon="12.157243670054257"><ele>103.0</ele><time>2026-04-12T09:55:53Z</time></trkpt><trkpt lat="44.12701421579572" lon="12.15740804163344"><ele>102.0</ele><time>2026-04-12T09:55:55Z</time></trkpt><trkpt lat="44.127072883481866" lon="12.157601372167314"><ele>101.0</ele><time>2026-04-12T09:55:57Z</time></trkpt><trkpt lat="44.12717664537699" lon="12.157760857536495"><ele>100.0</ele><time>2026-04-12T09:55:59Z</time></trkpt><trkpt lat="44.1272221692779" lon="12.157908180582815"><ele>99.0</ele><time>2026-04-12T09:56:01Z</time></trkpt><trkpt lat="44.1272340569645" lon="12.158088278016727"><ele>98.33333333333333</ele><time>2026-04-12T09:56:03Z</time></trkpt><trkpt lat="44.127252675065684" lon="12.158218407325606"><ele>97.66666666666667</ele><time>2026-04-12T09:56:05Z</time></trkpt><trkpt lat="44.127287656384595" lon="12.158333417953855"><ele>97.0</ele><time>2026-04-12T09:56:07Z</time></trkpt><trkpt lat="44.12727905453118" lon="12.158446353462598"><ele>96.33333333333334</ele><time>2026-04-12T09:56:09Z</time></trkpt><trkpt lat="44.12728541843916" lon="12.158550864049149"><ele>95.66666666666667</ele><time>2026-04-12T09:56:11Z</time></trkpt><trkpt lat="44.127339578416645" lon="12.158619700487202"><ele>95.0</ele><time>2026-04-12T09:58:15Z</time></trkpt><trkpt lat="44.12734205942019" lon="12.158481316851148"><ele>95.0</ele><time>2026-04-12T09:58:18Z</time></trkpt><trkpt lat="44.12729997338424" lon="12.158382429372855"><ele>95.0</ele><time>2026-04-12T09:58:21Z</time></trkpt><trkpt lat="44.12726408396624" lon="12.158303019988232"><ele>95.0</ele><time>2026-04-12T09:58:26Z</time></trkpt><trkpt lat="44.127239647797865" lon="12.15816555282368"><ele>95.0</ele><time>2026-04-12T09:58:29Z</time></trkpt><trkpt lat="44.12722372381692" lon="12.158059492058246"><ele>95.0</ele><time>2026-04-12T09:58:31Z</time></trkpt><trkpt lat="44.12721733726791" lon="12.157967105826126"><ele>95.0</ele><time>2026-04-12T09:58:32Z</time></trkpt><trkpt lat="44.127186101360664" lon="12.157789075554186"><ele>95.66666666666667</ele><time>2026-04-12T09:58:34Z</time></trkpt><trkpt lat="44.12713290464254" lon="12.157686097784275"><ele>96.33333333333334</ele><time>2026-04-12T09:58:35Z</time></trkpt><trkpt lat="44.1270793814085" lon="12.157569515006236"><ele>97.0</ele><time>2026-04-12T09:58:36Z</time></trkpt><trkpt lat="44.12705036325086" lon="12.157481086807943"><ele>97.66666666666667</ele><time>2026-04-12T09:58:37Z</time></trkpt><trkpt lat="44.12703257084867" lon="12.157367040123983"><ele>98.33333333333333</ele><time>2026-04-12T09:58:38Z</time></trkpt><trkpt lat="44.127028878407074" lon="12.157262316257244"><ele>99.0</ele><time>2026-04-12T09:58:39Z</time></trkpt><trkpt lat="44.12707306135024" lon="12.157133423725702"><ele>99.80000000000001</ele><time>2026-04-12T09:58:41Z</time></trkpt><trkpt lat="44.127111369059335" lon="12.157016474021452"><ele>100.60000000000001</ele><time>2026-04-12T09:58:43Z</time></trkpt><trkpt lat="44.12715117588612" lon="12.156835220657655"><ele>101.4</ele><time>2026-04-12T09:58:44Z</time></trkpt><trkpt lat="44.12716063649277" lon="12.15672703900477"><ele>102.2</ele><time>2026-04-12T09:58:44.999Z</time></trkpt><trkpt lat="44.12717064497036" lon="12.156624359607045"><ele>103.0</ele><time>2026-04-12T09:58:45.999Z</time></trkpt><trkpt lat="44.12717025115306" lon="12.15649107874742"><ele>103.83333333333334</ele><time>2026-04-12T09:58:47.999Z</time></trkpt><trkpt lat="44.12719128803169" lon="12.156363723651761"><ele>104.66666666666667</ele><time>2026-04-12T09:58:49.999Z</time></trkpt><trkpt lat="44.127253745424944" lon="12.156280981788653"><ele>105.5</ele><time>2026-04-12T09:58:52.999Z</time></trkpt><trkpt lat="44.127321796356185" lon="12.156269130352928"><ele>106.33333333333334</ele><time>2026-04-12T09:59:00.999Z</time></trkpt><trkpt lat="44.12725188506078" lon="12.156284913408435"><ele>107.16666666666667</ele><time>2026-04-12T10:00:51.999Z</time></trkpt><trkpt lat="44.12720054969806" lon="12.156224122300435"><ele>108.0</ele><time>2026-04-12T10:00:57.999Z</time></trkpt><trkpt lat="44.127134183074766" lon="12.15621528586491"><ele>108.0</ele><time>2026-04-12T10:01:42.999Z</time></trkpt><trkpt lat="44.127197517663575" lon="12.156212086605123"><ele>108.0</ele><time>2026-04-12T10:02:40Z</time></trkpt><trkpt lat="44.12725344483381" lon="12.156259941859602"><ele>108.0</ele><time>2026-04-12T10:02:50Z</time></trkpt><trkpt lat="44.12733796749792" lon="12.156239693442595"><ele>108.0</ele><time>2026-04-12T10:03:26.999Z</time></trkpt><trkpt lat="44.12746340363393" lon="12.156238781033077"><ele>108.0</ele><time>2026-04-12T10:03:28.999Z</time></trkpt><trkpt lat="44.127536894577865" lon="12.15624050041308"><ele>108.0</ele><time>2026-04-12T10:03:29.999Z</time></trkpt><trkpt lat="44.12769859782588" lon="12.156221601142361"><ele>107.60000000000001</ele><time>2026-04-12T10:03:31.999Z</time></trkpt><trkpt lat="44.12782312415404" lon="12.156224018580158"><ele>107.20000000000002</ele><time>2026-04-12T10:03:32.999Z</time></trkpt><trkpt lat="44.12792286540564" lon="12.156303892065209"><ele>106.8</ele><time>2026-04-12T10:03:34.999Z</time></trkpt><trkpt lat="44.128024351820805" lon="12.156354358905796"><ele>106.4</ele><time>2026-04-12T10:03:36.999Z</time></trkpt><trkpt lat="44.128072967561714" lon="12.156431853261676"><ele>106.0</ele><time>2026-04-12T10:03:38.999Z</time></trkpt><trkpt lat="44.12814891690109" lon="12.156494877701602"><ele>105.6</ele><time>2026-04-12T10:03:39.999Z</time></trkpt><trkpt lat="44.12819369656711" lon="12.156559514041778"><ele>105.19999999999999</ele><time>2026-04-12T10:03:40.999Z</time></trkpt><trkpt lat="44.12830538162292" lon="12.156638918202313"><ele>104.80000000000001</ele><time>2026-04-12T10:03:42.999Z</time></trkpt><trkpt lat="44.12841103389001" lon="12.156666295521807"><ele>104.4</ele><time>2026-04-12T10:03:43.999Z</time></trkpt><trkpt lat="44.128492200132705" lon="12.156672045911167"><ele>104.0</ele><time>2026-04-12T10:04:19Z</time></trkpt><trkpt lat="44.12860428782748" lon="12.156568479903958"><ele>108.4</ele><time>2026-04-12T10:04:21Z</time></trkpt><trkpt lat="44.1286826254756" lon="12.156503665103058"><ele>112.80000000000001</ele><time>2026-04-12T10:04:22Z</time></trkpt><trkpt lat="44.12876224932274" lon="12.15643429639221"><ele>117.19999999999999</ele><time>2026-04-12T10:04:23Z</time></trkpt><trkpt lat="44.128850008710224" lon="12.156294722277481"><ele>121.6</ele><time>2026-04-12T10:04:25Z</time></trkpt><trkpt lat="44.12892311535646" lon="12.156197844852116"><ele>126.0</ele><time>2026-04-12T10:04:26Z</time></trkpt><trkpt lat="44.12899197577063" lon="12.156096767508297"><ele>128.8</ele><time>2026-04-12T10:04:27Z</time></trkpt><trkpt lat="44.12906064220858" lon="12.155982902890983"><ele>131.6</ele><time>2026-04-12T10:04:28Z</time></trkpt><trkpt lat="44.12913831652504" lon="12.155869457922428"><ele>134.4</ele><time>2026-04-12T10:04:29Z</time></trkpt><trkpt lat="44.12922354411672" lon="12.155781962509908"><ele>137.2</ele><time>2026-04-12T10:04:31Z</time></trkpt><trkpt lat="44.12928317826545" lon="12.155720061056003"><ele>140.0</ele><time>2026-04-12T10:04:32Z</time></trkpt><trkpt lat="44.12934411554283" lon="12.155634106705637"><ele>141.16666666666666</ele><time>2026-04-12T10:04:33Z</time></trkpt><trkpt lat="44.12938827560638" lon="12.15555681823427"><ele>142.33333333333331</ele><time>2026-04-12T10:04:34Z</time></trkpt><trkpt lat="44.12938306062031" lon="12.155454903873691"><ele>143.5</ele><time>2026-04-12T10:04:38Z</time></trkpt><trkpt lat="44.12938240570405" lon="12.155328328952375"><ele>144.66666666666666</ele><time>2026-04-12T10:04:40Z</time></trkpt><trkpt lat="44.12940389852182" lon="12.155243245884124"><ele>145.83333333333334</ele><time>2026-04-12T10:04:41Z</time></trkpt><trkpt lat="44.12942492860412" lon="12.155150618223034"><ele>147.0</ele><time>2026-04-12T10:04:42Z</time></trkpt><trkpt lat="44.129435314922254" lon="12.15499867801657"><ele>147.0</ele><time>2026-04-12T10:04:44Z</time></trkpt><trkpt lat="44.12944458252247" lon="12.154906845445492"><ele>147.0</ele><time>2026-04-12T10:04:45Z</time></trkpt><trkpt lat="44.12946870128865" lon="12.154815559197775"><ele>147.0</ele><time>2026-04-12T10:04:46Z</time></trkpt><trkpt lat="44.12951640305536" lon="12.154713402777823"><ele>147.0</ele><time>2026-04-12T10:04:48Z</time></trkpt><trkpt lat="44.12956646120761" lon="12.154607232732724"><ele>147.0</ele><time>2026-04-12T10:04:51Z</time></trkpt><trkpt lat="44.12959607386654" lon="12.154528555522973"><ele>147.0</ele><time>2026-04-12T10:04:53Z</time></trkpt><trkpt lat="44.1296309361863" lon="12.154431032519255"><ele>147.0</ele><time>2026-04-12T10:04:56Z</time></trkpt><trkpt lat="44.12971093641276" lon="12.154285250533594"><ele>147.0</ele><time>2026-04-12T10:04:58Z</time></trkpt><trkpt lat="44.12975061364127" lon="12.154212137235866"><ele>147.0</ele><time>2026-04-12T10:04:59Z</time></trkpt><trkpt lat="44.129804195643864" lon="12.154119251264863"><ele>147.0</ele><time>2026-04-12T10:05:00Z</time></trkpt><trkpt lat="44.12985362700781" lon="12.154041926083107"><ele>147.0</ele><time>2026-04-12T10:05:01Z</time></trkpt><trkpt lat="44.12990788160458" lon="12.153977755850828"><ele>147.0</ele><time>2026-04-12T10:05:03Z</time></trkpt><trkpt lat="44.12996567822326" lon="12.153912547487497"><ele>151.5</ele><time>2026-04-12T10:05:13Z</time></trkpt><trkpt lat="44.13010956516519" lon="12.15394803099594"><ele>156.0</ele><time>2026-04-12T10:05:16Z</time></trkpt><trkpt lat="44.13016861667746" lon="12.153986931391584"><ele>160.5</ele><time>2026-04-12T10:05:16.999Z</time></trkpt><trkpt lat="44.130287174818214" lon="12.154000098879209"><ele>165.0</ele><time>2026-04-12T10:05:18.999Z</time></trkpt><trkpt lat="44.13048424034877" lon="12.153994919499821"><ele>165.0</ele><time>2026-04-12T10:05:20.999Z</time></trkpt><trkpt lat="44.13054816950307" lon="12.15394311897403"><ele>165.0</ele><time>2026-04-12T10:05:22.999Z</time></trkpt><trkpt lat="44.13061066005858" lon="12.153815453681334"><ele>165.0</ele><time>2026-04-12T10:05:24.999Z</time></trkpt><trkpt lat="44.13065050459073" lon="12.153747273699173"><ele>165.0</ele><time>2026-04-12T10:05:25.999Z</time></trkpt><trkpt lat="44.130698529572925" lon="12.153667987737252"><ele>165.0</ele><time>2026-04-12T10:05:26.999Z</time></trkpt><trkpt lat="44.13075903141013" lon="12.153589556288845"><ele>165.0</ele><time>2026-04-12T10:05:27.999Z</time></trkpt><trkpt lat="44.13081601163874" lon="12.15352543742249"><ele>168.4</ele><time>2026-04-12T10:05:28.999Z</time></trkpt><trkpt lat="44.130880652483405" lon="12.153565816946879"><ele>171.8</ele><time>2026-04-12T10:05:30.999Z</time></trkpt><trkpt lat="44.130999438187295" lon="12.153606140627724"><ele>175.2</ele><time>2026-04-12T10:05:32.999Z</time></trkpt><trkpt lat="44.13109353728715" lon="12.15357730488285"><ele>178.6</ele><time>2026-04-12T10:05:33.999Z</time></trkpt><trkpt lat="44.13121245324472" lon="12.153566955135682"><ele>182.0</ele><time>2026-04-12T10:05:34.999Z</time></trkpt><trkpt lat="44.13134034578241" lon="12.153528354851982"><ele>182.0</ele><time>2026-04-12T10:05:35.999Z</time></trkpt><trkpt lat="44.13148203572469" lon="12.153495698747822"><ele>182.0</ele><time>2026-04-12T10:05:36.999Z</time></trkpt><trkpt lat="44.13164071209751" lon="12.153462213438782"><ele>182.0</ele><time>2026-04-12T10:05:37.999Z</time></trkpt><trkpt lat="44.13177311955925" lon="12.153423342871086"><ele>182.0</ele><time>2026-04-12T10:05:38.999Z</time></trkpt><trkpt lat="44.131898669095214" lon="12.153363521422028"><ele>183.6</ele><time>2026-04-12T10:05:39.999Z</time></trkpt><trkpt lat="44.13201896650191" lon="12.153293768184538"><ele>185.2</ele><time>2026-04-12T10:05:40.999Z</time></trkpt><trkpt lat="44.132123142217786" lon="12.153238131094962"><ele>186.8</ele><time>2026-04-12T10:05:41.999Z</time></trkpt><trkpt lat="44.132219311897195" lon="12.153188021524002"><ele>188.4</ele><time>2026-04-12T10:05:42.999Z</time></trkpt><trkpt lat="44.13229438520782" lon="12.15314546840768"><ele>190.0</ele><time>2026-04-12T10:05:43.999Z</time></trkpt><trkpt lat="44.13237058298093" lon="12.153092656378229"><ele>190.83333333333334</ele><time>2026-04-12T10:05:44.999Z</time></trkpt><trkpt lat="44.13246717417272" lon="12.153022139744856"><ele>191.66666666666669</ele><time>2026-04-12T10:05:45.999Z</time></trkpt><trkpt lat="44.13256502312531" lon="12.152948539536721"><ele>192.5</ele><time>2026-04-12T10:05:46.999Z</time></trkpt><trkpt lat="44.13263881644229" lon="12.152898426542528"><ele>193.33333333333334</ele><time>2026-04-12T10:05:47.999Z</time></trkpt><trkpt lat="44.132697795707315" lon="12.152858269482277"><ele>194.16666666666666</ele><time>2026-04-12T10:05:48.999Z</time></trkpt><trkpt lat="44.13276531155918" lon="12.1528083948111"><ele>195.0</ele><time>2026-04-12T10:05:50.999Z</time></trkpt><trkpt lat="44.13284018096946" lon="12.15274324067258"><ele>195.0</ele><time>2026-04-12T10:05:52.999Z</time></trkpt><trkpt lat="44.13291804764996" lon="12.15269547863181"><ele>195.0</ele><time>2026-04-12T10:05:55.999Z</time></trkpt><trkpt lat="44.13298398639685" lon="12.152633921407089"><ele>195.0</ele><time>2026-04-12T10:06:09.999Z</time></trkpt><trkpt lat="44.13293693125727" lon="12.15249824174495"><ele>195.0</ele><time>2026-04-12T10:06:10.999Z</time></trkpt><trkpt lat="44.13290099794403" lon="12.152396560994736"><ele>195.0</ele><time>2026-04-12T10:06:11.999Z</time></trkpt><trkpt lat="44.13286737386119" lon="12.152263294627035"><ele>196.5</ele><time>2026-04-12T10:06:12.999Z</time></trkpt><trkpt lat="44.13284419478384" lon="12.152104369471324"><ele>198.0</ele><time>2026-04-12T10:06:13.999Z</time></trkpt><trkpt lat="44.132825798362525" lon="12.151938797658886"><ele>199.5</ele><time>2026-04-12T10:06:14.999Z</time></trkpt><trkpt lat="44.13281261153347" lon="12.151746988911231"><ele>201.0</ele><time>2026-04-12T10:06:15.999Z</time></trkpt><trkpt lat="44.132797030107014" lon="12.151556850382311"><ele>201.25</ele><time>2026-04-12T10:06:16.999Z</time></trkpt><trkpt lat="44.13277364619638" lon="12.151359585372068"><ele>201.5</ele><time>2026-04-12T10:06:18Z</time></trkpt><trkpt lat="44.13275369951231" lon="12.151162166136393"><ele>201.75</ele><time>2026-04-12T10:06:19Z</time></trkpt><trkpt lat="44.1327497607477" lon="12.150987841884689"><ele>202.0</ele><time>2026-04-12T10:06:20Z</time></trkpt><trkpt lat="44.13276874079956" lon="12.150843097719152"><ele>202.0</ele><time>2026-04-12T10:06:21Z</time></trkpt><trkpt lat="44.1327963999045" lon="12.15071888051108"><ele>202.0</ele><time>2026-04-12T10:06:22Z</time></trkpt><trkpt lat="44.13282457831001" lon="12.150634550635466"><ele>202.0</ele><time>2026-04-12T10:06:23Z</time></trkpt><trkpt lat="44.13286395379553" lon="12.150541089009662"><ele>202.0</ele><time>2026-04-12T10:06:25Z</time></trkpt><trkpt lat="44.13265060876985" lon="12.150480011797377"><ele>201.25</ele><time>2026-04-12T10:06:27Z</time></trkpt><trkpt lat="44.13257305940326" lon="12.150459913640992"><ele>200.5</ele><time>2026-04-12T10:06:28Z</time></trkpt><trkpt lat="44.13244950711661" lon="12.1504331374346"><ele>199.75</ele><time>2026-04-12T10:06:29Z</time></trkpt><trkpt lat="44.132325643788676" lon="12.150369000344664"><ele>199.0</ele><time>2026-04-12T10:06:30Z</time></trkpt><trkpt lat="44.13221888672536" lon="12.150269200859219"><ele>201.0</ele><time>2026-04-12T10:06:31Z</time></trkpt><trkpt lat="44.1321190737608" lon="12.150152244552405"><ele>203.0</ele><time>2026-04-12T10:06:32Z</time></trkpt><trkpt lat="44.13200224209341" lon="12.150016090449974"><ele>205.0</ele><time>2026-04-12T10:06:33Z</time></trkpt><trkpt lat="44.13188132393454" lon="12.149875618153564"><ele>207.0</ele><time>2026-04-12T10:06:34Z</time></trkpt><trkpt lat="44.13176649684831" lon="12.149742221925033"><ele>207.0</ele><time>2026-04-12T10:06:35Z</time></trkpt><trkpt lat="44.131658237180275" lon="12.149621393119688"><ele>207.0</ele><time>2026-04-12T10:06:36Z</time></trkpt><trkpt lat="44.131543395166915" lon="12.149535488350837"><ele>207.0</ele><time>2026-04-12T10:06:37Z</time></trkpt><trkpt lat="44.131446596420396" lon="12.149444856572659"><ele>207.0</ele><time>2026-04-12T10:06:38Z</time></trkpt><trkpt lat="44.13136559181912" lon="12.149377724800571"><ele>207.0</ele><time>2026-04-12T10:06:39Z</time></trkpt><trkpt lat="44.13129045129047" lon="12.149320935877157"><ele>207.0</ele><time>2026-04-12T10:06:40Z</time></trkpt><trkpt lat="44.13123358598419" lon="12.149270575058006"><ele>207.0</ele><time>2026-04-12T10:06:41Z</time></trkpt><trkpt lat="44.13117570239562" lon="12.149225018076583"><ele>207.0</ele><time>2026-04-12T10:06:42Z</time></trkpt><trkpt lat="44.13111012672987" lon="12.149168992832948"><ele>207.0</ele><time>2026-04-12T10:06:43Z</time></trkpt><trkpt lat="44.1310331028174" lon="12.149106178123917"><ele>207.0</ele><time>2026-04-12T10:06:44Z</time></trkpt><trkpt lat="44.13094170666895" lon="12.14903731164368"><ele>207.16666666666666</ele><time>2026-04-12T10:06:45Z</time></trkpt><trkpt lat="44.1308646551247" lon="12.148973816885768"><ele>207.33333333333331</ele><time>2026-04-12T10:06:46Z</time></trkpt><trkpt lat="44.130797914156766" lon="12.148916979220175"><ele>207.5</ele><time>2026-04-12T10:06:47Z</time></trkpt><trkpt lat="44.13073434394018" lon="12.14886938087322"><ele>207.66666666666666</ele><time>2026-04-12T10:06:48Z</time></trkpt><trkpt lat="44.13065938332884" lon="12.148813433788401"><ele>207.83333333333331</ele><time>2026-04-12T10:06:49Z</time></trkpt><trkpt lat="44.1305690599013" lon="12.148748161837862"><ele>208.0</ele><time>2026-04-12T10:06:50Z</time></trkpt><trkpt lat="44.13046785489339" lon="12.148674155309426"><ele>208.0</ele><time>2026-04-12T10:06:51Z</time></trkpt><trkpt lat="44.13035658137415" lon="12.14858542185138"><ele>208.0</ele><time>2026-04-12T10:06:52Z</time></trkpt><trkpt lat="44.13023965232501" lon="12.148493689709175"><ele>208.0</ele><time>2026-04-12T10:06:53Z</time></trkpt><trkpt lat="44.130112838157814" lon="12.148401349089806"><ele>208.0</ele><time>2026-04-12T10:06:54Z</time></trkpt><trkpt lat="44.129971490153984" lon="12.148302286610326"><ele>208.0</ele><time>2026-04-12T10:06:55Z</time></trkpt><trkpt lat="44.129849276015435" lon="12.148212139651884"><ele>208.0</ele><time>2026-04-12T10:06:56Z</time></trkpt><trkpt lat="44.12973812076335" lon="12.148131806437657"><ele>208.0</ele><time>2026-04-12T10:06:57Z</time></trkpt><trkpt lat="44.12961539828039" lon="12.148047679118536"><ele>208.0</ele><time>2026-04-12T10:06:58Z</time></trkpt><trkpt lat="44.12949837256876" lon="12.147961609881422"><ele>207.75</ele><time>2026-04-12T10:06:59Z</time></trkpt><trkpt lat="44.129391329640505" lon="12.147848437616947"><ele>207.5</ele><time>2026-04-12T10:07:00Z</time></trkpt><trkpt lat="44.129294968909484" lon="12.147765961560063"><ele>207.25</ele><time>2026-04-12T10:07:01Z</time></trkpt><trkpt lat="44.12920458254486" lon="12.147686596857818"><ele>207.0</ele><time>2026-04-12T10:07:02Z</time></trkpt><trkpt lat="44.12910302024165" lon="12.147596148096454"><ele>206.6</ele><time>2026-04-12T10:07:03Z</time></trkpt><trkpt lat="44.129012508067" lon="12.147513894002525"><ele>206.2</ele><time>2026-04-12T10:07:04Z</time></trkpt><trkpt lat="44.12891920439722" lon="12.147455386640049"><ele>205.8</ele><time>2026-04-12T10:07:05Z</time></trkpt><trkpt lat="44.128850993090346" lon="12.147389706761874"><ele>205.4</ele><time>2026-04-12T10:07:06Z</time></trkpt><trkpt lat="44.128783769355806" lon="12.147301571959366"><ele>205.0</ele><time>2026-04-12T10:07:07Z</time></trkpt><trkpt lat="44.128707506285494" lon="12.147229831836718"><ele>206.6</ele><time>2026-04-12T10:07:08Z</time></trkpt><trkpt lat="44.12861513411888" lon="12.147145307661491"><ele>208.2</ele><time>2026-04-12T10:07:09Z</time></trkpt><trkpt lat="44.12851800933741" lon="12.147062166533972"><ele>209.8</ele><time>2026-04-12T10:07:10Z</time></trkpt><trkpt lat="44.128430050657926" lon="12.146994054337958"><ele>211.4</ele><time>2026-04-12T10:07:11Z</time></trkpt><trkpt lat="44.128345691052985" lon="12.146942157350482"><ele>213.0</ele><time>2026-04-12T10:07:12Z</time></trkpt><trkpt lat="44.12819501574959" lon="12.14705924807211"><ele>217.66666666666669</ele><time>2026-04-12T10:07:13Z</time></trkpt><trkpt lat="44.128038303649134" lon="12.147125047929416"><ele>222.33333333333334</ele><time>2026-04-12T10:07:14Z</time></trkpt><trkpt lat="44.12788036368129" lon="12.147203113955422"><ele>227.0</ele><time>2026-04-12T10:07:15Z</time></trkpt><trkpt lat="44.127727875791095" lon="12.147297187096033"><ele>226.25</ele><time>2026-04-12T10:07:16Z</time></trkpt><trkpt lat="44.12759448793582" lon="12.147400399690554"><ele>225.5</ele><time>2026-04-12T10:07:17Z</time></trkpt><trkpt lat="44.12747095681665" lon="12.147499468021765"><ele>224.75</ele><time>2026-04-12T10:07:18Z</time></trkpt><trkpt lat="44.127348712593545" lon="12.14760717880243"><ele>224.0</ele><time>2026-04-12T10:07:19Z</time></trkpt><trkpt lat="44.12724245669055" lon="12.14770957900408"><ele>224.0</ele><time>2026-04-12T10:07:20Z</time></trkpt><trkpt lat="44.12713276510178" lon="12.14785015266432"><ele>224.0</ele><time>2026-04-12T10:07:21Z</time></trkpt><trkpt lat="44.127037794040774" lon="12.148024006552967"><ele>224.0</ele><time>2026-04-12T10:07:22Z</time></trkpt><trkpt lat="44.126957869232726" lon="12.14819171224877"><ele>219.0</ele><time>2026-04-12T10:07:23Z</time></trkpt><trkpt lat="44.12686071570192" lon="12.148332988332719"><ele>214.0</ele><time>2026-04-12T10:07:24Z</time></trkpt><trkpt lat="44.12677013603161" lon="12.148481697593224"><ele>209.0</ele><time>2026-04-12T10:07:25Z</time></trkpt><trkpt lat="44.1266791847718" lon="12.148651295908037"><ele>204.0</ele><time>2026-04-12T10:07:26Z</time></trkpt><trkpt lat="44.12660167776629" lon="12.148845852425124"><ele>203.33333333333331</ele><time>2026-04-12T10:07:27Z</time></trkpt><trkpt lat="44.12649361945154" lon="12.149027286121873"><ele>202.66666666666666</ele><time>2026-04-12T10:07:28Z</time></trkpt><trkpt lat="44.12639832313717" lon="12.149215516860133"><ele>202.0</ele><time>2026-04-12T10:07:29Z</time></trkpt><trkpt lat="44.12630997614446" lon="12.149388020564546"><ele>202.0</ele><time>2026-04-12T10:07:29.999Z</time></trkpt><trkpt lat="44.126217359145755" lon="12.14956096883977"><ele>202.0</ele><time>2026-04-12T10:07:30.999Z</time></trkpt><trkpt lat="44.12611864789163" lon="12.149718556404157"><ele>202.0</ele><time>2026-04-12T10:07:31.999Z</time></trkpt><trkpt lat="44.12602361631219" lon="12.149873884604911"><ele>196.33333333333331</ele><time>2026-04-12T10:07:32.999Z</time></trkpt><trkpt lat="44.125926473283094" lon="12.150046197709127"><ele>190.66666666666666</ele><time>2026-04-12T10:07:33.999Z</time></trkpt><trkpt lat="44.12584309348427" lon="12.150214816732792"><ele>185.0</ele><time>2026-04-12T10:07:34.999Z</time></trkpt><trkpt lat="44.125766468051246" lon="12.150393502109138"><ele>191.33333333333331</ele><time>2026-04-12T10:07:35.999Z</time></trkpt><trkpt lat="44.12570656787681" lon="12.150588806776215"><ele>197.66666666666666</ele><time>2026-04-12T10:07:36.999Z</time></trkpt><trkpt lat="44.125635085938534" lon="12.150801016992904"><ele>204.0</ele><time>2026-04-12T10:07:37.999Z</time></trkpt><trkpt lat="44.12554903074861" lon="12.15100338361283"><ele>204.0</ele><time>2026-04-12T10:07:38.999Z</time></trkpt><trkpt lat="44.12548030558875" lon="12.15122956784886"><ele>204.0</ele><time>2026-04-12T10:07:39.999Z</time></trkpt><trkpt lat="44.125422415852476" lon="12.151437173340122"><ele>204.0</ele><time>2026-04-12T10:07:40.999Z</time></trkpt><trkpt lat="44.12537221928799" lon="12.151630984408424"><ele>200.0</ele><time>2026-04-12T10:07:41.999Z</time></trkpt><trkpt lat="44.125333159442505" lon="12.151834107132654"><ele>196.0</ele><time>2026-04-12T10:07:42.999Z</time></trkpt><trkpt lat="44.12529882019285" lon="12.152033690575427"><ele>192.0</ele><time>2026-04-12T10:07:43.999Z</time></trkpt><trkpt lat="44.12525946453314" lon="12.152217519962122"><ele>188.0</ele><time>2026-04-12T10:07:44.999Z</time></trkpt><trkpt lat="44.125200234843454" lon="12.152391374913698"><ele>183.75</ele><time>2026-04-12T10:07:45.999Z</time></trkpt><trkpt lat="44.125128144460874" lon="12.152566702688215"><ele>179.5</ele><time>2026-04-12T10:07:46.999Z</time></trkpt><trkpt lat="44.12508833042995" lon="12.152765323570655"><ele>175.25</ele><time>2026-04-12T10:07:47.999Z</time></trkpt><trkpt lat="44.125041143499644" lon="12.152959860911123"><ele>171.0</ele><time>2026-04-12T10:07:48.999Z</time></trkpt><trkpt lat="44.12500687675613" lon="12.15317966538597"><ele>172.75</ele><time>2026-04-12T10:07:49.999Z</time></trkpt><trkpt lat="44.124953786818686" lon="12.153372116566223"><ele>174.5</ele><time>2026-04-12T10:07:50.999Z</time></trkpt><trkpt lat="44.124906639933656" lon="12.15354893502889"><ele>176.25</ele><time>2026-04-12T10:07:51.999Z</time></trkpt><trkpt lat="44.12483929474336" lon="12.153706866830827"><ele>178.0</ele><time>2026-04-12T10:07:52.999Z</time></trkpt><trkpt lat="44.124747670186736" lon="12.153873106410636"><ele>172.66666666666669</ele><time>2026-04-12T10:07:53.999Z</time></trkpt><trkpt lat="44.12465148142027" lon="12.154063350166656"><ele>167.33333333333334</ele><time>2026-04-12T10:07:54.999Z</time></trkpt><trkpt lat="44.124576720861626" lon="12.154246201836969"><ele>162.0</ele><time>2026-04-12T10:07:55.999Z</time></trkpt><trkpt lat="44.124518391903344" lon="12.154428506304967"><ele>162.0</ele><time>2026-04-12T10:07:56.999Z</time></trkpt><trkpt lat="44.124476784444596" lon="12.154617494242164"><ele>162.0</ele><time>2026-04-12T10:07:57.999Z</time></trkpt><trkpt lat="44.124440287983234" lon="12.154785852816294"><ele>162.0</ele><time>2026-04-12T10:07:58.999Z</time></trkpt><trkpt lat="44.124387704705576" lon="12.154946953172198"><ele>162.0</ele><time>2026-04-12T10:07:59.999Z</time></trkpt><trkpt lat="44.12430029714076" lon="12.155098192346511"><ele>162.33333333333334</ele><time>2026-04-12T10:08:00.999Z</time></trkpt><trkpt lat="44.124182701186356" lon="12.155274610966481"><ele>162.66666666666669</ele><time>2026-04-12T10:08:01.999Z</time></trkpt><trkpt lat="44.12411853369601" lon="12.15547612714545"><ele>163.0</ele><time>2026-04-12T10:08:02.999Z</time></trkpt><trkpt lat="44.124045874966015" lon="12.15564170980493"><ele>159.25</ele><time>2026-04-12T10:08:03.999Z</time></trkpt><trkpt lat="44.1239602890005" lon="12.155781711170837"><ele>155.5</ele><time>2026-04-12T10:08:04.999Z</time></trkpt><trkpt lat="44.123864246250676" lon="12.155931446926289"><ele>151.75</ele><time>2026-04-12T10:08:05.999Z</time></trkpt><trkpt lat="44.12377152156114" lon="12.156088283342074"><ele>148.0</ele><time>2026-04-12T10:08:06.999Z</time></trkpt><trkpt lat="44.12370141573271" lon="12.15629381804496"><ele>148.0</ele><time>2026-04-12T10:08:07.999Z</time></trkpt><trkpt lat="44.1236288310487" lon="12.156440826241063"><ele>148.0</ele><time>2026-04-12T10:08:08.999Z</time></trkpt><trkpt lat="44.12355844175198" lon="12.156575637113356"><ele>148.0</ele><time>2026-04-12T10:08:09.999Z</time></trkpt><trkpt lat="44.12353440292833" lon="12.156742523212777"><ele>148.0</ele><time>2026-04-12T10:08:10.999Z</time></trkpt><trkpt lat="44.12352529132346" lon="12.156915991536733"><ele>144.75</ele><time>2026-04-12T10:08:11.999Z</time></trkpt><trkpt lat="44.12351045990022" lon="12.157107185523818"><ele>141.5</ele><time>2026-04-12T10:08:12.999Z</time></trkpt><trkpt lat="44.12350698987008" lon="12.157297214853072"><ele>138.25</ele><time>2026-04-12T10:08:13.999Z</time></trkpt><trkpt lat="44.123543283350664" lon="12.157479356353107"><ele>135.0</ele><time>2026-04-12T10:08:14.999Z</time></trkpt><trkpt lat="44.123610267732595" lon="12.157643666443397"><ele>131.0</ele><time>2026-04-12T10:08:15.999Z</time></trkpt><trkpt lat="44.12368169309398" lon="12.157797935400419"><ele>127.0</ele><time>2026-04-12T10:08:16.999Z</time></trkpt><trkpt lat="44.12374660572764" lon="12.157958044047636"><ele>123.0</ele><time>2026-04-12T10:08:17.999Z</time></trkpt><trkpt lat="44.12381481522296" lon="12.158108826733018"><ele>119.0</ele><time>2026-04-12T10:08:18.999Z</time></trkpt><trkpt lat="44.12388785691926" lon="12.158264442654975"><ele>116.75</ele><time>2026-04-12T10:08:19.999Z</time></trkpt><trkpt lat="44.12394599555216" lon="12.158413130031969"><ele>114.5</ele><time>2026-04-12T10:08:20.999Z</time></trkpt><trkpt lat="44.12401416993063" lon="12.15857943469359"><ele>112.25</ele><time>2026-04-12T10:08:21.999Z</time></trkpt><trkpt lat="44.124075370115925" lon="12.158756255622242"><ele>110.0</ele><time>2026-04-12T10:08:22.999Z</time></trkpt><trkpt lat="44.124147709808796" lon="12.158924998894054"><ele>108.0</ele><time>2026-04-12T10:08:24Z</time></trkpt><trkpt lat="44.12420165093125" lon="12.159088606490911"><ele>106.0</ele><time>2026-04-12T10:08:25Z</time></trkpt><trkpt lat="44.12426581649403" lon="12.159242951936324"><ele>104.0</ele><time>2026-04-12T10:08:26Z</time></trkpt><trkpt lat="44.12431758331219" lon="12.159394575650133"><ele>102.0</ele><time>2026-04-12T10:08:27Z</time></trkpt><trkpt lat="44.124362941798125" lon="12.15952830467559"><ele>102.0</ele><time>2026-04-12T10:08:28Z</time></trkpt><trkpt lat="44.12439649160294" lon="12.159657710769313"><ele>102.0</ele><time>2026-04-12T10:08:29Z</time></trkpt><trkpt lat="44.12437814853361" lon="12.159788589042254"><ele>102.0</ele><time>2026-04-12T10:08:30Z</time></trkpt><trkpt lat="44.12427896664342" lon="12.159935220941241"><ele>102.0</ele><time>2026-04-12T10:08:31Z</time></trkpt><trkpt lat="44.12421847864398" lon="12.160124013330698"><ele>100.8</ele><time>2026-04-12T10:08:32Z</time></trkpt><trkpt lat="44.12417569195993" lon="12.160256718281303"><ele>99.6</ele><time>2026-04-12T10:08:33Z</time></trkpt><trkpt lat="44.12411866096218" lon="12.16036005792804"><ele>98.39999999999999</ele><time>2026-04-12T10:08:34Z</time></trkpt><trkpt lat="44.12403093964036" lon="12.160430437854705"><ele>97.19999999999999</ele><time>2026-04-12T10:08:35Z</time></trkpt><trkpt lat="44.12392052769273" lon="12.16047105394065"><ele>96.0</ele><time>2026-04-12T10:08:36Z</time></trkpt><trkpt lat="44.12380380346437" lon="12.160486881025392"><ele>95.0</ele><time>2026-04-12T10:08:37Z</time></trkpt><trkpt lat="44.12367625290376" lon="12.160496147934458"><ele>94.0</ele><time>2026-04-12T10:08:38Z</time></trkpt><trkpt lat="44.1235737239394" lon="12.160492359800458"><ele>93.0</ele><time>2026-04-12T10:08:39Z</time></trkpt><trkpt lat="44.12348885796949" lon="12.16048168165426"><ele>92.0</ele><time>2026-04-12T10:08:40Z</time></trkpt><trkpt lat="44.123408320610395" lon="12.160461144443852"><ele>91.0</ele><time>2026-04-12T10:08:41Z</time></trkpt><trkpt lat="44.123327989633516" lon="12.160438482052305"><ele>91.0</ele><time>2026-04-12T10:08:42Z</time></trkpt><trkpt lat="44.12323842413308" lon="12.1604246170019"><ele>91.0</ele><time>2026-04-12T10:08:43Z</time></trkpt><trkpt lat="44.12316104179204" lon="12.160462393975555"><ele>91.0</ele><time>2026-04-12T10:08:44Z</time></trkpt><trkpt lat="44.123103717721236" lon="12.16061554929392"><ele>91.0</ele><time>2026-04-12T10:09:14Z</time></trkpt><trkpt lat="44.12310340674876" lon="12.160724721261882"><ele>91.0</ele><time>2026-04-12T10:09:15Z</time></trkpt><trkpt lat="44.123122196533416" lon="12.16084078680034"><ele>95.0</ele><time>2026-04-12T10:09:16Z</time></trkpt><trkpt lat="44.12312943802638" lon="12.160971566723273"><ele>99.0</ele><time>2026-04-12T10:09:17Z</time></trkpt><trkpt lat="44.12315062693486" lon="12.161113222111775"><ele>103.0</ele><time>2026-04-12T10:09:18Z</time></trkpt><trkpt lat="44.12317278425224" lon="12.161261351755062"><ele>107.0</ele><time>2026-04-12T10:09:19Z</time></trkpt><trkpt lat="44.12318904075398" lon="12.16137003235082"><ele>111.0</ele><time>2026-04-12T10:09:20Z</time></trkpt><trkpt lat="44.123207263165035" lon="12.161505348825754"><ele>111.8</ele><time>2026-04-12T10:09:22Z</time></trkpt><trkpt lat="44.12322460306762" lon="12.16164058823935"><ele>112.6</ele><time>2026-04-12T10:09:24Z</time></trkpt><trkpt lat="44.12323527209497" lon="12.161730146775833"><ele>113.4</ele><time>2026-04-12T10:09:25Z</time></trkpt><trkpt lat="44.12326215333757" lon="12.161846899052048"><ele>114.2</ele><time>2026-04-12T10:09:26Z</time></trkpt><trkpt lat="44.12327590006732" lon="12.162013944904748"><ele>115.0</ele><time>2026-04-12T10:09:27Z</time></trkpt><trkpt lat="44.12329964129262" lon="12.162208830198605"><ele>112.6</ele><time>2026-04-12T10:09:28Z</time></trkpt><trkpt lat="44.12332532162742" lon="12.16238630638656"><ele>110.2</ele><time>2026-04-12T10:09:29Z</time></trkpt><trkpt lat="44.12331945967385" lon="12.162543804170218"><ele>107.80000000000001</ele><time>2026-04-12T10:09:30Z</time></trkpt><trkpt lat="44.12332245818812" lon="12.16266942444609"><ele>105.4</ele><time>2026-04-12T10:09:31Z</time></trkpt><trkpt lat="44.12330371702703" lon="12.162772014808832"><ele>103.0</ele><time>2026-04-12T10:09:32Z</time></trkpt><trkpt lat="44.12327560207748" lon="12.162904281138553"><ele>106.66666666666667</ele><time>2026-04-12T10:09:33Z</time></trkpt><trkpt lat="44.123158099517916" lon="12.163027630984354"><ele>110.33333333333334</ele><time>2026-04-12T10:09:34Z</time></trkpt><trkpt lat="44.12304563709246" lon="12.163205937785696"><ele>114.0</ele><time>2026-04-12T10:09:35Z</time></trkpt><trkpt lat="44.12292505699527" lon="12.163399105944588"><ele>114.0</ele><time>2026-04-12T10:09:36Z</time></trkpt><trkpt lat="44.12283061960564" lon="12.163557967792363"><ele>114.0</ele><time>2026-04-12T10:09:37Z</time></trkpt><trkpt lat="44.12274654162235" lon="12.16369962423733"><ele>114.0</ele><time>2026-04-12T10:09:38Z</time></trkpt><trkpt lat="44.12267240418173" lon="12.163824532698428"><ele>114.0</ele><time>2026-04-12T10:09:39Z</time></trkpt><trkpt lat="44.122591408647246" lon="12.163958691151045"><ele>113.75</ele><time>2026-04-12T10:09:40Z</time></trkpt><trkpt lat="44.12251770223204" lon="12.16411116745099"><ele>113.5</ele><time>2026-04-12T10:09:41Z</time></trkpt><trkpt lat="44.12243554204225" lon="12.16422539930021"><ele>113.25</ele><time>2026-04-12T10:09:42Z</time></trkpt><trkpt lat="44.12236436153005" lon="12.164318714349497"><ele>113.0</ele><time>2026-04-12T10:09:43Z</time></trkpt><trkpt lat="44.12226543222673" lon="12.16440152629954"><ele>113.0</ele><time>2026-04-12T10:09:43.999Z</time></trkpt><trkpt lat="44.12214119314235" lon="12.164427093950904"><ele>113.0</ele><time>2026-04-12T10:09:44.999Z</time></trkpt><trkpt lat="44.121998127388906" lon="12.164436048212583"><ele>113.0</ele><time>2026-04-12T10:09:45.999Z</time></trkpt><trkpt lat="44.12186723964156" lon="12.16449933843718"><ele>113.0</ele><time>2026-04-12T10:09:46.999Z</time></trkpt><trkpt lat="44.12175182990126" lon="12.164547845414468"><ele>113.0</ele><time>2026-04-12T10:09:47.999Z</time></trkpt><trkpt lat="44.121637909709534" lon="12.164605328646013"><ele>113.0</ele><time>2026-04-12T10:09:48.999Z</time></trkpt><trkpt lat="44.12154214317304" lon="12.164685632464233"><ele>113.0</ele><time>2026-04-12T10:09:49.999Z</time></trkpt><trkpt lat="44.121468374637374" lon="12.164802389284828"><ele>113.0</ele><time>2026-04-12T10:09:50.999Z</time></trkpt><trkpt lat="44.12138124242347" lon="12.164923427469828"><ele>118.66666666666666</ele><time>2026-04-12T10:09:51.999Z</time></trkpt><trkpt lat="44.1213475698872" lon="12.165131902697116"><ele>124.33333333333334</ele><time>2026-04-12T10:09:52.999Z</time></trkpt><trkpt lat="44.12132829714404" lon="12.165363479873369"><ele>130.0</ele><time>2026-04-12T10:09:53.999Z</time></trkpt><trkpt lat="44.12131908288575" lon="12.165579794384884"><ele>127.66666666666667</ele><time>2026-04-12T10:09:54.999Z</time></trkpt><trkpt lat="44.12133033664184" lon="12.165800986864836"><ele>125.33333333333334</ele><time>2026-04-12T10:09:55.999Z</time></trkpt><trkpt lat="44.12136829538451" lon="12.1660510423583"><ele>123.0</ele><time>2026-04-12T10:09:56.999Z</time></trkpt><trkpt lat="44.1213916806317" lon="12.166289980734545"><ele>123.0</ele><time>2026-04-12T10:09:57.999Z</time></trkpt><trkpt lat="44.12142319642103" lon="12.166493008829978"><ele>123.00000000000001</ele><time>2026-04-12T10:09:58.999Z</time></trkpt><trkpt lat="44.12144335448761" lon="12.166659597433606"><ele>123.00000000000001</ele><time>2026-04-12T10:09:59.999Z</time></trkpt><trkpt lat="44.12145277882307" lon="12.166799116162547"><ele>123.0</ele><time>2026-04-12T10:10:00.999Z</time></trkpt><trkpt lat="44.12146340893517" lon="12.166894971265034"><ele>123.0</ele><time>2026-04-12T10:10:01.999Z</time></trkpt><trkpt lat="44.12146248735628" lon="12.16698491832399"><ele>120.0</ele><time>2026-04-12T10:10:03.999Z</time></trkpt><trkpt lat="44.12134265514622" lon="12.167025573116597"><ele>117.0</ele><time>2026-04-12T10:10:05.999Z</time></trkpt><trkpt lat="44.12125157903967" lon="12.167057735503796"><ele>114.0</ele><time>2026-04-12T10:10:06.999Z</time></trkpt><trkpt lat="44.121151200238124" lon="12.16707990940239"><ele>111.0</ele><time>2026-04-12T10:10:07.999Z</time></trkpt><trkpt lat="44.121012881407175" lon="12.1671005639589"><ele>111.0</ele><time>2026-04-12T10:10:08.999Z</time></trkpt><trkpt lat="44.12093156939159" lon="12.16709988649875"><ele>111.0</ele><time>2026-04-12T10:10:09.999Z</time></trkpt><trkpt lat="44.12086273408265" lon="12.167044791519253"><ele>111.0</ele><time>2026-04-12T10:10:10.999Z</time></trkpt><trkpt lat="44.120786661325475" lon="12.166961949787511"><ele>111.0</ele><time>2026-04-12T10:10:11.999Z</time></trkpt><trkpt lat="44.120685951163736" lon="12.166848173302265"><ele>111.0</ele><time>2026-04-12T10:10:12.999Z</time></trkpt><trkpt lat="44.12061157491318" lon="12.166750301735336"><ele>108.75</ele><time>2026-04-12T10:10:13.999Z</time></trkpt><trkpt lat="44.120522013207896" lon="12.166621857718118"><ele>106.5</ele><time>2026-04-12T10:10:14.999Z</time></trkpt><trkpt lat="44.12043229929268" lon="12.166478283476867"><ele>104.25</ele><time>2026-04-12T10:10:15.999Z</time></trkpt><trkpt lat="44.120343791595886" lon="12.166327550855755"><ele>102.0</ele><time>2026-04-12T10:10:16.999Z</time></trkpt><trkpt lat="44.12025529856005" lon="12.166176245285579"><ele>107.0</ele><time>2026-04-12T10:10:17.999Z</time></trkpt><trkpt lat="44.12015408674607" lon="12.166039335784177"><ele>112.0</ele><time>2026-04-12T10:10:18.999Z</time></trkpt><trkpt lat="44.12008317961204" lon="12.165923921612888"><ele>117.0</ele><time>2026-04-12T10:10:19.999Z</time></trkpt><trkpt lat="44.12000051111472" lon="12.165784298049216"><ele>122.0</ele><time>2026-04-12T10:10:20.999Z</time></trkpt><trkpt lat="44.11992539337234" lon="12.165640984271842"><ele>118.75</ele><time>2026-04-12T10:10:21.999Z</time></trkpt><trkpt lat="44.11990193755858" lon="12.165500359318184"><ele>115.5</ele><time>2026-04-12T10:10:22.999Z</time></trkpt><trkpt lat="44.119888328112204" lon="12.165356905363693"><ele>112.25</ele><time>2026-04-12T10:10:23.999Z</time></trkpt><trkpt lat="44.11990141200649" lon="12.165175190553558"><ele>109.0</ele><time>2026-04-12T10:10:24.999Z</time></trkpt><trkpt lat="44.119895058606375" lon="12.164997380166499"><ele>112.25</ele><time>2026-04-12T10:10:25.999Z</time></trkpt><trkpt lat="44.11988848450509" lon="12.164810934068768"><ele>115.5</ele><time>2026-04-12T10:10:26.999Z</time></trkpt><trkpt lat="44.119880776468946" lon="12.164620397557387"><ele>118.75</ele><time>2026-04-12T10:10:27.999Z</time></trkpt><trkpt lat="44.119853744271374" lon="12.164428420754351"><ele>122.0</ele><time>2026-04-12T10:10:28.999Z</time></trkpt><trkpt lat="44.11980597204508" lon="12.164238293606784"><ele>122.0</ele><time>2026-04-12T10:10:30Z</time></trkpt><trkpt lat="44.11975901034547" lon="12.164061840350932"><ele>122.0</ele><time>2026-04-12T10:10:31Z</time></trkpt><trkpt lat="44.1197230020758" lon="12.163873809351998"><ele>122.0</ele><time>2026-04-12T10:10:32Z</time></trkpt><trkpt lat="44.119712731249635" lon="12.163687258489452"><ele>122.0</ele><time>2026-04-12T10:10:33Z</time></trkpt><trkpt lat="44.119695890087506" lon="12.163519950045146"><ele>126.5</ele><time>2026-04-12T10:10:34Z</time></trkpt><trkpt lat="44.11966711737319" lon="12.163343156490505"><ele>131.0</ele><time>2026-04-12T10:10:35Z</time></trkpt><trkpt lat="44.11963597172982" lon="12.163169482518951"><ele>135.5</ele><time>2026-04-12T10:10:36Z</time></trkpt><trkpt lat="44.11961263238748" lon="12.163012550438166"><ele>140.0</ele><time>2026-04-12T10:10:37Z</time></trkpt><trkpt lat="44.11958563227724" lon="12.162872375921538"><ele>144.5</ele><time>2026-04-12T10:10:38Z</time></trkpt><trkpt lat="44.11954998002971" lon="12.162723619108794"><ele>149.0</ele><time>2026-04-12T10:10:39Z</time></trkpt><trkpt lat="44.11950213001054" lon="12.162573367094113"><ele>153.5</ele><time>2026-04-12T10:10:40Z</time></trkpt><trkpt lat="44.11942737225455" lon="12.16244973572249"><ele>158.0</ele><time>2026-04-12T10:10:41Z</time></trkpt><trkpt lat="44.11933241746342" lon="12.162305541693367"><ele>160.25</ele><time>2026-04-12T10:10:42Z</time></trkpt><trkpt lat="44.119228461304644" lon="12.162163928523634"><ele>162.5</ele><time>2026-04-12T10:10:43Z</time></trkpt><trkpt lat="44.119123774459524" lon="12.162029156198939"><ele>164.75</ele><time>2026-04-12T10:10:44Z</time></trkpt><trkpt lat="44.119029338741605" lon="12.161888199154484"><ele>167.0</ele><time>2026-04-12T10:10:45Z</time></trkpt><trkpt lat="44.11892310907136" lon="12.161726015005906"><ele>167.0</ele><time>2026-04-12T10:10:46Z</time></trkpt><trkpt lat="44.118830765757885" lon="12.16154727247187"><ele>167.0</ele><time>2026-04-12T10:10:47Z</time></trkpt><trkpt lat="44.11877359001251" lon="12.161372027011335"><ele>167.0</ele><time>2026-04-12T10:10:48Z</time></trkpt><trkpt lat="44.11870443661947" lon="12.161231627535125"><ele>167.0</ele><time>2026-04-12T10:10:49Z</time></trkpt><trkpt lat="44.11862323440693" lon="12.161105395694157"><ele>170.6</ele><time>2026-04-12T10:10:50Z</time></trkpt><trkpt lat="44.118566297048474" lon="12.160955653603123"><ele>174.2</ele><time>2026-04-12T10:10:51Z</time></trkpt><trkpt lat="44.118530028841235" lon="12.160827498016529"><ele>177.8</ele><time>2026-04-12T10:10:52Z</time></trkpt><trkpt lat="44.118523584902164" lon="12.160726330851395"><ele>181.4</ele><time>2026-04-12T10:10:53Z</time></trkpt><trkpt lat="44.118522917307764" lon="12.160632769400571"><ele>185.0</ele><time>2026-04-12T10:10:54Z</time></trkpt><trkpt lat="44.118497211239905" lon="12.160389705317913"><ele>185.8</ele><time>2026-04-12T10:10:56Z</time></trkpt><trkpt lat="44.118408406082196" lon="12.160302387642075"><ele>186.6</ele><time>2026-04-12T10:10:57Z</time></trkpt><trkpt lat="44.118358262737246" lon="12.160227199034468"><ele>187.39999999999998</ele><time>2026-04-12T10:10:58Z</time></trkpt><trkpt lat="44.118285018169985" lon="12.16015295572028"><ele>188.2</ele><time>2026-04-12T10:10:59Z</time></trkpt><trkpt lat="44.118189447478706" lon="12.160052389875329"><ele>189.0</ele><time>2026-04-12T10:11:00Z</time></trkpt><trkpt lat="44.118139658848605" lon="12.159976060229237"><ele>189.66666666666666</ele><time>2026-04-12T10:11:01Z</time></trkpt><trkpt lat="44.118046665525014" lon="12.1599234078821"><ele>190.33333333333331</ele><time>2026-04-12T10:11:03Z</time></trkpt><trkpt lat="44.11796900247266" lon="12.159955892845034"><ele>191.0</ele><time>2026-04-12T10:11:04Z</time></trkpt><trkpt lat="44.11789180059005" lon="12.160021540733707"><ele>191.66666666666666</ele><time>2026-04-12T10:11:06Z</time></trkpt><trkpt lat="44.117827185985796" lon="12.159963801551338"><ele>192.33333333333331</ele><time>2026-04-12T10:11:09Z</time></trkpt><trkpt lat="44.11775288943927" lon="12.15991682637471"><ele>193.0</ele><time>2026-04-12T10:11:45Z</time></trkpt><trkpt lat="44.1176814208597" lon="12.15985881557995"><ele>194.99999999999997</ele><time>2026-04-12T10:11:46Z</time></trkpt><trkpt lat="44.11763491995961" lon="12.159797458122833"><ele>197.0</ele><time>2026-04-12T10:11:47Z</time></trkpt><trkpt lat="44.11758465122819" lon="12.159733633415888"><ele>199.0</ele><time>2026-04-12T10:11:48Z</time></trkpt><trkpt lat="44.117522662848394" lon="12.159656962554557"><ele>201.0</ele><time>2026-04-12T10:11:49Z</time></trkpt><trkpt lat="44.11745202536944" lon="12.159580350003354"><ele>202.99999999999997</ele><time>2026-04-12T10:11:50Z</time></trkpt><trkpt lat="44.11735832965736" lon="12.159503417339193"><ele>205.0</ele><time>2026-04-12T10:11:51Z</time></trkpt><trkpt lat="44.11725099127655" lon="12.159433848891416"><ele>205.8</ele><time>2026-04-12T10:11:52Z</time></trkpt><trkpt lat="44.11715466760235" lon="12.159369238258343"><ele>206.6</ele><time>2026-04-12T10:11:53Z</time></trkpt><trkpt lat="44.117038692401934" lon="12.15925960261749"><ele>207.39999999999998</ele><time>2026-04-12T10:11:56Z</time></trkpt><trkpt lat="44.11698605795581" lon="12.159192247926171"><ele>208.2</ele><time>2026-04-12T10:11:57Z</time></trkpt><trkpt lat="44.11691416979128" lon="12.159092097334854"><ele>209.0</ele><time>2026-04-12T10:11:58Z</time></trkpt><trkpt lat="44.11684616957445" lon="12.15900460880398"><ele>214.25</ele><time>2026-04-12T10:11:59Z</time></trkpt><trkpt lat="44.11672713543932" lon="12.158902025526132"><ele>219.5</ele><time>2026-04-12T10:12:00Z</time></trkpt><trkpt lat="44.116605921984046" lon="12.158861305862892"><ele>224.75</ele><time>2026-04-12T10:12:01Z</time></trkpt><trkpt lat="44.116486638955884" lon="12.158783479294382"><ele>230.0</ele><time>2026-04-12T10:12:02Z</time></trkpt><trkpt lat="44.11636549181545" lon="12.158721656010643"><ele>231.25</ele><time>2026-04-12T10:12:03Z</time></trkpt><trkpt lat="44.11621807834071" lon="12.158639771748733"><ele>232.5</ele><time>2026-04-12T10:12:04Z</time></trkpt><trkpt lat="44.11611293282232" lon="12.158576431080771"><ele>233.75</ele><time>2026-04-12T10:12:05Z</time></trkpt><trkpt lat="44.11599138175801" lon="12.15847731004795"><ele>235.0</ele><time>2026-04-12T10:12:06Z</time></trkpt><trkpt lat="44.11587452440196" lon="12.15839722426584"><ele>234.99999999999997</ele><time>2026-04-12T10:12:07Z</time></trkpt><trkpt lat="44.115764996489176" lon="12.158351386363154"><ele>235.0</ele><time>2026-04-12T10:12:07.999Z</time></trkpt><trkpt lat="44.115676530889424" lon="12.158345793024852"><ele>235.0</ele><time>2026-04-12T10:12:08.999Z</time></trkpt><trkpt lat="44.11558454761508" lon="12.158351625589027"><ele>235.0</ele><time>2026-04-12T10:12:09.999Z</time></trkpt><trkpt lat="44.115520818273204" lon="12.158358499451294"><ele>234.99999999999997</ele><time>2026-04-12T10:12:10.999Z</time></trkpt><trkpt lat="44.11545152051284" lon="12.15835522746447"><ele>235.0</ele><time>2026-04-12T10:12:11.999Z</time></trkpt><trkpt lat="44.115395074849594" lon="12.1583069333053"><ele>236.4</ele><time>2026-04-12T10:12:12.999Z</time></trkpt><trkpt lat="44.11533236859059" lon="12.158296609539892"><ele>237.8</ele><time>2026-04-12T10:12:13.999Z</time></trkpt><trkpt lat="44.115187624076036" lon="12.158338486303917"><ele>239.2</ele><time>2026-04-12T10:12:15.999Z</time></trkpt><trkpt lat="44.11510895696382" lon="12.158343814879098"><ele>240.6</ele><time>2026-04-12T10:12:17.999Z</time></trkpt><trkpt lat="44.11515940042932" lon="12.15822430074019"><ele>242.0</ele><time>2026-04-12T10:12:25.999Z</time></trkpt><trkpt lat="44.11525102754576" lon="12.158136374837234"><ele>243.0</ele><time>2026-04-12T10:12:27.999Z</time></trkpt><trkpt lat="44.11523050445247" lon="12.15801997962711"><ele>244.0</ele><time>2026-04-12T10:12:32.999Z</time></trkpt><trkpt lat="44.11512673355677" lon="12.157936067770109"><ele>245.0</ele><time>2026-04-12T10:12:33.999Z</time></trkpt><trkpt lat="44.11501694231589" lon="12.157895288669808"><ele>246.0</ele><time>2026-04-12T10:12:34.999Z</time></trkpt><trkpt lat="44.1149063299826" lon="12.157880796173036"><ele>247.0</ele><time>2026-04-12T10:12:36.001Z</time></trkpt><trkpt lat="44.11483500406149" lon="12.157900211225298"><ele>246.99999999999997</ele><time>2026-04-12T10:12:37.001Z</time></trkpt><trkpt lat="44.114784193443924" lon="12.157952061021396"><ele>247.0</ele><time>2026-04-12T10:12:38.001Z</time></trkpt><trkpt lat="44.11469997169014" lon="12.157991247101194"><ele>247.0</ele><time>2026-04-12T10:12:39.001Z</time></trkpt><trkpt lat="44.11462718898398" lon="12.157968589631723"><ele>247.0</ele><time>2026-04-12T10:12:40.001Z</time></trkpt><trkpt lat="44.11455434945321" lon="12.157939849081696"><ele>246.99999999999997</ele><time>2026-04-12T10:12:41.001Z</time></trkpt><trkpt lat="44.11448527200355" lon="12.157893882028995"><ele>247.0</ele><time>2026-04-12T10:12:42.001Z</time></trkpt><trkpt lat="44.11438742977885" lon="12.157864519164661"><ele>247.0</ele><time>2026-04-12T10:12:44.001Z</time></trkpt><trkpt lat="44.11433245648842" lon="12.15781773871102"><ele>247.0</ele><time>2026-04-12T10:12:46.001Z</time></trkpt><trkpt lat="44.11430120296731" lon="12.157687587571994"><ele>247.0</ele><time>2026-04-12T10:12:47.001Z</time></trkpt><trkpt lat="44.11422251673903" lon="12.157543858106802"><ele>247.0</ele><time>2026-04-12T10:12:48.001Z</time></trkpt><trkpt lat="44.11416015884629" lon="12.157375687562801"><ele>247.0</ele><time>2026-04-12T10:12:49.001Z</time></trkpt><trkpt lat="44.11409527398956" lon="12.157202536591972"><ele>243.75</ele><time>2026-04-12T10:12:50Z</time></trkpt><trkpt lat="44.11401611983715" lon="12.157020955406155"><ele>240.5</ele><time>2026-04-12T10:12:51Z</time></trkpt><trkpt lat="44.11393544088375" lon="12.156831029470977"><ele>237.25</ele><time>2026-04-12T10:12:52Z</time></trkpt><trkpt lat="44.11391112127992" lon="12.156689165736408"><ele>234.0</ele><time>2026-04-12T10:12:53Z</time></trkpt><trkpt lat="44.113935979789424" lon="12.156572250723702"><ele>233.25</ele><time>2026-04-12T10:12:54Z</time></trkpt><trkpt lat="44.114010855021476" lon="12.156472912821659"><ele>232.5</ele><time>2026-04-12T10:12:55Z</time></trkpt><trkpt lat="44.114123292901766" lon="12.156394109689352"><ele>231.75</ele><time>2026-04-12T10:12:56Z</time></trkpt><trkpt lat="44.114248926655904" lon="12.156325945529305"><ele>231.0</ele><time>2026-04-12T10:12:57Z</time></trkpt><trkpt lat="44.114371385490614" lon="12.156250006925903"><ele>238.0</ele><time>2026-04-12T10:12:58Z</time></trkpt><trkpt lat="44.11449565465114" lon="12.156137876457144"><ele>245.0</ele><time>2026-04-12T10:12:59Z</time></trkpt><trkpt lat="44.11461086265843" lon="12.155965891320518"><ele>252.0</ele><time>2026-04-12T10:13:00Z</time></trkpt><trkpt lat="44.11467407262967" lon="12.155780512718572"><ele>250.0</ele><time>2026-04-12T10:13:01Z</time></trkpt><trkpt lat="44.11471001454173" lon="12.155554548524565"><ele>248.0</ele><time>2026-04-12T10:13:02Z</time></trkpt><trkpt lat="44.11476060002225" lon="12.15536917378623"><ele>246.0</ele><time>2026-04-12T10:13:03Z</time></trkpt><trkpt lat="44.11486768254623" lon="12.155283644426927"><ele>244.0</ele><time>2026-04-12T10:13:04Z</time></trkpt><trkpt lat="44.11499056635111" lon="12.15517121918214"><ele>250.75</ele><time>2026-04-12T10:13:05Z</time></trkpt><trkpt lat="44.11511378603738" lon="12.155031329722021"><ele>257.5</ele><time>2026-04-12T10:13:06Z</time></trkpt><trkpt lat="44.115229663034256" lon="12.154910833083678"><ele>264.25</ele><time>2026-04-12T10:13:07Z</time></trkpt><trkpt lat="44.115342398638276" lon="12.154796281339301"><ele>271.0</ele><time>2026-04-12T10:13:08Z</time></trkpt><trkpt lat="44.115432036990576" lon="12.154665531102198"><ele>271.40000000000003</ele><time>2026-04-12T10:13:09Z</time></trkpt><trkpt lat="44.11552057723459" lon="12.154557917757282"><ele>271.8</ele><time>2026-04-12T10:13:10Z</time></trkpt><trkpt lat="44.11558305940477" lon="12.154450538150806"><ele>272.20000000000005</ele><time>2026-04-12T10:13:11Z</time></trkpt><trkpt lat="44.11564343769245" lon="12.154523010962361"><ele>272.6</ele><time>2026-04-12T10:13:15Z</time></trkpt><trkpt lat="44.11560425983509" lon="12.154605079759499"><ele>273.0</ele><time>2026-04-12T10:13:17Z</time></trkpt><trkpt lat="44.115534264678494" lon="12.154690140746357"><ele>273.0</ele><time>2026-04-12T10:13:22Z</time></trkpt><trkpt lat="44.11548059187577" lon="12.154775208098906"><ele>273.0</ele><time>2026-04-12T10:13:23Z</time></trkpt><trkpt lat="44.11544946620544" lon="12.15489611819796"><ele>273.0</ele><time>2026-04-12T10:13:24Z</time></trkpt><trkpt lat="44.115426263654705" lon="12.155038519893791"><ele>273.0</ele><time>2026-04-12T10:13:25Z</time></trkpt><trkpt lat="44.11545728646598" lon="12.155228894367003"><ele>273.0</ele><time>2026-04-12T10:13:26Z</time></trkpt><trkpt lat="44.11552654352179" lon="12.155381924865186"><ele>272.6</ele><time>2026-04-12T10:13:27Z</time></trkpt><trkpt lat="44.11559267668071" lon="12.155504985572197"><ele>272.20000000000005</ele><time>2026-04-12T10:13:28Z</time></trkpt><trkpt lat="44.11566353642477" lon="12.155595931753854"><ele>271.8</ele><time>2026-04-12T10:13:29Z</time></trkpt><trkpt lat="44.115732341608286" lon="12.155660589717494"><ele>271.40000000000003</ele><time>2026-04-12T10:13:30Z</time></trkpt><trkpt lat="44.11584726571613" lon="12.155664529518923"><ele>271.0</ele><time>2026-04-12T10:13:31Z</time></trkpt><trkpt lat="44.11593635411365" lon="12.155656269015925"><ele>274.2</ele><time>2026-04-12T10:13:32Z</time></trkpt><trkpt lat="44.116035897399804" lon="12.155546062153885"><ele>277.40000000000003</ele><time>2026-04-12T10:13:34Z</time></trkpt><trkpt lat="44.11605516001519" lon="12.155445878143894"><ele>280.6</ele><time>2026-04-12T10:13:35Z</time></trkpt><trkpt lat="44.11608091877469" lon="12.155317495612797"><ele>283.8</ele><time>2026-04-12T10:13:36Z</time></trkpt><trkpt lat="44.116127654018406" lon="12.1551971698113"><ele>287.0</ele><time>2026-04-12T10:13:37Z</time></trkpt><trkpt lat="44.1161939688504" lon="12.1550834256034"><ele>287.0</ele><time>2026-04-12T10:13:38Z</time></trkpt><trkpt lat="44.116266603971766" lon="12.154959684368501"><ele>287.0</ele><time>2026-04-12T10:13:39Z</time></trkpt><trkpt lat="44.11633721871452" lon="12.15482356154945"><ele>287.0</ele><time>2026-04-12T10:13:40Z</time></trkpt><trkpt lat="44.11638856021464" lon="12.154689706814187"><ele>287.0</ele><time>2026-04-12T10:13:41Z</time></trkpt><trkpt lat="44.116412062680304" lon="12.154552145520837"><ele>287.0</ele><time>2026-04-12T10:13:42Z</time></trkpt><trkpt lat="44.116419927565154" lon="12.15439630201204"><ele>287.5</ele><time>2026-04-12T10:13:43Z</time></trkpt><trkpt lat="44.11640236386306" lon="12.154238278961646"><ele>288.0</ele><time>2026-04-12T10:13:44Z</time></trkpt><trkpt lat="44.11636818580516" lon="12.15407714732434"><ele>288.5</ele><time>2026-04-12T10:13:45Z</time></trkpt><trkpt lat="44.11632485716074" lon="12.153926131973694"><ele>289.0</ele><time>2026-04-12T10:13:46Z</time></trkpt><trkpt lat="44.11629020602838" lon="12.153785287354038"><ele>290.2</ele><time>2026-04-12T10:13:47Z</time></trkpt><trkpt lat="44.11626705850425" lon="12.153659616904966"><ele>291.4</ele><time>2026-04-12T10:13:48Z</time></trkpt><trkpt lat="44.1162209787922" lon="12.15352668149731"><ele>292.6</ele><time>2026-04-12T10:13:49Z</time></trkpt><trkpt lat="44.116154884506265" lon="12.153386983061733"><ele>293.8</ele><time>2026-04-12T10:13:50Z</time></trkpt><trkpt lat="44.11608153872082" lon="12.153243538828882"><ele>295.0</ele><time>2026-04-12T10:13:51Z</time></trkpt><trkpt lat="44.11601222790054" lon="12.153093185483568"><ele>295.25</ele><time>2026-04-12T10:13:52Z</time></trkpt><trkpt lat="44.11593657939812" lon="12.152933193155505"><ele>295.5</ele><time>2026-04-12T10:13:53Z</time></trkpt><trkpt lat="44.11586710230284" lon="12.152767442408262"><ele>295.75</ele><time>2026-04-12T10:13:53.999Z</time></trkpt><trkpt lat="44.115809902477665" lon="12.152599489579908"><ele>296.0</ele><time>2026-04-12T10:13:54.999Z</time></trkpt><trkpt lat="44.11579843072763" lon="12.15241893249224"><ele>293.75</ele><time>2026-04-12T10:13:55.999Z</time></trkpt><trkpt lat="44.115769959624096" lon="12.152241550850315"><ele>291.5</ele><time>2026-04-12T10:13:56.999Z</time></trkpt><trkpt lat="44.11576062334113" lon="12.152065606731625"><ele>289.25</ele><time>2026-04-12T10:13:57.999Z</time></trkpt><trkpt lat="44.11572453402295" lon="12.15191305234934"><ele>287.0</ele><time>2026-04-12T10:13:58.999Z</time></trkpt><trkpt lat="44.11565794312774" lon="12.151766724325784"><ele>290.25</ele><time>2026-04-12T10:13:59.999Z</time></trkpt><trkpt lat="44.11557767058584" lon="12.151626226360115"><ele>293.5</ele><time>2026-04-12T10:14:00.999Z</time></trkpt><trkpt lat="44.1155317974273" lon="12.151465415640963"><ele>296.75</ele><time>2026-04-12T10:14:01.999Z</time></trkpt><trkpt lat="44.115474655004355" lon="12.15130856830545"><ele>300.0</ele><time>2026-04-12T10:14:02.999Z</time></trkpt><trkpt lat="44.11541798006349" lon="12.151156010233453"><ele>300.0</ele><time>2026-04-12T10:14:03.999Z</time></trkpt><trkpt lat="44.11538967820504" lon="12.15097729132775"><ele>300.0</ele><time>2026-04-12T10:14:04.999Z</time></trkpt><trkpt lat="44.1153670399785" lon="12.150799755176319"><ele>300.0</ele><time>2026-04-12T10:14:05.999Z</time></trkpt><trkpt lat="44.11535043512347" lon="12.150651928766143"><ele>300.0</ele><time>2026-04-12T10:14:06.999Z</time></trkpt><trkpt lat="44.11533016084895" lon="12.150537791531034"><ele>298.4</ele><time>2026-04-12T10:14:07.999Z</time></trkpt><trkpt lat="44.115302474403165" lon="12.150441234496856"><ele>296.8</ele><time>2026-04-12T10:14:08.999Z</time></trkpt><trkpt lat="44.115262858670306" lon="12.150357694756693"><ele>295.2</ele><time>2026-04-12T10:14:10.999Z</time></trkpt><trkpt lat="44.11533556338959" lon="12.150235767220105"><ele>293.6</ele><time>2026-04-12T10:14:12.999Z</time></trkpt><trkpt lat="44.11539851023643" lon="12.150120441704535"><ele>292.0</ele><time>2026-04-12T10:14:13.999Z</time></trkpt><trkpt lat="44.115457203186686" lon="12.149987531295386"><ele>291.5</ele><time>2026-04-12T10:14:14.999Z</time></trkpt><trkpt lat="44.11553506230286" lon="12.149852203166287"><ele>291.0</ele><time>2026-04-12T10:14:15.999Z</time></trkpt><trkpt lat="44.11559925882256" lon="12.149679297030515"><ele>290.5</ele><time>2026-04-12T10:14:16.999Z</time></trkpt><trkpt lat="44.11567971042451" lon="12.149513900973778"><ele>290.0</ele><time>2026-04-12T10:14:17.999Z</time></trkpt><trkpt lat="44.11575871138243" lon="12.149351523088965"><ele>290.0</ele><time>2026-04-12T10:14:18.999Z</time></trkpt><trkpt lat="44.115829638397805" lon="12.14921385644723"><ele>290.0</ele><time>2026-04-12T10:14:19.999Z</time></trkpt><trkpt lat="44.115902990900445" lon="12.149077444978326"><ele>290.0</ele><time>2026-04-12T10:14:20.999Z</time></trkpt><trkpt lat="44.115962337753274" lon="12.148947037990414"><ele>290.0</ele><time>2026-04-12T10:14:21.999Z</time></trkpt><trkpt lat="44.116001259738944" lon="12.148799160671887"><ele>289.0</ele><time>2026-04-12T10:14:22.999Z</time></trkpt><trkpt lat="44.11601013052669" lon="12.14865230538574"><ele>288.0</ele><time>2026-04-12T10:14:23.999Z</time></trkpt><trkpt lat="44.11598664970224" lon="12.148467928599903"><ele>287.0</ele><time>2026-04-12T10:14:24.999Z</time></trkpt><trkpt lat="44.11594948875624" lon="12.148258418117065"><ele>286.0</ele><time>2026-04-12T10:14:25.999Z</time></trkpt><trkpt lat="44.115920784726235" lon="12.148063617196273"><ele>286.0</ele><time>2026-04-12T10:14:26.999Z</time></trkpt><trkpt lat="44.115907899246466" lon="12.147927393657472"><ele>286.0</ele><time>2026-04-12T10:14:27.999Z</time></trkpt><trkpt lat="44.11589270658884" lon="12.147827163135595"><ele>286.0</ele><time>2026-04-12T10:14:30.999Z</time></trkpt><trkpt lat="44.115745343219075" lon="12.147751543809514"><ele>286.0</ele><time>2026-04-12T10:14:31.999Z</time></trkpt><trkpt lat="44.11566334728291" lon="12.14765182054525"><ele>286.0</ele><time>2026-04-12T10:14:32.999Z</time></trkpt><trkpt lat="44.11562116248908" lon="12.147580051572682"><ele>285.3333333333333</ele><time>2026-04-12T10:14:33.999Z</time></trkpt><trkpt lat="44.115607221584604" lon="12.147465596122903"><ele>284.66666666666663</ele><time>2026-04-12T10:14:35.999Z</time></trkpt><trkpt lat="44.11563976378576" lon="12.147371169131757"><ele>284.0</ele><time>2026-04-12T10:14:36.999Z</time></trkpt><trkpt lat="44.115626359710774" lon="12.147251164385057"><ele>283.3333333333333</ele><time>2026-04-12T10:14:37.999Z</time></trkpt><trkpt lat="44.11559641181532" lon="12.147148225125678"><ele>282.6666666666667</ele><time>2026-04-12T10:14:38.999Z</time></trkpt><trkpt lat="44.115578525205784" lon="12.147030823681312"><ele>282.0</ele><time>2026-04-12T10:14:39.999Z</time></trkpt><trkpt lat="44.11558127980103" lon="12.146867580180569"><ele>282.0</ele><time>2026-04-12T10:14:40.999Z</time></trkpt><trkpt lat="44.11558065155941" lon="12.146699742525165"><ele>282.0</ele><time>2026-04-12T10:14:42Z</time></trkpt><trkpt lat="44.11558606230282" lon="12.146554225009137"><ele>282.0</ele><time>2026-04-12T10:14:43Z</time></trkpt><trkpt lat="44.11558930046945" lon="12.146458936615998"><ele>282.0</ele><time>2026-04-12T10:14:44Z</time></trkpt><trkpt lat="44.11560127161787" lon="12.146342511911012"><ele>282.0</ele><time>2026-04-12T10:14:45Z</time></trkpt><trkpt lat="44.11561038832578" lon="12.14625049569711"><ele>282.0</ele><time>2026-04-12T10:14:46Z</time></trkpt><trkpt lat="44.11563384882664" lon="12.14616489916266"><ele>282.25</ele><time>2026-04-12T10:14:48Z</time></trkpt><trkpt lat="44.115561000998085" lon="12.145957144770875"><ele>282.5</ele><time>2026-04-12T10:14:50Z</time></trkpt><trkpt lat="44.11551453777877" lon="12.145827908350686"><ele>282.75</ele><time>2026-04-12T10:14:51Z</time></trkpt><trkpt lat="44.11548809049818" lon="12.145652054938937"><ele>283.0</ele><time>2026-04-12T10:14:52Z</time></trkpt><trkpt lat="44.115434971359235" lon="12.145471420183403"><ele>283.0</ele><time>2026-04-12T10:14:53Z</time></trkpt><trkpt lat="44.1154184150329" lon="12.14525342809684"><ele>283.0</ele><time>2026-04-12T10:14:54Z</time></trkpt><trkpt lat="44.1153747511247" lon="12.14503923211871"><ele>283.0</ele><time>2026-04-12T10:14:55Z</time></trkpt><trkpt lat="44.11535997340077" lon="12.14485498045276"><ele>288.3333333333333</ele><time>2026-04-12T10:14:56Z</time></trkpt><trkpt lat="44.115315626161205" lon="12.144679770013607"><ele>293.6666666666667</ele><time>2026-04-12T10:14:57Z</time></trkpt><trkpt lat="44.11522251382192" lon="12.144511540746697"><ele>299.0</ele><time>2026-04-12T10:14:58Z</time></trkpt><trkpt lat="44.1150897112291" lon="12.144369716806947"><ele>299.0</ele><time>2026-04-12T10:14:59Z</time></trkpt><trkpt lat="44.11493595967227" lon="12.144250126623994"><ele>299.0</ele><time>2026-04-12T10:15:00Z</time></trkpt><trkpt lat="44.114789210561476" lon="12.144168637356344"><ele>299.0</ele><time>2026-04-12T10:15:01Z</time></trkpt><trkpt lat="44.114656958026906" lon="12.144059415736592"><ele>298.25</ele><time>2026-04-12T10:15:02Z</time></trkpt><trkpt lat="44.11453284320987" lon="12.143960666734625"><ele>297.5</ele><time>2026-04-12T10:15:03Z</time></trkpt><trkpt lat="44.1144552239469" lon="12.143853446596625"><ele>296.75</ele><time>2026-04-12T10:15:04Z</time></trkpt><trkpt lat="44.11443572303099" lon="12.143742678834098"><ele>296.0</ele><time>2026-04-12T10:15:05Z</time></trkpt><trkpt lat="44.11448415778175" lon="12.143594757589607"><ele>296.0</ele><time>2026-04-12T10:15:06Z</time></trkpt><trkpt lat="44.114516414039294" lon="12.143394238532919"><ele>296.0</ele><time>2026-04-12T10:15:07Z</time></trkpt><trkpt lat="44.114561973727646" lon="12.143149290024013"><ele>296.0</ele><time>2026-04-12T10:15:08Z</time></trkpt><trkpt lat="44.11458555788964" lon="12.142920975052483"><ele>296.40000000000003</ele><time>2026-04-12T10:15:09Z</time></trkpt><trkpt lat="44.11460839674462" lon="12.142745920650265"><ele>296.8</ele><time>2026-04-12T10:15:10Z</time></trkpt><trkpt lat="44.11462891238062" lon="12.14260600651061"><ele>297.20000000000005</ele><time>2026-04-12T10:15:11Z</time></trkpt><trkpt lat="44.11464653189422" lon="12.14248182712462"><ele>297.6</ele><time>2026-04-12T10:15:12Z</time></trkpt><trkpt lat="44.11464285310884" lon="12.142385061147031"><ele>298.0</ele><time>2026-04-12T10:15:13Z</time></trkpt><trkpt lat="44.11450991259821" lon="12.142294545311676"><ele>298.0</ele><time>2026-04-12T10:15:15Z</time></trkpt><trkpt lat="44.11439888075607" lon="12.142194352147937"><ele>298.0</ele><time>2026-04-12T10:15:16Z</time></trkpt><trkpt lat="44.114262304277375" lon="12.142088297510405"><ele>298.0</ele><time>2026-04-12T10:15:17Z</time></trkpt><trkpt lat="44.11412246342063" lon="12.141947510140016"><ele>295.3333333333333</ele><time>2026-04-12T10:15:18Z</time></trkpt><trkpt lat="44.11397027521597" lon="12.14180029225777"><ele>292.6666666666667</ele><time>2026-04-12T10:15:19Z</time></trkpt><trkpt lat="44.11383893749022" lon="12.141640831447239"><ele>290.0</ele><time>2026-04-12T10:15:20Z</time></trkpt><trkpt lat="44.113714307660935" lon="12.141543408942251"><ele>290.0</ele><time>2026-04-12T10:15:21Z</time></trkpt><trkpt lat="44.11360318453525" lon="12.141427922597318"><ele>290.0</ele><time>2026-04-12T10:15:22Z</time></trkpt><trkpt lat="44.11348894731329" lon="12.141329855911623"><ele>290.0</ele><time>2026-04-12T10:15:23Z</time></trkpt><trkpt lat="44.11332445046647" lon="12.141322387806609"><ele>290.0</ele><time>2026-04-12T10:15:24Z</time></trkpt><trkpt lat="44.11314601434178" lon="12.141327779528464"><ele>291.33333333333337</ele><time>2026-04-12T10:15:25Z</time></trkpt><trkpt lat="44.11296648960247" lon="12.141320037010566"><ele>292.6666666666667</ele><time>2026-04-12T10:15:26Z</time></trkpt><trkpt lat="44.11280248297627" lon="12.141326026811484"><ele>294.0</ele><time>2026-04-12T10:15:27Z</time></trkpt><trkpt lat="44.112657664629246" lon="12.14133611082023"><ele>294.0</ele><time>2026-04-12T10:15:28Z</time></trkpt><trkpt lat="44.11251423459645" lon="12.141366243048026"><ele>294.0</ele><time>2026-04-12T10:15:29Z</time></trkpt><trkpt lat="44.11237386365657" lon="12.141470576679675"><ele>294.0</ele><time>2026-04-12T10:15:30Z</time></trkpt><trkpt lat="44.1122308132277" lon="12.14162072121012"><ele>291.5</ele><time>2026-04-12T10:15:31Z</time></trkpt><trkpt lat="44.11209794614451" lon="12.14175836851604"><ele>289.0</ele><time>2026-04-12T10:15:32Z</time></trkpt><trkpt lat="44.111982213861474" lon="12.141860627261392"><ele>286.5</ele><time>2026-04-12T10:15:33Z</time></trkpt><trkpt lat="44.111855751088946" lon="12.14192209081171"><ele>284.0</ele><time>2026-04-12T10:15:34Z</time></trkpt><trkpt lat="44.111706526200926" lon="12.14195362372383"><ele>281.6666666666667</ele><time>2026-04-12T10:15:35Z</time></trkpt><trkpt lat="44.111550917068875" lon="12.141920914723288"><ele>279.3333333333333</ele><time>2026-04-12T10:15:36Z</time></trkpt><trkpt lat="44.111393452118264" lon="12.141881182576695"><ele>277.0</ele><time>2026-04-12T10:15:37Z</time></trkpt><trkpt lat="44.111214430237304" lon="12.141825343357329"><ele>277.0</ele><time>2026-04-12T10:15:38Z</time></trkpt><trkpt lat="44.11103549065581" lon="12.141793414103589"><ele>277.0</ele><time>2026-04-12T10:15:39Z</time></trkpt><trkpt lat="44.11085254187689" lon="12.141739545332173"><ele>277.0</ele><time>2026-04-12T10:15:40Z</time></trkpt><trkpt lat="44.1106610358248" lon="12.141690054763833"><ele>276.5</ele><time>2026-04-12T10:15:41Z</time></trkpt><trkpt lat="44.11044874738858" lon="12.141649020008272"><ele>276.0</ele><time>2026-04-12T10:15:42Z</time></trkpt><trkpt lat="44.110213622063384" lon="12.14160618161156"><ele>276.0</ele><time>2026-04-12T10:15:43Z</time></trkpt><trkpt lat="44.10998894488899" lon="12.141587391367326"><ele>276.0</ele><time>2026-04-12T10:15:44Z</time></trkpt><trkpt lat="44.1097705578668" lon="12.14151602159984"><ele>276.0</ele><time>2026-04-12T10:15:45Z</time></trkpt><trkpt lat="44.10958528138917" lon="12.141488106066836"><ele>273.3333333333333</ele><time>2026-04-12T10:15:46Z</time></trkpt><trkpt lat="44.10941167111333" lon="12.141429099793127"><ele>270.66666666666663</ele><time>2026-04-12T10:15:47Z</time></trkpt><trkpt lat="44.10924592600843" lon="12.141385880561435"><ele>268.0</ele><time>2026-04-12T10:15:48Z</time></trkpt><trkpt lat="44.109073759476544" lon="12.141396779059317"><ele>266.3333333333333</ele><time>2026-04-12T10:15:49Z</time></trkpt><trkpt lat="44.10886798442404" lon="12.141403342588427"><ele>264.6666666666667</ele><time>2026-04-12T10:15:50Z</time></trkpt><trkpt lat="44.10867007198838" lon="12.141431872519327"><ele>263.0</ele><time>2026-04-12T10:15:50.999Z</time></trkpt><trkpt lat="44.108496061882384" lon="12.141460427325265"><ele>263.0</ele><time>2026-04-12T10:15:51.999Z</time></trkpt><trkpt lat="44.10833967888982" lon="12.141512115022786"><ele>263.0</ele><time>2026-04-12T10:15:52.999Z</time></trkpt><trkpt lat="44.10816335963103" lon="12.141547059315362"><ele>263.0</ele><time>2026-04-12T10:15:53.999Z</time></trkpt><trkpt lat="44.10797965850207" lon="12.14156436258152"><ele>266.0</ele><time>2026-04-12T10:15:54.999Z</time></trkpt><trkpt lat="44.10778755836066" lon="12.141612271811953"><ele>269.0</ele><time>2026-04-12T10:15:55.999Z</time></trkpt><trkpt lat="44.107604436452256" lon="12.141671793383194"><ele>272.0</ele><time>2026-04-12T10:15:56.999Z</time></trkpt><trkpt lat="44.10744254742623" lon="12.14172579899849"><ele>270.33333333333337</ele><time>2026-04-12T10:15:57.999Z</time></trkpt><trkpt lat="44.10726677699767" lon="12.141777879845536"><ele>268.6666666666667</ele><time>2026-04-12T10:15:58.999Z</time></trkpt><trkpt lat="44.10709681972912" lon="12.14179819354372"><ele>267.0</ele><time>2026-04-12T10:15:59.999Z</time></trkpt><trkpt lat="44.106938383832784" lon="12.141779840543535"><ele>267.0</ele><time>2026-04-12T10:16:00.999Z</time></trkpt><trkpt lat="44.10676977257722" lon="12.141727674267377"><ele>267.0</ele><time>2026-04-12T10:16:01.999Z</time></trkpt><trkpt lat="44.10659456823503" lon="12.141641675438292"><ele>267.0</ele><time>2026-04-12T10:16:02.999Z</time></trkpt><trkpt lat="44.106430236613065" lon="12.141568835482179"><ele>267.6666666666667</ele><time>2026-04-12T10:16:03.999Z</time></trkpt><trkpt lat="44.10626296457707" lon="12.141521864449727"><ele>268.33333333333337</ele><time>2026-04-12T10:16:04.999Z</time></trkpt><trkpt lat="44.106075292872504" lon="12.141548656248036"><ele>269.0</ele><time>2026-04-12T10:16:05.999Z</time></trkpt><trkpt lat="44.10592600928676" lon="12.141574926832465"><ele>268.83333333333337</ele><time>2026-04-12T10:16:06.999Z</time></trkpt><trkpt lat="44.10580716167678" lon="12.141578540300374"><ele>268.6666666666667</ele><time>2026-04-12T10:16:07.999Z</time></trkpt><trkpt lat="44.10572134193806" lon="12.141603194839899"><ele>268.5</ele><time>2026-04-12T10:16:08.999Z</time></trkpt><trkpt lat="44.105654021461916" lon="12.14160027628062"><ele>268.3333333333333</ele><time>2026-04-12T10:16:22.999Z</time></trkpt><trkpt lat="44.10558508480889" lon="12.141623894486878"><ele>268.16666666666663</ele><time>2026-04-12T10:16:23.999Z</time></trkpt><trkpt lat="44.1054989003709" lon="12.141657549276541"><ele>268.0</ele><time>2026-04-12T10:16:24.999Z</time></trkpt><trkpt lat="44.10540685911438" lon="12.141699470847817"><ele>268.0</ele><time>2026-04-12T10:16:25.999Z</time></trkpt><trkpt lat="44.105314356514214" lon="12.141726759206662"><ele>268.0</ele><time>2026-04-12T10:16:26.999Z</time></trkpt><trkpt lat="44.10525090560507" lon="12.141788419949659"><ele>268.0</ele><time>2026-04-12T10:16:27.999Z</time></trkpt><trkpt lat="44.1051236180563" lon="12.14187323919132"><ele>268.0</ele><time>2026-04-12T10:16:29.999Z</time></trkpt><trkpt lat="44.10505029538866" lon="12.14183526587811"><ele>268.0</ele><time>2026-04-12T10:16:30.999Z</time></trkpt><trkpt lat="44.104930364637916" lon="12.141677244008138"><ele>267.8</ele><time>2026-04-12T10:16:33.999Z</time></trkpt><trkpt lat="44.1049051870641" lon="12.141481654451859"><ele>267.6</ele><time>2026-04-12T10:16:35.999Z</time></trkpt><trkpt lat="44.10488395601671" lon="12.14136908985549"><ele>267.4</ele><time>2026-04-12T10:16:36.999Z</time></trkpt><trkpt lat="44.104849975718594" lon="12.141288410377529"><ele>267.2</ele><time>2026-04-12T10:16:37.999Z</time></trkpt><trkpt lat="44.104773647155305" lon="12.141158853452836"><ele>267.0</ele><time>2026-04-12T10:16:39.999Z</time></trkpt><trkpt lat="44.10468210033834" lon="12.140983354473075"><ele>267.0</ele><time>2026-04-12T10:16:41.999Z</time></trkpt><trkpt lat="44.10472853924777" lon="12.14082601467548"><ele>267.0</ele><time>2026-04-12T10:16:42.999Z</time></trkpt><trkpt lat="44.10465979525579" lon="12.140816399690472"><ele>267.0</ele><time>2026-04-12T10:16:43.999Z</time></trkpt><trkpt lat="44.10458316414223" lon="12.140852309531024"><ele>267.0</ele><time>2026-04-12T10:16:44.999Z</time></trkpt><trkpt lat="44.104509509320586" lon="12.140921698669334"><ele>267.0</ele><time>2026-04-12T10:16:45.999Z</time></trkpt><trkpt lat="44.1044026398023" lon="12.14102776660496"><ele>267.0</ele><time>2026-04-12T10:16:46.999Z</time></trkpt><trkpt lat="44.10427299329482" lon="12.141110598517434"><ele>267.0</ele><time>2026-04-12T10:16:48Z</time></trkpt><trkpt lat="44.104154961220644" lon="12.141192809005359"><ele>267.0</ele><time>2026-04-12T10:16:49Z</time></trkpt><trkpt lat="44.10421366598324" lon="12.141136801700965"><ele>267.0</ele><time>2026-04-12T10:16:50Z</time></trkpt><trkpt lat="44.1041559533447" lon="12.141175788979695"><ele>267.0</ele><time>2026-04-12T10:16:51Z</time></trkpt><trkpt lat="44.10407298616519" lon="12.141224314172675"><ele>264.8</ele><time>2026-04-12T10:16:52Z</time></trkpt><trkpt lat="44.104005381953534" lon="12.141234363232828"><ele>262.6</ele><time>2026-04-12T10:16:53Z</time></trkpt><trkpt lat="44.10389116081462" lon="12.141173074352333"><ele>260.40000000000003</ele><time>2026-04-12T10:16:55Z</time></trkpt><trkpt lat="44.103782726972014" lon="12.141128248568899"><ele>258.2</ele><time>2026-04-12T10:16:57Z</time></trkpt><trkpt lat="44.10369850078195" lon="12.141127271638947"><ele>256.0</ele><time>2026-04-12T10:16:58Z</time></trkpt><trkpt lat="44.10358930231349" lon="12.141155502948113"><ele>256.0</ele><time>2026-04-12T10:16:59Z</time></trkpt><trkpt lat="44.10348858431949" lon="12.14118203725579"><ele>256.0</ele><time>2026-04-12T10:17:00Z</time></trkpt><trkpt lat="44.10339437493278" lon="12.14120668280621"><ele>256.0</ele><time>2026-04-12T10:17:01Z</time></trkpt><trkpt lat="44.10331078724187" lon="12.141210630315781"><ele>256.0</ele><time>2026-04-12T10:17:02Z</time></trkpt><trkpt lat="44.103228799791474" lon="12.14122168130747"><ele>256.0</ele><time>2026-04-12T10:17:03Z</time></trkpt><trkpt lat="44.103109011392895" lon="12.141225789780096"><ele>254.83333333333331</ele><time>2026-04-12T10:17:05Z</time></trkpt><trkpt lat="44.10302298618053" lon="12.141193434253296"><ele>253.66666666666666</ele><time>2026-04-12T10:17:07Z</time></trkpt><trkpt lat="44.10295617792413" lon="12.141151790633776"><ele>252.5</ele><time>2026-04-12T10:17:09Z</time></trkpt><trkpt lat="44.102859873934676" lon="12.141160419995984"><ele>251.33333333333331</ele><time>2026-04-12T10:17:13Z</time></trkpt><trkpt lat="44.10281741089796" lon="12.14122737086941"><ele>250.16666666666666</ele><time>2026-04-12T10:17:15Z</time></trkpt><trkpt lat="44.10277208395271" lon="12.141307304162847"><ele>249.0</ele><time>2026-04-12T10:17:16Z</time></trkpt><trkpt lat="44.10271663624816" lon="12.141378083195704"><ele>249.0</ele><time>2026-04-12T10:17:17Z</time></trkpt><trkpt lat="44.10264212533214" lon="12.14147480833397"><ele>248.99999999999997</ele><time>2026-04-12T10:17:18Z</time></trkpt><trkpt lat="44.102578935677435" lon="12.141590106480917"><ele>248.99999999999997</ele><time>2026-04-12T10:17:19Z</time></trkpt><trkpt lat="44.102526276126824" lon="12.141696626111457"><ele>249.0</ele><time>2026-04-12T10:17:20Z</time></trkpt><trkpt lat="44.10246677359884" lon="12.141775210901638"><ele>249.0</ele><time>2026-04-12T10:17:21Z</time></trkpt><trkpt lat="44.10235903841498" lon="12.141918658880124"><ele>253.2</ele><time>2026-04-12T10:17:23Z</time></trkpt><trkpt lat="44.10231201777833" lon="12.142030830193779"><ele>257.4</ele><time>2026-04-12T10:17:24Z</time></trkpt><trkpt lat="44.10225993682493" lon="12.142128475858728"><ele>261.6</ele><time>2026-04-12T10:17:25Z</time></trkpt><trkpt lat="44.102198087787976" lon="12.142237910303272"><ele>265.8</ele><time>2026-04-12T10:17:26Z</time></trkpt><trkpt lat="44.102147174138665" lon="12.142316651461499"><ele>270.0</ele><time>2026-04-12T10:17:27Z</time></trkpt><trkpt lat="44.10207520105272" lon="12.142416772176931"><ele>271.3333333333333</ele><time>2026-04-12T10:17:28Z</time></trkpt><trkpt lat="44.102043625005976" lon="12.142495485744755"><ele>272.6666666666667</ele><time>2026-04-12T10:17:29Z</time></trkpt><trkpt lat="44.10204390293115" lon="12.1425885545392"><ele>274.0</ele><time>2026-04-12T10:17:33Z</time></trkpt><trkpt lat="44.10200856203342" lon="12.142719371155065"><ele>275.33333333333337</ele><time>2026-04-12T10:17:35Z</time></trkpt><trkpt lat="44.10199249730582" lon="12.14280661847986"><ele>276.6666666666667</ele><time>2026-04-12T10:17:36Z</time></trkpt><trkpt lat="44.10194099660341" lon="12.14295690566714"><ele>278.0</ele><time>2026-04-12T10:17:38Z</time></trkpt><trkpt lat="44.10183538293592" lon="12.142990269192747"><ele>278.0</ele><time>2026-04-12T10:17:39Z</time></trkpt><trkpt lat="44.10176847634747" lon="12.143090762596955"><ele>278.0</ele><time>2026-04-12T10:17:40Z</time></trkpt><trkpt lat="44.10170176771666" lon="12.143194783882716"><ele>278.0</ele><time>2026-04-12T10:17:41Z</time></trkpt><trkpt lat="44.101646487903444" lon="12.143285613056179"><ele>278.0</ele><time>2026-04-12T10:17:42Z</time></trkpt><trkpt lat="44.10158827534559" lon="12.143392415122344"><ele>278.0</ele><time>2026-04-12T10:17:43Z</time></trkpt><trkpt lat="44.10154280302691" lon="12.143502723914338"><ele>283.4</ele><time>2026-04-12T10:17:44Z</time></trkpt><trkpt lat="44.10149546860673" lon="12.143630658998978"><ele>288.8</ele><time>2026-04-12T10:17:45Z</time></trkpt><trkpt lat="44.101452087916726" lon="12.143758730786283"><ele>294.2</ele><time>2026-04-12T10:17:46Z</time></trkpt><trkpt lat="44.10141971142391" lon="12.143904441945958"><ele>299.6</ele><time>2026-04-12T10:17:47Z</time></trkpt><trkpt lat="44.101353568381946" lon="12.144039283472948"><ele>305.0</ele><time>2026-04-12T10:17:48Z</time></trkpt><trkpt lat="44.101297274836526" lon="12.144185113453023"><ele>305.5</ele><time>2026-04-12T10:17:49Z</time></trkpt><trkpt lat="44.10123697428089" lon="12.14432139287961"><ele>306.0</ele><time>2026-04-12T10:17:50Z</time></trkpt><trkpt lat="44.10117214650987" lon="12.14447968243373"><ele>306.5</ele><time>2026-04-12T10:17:51Z</time></trkpt><trkpt lat="44.10107545243013" lon="12.144613644264577"><ele>307.0</ele><time>2026-04-12T10:17:52Z</time></trkpt><trkpt lat="44.100995879870744" lon="12.14474882486896"><ele>306.25</ele><time>2026-04-12T10:17:53Z</time></trkpt><trkpt lat="44.10092899955095" lon="12.144910565239293"><ele>305.5</ele><time>2026-04-12T10:17:54Z</time></trkpt><trkpt lat="44.100893557214526" lon="12.145080055161369"><ele>304.75</ele><time>2026-04-12T10:17:55Z</time></trkpt><trkpt lat="44.1008633142651" lon="12.14522959808811"><ele>304.0</ele><time>2026-04-12T10:17:56Z</time></trkpt><trkpt lat="44.10086544985495" lon="12.145366705524053"><ele>304.0</ele><time>2026-04-12T10:17:57Z</time></trkpt><trkpt lat="44.100884676958344" lon="12.145496610382583"><ele>304.0</ele><time>2026-04-12T10:17:57.999Z</time></trkpt><trkpt lat="44.100956455172835" lon="12.145619791703664"><ele>304.0</ele><time>2026-04-12T10:17:58.999Z</time></trkpt><trkpt lat="44.1009911640014" lon="12.145730511406846"><ele>304.0</ele><time>2026-04-12T10:17:59.999Z</time></trkpt><trkpt lat="44.10104978604679" lon="12.145859222442477"><ele>304.0</ele><time>2026-04-12T10:18:00.999Z</time></trkpt><trkpt lat="44.1010791247393" lon="12.145992306371015"><ele>304.66666666666663</ele><time>2026-04-12T10:18:01.999Z</time></trkpt><trkpt lat="44.10102183601168" lon="12.146124423771363"><ele>305.3333333333333</ele><time>2026-04-12T10:18:03.999Z</time></trkpt><trkpt lat="44.10092585155629" lon="12.146139462567234"><ele>306.0</ele><time>2026-04-12T10:18:04.999Z</time></trkpt><trkpt lat="44.10085781754151" lon="12.146141432550532"><ele>306.6666666666667</ele><time>2026-04-12T10:18:05.999Z</time></trkpt><trkpt lat="44.10079140328964" lon="12.146108645463304"><ele>307.33333333333337</ele><time>2026-04-12T10:18:06.999Z</time></trkpt><trkpt lat="44.10070811443103" lon="12.146027872707176"><ele>308.0</ele><time>2026-04-12T10:18:08.999Z</time></trkpt><trkpt lat="44.10067448135732" lon="12.145937765649414"><ele>308.2</ele><time>2026-04-12T10:18:09.999Z</time></trkpt><trkpt lat="44.10063533312703" lon="12.145829143440565"><ele>308.4</ele><time>2026-04-12T10:18:10.999Z</time></trkpt><trkpt lat="44.100591908616416" lon="12.145707047124219"><ele>308.59999999999997</ele><time>2026-04-12T10:18:11.999Z</time></trkpt><trkpt lat="44.10054363616787" lon="12.145586449108718"><ele>308.8</ele><time>2026-04-12T10:18:12.999Z</time></trkpt><trkpt lat="44.10049058369791" lon="12.145448947025525"><ele>309.0</ele><time>2026-04-12T10:18:13.999Z</time></trkpt><trkpt lat="44.100430391890484" lon="12.14526795440452"><ele>309.0</ele><time>2026-04-12T10:18:14.999Z</time></trkpt><trkpt lat="44.100358541077036" lon="12.145102294187108"><ele>309.0</ele><time>2026-04-12T10:18:15.999Z</time></trkpt><trkpt lat="44.10029294307145" lon="12.144966730533998"><ele>309.0</ele><time>2026-04-12T10:18:16.999Z</time></trkpt><trkpt lat="44.10023115121541" lon="12.144819965338767"><ele>309.0</ele><time>2026-04-12T10:18:17.999Z</time></trkpt><trkpt lat="44.10017813859309" lon="12.144684811263081"><ele>312.0</ele><time>2026-04-12T10:18:18.999Z</time></trkpt><trkpt lat="44.10014251809296" lon="12.144520168407992"><ele>315.0</ele><time>2026-04-12T10:18:19.999Z</time></trkpt><trkpt lat="44.10010604472245" lon="12.144348366356645"><ele>318.0</ele><time>2026-04-12T10:18:20.999Z</time></trkpt><trkpt lat="44.10006949529472" lon="12.144180108131206"><ele>321.0</ele><time>2026-04-12T10:18:21.999Z</time></trkpt><trkpt lat="44.10002920435477" lon="12.144026016724036"><ele>322.5</ele><time>2026-04-12T10:18:22.999Z</time></trkpt><trkpt lat="44.09997492515699" lon="12.143872862642215"><ele>324.0</ele><time>2026-04-12T10:18:23.999Z</time></trkpt><trkpt lat="44.099912498991124" lon="12.143733207231834"><ele>325.5</ele><time>2026-04-12T10:18:24.999Z</time></trkpt><trkpt lat="44.099844477142064" lon="12.143590288343447"><ele>327.0</ele><time>2026-04-12T10:18:25.999Z</time></trkpt><trkpt lat="44.09977114321604" lon="12.143448705994079"><ele>327.25</ele><time>2026-04-12T10:18:26.999Z</time></trkpt><trkpt lat="44.09968837498515" lon="12.143300155690238"><ele>327.5</ele><time>2026-04-12T10:18:27.999Z</time></trkpt><trkpt lat="44.09958987069984" lon="12.143158512697724"><ele>327.75</ele><time>2026-04-12T10:18:28.999Z</time></trkpt><trkpt lat="44.099487393614616" lon="12.14301019498657"><ele>328.0</ele><time>2026-04-12T10:18:29.999Z</time></trkpt><trkpt lat="44.09939756027975" lon="12.142871476646498"><ele>328.0</ele><time>2026-04-12T10:18:30.999Z</time></trkpt><trkpt lat="44.09928822303283" lon="12.142759915171629"><ele>328.0</ele><time>2026-04-12T10:18:31.999Z</time></trkpt><trkpt lat="44.09916063142168" lon="12.142651800592507"><ele>328.0</ele><time>2026-04-12T10:18:32.999Z</time></trkpt><trkpt lat="44.09902367028359" lon="12.142542381927136"><ele>328.0</ele><time>2026-04-12T10:18:33.999Z</time></trkpt><trkpt lat="44.098891451985445" lon="12.142429297729462"><ele>326.0</ele><time>2026-04-12T10:18:34.999Z</time></trkpt><trkpt lat="44.09876836154382" lon="12.142319982483441"><ele>324.0</ele><time>2026-04-12T10:18:35.999Z</time></trkpt><trkpt lat="44.098630618452574" lon="12.142225653222466"><ele>322.0</ele><time>2026-04-12T10:18:36.999Z</time></trkpt><trkpt lat="44.09848162366553" lon="12.142136208020458"><ele>322.0</ele><time>2026-04-12T10:18:37.999Z</time></trkpt><trkpt lat="44.09836441653037" lon="12.142062124421749"><ele>322.0</ele><time>2026-04-12T10:18:38.999Z</time></trkpt><trkpt lat="44.09826074840353" lon="12.142030901636621"><ele>322.0</ele><time>2026-04-12T10:18:39.999Z</time></trkpt><trkpt lat="44.09815837137675" lon="12.142036098709827"><ele>322.0</ele><time>2026-04-12T10:18:40.999Z</time></trkpt><trkpt lat="44.09806274187228" lon="12.142028075434368"><ele>322.0</ele><time>2026-04-12T10:18:41.999Z</time></trkpt><trkpt lat="44.09794837781386" lon="12.142103811502315"><ele>321.75</ele><time>2026-04-12T10:18:42.999Z</time></trkpt><trkpt lat="44.09781976673729" lon="12.142145626316063"><ele>321.5</ele><time>2026-04-12T10:18:43.999Z</time></trkpt><trkpt lat="44.09767845410058" lon="12.142235253814835"><ele>321.25</ele><time>2026-04-12T10:18:44.999Z</time></trkpt><trkpt lat="44.097538827941065" lon="12.142331103216668"><ele>321.0</ele><time>2026-04-12T10:18:45.999Z</time></trkpt><trkpt lat="44.09741429808871" lon="12.14242392856808"><ele>320.0</ele><time>2026-04-12T10:18:46.999Z</time></trkpt><trkpt lat="44.09731312562613" lon="12.142506057533023"><ele>319.0</ele><time>2026-04-12T10:18:47.999Z</time></trkpt><trkpt lat="44.0972251037831" lon="12.142576284705957"><ele>318.0</ele><time>2026-04-12T10:18:48.999Z</time></trkpt><trkpt lat="44.09714038994555" lon="12.142636840958689"><ele>317.0</ele><time>2026-04-12T10:18:49.999Z</time></trkpt><trkpt lat="44.09707065555385" lon="12.142676472514744"><ele>316.0</ele><time>2026-04-12T10:18:50.999Z</time></trkpt><trkpt lat="44.09700739533188" lon="12.142669487366941"><ele>316.0</ele><time>2026-04-12T10:18:51.999Z</time></trkpt><trkpt lat="44.09693921575807" lon="12.14257316095255"><ele>316.0</ele><time>2026-04-12T10:18:54Z</time></trkpt><trkpt lat="44.096924411579394" lon="12.142449837756828"><ele>316.0</ele><time>2026-04-12T10:18:55Z</time></trkpt><trkpt lat="44.096950844367356" lon="12.142287244982253"><ele>316.0</ele><time>2026-04-12T10:18:56Z</time></trkpt><trkpt lat="44.09698434900605" lon="12.142105844484606"><ele>316.0</ele><time>2026-04-12T10:18:57Z</time></trkpt><trkpt lat="44.09702046249641" lon="12.141962283816738"><ele>315.66666666666663</ele><time>2026-04-12T10:18:58Z</time></trkpt><trkpt lat="44.09704250151695" lon="12.141838540479073"><ele>315.3333333333333</ele><time>2026-04-12T10:18:59Z</time></trkpt><trkpt lat="44.097044555052946" lon="12.141750710458956"><ele>315.0</ele><time>2026-04-12T10:19:00Z</time></trkpt><trkpt lat="44.097030392502006" lon="12.141641877908897"><ele>314.6666666666667</ele><time>2026-04-12T10:19:02Z</time></trkpt><trkpt lat="44.09696271948813" lon="12.141537413800085"><ele>314.33333333333337</ele><time>2026-04-12T10:19:06Z</time></trkpt><trkpt lat="44.09689996159039" lon="12.141477213413122"><ele>314.0</ele><time>2026-04-12T10:19:07Z</time></trkpt><trkpt lat="44.096840677867796" lon="12.1414148337641"><ele>314.0</ele><time>2026-04-12T10:19:08Z</time></trkpt><trkpt lat="44.09674078737669" lon="12.14142374189076"><ele>314.0</ele><time>2026-04-12T10:19:10Z</time></trkpt><trkpt lat="44.09670790951571" lon="12.141567895155264"><ele>314.0</ele><time>2026-04-12T10:19:11Z</time></trkpt><trkpt lat="44.09665651156806" lon="12.141676086114336"><ele>314.0</ele><time>2026-04-12T10:19:12Z</time></trkpt><trkpt lat="44.09656997256398" lon="12.141831663595903"><ele>314.0</ele><time>2026-04-12T10:19:13Z</time></trkpt><trkpt lat="44.09647906446705" lon="12.141952412593728"><ele>310.0</ele><time>2026-04-12T10:19:14Z</time></trkpt><trkpt lat="44.09640171100673" lon="12.142045100550977"><ele>306.0</ele><time>2026-04-12T10:19:15Z</time></trkpt><trkpt lat="44.09633176902053" lon="12.142115484698857"><ele>302.0</ele><time>2026-04-12T10:19:16Z</time></trkpt><trkpt lat="44.096261260064466" lon="12.142182922098902"><ele>298.0</ele><time>2026-04-12T10:19:17Z</time></trkpt><trkpt lat="44.096174473353216" lon="12.142140752262986"><ele>294.0</ele><time>2026-04-12T10:19:18Z</time></trkpt><trkpt lat="44.09609262370469" lon="12.142108924535211"><ele>294.0</ele><time>2026-04-12T10:19:19Z</time></trkpt><trkpt lat="44.096011425936304" lon="12.142019920524797"><ele>294.0</ele><time>2026-04-12T10:19:20Z</time></trkpt><trkpt lat="44.09594848644627" lon="12.14189288811931"><ele>294.0</ele><time>2026-04-12T10:19:21Z</time></trkpt><trkpt lat="44.09587798583537" lon="12.14177944379009"><ele>294.0</ele><time>2026-04-12T10:19:22Z</time></trkpt><trkpt lat="44.09583730532219" lon="12.141621043799468"><ele>294.0</ele><time>2026-04-12T10:19:23Z</time></trkpt><trkpt lat="44.09583298954733" lon="12.141445537002062"><ele>292.6666666666667</ele><time>2026-04-12T10:19:24Z</time></trkpt><trkpt lat="44.09580500187252" lon="12.141194386536593"><ele>291.33333333333337</ele><time>2026-04-12T10:19:25Z</time></trkpt><trkpt lat="44.095800576724216" lon="12.14097683985675"><ele>290.0</ele><time>2026-04-12T10:19:26Z</time></trkpt><trkpt lat="44.09579900979706" lon="12.14081644846422"><ele>289.4</ele><time>2026-04-12T10:19:27Z</time></trkpt><trkpt lat="44.095814538669806" lon="12.140684933400577"><ele>288.8</ele><time>2026-04-12T10:19:28Z</time></trkpt><trkpt lat="44.09580759585628" lon="12.140546112707163"><ele>288.2</ele><time>2026-04-12T10:19:29Z</time></trkpt><trkpt lat="44.09576894984909" lon="12.140419983399994"><ele>287.6</ele><time>2026-04-12T10:19:30Z</time></trkpt><trkpt lat="44.09571849260541" lon="12.140303250059187"><ele>287.0</ele><time>2026-04-12T10:19:31Z</time></trkpt><trkpt lat="44.095670163361824" lon="12.140192816455647"><ele>283.75</ele><time>2026-04-12T10:19:32Z</time></trkpt><trkpt lat="44.0955675679363" lon="12.14010774911286"><ele>280.5</ele><time>2026-04-12T10:19:33Z</time></trkpt><trkpt lat="44.095454358134674" lon="12.14006387849003"><ele>277.25</ele><time>2026-04-12T10:19:34Z</time></trkpt><trkpt lat="44.095363995862805" lon="12.140027586086346"><ele>274.0</ele><time>2026-04-12T10:19:35Z</time></trkpt><trkpt lat="44.095194549133055" lon="12.139956772230914"><ele>274.0</ele><time>2026-04-12T10:19:36Z</time></trkpt><trkpt lat="44.09508604359564" lon="12.139908616381193"><ele>274.0</ele><time>2026-04-12T10:19:37Z</time></trkpt><trkpt lat="44.09499494283231" lon="12.139868462472354"><ele>274.0</ele><time>2026-04-12T10:19:38Z</time></trkpt><trkpt lat="44.094915636254164" lon="12.139859956568843"><ele>274.0</ele><time>2026-04-12T10:19:39Z</time></trkpt><trkpt lat="44.09484369274103" lon="12.139812822033791"><ele>274.0</ele><time>2026-04-12T10:19:40Z</time></trkpt><trkpt lat="44.09477179106668" lon="12.139803896070623"><ele>274.0</ele><time>2026-04-12T10:19:41Z</time></trkpt><trkpt lat="44.09467321394757" lon="12.139831653129729"><ele>270.0</ele><time>2026-04-12T10:19:42Z</time></trkpt><trkpt lat="44.094584753282376" lon="12.139926407797534"><ele>266.0</ele><time>2026-04-12T10:19:43Z</time></trkpt><trkpt lat="44.09449046016983" lon="12.140054805740807"><ele>262.0</ele><time>2026-04-12T10:19:44Z</time></trkpt><trkpt lat="44.09438668320474" lon="12.140151191209728"><ele>258.0</ele><time>2026-04-12T10:19:45Z</time></trkpt><trkpt lat="44.09431037790182" lon="12.140213907135452"><ele>258.0</ele><time>2026-04-12T10:19:46Z</time></trkpt><trkpt lat="44.09424172700547" lon="12.140251645420022"><ele>258.0</ele><time>2026-04-12T10:19:47Z</time></trkpt><trkpt lat="44.09416430341124" lon="12.140273239733464"><ele>258.0</ele><time>2026-04-12T10:19:48Z</time></trkpt><trkpt lat="44.09409962581395" lon="12.140283680261788"><ele>258.0</ele><time>2026-04-12T10:19:49Z</time></trkpt><trkpt lat="44.09400803537082" lon="12.140279603888708"><ele>258.0</ele><time>2026-04-12T10:19:50Z</time></trkpt><trkpt lat="44.09392269828793" lon="12.140263307625162"><ele>258.0</ele><time>2026-04-12T10:19:51Z</time></trkpt><trkpt lat="44.09383621416701" lon="12.14022785571672"><ele>253.60000000000002</ele><time>2026-04-12T10:19:51.999Z</time></trkpt><trkpt lat="44.09376095397796" lon="12.140182669686086"><ele>249.20000000000002</ele><time>2026-04-12T10:19:52.999Z</time></trkpt><trkpt lat="44.09370570191886" lon="12.140096147001028"><ele>244.8</ele><time>2026-04-12T10:19:53.999Z</time></trkpt><trkpt lat="44.093682158334246" lon="12.139926280368382"><ele>240.4</ele><time>2026-04-12T10:19:55.999Z</time></trkpt><trkpt lat="44.09363408992463" lon="12.139763053645728"><ele>236.0</ele><time>2026-04-12T10:19:56.999Z</time></trkpt><trkpt lat="44.09359613000149" lon="12.139624400675793"><ele>235.16666666666669</ele><time>2026-04-12T10:19:57.999Z</time></trkpt><trkpt lat="44.093546447260884" lon="12.139503453936898"><ele>234.33333333333334</ele><time>2026-04-12T10:19:58.999Z</time></trkpt><trkpt lat="44.093521718737136" lon="12.139386424937626"><ele>233.5</ele><time>2026-04-12T10:19:59.999Z</time></trkpt><trkpt lat="44.09351230579505" lon="12.139284660235607"><ele>232.66666666666669</ele><time>2026-04-12T10:20:00.999Z</time></trkpt><trkpt lat="44.093528973790555" lon="12.139177685007263"><ele>231.83333333333334</ele><time>2026-04-12T10:20:01.999Z</time></trkpt><trkpt lat="44.093569089330025" lon="12.139078577596687"><ele>231.0</ele><time>2026-04-12T10:20:02.999Z</time></trkpt><trkpt lat="44.09362769381756" lon="12.139038371671507"><ele>228.20000000000002</ele><time>2026-04-12T10:20:03.999Z</time></trkpt><trkpt lat="44.09370371075839" lon="12.139019592866859"><ele>225.40000000000003</ele><time>2026-04-12T10:20:04.999Z</time></trkpt><trkpt lat="44.09379472308721" lon="12.13901761227395"><ele>222.6</ele><time>2026-04-12T10:20:05.999Z</time></trkpt><trkpt lat="44.093898864688754" lon="12.138993061854148"><ele>219.8</ele><time>2026-04-12T10:20:06.999Z</time></trkpt><trkpt lat="44.09400562379174" lon="12.138920399113191"><ele>217.0</ele><time>2026-04-12T10:20:07.999Z</time></trkpt><trkpt lat="44.09408750325311" lon="12.138794030190324"><ele>216.83333333333331</ele><time>2026-04-12T10:20:08.999Z</time></trkpt><trkpt lat="44.09414819016586" lon="12.138670604745574"><ele>216.66666666666666</ele><time>2026-04-12T10:20:09.999Z</time></trkpt><trkpt lat="44.09420288238734" lon="12.138577598926577"><ele>216.5</ele><time>2026-04-12T10:20:10.999Z</time></trkpt><trkpt lat="44.09424750334826" lon="12.138497760450713"><ele>216.33333333333331</ele><time>2026-04-12T10:20:11.999Z</time></trkpt><trkpt lat="44.0942642324419" lon="12.138408555651797"><ele>216.16666666666666</ele><time>2026-04-12T10:20:12.999Z</time></trkpt><trkpt lat="44.09425254049037" lon="12.138285085650903"><ele>216.0</ele><time>2026-04-12T10:20:13.999Z</time></trkpt><trkpt lat="44.09421228158185" lon="12.138106579154528"><ele>216.0</ele><time>2026-04-12T10:20:14.999Z</time></trkpt><trkpt lat="44.094146427854234" lon="12.13787910143858"><ele>216.0</ele><time>2026-04-12T10:20:15.999Z</time></trkpt><trkpt lat="44.09406799089247" lon="12.137627890554747"><ele>216.0</ele><time>2026-04-12T10:20:16.999Z</time></trkpt><trkpt lat="44.09400707430012" lon="12.137378647505745"><ele>211.33333333333331</ele><time>2026-04-12T10:20:17.999Z</time></trkpt><trkpt lat="44.093952653615176" lon="12.137142823625135"><ele>206.66666666666666</ele><time>2026-04-12T10:20:18.999Z</time></trkpt><trkpt lat="44.093897423044936" lon="12.13692141960808"><ele>202.0</ele><time>2026-04-12T10:20:19.999Z</time></trkpt><trkpt lat="44.09384001393179" lon="12.136714627229773"><ele>200.0</ele><time>2026-04-12T10:20:20.999Z</time></trkpt><trkpt lat="44.09380696422327" lon="12.136499737100287"><ele>198.0</ele><time>2026-04-12T10:20:21.999Z</time></trkpt><trkpt lat="44.09374783159484" lon="12.136287990325322"><ele>196.0</ele><time>2026-04-12T10:20:22.999Z</time></trkpt><trkpt lat="44.09368943093651" lon="12.13604619296383"><ele>196.0</ele><time>2026-04-12T10:20:23.999Z</time></trkpt><trkpt lat="44.09364332141091" lon="12.135846093558234"><ele>196.0</ele><time>2026-04-12T10:20:24.999Z</time></trkpt><trkpt lat="44.09361187835895" lon="12.135675448154089"><ele>196.0</ele><time>2026-04-12T10:20:25.999Z</time></trkpt><trkpt lat="44.09357692540445" lon="12.13551393926154"><ele>196.0</ele><time>2026-04-12T10:20:26.999Z</time></trkpt><trkpt lat="44.09354153316587" lon="12.135375363634317"><ele>194.5</ele><time>2026-04-12T10:20:27.999Z</time></trkpt><trkpt lat="44.09349405869222" lon="12.135239845427943"><ele>193.0</ele><time>2026-04-12T10:20:28.999Z</time></trkpt><trkpt lat="44.09342800438382" lon="12.135104659588276"><ele>191.5</ele><time>2026-04-12T10:20:29.999Z</time></trkpt><trkpt lat="44.093305179819936" lon="12.134998206994114"><ele>190.0</ele><time>2026-04-12T10:20:30.999Z</time></trkpt><trkpt lat="44.0931589468227" lon="12.134900716635242"><ele>186.5</ele><time>2026-04-12T10:20:31.999Z</time></trkpt><trkpt lat="44.093056165120174" lon="12.134823176157871"><ele>183.0</ele><time>2026-04-12T10:20:32.999Z</time></trkpt><trkpt lat="44.092974724381826" lon="12.134745900796233"><ele>179.5</ele><time>2026-04-12T10:20:33.999Z</time></trkpt><trkpt lat="44.09290160844229" lon="12.134639525926637"><ele>176.0</ele><time>2026-04-12T10:20:34.999Z</time></trkpt><trkpt lat="44.09282452872205" lon="12.134495563642455"><ele>176.0</ele><time>2026-04-12T10:20:35.999Z</time></trkpt><trkpt lat="44.0927461684121" lon="12.134318704277913"><ele>176.0</ele><time>2026-04-12T10:20:36.999Z</time></trkpt><trkpt lat="44.092663835637026" lon="12.134114805645986"><ele>176.0</ele><time>2026-04-12T10:20:37.999Z</time></trkpt><trkpt lat="44.09257005597256" lon="12.133917176799665"><ele>174.33333333333331</ele><time>2026-04-12T10:20:38.999Z</time></trkpt><trkpt lat="44.09248680387773" lon="12.133681327922114"><ele>172.66666666666666</ele><time>2026-04-12T10:20:39.999Z</time></trkpt><trkpt lat="44.09239140784314" lon="12.133410561636966"><ele>171.0</ele><time>2026-04-12T10:20:40.999Z</time></trkpt><trkpt lat="44.09231077331868" lon="12.133169358906331"><ele>166.0</ele><time>2026-04-12T10:20:41.999Z</time></trkpt><trkpt lat="44.09223293606247" lon="12.132933608556137"><ele>161.0</ele><time>2026-04-12T10:20:42.999Z</time></trkpt><trkpt lat="44.09214458574013" lon="12.132675212358237"><ele>156.0</ele><time>2026-04-12T10:20:43.999Z</time></trkpt><trkpt lat="44.09206552719298" lon="12.132467558117336"><ele>155.33333333333334</ele><time>2026-04-12T10:20:44.999Z</time></trkpt><trkpt lat="44.09199254069917" lon="12.132219385118502"><ele>154.66666666666669</ele><time>2026-04-12T10:20:45.999Z</time></trkpt><trkpt lat="44.09187884693548" lon="12.13195123492236"><ele>154.0</ele><time>2026-04-12T10:20:46.999Z</time></trkpt><trkpt lat="44.09175678021282" lon="12.131729739099372"><ele>151.33333333333334</ele><time>2026-04-12T10:20:47.999Z</time></trkpt><trkpt lat="44.09163989769479" lon="12.13146711658591"><ele>148.66666666666666</ele><time>2026-04-12T10:20:48.999Z</time></trkpt><trkpt lat="44.091554807307205" lon="12.131320602806344"><ele>146.0</ele><time>2026-04-12T10:20:49.999Z</time></trkpt><trkpt lat="44.09146830091178" lon="12.131105827824461"><ele>145.33333333333331</ele><time>2026-04-12T10:20:50.999Z</time></trkpt><trkpt lat="44.09135857044655" lon="12.130891087934865"><ele>144.66666666666666</ele><time>2026-04-12T10:20:51.999Z</time></trkpt><trkpt lat="44.09127551054945" lon="12.130673202474043"><ele>144.0</ele><time>2026-04-12T10:20:52.999Z</time></trkpt><trkpt lat="44.091202406310565" lon="12.13046386638771"><ele>143.0</ele><time>2026-04-12T10:20:53.999Z</time></trkpt><trkpt lat="44.09113877842564" lon="12.130252682966697"><ele>142.0</ele><time>2026-04-12T10:20:54.999Z</time></trkpt><trkpt lat="44.09108145510872" lon="12.130040282681389"><ele>141.0</ele><time>2026-04-12T10:20:55.999Z</time></trkpt><trkpt lat="44.091021359562966" lon="12.129791733720785"><ele>139.0</ele><time>2026-04-12T10:20:56.999Z</time></trkpt><trkpt lat="44.090963631483916" lon="12.129582916242834"><ele>137.0</ele><time>2026-04-12T10:20:57.999Z</time></trkpt><trkpt lat="44.090908790024734" lon="12.12937007841983"><ele>135.0</ele><time>2026-04-12T10:20:58.999Z</time></trkpt><trkpt lat="44.09084988460156" lon="12.129164726069646"><ele>133.25</ele><time>2026-04-12T10:21:00Z</time></trkpt><trkpt lat="44.09082069677153" lon="12.128976740248278"><ele>131.5</ele><time>2026-04-12T10:21:01Z</time></trkpt><trkpt lat="44.09080852960433" lon="12.128794466450355"><ele>129.75</ele><time>2026-04-12T10:21:02Z</time></trkpt><trkpt lat="44.09080200178582" lon="12.128600605235162"><ele>128.0</ele><time>2026-04-12T10:21:03Z</time></trkpt><trkpt lat="44.090811240656436" lon="12.128320613990926"><ele>125.66666666666666</ele><time>2026-04-12T10:21:04Z</time></trkpt><trkpt lat="44.09083985508685" lon="12.128022834133631"><ele>123.33333333333334</ele><time>2026-04-12T10:21:05Z</time></trkpt><trkpt lat="44.090851491446465" lon="12.127749530721378"><ele>121.0</ele><time>2026-04-12T10:21:06Z</time></trkpt><trkpt lat="44.09085212284395" lon="12.127494094900197"><ele>119.66666666666667</ele><time>2026-04-12T10:21:07Z</time></trkpt><trkpt lat="44.09084351637455" lon="12.12724326159855"><ele>118.33333333333334</ele><time>2026-04-12T10:21:08Z</time></trkpt><trkpt lat="44.09083956894634" lon="12.127005067304596"><ele>117.0</ele><time>2026-04-12T10:21:09Z</time></trkpt><trkpt lat="44.090859692832" lon="12.126789522642014"><ele>117.0</ele><time>2026-04-12T10:21:10Z</time></trkpt><trkpt lat="44.090904530406796" lon="12.12658583647715"><ele>117.0</ele><time>2026-04-12T10:21:11Z</time></trkpt><trkpt lat="44.090971930002794" lon="12.126398043515675"><ele>117.0</ele><time>2026-04-12T10:21:12Z</time></trkpt><trkpt lat="44.0910379574551" lon="12.126230087775934"><ele>117.0</ele><time>2026-04-12T10:21:13Z</time></trkpt><trkpt lat="44.09108944881814" lon="12.126068372882703"><ele>116.66666666666667</ele><time>2026-04-12T10:21:14Z</time></trkpt><trkpt lat="44.09111833184506" lon="12.125914372492607"><ele>116.33333333333334</ele><time>2026-04-12T10:21:15Z</time></trkpt><trkpt lat="44.09113423765683" lon="12.125807796248619"><ele>116.0</ele><time>2026-04-12T10:21:16Z</time></trkpt><trkpt lat="44.09114488392834" lon="12.125713270917771"><ele>115.66666666666667</ele><time>2026-04-12T10:21:17Z</time></trkpt><trkpt lat="44.09115779149627" lon="12.12559386654116"><ele>115.33333333333334</ele><time>2026-04-12T10:21:19Z</time></trkpt><trkpt lat="44.09108751052207" lon="12.125608764274078"><ele>115.0</ele><time>2026-04-12T10:21:22Z</time></trkpt><trkpt lat="44.09111873476979" lon="12.125737651797145"><ele>115.0</ele><time>2026-04-12T10:21:25Z</time></trkpt><trkpt lat="44.09113384627297" lon="12.125830279962036"><ele>115.0</ele><time>2026-04-12T10:21:27Z</time></trkpt><trkpt lat="44.091106729700314" lon="12.125910390604155"><ele>115.0</ele><time>2026-04-12T10:21:29Z</time></trkpt><trkpt lat="44.091046868752514" lon="12.125990536409592"><ele>115.0</ele><time>2026-04-12T10:21:31Z</time></trkpt><trkpt lat="44.09096602443892" lon="12.125946077086773"><ele>115.0</ele><time>2026-04-12T10:21:33Z</time></trkpt></trkseg><trkseg><trkpt lat="44.09094257100318" lon="12.125825066807591"><ele>115.0</ele><time>2026-04-12T10:52:34.491Z</time></trkpt><trkpt lat="44.09099939247959" lon="12.126026705718509"><ele>115.0</ele><time>2026-04-12T10:53:08Z</time></trkpt><trkpt lat="44.090916133478224" lon="12.125938702130242"><ele>115.0</ele><time>2026-04-12T10:53:19Z</time></trkpt><trkpt lat="44.09079815311613" lon="12.125991575453797"><ele>115.0</ele><time>2026-04-12T10:53:21Z</time></trkpt><trkpt lat="44.09071712927379" lon="12.126004220560596"><ele>115.50000000000001</ele><time>2026-04-12T10:53:22Z</time></trkpt><trkpt lat="44.09063616377541" lon="12.125989297014119"><ele>116.0</ele><time>2026-04-12T10:53:23Z</time></trkpt><trkpt lat="44.090561216087266" lon="12.12594621405466"><ele>116.5</ele><time>2026-04-12T10:53:24Z</time></trkpt><trkpt lat="44.09047573252808" lon="12.125919819422199"><ele>117.0</ele><time>2026-04-12T10:53:25Z</time></trkpt><trkpt lat="44.0903815211268" lon="12.125942220510167"><ele>117.50000000000001</ele><time>2026-04-12T10:53:26Z</time></trkpt><trkpt lat="44.090286122763644" lon="12.125982411820518"><ele>118.0</ele><time>2026-04-12T10:53:27Z</time></trkpt><trkpt lat="44.090199198387545" lon="12.125985472535428"><ele>118.0</ele><time>2026-04-12T10:53:28Z</time></trkpt><trkpt lat="44.090132076541565" lon="12.125945406090068"><ele>118.0</ele><time>2026-04-12T10:53:29Z</time></trkpt><trkpt lat="44.090057966424986" lon="12.125890390613943"><ele>118.0</ele><time>2026-04-12T10:53:30Z</time></trkpt><trkpt lat="44.08999253176903" lon="12.12584265903794"><ele>118.0</ele><time>2026-04-12T10:53:31Z</time></trkpt><trkpt lat="44.08992460065515" lon="12.125804351513606"><ele>118.0</ele><time>2026-04-12T10:53:32Z</time></trkpt><trkpt lat="44.089858910122345" lon="12.125768836002372"><ele>118.0</ele><time>2026-04-12T10:53:33Z</time></trkpt><trkpt lat="44.08979208702464" lon="12.12573413578092"><ele>118.0</ele><time>2026-04-12T10:53:35Z</time></trkpt><trkpt lat="44.089722763634654" lon="12.12571417365135"><ele>119.33333333333334</ele><time>2026-04-12T10:53:36Z</time></trkpt><trkpt lat="44.08966896732241" lon="12.125637393311928"><ele>120.66666666666667</ele><time>2026-04-12T10:53:38Z</time></trkpt><trkpt lat="44.089657775805854" lon="12.125546466757507"><ele>122.0</ele><time>2026-04-12T10:53:39Z</time></trkpt><trkpt lat="44.0896374985218" lon="12.125417349412485"><ele>123.33333333333334</ele><time>2026-04-12T10:53:40Z</time></trkpt><trkpt lat="44.08960860986749" lon="12.125285153467585"><ele>124.66666666666667</ele><time>2026-04-12T10:53:41Z</time></trkpt><trkpt lat="44.08957055049307" lon="12.125169217912754"><ele>126.0</ele><time>2026-04-12T10:53:42Z</time></trkpt><trkpt lat="44.08951468639894" lon="12.125061766931651"><ele>126.0</ele><time>2026-04-12T10:53:43Z</time></trkpt><trkpt lat="44.089457586040176" lon="12.124924655267634"><ele>126.0</ele><time>2026-04-12T10:53:44Z</time></trkpt><trkpt lat="44.08940361473872" lon="12.12479922763032"><ele>126.0</ele><time>2026-04-12T10:53:45Z</time></trkpt><trkpt lat="44.08935951805755" lon="12.124703137659823"><ele>126.0</ele><time>2026-04-12T10:53:46Z</time></trkpt><trkpt lat="44.08929764010747" lon="12.12461545686388"><ele>126.0</ele><time>2026-04-12T10:53:47Z</time></trkpt><trkpt lat="44.08922172127949" lon="12.124543133630116"><ele>126.16666666666667</ele><time>2026-04-12T10:53:48Z</time></trkpt><trkpt lat="44.089146246736874" lon="12.124478289399303"><ele>126.33333333333334</ele><time>2026-04-12T10:53:49Z</time></trkpt><trkpt lat="44.08907057707935" lon="12.12440856848195"><ele>126.5</ele><time>2026-04-12T10:53:50Z</time></trkpt><trkpt lat="44.08900773993469" lon="12.124354837981965"><ele>126.66666666666667</ele><time>2026-04-12T10:53:51Z</time></trkpt><trkpt lat="44.0889413934832" lon="12.124277374206583"><ele>126.83333333333334</ele><time>2026-04-12T10:53:51.999Z</time></trkpt><trkpt lat="44.088871264858156" lon="12.124205935936208"><ele>127.0</ele><time>2026-04-12T10:53:52.999Z</time></trkpt><trkpt lat="44.08879733272422" lon="12.124147970439433"><ele>128.2</ele><time>2026-04-12T10:53:53.999Z</time></trkpt><trkpt lat="44.08871988316581" lon="12.124096717798418"><ele>129.39999999999998</ele><time>2026-04-12T10:53:54.999Z</time></trkpt><trkpt lat="44.08861344283406" lon="12.124043811705473"><ele>130.60000000000002</ele><time>2026-04-12T10:53:55.999Z</time></trkpt><trkpt lat="44.088515716877424" lon="12.12400363583106"><ele>131.8</ele><time>2026-04-12T10:53:56.999Z</time></trkpt><trkpt lat="44.088418870915646" lon="12.123966924965146"><ele>133.0</ele><time>2026-04-12T10:53:57.999Z</time></trkpt><trkpt lat="44.08833661372397" lon="12.123852173989455"><ele>133.33333333333334</ele><time>2026-04-12T10:53:59.999Z</time></trkpt><trkpt lat="44.0883081456869" lon="12.123742300991575"><ele>133.66666666666669</ele><time>2026-04-12T10:54:00.999Z</time></trkpt><trkpt lat="44.08828581523095" lon="12.123620712095388"><ele>134.0</ele><time>2026-04-12T10:54:01.999Z</time></trkpt><trkpt lat="44.08825398746703" lon="12.12353172777653"><ele>134.33333333333334</ele><time>2026-04-12T10:54:02.999Z</time></trkpt><trkpt lat="44.08820037085242" lon="12.123449823252917"><ele>134.66666666666666</ele><time>2026-04-12T10:54:03.999Z</time></trkpt><trkpt lat="44.088140401861274" lon="12.12340304529484"><ele>135.0</ele><time>2026-04-12T10:54:04.999Z</time></trkpt><trkpt lat="44.0880625677384" lon="12.123382497179684"><ele>136.4</ele><time>2026-04-12T10:54:05.999Z</time></trkpt><trkpt lat="44.08797761120281" lon="12.123394040790561"><ele>137.8</ele><time>2026-04-12T10:54:06.999Z</time></trkpt><trkpt lat="44.087880514683825" lon="12.123411426288524"><ele>139.2</ele><time>2026-04-12T10:54:07.999Z</time></trkpt><trkpt lat="44.08780140874364" lon="12.123410209982259"><ele>140.6</ele><time>2026-04-12T10:54:08.999Z</time></trkpt><trkpt lat="44.08767594665941" lon="12.123323140185981"><ele>142.0</ele><time>2026-04-12T10:54:10.999Z</time></trkpt><trkpt lat="44.0875985367455" lon="12.123253188161875"><ele>144.66666666666669</ele><time>2026-04-12T10:54:11.999Z</time></trkpt><trkpt lat="44.08752154760199" lon="12.1231931324628"><ele>147.33333333333334</ele><time>2026-04-12T10:54:12.999Z</time></trkpt><trkpt lat="44.08745817262208" lon="12.12316829571489"><ele>150.0</ele><time>2026-04-12T10:54:13.999Z</time></trkpt><trkpt lat="44.087376920400544" lon="12.123162410599706"><ele>152.66666666666666</ele><time>2026-04-12T10:54:14.999Z</time></trkpt><trkpt lat="44.087284316246475" lon="12.123164260187696"><ele>155.33333333333331</ele><time>2026-04-12T10:54:15.999Z</time></trkpt><trkpt lat="44.08718436325806" lon="12.123184893253647"><ele>158.0</ele><time>2026-04-12T10:54:16.999Z</time></trkpt><trkpt lat="44.08708914449944" lon="12.123214867781106"><ele>156.6</ele><time>2026-04-12T10:54:17.999Z</time></trkpt><trkpt lat="44.08699008879823" lon="12.12323680011872"><ele>155.20000000000002</ele><time>2026-04-12T10:54:18.999Z</time></trkpt><trkpt lat="44.08692391044512" lon="12.123246913557416"><ele>153.8</ele><time>2026-04-12T10:54:19.999Z</time></trkpt><trkpt lat="44.086810021390384" lon="12.12324345823358"><ele>152.4</ele><time>2026-04-12T10:54:21.999Z</time></trkpt><trkpt lat="44.08687565058654" lon="12.123258845021823"><ele>151.0</ele><time>2026-04-12T10:54:40.999Z</time></trkpt><trkpt lat="44.086992641755444" lon="12.12326276622167"><ele>151.0</ele><time>2026-04-12T10:54:45Z</time></trkpt><trkpt lat="44.08707228511583" lon="12.123240095722057"><ele>151.0</ele><time>2026-04-12T10:54:46Z</time></trkpt><trkpt lat="44.08714618998552" lon="12.123232838393687"><ele>151.0</ele><time>2026-04-12T10:54:47Z</time></trkpt><trkpt lat="44.08721955961071" lon="12.123219101790438"><ele>151.0</ele><time>2026-04-12T10:54:48Z</time></trkpt><trkpt lat="44.08735848899373" lon="12.123186162390562"><ele>151.0</ele><time>2026-04-12T10:54:50Z</time></trkpt><trkpt lat="44.08745046439756" lon="12.123184869259289"><ele>152.33333333333334</ele><time>2026-04-12T10:54:51Z</time></trkpt><trkpt lat="44.087535577148934" lon="12.123209979618405"><ele>153.66666666666669</ele><time>2026-04-12T10:54:52Z</time></trkpt><trkpt lat="44.08762101705757" lon="12.123252080819901"><ele>155.0</ele><time>2026-04-12T10:54:53Z</time></trkpt><trkpt lat="44.087698619057534" lon="12.123303626440933"><ele>156.33333333333334</ele><time>2026-04-12T10:54:54Z</time></trkpt><trkpt lat="44.0877523419336" lon="12.12335714290916"><ele>157.66666666666666</ele><time>2026-04-12T10:54:55Z</time></trkpt><trkpt lat="44.08784636205804" lon="12.123432104944303"><ele>159.0</ele><time>2026-04-12T10:54:57Z</time></trkpt><trkpt lat="44.087975303246026" lon="12.123442037994398"><ele>156.16666666666666</ele><time>2026-04-12T10:54:59Z</time></trkpt><trkpt lat="44.08806286285599" lon="12.123431329093052"><ele>153.33333333333334</ele><time>2026-04-12T10:55:00Z</time></trkpt><trkpt lat="44.088136506400716" lon="12.12343448117201"><ele>150.5</ele><time>2026-04-12T10:55:01Z</time></trkpt><trkpt lat="44.088244421988215" lon="12.1234881132652"><ele>147.66666666666669</ele><time>2026-04-12T10:55:03Z</time></trkpt><trkpt lat="44.088298851528535" lon="12.12358228467663"><ele>144.83333333333334</ele><time>2026-04-12T10:55:05Z</time></trkpt><trkpt lat="44.088330580111645" lon="12.123690971858545"><ele>142.0</ele><time>2026-04-12T10:55:07Z</time></trkpt><trkpt lat="44.08838300869829" lon="12.123599338608946"><ele>143.0</ele><time>2026-04-12T10:55:11Z</time></trkpt><trkpt lat="44.088466128353346" lon="12.123461165228873"><ele>144.0</ele><time>2026-04-12T10:55:13Z</time></trkpt><trkpt lat="44.08854034622466" lon="12.123377018223776"><ele>145.0</ele><time>2026-04-12T10:55:14Z</time></trkpt><trkpt lat="44.088625340789065" lon="12.123304387960241"><ele>146.0</ele><time>2026-04-12T10:55:15Z</time></trkpt><trkpt lat="44.08860692716703" lon="12.12321353593703"><ele>147.0</ele><time>2026-04-12T10:55:17Z</time></trkpt><trkpt lat="44.08863805640803" lon="12.12312571194113"><ele>147.0</ele><time>2026-04-12T10:55:18Z</time></trkpt><trkpt lat="44.08866743964885" lon="12.12304108241298"><ele>147.0</ele><time>2026-04-12T10:55:19Z</time></trkpt><trkpt lat="44.08871698777028" lon="12.122881551770064"><ele>147.0</ele><time>2026-04-12T10:55:21Z</time></trkpt><trkpt lat="44.08873830977783" lon="12.122799084512353"><ele>147.0</ele><time>2026-04-12T10:55:22Z</time></trkpt><trkpt lat="44.08876117595579" lon="12.122716920069603"><ele>147.0</ele><time>2026-04-12T10:55:23Z</time></trkpt><trkpt lat="44.08878324115339" lon="12.122633369555464"><ele>147.0</ele><time>2026-04-12T10:55:24Z</time></trkpt><trkpt lat="44.08882145014507" lon="12.122472623117593"><ele>150.0</ele><time>2026-04-12T10:55:26Z</time></trkpt><trkpt lat="44.08886007641844" lon="12.122317934969711"><ele>153.0</ele><time>2026-04-12T10:55:28Z</time></trkpt><trkpt lat="44.08889945452135" lon="12.122166737841805"><ele>156.0</ele><time>2026-04-12T10:55:30Z</time></trkpt><trkpt lat="44.0889471883828" lon="12.122033504804147"><ele>159.0</ele><time>2026-04-12T10:55:32Z</time></trkpt><trkpt lat="44.08898897552437" lon="12.121901390139563"><ele>162.0</ele><time>2026-04-12T10:55:34Z</time></trkpt><trkpt lat="44.089022354818134" lon="12.121738246382836"><ele>162.0</ele><time>2026-04-12T10:55:36Z</time></trkpt><trkpt lat="44.08904050632106" lon="12.121650798946991"><ele>162.0</ele><time>2026-04-12T10:55:37Z</time></trkpt><trkpt lat="44.08904940795893" lon="12.121559526332632"><ele>162.0</ele><time>2026-04-12T10:55:38Z</time></trkpt><trkpt lat="44.08903105398086" lon="12.121418950595645"><ele>162.0</ele><time>2026-04-12T10:55:40Z</time></trkpt><trkpt lat="44.08898077311938" lon="12.121303452122987"><ele>162.0</ele><time>2026-04-12T10:55:42Z</time></trkpt><trkpt lat="44.0889152852625" lon="12.121203862329411"><ele>162.0</ele><time>2026-04-12T10:55:43.999Z</time></trkpt><trkpt lat="44.0888394033745" lon="12.121130697532314"><ele>162.0</ele><time>2026-04-12T10:55:45.999Z</time></trkpt><trkpt lat="44.08879855861781" lon="12.121231314667108"><ele>162.0</ele><time>2026-04-12T10:55:57.999Z</time></trkpt><trkpt lat="44.08880233322172" lon="12.121319310387367"><ele>162.0</ele><time>2026-04-12T10:55:59.999Z</time></trkpt><trkpt lat="44.088807548570976" lon="12.121425492265365"><ele>162.0</ele><time>2026-04-12T10:56:02.999Z</time></trkpt><trkpt lat="44.088809181728756" lon="12.12152236905009"><ele>162.0</ele><time>2026-04-12T10:56:05.999Z</time></trkpt><trkpt lat="44.08882083598367" lon="12.121632741484538"><ele>162.0</ele><time>2026-04-12T10:56:08.999Z</time></trkpt><trkpt lat="44.08881413562785" lon="12.121727883017845"><ele>162.0</ele><time>2026-04-12T10:56:10.999Z</time></trkpt><trkpt lat="44.08881271089192" lon="12.121818408088833"><ele>162.0</ele><time>2026-04-12T10:56:13.999Z</time></trkpt><trkpt lat="44.08885075336178" lon="12.121890174530616"><ele>162.0</ele><time>2026-04-12T10:56:18.999Z</time></trkpt><trkpt lat="44.08889022654545" lon="12.121987317191731"><ele>162.0</ele><time>2026-04-12T10:56:22.999Z</time></trkpt><trkpt lat="44.08889469518988" lon="12.122098320502577"><ele>162.0</ele><time>2026-04-12T10:56:24.999Z</time></trkpt><trkpt lat="44.088879926105996" lon="12.122206748474378"><ele>162.0</ele><time>2026-04-12T10:56:27.999Z</time></trkpt><trkpt lat="44.0888573045782" lon="12.122323372938688"><ele>162.0</ele><time>2026-04-12T10:56:30.999Z</time></trkpt><trkpt lat="44.088829661470946" lon="12.122446634201635"><ele>159.5</ele><time>2026-04-12T10:56:33.999Z</time></trkpt><trkpt lat="44.08879925945285" lon="12.122536767886121"><ele>157.0</ele><time>2026-04-12T10:56:35.999Z</time></trkpt><trkpt lat="44.08876928456052" lon="12.12263351131596"><ele>154.5</ele><time>2026-04-12T10:56:38.999Z</time></trkpt><trkpt lat="44.088749263749506" lon="12.122723386425436"><ele>152.0</ele><time>2026-04-12T10:56:41.999Z</time></trkpt><trkpt lat="44.08872946481703" lon="12.122808548534662"><ele>149.5</ele><time>2026-04-12T11:00:04Z</time></trkpt><trkpt lat="44.08868502352058" lon="12.122928888553778"><ele>147.0</ele><time>2026-04-12T11:00:07Z</time></trkpt><trkpt lat="44.08865168670834" lon="12.123027458168078"><ele>147.0</ele><time>2026-04-12T11:00:10Z</time></trkpt><trkpt lat="44.08861721125362" lon="12.123127071612846"><ele>147.0</ele><time>2026-04-12T11:00:12Z</time></trkpt><trkpt lat="44.08858921464688" lon="12.123210857194307"><ele>147.0</ele><time>2026-04-12T11:00:15Z</time></trkpt><trkpt lat="44.0885396811213" lon="12.123318641505094"><ele>147.0</ele><time>2026-04-12T11:00:17Z</time></trkpt><trkpt lat="44.088504778844005" lon="12.123393149603903"><ele>147.0</ele><time>2026-04-12T11:00:18.999Z</time></trkpt><trkpt lat="44.08845494019583" lon="12.123469669951996"><ele>147.0</ele><time>2026-04-12T11:00:22.999Z</time></trkpt><trkpt lat="44.088371380665464" lon="12.12345858013751"><ele>147.0</ele><time>2026-04-12T11:00:26.999Z</time></trkpt><trkpt lat="44.08833592607311" lon="12.123360743346636"><ele>147.0</ele><time>2026-04-12T11:00:28.999Z</time></trkpt><trkpt lat="44.08836423004378" lon="12.123225109054813"><ele>147.0</ele><time>2026-04-12T11:00:30.999Z</time></trkpt><trkpt lat="44.088392256073796" lon="12.123139639283243"><ele>147.0</ele><time>2026-04-12T11:00:32.999Z</time></trkpt><trkpt lat="44.088343067530175" lon="12.123059564815467"><ele>147.0</ele><time>2026-04-12T11:00:33.999Z</time></trkpt><trkpt lat="44.08828344906819" lon="12.122940742148575"><ele>147.0</ele><time>2026-04-12T11:00:35.999Z</time></trkpt><trkpt lat="44.088254422317846" lon="12.12285148542324"><ele>149.0</ele><time>2026-04-12T11:00:37.999Z</time></trkpt><trkpt lat="44.08821208892111" lon="12.122723390249028"><ele>151.0</ele><time>2026-04-12T11:00:39.999Z</time></trkpt><trkpt lat="44.08816998342501" lon="12.122653586435979"><ele>153.0</ele><time>2026-04-12T11:00:41.999Z</time></trkpt><trkpt lat="44.088116053825956" lon="12.122584780732375"><ele>155.0</ele><time>2026-04-12T11:00:55.999Z</time></trkpt><trkpt lat="44.08806211833202" lon="12.122522298179206"><ele>157.0</ele><time>2026-04-12T11:00:56.999Z</time></trkpt><trkpt lat="44.087988676166205" lon="12.12240524926365"><ele>159.0</ele><time>2026-04-12T11:00:58.999Z</time></trkpt><trkpt lat="44.088014092551475" lon="12.12231990475588"><ele>161.0</ele><time>2026-04-12T11:01:00.999Z</time></trkpt><trkpt lat="44.08810218625589" lon="12.122308630603605"><ele>163.0</ele><time>2026-04-12T11:01:08Z</time></trkpt><trkpt lat="44.0881607988213" lon="12.122228363609228"><ele>165.0</ele><time>2026-04-12T11:01:11Z</time></trkpt><trkpt lat="44.08813710339763" lon="12.122115753917939"><ele>167.0</ele><time>2026-04-12T11:01:14Z</time></trkpt><trkpt lat="44.08807562943017" lon="12.122069006650872"><ele>169.0</ele><time>2026-04-12T11:01:16Z</time></trkpt><trkpt lat="44.08799668386969" lon="12.12202321546686"><ele>171.0</ele><time>2026-04-12T11:01:18Z</time></trkpt><trkpt lat="44.08788860504722" lon="12.121977129853642"><ele>171.0</ele><time>2026-04-12T11:01:20Z</time></trkpt><trkpt lat="44.087798818368036" lon="12.121985059800691"><ele>171.0</ele><time>2026-04-12T11:04:02Z</time></trkpt><trkpt lat="44.08767082369401" lon="12.121965670568029"><ele>171.0</ele><time>2026-04-12T11:04:04Z</time></trkpt><trkpt lat="44.08759840228637" lon="12.12199526943027"><ele>171.0</ele><time>2026-04-12T11:04:05Z</time></trkpt><trkpt lat="44.08752483918322" lon="12.122012740378466"><ele>171.0</ele><time>2026-04-12T11:04:06Z</time></trkpt><trkpt lat="44.08741521486954" lon="12.122026443836363"><ele>171.16666666666666</ele><time>2026-04-12T11:04:08Z</time></trkpt><trkpt lat="44.08733138891759" lon="12.121996401259269"><ele>171.33333333333334</ele><time>2026-04-12T11:04:12Z</time></trkpt><trkpt lat="44.08725533344302" lon="12.122013481613173"><ele>171.5</ele><time>2026-04-12T11:04:14Z</time></trkpt><trkpt lat="44.0871830460422" lon="12.12202620041362"><ele>171.66666666666669</ele><time>2026-04-12T11:04:17Z</time></trkpt><trkpt lat="44.087093645604995" lon="12.12203423470334"><ele>171.83333333333334</ele><time>2026-04-12T11:04:19Z</time></trkpt><trkpt lat="44.08702027922358" lon="12.122022369835236"><ele>172.0</ele><time>2026-04-12T11:04:21Z</time></trkpt><trkpt lat="44.0869363655195" lon="12.122020741139481"><ele>172.0</ele><time>2026-04-12T11:04:23Z</time></trkpt><trkpt lat="44.08686891768946" lon="12.12202945122434"><ele>172.0</ele><time>2026-04-12T11:04:25Z</time></trkpt><trkpt lat="44.08682804364347" lon="12.121940007302424"><ele>172.0</ele><time>2026-04-12T11:04:30Z</time></trkpt><trkpt lat="44.086800174275254" lon="12.121847954992067"><ele>172.0</ele><time>2026-04-12T11:04:31Z</time></trkpt><trkpt lat="44.08677144108231" lon="12.121693849657534"><ele>172.0</ele><time>2026-04-12T11:04:33Z</time></trkpt><trkpt lat="44.08676797214017" lon="12.12153130398355"><ele>172.0</ele><time>2026-04-12T11:04:36Z</time></trkpt><trkpt lat="44.086786413988946" lon="12.121415499859063"><ele>175.6</ele><time>2026-04-12T11:04:38Z</time></trkpt><trkpt lat="44.08678471280599" lon="12.12129410545874"><ele>179.2</ele><time>2026-04-12T11:04:40Z</time></trkpt><trkpt lat="44.08676393328704" lon="12.121165038062356"><ele>182.8</ele><time>2026-04-12T11:04:42Z</time></trkpt><trkpt lat="44.08676461495128" lon="12.121072268436302"><ele>186.4</ele><time>2026-04-12T11:04:44Z</time></trkpt><trkpt lat="44.086762540859745" lon="12.120920000572951"><ele>190.0</ele><time>2026-04-12T11:04:46Z</time></trkpt><trkpt lat="44.086762563090794" lon="12.1207584830154"><ele>193.0</ele><time>2026-04-12T11:04:48Z</time></trkpt><trkpt lat="44.08675264982222" lon="12.120656228562012"><ele>196.0</ele><time>2026-04-12T11:04:50Z</time></trkpt><trkpt lat="44.08675101575457" lon="12.120559157648902"><ele>199.0</ele><time>2026-04-12T11:04:52Z</time></trkpt><trkpt lat="44.086756377699956" lon="12.120422816611207"><ele>202.0</ele><time>2026-04-12T11:04:55Z</time></trkpt><trkpt lat="44.086761876712245" lon="12.120282236533576"><ele>204.99999999999997</ele><time>2026-04-12T11:04:58Z</time></trkpt><trkpt lat="44.08674707335634" lon="12.120182887302226"><ele>208.0</ele><time>2026-04-12T11:05:00Z</time></trkpt><trkpt lat="44.086804171949794" lon="12.120098378152422"><ele>207.99999999999997</ele><time>2026-04-12T11:05:02Z</time></trkpt><trkpt lat="44.086862146303396" lon="12.120040270331883"><ele>208.0</ele><time>2026-04-12T11:05:03Z</time></trkpt><trkpt lat="44.08679538040211" lon="12.119997800631232"><ele>208.0</ele><time>2026-04-12T11:05:04Z</time></trkpt><trkpt lat="44.086744229965255" lon="12.119941161561295"><ele>208.0</ele><time>2026-04-12T11:05:06Z</time></trkpt><trkpt lat="44.086669634415216" lon="12.119887879131065"><ele>207.99999999999997</ele><time>2026-04-12T11:05:17Z</time></trkpt><trkpt lat="44.086563898677404" lon="12.119822667206583"><ele>208.0</ele><time>2026-04-12T11:05:19Z</time></trkpt><trkpt lat="44.08647267111556" lon="12.119771888134203"><ele>209.33333333333331</ele><time>2026-04-12T11:05:21Z</time></trkpt><trkpt lat="44.08640828343661" lon="12.119710863674689"><ele>210.66666666666666</ele><time>2026-04-12T11:05:23Z</time></trkpt><trkpt lat="44.08643530387882" lon="12.11961793267042"><ele>212.0</ele><time>2026-04-12T11:05:27Z</time></trkpt><trkpt lat="44.086503691160935" lon="12.1196153411117"><ele>213.33333333333331</ele><time>2026-04-12T11:05:29Z</time></trkpt><trkpt lat="44.08651980818253" lon="12.119480511208526"><ele>214.66666666666666</ele><time>2026-04-12T11:05:32Z</time></trkpt><trkpt lat="44.08654858663694" lon="12.119347595984275"><ele>216.0</ele><time>2026-04-12T11:05:34Z</time></trkpt><trkpt lat="44.086581910721115" lon="12.119212134843899"><ele>214.8</ele><time>2026-04-12T11:05:36Z</time></trkpt><trkpt lat="44.086602782273125" lon="12.119089467257188"><ele>213.60000000000002</ele><time>2026-04-12T11:05:38Z</time></trkpt><trkpt lat="44.08661408934968" lon="12.11897872137815"><ele>212.4</ele><time>2026-04-12T11:05:39Z</time></trkpt><trkpt lat="44.08664135640979" lon="12.118861663492794"><ele>211.2</ele><time>2026-04-12T11:05:40Z</time></trkpt><trkpt lat="44.086688796656595" lon="12.118741893272247"><ele>210.0</ele><time>2026-04-12T11:05:41Z</time></trkpt><trkpt lat="44.086742436711155" lon="12.118634416085367"><ele>208.33333333333334</ele><time>2026-04-12T11:05:42Z</time></trkpt><trkpt lat="44.08678756989516" lon="12.118539712187905"><ele>206.66666666666669</ele><time>2026-04-12T11:05:43Z</time></trkpt><trkpt lat="44.08683394185478" lon="12.11844667229804"><ele>205.0</ele><time>2026-04-12T11:05:44Z</time></trkpt><trkpt lat="44.086884786748925" lon="12.118353908710539"><ele>203.33333333333334</ele><time>2026-04-12T11:05:45Z</time></trkpt><trkpt lat="44.08694873081874" lon="12.118254320679965"><ele>201.66666666666669</ele><time>2026-04-12T11:05:46Z</time></trkpt><trkpt lat="44.08701369165586" lon="12.118167907079773"><ele>200.0</ele><time>2026-04-12T11:05:47Z</time></trkpt><trkpt lat="44.087074121732655" lon="12.118088743262353"><ele>198.00000000000003</ele><time>2026-04-12T11:05:48Z</time></trkpt><trkpt lat="44.08712627829224" lon="12.118012122102193"><ele>196.0</ele><time>2026-04-12T11:05:49Z</time></trkpt><trkpt lat="44.08717235928036" lon="12.117948147466826"><ele>194.0</ele><time>2026-04-12T11:05:50Z</time></trkpt><trkpt lat="44.08721621666987" lon="12.117878292928125"><ele>192.0</ele><time>2026-04-12T11:05:51Z</time></trkpt><trkpt lat="44.087261300161" lon="12.117768963274246"><ele>190.0</ele><time>2026-04-12T11:05:53Z</time></trkpt><trkpt lat="44.08728109378627" lon="12.117637138827844"><ele>188.0</ele><time>2026-04-12T11:05:55Z</time></trkpt><trkpt lat="44.0872290657627" lon="12.117572751244264"><ele>188.0</ele><time>2026-04-12T11:05:57Z</time></trkpt><trkpt lat="44.08718187304656" lon="12.117513929624849"><ele>188.0</ele><time>2026-04-12T11:05:59Z</time></trkpt><trkpt lat="44.087133922295656" lon="12.117393950008715"><ele>188.0</ele><time>2026-04-12T11:06:02Z</time></trkpt><trkpt lat="44.08710981726959" lon="12.117254469103434"><ele>188.0</ele><time>2026-04-12T11:06:04Z</time></trkpt><trkpt lat="44.087124119298196" lon="12.11709603706257"><ele>188.0</ele><time>2026-04-12T11:06:06Z</time></trkpt><trkpt lat="44.08709928480515" lon="12.116937687317913"><ele>186.33333333333331</ele><time>2026-04-12T11:06:08Z</time></trkpt><trkpt lat="44.08704991615419" lon="12.116802304166077"><ele>184.66666666666666</ele><time>2026-04-12T11:06:10Z</time></trkpt><trkpt lat="44.08701268051666" lon="12.116713542646275"><ele>183.0</ele><time>2026-04-12T11:06:11Z</time></trkpt><trkpt lat="44.08696452271076" lon="12.116640660320993"><ele>181.33333333333334</ele><time>2026-04-12T11:06:12Z</time></trkpt><trkpt lat="44.08691106331551" lon="12.11651302238947"><ele>179.66666666666669</ele><time>2026-04-12T11:06:14Z</time></trkpt><trkpt lat="44.08685031855804" lon="12.116468325062188"><ele>178.0</ele><time>2026-04-12T11:06:16Z</time></trkpt><trkpt lat="44.08672792781423" lon="12.11644153608902"><ele>178.0</ele><time>2026-04-12T11:06:26Z</time></trkpt><trkpt lat="44.0866158063129" lon="12.116368159926687"><ele>178.0</ele><time>2026-04-12T11:06:28Z</time></trkpt><trkpt lat="44.08654978329609" lon="12.116303348239963"><ele>178.0</ele><time>2026-04-12T11:06:29Z</time></trkpt><trkpt lat="44.08649167882433" lon="12.116252629138645"><ele>178.0</ele><time>2026-04-12T11:06:30Z</time></trkpt><trkpt lat="44.08642662657357" lon="12.11618557659664"><ele>178.0</ele><time>2026-04-12T11:06:31Z</time></trkpt><trkpt lat="44.08636946621588" lon="12.116121613372604"><ele>178.0</ele><time>2026-04-12T11:06:32Z</time></trkpt><trkpt lat="44.08631326604391" lon="12.116074229218484"><ele>178.0</ele><time>2026-04-12T11:06:33Z</time></trkpt><trkpt lat="44.08618871368417" lon="12.116088650870134"><ele>178.0</ele><time>2026-04-12T11:06:35Z</time></trkpt><trkpt lat="44.08609425252232" lon="12.116069812266575"><ele>178.0</ele><time>2026-04-12T11:06:36Z</time></trkpt><trkpt lat="44.08599046636455" lon="12.116024791794452"><ele>178.0</ele><time>2026-04-12T11:06:37Z</time></trkpt><trkpt lat="44.0859095197713" lon="12.115996153182182"><ele>178.0</ele><time>2026-04-12T11:06:38Z</time></trkpt><trkpt lat="44.085848533602864" lon="12.115959048362008"><ele>178.0</ele><time>2026-04-12T11:06:39Z</time></trkpt><trkpt lat="44.08579645686182" lon="12.115909536120865"><ele>178.0</ele><time>2026-04-12T11:06:40Z</time></trkpt><trkpt lat="44.08573494444828" lon="12.115851937280969"><ele>178.0</ele><time>2026-04-12T11:06:41Z</time></trkpt><trkpt lat="44.08567205354356" lon="12.115797994997683"><ele>178.0</ele><time>2026-04-12T11:06:43Z</time></trkpt><trkpt lat="44.08562968186407" lon="12.115690985604225"><ele>178.0</ele><time>2026-04-12T11:06:46Z</time></trkpt><trkpt lat="44.08561100071646" lon="12.115505022838281"><ele>178.0</ele><time>2026-04-12T11:06:48Z</time></trkpt><trkpt lat="44.085623750008786" lon="12.115409134017275"><ele>180.60000000000002</ele><time>2026-04-12T11:06:49Z</time></trkpt><trkpt lat="44.085695181556076" lon="12.115248381992771"><ele>183.20000000000002</ele><time>2026-04-12T11:06:51Z</time></trkpt><trkpt lat="44.08572184969704" lon="12.115166547276315"><ele>185.8</ele><time>2026-04-12T11:06:52Z</time></trkpt><trkpt lat="44.08570710678985" lon="12.115037780499517"><ele>188.4</ele><time>2026-04-12T11:06:54Z</time></trkpt><trkpt lat="44.08562022464785" lon="12.114885302330853"><ele>191.0</ele><time>2026-04-12T11:06:56Z</time></trkpt><trkpt lat="44.0855701164679" lon="12.114785244598584"><ele>192.16666666666666</ele><time>2026-04-12T11:06:57Z</time></trkpt><trkpt lat="44.08552624637802" lon="12.114653661431966"><ele>193.33333333333331</ele><time>2026-04-12T11:06:58Z</time></trkpt><trkpt lat="44.08550044664435" lon="12.114520166807257"><ele>194.5</ele><time>2026-04-12T11:06:59Z</time></trkpt><trkpt lat="44.085489163012454" lon="12.114416645434098"><ele>195.66666666666666</ele><time>2026-04-12T11:07:00Z</time></trkpt><trkpt lat="44.085475681353245" lon="12.114298334407676"><ele>196.83333333333334</ele><time>2026-04-12T11:07:01Z</time></trkpt><trkpt lat="44.08546691814043" lon="12.114201781141329"><ele>198.0</ele><time>2026-04-12T11:07:02Z</time></trkpt><trkpt lat="44.08547456519808" lon="12.11410441776536"><ele>200.16666666666666</ele><time>2026-04-12T11:07:05Z</time></trkpt><trkpt lat="44.08549769502714" lon="12.113998775736391"><ele>202.33333333333331</ele><time>2026-04-12T11:07:08Z</time></trkpt><trkpt lat="44.085553958207875" lon="12.113909359693656"><ele>204.5</ele><time>2026-04-12T11:07:11Z</time></trkpt><trkpt lat="44.08562608090639" lon="12.113859117900027"><ele>206.66666666666666</ele><time>2026-04-12T11:07:13Z</time></trkpt><trkpt lat="44.0857411428431" lon="12.113783391614703"><ele>208.83333333333331</ele><time>2026-04-12T11:07:15Z</time></trkpt><trkpt lat="44.0858064987659" lon="12.113728461044623"><ele>211.0</ele><time>2026-04-12T11:07:16Z</time></trkpt><trkpt lat="44.08586048892772" lon="12.113666946125768"><ele>211.0</ele><time>2026-04-12T11:07:17Z</time></trkpt></trkseg><trkseg><trkpt lat="44.086091258348404" lon="12.11267175109223"><ele>225.0</ele><time>2026-04-12T11:22:48.999Z</time></trkpt><trkpt lat="44.08614713768995" lon="12.112599827342292"><ele>225.0</ele><time>2026-04-12T11:23:24.999Z</time></trkpt><trkpt lat="44.08620474241683" lon="12.112541011660817"><ele>225.0</ele><time>2026-04-12T11:23:25.999Z</time></trkpt><trkpt lat="44.086263777391544" lon="12.112484603268792"><ele>225.0</ele><time>2026-04-12T11:23:26.999Z</time></trkpt><trkpt lat="44.0863571050639" lon="12.112385730619076"><ele>225.0</ele><time>2026-04-12T11:23:28.999Z</time></trkpt><trkpt lat="44.086415147852" lon="12.112320721431065"><ele>225.0</ele><time>2026-04-12T11:23:29.999Z</time></trkpt><trkpt lat="44.08649068368017" lon="12.112258514901093"><ele>225.0</ele><time>2026-04-12T11:23:31.999Z</time></trkpt><trkpt lat="44.08657214365671" lon="12.112264896968977"><ele>225.0</ele><time>2026-04-12T11:23:34.999Z</time></trkpt><trkpt lat="44.086621220665535" lon="12.112332124426567"><ele>225.0</ele><time>2026-04-12T11:23:36.999Z</time></trkpt><trkpt lat="44.08668524234179" lon="12.11236374892174"><ele>225.0</ele><time>2026-04-12T11:23:38.999Z</time></trkpt><trkpt lat="44.086642257264636" lon="12.112471750771348"><ele>225.0</ele><time>2026-04-12T11:23:52.999Z</time></trkpt><trkpt lat="44.086588397979774" lon="12.112630631100686"><ele>225.0</ele><time>2026-04-12T11:23:54.999Z</time></trkpt><trkpt lat="44.086608472696774" lon="12.112742253799576"><ele>225.0</ele><time>2026-04-12T11:23:56.999Z</time></trkpt></trkseg><trkseg><trkpt lat="44.08657331503158" lon="12.112613180386502"><ele>225.00000000000003</ele><time>2026-04-12T11:36:43.001Z</time></trkpt><trkpt lat="44.08658403283529" lon="12.112512927385287"><ele>225.0</ele><time>2026-04-12T11:36:44.001Z</time></trkpt><trkpt lat="44.0866203404459" lon="12.112438128061681"><ele>225.00000000000003</ele><time>2026-04-12T11:36:45.001Z</time></trkpt><trkpt lat="44.086676395943854" lon="12.11236228742577"><ele>225.00000000000003</ele><time>2026-04-12T11:36:46Z</time></trkpt><trkpt lat="44.08670798604093" lon="12.112257887460622"><ele>225.0</ele><time>2026-04-12T11:36:47Z</time></trkpt><trkpt lat="44.086744275233485" lon="12.112180373943852"><ele>225.00000000000003</ele><time>2026-04-12T11:36:48Z</time></trkpt><trkpt lat="44.08678799156859" lon="12.112104213884098"><ele>225.00000000000003</ele><time>2026-04-12T11:36:49Z</time></trkpt><trkpt lat="44.08672596682392" lon="12.112041456712602"><ele>226.4</ele><time>2026-04-12T11:36:50Z</time></trkpt><trkpt lat="44.08665521225223" lon="12.112016602323298"><ele>227.8</ele><time>2026-04-12T11:36:51Z</time></trkpt><trkpt lat="44.08659006659626" lon="12.11195419605339"><ele>229.2</ele><time>2026-04-12T11:36:52Z</time></trkpt><trkpt lat="44.08650707416572" lon="12.111870864415634"><ele>230.6</ele><time>2026-04-12T11:36:53Z</time></trkpt><trkpt lat="44.08641501816491" lon="12.111783321854185"><ele>232.0</ele><time>2026-04-12T11:36:54Z</time></trkpt><trkpt lat="44.086312144272206" lon="12.11169060373006"><ele>232.0</ele><time>2026-04-12T11:36:55Z</time></trkpt><trkpt lat="44.0862093083698" lon="12.111598173206332"><ele>232.0</ele><time>2026-04-12T11:36:56Z</time></trkpt><trkpt lat="44.08610288520464" lon="12.111506200312324"><ele>232.0</ele><time>2026-04-12T11:36:57Z</time></trkpt><trkpt lat="44.08598568406627" lon="12.111384825677279"><ele>232.0</ele><time>2026-04-12T11:36:58Z</time></trkpt><trkpt lat="44.085918638176125" lon="12.11125986731496"><ele>236.0</ele><time>2026-04-12T11:36:59Z</time></trkpt><trkpt lat="44.085889072956974" lon="12.111179948377833"><ele>240.0</ele><time>2026-04-12T11:37:00Z</time></trkpt><trkpt lat="44.086038391971464" lon="12.11110923710445"><ele>244.0</ele><time>2026-04-12T11:37:06Z</time></trkpt><trkpt lat="44.08613137715196" lon="12.111143248388258"><ele>248.0</ele><time>2026-04-12T11:37:07Z</time></trkpt><trkpt lat="44.08624428599156" lon="12.11117017067994"><ele>252.0</ele><time>2026-04-12T11:37:08Z</time></trkpt><trkpt lat="44.086373573479364" lon="12.111156734805578"><ele>252.0</ele><time>2026-04-12T11:37:09Z</time></trkpt><trkpt lat="44.08650717516144" lon="12.111169601829229"><ele>252.0</ele><time>2026-04-12T11:37:10Z</time></trkpt><trkpt lat="44.08664448706454" lon="12.111179488551366"><ele>252.0</ele><time>2026-04-12T11:37:11Z</time></trkpt><trkpt lat="44.08675883702961" lon="12.111186799817077"><ele>252.0</ele><time>2026-04-12T11:37:12Z</time></trkpt><trkpt lat="44.086879542706924" lon="12.111188470966647"><ele>254.0</ele><time>2026-04-12T11:37:13Z</time></trkpt><trkpt lat="44.08699774262743" lon="12.111173371095243"><ele>256.0</ele><time>2026-04-12T11:37:14Z</time></trkpt><trkpt lat="44.08712686908109" lon="12.11114239952088"><ele>258.0</ele><time>2026-04-12T11:37:15Z</time></trkpt><trkpt lat="44.08727461619877" lon="12.111077704568386"><ele>260.0</ele><time>2026-04-12T11:37:16Z</time></trkpt><trkpt lat="44.0874257657787" lon="12.111040388706808"><ele>260.4</ele><time>2026-04-12T11:37:17Z</time></trkpt><trkpt lat="44.08754397671252" lon="12.111014654927285"><ele>260.8</ele><time>2026-04-12T11:37:17.999Z</time></trkpt><trkpt lat="44.08766275537444" lon="12.111015708165514"><ele>261.2</ele><time>2026-04-12T11:37:18.999Z</time></trkpt><trkpt lat="44.087757755569136" lon="12.111015397844143"><ele>261.6</ele><time>2026-04-12T11:37:19.999Z</time></trkpt><trkpt lat="44.08786300517297" lon="12.111056258216776"><ele>262.0</ele><time>2026-04-12T11:37:20.999Z</time></trkpt><trkpt lat="44.08797910299266" lon="12.111114273722336"><ele>262.0</ele><time>2026-04-12T11:37:21.999Z</time></trkpt><trkpt lat="44.08807897832763" lon="12.111134805125854"><ele>262.0</ele><time>2026-04-12T11:37:22.999Z</time></trkpt><trkpt lat="44.088149370134346" lon="12.111116647486709"><ele>262.0</ele><time>2026-04-12T11:37:23.999Z</time></trkpt><trkpt lat="44.08821620268132" lon="12.111023829711634"><ele>262.0</ele><time>2026-04-12T11:37:25.999Z</time></trkpt><trkpt lat="44.08820721251766" lon="12.110898435815605"><ele>262.0</ele><time>2026-04-12T11:37:27.999Z</time></trkpt><trkpt lat="44.08809587633064" lon="12.110849749261375"><ele>262.0</ele><time>2026-04-12T11:37:30.999Z</time></trkpt><trkpt lat="44.08802339050547" lon="12.110819906928429"><ele>262.0</ele><time>2026-04-12T11:37:31.999Z</time></trkpt><trkpt lat="44.08792826535735" lon="12.110787536764967"><ele>262.0</ele><time>2026-04-12T11:37:32.999Z</time></trkpt><trkpt lat="44.087836318986845" lon="12.110745639469062"><ele>262.0</ele><time>2026-04-12T11:37:33.999Z</time></trkpt><trkpt lat="44.087724378365564" lon="12.110687978681279"><ele>262.0</ele><time>2026-04-12T11:37:34.999Z</time></trkpt><trkpt lat="44.08761814255582" lon="12.110634320304358"><ele>262.5</ele><time>2026-04-12T11:37:35.999Z</time></trkpt><trkpt lat="44.08750976653348" lon="12.110580949256553"><ele>263.0</ele><time>2026-04-12T11:37:36.999Z</time></trkpt><trkpt lat="44.08737826934512" lon="12.110519932499013"><ele>263.5</ele><time>2026-04-12T11:37:37.999Z</time></trkpt><trkpt lat="44.08721871703784" lon="12.1104758755365"><ele>264.0</ele><time>2026-04-12T11:37:38.999Z</time></trkpt><trkpt lat="44.087072897999306" lon="12.110454862788588"><ele>266.0</ele><time>2026-04-12T11:37:39.999Z</time></trkpt><trkpt lat="44.086937148030984" lon="12.110437486779976"><ele>268.0</ele><time>2026-04-12T11:37:40.999Z</time></trkpt><trkpt lat="44.086851687570494" lon="12.110380786303741"><ele>270.0</ele><time>2026-04-12T11:37:41.999Z</time></trkpt><trkpt lat="44.08679108315961" lon="12.110353332664275"><ele>272.0</ele><time>2026-04-12T11:37:42.999Z</time></trkpt><trkpt lat="44.08674367674526" lon="12.110235738216685"><ele>274.0</ele><time>2026-04-12T11:37:44.999Z</time></trkpt><trkpt lat="44.08681550513967" lon="12.110098081585654"><ele>274.0</ele><time>2026-04-12T11:37:45.999Z</time></trkpt><trkpt lat="44.086831451253325" lon="12.1099487245071"><ele>274.0</ele><time>2026-04-12T11:37:46.999Z</time></trkpt><trkpt lat="44.08683499447655" lon="12.109766835493652"><ele>274.0</ele><time>2026-04-12T11:37:47.999Z</time></trkpt><trkpt lat="44.08685420249715" lon="12.109583957784672"><ele>274.0</ele><time>2026-04-12T11:37:48.999Z</time></trkpt><trkpt lat="44.08689022930209" lon="12.109383180138666"><ele>274.3333333333333</ele><time>2026-04-12T11:37:49.999Z</time></trkpt><trkpt lat="44.08690937727233" lon="12.109163183687437"><ele>274.6666666666667</ele><time>2026-04-12T11:37:50.999Z</time></trkpt><trkpt lat="44.08692983297062" lon="12.108928162262094"><ele>275.0</ele><time>2026-04-12T11:37:51.999Z</time></trkpt><trkpt lat="44.08694939154776" lon="12.108703448197918"><ele>275.0</ele><time>2026-04-12T11:37:52.999Z</time></trkpt><trkpt lat="44.08694967326959" lon="12.108486930064162"><ele>275.0</ele><time>2026-04-12T11:37:53.999Z</time></trkpt><trkpt lat="44.08696663004848" lon="12.10825988672536"><ele>275.0</ele><time>2026-04-12T11:37:54.999Z</time></trkpt><trkpt lat="44.08698711684716" lon="12.108009535220335"><ele>275.0</ele><time>2026-04-12T11:37:55.999Z</time></trkpt><trkpt lat="44.08700535649283" lon="12.107791556138173"><ele>275.0</ele><time>2026-04-12T11:37:56.999Z</time></trkpt><trkpt lat="44.087021346111364" lon="12.107589223860955"><ele>275.0</ele><time>2026-04-12T11:37:57.999Z</time></trkpt><trkpt lat="44.08703991884636" lon="12.107392470908607"><ele>275.0</ele><time>2026-04-12T11:37:58.999Z</time></trkpt><trkpt lat="44.08706451003529" lon="12.107182052947538"><ele>277.25</ele><time>2026-04-12T11:37:59.999Z</time></trkpt><trkpt lat="44.087097773763155" lon="12.10697817859535"><ele>279.5</ele><time>2026-04-12T11:38:00.999Z</time></trkpt><trkpt lat="44.08711476106489" lon="12.106766688750326"><ele>281.75</ele><time>2026-04-12T11:38:01.999Z</time></trkpt><trkpt lat="44.08713896585088" lon="12.10658058125487"><ele>284.0</ele><time>2026-04-12T11:38:02.999Z</time></trkpt><trkpt lat="44.08718273116027" lon="12.106370004934528"><ele>288.33333333333337</ele><time>2026-04-12T11:38:03.999Z</time></trkpt><trkpt lat="44.08722121272373" lon="12.106139388474684"><ele>292.6666666666667</ele><time>2026-04-12T11:38:04.999Z</time></trkpt><trkpt lat="44.08724785637149" lon="12.105891805495808"><ele>297.0</ele><time>2026-04-12T11:38:05.999Z</time></trkpt><trkpt lat="44.08729594355779" lon="12.105618959706785"><ele>296.3333333333333</ele><time>2026-04-12T11:38:06.999Z</time></trkpt><trkpt lat="44.08734037222899" lon="12.105359934155183"><ele>295.66666666666663</ele><time>2026-04-12T11:38:07.999Z</time></trkpt><trkpt lat="44.087381700161224" lon="12.105123582222445"><ele>295.0</ele><time>2026-04-12T11:38:08.999Z</time></trkpt><trkpt lat="44.08742174832922" lon="12.10487031238017"><ele>290.66666666666663</ele><time>2026-04-12T11:38:09.999Z</time></trkpt><trkpt lat="44.08746009416348" lon="12.10459735677795"><ele>286.3333333333333</ele><time>2026-04-12T11:38:10.999Z</time></trkpt><trkpt lat="44.08750050026877" lon="12.104357993678208"><ele>282.0</ele><time>2026-04-12T11:38:11.999Z</time></trkpt><trkpt lat="44.08754397761816" lon="12.104105749016032"><ele>282.0</ele><time>2026-04-12T11:38:12.999Z</time></trkpt><trkpt lat="44.08758409748182" lon="12.103874178878561"><ele>282.0</ele><time>2026-04-12T11:38:13.999Z</time></trkpt><trkpt lat="44.08761016378963" lon="12.103701039871849"><ele>282.0</ele><time>2026-04-12T11:38:14.999Z</time></trkpt><trkpt lat="44.087652987473156" lon="12.103546424903685"><ele>282.0</ele><time>2026-04-12T11:38:15.999Z</time></trkpt><trkpt lat="44.08765349020213" lon="12.103403343444617"><ele>282.0</ele><time>2026-04-12T11:38:16.999Z</time></trkpt><trkpt lat="44.08766611613392" lon="12.103298468720153"><ele>282.0</ele><time>2026-04-12T11:38:17.999Z</time></trkpt><trkpt lat="44.08767081972947" lon="12.103189177964412"><ele>282.0</ele><time>2026-04-12T11:38:19.999Z</time></trkpt><trkpt lat="44.087769614725694" lon="12.10314150714249"><ele>282.0</ele><time>2026-04-12T11:38:20.999Z</time></trkpt><trkpt lat="44.08784404932722" lon="12.103046281147508"><ele>282.0</ele><time>2026-04-12T11:38:21.999Z</time></trkpt><trkpt lat="44.08793772117614" lon="12.102934877040884"><ele>281.0</ele><time>2026-04-12T11:38:22.999Z</time></trkpt><trkpt lat="44.08802306453704" lon="12.102848353885502"><ele>280.0</ele><time>2026-04-12T11:38:23.999Z</time></trkpt><trkpt lat="44.08810728947999" lon="12.102781872331454"><ele>279.0</ele><time>2026-04-12T11:38:24.999Z</time></trkpt><trkpt lat="44.08821570742943" lon="12.102718463116387"><ele>278.0</ele><time>2026-04-12T11:38:26.999Z</time></trkpt><trkpt lat="44.08829686965814" lon="12.102671772773274"><ele>277.0</ele><time>2026-04-12T11:38:27.999Z</time></trkpt><trkpt lat="44.08840497715605" lon="12.102614614988756"><ele>277.0</ele><time>2026-04-12T11:38:28.999Z</time></trkpt><trkpt lat="44.08850048846289" lon="12.102570309196171"><ele>277.0</ele><time>2026-04-12T11:38:29.999Z</time></trkpt><trkpt lat="44.08859488146197" lon="12.102529630888911"><ele>277.0</ele><time>2026-04-12T11:38:30.999Z</time></trkpt><trkpt lat="44.088677544290356" lon="12.10249212492517"><ele>277.0</ele><time>2026-04-12T11:38:31.999Z</time></trkpt><trkpt lat="44.08876455351594" lon="12.102448259204996"><ele>277.0</ele><time>2026-04-12T11:38:32.999Z</time></trkpt><trkpt lat="44.08882547457306" lon="12.102411999271265"><ele>277.0</ele><time>2026-04-12T11:38:33.999Z</time></trkpt><trkpt lat="44.08892623279317" lon="12.102345010870298"><ele>268.0</ele><time>2026-04-12T11:38:35.999Z</time></trkpt><trkpt lat="44.08904351359715" lon="12.102250616070656"><ele>259.0</ele><time>2026-04-12T11:38:38.999Z</time></trkpt><trkpt lat="44.08880070499426" lon="12.101811067624633"><ele>259.0</ele><time>2026-04-12T11:38:42.999Z</time></trkpt><trkpt lat="44.08867635684471" lon="12.101875081955829"><ele>259.0</ele><time>2026-04-12T11:38:44.999Z</time></trkpt><trkpt lat="44.08858211880353" lon="12.101876723941482"><ele>259.0</ele><time>2026-04-12T11:38:45.999Z</time></trkpt><trkpt lat="44.088481803749076" lon="12.101795684889382"><ele>259.0</ele><time>2026-04-12T11:38:46.999Z</time></trkpt><trkpt lat="44.0883856274166" lon="12.101772860938306"><ele>259.0</ele><time>2026-04-12T11:38:47.999Z</time></trkpt><trkpt lat="44.08831610690774" lon="12.1017563627738"><ele>256.0</ele><time>2026-04-12T11:38:48.999Z</time></trkpt><trkpt lat="44.08816198846495" lon="12.101738462171843"><ele>253.0</ele><time>2026-04-12T11:38:49.999Z</time></trkpt><trkpt lat="44.08798444693913" lon="12.101700810328275"><ele>250.0</ele><time>2026-04-12T11:38:50.999Z</time></trkpt><trkpt lat="44.08784464400366" lon="12.101675040112532"><ele>250.0</ele><time>2026-04-12T11:38:51.999Z</time></trkpt><trkpt lat="44.08770820649702" lon="12.101651032796074"><ele>250.0</ele><time>2026-04-12T11:38:52.999Z</time></trkpt><trkpt lat="44.0876007209058" lon="12.101637658341572"><ele>250.0</ele><time>2026-04-12T11:38:53.999Z</time></trkpt><trkpt lat="44.08746553890907" lon="12.10161009609009"><ele>250.0</ele><time>2026-04-12T11:38:54.999Z</time></trkpt><trkpt lat="44.087336301450144" lon="12.101562386350786"><ele>246.5</ele><time>2026-04-12T11:38:55.999Z</time></trkpt><trkpt lat="44.0872073194287" lon="12.10153991789259"><ele>243.0</ele><time>2026-04-12T11:38:56.999Z</time></trkpt><trkpt lat="44.08708961850292" lon="12.10151722224593"><ele>239.5</ele><time>2026-04-12T11:38:57.999Z</time></trkpt><trkpt lat="44.08698887882214" lon="12.101458129486744"><ele>236.0</ele><time>2026-04-12T11:38:58.999Z</time></trkpt><trkpt lat="44.08685946873936" lon="12.1014264190526"><ele>236.0</ele><time>2026-04-12T11:38:59.999Z</time></trkpt><trkpt lat="44.08674039960156" lon="12.101467202320105"><ele>236.00000000000003</ele><time>2026-04-12T11:39:00.999Z</time></trkpt><trkpt lat="44.086639160925" lon="12.101422377922944"><ele>236.00000000000003</ele><time>2026-04-12T11:39:01.999Z</time></trkpt><trkpt lat="44.08654798392895" lon="12.10137251644732"><ele>236.0</ele><time>2026-04-12T11:39:02.999Z</time></trkpt><trkpt lat="44.08645228580322" lon="12.101311271550784"><ele>236.0</ele><time>2026-04-12T11:39:03.999Z</time></trkpt><trkpt lat="44.086371366218756" lon="12.101211369001"><ele>237.0</ele><time>2026-04-12T11:39:04.999Z</time></trkpt><trkpt lat="44.08628786027523" lon="12.10114459111218"><ele>238.0</ele><time>2026-04-12T11:39:05.999Z</time></trkpt><trkpt lat="44.086200350983006" lon="12.101027609431565"><ele>239.0</ele><time>2026-04-12T11:39:06.999Z</time></trkpt><trkpt lat="44.08612706634371" lon="12.100912216302039"><ele>240.0</ele><time>2026-04-12T11:39:07.999Z</time></trkpt><trkpt lat="44.086046031362294" lon="12.100764687931628"><ele>238.4</ele><time>2026-04-12T11:39:08.999Z</time></trkpt><trkpt lat="44.08596227175767" lon="12.100661593240677"><ele>236.8</ele><time>2026-04-12T11:39:09.999Z</time></trkpt><trkpt lat="44.085897835962" lon="12.100552883774077"><ele>235.2</ele><time>2026-04-12T11:39:10.999Z</time></trkpt><trkpt lat="44.085850147820075" lon="12.100437802560892"><ele>233.6</ele><time>2026-04-12T11:39:11.999Z</time></trkpt><trkpt lat="44.08580665577935" lon="12.100354119328484"><ele>232.0</ele><time>2026-04-12T11:39:12.999Z</time></trkpt><trkpt lat="44.08576777262134" lon="12.100248234906607"><ele>232.0</ele><time>2026-04-12T11:39:14.999Z</time></trkpt><trkpt lat="44.08589301065837" lon="12.100160789355796"><ele>232.0</ele><time>2026-04-12T11:39:16.999Z</time></trkpt><trkpt lat="44.085880553364966" lon="12.100037813757677"><ele>232.0</ele><time>2026-04-12T11:39:18.999Z</time></trkpt><trkpt lat="44.085882485771144" lon="12.099949949392725"><ele>232.0</ele><time>2026-04-12T11:39:20.999Z</time></trkpt><trkpt lat="44.08586779461259" lon="12.099814015988535"><ele>232.0</ele><time>2026-04-12T11:39:22.999Z</time></trkpt><trkpt lat="44.085885438439256" lon="12.099682024800185"><ele>230.16666666666666</ele><time>2026-04-12T11:39:24.999Z</time></trkpt><trkpt lat="44.085892627620154" lon="12.099530157705962"><ele>228.33333333333331</ele><time>2026-04-12T11:39:26.999Z</time></trkpt><trkpt lat="44.08592793533481" lon="12.099358796930764"><ele>226.5</ele><time>2026-04-12T11:39:28.999Z</time></trkpt><trkpt lat="44.085966253359906" lon="12.099269103003975"><ele>224.66666666666669</ele><time>2026-04-12T11:39:29.999Z</time></trkpt><trkpt lat="44.08600513724729" lon="12.09918378719196"><ele>222.83333333333334</ele><time>2026-04-12T11:39:30.999Z</time></trkpt><trkpt lat="44.086039593694316" lon="12.099109242876695"><ele>221.0</ele><time>2026-04-12T11:39:31.999Z</time></trkpt><trkpt lat="44.08608997044072" lon="12.099001260820542"><ele>218.50000000000003</ele><time>2026-04-12T11:39:33.999Z</time></trkpt><trkpt lat="44.08613477965919" lon="12.09890856293094"><ele>216.0</ele><time>2026-04-12T11:40:19.999Z</time></trkpt><trkpt lat="44.08616233497414" lon="12.098816939785642"><ele>213.5</ele><time>2026-04-12T11:40:21.999Z</time></trkpt><trkpt lat="44.08621631940104" lon="12.098756817236714"><ele>211.0</ele><time>2026-04-12T11:40:23.999Z</time></trkpt><trkpt lat="44.08626692074208" lon="12.098653662325406"><ele>208.50000000000003</ele><time>2026-04-12T11:40:27.998Z</time></trkpt><trkpt lat="44.08631278429919" lon="12.098532674463947"><ele>206.0</ele><time>2026-04-12T11:40:30.999Z</time></trkpt><trkpt lat="44.08635197653808" lon="12.098419500988502"><ele>206.0</ele><time>2026-04-12T11:40:32.999Z</time></trkpt><trkpt lat="44.086382152827234" lon="12.098316432823946"><ele>206.0</ele><time>2026-04-12T11:40:33.999Z</time></trkpt><trkpt lat="44.08639800320483" lon="12.098167136831584"><ele>206.0</ele><time>2026-04-12T11:40:34.999Z</time></trkpt><trkpt lat="44.08638360690115" lon="12.098060325950286"><ele>206.0</ele><time>2026-04-12T11:40:35.999Z</time></trkpt><trkpt lat="44.08635600844151" lon="12.097966433099986"><ele>206.0</ele><time>2026-04-12T11:40:36.999Z</time></trkpt><trkpt lat="44.08617753547344" lon="12.097808474366891"><ele>203.28571428571428</ele><time>2026-04-12T11:40:37.999Z</time></trkpt><trkpt lat="44.086094943788154" lon="12.097731030040014"><ele>200.57142857142856</ele><time>2026-04-12T11:40:39.999Z</time></trkpt><trkpt lat="44.08603605003309" lon="12.097675806722277"><ele>197.85714285714283</ele><time>2026-04-12T11:40:41.999Z</time></trkpt><trkpt lat="44.08598107587049" lon="12.097624258711983"><ele>195.14285714285714</ele><time>2026-04-12T11:40:45.999Z</time></trkpt><trkpt lat="44.08594916758985" lon="12.097547332854504"><ele>192.42857142857144</ele><time>2026-04-12T11:40:49.999Z</time></trkpt><trkpt lat="44.085939247051336" lon="12.097447349100015"><ele>189.7142857142857</ele><time>2026-04-12T11:41:03.999Z</time></trkpt><trkpt lat="44.08589246880868" lon="12.097366981006305"><ele>187.0</ele><time>2026-04-12T11:41:07.999Z</time></trkpt><trkpt lat="44.085833060625696" lon="12.09729241111883"><ele>184.0</ele><time>2026-04-12T11:41:12.999Z</time></trkpt><trkpt lat="44.08577846265765" lon="12.097219113908416"><ele>181.0</ele><time>2026-04-12T11:41:17.999Z</time></trkpt><trkpt lat="44.085754840717335" lon="12.0971328875228"><ele>178.0</ele><time>2026-04-12T11:41:20.999Z</time></trkpt><trkpt lat="44.08571578579182" lon="12.096999334634566"><ele>175.0</ele><time>2026-04-12T11:41:24.999Z</time></trkpt><trkpt lat="44.08573175849744" lon="12.096911308831924"><ele>172.0</ele><time>2026-04-12T11:41:27.999Z</time></trkpt><trkpt lat="44.08573458567732" lon="12.096816244201792"><ele>169.0</ele><time>2026-04-12T11:41:29.999Z</time></trkpt><trkpt lat="44.08564773615285" lon="12.096753465268913"><ele>166.2</ele><time>2026-04-12T11:41:34.999Z</time></trkpt><trkpt lat="44.0855756415649" lon="12.096628280766508"><ele>163.39999999999998</ele><time>2026-04-12T11:41:36.999Z</time></trkpt><trkpt lat="44.085512513879394" lon="12.096537956993712"><ele>160.6</ele><time>2026-04-12T11:41:37.999Z</time></trkpt><trkpt lat="44.08549324449472" lon="12.096450796983087"><ele>157.8</ele><time>2026-04-12T11:41:40.999Z</time></trkpt><trkpt lat="44.08551027731808" lon="12.09635400550854"><ele>155.0</ele><time>2026-04-12T11:41:43.999Z</time></trkpt><trkpt lat="44.08553730501139" lon="12.096202109360142"><ele>153.0</ele><time>2026-04-12T11:41:46.999Z</time></trkpt><trkpt lat="44.08552459723967" lon="12.096072589210754"><ele>151.0</ele><time>2026-04-12T11:41:48.999Z</time></trkpt><trkpt lat="44.08551446573161" lon="12.095902255980173"><ele>149.0</ele><time>2026-04-12T11:41:50.999Z</time></trkpt><trkpt lat="44.08551032223183" lon="12.095755574740462"><ele>147.0</ele><time>2026-04-12T11:41:52.999Z</time></trkpt><trkpt lat="44.085525778790284" lon="12.09562993149673"><ele>145.0</ele><time>2026-04-12T11:41:54.999Z</time></trkpt><trkpt lat="44.085550861858344" lon="12.095499205002934"><ele>143.6</ele><time>2026-04-12T11:41:56.999Z</time></trkpt><trkpt lat="44.08561036078098" lon="12.095377102625145"><ele>142.2</ele><time>2026-04-12T11:41:58.999Z</time></trkpt><trkpt lat="44.08568000501323" lon="12.095228842002422"><ele>140.8</ele><time>2026-04-12T11:42:00.999Z</time></trkpt><trkpt lat="44.085717692349796" lon="12.095125812337299"><ele>139.4</ele><time>2026-04-12T11:42:01.999Z</time></trkpt><trkpt lat="44.085748119162844" lon="12.095019365011638"><ele>138.0</ele><time>2026-04-12T11:42:02.999Z</time></trkpt><trkpt lat="44.08574697116679" lon="12.094908536955355"><ele>138.66666666666666</ele><time>2026-04-12T11:42:04.999Z</time></trkpt><trkpt lat="44.08576743040403" lon="12.094799927430666"><ele>139.33333333333334</ele><time>2026-04-12T11:42:11.999Z</time></trkpt><trkpt lat="44.08583957844483" lon="12.094756588841912"><ele>140.0</ele><time>2026-04-12T11:42:26.999Z</time></trkpt><trkpt lat="44.085908169019994" lon="12.094702394967552"><ele>140.66666666666669</ele><time>2026-04-12T11:42:29.999Z</time></trkpt><trkpt lat="44.085986053983675" lon="12.094622000159337"><ele>141.33333333333334</ele><time>2026-04-12T11:42:31.999Z</time></trkpt><trkpt lat="44.08603092794326" lon="12.09453877671028"><ele>142.0</ele><time>2026-04-12T11:42:33.999Z</time></trkpt><trkpt lat="44.08609344285188" lon="12.094470483611616"><ele>142.0</ele><time>2026-04-12T11:42:36.999Z</time></trkpt><trkpt lat="44.08615181876669" lon="12.094424787613908"><ele>142.0</ele><time>2026-04-12T11:42:38.999Z</time></trkpt><trkpt lat="44.08621400956072" lon="12.094369934751725"><ele>142.0</ele><time>2026-04-12T11:42:40.999Z</time></trkpt><trkpt lat="44.08629964170226" lon="12.09431110769467"><ele>142.0</ele><time>2026-04-12T11:42:42.999Z</time></trkpt><trkpt lat="44.08634017651985" lon="12.094226535082347"><ele>142.0</ele><time>2026-04-12T11:42:44.999Z</time></trkpt><trkpt lat="44.08638813671959" lon="12.094131799198323"><ele>142.0</ele><time>2026-04-12T11:42:56.999Z</time></trkpt><trkpt lat="44.086454894649016" lon="12.094044210727093"><ele>139.6</ele><time>2026-04-12T11:42:58.999Z</time></trkpt><trkpt lat="44.086495299355924" lon="12.093946650153917"><ele>137.2</ele><time>2026-04-12T11:43:03.999Z</time></trkpt><trkpt lat="44.0864721672647" lon="12.093834830562587"><ele>134.8</ele><time>2026-04-12T11:52:01Z</time></trkpt><trkpt lat="44.0864443116873" lon="12.093729161054638"><ele>132.4</ele><time>2026-04-12T11:52:02Z</time></trkpt><trkpt lat="44.08639912019566" lon="12.093567244798288"><ele>130.0</ele><time>2026-04-12T11:52:04Z</time></trkpt><trkpt lat="44.086356699641634" lon="12.093456948631093"><ele>130.0</ele><time>2026-04-12T11:52:06Z</time></trkpt><trkpt lat="44.086329614264216" lon="12.093304560181833"><ele>130.0</ele><time>2026-04-12T11:52:08Z</time></trkpt><trkpt lat="44.08632277269425" lon="12.09317489790457"><ele>130.0</ele><time>2026-04-12T11:52:10Z</time></trkpt><trkpt lat="44.086305176129336" lon="12.093062294996775"><ele>130.0</ele><time>2026-04-12T11:52:11Z</time></trkpt><trkpt lat="44.08628624511342" lon="12.092901625224478"><ele>130.0</ele><time>2026-04-12T11:52:12.999Z</time></trkpt><trkpt lat="44.08627238695649" lon="12.092788990119764"><ele>122.0</ele><time>2026-04-12T11:52:14.999Z</time></trkpt><trkpt lat="44.086271605917375" lon="12.092698814346459"><ele>122.0</ele><time>2026-04-12T11:52:16.999Z</time></trkpt><trkpt lat="44.08628133304056" lon="12.09258988169445"><ele>122.0</ele><time>2026-04-12T11:52:18.999Z</time></trkpt><trkpt lat="44.086282810578474" lon="12.092495147315953"><ele>122.0</ele><time>2026-04-12T11:52:23.999Z</time></trkpt><trkpt lat="44.08626349646549" lon="12.092579883989348"><ele>122.0</ele><time>2026-04-12T11:52:30.999Z</time></trkpt><trkpt lat="44.08619945139256" lon="12.092573448719241"><ele>122.0</ele><time>2026-04-12T11:52:34.999Z</time></trkpt></trkseg><trkseg><trkpt lat="44.08629801295597" lon="12.092449693286177"><ele>120.99999999999999</ele><time>2026-04-12T12:11:30.999Z</time></trkpt><trkpt lat="44.0863084739336" lon="12.0923465747879"><ele>120.0</ele><time>2026-04-12T12:11:32.999Z</time></trkpt><trkpt lat="44.08630963827107" lon="12.09225854416794"><ele>119.0</ele><time>2026-04-12T12:11:33.999Z</time></trkpt><trkpt lat="44.086269404722465" lon="12.092087061250782"><ele>118.0</ele><time>2026-04-12T12:11:35.999Z</time></trkpt><trkpt lat="44.08621901589073" lon="12.092003614465046"><ele>116.99999999999999</ele><time>2026-04-12T12:11:36.999Z</time></trkpt><trkpt lat="44.08616043312008" lon="12.091963035259496"><ele>116.0</ele><time>2026-04-12T12:11:37.999Z</time></trkpt><trkpt lat="44.08608335899378" lon="12.091866635506817"><ele>116.0</ele><time>2026-04-12T12:11:39.999Z</time></trkpt><trkpt lat="44.08608461254029" lon="12.091731783885518"><ele>116.0</ele><time>2026-04-12T12:11:41.999Z</time></trkpt><trkpt lat="44.08616305998554" lon="12.091646274747657"><ele>116.0</ele><time>2026-04-12T12:11:43.999Z</time></trkpt><trkpt lat="44.08627849675073" lon="12.091704071813652"><ele>116.0</ele><time>2026-04-12T12:11:45.999Z</time></trkpt><trkpt lat="44.0863367994894" lon="12.091777204795479"><ele>116.0</ele><time>2026-04-12T12:11:46.999Z</time></trkpt><trkpt lat="44.08640216912436" lon="12.091865636310256"><ele>116.0</ele><time>2026-04-12T12:11:47.999Z</time></trkpt><trkpt lat="44.086491637754946" lon="12.091973560007995"><ele>116.0</ele><time>2026-04-12T12:11:49.999Z</time></trkpt><trkpt lat="44.08655855435388" lon="12.09204743350976"><ele>116.0</ele><time>2026-04-12T12:11:51.999Z</time></trkpt><trkpt lat="44.086664904580736" lon="12.092094942812418"><ele>116.0</ele><time>2026-04-12T12:11:53.999Z</time></trkpt><trkpt lat="44.08676030413443" lon="12.092066751161804"><ele>116.0</ele><time>2026-04-12T12:11:55.999Z</time></trkpt><trkpt lat="44.08681808989375" lon="12.091920597413733"><ele>116.25</ele><time>2026-04-12T12:11:58.999Z</time></trkpt><trkpt lat="44.08680566744683" lon="12.091712508755753"><ele>116.5</ele><time>2026-04-12T12:12:01Z</time></trkpt><trkpt lat="44.08680161101865" lon="12.091581140324633"><ele>116.75</ele><time>2026-04-12T12:12:02Z</time></trkpt><trkpt lat="44.086806016932904" lon="12.091408567208308"><ele>117.0</ele><time>2026-04-12T12:12:03Z</time></trkpt><trkpt lat="44.086818525274154" lon="12.091246322876739"><ele>117.0</ele><time>2026-04-12T12:12:04Z</time></trkpt><trkpt lat="44.086824114064115" lon="12.091104498487176"><ele>116.99999999999999</ele><time>2026-04-12T12:12:05Z</time></trkpt><trkpt lat="44.08681076687576" lon="12.090994873187535"><ele>116.99999999999999</ele><time>2026-04-12T12:12:06Z</time></trkpt><trkpt lat="44.086801090668565" lon="12.090858469871803"><ele>117.0</ele><time>2026-04-12T12:12:07Z</time></trkpt><trkpt lat="44.08679698776986" lon="12.090769304018588"><ele>117.0</ele><time>2026-04-12T12:12:08Z</time></trkpt><trkpt lat="44.086838285868645" lon="12.090626542067543"><ele>116.8</ele><time>2026-04-12T12:12:10Z</time></trkpt><trkpt lat="44.08688096592678" lon="12.090532307534744"><ele>116.6</ele><time>2026-04-12T12:12:11Z</time></trkpt><trkpt lat="44.08693143837295" lon="12.090413792490551"><ele>116.39999999999999</ele><time>2026-04-12T12:12:12Z</time></trkpt><trkpt lat="44.08698011670787" lon="12.090317429400779"><ele>116.19999999999999</ele><time>2026-04-12T12:12:13Z</time></trkpt><trkpt lat="44.087041610703295" lon="12.090181457623613"><ele>116.0</ele><time>2026-04-12T12:12:14Z</time></trkpt><trkpt lat="44.08712861057205" lon="12.090084255911483"><ele>115.99999999999999</ele><time>2026-04-12T12:12:15Z</time></trkpt><trkpt lat="44.087198083675105" lon="12.09003811269191"><ele>116.0</ele><time>2026-04-12T12:12:17Z</time></trkpt><trkpt lat="44.08727307824699" lon="12.089933565695462"><ele>116.0</ele><time>2026-04-12T12:12:19Z</time></trkpt><trkpt lat="44.087201168012704" lon="12.089885091467007"><ele>116.0</ele><time>2026-04-12T12:12:45Z</time></trkpt><trkpt lat="44.08712168233741" lon="12.089868704267532"><ele>115.99999999999999</ele><time>2026-04-12T12:12:50Z</time></trkpt><trkpt lat="44.087051328073514" lon="12.089839443757674"><ele>116.0</ele><time>2026-04-12T12:12:53Z</time></trkpt><trkpt lat="44.08694888101101" lon="12.089804905560435"><ele>115.33333333333333</ele><time>2026-04-12T12:12:55.999Z</time></trkpt><trkpt lat="44.08687784638324" lon="12.08978285726568"><ele>114.66666666666666</ele><time>2026-04-12T12:12:57.999Z</time></trkpt><trkpt lat="44.086781081241675" lon="12.089735020760546"><ele>114.0</ele><time>2026-04-12T12:13:00.999Z</time></trkpt><trkpt lat="44.086717046379746" lon="12.089716313009527"><ele>113.33333333333334</ele><time>2026-04-12T12:13:01.999Z</time></trkpt><trkpt lat="44.08665532100591" lon="12.089691554276076"><ele>112.66666666666667</ele><time>2026-04-12T12:13:03.999Z</time></trkpt><trkpt lat="44.08659322111734" lon="12.089670058848746"><ele>112.0</ele><time>2026-04-12T12:13:05.999Z</time></trkpt><trkpt lat="44.08653819114891" lon="12.08958160043165"><ele>112.00000000000001</ele><time>2026-04-12T12:13:11.999Z</time></trkpt><trkpt lat="44.08652765175961" lon="12.089479377737197"><ele>112.0</ele><time>2026-04-12T12:13:14.999Z</time></trkpt><trkpt lat="44.086513281823315" lon="12.089380316932774"><ele>112.0</ele><time>2026-04-12T12:13:16.999Z</time></trkpt><trkpt lat="44.0864629866149" lon="12.089298841403734"><ele>112.0</ele><time>2026-04-12T12:13:18.999Z</time></trkpt><trkpt lat="44.08640239407475" lon="12.089218740394596"><ele>112.00000000000001</ele><time>2026-04-12T12:13:21.999Z</time></trkpt><trkpt lat="44.08634667713329" lon="12.08913280562371"><ele>112.0</ele><time>2026-04-12T12:13:24.999Z</time></trkpt><trkpt lat="44.08629767819209" lon="12.08904437930403"><ele>110.83333333333334</ele><time>2026-04-12T12:13:26.999Z</time></trkpt><trkpt lat="44.086246800695875" lon="12.088950585109366"><ele>109.66666666666667</ele><time>2026-04-12T12:13:28.999Z</time></trkpt><trkpt lat="44.086217011696355" lon="12.088872125440627"><ele>108.5</ele><time>2026-04-12T12:13:30.999Z</time></trkpt><trkpt lat="44.0861926449225" lon="12.088785423018193"><ele>107.33333333333334</ele><time>2026-04-12T12:13:32.999Z</time></trkpt><trkpt lat="44.08616181230151" lon="12.088684193676002"><ele>106.16666666666667</ele><time>2026-04-12T12:13:34.999Z</time></trkpt><trkpt lat="44.086120038371405" lon="12.08858149279267"><ele>105.0</ele><time>2026-04-12T12:13:36.999Z</time></trkpt><trkpt lat="44.08605502432298" lon="12.088454310469162"><ele>105.0</ele><time>2026-04-12T12:13:39.999Z</time></trkpt><trkpt lat="44.08598387896702" lon="12.088327778581467"><ele>105.0</ele><time>2026-04-12T12:13:41.999Z</time></trkpt><trkpt lat="44.08594662652822" lon="12.088231024274238"><ele>105.0</ele><time>2026-04-12T12:13:44.999Z</time></trkpt><trkpt lat="44.085952520860076" lon="12.088123972900794"><ele>105.0</ele><time>2026-04-12T12:13:47.999Z</time></trkpt><trkpt lat="44.08597220168893" lon="12.088023739695323"><ele>105.0</ele><time>2026-04-12T12:13:50.999Z</time></trkpt><trkpt lat="44.08595514369627" lon="12.087887666065349"><ele>105.0</ele><time>2026-04-12T12:14:30.999Z</time></trkpt><trkpt lat="44.085944853408975" lon="12.087798225347615"><ele>103.8</ele><time>2026-04-12T12:14:31.999Z</time></trkpt><trkpt lat="44.085939673629326" lon="12.087648814044181"><ele>102.6</ele><time>2026-04-12T12:14:33.999Z</time></trkpt><trkpt lat="44.085941751810545" lon="12.087504097361727"><ele>101.4</ele><time>2026-04-12T12:14:35.999Z</time></trkpt><trkpt lat="44.08595905598906" lon="12.087412502304344"><ele>100.2</ele><time>2026-04-12T12:14:36.999Z</time></trkpt><trkpt lat="44.08597728394539" lon="12.087298653328926"><ele>99.0</ele><time>2026-04-12T12:14:38.999Z</time></trkpt><trkpt lat="44.08596712329061" lon="12.087127891945565"><ele>98.75</ele><time>2026-04-12T12:14:40.999Z</time></trkpt><trkpt lat="44.08598363461532" lon="12.086986526818318"><ele>98.5</ele><time>2026-04-12T12:14:42.999Z</time></trkpt><trkpt lat="44.086008794311965" lon="12.086830465899356"><ele>98.25</ele><time>2026-04-12T12:14:44.999Z</time></trkpt><trkpt lat="44.08604543583641" lon="12.086668230845694"><ele>98.0</ele><time>2026-04-12T12:14:46.999Z</time></trkpt><trkpt lat="44.08609996587164" lon="12.086521340128835"><ele>97.99999999999999</ele><time>2026-04-12T12:14:48.999Z</time></trkpt><trkpt lat="44.08616120595797" lon="12.086404553494553"><ele>98.0</ele><time>2026-04-12T12:14:50.999Z</time></trkpt><trkpt lat="44.08624406763267" lon="12.086302481508781"><ele>98.0</ele><time>2026-04-12T12:14:52.999Z</time></trkpt><trkpt lat="44.08631146686437" lon="12.086249496849982"><ele>98.0</ele><time>2026-04-12T12:14:53.999Z</time></trkpt><trkpt lat="44.08636723405795" lon="12.086200961384348"><ele>97.99999999999999</ele><time>2026-04-12T12:14:54.999Z</time></trkpt><trkpt lat="44.086423044180755" lon="12.08615173247988"><ele>98.0</ele><time>2026-04-12T12:14:55.999Z</time></trkpt><trkpt lat="44.08647824524208" lon="12.086078837928104"><ele>98.0</ele><time>2026-04-12T12:14:57.999Z</time></trkpt><trkpt lat="44.086565727441744" lon="12.086020083809911"><ele>98.0</ele><time>2026-04-12T12:14:58.999Z</time></trkpt><trkpt lat="44.0865946701211" lon="12.08587564064839"><ele>98.0</ele><time>2026-04-12T12:15:00.999Z</time></trkpt><trkpt lat="44.08661164204537" lon="12.085761406391807"><ele>98.0</ele><time>2026-04-12T12:15:01.999Z</time></trkpt><trkpt lat="44.08668204713184" lon="12.08562422682852"><ele>98.0</ele><time>2026-04-12T12:15:03.999Z</time></trkpt><trkpt lat="44.08671754744159" lon="12.085542020134689"><ele>96.33333333333333</ele><time>2026-04-12T12:15:04.999Z</time></trkpt><trkpt lat="44.08675754193255" lon="12.085447033004584"><ele>94.66666666666666</ele><time>2026-04-12T12:15:05.999Z</time></trkpt><trkpt lat="44.08682538552154" lon="12.0853608069384"><ele>93.0</ele><time>2026-04-12T12:15:07.999Z</time></trkpt><trkpt lat="44.086843590519976" lon="12.085273763507754"><ele>91.33333333333333</ele><time>2026-04-12T12:15:08.999Z</time></trkpt><trkpt lat="44.086895844735835" lon="12.085119313592632"><ele>89.66666666666666</ele><time>2026-04-12T12:15:10.999Z</time></trkpt><trkpt lat="44.08691743201732" lon="12.08502717793585"><ele>88.0</ele><time>2026-04-12T12:15:11.999Z</time></trkpt><trkpt lat="44.08694978727672" lon="12.084926932183242"><ele>87.4</ele><time>2026-04-12T12:15:12.999Z</time></trkpt><trkpt lat="44.08699074415292" lon="12.084813027266675"><ele>86.80000000000001</ele><time>2026-04-12T12:15:14.999Z</time></trkpt><trkpt lat="44.087049503316685" lon="12.084659262977723"><ele>86.2</ele><time>2026-04-12T12:15:16.999Z</time></trkpt><trkpt lat="44.08708911841107" lon="12.084559043314185"><ele>85.6</ele><time>2026-04-12T12:15:17.999Z</time></trkpt><trkpt lat="44.08713350745541" lon="12.084432250382282"><ele>85.0</ele><time>2026-04-12T12:15:19.999Z</time></trkpt><trkpt lat="44.087152561561155" lon="12.084333746893412"><ele>85.0</ele><time>2026-04-12T12:15:49.999Z</time></trkpt><trkpt lat="44.08713145439437" lon="12.084242156847646"><ele>85.0</ele><time>2026-04-12T12:15:52.999Z</time></trkpt><trkpt lat="44.08703864410717" lon="12.084204329657657"><ele>85.0</ele><time>2026-04-12T12:15:54.999Z</time></trkpt><trkpt lat="44.08693516528366" lon="12.08422542480218"><ele>85.0</ele><time>2026-04-12T12:15:55.999Z</time></trkpt><trkpt lat="44.086835810442196" lon="12.084240404464147"><ele>85.0</ele><time>2026-04-12T12:15:56.999Z</time></trkpt><trkpt lat="44.086740607516425" lon="12.084252013025225"><ele>85.0</ele><time>2026-04-12T12:15:57.999Z</time></trkpt><trkpt lat="44.086635478116115" lon="12.08426371675717"><ele>85.0</ele><time>2026-04-12T12:15:58.999Z</time></trkpt><trkpt lat="44.08654540635524" lon="12.0842831131702"><ele>85.0</ele><time>2026-04-12T12:15:59.999Z</time></trkpt><trkpt lat="44.08645906065096" lon="12.084327454705722"><ele>85.0</ele><time>2026-04-12T12:16:00.999Z</time></trkpt><trkpt lat="44.08637826208843" lon="12.084374106427934"><ele>85.0</ele><time>2026-04-12T12:16:01.999Z</time></trkpt><trkpt lat="44.08629305399731" lon="12.084424899477092"><ele>84.4</ele><time>2026-04-12T12:16:02.999Z</time></trkpt><trkpt lat="44.086200619245474" lon="12.084483278957956"><ele>83.8</ele><time>2026-04-12T12:16:03.999Z</time></trkpt><trkpt lat="44.08612131346339" lon="12.084539730113523"><ele>83.19999999999999</ele><time>2026-04-12T12:16:04.999Z</time></trkpt><trkpt lat="44.08603909234875" lon="12.084603123409773"><ele>82.6</ele><time>2026-04-12T12:16:05.999Z</time></trkpt><trkpt lat="44.085954986356164" lon="12.084672259093576"><ele>82.0</ele><time>2026-04-12T12:16:06.999Z</time></trkpt><trkpt lat="44.08585499867429" lon="12.084746690038521"><ele>82.0</ele><time>2026-04-12T12:16:07.999Z</time></trkpt><trkpt lat="44.085751529736804" lon="12.084835734427614"><ele>82.0</ele><time>2026-04-12T12:16:08.999Z</time></trkpt><trkpt lat="44.08564288503435" lon="12.08492551476253"><ele>82.0</ele><time>2026-04-12T12:16:09.999Z</time></trkpt><trkpt lat="44.0855260290308" lon="12.085016318822959"><ele>82.0</ele><time>2026-04-12T12:16:10.999Z</time></trkpt><trkpt lat="44.08540506291939" lon="12.085107188627536"><ele>82.5</ele><time>2026-04-12T12:16:11.999Z</time></trkpt><trkpt lat="44.085294377359304" lon="12.08519029381421"><ele>83.0</ele><time>2026-04-12T12:16:12.999Z</time></trkpt><trkpt lat="44.08516925958574" lon="12.08528819213336"><ele>83.5</ele><time>2026-04-12T12:16:13.999Z</time></trkpt><trkpt lat="44.085046479170515" lon="12.085382628633273"><ele>84.0</ele><time>2026-04-12T12:16:14.999Z</time></trkpt><trkpt lat="44.084941468165205" lon="12.085463398327866"><ele>84.25</ele><time>2026-04-12T12:16:15.999Z</time></trkpt><trkpt lat="44.08484332260608" lon="12.085564711479941"><ele>84.5</ele><time>2026-04-12T12:16:16.999Z</time></trkpt><trkpt lat="44.0847545991744" lon="12.085702599630213"><ele>84.75</ele><time>2026-04-12T12:16:17.999Z</time></trkpt><trkpt lat="44.084683217322834" lon="12.085869395447798"><ele>85.0</ele><time>2026-04-12T12:16:18.999Z</time></trkpt><trkpt lat="44.084615853657965" lon="12.086038197329136"><ele>85.0</ele><time>2026-04-12T12:16:19.999Z</time></trkpt><trkpt lat="44.084544819642744" lon="12.086197394427753"><ele>85.0</ele><time>2026-04-12T12:16:20.999Z</time></trkpt><trkpt lat="44.08446018751414" lon="12.086362897084353"><ele>85.0</ele><time>2026-04-12T12:16:21.999Z</time></trkpt><trkpt lat="44.08435630766745" lon="12.086510881820148"><ele>85.0</ele><time>2026-04-12T12:16:22.999Z</time></trkpt><trkpt lat="44.08423280505638" lon="12.086641689125166"><ele>86.33333333333333</ele><time>2026-04-12T12:16:23.999Z</time></trkpt><trkpt lat="44.0840933751483" lon="12.086738046955055"><ele>87.66666666666667</ele><time>2026-04-12T12:16:24.999Z</time></trkpt><trkpt lat="44.083946258575786" lon="12.086793454014963"><ele>89.0</ele><time>2026-04-12T12:16:25.999Z</time></trkpt><trkpt lat="44.083769375091414" lon="12.086838008458413"><ele>89.0</ele><time>2026-04-12T12:16:26.999Z</time></trkpt><trkpt lat="44.08359584810499" lon="12.086874525465014"><ele>89.0</ele><time>2026-04-12T12:16:27.999Z</time></trkpt><trkpt lat="44.08341897371336" lon="12.086906529776197"><ele>89.0</ele><time>2026-04-12T12:16:28.999Z</time></trkpt><trkpt lat="44.083250038875256" lon="12.086935246263488"><ele>88.33333333333334</ele><time>2026-04-12T12:16:29.999Z</time></trkpt><trkpt lat="44.083094467864974" lon="12.086964496754899"><ele>87.66666666666667</ele><time>2026-04-12T12:16:30.999Z</time></trkpt><trkpt lat="44.08294378756783" lon="12.086988036490945"><ele>87.0</ele><time>2026-04-12T12:16:31.999Z</time></trkpt><trkpt lat="44.08279760510422" lon="12.087002575722636"><ele>87.0</ele><time>2026-04-12T12:16:32.999Z</time></trkpt><trkpt lat="44.082648692823426" lon="12.086993914935386"><ele>87.0</ele><time>2026-04-12T12:16:33.999Z</time></trkpt><trkpt lat="44.0824951680794" lon="12.086974775516758"><ele>87.0</ele><time>2026-04-12T12:16:34.999Z</time></trkpt><trkpt lat="44.08234022651494" lon="12.086961363999949"><ele>87.33333333333333</ele><time>2026-04-12T12:16:35.999Z</time></trkpt><trkpt lat="44.0821756091608" lon="12.08695598224674"><ele>87.66666666666666</ele><time>2026-04-12T12:16:36.999Z</time></trkpt><trkpt lat="44.08202047684262" lon="12.08695184521002"><ele>88.0</ele><time>2026-04-12T12:16:37.999Z</time></trkpt><trkpt lat="44.08185455505969" lon="12.086940037949716"><ele>88.0</ele><time>2026-04-12T12:16:38.999Z</time></trkpt><trkpt lat="44.0816817330193" lon="12.086933385563668"><ele>88.0</ele><time>2026-04-12T12:16:39.999Z</time></trkpt><trkpt lat="44.08154340862769" lon="12.086933735642635"><ele>88.0</ele><time>2026-04-12T12:16:41Z</time></trkpt><trkpt lat="44.081370669222366" lon="12.086950209030773"><ele>88.33333333333333</ele><time>2026-04-12T12:16:42Z</time></trkpt><trkpt lat="44.08120622940224" lon="12.086976491425624"><ele>88.66666666666667</ele><time>2026-04-12T12:16:43Z</time></trkpt><trkpt lat="44.08103420848258" lon="12.087021302652792"><ele>89.0</ele><time>2026-04-12T12:16:44Z</time></trkpt><trkpt lat="44.0808527609649" lon="12.087089863161543"><ele>89.0</ele><time>2026-04-12T12:16:45Z</time></trkpt><trkpt lat="44.0806849243236" lon="12.087142709430049"><ele>89.0</ele><time>2026-04-12T12:16:46Z</time></trkpt><trkpt lat="44.08050965336335" lon="12.087204404916797"><ele>89.0</ele><time>2026-04-12T12:16:47Z</time></trkpt><trkpt lat="44.080334691092055" lon="12.087246494047452"><ele>89.0</ele><time>2026-04-12T12:16:47.999Z</time></trkpt><trkpt lat="44.080153833441685" lon="12.087276260504757"><ele>89.0</ele><time>2026-04-12T12:16:48.999Z</time></trkpt><trkpt lat="44.07997041515197" lon="12.087272924259562"><ele>89.0</ele><time>2026-04-12T12:16:49.999Z</time></trkpt><trkpt lat="44.0797953732076" lon="12.087218648755373"><ele>88.66666666666667</ele><time>2026-04-12T12:16:50.999Z</time></trkpt><trkpt lat="44.07964637138602" lon="12.087167316890996"><ele>88.33333333333333</ele><time>2026-04-12T12:16:51.999Z</time></trkpt><trkpt lat="44.07950547622244" lon="12.087125796308195"><ele>88.0</ele><time>2026-04-12T12:16:52.999Z</time></trkpt><trkpt lat="44.07934524280681" lon="12.087124634525901"><ele>88.0</ele><time>2026-04-12T12:16:53.999Z</time></trkpt><trkpt lat="44.0792113547131" lon="12.087182845820648"><ele>88.0</ele><time>2026-04-12T12:16:54.999Z</time></trkpt><trkpt lat="44.07906793807323" lon="12.087282602833092"><ele>88.0</ele><time>2026-04-12T12:16:55.999Z</time></trkpt><trkpt lat="44.0789378296704" lon="12.087386099286643"><ele>89.33333333333333</ele><time>2026-04-12T12:16:56.999Z</time></trkpt><trkpt lat="44.0787907310753" lon="12.087425749145696"><ele>90.66666666666667</ele><time>2026-04-12T12:16:57.999Z</time></trkpt><trkpt lat="44.07864448443808" lon="12.087392569549026"><ele>92.0</ele><time>2026-04-12T12:16:58.999Z</time></trkpt><trkpt lat="44.078498211473914" lon="12.0873161447919"><ele>92.0</ele><time>2026-04-12T12:16:59.999Z</time></trkpt><trkpt lat="44.078360707130024" lon="12.087215982565347"><ele>92.0</ele><time>2026-04-12T12:17:00.999Z</time></trkpt><trkpt lat="44.07824555596952" lon="12.087125617261155"><ele>92.0</ele><time>2026-04-12T12:17:01.999Z</time></trkpt><trkpt lat="44.07814301894312" lon="12.087065375275396"><ele>92.0</ele><time>2026-04-12T12:17:02.999Z</time></trkpt><trkpt lat="44.07806183926848" lon="12.087011537891462"><ele>91.8</ele><time>2026-04-12T12:17:03.999Z</time></trkpt><trkpt lat="44.07800495296576" lon="12.08694857008863"><ele>91.6</ele><time>2026-04-12T12:17:04.999Z</time></trkpt><trkpt lat="44.077970402785304" lon="12.08683756266019"><ele>91.39999999999999</ele><time>2026-04-12T12:17:05.999Z</time></trkpt><trkpt lat="44.07793258395234" lon="12.0867001000355"><ele>91.19999999999999</ele><time>2026-04-12T12:17:06.999Z</time></trkpt><trkpt lat="44.077921566512785" lon="12.086559819854548"><ele>91.0</ele><time>2026-04-12T12:17:07.999Z</time></trkpt><trkpt lat="44.077910991723584" lon="12.08636265731825"><ele>91.0</ele><time>2026-04-12T12:17:08.999Z</time></trkpt><trkpt lat="44.0779068895593" lon="12.086205329165956"><ele>91.0</ele><time>2026-04-12T12:17:09.999Z</time></trkpt><trkpt lat="44.07789825158933" lon="12.086095551726675"><ele>91.0</ele><time>2026-04-12T12:17:10.999Z</time></trkpt><trkpt lat="44.07787542420733" lon="12.085964312632633"><ele>91.0</ele><time>2026-04-12T12:17:12.999Z</time></trkpt><trkpt lat="44.07777964924025" lon="12.085905948355247"><ele>91.0</ele><time>2026-04-12T12:17:14.999Z</time></trkpt><trkpt lat="44.077698731949454" lon="12.085929305642575"><ele>91.0</ele><time>2026-04-12T12:17:15.999Z</time></trkpt><trkpt lat="44.07759339444141" lon="12.08599151031453"><ele>91.0</ele><time>2026-04-12T12:17:16.999Z</time></trkpt><trkpt lat="44.07744503633575" lon="12.086075706206318"><ele>91.0</ele><time>2026-04-12T12:17:17.999Z</time></trkpt><trkpt lat="44.07737890653843" lon="12.086122395967235"><ele>91.0</ele><time>2026-04-12T12:17:18.999Z</time></trkpt><trkpt lat="44.077219333911906" lon="12.08619081255393"><ele>94.0</ele><time>2026-04-12T12:17:19.999Z</time></trkpt><trkpt lat="44.07705817192617" lon="12.08623432152212"><ele>97.0</ele><time>2026-04-12T12:17:20.999Z</time></trkpt><trkpt lat="44.0769143779935" lon="12.086281823168308"><ele>100.0</ele><time>2026-04-12T12:17:21.999Z</time></trkpt><trkpt lat="44.07677699155231" lon="12.086361914313201"><ele>100.0</ele><time>2026-04-12T12:17:22.999Z</time></trkpt><trkpt lat="44.07664987068278" lon="12.086439274112585"><ele>100.0</ele><time>2026-04-12T12:17:23.999Z</time></trkpt><trkpt lat="44.076536827157106" lon="12.086494233631013"><ele>100.0</ele><time>2026-04-12T12:17:24.999Z</time></trkpt><trkpt lat="44.0764464731294" lon="12.086542031000311"><ele>100.0</ele><time>2026-04-12T12:17:25.999Z</time></trkpt><trkpt lat="44.07638798101721" lon="12.086575805661733"><ele>100.0</ele><time>2026-04-12T12:17:26.999Z</time></trkpt><trkpt lat="44.07631319453921" lon="12.086663855518303"><ele>99.33333333333334</ele><time>2026-04-12T12:17:28.999Z</time></trkpt><trkpt lat="44.07624887156237" lon="12.086701609373872"><ele>98.66666666666667</ele><time>2026-04-12T12:17:36.999Z</time></trkpt><trkpt lat="44.07614337811465" lon="12.086717694464685"><ele>98.0</ele><time>2026-04-12T12:17:38.999Z</time></trkpt><trkpt lat="44.076072851039946" lon="12.086746130196534"><ele>97.33333333333334</ele><time>2026-04-12T12:17:39.999Z</time></trkpt><trkpt lat="44.075981719895445" lon="12.086783208058447"><ele>96.66666666666667</ele><time>2026-04-12T12:17:40.999Z</time></trkpt><trkpt lat="44.075903015269525" lon="12.08682451804446"><ele>96.0</ele><time>2026-04-12T12:17:41.999Z</time></trkpt><trkpt lat="44.07582714101681" lon="12.086866343036007"><ele>96.83333333333333</ele><time>2026-04-12T12:17:42.999Z</time></trkpt><trkpt lat="44.07575089138937" lon="12.086915053885228"><ele>97.66666666666666</ele><time>2026-04-12T12:17:43.999Z</time></trkpt><trkpt lat="44.07567288806459" lon="12.086970742697034"><ele>98.5</ele><time>2026-04-12T12:17:44.999Z</time></trkpt><trkpt lat="44.075590140636095" lon="12.087037241887831"><ele>99.33333333333333</ele><time>2026-04-12T12:17:45.999Z</time></trkpt><trkpt lat="44.07551235319113" lon="12.087100506668566"><ele>100.16666666666666</ele><time>2026-04-12T12:17:46.999Z</time></trkpt><trkpt lat="44.07545426206555" lon="12.087151071345538"><ele>101.0</ele><time>2026-04-12T12:17:47.999Z</time></trkpt><trkpt lat="44.07539701403172" lon="12.08720245498444"><ele>100.99999999999999</ele><time>2026-04-12T12:17:48.999Z</time></trkpt><trkpt lat="44.07532918315772" lon="12.0872586089652"><ele>101.0</ele><time>2026-04-12T12:17:49.999Z</time></trkpt><trkpt lat="44.075256619384675" lon="12.087305607079932"><ele>101.0</ele><time>2026-04-12T12:17:50.999Z</time></trkpt><trkpt lat="44.075180630815716" lon="12.087354040155942"><ele>101.0</ele><time>2026-04-12T12:17:51.999Z</time></trkpt><trkpt lat="44.07510075013539" lon="12.08738641501295"><ele>100.99999999999999</ele><time>2026-04-12T12:17:52.999Z</time></trkpt><trkpt lat="44.075015271708104" lon="12.087380763834863"><ele>101.0</ele><time>2026-04-12T12:17:53.999Z</time></trkpt><trkpt lat="44.0749358728586" lon="12.087335931953382"><ele>100.99999999999999</ele><time>2026-04-12T12:17:54.999Z</time></trkpt><trkpt lat="44.074867150232336" lon="12.087264586372076"><ele>101.0</ele><time>2026-04-12T12:17:55.999Z</time></trkpt><trkpt lat="44.07481649635153" lon="12.087174689813157"><ele>101.0</ele><time>2026-04-12T12:17:56.999Z</time></trkpt><trkpt lat="44.074781931361294" lon="12.08707287804684"><ele>101.0</ele><time>2026-04-12T12:17:57.999Z</time></trkpt><trkpt lat="44.07478386085181" lon="12.086966013854736"><ele>100.99999999999999</ele><time>2026-04-12T12:17:59.999Z</time></trkpt><trkpt lat="44.07486356770891" lon="12.086908420384457"><ele>101.0</ele><time>2026-04-12T12:18:02.999Z</time></trkpt><trkpt lat="44.07495258228609" lon="12.086850046277622"><ele>101.33333333333333</ele><time>2026-04-12T12:18:04.999Z</time></trkpt><trkpt lat="44.07493745235645" lon="12.086938357590821"><ele>101.66666666666666</ele><time>2026-04-12T12:18:21Z</time></trkpt><trkpt lat="44.074850318092395" lon="12.086958779890272"><ele>102.0</ele><time>2026-04-12T12:18:23Z</time></trkpt><trkpt lat="44.074783666994136" lon="12.086970839793423"><ele>102.33333333333334</ele><time>2026-04-12T12:18:25Z</time></trkpt><trkpt lat="44.07471311119886" lon="12.087002250048336"><ele>102.66666666666667</ele><time>2026-04-12T12:18:26Z</time></trkpt><trkpt lat="44.074627610716945" lon="12.087030897793134"><ele>103.0</ele><time>2026-04-12T12:18:27Z</time></trkpt><trkpt lat="44.074536025671655" lon="12.087072651011406"><ele>103.0</ele><time>2026-04-12T12:18:28Z</time></trkpt><trkpt lat="44.07443974057174" lon="12.08709201542027"><ele>103.0</ele><time>2026-04-12T12:18:29Z</time></trkpt><trkpt lat="44.07435092752559" lon="12.087089433869522"><ele>103.0</ele><time>2026-04-12T12:18:30Z</time></trkpt><trkpt lat="44.07424229590977" lon="12.08713847769453"><ele>103.0</ele><time>2026-04-12T12:18:31Z</time></trkpt><trkpt lat="44.07411792767658" lon="12.087163554950097"><ele>103.0</ele><time>2026-04-12T12:18:32Z</time></trkpt><trkpt lat="44.0739857731644" lon="12.087194480515487"><ele>103.75</ele><time>2026-04-12T12:18:33Z</time></trkpt><trkpt lat="44.07384761759889" lon="12.087229005322351"><ele>104.5</ele><time>2026-04-12T12:18:34Z</time></trkpt><trkpt lat="44.07369808693897" lon="12.087268437164349"><ele>105.25</ele><time>2026-04-12T12:18:35Z</time></trkpt><trkpt lat="44.073560078023995" lon="12.087302230897599"><ele>106.0</ele><time>2026-04-12T12:18:36Z</time></trkpt><trkpt lat="44.07341854548342" lon="12.087333944097093"><ele>106.0</ele><time>2026-04-12T12:18:37Z</time></trkpt><trkpt lat="44.073273005035354" lon="12.087368974964871"><ele>106.0</ele><time>2026-04-12T12:18:38Z</time></trkpt><trkpt lat="44.07312071958225" lon="12.087405687286772"><ele>106.0</ele><time>2026-04-12T12:18:39Z</time></trkpt><trkpt lat="44.07298878309217" lon="12.087428073908463"><ele>106.0</ele><time>2026-04-12T12:18:40Z</time></trkpt><trkpt lat="44.072863634349204" lon="12.087442695937613"><ele>106.0</ele><time>2026-04-12T12:18:41Z</time></trkpt><trkpt lat="44.07275034217309" lon="12.087435029717232"><ele>106.0</ele><time>2026-04-12T12:18:42Z</time></trkpt><trkpt lat="44.072649864479644" lon="12.08739381992163"><ele>106.0</ele><time>2026-04-12T12:18:43Z</time></trkpt><trkpt lat="44.07255329036728" lon="12.087339940091622"><ele>106.0</ele><time>2026-04-12T12:18:44Z</time></trkpt><trkpt lat="44.07246038538353" lon="12.087286274971802"><ele>106.0</ele><time>2026-04-12T12:18:45Z</time></trkpt><trkpt lat="44.0723651180944" lon="12.08723886281742"><ele>112.75</ele><time>2026-04-12T12:18:46Z</time></trkpt><trkpt lat="44.072268364533876" lon="12.087215248865682"><ele>119.5</ele><time>2026-04-12T12:18:48Z</time></trkpt><trkpt lat="44.0721240855332" lon="12.087197915532762"><ele>126.25</ele><time>2026-04-12T12:18:50Z</time></trkpt><trkpt lat="44.07200712632818" lon="12.087155349328185"><ele>133.0</ele><time>2026-04-12T12:18:51Z</time></trkpt><trkpt lat="44.071882334026846" lon="12.087110402671172"><ele>133.0</ele><time>2026-04-12T12:18:52Z</time></trkpt><trkpt lat="44.07176905945458" lon="12.087067887336145"><ele>133.0</ele><time>2026-04-12T12:18:53Z</time></trkpt><trkpt lat="44.07165511350001" lon="12.086981393875734"><ele>133.0</ele><time>2026-04-12T12:18:54Z</time></trkpt><trkpt lat="44.07153778625854" lon="12.086929315951899"><ele>133.0</ele><time>2026-04-12T12:18:55Z</time></trkpt><trkpt lat="44.0714552391667" lon="12.086936566143962"><ele>132.20000000000002</ele><time>2026-04-12T12:18:56Z</time></trkpt><trkpt lat="44.07138380925202" lon="12.086941749976372"><ele>131.4</ele><time>2026-04-12T12:18:57Z</time></trkpt><trkpt lat="44.07129587973348" lon="12.086930584147968"><ele>130.60000000000002</ele><time>2026-04-12T12:18:58Z</time></trkpt><trkpt lat="44.07117419089945" lon="12.086904403550413"><ele>129.8</ele><time>2026-04-12T12:18:59Z</time></trkpt><trkpt lat="44.07104309645195" lon="12.086883141712748"><ele>129.0</ele><time>2026-04-12T12:19:00Z</time></trkpt><trkpt lat="44.07089994579364" lon="12.086882141191484"><ele>132.75</ele><time>2026-04-12T12:19:01Z</time></trkpt><trkpt lat="44.07076519999744" lon="12.086881969593266"><ele>136.5</ele><time>2026-04-12T12:19:02Z</time></trkpt><trkpt lat="44.070654530320255" lon="12.08690261257751"><ele>140.25</ele><time>2026-04-12T12:19:03Z</time></trkpt><trkpt lat="44.0705552837514" lon="12.086945979335459"><ele>144.0</ele><time>2026-04-12T12:19:04Z</time></trkpt><trkpt lat="44.07045112031256" lon="12.08699869067276"><ele>144.0</ele><time>2026-04-12T12:19:05Z</time></trkpt><trkpt lat="44.07034350821978" lon="12.087009009757862"><ele>144.0</ele><time>2026-04-12T12:19:06Z</time></trkpt><trkpt lat="44.07022102198913" lon="12.086995293322786"><ele>144.0</ele><time>2026-04-12T12:19:07Z</time></trkpt><trkpt lat="44.07008763030321" lon="12.08698756696236"><ele>144.0</ele><time>2026-04-12T12:19:08Z</time></trkpt><trkpt lat="44.06995232217653" lon="12.086990993599066"><ele>144.4</ele><time>2026-04-12T12:19:09Z</time></trkpt><trkpt lat="44.0698433534055" lon="12.086992753968056"><ele>144.8</ele><time>2026-04-12T12:19:10Z</time></trkpt><trkpt lat="44.069767490652566" lon="12.087009274795411"><ele>145.2</ele><time>2026-04-12T12:19:11Z</time></trkpt><trkpt lat="44.069671231880925" lon="12.087115783806066"><ele>145.6</ele><time>2026-04-12T12:19:13Z</time></trkpt><trkpt lat="44.06958736791492" lon="12.08720808433233"><ele>146.0</ele><time>2026-04-12T12:19:15Z</time></trkpt><trkpt lat="44.06952436908931" lon="12.087191862610089"><ele>146.0</ele><time>2026-04-12T12:19:17Z</time></trkpt><trkpt lat="44.06943290292534" lon="12.087113284437827"><ele>146.0</ele><time>2026-04-12T12:19:19Z</time></trkpt><trkpt lat="44.069372125211196" lon="12.087058612000925"><ele>146.0</ele><time>2026-04-12T12:19:21Z</time></trkpt><trkpt lat="44.069238206768624" lon="12.0870074334772"><ele>146.0</ele><time>2026-04-12T12:19:24Z</time></trkpt><trkpt lat="44.06915445861362" lon="12.086957453888623"><ele>146.0</ele><time>2026-04-12T12:19:25Z</time></trkpt><trkpt lat="44.06909132435991" lon="12.08692001229083"><ele>146.0</ele><time>2026-04-12T12:19:26Z</time></trkpt><trkpt lat="44.06902177703199" lon="12.08687421184986"><ele>146.0</ele><time>2026-04-12T12:19:28Z</time></trkpt><trkpt lat="44.069091837393685" lon="12.086950167783689"><ele>146.0</ele><time>2026-04-12T12:20:00.999Z</time></trkpt><trkpt lat="44.06916316152878" lon="12.086984551488902"><ele>146.0</ele><time>2026-04-12T12:20:04.999Z</time></trkpt><trkpt lat="44.06924803093431" lon="12.087043121146545"><ele>146.0</ele><time>2026-04-12T12:20:05.999Z</time></trkpt><trkpt lat="44.06935126366129" lon="12.087090853207568"><ele>146.0</ele><time>2026-04-12T12:20:06.999Z</time></trkpt><trkpt lat="44.06944358538088" lon="12.087133116192337"><ele>146.0</ele><time>2026-04-12T12:20:07.999Z</time></trkpt><trkpt lat="44.06950981791985" lon="12.087179082546978"><ele>146.0</ele><time>2026-04-12T12:20:08.999Z</time></trkpt><trkpt lat="44.06961690975531" lon="12.087229200827501"><ele>146.0</ele><time>2026-04-12T12:20:10.999Z</time></trkpt><trkpt lat="44.06968051768827" lon="12.087164122402664"><ele>146.0</ele><time>2026-04-12T12:20:12.999Z</time></trkpt><trkpt lat="44.06974261339861" lon="12.087097449581453"><ele>146.0</ele><time>2026-04-12T12:20:15.999Z</time></trkpt><trkpt lat="44.06980776202849" lon="12.087053839300342"><ele>146.0</ele><time>2026-04-12T12:20:18.999Z</time></trkpt><trkpt lat="44.069877110832024" lon="12.087027950474155"><ele>145.5</ele><time>2026-04-12T12:20:20.999Z</time></trkpt><trkpt lat="44.06999286846177" lon="12.087016984521142"><ele>145.0</ele><time>2026-04-12T12:20:22.999Z</time></trkpt><trkpt lat="44.07008156101607" lon="12.087013926951563"><ele>144.5</ele><time>2026-04-12T12:20:23.999Z</time></trkpt><trkpt lat="44.070180727234295" lon="12.087019931970193"><ele>144.0</ele><time>2026-04-12T12:20:25Z</time></trkpt><trkpt lat="44.07037299197942" lon="12.087034873002843"><ele>144.0</ele><time>2026-04-12T12:20:27Z</time></trkpt><trkpt lat="44.070510846013335" lon="12.087034622300756"><ele>144.0</ele><time>2026-04-12T12:20:28Z</time></trkpt><trkpt lat="44.070602311376675" lon="12.086995682293441"><ele>144.0</ele><time>2026-04-12T12:20:29Z</time></trkpt><trkpt lat="44.0707083820135" lon="12.086935292424632"><ele>144.0</ele><time>2026-04-12T12:20:30Z</time></trkpt><trkpt lat="44.07083144143964" lon="12.08688443705596"><ele>140.25</ele><time>2026-04-12T12:20:31Z</time></trkpt><trkpt lat="44.07095765283707" lon="12.086877519594546"><ele>136.5</ele><time>2026-04-12T12:20:32Z</time></trkpt><trkpt lat="44.07110851584101" lon="12.086888674019601"><ele>132.75</ele><time>2026-04-12T12:20:33Z</time></trkpt><trkpt lat="44.07122577436668" lon="12.086911481994926"><ele>129.0</ele><time>2026-04-12T12:20:34Z</time></trkpt><trkpt lat="44.07131078974002" lon="12.086951194494159"><ele>129.0</ele><time>2026-04-12T12:20:35Z</time></trkpt><trkpt lat="44.07141297210787" lon="12.08697683736737"><ele>129.0</ele><time>2026-04-12T12:20:36Z</time></trkpt><trkpt lat="44.07152561971417" lon="12.086997636637934"><ele>129.0</ele><time>2026-04-12T12:20:37Z</time></trkpt><trkpt lat="44.07163796914348" lon="12.086970624550531"><ele>129.0</ele><time>2026-04-12T12:20:39Z</time></trkpt><trkpt lat="44.07171792478133" lon="12.08699911438251"><ele>129.0</ele><time>2026-04-12T12:20:40Z</time></trkpt><trkpt lat="44.07179987793512" lon="12.087065584169773"><ele>130.0</ele><time>2026-04-12T12:20:41Z</time></trkpt><trkpt lat="44.071896195547296" lon="12.087117298301148"><ele>131.0</ele><time>2026-04-12T12:20:42Z</time></trkpt><trkpt lat="44.07202972759063" lon="12.087188616044841"><ele>132.0</ele><time>2026-04-12T12:20:43Z</time></trkpt><trkpt lat="44.072166569562924" lon="12.087212607161407"><ele>133.0</ele><time>2026-04-12T12:20:44Z</time></trkpt><trkpt lat="44.07229118379671" lon="12.087238104951641"><ele>133.0</ele><time>2026-04-12T12:20:45Z</time></trkpt><trkpt lat="44.0723824949949" lon="12.087245646634603"><ele>133.0</ele><time>2026-04-12T12:20:46Z</time></trkpt><trkpt lat="44.072410754989846" lon="12.087142149992202"><ele>133.0</ele><time>2026-04-12T12:20:58Z</time></trkpt><trkpt lat="44.07239410666117" lon="12.087027789886546"><ele>133.0</ele><time>2026-04-12T12:21:00Z</time></trkpt><trkpt lat="44.07237524551263" lon="12.0868751394814"><ele>133.0</ele><time>2026-04-12T12:21:02Z</time></trkpt><trkpt lat="44.07239032289076" lon="12.086772141500182"><ele>133.0</ele><time>2026-04-12T12:21:03Z</time></trkpt><trkpt lat="44.07237935354469" lon="12.086673802849111"><ele>137.57142857142858</ele><time>2026-04-12T12:21:04Z</time></trkpt><trkpt lat="44.07237039902678" lon="12.086578134009871"><ele>142.14285714285714</ele><time>2026-04-12T12:21:05Z</time></trkpt><trkpt lat="44.07236939570983" lon="12.086484448774566"><ele>146.71428571428572</ele><time>2026-04-12T12:21:06Z</time></trkpt><trkpt lat="44.07236865397138" lon="12.086374091913347"><ele>151.28571428571428</ele><time>2026-04-12T12:21:07Z</time></trkpt><trkpt lat="44.072342478307704" lon="12.086284983739151"><ele>155.85714285714286</ele><time>2026-04-12T12:21:09Z</time></trkpt><trkpt lat="44.0722823766432" lon="12.086316423643558"><ele>160.42857142857144</ele><time>2026-04-12T12:21:11Z</time></trkpt><trkpt lat="44.0722525351062" lon="12.086440864115822"><ele>165.0</ele><time>2026-04-12T12:21:13Z</time></trkpt><trkpt lat="44.072193547333384" lon="12.08651131847017"><ele>165.0</ele><time>2026-04-12T12:21:16Z</time></trkpt><trkpt lat="44.072096221051424" lon="12.086519654786189"><ele>165.0</ele><time>2026-04-12T12:21:18Z</time></trkpt><trkpt lat="44.071991459751935" lon="12.086490763197046"><ele>165.0</ele><time>2026-04-12T12:21:20Z</time></trkpt><trkpt lat="44.071877050438204" lon="12.086430561871554"><ele>165.0</ele><time>2026-04-12T12:21:22Z</time></trkpt><trkpt lat="44.071769325435994" lon="12.086345433372442"><ele>165.0</ele><time>2026-04-12T12:21:24Z</time></trkpt><trkpt lat="44.071674080752096" lon="12.086259853677456"><ele>165.0</ele><time>2026-04-12T12:21:26Z</time></trkpt><trkpt lat="44.07162433269896" lon="12.086203167507403"><ele>165.0</ele><time>2026-04-12T12:21:27Z</time></trkpt><trkpt lat="44.07156159277981" lon="12.08613630387843"><ele>165.0</ele><time>2026-04-12T12:21:29Z</time></trkpt><trkpt lat="44.071486214781686" lon="12.08607177196902"><ele>165.0</ele><time>2026-04-12T12:21:32Z</time></trkpt><trkpt lat="44.07142193731431" lon="12.086078415149661"><ele>165.0</ele><time>2026-04-12T12:22:15.999Z</time></trkpt><trkpt lat="44.071376240067" lon="12.086017956614805"><ele>174.0</ele><time>2026-04-12T12:22:19.999Z</time></trkpt></trkseg><trkseg><trkpt lat="44.07192771850991" lon="12.085768520524388"><ele>168.66666666666666</ele><time>2026-04-12T12:48:31Z</time></trkpt><trkpt lat="44.07194428958167" lon="12.085649965118225"><ele>172.33333333333334</ele><time>2026-04-12T12:48:46Z</time></trkpt><trkpt lat="44.07191785029078" lon="12.085569829092536"><ele>176.0</ele><time>2026-04-12T12:48:49Z</time></trkpt><trkpt lat="44.07180894323881" lon="12.085561733839656"><ele>179.66666666666669</ele><time>2026-04-12T12:48:51.999Z</time></trkpt><trkpt lat="44.071707310105616" lon="12.085609564448413"><ele>183.33333333333334</ele><time>2026-04-12T12:48:53.999Z</time></trkpt><trkpt lat="44.071641799812284" lon="12.0856039811433"><ele>187.0</ele><time>2026-04-12T12:48:55.999Z</time></trkpt><trkpt lat="44.07153648428275" lon="12.085555064408808"><ele>190.39999999999998</ele><time>2026-04-12T12:48:57.999Z</time></trkpt><trkpt lat="44.07144650007969" lon="12.085502440073217"><ele>193.79999999999998</ele><time>2026-04-12T12:48:59.999Z</time></trkpt><trkpt lat="44.07134101728218" lon="12.08546550988747"><ele>197.2</ele><time>2026-04-12T12:49:01.999Z</time></trkpt><trkpt lat="44.07125185455667" lon="12.085427058549152"><ele>200.6</ele><time>2026-04-12T12:49:03.999Z</time></trkpt><trkpt lat="44.07116276528745" lon="12.085371726031232"><ele>204.0</ele><time>2026-04-12T12:49:05.999Z</time></trkpt><trkpt lat="44.071101636094745" lon="12.085285683659038"><ele>204.0</ele><time>2026-04-12T12:49:07.999Z</time></trkpt><trkpt lat="44.071123392170215" lon="12.085141481822237"><ele>204.0</ele><time>2026-04-12T12:49:09.999Z</time></trkpt><trkpt lat="44.071195708348" lon="12.085074220026167"><ele>204.0</ele><time>2026-04-12T12:49:11.999Z</time></trkpt><trkpt lat="44.0712801884628" lon="12.084994432014309"><ele>204.0</ele><time>2026-04-12T12:49:13.999Z</time></trkpt><trkpt lat="44.071342512462024" lon="12.084934976075969"><ele>204.0</ele><time>2026-04-12T12:49:15.999Z</time></trkpt><trkpt lat="44.07143486479654" lon="12.084815922234869"><ele>206.2</ele><time>2026-04-12T12:49:17.999Z</time></trkpt><trkpt lat="44.07150349094151" lon="12.08472446842804"><ele>208.39999999999998</ele><time>2026-04-12T12:49:18.999Z</time></trkpt><trkpt lat="44.07160042446244" lon="12.084622607393655"><ele>210.6</ele><time>2026-04-12T12:49:19.999Z</time></trkpt><trkpt lat="44.071675043582594" lon="12.084545994983705"><ele>212.8</ele><time>2026-04-12T12:49:20.999Z</time></trkpt><trkpt lat="44.07174861389902" lon="12.084482107156083"><ele>215.0</ele><time>2026-04-12T12:49:21.999Z</time></trkpt><trkpt lat="44.07182507008528" lon="12.084417771472985"><ele>215.00000000000003</ele><time>2026-04-12T12:49:22.999Z</time></trkpt><trkpt lat="44.07189493092818" lon="12.084358378856416"><ele>215.0</ele><time>2026-04-12T12:49:23.999Z</time></trkpt><trkpt lat="44.071960863102014" lon="12.084298006489183"><ele>215.0</ele><time>2026-04-12T12:49:24.999Z</time></trkpt><trkpt lat="44.07201873731475" lon="12.084222082060267"><ele>215.0</ele><time>2026-04-12T12:49:25.999Z</time></trkpt><trkpt lat="44.07191072473443" lon="12.084187126072258"><ele>215.00000000000003</ele><time>2026-04-12T12:49:33.999Z</time></trkpt><trkpt lat="44.07184328402883" lon="12.084191360241732"><ele>215.0</ele><time>2026-04-12T12:49:34.999Z</time></trkpt><trkpt lat="44.07177238733605" lon="12.084204538113978"><ele>215.00000000000003</ele><time>2026-04-12T12:49:35.999Z</time></trkpt><trkpt lat="44.07170391967505" lon="12.084202140396588"><ele>215.0</ele><time>2026-04-12T12:49:36.999Z</time></trkpt><trkpt lat="44.07163531092646" lon="12.084200299191632"><ele>215.0</ele><time>2026-04-12T12:49:37.999Z</time></trkpt><trkpt lat="44.071555716393355" lon="12.084204502675526"><ele>215.0</ele><time>2026-04-12T12:49:38.999Z</time></trkpt><trkpt lat="44.07147850855235" lon="12.084216367782698"><ele>215.00000000000003</ele><time>2026-04-12T12:49:39.999Z</time></trkpt><trkpt lat="44.0713718591201" lon="12.084206846966968"><ele>215.0</ele><time>2026-04-12T12:49:41.999Z</time></trkpt><trkpt lat="44.07125567144084" lon="12.08422277178579"><ele>218.2</ele><time>2026-04-12T12:49:43.999Z</time></trkpt><trkpt lat="44.07116254223943" lon="12.08425639883472"><ele>221.4</ele><time>2026-04-12T12:49:44.999Z</time></trkpt><trkpt lat="44.07110308438902" lon="12.084319547325851"><ele>224.60000000000002</ele><time>2026-04-12T12:49:45.999Z</time></trkpt><trkpt lat="44.070997572001446" lon="12.084344696791533"><ele>227.8</ele><time>2026-04-12T12:49:47.999Z</time></trkpt><trkpt lat="44.07091818430109" lon="12.08435844861852"><ele>231.0</ele><time>2026-04-12T12:49:49Z</time></trkpt><trkpt lat="44.070791257697415" lon="12.084359876121145"><ele>228.83333333333334</ele><time>2026-04-12T12:49:51Z</time></trkpt><trkpt lat="44.07072204779454" lon="12.08436015920384"><ele>226.66666666666669</ele><time>2026-04-12T12:49:52Z</time></trkpt><trkpt lat="44.07063417032847" lon="12.084336224969602"><ele>224.5</ele><time>2026-04-12T12:49:53Z</time></trkpt><trkpt lat="44.07054193299647" lon="12.0843106491519"><ele>222.33333333333334</ele><time>2026-04-12T12:49:54Z</time></trkpt><trkpt lat="44.07047288682769" lon="12.084294581174587"><ele>220.16666666666669</ele><time>2026-04-12T12:49:55Z</time></trkpt><trkpt lat="44.07038974263368" lon="12.08426996905493"><ele>218.0</ele><time>2026-04-12T12:49:57Z</time></trkpt><trkpt lat="44.0703075202465" lon="12.084176489142827"><ele>219.00000000000003</ele><time>2026-04-12T12:49:59Z</time></trkpt><trkpt lat="44.07028371809692" lon="12.084068240851224"><ele>220.0</ele><time>2026-04-12T12:50:05Z</time></trkpt><trkpt lat="44.07018646142907" lon="12.083969644439462"><ele>221.0</ele><time>2026-04-12T12:50:07Z</time></trkpt><trkpt lat="44.070132424460084" lon="12.083909434074714"><ele>222.0</ele><time>2026-04-12T12:50:08Z</time></trkpt><trkpt lat="44.07007383671869" lon="12.083809860157405"><ele>223.00000000000003</ele><time>2026-04-12T12:50:10Z</time></trkpt><trkpt lat="44.07002950091581" lon="12.083731724934337"><ele>224.0</ele><time>2026-04-12T12:50:11Z</time></trkpt><trkpt lat="44.06998512163663" lon="12.08366179982754"><ele>224.00000000000003</ele><time>2026-04-12T12:50:12Z</time></trkpt><trkpt lat="44.06993021022752" lon="12.083531592330631"><ele>224.0</ele><time>2026-04-12T12:50:14Z</time></trkpt><trkpt lat="44.06989907585328" lon="12.083451567262497"><ele>224.0</ele><time>2026-04-12T12:50:34Z</time></trkpt><trkpt lat="44.06994158455944" lon="12.08354512249157"><ele>224.0</ele><time>2026-04-12T12:50:52.999Z</time></trkpt><trkpt lat="44.069987617412245" lon="12.083644506377777"><ele>224.00000000000003</ele><time>2026-04-12T12:50:53.999Z</time></trkpt><trkpt lat="44.070041032241896" lon="12.083740057437861"><ele>224.0</ele><time>2026-04-12T12:50:54.999Z</time></trkpt><trkpt lat="44.07009111662034" lon="12.083827708327737"><ele>224.0</ele><time>2026-04-12T12:50:55.999Z</time></trkpt><trkpt lat="44.07016535671562" lon="12.083943821133538"><ele>223.99999999999997</ele><time>2026-04-12T12:50:57.999Z</time></trkpt><trkpt lat="44.07021276392157" lon="12.084013297604558"><ele>223.99999999999997</ele><time>2026-04-12T12:50:58.999Z</time></trkpt><trkpt lat="44.07028491093462" lon="12.084072772923145"><ele>224.0</ele><time>2026-04-12T12:50:59.999Z</time></trkpt><trkpt lat="44.07036238612754" lon="12.084115071585765"><ele>224.0</ele><time>2026-04-12T12:51:02.999Z</time></trkpt><trkpt lat="44.07046709498555" lon="12.084051088342468"><ele>224.00000000000003</ele><time>2026-04-12T12:51:17.999Z</time></trkpt><trkpt lat="44.07052602322572" lon="12.083988257636273"><ele>224.0</ele><time>2026-04-12T12:51:18.999Z</time></trkpt><trkpt lat="44.070586988992964" lon="12.08392877675272"><ele>224.0</ele><time>2026-04-12T12:51:19.999Z</time></trkpt><trkpt lat="44.07069689081289" lon="12.083809598586802"><ele>224.0</ele><time>2026-04-12T12:51:21.999Z</time></trkpt><trkpt lat="44.07074530194393" lon="12.083743126774712"><ele>224.00000000000003</ele><time>2026-04-12T12:51:22.999Z</time></trkpt><trkpt lat="44.0707879637999" lon="12.083676696476056"><ele>224.0</ele><time>2026-04-12T12:51:23.999Z</time></trkpt><trkpt lat="44.07084504966717" lon="12.083596881969278"><ele>229.75</ele><time>2026-04-12T12:51:24.999Z</time></trkpt><trkpt lat="44.070908109890546" lon="12.083531468832822"><ele>235.5</ele><time>2026-04-12T12:51:25.999Z</time></trkpt><trkpt lat="44.07101533583751" lon="12.08337011582172"><ele>241.25</ele><time>2026-04-12T12:51:27.999Z</time></trkpt><trkpt lat="44.07110019909493" lon="12.083248657496625"><ele>247.0</ele><time>2026-04-12T12:51:28.999Z</time></trkpt><trkpt lat="44.071159151628166" lon="12.083136961838223"><ele>248.83333333333331</ele><time>2026-04-12T12:51:29.999Z</time></trkpt><trkpt lat="44.071198003108684" lon="12.08306348332135"><ele>250.66666666666666</ele><time>2026-04-12T12:51:30.999Z</time></trkpt><trkpt lat="44.07124268920519" lon="12.082992336345972"><ele>252.5</ele><time>2026-04-12T12:51:32.999Z</time></trkpt><trkpt lat="44.071304177715845" lon="12.08291179153167"><ele>254.33333333333331</ele><time>2026-04-12T12:51:33.999Z</time></trkpt><trkpt lat="44.07136302645573" lon="12.082819929727913"><ele>256.1666666666667</ele><time>2026-04-12T12:51:34.999Z</time></trkpt><trkpt lat="44.07141925023431" lon="12.08273761349828"><ele>258.0</ele><time>2026-04-12T12:51:35.999Z</time></trkpt><trkpt lat="44.071476585887154" lon="12.082673455586328"><ele>258.0</ele><time>2026-04-12T12:51:36.999Z</time></trkpt><trkpt lat="44.07156874791524" lon="12.082560955614486"><ele>258.0</ele><time>2026-04-12T12:51:38.999Z</time></trkpt><trkpt lat="44.071665032721555" lon="12.082474625854976"><ele>258.0</ele><time>2026-04-12T12:51:40.999Z</time></trkpt><trkpt lat="44.071776665761035" lon="12.08235387605026"><ele>258.0</ele><time>2026-04-12T12:51:42.999Z</time></trkpt><trkpt lat="44.07182728668491" lon="12.08226778754861"><ele>260.25</ele><time>2026-04-12T12:51:44.999Z</time></trkpt><trkpt lat="44.07190310608152" lon="12.082122791079556"><ele>262.5</ele><time>2026-04-12T12:51:46.999Z</time></trkpt><trkpt lat="44.071948386349256" lon="12.082024050500126"><ele>264.75</ele><time>2026-04-12T12:51:47.999Z</time></trkpt><trkpt lat="44.071934485026375" lon="12.081874955213598"><ele>267.0</ele><time>2026-04-12T12:51:49.999Z</time></trkpt><trkpt lat="44.07186413148958" lon="12.081717691398422"><ele>267.0</ele><time>2026-04-12T12:51:51.999Z</time></trkpt><trkpt lat="44.07181534173366" lon="12.08165853784059"><ele>267.0</ele><time>2026-04-12T12:51:52.999Z</time></trkpt><trkpt lat="44.0716576994957" lon="12.081561041271202"><ele>267.0</ele><time>2026-04-12T12:51:55Z</time></trkpt><trkpt lat="44.07154019213975" lon="12.081533719836491"><ele>267.0</ele><time>2026-04-12T12:51:56Z</time></trkpt><trkpt lat="44.071416481117794" lon="12.081435695078596"><ele>267.0</ele><time>2026-04-12T12:51:58Z</time></trkpt><trkpt lat="44.071350764249466" lon="12.081375355344948"><ele>267.0</ele><time>2026-04-12T12:51:59Z</time></trkpt><trkpt lat="44.071253052184716" lon="12.081261108454308"><ele>267.0</ele><time>2026-04-12T12:52:01Z</time></trkpt><trkpt lat="44.07120531699203" lon="12.081179578250843"><ele>267.0</ele><time>2026-04-12T12:52:02Z</time></trkpt><trkpt lat="44.07116833820986" lon="12.08108914226491"><ele>267.0</ele><time>2026-04-12T12:52:03Z</time></trkpt><trkpt lat="44.07111375507147" lon="12.080959824740173"><ele>267.0</ele><time>2026-04-12T12:52:05Z</time></trkpt><trkpt lat="44.07114168323787" lon="12.08084399374065"><ele>267.0</ele><time>2026-04-12T12:52:08Z</time></trkpt><trkpt lat="44.07112946880253" lon="12.080741360386252"><ele>267.0</ele><time>2026-04-12T12:52:09Z</time></trkpt><trkpt lat="44.07110132436971" lon="12.080618066517955"><ele>267.0</ele><time>2026-04-12T12:52:10Z</time></trkpt><trkpt lat="44.071068283505504" lon="12.080490157711589"><ele>267.0</ele><time>2026-04-12T12:52:11Z</time></trkpt><trkpt lat="44.07102852724072" lon="12.080360340426497"><ele>268.2</ele><time>2026-04-12T12:52:12Z</time></trkpt><trkpt lat="44.07098330387028" lon="12.080227829443102"><ele>269.4</ele><time>2026-04-12T12:52:13Z</time></trkpt><trkpt lat="44.070942028494116" lon="12.080109763227934"><ele>270.6</ele><time>2026-04-12T12:52:14Z</time></trkpt><trkpt lat="44.0708962062585" lon="12.079991583227747"><ele>271.8</ele><time>2026-04-12T12:52:15Z</time></trkpt><trkpt lat="44.07083533938505" lon="12.079877268290845"><ele>273.0</ele><time>2026-04-12T12:52:16Z</time></trkpt><trkpt lat="44.07078481962253" lon="12.079789908353112"><ele>275.6666666666667</ele><time>2026-04-12T12:52:17Z</time></trkpt><trkpt lat="44.070740511880615" lon="12.07972410462697"><ele>278.3333333333333</ele><time>2026-04-12T12:52:18Z</time></trkpt><trkpt lat="44.07067966467496" lon="12.079661986341513"><ele>281.0</ele><time>2026-04-12T12:52:19Z</time></trkpt><trkpt lat="44.07062989150871" lon="12.07956912315233"><ele>283.66666666666663</ele><time>2026-04-12T12:52:21Z</time></trkpt><trkpt lat="44.070533458914184" lon="12.079493158449518"><ele>286.3333333333333</ele><time>2026-04-12T12:52:23Z</time></trkpt><trkpt lat="44.07044875416219" lon="12.079449712267104"><ele>289.0</ele><time>2026-04-12T12:52:24Z</time></trkpt><trkpt lat="44.07035155439237" lon="12.079391690602828"><ele>289.0</ele><time>2026-04-12T12:52:26Z</time></trkpt><trkpt lat="44.070293501643846" lon="12.07929497613779"><ele>289.0</ele><time>2026-04-12T12:52:28Z</time></trkpt><trkpt lat="44.070233718984696" lon="12.079133332113523"><ele>289.0</ele><time>2026-04-12T12:52:30Z</time></trkpt><trkpt lat="44.07022145688132" lon="12.07899165836474"><ele>289.0</ele><time>2026-04-12T12:52:32Z</time></trkpt><trkpt lat="44.07022125999981" lon="12.078874965426452"><ele>289.0</ele><time>2026-04-12T12:52:33Z</time></trkpt><trkpt lat="44.07021885477065" lon="12.078743580506353"><ele>289.66666666666663</ele><time>2026-04-12T12:52:34Z</time></trkpt><trkpt lat="44.070223909698676" lon="12.07859209122588"><ele>290.3333333333333</ele><time>2026-04-12T12:52:35Z</time></trkpt><trkpt lat="44.070228294158674" lon="12.078492221816694"><ele>291.0</ele><time>2026-04-12T12:52:35.999Z</time></trkpt><trkpt lat="44.07025926683926" lon="12.078389872391607"><ele>291.6666666666667</ele><time>2026-04-12T12:52:37.999Z</time></trkpt><trkpt lat="44.07027151307411" lon="12.078270543021532"><ele>292.33333333333337</ele><time>2026-04-12T12:52:39.999Z</time></trkpt><trkpt lat="44.0702540250938" lon="12.078173240447972"><ele>293.0</ele><time>2026-04-12T12:52:40.999Z</time></trkpt><trkpt lat="44.07024104683322" lon="12.078078746658583"><ele>293.0</ele><time>2026-04-12T12:52:41.999Z</time></trkpt><trkpt lat="44.07022567609717" lon="12.077988110748443"><ele>293.0</ele><time>2026-04-12T12:52:42.999Z</time></trkpt><trkpt lat="44.070196809384484" lon="12.077889093340671"><ele>293.0</ele><time>2026-04-12T12:52:43.999Z</time></trkpt><trkpt lat="44.07016919026912" lon="12.077801560775653"><ele>293.0</ele><time>2026-04-12T12:52:44.999Z</time></trkpt><trkpt lat="44.07012795134043" lon="12.077703686815479"><ele>293.0</ele><time>2026-04-12T12:52:45.999Z</time></trkpt><trkpt lat="44.07007585335084" lon="12.07764632595139"><ele>293.0</ele><time>2026-04-12T12:52:46.999Z</time></trkpt><trkpt lat="44.070010907609934" lon="12.077556439874805"><ele>293.0</ele><time>2026-04-12T12:52:47.999Z</time></trkpt><trkpt lat="44.06995865082235" lon="12.077489072921296"><ele>293.0</ele><time>2026-04-12T12:52:48.999Z</time></trkpt><trkpt lat="44.06989353792893" lon="12.077430430552456"><ele>293.0</ele><time>2026-04-12T12:52:50.999Z</time></trkpt><trkpt lat="44.06982717748625" lon="12.077429345612927"><ele>293.0</ele><time>2026-04-12T12:52:52.999Z</time></trkpt><trkpt lat="44.06979956790153" lon="12.077528576447964"><ele>293.0</ele><time>2026-04-12T12:52:54.999Z</time></trkpt><trkpt lat="44.06978085141007" lon="12.077641755454732"><ele>293.0</ele><time>2026-04-12T12:52:56.999Z</time></trkpt><trkpt lat="44.06971679095322" lon="12.077702982749175"><ele>294.6666666666667</ele><time>2026-04-12T12:52:58.999Z</time></trkpt><trkpt lat="44.069600123010645" lon="12.077764179149435"><ele>296.33333333333337</ele><time>2026-04-12T12:53:00.999Z</time></trkpt><trkpt lat="44.06953456821307" lon="12.077808277410538"><ele>298.0</ele><time>2026-04-12T12:53:01.999Z</time></trkpt><trkpt lat="44.06946737760841" lon="12.077859207726316"><ele>299.6666666666667</ele><time>2026-04-12T12:53:02.999Z</time></trkpt><trkpt lat="44.06939437189616" lon="12.077916986572268"><ele>301.3333333333333</ele><time>2026-04-12T12:53:03.999Z</time></trkpt><trkpt lat="44.0693195184304" lon="12.07798226399532"><ele>303.0</ele><time>2026-04-12T12:53:04.999Z</time></trkpt><trkpt lat="44.06925536169162" lon="12.078045519772038"><ele>303.0</ele><time>2026-04-12T12:53:05.999Z</time></trkpt><trkpt lat="44.06918684320538" lon="12.078091875688035"><ele>303.0</ele><time>2026-04-12T12:53:07.999Z</time></trkpt><trkpt lat="44.06914056344894" lon="12.078003050987567"><ele>303.0</ele><time>2026-04-12T12:54:35Z</time></trkpt><trkpt lat="44.069073025453164" lon="12.077943654998725"><ele>303.0</ele><time>2026-04-12T12:54:36Z</time></trkpt><trkpt lat="44.06898431561166" lon="12.077872041986122"><ele>303.0</ele><time>2026-04-12T12:54:37Z</time></trkpt><trkpt lat="44.068890644747064" lon="12.07778383105816"><ele>304.5</ele><time>2026-04-12T12:54:38Z</time></trkpt><trkpt lat="44.06880454835507" lon="12.077671268431821"><ele>306.0</ele><time>2026-04-12T12:54:39Z</time></trkpt><trkpt lat="44.06872793713871" lon="12.077525619323142"><ele>307.5</ele><time>2026-04-12T12:54:40Z</time></trkpt><trkpt lat="44.068632140037934" lon="12.077356836852552"><ele>309.0</ele><time>2026-04-12T12:54:41Z</time></trkpt><trkpt lat="44.068539403404316" lon="12.077223522308687"><ele>309.0</ele><time>2026-04-12T12:54:42Z</time></trkpt><trkpt lat="44.0684527450751" lon="12.077101671091182"><ele>309.0</ele><time>2026-04-12T12:54:43Z</time></trkpt><trkpt lat="44.06837969256918" lon="12.077010762520752"><ele>309.0</ele><time>2026-04-12T12:54:44Z</time></trkpt><trkpt lat="44.06831919750073" lon="12.076947822355121"><ele>309.0</ele><time>2026-04-12T12:54:45Z</time></trkpt><trkpt lat="44.06823089869118" lon="12.07691098492857"><ele>309.0</ele><time>2026-04-12T12:54:47Z</time></trkpt><trkpt lat="44.06814047920113" lon="12.076861421582993"><ele>309.2</ele><time>2026-04-12T12:54:49Z</time></trkpt><trkpt lat="44.06806963824906" lon="12.076785153371171"><ele>309.4</ele><time>2026-04-12T12:54:50Z</time></trkpt><trkpt lat="44.06799201348682" lon="12.076694459212803"><ele>309.6</ele><time>2026-04-12T12:54:51Z</time></trkpt><trkpt lat="44.067920758296744" lon="12.07655819580245"><ele>309.8</ele><time>2026-04-12T12:54:52Z</time></trkpt><trkpt lat="44.06781183637211" lon="12.076456680433127"><ele>310.0</ele><time>2026-04-12T12:54:53Z</time></trkpt><trkpt lat="44.067711923364506" lon="12.07635921155186"><ele>310.0</ele><time>2026-04-12T12:54:54Z</time></trkpt><trkpt lat="44.06761302689046" lon="12.076270938584829"><ele>310.0</ele><time>2026-04-12T12:54:55Z</time></trkpt><trkpt lat="44.0675214253205" lon="12.076176243130355"><ele>310.0</ele><time>2026-04-12T12:54:56Z</time></trkpt><trkpt lat="44.06747117533008" lon="12.076088425133467"><ele>310.0</ele><time>2026-04-12T12:54:57Z</time></trkpt><trkpt lat="44.06741635669165" lon="12.075989929745901"><ele>310.0</ele><time>2026-04-12T12:54:59Z</time></trkpt><trkpt lat="44.06744701508867" lon="12.07581677031235"><ele>306.5</ele><time>2026-04-12T12:55:00.999Z</time></trkpt><trkpt lat="44.06742428955746" lon="12.075679426235327"><ele>303.0</ele><time>2026-04-12T12:55:01.999Z</time></trkpt><trkpt lat="44.06740119986103" lon="12.0754994949115"><ele>299.5</ele><time>2026-04-12T12:55:02.999Z</time></trkpt><trkpt lat="44.06738604963087" lon="12.07533598305713"><ele>296.0</ele><time>2026-04-12T12:55:03.999Z</time></trkpt><trkpt lat="44.06737948282221" lon="12.075185539610658"><ele>296.0</ele><time>2026-04-12T12:55:04.999Z</time></trkpt><trkpt lat="44.0673787464566" lon="12.075024729361417"><ele>296.0</ele><time>2026-04-12T12:55:05.999Z</time></trkpt><trkpt lat="44.06738314570821" lon="12.07480935653908"><ele>296.0</ele><time>2026-04-12T12:55:06.999Z</time></trkpt><trkpt lat="44.06737670713293" lon="12.074568589605688"><ele>296.0</ele><time>2026-04-12T12:55:07.999Z</time></trkpt><trkpt lat="44.06737507612262" lon="12.074390840380183"><ele>295.0</ele><time>2026-04-12T12:55:08.999Z</time></trkpt><trkpt lat="44.06737486606185" lon="12.074227873941823"><ele>294.0</ele><time>2026-04-12T12:55:09.999Z</time></trkpt><trkpt lat="44.067376541743045" lon="12.074072401492822"><ele>293.0</ele><time>2026-04-12T12:55:10.999Z</time></trkpt><trkpt lat="44.06737805610777" lon="12.073889496074846"><ele>292.0</ele><time>2026-04-12T12:55:11.999Z</time></trkpt><trkpt lat="44.06738904380803" lon="12.073715605781327"><ele>290.66666666666663</ele><time>2026-04-12T12:55:12.999Z</time></trkpt><trkpt lat="44.06740525373022" lon="12.073539584126191"><ele>289.3333333333333</ele><time>2026-04-12T12:55:13.999Z</time></trkpt><trkpt lat="44.067433807481144" lon="12.073329772928833"><ele>288.0</ele><time>2026-04-12T12:55:14.999Z</time></trkpt><trkpt lat="44.067485077952384" lon="12.07309757118191"><ele>293.0</ele><time>2026-04-12T12:55:15.999Z</time></trkpt><trkpt lat="44.06752758554191" lon="12.072845563552415"><ele>298.0</ele><time>2026-04-12T12:55:16.999Z</time></trkpt><trkpt lat="44.067552158551486" lon="12.072606373566627"><ele>303.0</ele><time>2026-04-12T12:55:17.999Z</time></trkpt><trkpt lat="44.06761283758022" lon="12.072399667123532"><ele>303.0</ele><time>2026-04-12T12:55:18.999Z</time></trkpt><trkpt lat="44.06765524080359" lon="12.072180808760681"><ele>303.0</ele><time>2026-04-12T12:55:19.999Z</time></trkpt><trkpt lat="44.06770256552942" lon="12.071923781636242"><ele>303.0</ele><time>2026-04-12T12:55:20.999Z</time></trkpt><trkpt lat="44.06775333929471" lon="12.071653546136812"><ele>304.0</ele><time>2026-04-12T12:55:21.999Z</time></trkpt><trkpt lat="44.067805745795965" lon="12.07137462067711"><ele>305.0</ele><time>2026-04-12T12:55:22.999Z</time></trkpt><trkpt lat="44.06785721046972" lon="12.071100707952711"><ele>306.0</ele><time>2026-04-12T12:55:23.999Z</time></trkpt><trkpt lat="44.067887751665424" lon="12.070844476025377"><ele>304.3333333333333</ele><time>2026-04-12T12:55:24.999Z</time></trkpt><trkpt lat="44.06793497121979" lon="12.070579905256544"><ele>302.66666666666663</ele><time>2026-04-12T12:55:25.999Z</time></trkpt><trkpt lat="44.06797079800783" lon="12.070354558380194"><ele>301.0</ele><time>2026-04-12T12:55:26.999Z</time></trkpt><trkpt lat="44.06800913430678" lon="12.070147915494791"><ele>301.0</ele><time>2026-04-12T12:55:27.999Z</time></trkpt><trkpt lat="44.068038925058566" lon="12.069969440199625"><ele>301.0</ele><time>2026-04-12T12:55:28.999Z</time></trkpt><trkpt lat="44.06807029147001" lon="12.069801484851629"><ele>301.0</ele><time>2026-04-12T12:55:29.999Z</time></trkpt><trkpt lat="44.068113404463354" lon="12.06962594215458"><ele>301.0</ele><time>2026-04-12T12:55:30.999Z</time></trkpt><trkpt lat="44.06816275145458" lon="12.069442956429159"><ele>300.66666666666663</ele><time>2026-04-12T12:55:31.999Z</time></trkpt><trkpt lat="44.06821348779158" lon="12.069228897879874"><ele>300.3333333333333</ele><time>2026-04-12T12:55:32.999Z</time></trkpt><trkpt lat="44.06826945413128" lon="12.068997303522114"><ele>300.0</ele><time>2026-04-12T12:55:33.999Z</time></trkpt><trkpt lat="44.068325045634424" lon="12.068773985528654"><ele>306.6666666666667</ele><time>2026-04-12T12:55:34.999Z</time></trkpt><trkpt lat="44.06837276676701" lon="12.06853353847916"><ele>313.33333333333337</ele><time>2026-04-12T12:55:35.999Z</time></trkpt><trkpt lat="44.06840527331398" lon="12.068279714637145"><ele>320.0</ele><time>2026-04-12T12:55:36.999Z</time></trkpt><trkpt lat="44.06843419919686" lon="12.068004267395851"><ele>321.0</ele><time>2026-04-12T12:55:37.999Z</time></trkpt><trkpt lat="44.068471689910886" lon="12.067788135126325"><ele>322.0</ele><time>2026-04-12T12:55:38.999Z</time></trkpt><trkpt lat="44.06850641428454" lon="12.067578860268998"><ele>323.0</ele><time>2026-04-12T12:55:39.999Z</time></trkpt><trkpt lat="44.06852668560428" lon="12.067402750698895"><ele>324.0</ele><time>2026-04-12T12:55:40.999Z</time></trkpt><trkpt lat="44.068535984879595" lon="12.067243606434438"><ele>325.79999999999995</ele><time>2026-04-12T12:55:41.999Z</time></trkpt><trkpt lat="44.06858458972661" lon="12.067135062319414"><ele>327.59999999999997</ele><time>2026-04-12T12:55:42.999Z</time></trkpt><trkpt lat="44.0686677397591" lon="12.067017528549615"><ele>329.4</ele><time>2026-04-12T12:55:44.999Z</time></trkpt><trkpt lat="44.068795271718905" lon="12.066942591542427"><ele>331.2</ele><time>2026-04-12T12:55:46.999Z</time></trkpt><trkpt lat="44.06886983272251" lon="12.066867319276705"><ele>333.0</ele><time>2026-04-12T12:55:47.999Z</time></trkpt><trkpt lat="44.06893449183416" lon="12.06679046481015"><ele>334.5</ele><time>2026-04-12T12:55:48.999Z</time></trkpt><trkpt lat="44.068835377083495" lon="12.066604888248458"><ele>336.0</ele><time>2026-04-12T12:55:51.999Z</time></trkpt><trkpt lat="44.06873220085241" lon="12.066558380857636"><ele>337.5</ele><time>2026-04-12T12:55:52.999Z</time></trkpt><trkpt lat="44.06861933833562" lon="12.066502974234478"><ele>339.0</ele><time>2026-04-12T12:55:53.999Z</time></trkpt><trkpt lat="44.06853390659404" lon="12.066391790173798"><ele>339.0</ele><time>2026-04-12T12:55:54.999Z</time></trkpt><trkpt lat="44.068445998270114" lon="12.066314377094715"><ele>339.0</ele><time>2026-04-12T12:55:55.999Z</time></trkpt><trkpt lat="44.06834076866473" lon="12.066184785881669"><ele>339.0</ele><time>2026-04-12T12:55:56.999Z</time></trkpt><trkpt lat="44.068222946778214" lon="12.066038286148666"><ele>339.0</ele><time>2026-04-12T12:55:57.999Z</time></trkpt><trkpt lat="44.068080411848065" lon="12.0658619464944"><ele>337.75</ele><time>2026-04-12T12:55:58.999Z</time></trkpt><trkpt lat="44.06796639399642" lon="12.065711104022629"><ele>336.5</ele><time>2026-04-12T12:55:59.999Z</time></trkpt><trkpt lat="44.06787128386007" lon="12.065576899833738"><ele>335.25</ele><time>2026-04-12T12:56:00.999Z</time></trkpt><trkpt lat="44.06776473435138" lon="12.065442813164548"><ele>334.0</ele><time>2026-04-12T12:56:01.999Z</time></trkpt><trkpt lat="44.067627779872986" lon="12.065325976482729"><ele>334.0</ele><time>2026-04-12T12:56:02.999Z</time></trkpt><trkpt lat="44.06745333119867" lon="12.065223392621661"><ele>334.0</ele><time>2026-04-12T12:56:03.999Z</time></trkpt><trkpt lat="44.067297881607324" lon="12.065142578767405"><ele>334.0</ele><time>2026-04-12T12:56:04.999Z</time></trkpt><trkpt lat="44.067163840370796" lon="12.065073252494892"><ele>333.0</ele><time>2026-04-12T12:56:05.999Z</time></trkpt><trkpt lat="44.067045601000416" lon="12.064978360369052"><ele>332.0</ele><time>2026-04-12T12:56:07Z</time></trkpt><trkpt lat="44.0669325973128" lon="12.064911074829567"><ele>331.0</ele><time>2026-04-12T12:56:08Z</time></trkpt><trkpt lat="44.066820608499015" lon="12.064864453010372"><ele>330.0</ele><time>2026-04-12T12:56:09Z</time></trkpt><trkpt lat="44.0666815245642" lon="12.064853685019372"><ele>331.0</ele><time>2026-04-12T12:56:10Z</time></trkpt><trkpt lat="44.06652415051593" lon="12.064839670656033"><ele>332.0</ele><time>2026-04-12T12:56:11Z</time></trkpt><trkpt lat="44.06637679824245" lon="12.064800554439355"><ele>333.0</ele><time>2026-04-12T12:56:12Z</time></trkpt><trkpt lat="44.06622631567275" lon="12.064781466022525"><ele>333.0</ele><time>2026-04-12T12:56:13Z</time></trkpt><trkpt lat="44.06609094827545" lon="12.064787743531047"><ele>333.0</ele><time>2026-04-12T12:56:14Z</time></trkpt><trkpt lat="44.06595402347988" lon="12.06476239479043"><ele>333.0</ele><time>2026-04-12T12:56:15Z</time></trkpt><trkpt lat="44.06582247221437" lon="12.064739502535348"><ele>333.0</ele><time>2026-04-12T12:56:16Z</time></trkpt><trkpt lat="44.0656771456229" lon="12.064721635069509"><ele>333.75</ele><time>2026-04-12T12:56:17Z</time></trkpt><trkpt lat="44.065538133984624" lon="12.064768694728688"><ele>334.5</ele><time>2026-04-12T12:56:18Z</time></trkpt><trkpt lat="44.06540683266676" lon="12.064800513601048"><ele>335.25</ele><time>2026-04-12T12:56:19Z</time></trkpt><trkpt lat="44.06529095882255" lon="12.064866685696117"><ele>336.0</ele><time>2026-04-12T12:56:20Z</time></trkpt><trkpt lat="44.06519599330394" lon="12.064972306563075"><ele>336.0</ele><time>2026-04-12T12:56:21Z</time></trkpt><trkpt lat="44.06510545810194" lon="12.065104693907863"><ele>336.0</ele><time>2026-04-12T12:56:22Z</time></trkpt><trkpt lat="44.06501903606633" lon="12.065167738590443"><ele>336.0</ele><time>2026-04-12T12:56:23Z</time></trkpt><trkpt lat="44.06494858513663" lon="12.065209077431229"><ele>336.0</ele><time>2026-04-12T12:56:24Z</time></trkpt><trkpt lat="44.06488534844754" lon="12.065198826429404"><ele>336.0</ele><time>2026-04-12T12:56:25Z</time></trkpt><trkpt lat="44.0648170886498" lon="12.065159612190406"><ele>336.0</ele><time>2026-04-12T12:56:26Z</time></trkpt><trkpt lat="44.06472024074955" lon="12.065101576544729"><ele>336.25</ele><time>2026-04-12T12:56:27Z</time></trkpt><trkpt lat="44.06460585109752" lon="12.065024273260068"><ele>336.5</ele><time>2026-04-12T12:56:28Z</time></trkpt><trkpt lat="44.06448229980786" lon="12.064930613080127"><ele>336.75</ele><time>2026-04-12T12:56:29Z</time></trkpt><trkpt lat="44.06437261897743" lon="12.064848806025276"><ele>337.0</ele><time>2026-04-12T12:56:30Z</time></trkpt><trkpt lat="44.06427842469409" lon="12.06477632369981"><ele>337.6</ele><time>2026-04-12T12:56:31Z</time></trkpt><trkpt lat="44.06420199384167" lon="12.064712280962977"><ele>338.20000000000005</ele><time>2026-04-12T12:56:32Z</time></trkpt><trkpt lat="44.06411248399858" lon="12.064642781705368"><ele>338.8</ele><time>2026-04-12T12:56:33Z</time></trkpt><trkpt lat="44.06400539796936" lon="12.064569722982133"><ele>339.4</ele><time>2026-04-12T12:56:34Z</time></trkpt><trkpt lat="44.063895751282914" lon="12.064482782904095"><ele>340.0</ele><time>2026-04-12T12:56:35Z</time></trkpt><trkpt lat="44.06379698786889" lon="12.064358090243472"><ele>338.75</ele><time>2026-04-12T12:56:36Z</time></trkpt><trkpt lat="44.063703282460985" lon="12.064208983934721"><ele>337.5</ele><time>2026-04-12T12:56:37Z</time></trkpt><trkpt lat="44.063614252197496" lon="12.064039761090234"><ele>336.25</ele><time>2026-04-12T12:56:38Z</time></trkpt><trkpt lat="44.06354326906876" lon="12.063853274564856"><ele>335.0</ele><time>2026-04-12T12:56:39Z</time></trkpt><trkpt lat="44.06347458206384" lon="12.063651007612222"><ele>335.0</ele><time>2026-04-12T12:56:40Z</time></trkpt><trkpt lat="44.0634095804222" lon="12.063434385996606"><ele>335.0</ele><time>2026-04-12T12:56:41Z</time></trkpt><trkpt lat="44.06332675111901" lon="12.063217083190207"><ele>335.0</ele><time>2026-04-12T12:56:42Z</time></trkpt><trkpt lat="44.063254666425" lon="12.062980039360218"><ele>333.0</ele><time>2026-04-12T12:56:43Z</time></trkpt><trkpt lat="44.06315659229961" lon="12.062745126281007"><ele>331.0</ele><time>2026-04-12T12:56:44Z</time></trkpt><trkpt lat="44.063033912062295" lon="12.062535999660334"><ele>329.0</ele><time>2026-04-12T12:56:45Z</time></trkpt><trkpt lat="44.062889244040846" lon="12.062340509444732"><ele>329.0</ele><time>2026-04-12T12:56:46Z</time></trkpt><trkpt lat="44.06273706514556" lon="12.062168178094712"><ele>329.0</ele><time>2026-04-12T12:56:47Z</time></trkpt><trkpt lat="44.06260189284137" lon="12.061991578944486"><ele>329.0</ele><time>2026-04-12T12:56:48Z</time></trkpt><trkpt lat="44.06245951175732" lon="12.061802366031118"><ele>328.0</ele><time>2026-04-12T12:56:49Z</time></trkpt><trkpt lat="44.06236499561948" lon="12.061616563535479"><ele>327.0</ele><time>2026-04-12T12:56:50Z</time></trkpt><trkpt lat="44.06226922661524" lon="12.06141053482272"><ele>326.0</ele><time>2026-04-12T12:56:51Z</time></trkpt><trkpt lat="44.06216982298523" lon="12.06117813012511"><ele>326.0</ele><time>2026-04-12T12:56:52Z</time></trkpt><trkpt lat="44.062088819440255" lon="12.060970062941976"><ele>326.0</ele><time>2026-04-12T12:56:53Z</time></trkpt><trkpt lat="44.06201242079871" lon="12.060782553164803"><ele>326.0</ele><time>2026-04-12T12:56:54Z</time></trkpt><trkpt lat="44.061905097657224" lon="12.060573855189707"><ele>326.6666666666667</ele><time>2026-04-12T12:56:55Z</time></trkpt><trkpt lat="44.061797822733716" lon="12.060388178929381"><ele>327.3333333333333</ele><time>2026-04-12T12:56:56Z</time></trkpt><trkpt lat="44.06166085242225" lon="12.060207026206362"><ele>328.0</ele><time>2026-04-12T12:56:57Z</time></trkpt><trkpt lat="44.061518390643826" lon="12.06001569039298"><ele>332.3333333333333</ele><time>2026-04-12T12:56:58Z</time></trkpt><trkpt lat="44.06138373557021" lon="12.059810077394138"><ele>336.6666666666667</ele><time>2026-04-12T12:56:59Z</time></trkpt><trkpt lat="44.06125945462158" lon="12.059607380384943"><ele>341.0</ele><time>2026-04-12T12:57:00Z</time></trkpt><trkpt lat="44.06114805889026" lon="12.059434733042117"><ele>341.0</ele><time>2026-04-12T12:57:01Z</time></trkpt><trkpt lat="44.06106843101041" lon="12.059301047566175"><ele>341.0</ele><time>2026-04-12T12:57:02Z</time></trkpt><trkpt lat="44.06098472489426" lon="12.059169616578481"><ele>341.0</ele><time>2026-04-12T12:57:03Z</time></trkpt><trkpt lat="44.06091306274923" lon="12.059015541309732"><ele>341.0</ele><time>2026-04-12T12:57:04Z</time></trkpt><trkpt lat="44.06082143696362" lon="12.058888367694411"><ele>341.75</ele><time>2026-04-12T12:57:05Z</time></trkpt><trkpt lat="44.060778626401756" lon="12.058714309770128"><ele>342.5</ele><time>2026-04-12T12:57:06Z</time></trkpt><trkpt lat="44.06073327415824" lon="12.058522790782336"><ele>343.25</ele><time>2026-04-12T12:57:07Z</time></trkpt><trkpt lat="44.060674404128164" lon="12.058316693932348"><ele>344.0</ele><time>2026-04-12T12:57:08Z</time></trkpt><trkpt lat="44.06060973960991" lon="12.058118708817323"><ele>344.0</ele><time>2026-04-12T12:57:09Z</time></trkpt><trkpt lat="44.06055300954959" lon="12.05791167253722"><ele>344.0</ele><time>2026-04-12T12:57:10Z</time></trkpt><trkpt lat="44.060493449505785" lon="12.057709689662117"><ele>344.0</ele><time>2026-04-12T12:57:11Z</time></trkpt><trkpt lat="44.060451011198616" lon="12.057515147884342"><ele>342.33333333333337</ele><time>2026-04-12T12:57:12Z</time></trkpt><trkpt lat="44.06036501530098" lon="12.0573480410133"><ele>340.6666666666667</ele><time>2026-04-12T12:57:13Z</time></trkpt><trkpt lat="44.06025762222442" lon="12.05716821085754"><ele>339.0</ele><time>2026-04-12T12:57:14Z</time></trkpt><trkpt lat="44.060118576008755" lon="12.057003043994497"><ele>339.0</ele><time>2026-04-12T12:57:15Z</time></trkpt><trkpt lat="44.05998873945298" lon="12.056819475262552"><ele>339.0</ele><time>2026-04-12T12:57:16Z</time></trkpt><trkpt lat="44.05985468555797" lon="12.056653574514451"><ele>339.0</ele><time>2026-04-12T12:57:17Z</time></trkpt><trkpt lat="44.05974954881917" lon="12.056526078569606"><ele>341.5</ele><time>2026-04-12T12:57:18Z</time></trkpt><trkpt lat="44.05964072030907" lon="12.056396670533179"><ele>344.0</ele><time>2026-04-12T12:57:19Z</time></trkpt><trkpt lat="44.059531024122386" lon="12.056251427045318"><ele>346.5</ele><time>2026-04-12T12:57:20Z</time></trkpt><trkpt lat="44.05942682681686" lon="12.056092070612651"><ele>349.0</ele><time>2026-04-12T12:57:21Z</time></trkpt><trkpt lat="44.05936095189662" lon="12.055863320130522"><ele>348.25</ele><time>2026-04-12T12:57:22Z</time></trkpt><trkpt lat="44.059316813998635" lon="12.055669363158223"><ele>347.5</ele><time>2026-04-12T12:57:23Z</time></trkpt><trkpt lat="44.059264353291915" lon="12.055462201910307"><ele>346.75</ele><time>2026-04-12T12:57:24Z</time></trkpt><trkpt lat="44.05923803335247" lon="12.055291896991594"><ele>346.0</ele><time>2026-04-12T12:57:25Z</time></trkpt><trkpt lat="44.05920830203875" lon="12.055142532679117"><ele>346.0</ele><time>2026-04-12T12:57:26Z</time></trkpt><trkpt lat="44.05918028522333" lon="12.055023167061677"><ele>346.0</ele><time>2026-04-12T12:57:27Z</time></trkpt><trkpt lat="44.059165050556786" lon="12.05486042744402"><ele>346.0</ele><time>2026-04-12T12:57:28.999Z</time></trkpt><trkpt lat="44.059144816592145" lon="12.054747568511402"><ele>346.0</ele><time>2026-04-12T12:57:30.999Z</time></trkpt><trkpt lat="44.05904821485118" lon="12.05476755813389"><ele>346.0</ele><time>2026-04-12T12:57:31.999Z</time></trkpt><trkpt lat="44.05892689880997" lon="12.054771061677584"><ele>345.20000000000005</ele><time>2026-04-12T12:59:04Z</time></trkpt><trkpt lat="44.0588425648597" lon="12.054777089431358"><ele>344.40000000000003</ele><time>2026-04-12T12:59:05Z</time></trkpt><trkpt lat="44.058740495673554" lon="12.054791556915324"><ele>343.6</ele><time>2026-04-12T12:59:06Z</time></trkpt><trkpt lat="44.058619748963814" lon="12.054801408658935"><ele>342.8</ele><time>2026-04-12T12:59:07Z</time></trkpt><trkpt lat="44.05849634319736" lon="12.054869902323858"><ele>342.0</ele><time>2026-04-12T12:59:08Z</time></trkpt><trkpt lat="44.058378294617626" lon="12.05490422692262"><ele>340.25</ele><time>2026-04-12T12:59:09Z</time></trkpt><trkpt lat="44.05828214523558" lon="12.054901758387727"><ele>338.5</ele><time>2026-04-12T12:59:10Z</time></trkpt><trkpt lat="44.05817978715184" lon="12.054850659511875"><ele>336.75</ele><time>2026-04-12T12:59:11Z</time></trkpt><trkpt lat="44.058080383760334" lon="12.054734931413911"><ele>335.0</ele><time>2026-04-12T12:59:12Z</time></trkpt><trkpt lat="44.05798510528564" lon="12.054594416013058"><ele>335.0</ele><time>2026-04-12T12:59:13Z</time></trkpt><trkpt lat="44.057892314768786" lon="12.054418948629948"><ele>335.0</ele><time>2026-04-12T12:59:14Z</time></trkpt><trkpt lat="44.05779072435555" lon="12.054255743742253"><ele>335.0</ele><time>2026-04-12T12:59:15Z</time></trkpt><trkpt lat="44.057691227162984" lon="12.054086026145509"><ele>335.6666666666667</ele><time>2026-04-12T12:59:16Z</time></trkpt><trkpt lat="44.05757521934269" lon="12.053901677097127"><ele>336.3333333333333</ele><time>2026-04-12T12:59:17Z</time></trkpt><trkpt lat="44.05745682901874" lon="12.053731786046312"><ele>337.0</ele><time>2026-04-12T12:59:18Z</time></trkpt><trkpt lat="44.05732951411046" lon="12.053547040209683"><ele>336.0</ele><time>2026-04-12T12:59:19Z</time></trkpt><trkpt lat="44.057211901766664" lon="12.05336800593392"><ele>335.0</ele><time>2026-04-12T12:59:20Z</time></trkpt><trkpt lat="44.05708081965338" lon="12.053165376017073"><ele>334.0</ele><time>2026-04-12T12:59:21Z</time></trkpt><trkpt lat="44.05695834945884" lon="12.052975410578075"><ele>334.0</ele><time>2026-04-12T12:59:22Z</time></trkpt><trkpt lat="44.0568292924101" lon="12.052779764404853"><ele>334.0</ele><time>2026-04-12T12:59:23Z</time></trkpt><trkpt lat="44.056707909739444" lon="12.052585947045381"><ele>334.0</ele><time>2026-04-12T12:59:24Z</time></trkpt><trkpt lat="44.05656880599632" lon="12.052369831703842"><ele>332.3333333333333</ele><time>2026-04-12T12:59:25Z</time></trkpt><trkpt lat="44.056427076600386" lon="12.052168341248079"><ele>330.6666666666667</ele><time>2026-04-12T12:59:26Z</time></trkpt><trkpt lat="44.05629094756895" lon="12.051965240611892"><ele>329.0</ele><time>2026-04-12T12:59:27Z</time></trkpt><trkpt lat="44.05616033803575" lon="12.051764372151073"><ele>329.0</ele><time>2026-04-12T12:59:28Z</time></trkpt><trkpt lat="44.05602478931971" lon="12.051534276561815"><ele>329.0</ele><time>2026-04-12T12:59:29Z</time></trkpt><trkpt lat="44.055886438257346" lon="12.051317693812617"><ele>329.0</ele><time>2026-04-12T12:59:30Z</time></trkpt><trkpt lat="44.055741025227555" lon="12.051095916352663"><ele>329.0</ele><time>2026-04-12T12:59:31Z</time></trkpt><trkpt lat="44.055590519486884" lon="12.050865542040913"><ele>329.0</ele><time>2026-04-12T12:59:32Z</time></trkpt><trkpt lat="44.055448365250506" lon="12.05064283115214"><ele>329.0</ele><time>2026-04-12T12:59:33Z</time></trkpt><trkpt lat="44.05529649370454" lon="12.050405911138402"><ele>328.6666666666667</ele><time>2026-04-12T12:59:34Z</time></trkpt><trkpt lat="44.05516850387213" lon="12.050209261447845"><ele>328.3333333333333</ele><time>2026-04-12T12:59:35Z</time></trkpt><trkpt lat="44.055034814258846" lon="12.05000437183048"><ele>328.0</ele><time>2026-04-12T12:59:36Z</time></trkpt><trkpt lat="44.054881078232334" lon="12.049768759675587"><ele>328.0</ele><time>2026-04-12T12:59:37Z</time></trkpt><trkpt lat="44.054718551759784" lon="12.049519675557068"><ele>328.0</ele><time>2026-04-12T12:59:38Z</time></trkpt><trkpt lat="44.05460006954047" lon="12.04933855967851"><ele>328.0</ele><time>2026-04-12T12:59:39Z</time></trkpt><trkpt lat="44.054436129765406" lon="12.049121854787508"><ele>328.5</ele><time>2026-04-12T12:59:40Z</time></trkpt><trkpt lat="44.054276276582826" lon="12.048876053523864"><ele>329.0</ele><time>2026-04-12T12:59:41Z</time></trkpt><trkpt lat="44.05414091846762" lon="12.048643754389344"><ele>331.0</ele><time>2026-04-12T12:59:42Z</time></trkpt><trkpt lat="44.05399677398811" lon="12.04842578275988"><ele>333.0</ele><time>2026-04-12T12:59:43Z</time></trkpt><trkpt lat="44.05385478774053" lon="12.04820410304812"><ele>335.0</ele><time>2026-04-12T12:59:43.999Z</time></trkpt><trkpt lat="44.05371486583082" lon="12.047987293049966"><ele>337.33333333333337</ele><time>2026-04-12T12:59:44.999Z</time></trkpt><trkpt lat="44.05359828946553" lon="12.047808227217757"><ele>339.6666666666667</ele><time>2026-04-12T12:59:45.999Z</time></trkpt><trkpt lat="44.05346997104845" lon="12.047611125370246"><ele>342.0</ele><time>2026-04-12T12:59:46.999Z</time></trkpt><trkpt lat="44.05333089403901" lon="12.04741701544156"><ele>341.3333333333333</ele><time>2026-04-12T12:59:48Z</time></trkpt><trkpt lat="44.053199883508476" lon="12.047219325480533"><ele>340.66666666666663</ele><time>2026-04-12T12:59:48.999Z</time></trkpt><trkpt lat="44.05307461058993" lon="12.047003969902365"><ele>340.0</ele><time>2026-04-12T12:59:49.999Z</time></trkpt><trkpt lat="44.0529353185243" lon="12.046792151180894"><ele>342.0</ele><time>2026-04-12T12:59:50.999Z</time></trkpt><trkpt lat="44.05279509272699" lon="12.046585534120092"><ele>344.0</ele><time>2026-04-12T12:59:51.999Z</time></trkpt><trkpt lat="44.05269543064137" lon="12.046420222184786"><ele>346.0</ele><time>2026-04-12T12:59:52.999Z</time></trkpt><trkpt lat="44.05261120433312" lon="12.04624626076917"><ele>346.0</ele><time>2026-04-12T12:59:53.999Z</time></trkpt><trkpt lat="44.052534461831904" lon="12.046051645349396"><ele>346.0</ele><time>2026-04-12T12:59:54.999Z</time></trkpt><trkpt lat="44.052460304427385" lon="12.045824698125848"><ele>346.0</ele><time>2026-04-12T12:59:55.999Z</time></trkpt><trkpt lat="44.052385687158036" lon="12.04562125819724"><ele>345.66666666666663</ele><time>2026-04-12T12:59:56.999Z</time></trkpt><trkpt lat="44.052308644180016" lon="12.045365880349268"><ele>345.3333333333333</ele><time>2026-04-12T12:59:57.999Z</time></trkpt><trkpt lat="44.05223258012421" lon="12.045127095234811"><ele>345.0</ele><time>2026-04-12T12:59:58.999Z</time></trkpt><trkpt lat="44.05216411924803" lon="12.044899715840252"><ele>350.0</ele><time>2026-04-12T12:59:59.999Z</time></trkpt><trkpt lat="44.052088842066205" lon="12.044706055240486"><ele>355.0</ele><time>2026-04-12T13:00:00.999Z</time></trkpt><trkpt lat="44.05198748124108" lon="12.044537279808896"><ele>360.0</ele><time>2026-04-12T13:00:01.999Z</time></trkpt><trkpt lat="44.05184269363127" lon="12.044397485084598"><ele>360.0</ele><time>2026-04-12T13:00:02.999Z</time></trkpt><trkpt lat="44.05168143661789" lon="12.044284089316765"><ele>360.0</ele><time>2026-04-12T13:00:03.999Z</time></trkpt><trkpt lat="44.05151578830526" lon="12.044142992577655"><ele>360.0</ele><time>2026-04-12T13:00:04.999Z</time></trkpt><trkpt lat="44.051342935998804" lon="12.044020185192375"><ele>363.0</ele><time>2026-04-12T13:00:05.999Z</time></trkpt><trkpt lat="44.051168117038415" lon="12.043901223730357"><ele>366.0</ele><time>2026-04-12T13:00:06.999Z</time></trkpt><trkpt lat="44.05099820282531" lon="12.04378559979754"><ele>369.0</ele><time>2026-04-12T13:00:07.999Z</time></trkpt><trkpt lat="44.05083547810862" lon="12.043670579210517"><ele>368.6666666666667</ele><time>2026-04-12T13:00:08.999Z</time></trkpt><trkpt lat="44.05067852992623" lon="12.04355711088368"><ele>368.33333333333337</ele><time>2026-04-12T13:00:09.999Z</time></trkpt><trkpt lat="44.050487755375734" lon="12.043415089619637"><ele>368.0</ele><time>2026-04-12T13:00:10.999Z</time></trkpt><trkpt lat="44.0503028053206" lon="12.043270395661942"><ele>368.0</ele><time>2026-04-12T13:00:11.999Z</time></trkpt><trkpt lat="44.050134936299955" lon="12.043138366222747"><ele>368.0</ele><time>2026-04-12T13:00:12.999Z</time></trkpt><trkpt lat="44.0499600261581" lon="12.043001151228413"><ele>368.0</ele><time>2026-04-12T13:00:13.999Z</time></trkpt><trkpt lat="44.04972642082801" lon="12.042836079485868"><ele>367.0</ele><time>2026-04-12T13:00:14.999Z</time></trkpt><trkpt lat="44.049541156475264" lon="12.042696322809741"><ele>366.0</ele><time>2026-04-12T13:00:15.999Z</time></trkpt><trkpt lat="44.04938094171062" lon="12.04257814972063"><ele>365.0</ele><time>2026-04-12T13:00:16.999Z</time></trkpt><trkpt lat="44.04923126280303" lon="12.042468302917175"><ele>366.33333333333337</ele><time>2026-04-12T13:00:17.999Z</time></trkpt><trkpt lat="44.0490930109226" lon="12.042368725982344"><ele>367.6666666666667</ele><time>2026-04-12T13:00:19Z</time></trkpt><trkpt lat="44.04895273980243" lon="12.042268404884709"><ele>369.0</ele><time>2026-04-12T13:00:20Z</time></trkpt><trkpt lat="44.04880830902417" lon="12.042158719634383"><ele>369.0</ele><time>2026-04-12T13:00:21Z</time></trkpt><trkpt lat="44.04867000130683" lon="12.042027511323386"><ele>369.0</ele><time>2026-04-12T13:00:22Z</time></trkpt><trkpt lat="44.04852817248412" lon="12.041880004213425"><ele>369.0</ele><time>2026-04-12T13:00:23Z</time></trkpt><trkpt lat="44.048391441752266" lon="12.041715211241407"><ele>368.3333333333333</ele><time>2026-04-12T13:00:24Z</time></trkpt><trkpt lat="44.04824845662544" lon="12.041542774218328"><ele>367.66666666666663</ele><time>2026-04-12T13:00:25.001Z</time></trkpt><trkpt lat="44.04810636135797" lon="12.041360976334364"><ele>367.0</ele><time>2026-04-12T13:00:26Z</time></trkpt><trkpt lat="44.04796146632134" lon="12.041180722890212"><ele>367.0</ele><time>2026-04-12T13:00:27Z</time></trkpt><trkpt lat="44.04783287144171" lon="12.04102299992735"><ele>367.0</ele><time>2026-04-12T13:00:28Z</time></trkpt><trkpt lat="44.04771029292646" lon="12.040872269354477"><ele>367.0</ele><time>2026-04-12T13:00:29Z</time></trkpt><trkpt lat="44.04761186039578" lon="12.040712045197006"><ele>365.0</ele><time>2026-04-12T13:00:30Z</time></trkpt><trkpt lat="44.04751308016023" lon="12.040562345996278"><ele>363.0</ele><time>2026-04-12T13:00:31Z</time></trkpt><trkpt lat="44.047423082755955" lon="12.040384065903398"><ele>361.0</ele><time>2026-04-12T13:00:32Z</time></trkpt><trkpt lat="44.04732755932213" lon="12.04017793054521"><ele>360.3333333333333</ele><time>2026-04-12T13:00:33Z</time></trkpt><trkpt lat="44.047224663000684" lon="12.03995185221729"><ele>359.6666666666667</ele><time>2026-04-12T13:00:34Z</time></trkpt><trkpt lat="44.04711529076412" lon="12.039715486607113"><ele>359.0</ele><time>2026-04-12T13:00:35Z</time></trkpt><trkpt lat="44.04700219833512" lon="12.039470345670289"><ele>359.0</ele><time>2026-04-12T13:00:36Z</time></trkpt><trkpt lat="44.04690112415832" lon="12.039246653065216"><ele>359.0</ele><time>2026-04-12T13:00:37Z</time></trkpt><trkpt lat="44.04679826188949" lon="12.039044252506203"><ele>359.0</ele><time>2026-04-12T13:00:38Z</time></trkpt><trkpt lat="44.04670798377407" lon="12.03884358661092"><ele>361.6666666666667</ele><time>2026-04-12T13:00:39Z</time></trkpt><trkpt lat="44.04660908156932" lon="12.03862258144072"><ele>364.3333333333333</ele><time>2026-04-12T13:00:40Z</time></trkpt><trkpt lat="44.046549239977416" lon="12.038441139928974"><ele>367.0</ele><time>2026-04-12T13:00:41Z</time></trkpt><trkpt lat="44.04649885863873" lon="12.03825700109364"><ele>367.0</ele><time>2026-04-12T13:00:42Z</time></trkpt><trkpt lat="44.046481726326434" lon="12.038082401102542"><ele>367.0</ele><time>2026-04-12T13:00:43Z</time></trkpt><trkpt lat="44.046497014654435" lon="12.037944728535113"><ele>367.0</ele><time>2026-04-12T13:00:44Z</time></trkpt><trkpt lat="44.0465530141582" lon="12.037833588029848"><ele>367.0</ele><time>2026-04-12T13:00:45Z</time></trkpt><trkpt lat="44.046628902178476" lon="12.037770454527044"><ele>367.0</ele><time>2026-04-12T13:00:46Z</time></trkpt><trkpt lat="44.04672874620823" lon="12.03776342958983"><ele>363.0</ele><time>2026-04-12T13:00:47Z</time></trkpt><trkpt lat="44.04682096902143" lon="12.037781361706582"><ele>359.0</ele><time>2026-04-12T13:00:48Z</time></trkpt><trkpt lat="44.04690203051443" lon="12.037806796458463"><ele>355.0</ele><time>2026-04-12T13:00:49Z</time></trkpt><trkpt lat="44.04700522638142" lon="12.037851624549484"><ele>351.0</ele><time>2026-04-12T13:00:50Z</time></trkpt><trkpt lat="44.04712767291773" lon="12.037919203317983"><ele>347.0</ele><time>2026-04-12T13:00:51Z</time></trkpt><trkpt lat="44.04726817602798" lon="12.038009957763947"><ele>347.0</ele><time>2026-04-12T13:00:52Z</time></trkpt><trkpt lat="44.04741057831547" lon="12.038106228966154"><ele>347.0</ele><time>2026-04-12T13:00:53Z</time></trkpt><trkpt lat="44.047545377927506" lon="12.038179825524955"><ele>347.0</ele><time>2026-04-12T13:00:54Z</time></trkpt><trkpt lat="44.047705975679264" lon="12.038263820282014"><ele>346.0</ele><time>2026-04-12T13:00:55Z</time></trkpt><trkpt lat="44.04784046797133" lon="12.038326089879785"><ele>345.0</ele><time>2026-04-12T13:00:56Z</time></trkpt><trkpt lat="44.04796413353342" lon="12.038393177571976"><ele>344.0</ele><time>2026-04-12T13:00:57Z</time></trkpt><trkpt lat="44.048079331027886" lon="12.03848361618016"><ele>343.0</ele><time>2026-04-12T13:00:58Z</time></trkpt><trkpt lat="44.04819893044003" lon="12.03853075764544"><ele>341.0</ele><time>2026-04-12T13:00:59Z</time></trkpt><trkpt lat="44.048319973957454" lon="12.038584393953773"><ele>339.0</ele><time>2026-04-12T13:01:00Z</time></trkpt><trkpt lat="44.048456058132885" lon="12.038536205607342"><ele>337.0</ele><time>2026-04-12T13:01:01Z</time></trkpt><trkpt lat="44.04860203919172" lon="12.038492528155633"><ele>335.0</ele><time>2026-04-12T13:01:02Z</time></trkpt><trkpt lat="44.048762106422814" lon="12.038417350027276"><ele>335.0</ele><time>2026-04-12T13:01:03Z</time></trkpt><trkpt lat="44.04894452776575" lon="12.038347630156178"><ele>335.0</ele><time>2026-04-12T13:01:04Z</time></trkpt><trkpt lat="44.04912145339674" lon="12.038278597169619"><ele>335.0</ele><time>2026-04-12T13:01:05Z</time></trkpt><trkpt lat="44.04925477026507" lon="12.038216830679417"><ele>330.6666666666667</ele><time>2026-04-12T13:01:06Z</time></trkpt><trkpt lat="44.04941757420474" lon="12.038169918306345"><ele>326.3333333333333</ele><time>2026-04-12T13:01:07Z</time></trkpt><trkpt lat="44.04957960675366" lon="12.03813228454888"><ele>322.0</ele><time>2026-04-12T13:01:08Z</time></trkpt><trkpt lat="44.04975102737596" lon="12.038096015713128"><ele>322.0</ele><time>2026-04-12T13:01:09Z</time></trkpt><trkpt lat="44.049903874604404" lon="12.038058761375718"><ele>322.0</ele><time>2026-04-12T13:01:10Z</time></trkpt><trkpt lat="44.050037958793915" lon="12.03802258956126"><ele>322.0</ele><time>2026-04-12T13:01:11Z</time></trkpt><trkpt lat="44.050183603125475" lon="12.037995297725848"><ele>322.0</ele><time>2026-04-12T13:01:12Z</time></trkpt><trkpt lat="44.05034300678001" lon="12.038025209815139"><ele>320.66666666666663</ele><time>2026-04-12T13:01:13Z</time></trkpt><trkpt lat="44.050524573642925" lon="12.038003788909409"><ele>319.3333333333333</ele><time>2026-04-12T13:01:14Z</time></trkpt><trkpt lat="44.050696360626105" lon="12.037996061419381"><ele>318.0</ele><time>2026-04-12T13:01:15Z</time></trkpt><trkpt lat="44.05083757685933" lon="12.037989657214007"><ele>316.75</ele><time>2026-04-12T13:01:16Z</time></trkpt><trkpt lat="44.05096875191534" lon="12.037977554887979"><ele>315.5</ele><time>2026-04-12T13:01:17Z</time></trkpt><trkpt lat="44.05110019897923" lon="12.037952178697902"><ele>314.25</ele><time>2026-04-12T13:01:18Z</time></trkpt><trkpt lat="44.05124048885749" lon="12.037891323611728"><ele>313.0</ele><time>2026-04-12T13:01:19Z</time></trkpt><trkpt lat="44.051389974027494" lon="12.037809456006725"><ele>313.0</ele><time>2026-04-12T13:01:20Z</time></trkpt><trkpt lat="44.05158270657137" lon="12.037712938597142"><ele>313.0</ele><time>2026-04-12T13:01:21Z</time></trkpt><trkpt lat="44.0517342248536" lon="12.037674371246778"><ele>313.0</ele><time>2026-04-12T13:01:22Z</time></trkpt><trkpt lat="44.05191631630591" lon="12.037603845132505"><ele>309.3333333333333</ele><time>2026-04-12T13:01:23Z</time></trkpt><trkpt lat="44.05207272182075" lon="12.037539146030642"><ele>305.6666666666667</ele><time>2026-04-12T13:01:24Z</time></trkpt><trkpt lat="44.052214149124694" lon="12.037499098310494"><ele>302.0</ele><time>2026-04-12T13:01:25Z</time></trkpt><trkpt lat="44.052367932615354" lon="12.0375076127433"><ele>301.33333333333337</ele><time>2026-04-12T13:01:26Z</time></trkpt><trkpt lat="44.05253257831354" lon="12.037516138627485"><ele>300.6666666666667</ele><time>2026-04-12T13:01:27Z</time></trkpt><trkpt lat="44.052734522074466" lon="12.037524283683343"><ele>300.0</ele><time>2026-04-12T13:01:28Z</time></trkpt><trkpt lat="44.05290157818881" lon="12.037542896949088"><ele>300.0</ele><time>2026-04-12T13:01:29Z</time></trkpt><trkpt lat="44.053024501276454" lon="12.037559680445515"><ele>300.0</ele><time>2026-04-12T13:01:30Z</time></trkpt><trkpt lat="44.05313331544624" lon="12.037600903621748"><ele>300.0</ele><time>2026-04-12T13:01:31Z</time></trkpt><trkpt lat="44.05322230438147" lon="12.037654175036483"><ele>300.0</ele><time>2026-04-12T13:01:32Z</time></trkpt><trkpt lat="44.05329094502877" lon="12.0377187580973"><ele>300.0</ele><time>2026-04-12T13:01:33Z</time></trkpt><trkpt lat="44.053362285921914" lon="12.03781297930864"><ele>296.6666666666667</ele><time>2026-04-12T13:01:33.999Z</time></trkpt><trkpt lat="44.053456841820676" lon="12.037968196159268"><ele>293.33333333333337</ele><time>2026-04-12T13:01:34.999Z</time></trkpt><trkpt lat="44.053578697063855" lon="12.038069622966745"><ele>290.0</ele><time>2026-04-12T13:01:36.999Z</time></trkpt><trkpt lat="44.05370621242304" lon="12.0382202958448"><ele>292.8</ele><time>2026-04-12T13:01:37.999Z</time></trkpt><trkpt lat="44.05378206858349" lon="12.038341946624975"><ele>295.6</ele><time>2026-04-12T13:01:38.999Z</time></trkpt><trkpt lat="44.05385495661697" lon="12.038436326102165"><ele>298.4</ele><time>2026-04-12T13:01:39.999Z</time></trkpt><trkpt lat="44.053919047602335" lon="12.038500242499188"><ele>301.2</ele><time>2026-04-12T13:01:40.999Z</time></trkpt><trkpt lat="44.05399828159693" lon="12.038547119100436"><ele>304.0</ele><time>2026-04-12T13:01:41.999Z</time></trkpt><trkpt lat="44.054114032274825" lon="12.038584521659004"><ele>300.0</ele><time>2026-04-12T13:01:42.999Z</time></trkpt><trkpt lat="44.05424094078983" lon="12.038550932672159"><ele>296.0</ele><time>2026-04-12T13:01:43.999Z</time></trkpt><trkpt lat="44.054386532310716" lon="12.038513673486877"><ele>292.0</ele><time>2026-04-12T13:01:44.999Z</time></trkpt><trkpt lat="44.05452628026525" lon="12.038464628949159"><ele>288.0</ele><time>2026-04-12T13:01:45.999Z</time></trkpt><trkpt lat="44.054648261401425" lon="12.038436772301397"><ele>288.0</ele><time>2026-04-12T13:01:46.999Z</time></trkpt><trkpt lat="44.054770077516295" lon="12.038401426852884"><ele>288.0</ele><time>2026-04-12T13:01:47.999Z</time></trkpt><trkpt lat="44.054887543073285" lon="12.038363955217527"><ele>288.0</ele><time>2026-04-12T13:01:48.999Z</time></trkpt><trkpt lat="44.05499827553394" lon="12.038326083665355"><ele>288.0</ele><time>2026-04-12T13:01:49.999Z</time></trkpt><trkpt lat="44.05511409625284" lon="12.038299392780653"><ele>284.8</ele><time>2026-04-12T13:01:50.999Z</time></trkpt><trkpt lat="44.05522233459997" lon="12.03827751721444"><ele>281.6</ele><time>2026-04-12T13:01:51.999Z</time></trkpt><trkpt lat="44.05534497979305" lon="12.038265666664758"><ele>278.4</ele><time>2026-04-12T13:01:52.999Z</time></trkpt><trkpt lat="44.05544824137841" lon="12.038277055619043"><ele>275.2</ele><time>2026-04-12T13:01:53.999Z</time></trkpt><trkpt lat="44.055527514955784" lon="12.03827871709833"><ele>272.0</ele><time>2026-04-12T13:01:54.999Z</time></trkpt><trkpt lat="44.05559555596666" lon="12.038297423240584"><ele>272.83333333333337</ele><time>2026-04-12T13:01:55.999Z</time></trkpt><trkpt lat="44.05566145323038" lon="12.038319579044044"><ele>273.6666666666667</ele><time>2026-04-12T13:01:56.999Z</time></trkpt><trkpt lat="44.055788712722034" lon="12.038395217421"><ele>274.5</ele><time>2026-04-12T13:01:58.999Z</time></trkpt><trkpt lat="44.05586065489085" lon="12.038429997651496"><ele>275.3333333333333</ele><time>2026-04-12T13:01:59.999Z</time></trkpt><trkpt lat="44.055938701489126" lon="12.038476034347706"><ele>276.16666666666663</ele><time>2026-04-12T13:02:00.999Z</time></trkpt><trkpt lat="44.05600367021765" lon="12.03850443532179"><ele>277.0</ele><time>2026-04-12T13:02:01.999Z</time></trkpt><trkpt lat="44.05608572824397" lon="12.038543206608455"><ele>274.25</ele><time>2026-04-12T13:02:03.999Z</time></trkpt><trkpt lat="44.05608690111397" lon="12.0383469549269"><ele>271.5</ele><time>2026-04-12T13:02:06.999Z</time></trkpt><trkpt lat="44.05610269601045" lon="12.0382371828093"><ele>268.75</ele><time>2026-04-12T13:02:07.999Z</time></trkpt><trkpt lat="44.05611342208675" lon="12.03805414927098"><ele>266.0</ele><time>2026-04-12T13:02:08.999Z</time></trkpt><trkpt lat="44.05611961167342" lon="12.037872806098182"><ele>264.25</ele><time>2026-04-12T13:02:09.999Z</time></trkpt><trkpt lat="44.0561139192857" lon="12.037683668426878"><ele>262.5</ele><time>2026-04-12T13:02:10.999Z</time></trkpt><trkpt lat="44.05606560958763" lon="12.03750995572704"><ele>260.75</ele><time>2026-04-12T13:02:11.999Z</time></trkpt><trkpt lat="44.056019747720654" lon="12.03736920081264"><ele>259.0</ele><time>2026-04-12T13:02:12.999Z</time></trkpt><trkpt lat="44.0559876232771" lon="12.03722162425432"><ele>258.0</ele><time>2026-04-12T13:02:13.999Z</time></trkpt><trkpt lat="44.05595169687519" lon="12.037095169069364"><ele>257.0</ele><time>2026-04-12T13:02:14.999Z</time></trkpt><trkpt lat="44.05593174056639" lon="12.036977584479681"><ele>256.0</ele><time>2026-04-12T13:02:15.999Z</time></trkpt><trkpt lat="44.05591455557319" lon="12.036820190889634"><ele>255.0</ele><time>2026-04-12T13:02:16.999Z</time></trkpt><trkpt lat="44.055896545074695" lon="12.036593823973927"><ele>253.5</ele><time>2026-04-12T13:02:17.999Z</time></trkpt><trkpt lat="44.05587360100543" lon="12.03642765055792"><ele>252.0</ele><time>2026-04-12T13:02:18.999Z</time></trkpt><trkpt lat="44.055876649846475" lon="12.036246735888302"><ele>250.5</ele><time>2026-04-12T13:02:19.999Z</time></trkpt><trkpt lat="44.05586898359981" lon="12.036094246999834"><ele>249.0</ele><time>2026-04-12T13:02:20.999Z</time></trkpt><trkpt lat="44.055868048754306" lon="12.035963656259408"><ele>249.0</ele><time>2026-04-12T13:02:21.999Z</time></trkpt><trkpt lat="44.05587542946" lon="12.03584510177516"><ele>248.99999999999997</ele><time>2026-04-12T13:02:22.999Z</time></trkpt><trkpt lat="44.055877507006734" lon="12.035718420873794"><ele>248.99999999999997</ele><time>2026-04-12T13:02:24Z</time></trkpt><trkpt lat="44.05592911983784" lon="12.035585574898171"><ele>249.0</ele><time>2026-04-12T13:02:25Z</time></trkpt><trkpt lat="44.0559967047726" lon="12.035414977598993"><ele>249.0</ele><time>2026-04-12T13:02:26Z</time></trkpt><trkpt lat="44.056054377238915" lon="12.035273420584833"><ele>247.25</ele><time>2026-04-12T13:02:27Z</time></trkpt><trkpt lat="44.05614056531456" lon="12.035073740116948"><ele>245.5</ele><time>2026-04-12T13:02:28Z</time></trkpt><trkpt lat="44.05621726496667" lon="12.034900853243734"><ele>243.75</ele><time>2026-04-12T13:02:29Z</time></trkpt><trkpt lat="44.05629410675542" lon="12.034749116966015"><ele>242.0</ele><time>2026-04-12T13:02:30Z</time></trkpt><trkpt lat="44.05636789245186" lon="12.034613577387704"><ele>240.39999999999998</ele><time>2026-04-12T13:02:31Z</time></trkpt><trkpt lat="44.05644006849088" lon="12.034485470567228"><ele>238.79999999999998</ele><time>2026-04-12T13:02:32Z</time></trkpt><trkpt lat="44.05649698829567" lon="12.03434909986564"><ele>237.2</ele><time>2026-04-12T13:02:33Z</time></trkpt><trkpt lat="44.05657327098149" lon="12.034252365060507"><ele>235.6</ele><time>2026-04-12T13:02:34Z</time></trkpt><trkpt lat="44.05661651649133" lon="12.034138259803102"><ele>234.0</ele><time>2026-04-12T13:02:35Z</time></trkpt><trkpt lat="44.05665993889641" lon="12.034053854243632"><ele>232.42857142857144</ele><time>2026-04-12T13:02:36Z</time></trkpt><trkpt lat="44.056692707201115" lon="12.033969237807625"><ele>230.8571428571429</ele><time>2026-04-12T13:02:37Z</time></trkpt><trkpt lat="44.05672296371667" lon="12.033888529878972"><ele>229.28571428571428</ele><time>2026-04-12T13:02:38Z</time></trkpt><trkpt lat="44.05675412000641" lon="12.033805435534044"><ele>227.71428571428572</ele><time>2026-04-12T13:02:39Z</time></trkpt><trkpt lat="44.05679855307511" lon="12.033738392642652"><ele>226.14285714285714</ele><time>2026-04-12T13:02:40Z</time></trkpt><trkpt lat="44.056832240475785" lon="12.033656234638887"><ele>224.57142857142856</ele><time>2026-04-12T13:02:42Z</time></trkpt><trkpt lat="44.056870517091454" lon="12.03356288428906"><ele>223.0</ele><time>2026-04-12T13:02:44Z</time></trkpt><trkpt lat="44.05690570903946" lon="12.033477056940534"><ele>223.0</ele><time>2026-04-12T13:02:46Z</time></trkpt><trkpt lat="44.05676479351946" lon="12.033328606800556"><ele>223.0</ele><time>2026-04-12T13:02:47Z</time></trkpt><trkpt lat="44.056834679764144" lon="12.033278904513654"><ele>223.0</ele><time>2026-04-12T13:02:50Z</time></trkpt><trkpt lat="44.05692025215379" lon="12.033344783498272"><ele>223.0</ele><time>2026-04-12T13:02:55Z</time></trkpt><trkpt lat="44.056993312538125" lon="12.033451883097522"><ele>222.99999999999997</ele><time>2026-04-12T13:02:57Z</time></trkpt><trkpt lat="44.057035974265226" lon="12.033532674818295"><ele>223.0</ele><time>2026-04-12T13:02:58Z</time></trkpt><trkpt lat="44.057073084339834" lon="12.033620397288207"><ele>223.0</ele><time>2026-04-12T13:03:00Z</time></trkpt><trkpt lat="44.05714972576861" lon="12.033588297779026"><ele>223.0</ele><time>2026-04-12T13:03:03Z</time></trkpt><trkpt lat="44.057241383794825" lon="12.033430921028426"><ele>222.99999999999997</ele><time>2026-04-12T13:03:05Z</time></trkpt><trkpt lat="44.057308984169325" lon="12.033390403690321"><ele>223.0</ele><time>2026-04-12T13:03:07Z</time></trkpt><trkpt lat="44.05736135132687" lon="12.033333359814868"><ele>221.28571428571428</ele><time>2026-04-12T13:03:08Z</time></trkpt><trkpt lat="44.057404883988006" lon="12.033259481323448"><ele>219.57142857142856</ele><time>2026-04-12T13:03:11Z</time></trkpt><trkpt lat="44.05743785718291" lon="12.033172961996993"><ele>217.85714285714286</ele><time>2026-04-12T13:03:13Z</time></trkpt><trkpt lat="44.05748011947763" lon="12.033105610179618"><ele>216.14285714285714</ele><time>2026-04-12T13:03:16Z</time></trkpt><trkpt lat="44.05749773660106" lon="12.033011078393653"><ele>214.42857142857144</ele><time>2026-04-12T13:03:19Z</time></trkpt><trkpt lat="44.05750693130056" lon="12.032865624350372"><ele>212.71428571428572</ele><time>2026-04-12T13:03:22Z</time></trkpt><trkpt lat="44.05752612850412" lon="12.03277796689336"><ele>211.0</ele><time>2026-04-12T13:03:23Z</time></trkpt><trkpt lat="44.057552539261245" lon="12.032645168008411"><ele>209.8</ele><time>2026-04-12T13:03:25Z</time></trkpt><trkpt lat="44.05759545428621" lon="12.03249421368298"><ele>208.60000000000002</ele><time>2026-04-12T13:03:27Z</time></trkpt><trkpt lat="44.057632950846774" lon="12.032410236805969"><ele>207.4</ele><time>2026-04-12T13:03:28Z</time></trkpt><trkpt lat="44.05767449938841" lon="12.03233449280389"><ele>206.2</ele><time>2026-04-12T13:03:29Z</time></trkpt><trkpt lat="44.05774174363815" lon="12.03224547278926"><ele>205.0</ele><time>2026-04-12T13:03:30Z</time></trkpt><trkpt lat="44.057861269342325" lon="12.032149011509711"><ele>203.4</ele><time>2026-04-12T13:03:32Z</time></trkpt><trkpt lat="44.057924044004245" lon="12.032060904686892"><ele>201.8</ele><time>2026-04-12T13:03:36Z</time></trkpt><trkpt lat="44.05801081049693" lon="12.031964789527708"><ele>200.2</ele><time>2026-04-12T13:03:38.999Z</time></trkpt><trkpt lat="44.058066676441925" lon="12.031885149413242"><ele>198.6</ele><time>2026-04-12T13:03:40.999Z</time></trkpt><trkpt lat="44.05811823961048" lon="12.031787411411726"><ele>197.0</ele><time>2026-04-12T13:03:43.999Z</time></trkpt><trkpt lat="44.05816703848296" lon="12.031692454846384"><ele>195.33333333333334</ele><time>2026-04-12T13:03:45.999Z</time></trkpt><trkpt lat="44.05819994182679" lon="12.031592863969214"><ele>193.66666666666669</ele><time>2026-04-12T13:03:47.999Z</time></trkpt><trkpt lat="44.05823241738486" lon="12.03147576224156"><ele>192.0</ele><time>2026-04-12T13:03:49.999Z</time></trkpt><trkpt lat="44.05827017737365" lon="12.031339271640187"><ele>190.33333333333334</ele><time>2026-04-12T13:03:51.999Z</time></trkpt><trkpt lat="44.05829187908325" lon="12.03125651324481"><ele>188.66666666666669</ele><time>2026-04-12T13:03:53.999Z</time></trkpt><trkpt lat="44.05827757535111" lon="12.031160352230867"><ele>187.0</ele><time>2026-04-12T13:03:55.999Z</time></trkpt><trkpt lat="44.058268864229824" lon="12.031066217592779"><ele>186.33333333333334</ele><time>2026-04-12T13:03:58.999Z</time></trkpt><trkpt lat="44.05834159101762" lon="12.031035413612079"><ele>185.66666666666669</ele><time>2026-04-12T13:04:04.999Z</time></trkpt><trkpt lat="44.05831395880992" lon="12.030900731836818"><ele>185.0</ele><time>2026-04-12T13:04:26.999Z</time></trkpt><trkpt lat="44.0582531610437" lon="12.030774731748638"><ele>184.33333333333334</ele><time>2026-04-12T13:04:28.999Z</time></trkpt><trkpt lat="44.05821008585407" lon="12.030707044497033"><ele>183.66666666666666</ele><time>2026-04-12T13:04:31Z</time></trkpt><trkpt lat="44.05817637459354" lon="12.030608279495548"><ele>183.0</ele><time>2026-04-12T13:04:35Z</time></trkpt><trkpt lat="44.058202559589674" lon="12.03050705535456"><ele>181.83333333333334</ele><time>2026-04-12T13:04:38Z</time></trkpt><trkpt lat="44.05824097874482" lon="12.030410004310331"><ele>180.66666666666666</ele><time>2026-04-12T13:05:36.999Z</time></trkpt><trkpt lat="44.058297820633584" lon="12.03028538716638"><ele>179.5</ele><time>2026-04-12T13:05:39.999Z</time></trkpt><trkpt lat="44.05834419401787" lon="12.030212226973608"><ele>178.33333333333331</ele><time>2026-04-12T13:05:41.999Z</time></trkpt><trkpt lat="44.05838380395827" lon="12.030135724743385"><ele>177.16666666666666</ele><time>2026-04-12T13:05:43.999Z</time></trkpt><trkpt lat="44.058422693310604" lon="12.03003396805774"><ele>176.0</ele><time>2026-04-12T13:05:46.999Z</time></trkpt><trkpt lat="44.05847601560813" lon="12.02996660334542"><ele>174.16666666666666</ele><time>2026-04-12T13:05:48.999Z</time></trkpt><trkpt lat="44.058512369026424" lon="12.029886570121269"><ele>172.33333333333331</ele><time>2026-04-12T13:05:49.999Z</time></trkpt><trkpt lat="44.05854650687657" lon="12.02975308667027"><ele>170.5</ele><time>2026-04-12T13:05:51.999Z</time></trkpt><trkpt lat="44.058582519195205" lon="12.029679833383922"><ele>168.66666666666666</ele><time>2026-04-12T13:05:52.999Z</time></trkpt><trkpt lat="44.05860107136673" lon="12.02956565090686"><ele>166.83333333333334</ele><time>2026-04-12T13:05:54.999Z</time></trkpt><trkpt lat="44.05864242347154" lon="12.029441336862547"><ele>165.0</ele><time>2026-04-12T13:05:56.999Z</time></trkpt><trkpt lat="44.058681535666906" lon="12.029349090457849"><ele>165.0</ele><time>2026-04-12T13:05:58.999Z</time></trkpt><trkpt lat="44.05870784995366" lon="12.02926585978667"><ele>165.0</ele><time>2026-04-12T13:06:00.999Z</time></trkpt><trkpt lat="44.05878378461798" lon="12.029129870835343"><ele>165.0</ele><time>2026-04-12T13:06:02.999Z</time></trkpt><trkpt lat="44.058814925001116" lon="12.029024224194814"><ele>165.0</ele><time>2026-04-12T13:06:03.999Z</time></trkpt><trkpt lat="44.05885064936657" lon="12.02893876072864"><ele>165.0</ele><time>2026-04-12T13:06:04.999Z</time></trkpt><trkpt lat="44.05889520124429" lon="12.028823737762249"><ele>165.0</ele><time>2026-04-12T13:06:05.999Z</time></trkpt><trkpt lat="44.05892451365915" lon="12.028739894537276"><ele>163.2</ele><time>2026-04-12T13:06:06.999Z</time></trkpt><trkpt lat="44.05899677076403" lon="12.028580021850285"><ele>161.4</ele><time>2026-04-12T13:06:08.999Z</time></trkpt><trkpt lat="44.05904741660106" lon="12.028476285839666"><ele>159.6</ele><time>2026-04-12T13:06:09.999Z</time></trkpt><trkpt lat="44.05908353830762" lon="12.028379872276929"><ele>157.8</ele><time>2026-04-12T13:06:10.999Z</time></trkpt><trkpt lat="44.059113129531546" lon="12.028260814622707"><ele>156.0</ele><time>2026-04-12T13:06:12.999Z</time></trkpt><trkpt lat="44.059190883819404" lon="12.028125375341968"><ele>154.2</ele><time>2026-04-12T13:06:14.999Z</time></trkpt><trkpt lat="44.05926356140376" lon="12.028011036163822"><ele>152.39999999999998</ele><time>2026-04-12T13:06:16.999Z</time></trkpt><trkpt lat="44.059334761089815" lon="12.02797852911563"><ele>150.6</ele><time>2026-04-12T13:06:17.999Z</time></trkpt><trkpt lat="44.05947418388164" lon="12.027944456637913"><ele>148.79999999999998</ele><time>2026-04-12T13:06:19.999Z</time></trkpt><trkpt lat="44.05955766596037" lon="12.027949761329078"><ele>147.0</ele><time>2026-04-12T13:06:20.999Z</time></trkpt><trkpt lat="44.059611907582244" lon="12.028004508643322"><ele>147.0</ele><time>2026-04-12T13:06:21.999Z</time></trkpt><trkpt lat="44.05972709340445" lon="12.028018178594634"><ele>147.0</ele><time>2026-04-12T13:06:22.999Z</time></trkpt><trkpt lat="44.059838379949355" lon="12.027989561772992"><ele>147.0</ele><time>2026-04-12T13:06:23.999Z</time></trkpt><trkpt lat="44.05995605971423" lon="12.027948611675207"><ele>147.0</ele><time>2026-04-12T13:06:24.999Z</time></trkpt><trkpt lat="44.05990093204595" lon="12.028105125825327"><ele>145.79999999999998</ele><time>2026-04-12T13:06:25.999Z</time></trkpt><trkpt lat="44.06002241161928" lon="12.028056323270457"><ele>144.6</ele><time>2026-04-12T13:06:27.999Z</time></trkpt><trkpt lat="44.06008771340966" lon="12.027976579063191"><ele>143.39999999999998</ele><time>2026-04-12T13:06:28.999Z</time></trkpt><trkpt lat="44.06016073367751" lon="12.027867383777059"><ele>142.2</ele><time>2026-04-12T13:06:29.999Z</time></trkpt><trkpt lat="44.06021516167748" lon="12.027773946656025"><ele>141.0</ele><time>2026-04-12T13:06:30.999Z</time></trkpt><trkpt lat="44.06025602257287" lon="12.027668208588608"><ele>141.0</ele><time>2026-04-12T13:06:31.999Z</time></trkpt><trkpt lat="44.06029572558497" lon="12.027564367127637"><ele>141.0</ele><time>2026-04-12T13:06:32.999Z</time></trkpt><trkpt lat="44.060336955523475" lon="12.027471758367016"><ele>141.0</ele><time>2026-04-12T13:06:33.999Z</time></trkpt><trkpt lat="44.060383132396524" lon="12.027383987228491"><ele>141.0</ele><time>2026-04-12T13:06:34.999Z</time></trkpt><trkpt lat="44.06042836908779" lon="12.027298258285017"><ele>141.0</ele><time>2026-04-12T13:06:36Z</time></trkpt><trkpt lat="44.06046671876178" lon="12.027226216836185"><ele>141.0</ele><time>2026-04-12T13:06:37Z</time></trkpt><trkpt lat="44.06050860288368" lon="12.027155480815233"><ele>141.0</ele><time>2026-04-12T13:06:38Z</time></trkpt><trkpt lat="44.06055503829428" lon="12.027094191468553"><ele>139.0</ele><time>2026-04-12T13:06:39Z</time></trkpt><trkpt lat="44.060608395513995" lon="12.027031852475382"><ele>137.0</ele><time>2026-04-12T13:06:40Z</time></trkpt><trkpt lat="44.060704720901995" lon="12.026901819058562"><ele>135.0</ele><time>2026-04-12T13:06:42Z</time></trkpt><trkpt lat="44.060765159109145" lon="12.026787655515855"><ele>133.0</ele><time>2026-04-12T13:06:43Z</time></trkpt><trkpt lat="44.060842560897896" lon="12.02665453148951"><ele>131.0</ele><time>2026-04-12T13:06:44Z</time></trkpt><trkpt lat="44.06093690816032" lon="12.026493461160523"><ele>127.75</ele><time>2026-04-12T13:06:45Z</time></trkpt><trkpt lat="44.06101287419796" lon="12.026364400301375"><ele>124.5</ele><time>2026-04-12T13:06:46Z</time></trkpt><trkpt lat="44.06107964808253" lon="12.026236528406505"><ele>121.25</ele><time>2026-04-12T13:06:47Z</time></trkpt><trkpt lat="44.06114313931249" lon="12.026104638028224"><ele>118.0</ele><time>2026-04-12T13:06:48Z</time></trkpt><trkpt lat="44.06120725252097" lon="12.025980325797196"><ele>118.0</ele><time>2026-04-12T13:06:49Z</time></trkpt><trkpt lat="44.06127760712811" lon="12.025871258703944"><ele>118.00000000000001</ele><time>2026-04-12T13:06:50Z</time></trkpt><trkpt lat="44.06134296344151" lon="12.025764473984822"><ele>118.00000000000001</ele><time>2026-04-12T13:06:51Z</time></trkpt><trkpt lat="44.06140337460029" lon="12.025663035739642"><ele>118.0</ele><time>2026-04-12T13:06:52Z</time></trkpt><trkpt lat="44.061446512754955" lon="12.0255819114298"><ele>118.0</ele><time>2026-04-12T13:06:53Z</time></trkpt><trkpt lat="44.06146383386963" lon="12.025454572568323"><ele>116.83333333333334</ele><time>2026-04-12T13:06:55Z</time></trkpt><trkpt lat="44.061360676389626" lon="12.02539068881815"><ele>115.66666666666667</ele><time>2026-04-12T13:06:56Z</time></trkpt><trkpt lat="44.061289857516456" lon="12.025335130194362"><ele>114.5</ele><time>2026-04-12T13:06:57Z</time></trkpt><trkpt lat="44.061199072487845" lon="12.025307700383573"><ele>113.33333333333334</ele><time>2026-04-12T13:06:58Z</time></trkpt><trkpt lat="44.06117369169195" lon="12.025218519182667"><ele>112.16666666666667</ele><time>2026-04-12T13:07:00Z</time></trkpt><trkpt lat="44.061194043723724" lon="12.025121006015208"><ele>111.0</ele><time>2026-04-12T13:07:17Z</time></trkpt><trkpt lat="44.061097826058905" lon="12.025069025738285"><ele>111.0</ele><time>2026-04-12T13:07:18Z</time></trkpt><trkpt lat="44.06103093309405" lon="12.025025433257966"><ele>111.0</ele><time>2026-04-12T13:07:19Z</time></trkpt><trkpt lat="44.06096125856857" lon="12.02498049471232"><ele>111.0</ele><time>2026-04-12T13:07:20Z</time></trkpt><trkpt lat="44.06087184771828" lon="12.024914684246639"><ele>111.0</ele><time>2026-04-12T13:07:21Z</time></trkpt><trkpt lat="44.06079451287686" lon="12.024862560222564"><ele>111.0</ele><time>2026-04-12T13:07:22Z</time></trkpt><trkpt lat="44.060714991862895" lon="12.024808893137356"><ele>111.0</ele><time>2026-04-12T13:07:23Z</time></trkpt><trkpt lat="44.0606366465712" lon="12.024749760763122"><ele>110.0</ele><time>2026-04-12T13:07:24Z</time></trkpt><trkpt lat="44.060546942759586" lon="12.024694949603058"><ele>109.0</ele><time>2026-04-12T13:07:25Z</time></trkpt><trkpt lat="44.060470243671695" lon="12.024647673716114"><ele>108.0</ele><time>2026-04-12T13:07:26Z</time></trkpt><trkpt lat="44.06037263845628" lon="12.024595167542921"><ele>107.0</ele><time>2026-04-12T13:07:27Z</time></trkpt><trkpt lat="44.06027263301636" lon="12.024523914691498"><ele>106.0</ele><time>2026-04-12T13:07:28Z</time></trkpt><trkpt lat="44.060158179450156" lon="12.024446641432128"><ele>106.0</ele><time>2026-04-12T13:07:29Z</time></trkpt><trkpt lat="44.060048921693365" lon="12.024375768423809"><ele>106.0</ele><time>2026-04-12T13:07:30Z</time></trkpt><trkpt lat="44.059942581044254" lon="12.024303415669502"><ele>106.0</ele><time>2026-04-12T13:07:31Z</time></trkpt><trkpt lat="44.05983952604894" lon="12.024232001963815"><ele>106.0</ele><time>2026-04-12T13:07:32Z</time></trkpt><trkpt lat="44.059734574857146" lon="12.024165839451335"><ele>105.8</ele><time>2026-04-12T13:07:33Z</time></trkpt><trkpt lat="44.059631813726966" lon="12.024103705339765"><ele>105.6</ele><time>2026-04-12T13:07:34Z</time></trkpt><trkpt lat="44.05953255342623" lon="12.024043026913892"><ele>105.4</ele><time>2026-04-12T13:07:35Z</time></trkpt><trkpt lat="44.05943186417855" lon="12.023988663943129"><ele>105.2</ele><time>2026-04-12T13:07:36Z</time></trkpt><trkpt lat="44.059338862386056" lon="12.023931646224021"><ele>105.0</ele><time>2026-04-12T13:07:37Z</time></trkpt><trkpt lat="44.05924660314691" lon="12.02387356249067"><ele>105.0</ele><time>2026-04-12T13:07:38Z</time></trkpt><trkpt lat="44.059153666804505" lon="12.02382257270813"><ele>105.0</ele><time>2026-04-12T13:07:39Z</time></trkpt><trkpt lat="44.05905425031003" lon="12.023764666607155"><ele>105.0</ele><time>2026-04-12T13:07:40Z</time></trkpt><trkpt lat="44.058955265114655" lon="12.023707691145884"><ele>105.0</ele><time>2026-04-12T13:07:40.999Z</time></trkpt><trkpt lat="44.058856748480395" lon="12.023655080845556"><ele>105.0</ele><time>2026-04-12T13:07:41.999Z</time></trkpt><trkpt lat="44.05875253973556" lon="12.023596372730134"><ele>105.5</ele><time>2026-04-12T13:07:42.999Z</time></trkpt><trkpt lat="44.05863517924173" lon="12.023539599811038"><ele>106.0</ele><time>2026-04-12T13:07:43.999Z</time></trkpt><trkpt lat="44.058508342731336" lon="12.02348792462802"><ele>106.5</ele><time>2026-04-12T13:07:44.999Z</time></trkpt><trkpt lat="44.05837762969244" lon="12.023443018546812"><ele>107.0</ele><time>2026-04-12T13:07:45.999Z</time></trkpt><trkpt lat="44.05823486498281" lon="12.023390391736985"><ele>107.33333333333333</ele><time>2026-04-12T13:07:46.999Z</time></trkpt><trkpt lat="44.05809158632204" lon="12.023329557698686"><ele>107.66666666666666</ele><time>2026-04-12T13:07:47.999Z</time></trkpt><trkpt lat="44.05794442877201" lon="12.023268492784979"><ele>108.0</ele><time>2026-04-12T13:07:48.999Z</time></trkpt><trkpt lat="44.05778770649448" lon="12.023212303186646"><ele>108.33333333333334</ele><time>2026-04-12T13:07:49.999Z</time></trkpt><trkpt lat="44.05762577012536" lon="12.023151024378972"><ele>108.66666666666667</ele><time>2026-04-12T13:07:50.999Z</time></trkpt><trkpt lat="44.05745582427503" lon="12.023073123477538"><ele>109.0</ele><time>2026-04-12T13:07:51.999Z</time></trkpt><trkpt lat="44.05729517526957" lon="12.0229704658034"><ele>109.0</ele><time>2026-04-12T13:07:52.999Z</time></trkpt><trkpt lat="44.057138732929204" lon="12.022838218261013"><ele>109.0</ele><time>2026-04-12T13:07:53.999Z</time></trkpt><trkpt lat="44.056982191778495" lon="12.022675494094436"><ele>109.0</ele><time>2026-04-12T13:07:54.999Z</time></trkpt><trkpt lat="44.05684474296718" lon="12.022497870248403"><ele>107.66666666666667</ele><time>2026-04-12T13:07:55.999Z</time></trkpt><trkpt lat="44.0567071081895" lon="12.022299307302761"><ele>106.33333333333334</ele><time>2026-04-12T13:07:56.999Z</time></trkpt><trkpt lat="44.056579018489245" lon="12.022083587793746"><ele>105.0</ele><time>2026-04-12T13:07:57.999Z</time></trkpt><trkpt lat="44.05646102002879" lon="12.021853332406282"><ele>106.33333333333334</ele><time>2026-04-12T13:07:58.999Z</time></trkpt><trkpt lat="44.05635493897777" lon="12.021646344402251"><ele>107.66666666666667</ele><time>2026-04-12T13:07:59.999Z</time></trkpt><trkpt lat="44.056253350568966" lon="12.021469498035756"><ele>109.0</ele><time>2026-04-12T13:08:00.999Z</time></trkpt><trkpt lat="44.05616715765769" lon="12.021325223389018"><ele>109.0</ele><time>2026-04-12T13:08:01.999Z</time></trkpt><trkpt lat="44.05611838820749" lon="12.021204795113634"><ele>109.0</ele><time>2026-04-12T13:08:02.999Z</time></trkpt><trkpt lat="44.05606332369924" lon="12.021101038329837"><ele>109.0</ele><time>2026-04-12T13:08:04.999Z</time></trkpt><trkpt lat="44.05599400396411" lon="12.021215647367288"><ele>109.0</ele><time>2026-04-12T13:08:05.999Z</time></trkpt><trkpt lat="44.05593325345467" lon="12.021248947363379"><ele>109.0</ele><time>2026-04-12T13:08:06.999Z</time></trkpt><trkpt lat="44.05584897123416" lon="12.021324564378174"><ele>111.2</ele><time>2026-04-12T13:08:07.999Z</time></trkpt><trkpt lat="44.055758926406355" lon="12.021360705594024"><ele>113.4</ele><time>2026-04-12T13:08:09.999Z</time></trkpt><trkpt lat="44.055626917268725" lon="12.02139514160201"><ele>115.6</ele><time>2026-04-12T13:08:11.999Z</time></trkpt><trkpt lat="44.055524655000525" lon="12.021409753731472"><ele>117.8</ele><time>2026-04-12T13:08:12.999Z</time></trkpt><trkpt lat="44.05545020571217" lon="12.021407111528253"><ele>120.0</ele><time>2026-04-12T13:08:13.999Z</time></trkpt><trkpt lat="44.05536394035387" lon="12.021399463468645"><ele>120.0</ele><time>2026-04-12T13:08:14.999Z</time></trkpt><trkpt lat="44.055236048417115" lon="12.021384983229323"><ele>120.0</ele><time>2026-04-12T13:08:15.999Z</time></trkpt><trkpt lat="44.055115255527745" lon="12.021391888581826"><ele>120.0</ele><time>2026-04-12T13:08:16.999Z</time></trkpt><trkpt lat="44.05499933302065" lon="12.021421841069778"><ele>120.0</ele><time>2026-04-12T13:08:17.999Z</time></trkpt><trkpt lat="44.054894840236635" lon="12.021490871973702"><ele>121.8</ele><time>2026-04-12T13:08:18.999Z</time></trkpt><trkpt lat="44.054798168565156" lon="12.02161599365717"><ele>123.6</ele><time>2026-04-12T13:08:20.999Z</time></trkpt><trkpt lat="44.05470870858678" lon="12.021699642927933"><ele>125.4</ele><time>2026-04-12T13:08:21.999Z</time></trkpt><trkpt lat="44.05465148355678" lon="12.021753587745373"><ele>127.2</ele><time>2026-04-12T13:08:22.999Z</time></trkpt><trkpt lat="44.05458084367255" lon="12.02171051298763"><ele>129.0</ele><time>2026-04-12T13:08:24.999Z</time></trkpt><trkpt lat="44.05451321718937" lon="12.021758357300223"><ele>129.5</ele><time>2026-04-12T13:08:29.999Z</time></trkpt><trkpt lat="44.05447368141648" lon="12.02184933921674"><ele>130.0</ele><time>2026-04-12T13:08:30.999Z</time></trkpt><trkpt lat="44.05438593197245" lon="12.021842455371461"><ele>130.5</ele><time>2026-04-12T13:08:32.999Z</time></trkpt><trkpt lat="44.054324758286626" lon="12.021795697880638"><ele>131.0</ele><time>2026-04-12T13:08:34.999Z</time></trkpt><trkpt lat="44.05425747597358" lon="12.021812517776665"><ele>131.5</ele><time>2026-04-12T13:08:35.999Z</time></trkpt><trkpt lat="44.05417725751482" lon="12.021832571630785"><ele>132.0</ele><time>2026-04-12T13:08:36.999Z</time></trkpt><trkpt lat="44.05412472094855" lon="12.022236884894825"><ele>133.33333333333334</ele><time>2026-04-12T13:08:37.999Z</time></trkpt><trkpt lat="44.05403279919816" lon="12.022292481948666"><ele>134.66666666666666</ele><time>2026-04-12T13:08:38.999Z</time></trkpt><trkpt lat="44.053956393459345" lon="12.022334193973853"><ele>136.0</ele><time>2026-04-12T13:08:39.999Z</time></trkpt><trkpt lat="44.053889461788884" lon="12.022364660295269"><ele>137.33333333333331</ele><time>2026-04-12T13:08:40.999Z</time></trkpt><trkpt lat="44.05382394925801" lon="12.022379793717517"><ele>138.66666666666666</ele><time>2026-04-12T13:08:42Z</time></trkpt><trkpt lat="44.05375659880404" lon="12.02237663708934"><ele>140.0</ele><time>2026-04-12T13:08:43Z</time></trkpt><trkpt lat="44.05365932663285" lon="12.022307442124985"><ele>140.0</ele><time>2026-04-12T13:08:45Z</time></trkpt><trkpt lat="44.0536136077062" lon="12.022245577205807"><ele>140.0</ele><time>2026-04-12T13:08:46Z</time></trkpt><trkpt lat="44.0535593206577" lon="12.022173646395967"><ele>140.0</ele><time>2026-04-12T13:08:47Z</time></trkpt><trkpt lat="44.05349589454892" lon="12.022094854643619"><ele>140.0</ele><time>2026-04-12T13:08:48Z</time></trkpt><trkpt lat="44.053432946572265" lon="12.022005619499952"><ele>140.0</ele><time>2026-04-12T13:08:49Z</time></trkpt><trkpt lat="44.053386973282926" lon="12.021936432568651"><ele>140.0</ele><time>2026-04-12T13:08:50Z</time></trkpt><trkpt lat="44.053334922160836" lon="12.02182342401381"><ele>140.0</ele><time>2026-04-12T13:08:52Z</time></trkpt><trkpt lat="44.05336583376871" lon="12.021674363254885"><ele>140.0</ele><time>2026-04-12T13:08:54Z</time></trkpt><trkpt lat="44.05341004587256" lon="12.021592569171593"><ele>140.0</ele><time>2026-04-12T13:08:55Z</time></trkpt><trkpt lat="44.05346496433597" lon="12.021529303410961"><ele>140.0</ele><time>2026-04-12T13:08:56Z</time></trkpt><trkpt lat="44.05355106189912" lon="12.02145259750046"><ele>140.0</ele><time>2026-04-12T13:08:57Z</time></trkpt><trkpt lat="44.05364360805745" lon="12.021376419069783"><ele>138.4</ele><time>2026-04-12T13:08:58Z</time></trkpt><trkpt lat="44.053732477883564" lon="12.021283772686965"><ele>136.8</ele><time>2026-04-12T13:08:59Z</time></trkpt><trkpt lat="44.053826391784675" lon="12.021158339566034"><ele>135.2</ele><time>2026-04-12T13:09:01Z</time></trkpt><trkpt lat="44.05387770031507" lon="12.02107265045992"><ele>133.6</ele><time>2026-04-12T13:09:02Z</time></trkpt><trkpt lat="44.0539328070822" lon="12.021011157466472"><ele>132.0</ele><time>2026-04-12T13:09:03Z</time></trkpt><trkpt lat="44.05401063530331" lon="12.020921142609136"><ele>132.0</ele><time>2026-04-12T13:09:05Z</time></trkpt><trkpt lat="44.05404676909691" lon="12.020839954146657"><ele>132.0</ele><time>2026-04-12T13:09:09Z</time></trkpt><trkpt lat="44.0541628635546" lon="12.020782324431769"><ele>132.0</ele><time>2026-04-12T13:09:11Z</time></trkpt><trkpt lat="44.054234031856105" lon="12.020695485387098"><ele>132.0</ele><time>2026-04-12T13:09:12Z</time></trkpt><trkpt lat="44.054321560385986" lon="12.020588005581523"><ele>132.0</ele><time>2026-04-12T13:09:13Z</time></trkpt><trkpt lat="44.054404901509066" lon="12.02048766368342"><ele>129.2</ele><time>2026-04-12T13:09:14Z</time></trkpt><trkpt lat="44.05447204234746" lon="12.020381143149923"><ele>126.39999999999999</ele><time>2026-04-12T13:09:15Z</time></trkpt><trkpt lat="44.05454499304823" lon="12.020290128176034"><ele>123.60000000000001</ele><time>2026-04-12T13:09:16Z</time></trkpt><trkpt lat="44.05461178352348" lon="12.020202192941223"><ele>120.80000000000001</ele><time>2026-04-12T13:09:17Z</time></trkpt><trkpt lat="44.05467281802369" lon="12.020125047264283"><ele>118.0</ele><time>2026-04-12T13:09:18Z</time></trkpt><trkpt lat="44.05474085907991" lon="12.020069233759887"><ele>118.00000000000001</ele><time>2026-04-12T13:09:19Z</time></trkpt><trkpt lat="44.05479542174847" lon="12.020006858388063"><ele>118.0</ele><time>2026-04-12T13:09:20Z</time></trkpt><trkpt lat="44.05485377744504" lon="12.01995927911933"><ele>118.0</ele><time>2026-04-12T13:09:21Z</time></trkpt><trkpt lat="44.05494409894217" lon="12.019842078615122"><ele>118.0</ele><time>2026-04-12T13:09:23Z</time></trkpt><trkpt lat="44.05494402119509" lon="12.019729349814149"><ele>118.00000000000001</ele><time>2026-04-12T13:09:24Z</time></trkpt><trkpt lat="44.05487347656893" lon="12.019620474613381"><ele>118.0</ele><time>2026-04-12T13:09:26Z</time></trkpt><trkpt lat="44.05480570154595" lon="12.019496424469853"><ele>117.0</ele><time>2026-04-12T13:09:27Z</time></trkpt><trkpt lat="44.05470989467311" lon="12.019398155182477"><ele>116.00000000000001</ele><time>2026-04-12T13:09:28Z</time></trkpt><trkpt lat="44.05459970061966" lon="12.019302643941685"><ele>115.00000000000001</ele><time>2026-04-12T13:09:29Z</time></trkpt><trkpt lat="44.054535707650665" lon="12.019241638970383"><ele>114.0</ele><time>2026-04-12T13:09:30Z</time></trkpt><trkpt lat="44.05449323207469" lon="12.01917682286229"><ele>113.0</ele><time>2026-04-12T13:09:31Z</time></trkpt><trkpt lat="44.054476212132386" lon="12.019047786198211"><ele>112.2</ele><time>2026-04-12T13:09:33Z</time></trkpt><trkpt lat="44.054534044461406" lon="12.01900571643668"><ele>111.4</ele><time>2026-04-12T13:09:49.999Z</time></trkpt><trkpt lat="44.05446335822321" lon="12.018861616532766"><ele>110.60000000000001</ele><time>2026-04-12T13:09:51.999Z</time></trkpt><trkpt lat="44.054380897187876" lon="12.018777059685842"><ele>109.80000000000001</ele><time>2026-04-12T13:09:52.999Z</time></trkpt><trkpt lat="44.054295626018586" lon="12.018692653424646"><ele>109.0</ele><time>2026-04-12T13:09:53.999Z</time></trkpt><trkpt lat="44.05420894871852" lon="12.018604358497514"><ele>109.5</ele><time>2026-04-12T13:09:54.999Z</time></trkpt><trkpt lat="44.05411056855749" lon="12.018478269369497"><ele>110.0</ele><time>2026-04-12T13:09:55.999Z</time></trkpt><trkpt lat="44.054002782369146" lon="12.01834607356681"><ele>110.5</ele><time>2026-04-12T13:09:56.999Z</time></trkpt><trkpt lat="44.05389805832237" lon="12.01820546775681"><ele>111.0</ele><time>2026-04-12T13:09:57.999Z</time></trkpt><trkpt lat="44.0537937396204" lon="12.018047622009567"><ele>111.0</ele><time>2026-04-12T13:09:58.999Z</time></trkpt><trkpt lat="44.053680366199025" lon="12.017881956168477"><ele>111.0</ele><time>2026-04-12T13:09:59.999Z</time></trkpt><trkpt lat="44.053567382823616" lon="12.01771003175394"><ele>111.0</ele><time>2026-04-12T13:10:00.999Z</time></trkpt><trkpt lat="44.053453794485975" lon="12.017542383704816"><ele>111.33333333333334</ele><time>2026-04-12T13:10:01.999Z</time></trkpt><trkpt lat="44.053339266413566" lon="12.017367930254633"><ele>111.66666666666667</ele><time>2026-04-12T13:10:02.999Z</time></trkpt><trkpt lat="44.05322136203085" lon="12.017191691274027"><ele>112.0</ele><time>2026-04-12T13:10:03.999Z</time></trkpt><trkpt lat="44.05311386919035" lon="12.017033461115146"><ele>112.0</ele><time>2026-04-12T13:10:04.999Z</time></trkpt><trkpt lat="44.053020303083585" lon="12.016893200299801"><ele>112.0</ele><time>2026-04-12T13:10:05.999Z</time></trkpt><trkpt lat="44.05293472233085" lon="12.016764732457457"><ele>112.0</ele><time>2026-04-12T13:10:06.999Z</time></trkpt><trkpt lat="44.052845004339794" lon="12.016638519176368"><ele>112.0</ele><time>2026-04-12T13:10:07.999Z</time></trkpt><trkpt lat="44.0527525304811" lon="12.01650837426452"><ele>112.5</ele><time>2026-04-12T13:10:08.999Z</time></trkpt><trkpt lat="44.05265680420793" lon="12.016378559359786"><ele>113.0</ele><time>2026-04-12T13:10:09.999Z</time></trkpt><trkpt lat="44.05255681149961" lon="12.016248635197263"><ele>113.5</ele><time>2026-04-12T13:10:10.999Z</time></trkpt><trkpt lat="44.05245818493997" lon="12.016123514992206"><ele>114.0</ele><time>2026-04-12T13:10:11.999Z</time></trkpt><trkpt lat="44.052390390626826" lon="12.01603906029136"><ele>114.0</ele><time>2026-04-12T13:10:12.999Z</time></trkpt><trkpt lat="44.052341114508074" lon="12.015952228850331"><ele>114.0</ele><time>2026-04-12T13:10:14.999Z</time></trkpt><trkpt lat="44.05222208137332" lon="12.015885604581651"><ele>114.0</ele><time>2026-04-12T13:10:39.999Z</time></trkpt><trkpt lat="44.05215813116828" lon="12.01581280075811"><ele>114.0</ele><time>2026-04-12T13:10:40.999Z</time></trkpt><trkpt lat="44.05208521717234" lon="12.015731057347761"><ele>114.0</ele><time>2026-04-12T13:10:41.999Z</time></trkpt><trkpt lat="44.05200298628435" lon="12.015649560821373"><ele>113.25</ele><time>2026-04-12T13:10:42.999Z</time></trkpt><trkpt lat="44.05190087247475" lon="12.015561844774536"><ele>112.5</ele><time>2026-04-12T13:10:43.999Z</time></trkpt><trkpt lat="44.0517982774631" lon="12.015465779001564"><ele>111.75</ele><time>2026-04-12T13:10:44.999Z</time></trkpt><trkpt lat="44.05167917858122" lon="12.015364916678786"><ele>111.0</ele><time>2026-04-12T13:10:45.999Z</time></trkpt><trkpt lat="44.051555681406796" lon="12.015271235806123"><ele>111.0</ele><time>2026-04-12T13:10:46.999Z</time></trkpt><trkpt lat="44.05142903295268" lon="12.015171218680686"><ele>111.0</ele><time>2026-04-12T13:10:48Z</time></trkpt><trkpt lat="44.051302292815585" lon="12.015082033376268"><ele>111.0</ele><time>2026-04-12T13:10:49Z</time></trkpt><trkpt lat="44.05117156388499" lon="12.014991121117514"><ele>111.0</ele><time>2026-04-12T13:10:50Z</time></trkpt><trkpt lat="44.05103792828635" lon="12.014900374951555"><ele>110.33333333333334</ele><time>2026-04-12T13:10:51Z</time></trkpt><trkpt lat="44.0509050637096" lon="12.014817686216901"><ele>109.66666666666667</ele><time>2026-04-12T13:10:52Z</time></trkpt><trkpt lat="44.05077229267756" lon="12.014734689879583"><ele>109.0</ele><time>2026-04-12T13:10:53Z</time></trkpt><trkpt lat="44.050628271212304" lon="12.014637965723969"><ele>109.0</ele><time>2026-04-12T13:10:54Z</time></trkpt><trkpt lat="44.05049739860602" lon="12.014558341694586"><ele>109.0</ele><time>2026-04-12T13:10:55Z</time></trkpt><trkpt lat="44.05035738000236" lon="12.014480211749007"><ele>109.0</ele><time>2026-04-12T13:10:56Z</time></trkpt><trkpt lat="44.050209612004664" lon="12.014390142422792"><ele>109.0</ele><time>2026-04-12T13:10:57Z</time></trkpt><trkpt lat="44.05006501372883" lon="12.014300796556777"><ele>109.0</ele><time>2026-04-12T13:10:58Z</time></trkpt><trkpt lat="44.04991466823094" lon="12.014200255851058"><ele>109.0</ele><time>2026-04-12T13:10:59Z</time></trkpt><trkpt lat="44.049763224176985" lon="12.014110972484083"><ele>109.0</ele><time>2026-04-12T13:11:00Z</time></trkpt><trkpt lat="44.049614158950334" lon="12.014018987859286"><ele>109.0</ele><time>2026-04-12T13:11:01Z</time></trkpt><trkpt lat="44.04946296776017" lon="12.013923455113346"><ele>109.0</ele><time>2026-04-12T13:11:02Z</time></trkpt><trkpt lat="44.049312138131924" lon="12.013829524993207"><ele>109.0</ele><time>2026-04-12T13:11:03Z</time></trkpt><trkpt lat="44.049166302421206" lon="12.013742923253725"><ele>109.0</ele><time>2026-04-12T13:11:04Z</time></trkpt><trkpt lat="44.049027262412864" lon="12.013656216541474"><ele>109.0</ele><time>2026-04-12T13:11:05Z</time></trkpt><trkpt lat="44.04887495684085" lon="12.013556632711866"><ele>109.0</ele><time>2026-04-12T13:11:06Z</time></trkpt><trkpt lat="44.048724585564756" lon="12.013460724163446"><ele>109.0</ele><time>2026-04-12T13:11:07Z</time></trkpt><trkpt lat="44.04857396213437" lon="12.013364602364701"><ele>109.0</ele><time>2026-04-12T13:11:08Z</time></trkpt><trkpt lat="44.04842661435369" lon="12.013273338090526"><ele>109.66666666666667</ele><time>2026-04-12T13:11:09Z</time></trkpt><trkpt lat="44.04827067170229" lon="12.01318312547233"><ele>110.33333333333334</ele><time>2026-04-12T13:11:10Z</time></trkpt><trkpt lat="44.048112000991345" lon="12.013079337614858"><ele>111.0</ele><time>2026-04-12T13:11:11Z</time></trkpt><trkpt lat="44.04796192329398" lon="12.012985258120073"><ele>111.0</ele><time>2026-04-12T13:11:12Z</time></trkpt><trkpt lat="44.04780465257013" lon="12.01289029689078"><ele>111.0</ele><time>2026-04-12T13:11:13Z</time></trkpt><trkpt lat="44.04764783485658" lon="12.01279021399829"><ele>111.0</ele><time>2026-04-12T13:11:14Z</time></trkpt><trkpt lat="44.04749482575894" lon="12.012682675506479"><ele>111.66666666666666</ele><time>2026-04-12T13:11:15Z</time></trkpt><trkpt lat="44.04733998981255" lon="12.012567509175621"><ele>112.33333333333333</ele><time>2026-04-12T13:11:16Z</time></trkpt><trkpt lat="44.04718934784528" lon="12.01244104951339"><ele>113.0</ele><time>2026-04-12T13:11:17Z</time></trkpt><trkpt lat="44.04706162946116" lon="12.012337096905185"><ele>113.0</ele><time>2026-04-12T13:11:18Z</time></trkpt><trkpt lat="44.04694147902193" lon="12.012214885876773"><ele>113.0</ele><time>2026-04-12T13:11:19Z</time></trkpt><trkpt lat="44.0468089054285" lon="12.012084964623119"><ele>113.0</ele><time>2026-04-12T13:11:20Z</time></trkpt><trkpt lat="44.04667829763671" lon="12.011949622561893"><ele>113.33333333333333</ele><time>2026-04-12T13:11:21Z</time></trkpt><trkpt lat="44.04655678612541" lon="12.011815364406152"><ele>113.66666666666666</ele><time>2026-04-12T13:11:22Z</time></trkpt><trkpt lat="44.046431432445246" lon="12.011656128070573"><ele>114.0</ele><time>2026-04-12T13:11:23Z</time></trkpt><trkpt lat="44.046307486629516" lon="12.011493414546786"><ele>114.0</ele><time>2026-04-12T13:11:24Z</time></trkpt><trkpt lat="44.04620217890294" lon="12.011302101950935"><ele>114.0</ele><time>2026-04-12T13:11:25Z</time></trkpt><trkpt lat="44.04607706862785" lon="12.011126696494003"><ele>114.0</ele><time>2026-04-12T13:11:26Z</time></trkpt><trkpt lat="44.04597185558091" lon="12.010929102507381"><ele>114.0</ele><time>2026-04-12T13:11:26.999Z</time></trkpt><trkpt lat="44.04586792519249" lon="12.01072471110419"><ele>114.0</ele><time>2026-04-12T13:11:27.999Z</time></trkpt><trkpt lat="44.04576048563065" lon="12.010521872750722"><ele>114.0</ele><time>2026-04-12T13:11:28.999Z</time></trkpt><trkpt lat="44.045655451357106" lon="12.010320056646476"><ele>114.33333333333334</ele><time>2026-04-12T13:11:29.999Z</time></trkpt><trkpt lat="44.04556307123621" lon="12.010083884891454"><ele>114.66666666666667</ele><time>2026-04-12T13:11:30.999Z</time></trkpt><trkpt lat="44.04548341031061" lon="12.009873750442763"><ele>115.0</ele><time>2026-04-12T13:11:31.999Z</time></trkpt><trkpt lat="44.045413585319366" lon="12.009651549845245"><ele>115.0</ele><time>2026-04-12T13:11:32.999Z</time></trkpt><trkpt lat="44.04534547458424" lon="12.009422953141362"><ele>115.0</ele><time>2026-04-12T13:11:33.999Z</time></trkpt><trkpt lat="44.04526932327875" lon="12.009204728906775"><ele>115.0</ele><time>2026-04-12T13:11:34.999Z</time></trkpt><trkpt lat="44.04520941684841" lon="12.008977470685837"><ele>115.0</ele><time>2026-04-12T13:11:35.999Z</time></trkpt><trkpt lat="44.04514856103474" lon="12.008749835511273"><ele>115.0</ele><time>2026-04-12T13:11:36.999Z</time></trkpt><trkpt lat="44.045085403936916" lon="12.008521985871635"><ele>115.0</ele><time>2026-04-12T13:11:37.999Z</time></trkpt><trkpt lat="44.04503482054106" lon="12.008291797022531"><ele>115.0</ele><time>2026-04-12T13:11:38.999Z</time></trkpt><trkpt lat="44.044976249021936" lon="12.008067518421857"><ele>115.0</ele><time>2026-04-12T13:11:39.999Z</time></trkpt><trkpt lat="44.04492765618042" lon="12.007838686312812"><ele>115.0</ele><time>2026-04-12T13:11:40.999Z</time></trkpt><trkpt lat="44.04488714066085" lon="12.00761444485311"><ele>116.75</ele><time>2026-04-12T13:11:41.999Z</time></trkpt><trkpt lat="44.04485144029152" lon="12.007414746656442"><ele>118.5</ele><time>2026-04-12T13:11:42.999Z</time></trkpt><trkpt lat="44.04481527331968" lon="12.00724008784304"><ele>120.25</ele><time>2026-04-12T13:11:43.999Z</time></trkpt><trkpt lat="44.044780677612984" lon="12.007076728447084"><ele>122.0</ele><time>2026-04-12T13:11:44.999Z</time></trkpt><trkpt lat="44.04474661994181" lon="12.006924064913127"><ele>122.0</ele><time>2026-04-12T13:11:45.999Z</time></trkpt><trkpt lat="44.044716175107176" lon="12.006788015839573"><ele>121.99999999999999</ele><time>2026-04-12T13:11:46.999Z</time></trkpt><trkpt lat="44.0446877583181" lon="12.00665289843718"><ele>121.99999999999999</ele><time>2026-04-12T13:11:47.999Z</time></trkpt><trkpt lat="44.04466173462126" lon="12.006529477205413"><ele>122.0</ele><time>2026-04-12T13:11:48.999Z</time></trkpt><trkpt lat="44.044624085555796" lon="12.006384465862197"><ele>122.0</ele><time>2026-04-12T13:11:49.999Z</time></trkpt><trkpt lat="44.04457699884354" lon="12.00624549541787"><ele>120.5</ele><time>2026-04-12T13:11:50.999Z</time></trkpt><trkpt lat="44.044516857667816" lon="12.00613868586957"><ele>119.0</ele><time>2026-04-12T13:11:51.999Z</time></trkpt><trkpt lat="44.0444236714051" lon="12.006072096249406"><ele>117.5</ele><time>2026-04-12T13:11:52.999Z</time></trkpt><trkpt lat="44.044303994010214" lon="12.006052245572654"><ele>116.0</ele><time>2026-04-12T13:11:53.999Z</time></trkpt><trkpt lat="44.04416459106706" lon="12.006040346279745"><ele>116.75</ele><time>2026-04-12T13:11:54.999Z</time></trkpt><trkpt lat="44.04402653894212" lon="12.006021367887566"><ele>117.5</ele><time>2026-04-12T13:11:55.999Z</time></trkpt><trkpt lat="44.04387834833843" lon="12.005994224488031"><ele>118.25</ele><time>2026-04-12T13:11:56.999Z</time></trkpt><trkpt lat="44.04372894688676" lon="12.005969620363928"><ele>119.0</ele><time>2026-04-12T13:11:57.999Z</time></trkpt><trkpt lat="44.04357185439005" lon="12.00594425002724"><ele>119.0</ele><time>2026-04-12T13:11:58.999Z</time></trkpt><trkpt lat="44.04341477177401" lon="12.005916774841909"><ele>119.0</ele><time>2026-04-12T13:11:59.999Z</time></trkpt><trkpt lat="44.04325269445296" lon="12.005882495719922"><ele>119.0</ele><time>2026-04-12T13:12:00.999Z</time></trkpt><trkpt lat="44.04311580231823" lon="12.005828373575396"><ele>118.5</ele><time>2026-04-12T13:12:01.999Z</time></trkpt><trkpt lat="44.043016326359584" lon="12.005719875488408"><ele>118.0</ele><time>2026-04-12T13:12:02.999Z</time></trkpt><trkpt lat="44.04290543108765" lon="12.005588069467931"><ele>117.5</ele><time>2026-04-12T13:12:03.999Z</time></trkpt><trkpt lat="44.04284004789198" lon="12.005405785969167"><ele>117.0</ele><time>2026-04-12T13:12:04.999Z</time></trkpt><trkpt lat="44.04280390306266" lon="12.005208648949642"><ele>117.0</ele><time>2026-04-12T13:12:05.999Z</time></trkpt><trkpt lat="44.04276759470952" lon="12.005007899106857"><ele>117.0</ele><time>2026-04-12T13:12:06.999Z</time></trkpt><trkpt lat="44.04274963306122" lon="12.004792256675227"><ele>117.0</ele><time>2026-04-12T13:12:07.999Z</time></trkpt><trkpt lat="44.042728484463396" lon="12.00458266207228"><ele>117.0</ele><time>2026-04-12T13:12:08.999Z</time></trkpt><trkpt lat="44.04270434348989" lon="12.004404382264031"><ele>116.99999999999999</ele><time>2026-04-12T13:12:09.999Z</time></trkpt><trkpt lat="44.04267963469422" lon="12.00424589203906"><ele>116.99999999999999</ele><time>2026-04-12T13:12:10.999Z</time></trkpt><trkpt lat="44.04266275681938" lon="12.004145864578913"><ele>117.0</ele><time>2026-04-12T13:12:11.999Z</time></trkpt><trkpt lat="44.04266973273494" lon="12.004057394380846"><ele>117.0</ele><time>2026-04-12T13:12:13.999Z</time></trkpt><trkpt lat="44.042736433677554" lon="12.004127127091348"><ele>117.0</ele><time>2026-04-12T13:12:16.999Z</time></trkpt><trkpt lat="44.04277251985599" lon="12.004212860534935"><ele>116.99999999999999</ele><time>2026-04-12T13:12:17.999Z</time></trkpt><trkpt lat="44.042800619596555" lon="12.004346987558227"><ele>116.99999999999999</ele><time>2026-04-12T13:12:18.999Z</time></trkpt><trkpt lat="44.04284202771405" lon="12.004467569157155"><ele>117.0</ele><time>2026-04-12T13:12:19.999Z</time></trkpt><trkpt lat="44.04288856046337" lon="12.004593507714487"><ele>117.0</ele><time>2026-04-12T13:12:20.999Z</time></trkpt><trkpt lat="44.04293847634302" lon="12.004702427356923"><ele>117.0</ele><time>2026-04-12T13:12:21.999Z</time></trkpt><trkpt lat="44.04298699087088" lon="12.004795811648723"><ele>117.0</ele><time>2026-04-12T13:12:22.999Z</time></trkpt><trkpt lat="44.04302896651681" lon="12.004873793650244"><ele>117.0</ele><time>2026-04-12T13:12:23.999Z</time></trkpt><trkpt lat="44.04307473736265" lon="12.004938551195151"><ele>117.0</ele><time>2026-04-12T13:12:26.999Z</time></trkpt><trkpt lat="44.04315912214448" lon="12.004962075961329"><ele>117.0</ele><time>2026-04-12T13:13:38Z</time></trkpt><trkpt lat="44.04313422761989" lon="12.004867201862517"><ele>117.0</ele><time>2026-04-12T13:13:40Z</time></trkpt><trkpt lat="44.04302373644427" lon="12.004762516772955"><ele>117.0</ele><time>2026-04-12T13:13:42Z</time></trkpt><trkpt lat="44.04295893011228" lon="12.004662337336065"><ele>116.99999999999999</ele><time>2026-04-12T13:13:42.999Z</time></trkpt><trkpt lat="44.04287793337234" lon="12.004521642463754"><ele>116.99999999999999</ele><time>2026-04-12T13:13:43.999Z</time></trkpt><trkpt lat="44.04282245082774" lon="12.00438686870024"><ele>117.0</ele><time>2026-04-12T13:13:44.999Z</time></trkpt><trkpt lat="44.04278010839809" lon="12.004267048533556"><ele>117.0</ele><time>2026-04-12T13:13:45.999Z</time></trkpt><trkpt lat="44.0427450996446" lon="12.004171871274888"><ele>117.0</ele><time>2026-04-12T13:13:46.999Z</time></trkpt><trkpt lat="44.042701606084606" lon="12.00408289166178"><ele>117.0</ele><time>2026-04-12T13:13:47.999Z</time></trkpt><trkpt lat="44.04264083735608" lon="12.00426679292052"><ele>117.0</ele><time>2026-04-12T13:13:53.999Z</time></trkpt><trkpt lat="44.04268382074272" lon="12.004477154233207"><ele>117.0</ele><time>2026-04-12T13:13:54.999Z</time></trkpt><trkpt lat="44.0427112393499" lon="12.00467592098867"><ele>117.0</ele><time>2026-04-12T13:13:55.999Z</time></trkpt><trkpt lat="44.04273331918573" lon="12.004898155148547"><ele>117.0</ele><time>2026-04-12T13:13:56.999Z</time></trkpt><trkpt lat="44.0427593587167" lon="12.005138785230718"><ele>117.0</ele><time>2026-04-12T13:13:57.999Z</time></trkpt><trkpt lat="44.042786944923996" lon="12.005333455284648"><ele>117.0</ele><time>2026-04-12T13:13:58.999Z</time></trkpt><trkpt lat="44.042826146884046" lon="12.005498192174153"><ele>117.0</ele><time>2026-04-12T13:13:59.999Z</time></trkpt><trkpt lat="44.04290069111623" lon="12.005656696923936"><ele>117.0</ele><time>2026-04-12T13:14:00.999Z</time></trkpt><trkpt lat="44.04301489753973" lon="12.005794548981786"><ele>117.0</ele><time>2026-04-12T13:14:01.999Z</time></trkpt><trkpt lat="44.04315418781725" lon="12.005900453629172"><ele>117.66666666666666</ele><time>2026-04-12T13:14:02.999Z</time></trkpt><trkpt lat="44.04333675034335" lon="12.005972714691467"><ele>118.33333333333333</ele><time>2026-04-12T13:14:03.999Z</time></trkpt><trkpt lat="44.043495683617635" lon="12.005994554827712"><ele>119.0</ele><time>2026-04-12T13:14:04.999Z</time></trkpt><trkpt lat="44.043642653833906" lon="12.00600778301606"><ele>119.0</ele><time>2026-04-12T13:14:05.999Z</time></trkpt><trkpt lat="44.04376838113071" lon="12.006024348214654"><ele>119.0</ele><time>2026-04-12T13:14:06.999Z</time></trkpt><trkpt lat="44.0438826309863" lon="12.006045291029988"><ele>119.0</ele><time>2026-04-12T13:14:07.999Z</time></trkpt><trkpt lat="44.04398368446362" lon="12.006065473460747"><ele>119.0</ele><time>2026-04-12T13:14:08.999Z</time></trkpt><trkpt lat="44.044083912595624" lon="12.006082678456373"><ele>119.0</ele><time>2026-04-12T13:14:09.999Z</time></trkpt><trkpt lat="44.044171552249566" lon="12.006100654967845"><ele>118.49999999999999</ele><time>2026-04-12T13:14:10.999Z</time></trkpt><trkpt lat="44.04425509291704" lon="12.006120291883265"><ele>118.0</ele><time>2026-04-12T13:14:11.999Z</time></trkpt><trkpt lat="44.04433942595549" lon="12.006134571522704"><ele>117.5</ele><time>2026-04-12T13:14:12.999Z</time></trkpt><trkpt lat="44.04442529835532" lon="12.006147037789788"><ele>117.0</ele><time>2026-04-12T13:14:13.999Z</time></trkpt><trkpt lat="44.044499736646145" lon="12.006177544296591"><ele>116.49999999999999</ele><time>2026-04-12T13:14:14.999Z</time></trkpt><trkpt lat="44.0445465671192" lon="12.006236960934514"><ele>116.0</ele><time>2026-04-12T13:14:15.999Z</time></trkpt><trkpt lat="44.04459175840413" lon="12.006350445804259"><ele>116.0</ele><time>2026-04-12T13:14:16.999Z</time></trkpt><trkpt lat="44.04463138851004" lon="12.006480215338742"><ele>116.0</ele><time>2026-04-12T13:14:17.999Z</time></trkpt><trkpt lat="44.04465027885984" lon="12.006648769101504"><ele>116.0</ele><time>2026-04-12T13:14:18.999Z</time></trkpt><trkpt lat="44.04470362529686" lon="12.00683255947537"><ele>116.0</ele><time>2026-04-12T13:14:19.999Z</time></trkpt><trkpt lat="44.04475563098879" lon="12.007080594519673"><ele>118.0</ele><time>2026-04-12T13:14:20.999Z</time></trkpt><trkpt lat="44.04480736103771" lon="12.007368670369532"><ele>120.0</ele><time>2026-04-12T13:14:21.999Z</time></trkpt><trkpt lat="44.04486350397244" lon="12.007668716197738"><ele>122.0</ele><time>2026-04-12T13:14:22.999Z</time></trkpt><trkpt lat="44.044928244708224" lon="12.007954696959843"><ele>119.66666666666666</ele><time>2026-04-12T13:14:23.999Z</time></trkpt><trkpt lat="44.04498846207647" lon="12.008230567466377"><ele>117.33333333333334</ele><time>2026-04-12T13:14:24.999Z</time></trkpt><trkpt lat="44.04504965957866" lon="12.008475898889724"><ele>115.0</ele><time>2026-04-12T13:14:25.999Z</time></trkpt><trkpt lat="44.045113002470856" lon="12.008716344999456"><ele>115.0</ele><time>2026-04-12T13:14:26.999Z</time></trkpt><trkpt lat="44.04517780817962" lon="12.008953546047437"><ele>115.0</ele><time>2026-04-12T13:14:27.999Z</time></trkpt><trkpt lat="44.04525570675745" lon="12.009211953611684"><ele>115.0</ele><time>2026-04-12T13:14:28.999Z</time></trkpt><trkpt lat="44.04532291455504" lon="12.009453982188875"><ele>115.0</ele><time>2026-04-12T13:14:29.999Z</time></trkpt><trkpt lat="44.045381645094196" lon="12.009652952815024"><ele>115.0</ele><time>2026-04-12T13:14:30.999Z</time></trkpt><trkpt lat="44.045432745123044" lon="12.009825206620725"><ele>115.0</ele><time>2026-04-12T13:14:31.999Z</time></trkpt><trkpt lat="44.04548753517592" lon="12.009973265738811"><ele>115.0</ele><time>2026-04-12T13:14:32.999Z</time></trkpt><trkpt lat="44.045549293172755" lon="12.010120871075113"><ele>115.33333333333334</ele><time>2026-04-12T13:14:33.999Z</time></trkpt><trkpt lat="44.045598127372934" lon="12.010242635942962"><ele>115.66666666666667</ele><time>2026-04-12T13:14:34.999Z</time></trkpt><trkpt lat="44.04562251623391" lon="12.010327763992091"><ele>116.0</ele><time>2026-04-12T13:14:35.999Z</time></trkpt><trkpt lat="44.04565277738322" lon="12.01044189618727"><ele>116.33333333333334</ele><time>2026-04-12T13:14:37.999Z</time></trkpt><trkpt lat="44.04569092876246" lon="12.010517375226497"><ele>116.66666666666667</ele><time>2026-04-12T13:14:40.999Z</time></trkpt><trkpt lat="44.04572871939594" lon="12.01042122280531"><ele>117.0</ele><time>2026-04-12T13:14:49.999Z</time></trkpt><trkpt lat="44.0456542061603" lon="12.01030816755581"><ele>117.0</ele><time>2026-04-12T13:14:50.999Z</time></trkpt><trkpt lat="44.04562283095886" lon="12.010175988255371"><ele>117.0</ele><time>2026-04-12T13:14:52.999Z</time></trkpt><trkpt lat="44.04566411755106" lon="12.010101901837793"><ele>117.0</ele><time>2026-04-12T13:14:57.999Z</time></trkpt></trkseg><trkseg><trkpt lat="44.045624204573784" lon="12.010255741109166"><ele>117.0</ele><time>2026-04-12T13:34:40.001Z</time></trkpt><trkpt lat="44.04567707464152" lon="12.010396641944894"><ele>117.0</ele><time>2026-04-12T13:34:42Z</time></trkpt><trkpt lat="44.04570703642894" lon="12.01047642501652"><ele>117.0</ele><time>2026-04-12T13:34:43Z</time></trkpt><trkpt lat="44.04577846389499" lon="12.01062329517417"><ele>117.0</ele><time>2026-04-12T13:34:45Z</time></trkpt><trkpt lat="44.04581905627775" lon="12.01069342168899"><ele>117.0</ele><time>2026-04-12T13:34:46Z</time></trkpt><trkpt lat="44.04585559927192" lon="12.010775224261018"><ele>117.0</ele><time>2026-04-12T13:34:47Z</time></trkpt><trkpt lat="44.04590844860522" lon="12.010879703316494"><ele>116.39999999999999</ele><time>2026-04-12T13:34:48Z</time></trkpt><trkpt lat="44.04596106531313" lon="12.010971229672434"><ele>115.79999999999998</ele><time>2026-04-12T13:34:49Z</time></trkpt><trkpt lat="44.04601646596312" lon="12.011066250429765"><ele>115.2</ele><time>2026-04-12T13:34:50Z</time></trkpt><trkpt lat="44.046082038400016" lon="12.011179743962746"><ele>114.6</ele><time>2026-04-12T13:34:51Z</time></trkpt><trkpt lat="44.04614446256806" lon="12.011274946908104"><ele>114.0</ele><time>2026-04-12T13:34:52Z</time></trkpt><trkpt lat="44.0462359738096" lon="12.011403963509803"><ele>114.0</ele><time>2026-04-12T13:34:53Z</time></trkpt><trkpt lat="44.04631831473763" lon="12.011535976394462"><ele>114.0</ele><time>2026-04-12T13:34:54Z</time></trkpt><trkpt lat="44.04640352386456" lon="12.011660196853398"><ele>114.0</ele><time>2026-04-12T13:34:55Z</time></trkpt><trkpt lat="44.04650874080512" lon="12.011780604920709"><ele>114.0</ele><time>2026-04-12T13:34:56Z</time></trkpt><trkpt lat="44.04661834762099" lon="12.011901523832865"><ele>113.75</ele><time>2026-04-12T13:34:57Z</time></trkpt><trkpt lat="44.04673468882862" lon="12.012028514298787"><ele>113.5</ele><time>2026-04-12T13:34:58Z</time></trkpt><trkpt lat="44.04684326630739" lon="12.01214684483718"><ele>113.25</ele><time>2026-04-12T13:34:59Z</time></trkpt><trkpt lat="44.04695112913792" lon="12.012269565395268"><ele>113.0</ele><time>2026-04-12T13:35:00Z</time></trkpt><trkpt lat="44.04706712277854" lon="12.01238660092873"><ele>113.0</ele><time>2026-04-12T13:35:01Z</time></trkpt><trkpt lat="44.047194031899096" lon="12.012488316476837"><ele>113.0</ele><time>2026-04-12T13:35:02Z</time></trkpt><trkpt lat="44.04732965261681" lon="12.01258626862983"><ele>113.0</ele><time>2026-04-12T13:35:03Z</time></trkpt><trkpt lat="44.047464167584835" lon="12.01269603780496"><ele>112.33333333333333</ele><time>2026-04-12T13:35:04Z</time></trkpt><trkpt lat="44.04760198726217" lon="12.01279504529095"><ele>111.66666666666666</ele><time>2026-04-12T13:35:05Z</time></trkpt><trkpt lat="44.04773071856354" lon="12.012903370983771"><ele>111.0</ele><time>2026-04-12T13:35:06Z</time></trkpt><trkpt lat="44.04788247172691" lon="12.01299714055421"><ele>111.0</ele><time>2026-04-12T13:35:07Z</time></trkpt><trkpt lat="44.04803580970834" lon="12.013090998831162"><ele>111.0</ele><time>2026-04-12T13:35:08Z</time></trkpt><trkpt lat="44.04819610202992" lon="12.013185218311524"><ele>111.0</ele><time>2026-04-12T13:35:09Z</time></trkpt><trkpt lat="44.048359492632635" lon="12.013284871536206"><ele>110.66666666666666</ele><time>2026-04-12T13:35:10Z</time></trkpt><trkpt lat="44.04852669567457" lon="12.013388187467257"><ele>110.33333333333333</ele><time>2026-04-12T13:35:11Z</time></trkpt><trkpt lat="44.048694098354645" lon="12.013486649896977"><ele>110.0</ele><time>2026-04-12T13:35:12Z</time></trkpt><trkpt lat="44.04885986719614" lon="12.013584852608544"><ele>110.0</ele><time>2026-04-12T13:35:13Z</time></trkpt><trkpt lat="44.049024226512785" lon="12.013687329085839"><ele>110.0</ele><time>2026-04-12T13:35:14Z</time></trkpt><trkpt lat="44.04918900375482" lon="12.013793061435013"><ele>110.0</ele><time>2026-04-12T13:35:15Z</time></trkpt><trkpt lat="44.04935400119863" lon="12.013897862574575"><ele>109.66666666666666</ele><time>2026-04-12T13:35:16Z</time></trkpt><trkpt lat="44.04952358689822" lon="12.014001538098567"><ele>109.33333333333334</ele><time>2026-04-12T13:35:17Z</time></trkpt><trkpt lat="44.04969532160071" lon="12.014105432711638"><ele>109.0</ele><time>2026-04-12T13:35:18Z</time></trkpt><trkpt lat="44.04987228729729" lon="12.014221142244846"><ele>109.0</ele><time>2026-04-12T13:35:19Z</time></trkpt><trkpt lat="44.050052523289644" lon="12.014324888110545"><ele>109.0</ele><time>2026-04-12T13:35:20Z</time></trkpt><trkpt lat="44.05022796925637" lon="12.014438810902758"><ele>109.0</ele><time>2026-04-12T13:35:21Z</time></trkpt><trkpt lat="44.050402737694895" lon="12.01455379839185"><ele>109.0</ele><time>2026-04-12T13:35:22Z</time></trkpt><trkpt lat="44.0505810388383" lon="12.014669671000966"><ele>109.0</ele><time>2026-04-12T13:35:23Z</time></trkpt><trkpt lat="44.0507624526447" lon="12.01477889144241"><ele>109.0</ele><time>2026-04-12T13:35:24Z</time></trkpt><trkpt lat="44.05093312860882" lon="12.014903823928085"><ele>109.66666666666667</ele><time>2026-04-12T13:35:25Z</time></trkpt><trkpt lat="44.051112480567966" lon="12.01502044467702"><ele>110.33333333333334</ele><time>2026-04-12T13:35:26Z</time></trkpt><trkpt lat="44.051288031653456" lon="12.015142057310596"><ele>111.0</ele><time>2026-04-12T13:35:27Z</time></trkpt><trkpt lat="44.05147305203067" lon="12.01524320979779"><ele>110.0</ele><time>2026-04-12T13:35:27.999Z</time></trkpt><trkpt lat="44.05164099985216" lon="12.015377403543114"><ele>109.0</ele><time>2026-04-12T13:35:28.999Z</time></trkpt><trkpt lat="44.051803307173635" lon="12.015514392048804"><ele>108.0</ele><time>2026-04-12T13:35:29.999Z</time></trkpt><trkpt lat="44.05195153004911" lon="12.015665837836165"><ele>108.0</ele><time>2026-04-12T13:35:30.999Z</time></trkpt><trkpt lat="44.052094982806366" lon="12.015793605349907"><ele>108.0</ele><time>2026-04-12T13:35:31.999Z</time></trkpt><trkpt lat="44.05224252366368" lon="12.015939346263584"><ele>108.0</ele><time>2026-04-12T13:35:32.999Z</time></trkpt><trkpt lat="44.05237179668269" lon="12.016096046875889"><ele>108.0</ele><time>2026-04-12T13:35:33.999Z</time></trkpt><trkpt lat="44.052515338403296" lon="12.016256281231989"><ele>108.0</ele><time>2026-04-12T13:35:34.999Z</time></trkpt><trkpt lat="44.05264828453823" lon="12.016422687386173"><ele>108.0</ele><time>2026-04-12T13:35:35.999Z</time></trkpt><trkpt lat="44.052782509075094" lon="12.016603591458619"><ele>109.33333333333334</ele><time>2026-04-12T13:35:36.999Z</time></trkpt><trkpt lat="44.052906110084876" lon="12.016792062397602"><ele>110.66666666666667</ele><time>2026-04-12T13:35:37.999Z</time></trkpt><trkpt lat="44.053032524552385" lon="12.016987420356063"><ele>112.0</ele><time>2026-04-12T13:35:38.999Z</time></trkpt><trkpt lat="44.05316143054846" lon="12.017184146831367"><ele>111.66666666666667</ele><time>2026-04-12T13:35:39.999Z</time></trkpt><trkpt lat="44.05329036085889" lon="12.017376805896737"><ele>111.33333333333334</ele><time>2026-04-12T13:35:40.999Z</time></trkpt><trkpt lat="44.05342406828698" lon="12.017568647677368"><ele>111.0</ele><time>2026-04-12T13:35:41.999Z</time></trkpt><trkpt lat="44.05356475500815" lon="12.017772771272515"><ele>111.0</ele><time>2026-04-12T13:35:42.999Z</time></trkpt><trkpt lat="44.053712411878664" lon="12.017981958409822"><ele>111.0</ele><time>2026-04-12T13:35:43.999Z</time></trkpt><trkpt lat="44.053839947173344" lon="12.01817277066409"><ele>111.0</ele><time>2026-04-12T13:35:44.999Z</time></trkpt><trkpt lat="44.0539854114114" lon="12.018378778199779"><ele>110.33333333333334</ele><time>2026-04-12T13:35:45.999Z</time></trkpt><trkpt lat="44.05413302209261" lon="12.018572307863073"><ele>109.66666666666667</ele><time>2026-04-12T13:35:46.999Z</time></trkpt><trkpt lat="44.05429442816761" lon="12.018756511975015"><ele>109.0</ele><time>2026-04-12T13:35:47.999Z</time></trkpt><trkpt lat="44.054475752531516" lon="12.01893720126003"><ele>109.0</ele><time>2026-04-12T13:35:48.999Z</time></trkpt><trkpt lat="44.05466414905299" lon="12.019116869294647"><ele>109.0</ele><time>2026-04-12T13:35:49.999Z</time></trkpt><trkpt lat="44.054849446006806" lon="12.019305982069612"><ele>108.0</ele><time>2026-04-12T13:35:50.999Z</time></trkpt><trkpt lat="44.055023803148316" lon="12.01949590699556"><ele>107.0</ele><time>2026-04-12T13:35:51.999Z</time></trkpt><trkpt lat="44.05519332940645" lon="12.019697366175699"><ele>106.0</ele><time>2026-04-12T13:35:52.999Z</time></trkpt><trkpt lat="44.05534851392371" lon="12.01991076845113"><ele>107.66666666666667</ele><time>2026-04-12T13:35:53.999Z</time></trkpt><trkpt lat="44.05549328165635" lon="12.020136448709996"><ele>109.33333333333334</ele><time>2026-04-12T13:35:54.999Z</time></trkpt><trkpt lat="44.05563503642749" lon="12.02037204035943"><ele>111.0</ele><time>2026-04-12T13:35:55.999Z</time></trkpt><trkpt lat="44.05576918863658" lon="12.020605377712354"><ele>110.33333333333334</ele><time>2026-04-12T13:35:56.999Z</time></trkpt><trkpt lat="44.05588985661448" lon="12.020835471493251"><ele>109.66666666666667</ele><time>2026-04-12T13:35:57.999Z</time></trkpt><trkpt lat="44.0560177429319" lon="12.021081341127509"><ele>109.0</ele><time>2026-04-12T13:35:58.999Z</time></trkpt><trkpt lat="44.05614364225128" lon="12.021322602288802"><ele>109.0</ele><time>2026-04-12T13:35:59.999Z</time></trkpt><trkpt lat="44.05627414765277" lon="12.021569210746351"><ele>109.0</ele><time>2026-04-12T13:36:00.999Z</time></trkpt><trkpt lat="44.056404819041695" lon="12.02181386071461"><ele>109.0</ele><time>2026-04-12T13:36:01.999Z</time></trkpt><trkpt lat="44.05653521033767" lon="12.022048806528439"><ele>109.0</ele><time>2026-04-12T13:36:02.999Z</time></trkpt><trkpt lat="44.0566595823544" lon="12.022265733589274"><ele>109.0</ele><time>2026-04-12T13:36:03.999Z</time></trkpt><trkpt lat="44.05679254317468" lon="12.022479131177638"><ele>109.0</ele><time>2026-04-12T13:36:04.999Z</time></trkpt><trkpt lat="44.05693542953142" lon="12.0226765141505"><ele>109.0</ele><time>2026-04-12T13:36:05.999Z</time></trkpt><trkpt lat="44.05709524850163" lon="12.022858616357485"><ele>109.0</ele><time>2026-04-12T13:36:06.999Z</time></trkpt><trkpt lat="44.05726510706929" lon="12.023014088496877"><ele>109.0</ele><time>2026-04-12T13:36:07.999Z</time></trkpt><trkpt lat="44.057452441993426" lon="12.02313541734491"><ele>108.66666666666667</ele><time>2026-04-12T13:36:08.999Z</time></trkpt><trkpt lat="44.057656385544725" lon="12.023224913651571"><ele>108.33333333333334</ele><time>2026-04-12T13:36:09.999Z</time></trkpt><trkpt lat="44.05786681993743" lon="12.023291524602456"><ele>108.0</ele><time>2026-04-12T13:36:10.999Z</time></trkpt><trkpt lat="44.05808678814004" lon="12.02336665285856"><ele>107.66666666666666</ele><time>2026-04-12T13:36:11.999Z</time></trkpt><trkpt lat="44.05830092464034" lon="12.023444022626462"><ele>107.33333333333333</ele><time>2026-04-12T13:36:12.999Z</time></trkpt><trkpt lat="44.05851331081605" lon="12.023531404842016"><ele>107.0</ele><time>2026-04-12T13:36:13.999Z</time></trkpt><trkpt lat="44.05872454252559" lon="12.023633755994346"><ele>107.0</ele><time>2026-04-12T13:36:14.999Z</time></trkpt><trkpt lat="44.058931594908" lon="12.023746385295366"><ele>107.0</ele><time>2026-04-12T13:36:15.999Z</time></trkpt><trkpt lat="44.05911306105675" lon="12.023848815660738"><ele>107.0</ele><time>2026-04-12T13:36:16.999Z</time></trkpt><trkpt lat="44.05927959132812" lon="12.023946063156055"><ele>106.33333333333333</ele><time>2026-04-12T13:36:17.999Z</time></trkpt><trkpt lat="44.05943428098901" lon="12.024038554933046"><ele>105.66666666666666</ele><time>2026-04-12T13:36:18.999Z</time></trkpt><trkpt lat="44.0595842953172" lon="12.024127866665715"><ele>105.0</ele><time>2026-04-12T13:36:19.999Z</time></trkpt><trkpt lat="44.059715342481056" lon="12.0242021199767"><ele>105.25</ele><time>2026-04-12T13:36:20.999Z</time></trkpt><trkpt lat="44.05982190035794" lon="12.024265333594848"><ele>105.5</ele><time>2026-04-12T13:36:21.999Z</time></trkpt><trkpt lat="44.05990532646716" lon="12.024341225642658"><ele>105.75</ele><time>2026-04-12T13:36:22.999Z</time></trkpt><trkpt lat="44.059987965652056" lon="12.024394904553692"><ele>106.0</ele><time>2026-04-12T13:36:23.999Z</time></trkpt><trkpt lat="44.06014205633403" lon="12.02422564821226"><ele>104.5</ele><time>2026-04-12T13:36:24.999Z</time></trkpt><trkpt lat="44.06025075125058" lon="12.024115731174636"><ele>103.0</ele><time>2026-04-12T13:36:25.999Z</time></trkpt><trkpt lat="44.06036298650435" lon="12.024042555262803"><ele>101.5</ele><time>2026-04-12T13:36:26.999Z</time></trkpt><trkpt lat="44.060466960852814" lon="12.023962543600057"><ele>100.0</ele><time>2026-04-12T13:36:27.999Z</time></trkpt><trkpt lat="44.060551256945104" lon="12.023848697424917"><ele>100.0</ele><time>2026-04-12T13:36:28.999Z</time></trkpt><trkpt lat="44.060614869462995" lon="12.023678951831103"><ele>100.0</ele><time>2026-04-12T13:36:29.999Z</time></trkpt><trkpt lat="44.06067161021152" lon="12.023483086688614"><ele>100.0</ele><time>2026-04-12T13:36:30.999Z</time></trkpt><trkpt lat="44.06072044110443" lon="12.02329878368417"><ele>100.0</ele><time>2026-04-12T13:36:31.999Z</time></trkpt><trkpt lat="44.06078707215927" lon="12.023097722837825"><ele>100.0</ele><time>2026-04-12T13:36:32.999Z</time></trkpt><trkpt lat="44.06083897510596" lon="12.022924689727242"><ele>100.0</ele><time>2026-04-12T13:36:33.998Z</time></trkpt><trkpt lat="44.06088791218375" lon="12.022765696671401"><ele>100.0</ele><time>2026-04-12T13:36:34.998Z</time></trkpt><trkpt lat="44.06093437188278" lon="12.022602205606457"><ele>100.0</ele><time>2026-04-12T13:36:35.998Z</time></trkpt><trkpt lat="44.06096783546302" lon="12.022431755051246"><ele>100.0</ele><time>2026-04-12T13:36:36.998Z</time></trkpt><trkpt lat="44.060976080816275" lon="12.022236983993512"><ele>100.0</ele><time>2026-04-12T13:36:37.998Z</time></trkpt><trkpt lat="44.06097237455934" lon="12.022023362431305"><ele>100.0</ele><time>2026-04-12T13:36:38.998Z</time></trkpt><trkpt lat="44.06096178543677" lon="12.021829154885658"><ele>100.0</ele><time>2026-04-12T13:36:39.998Z</time></trkpt><trkpt lat="44.06093818715033" lon="12.021665520227083"><ele>100.4</ele><time>2026-04-12T13:36:40.998Z</time></trkpt><trkpt lat="44.0609214066623" lon="12.021529932960288"><ele>100.8</ele><time>2026-04-12T13:36:41.998Z</time></trkpt><trkpt lat="44.060922941483994" lon="12.021412128025577"><ele>101.19999999999999</ele><time>2026-04-12T13:36:42.998Z</time></trkpt><trkpt lat="44.06091736192758" lon="12.02132395346941"><ele>101.6</ele><time>2026-04-12T13:36:43.998Z</time></trkpt><trkpt lat="44.06071987378316" lon="12.021274257253554"><ele>102.0</ele><time>2026-04-12T13:36:46Z</time></trkpt><trkpt lat="44.0606516039264" lon="12.02128247401197"><ele>101.19999999999999</ele><time>2026-04-12T13:36:47Z</time></trkpt><trkpt lat="44.06057968716513" lon="12.021298219424903"><ele>100.4</ele><time>2026-04-12T13:36:48Z</time></trkpt><trkpt lat="44.06045646391212" lon="12.021345592387334"><ele>99.6</ele><time>2026-04-12T13:36:50Z</time></trkpt><trkpt lat="44.060403454799" lon="12.021394542089052"><ele>98.80000000000001</ele><time>2026-04-12T13:36:51Z</time></trkpt><trkpt lat="44.060373933100465" lon="12.021316494501601"><ele>98.0</ele><time>2026-04-12T13:36:53Z</time></trkpt><trkpt lat="44.06048611434564" lon="12.021208057188316"><ele>98.0</ele><time>2026-04-12T13:36:56Z</time></trkpt><trkpt lat="44.06055701510742" lon="12.021118550134222"><ele>98.0</ele><time>2026-04-12T13:36:57Z</time></trkpt><trkpt lat="44.06064665823374" lon="12.021002133699529"><ele>98.0</ele><time>2026-04-12T13:36:58Z</time></trkpt><trkpt lat="44.06076085345954" lon="12.020864775467519"><ele>98.0</ele><time>2026-04-12T13:36:59Z</time></trkpt><trkpt lat="44.06086258156243" lon="12.020728500000804"><ele>99.25</ele><time>2026-04-12T13:37:00Z</time></trkpt><trkpt lat="44.060948472926704" lon="12.020579341847121"><ele>100.5</ele><time>2026-04-12T13:37:01Z</time></trkpt><trkpt lat="44.06104454801137" lon="12.020474858580478"><ele>101.75</ele><time>2026-04-12T13:37:02Z</time></trkpt><trkpt lat="44.06114666085881" lon="12.02040696050712"><ele>103.0</ele><time>2026-04-12T13:37:03Z</time></trkpt><trkpt lat="44.06121877827046" lon="12.020343717479978"><ele>103.0</ele><time>2026-04-12T13:37:04Z</time></trkpt><trkpt lat="44.061278076712966" lon="12.020263402588464"><ele>103.0</ele><time>2026-04-12T13:37:05Z</time></trkpt><trkpt lat="44.061331077195845" lon="12.020122691856102"><ele>103.0</ele><time>2026-04-12T13:37:06Z</time></trkpt><trkpt lat="44.06131584522905" lon="12.019949296596545"><ele>103.0</ele><time>2026-04-12T13:37:07Z</time></trkpt><trkpt lat="44.06134252191311" lon="12.019741860353239"><ele>105.25</ele><time>2026-04-12T13:37:08Z</time></trkpt><trkpt lat="44.06134238580972" lon="12.019564618828854"><ele>107.5</ele><time>2026-04-12T13:37:09Z</time></trkpt><trkpt lat="44.06136846732587" lon="12.019390457702734"><ele>109.75</ele><time>2026-04-12T13:37:10Z</time></trkpt><trkpt lat="44.061360756870236" lon="12.019209696417287"><ele>112.0</ele><time>2026-04-12T13:37:11Z</time></trkpt><trkpt lat="44.061397744560416" lon="12.019072515467315"><ele>113.39999999999999</ele><time>2026-04-12T13:37:12Z</time></trkpt><trkpt lat="44.061459817430325" lon="12.018932441980155"><ele>114.79999999999998</ele><time>2026-04-12T13:37:13Z</time></trkpt><trkpt lat="44.061508000898094" lon="12.018813366074617"><ele>116.2</ele><time>2026-04-12T13:37:14Z</time></trkpt><trkpt lat="44.06155449778712" lon="12.018682091518484"><ele>117.6</ele><time>2026-04-12T13:37:15Z</time></trkpt><trkpt lat="44.06159281091981" lon="12.018545841832887"><ele>119.0</ele><time>2026-04-12T13:37:16Z</time></trkpt><trkpt lat="44.06161369078053" lon="12.018395680265135"><ele>119.6</ele><time>2026-04-12T13:37:17Z</time></trkpt><trkpt lat="44.06162504093511" lon="12.018248926338071"><ele>120.2</ele><time>2026-04-12T13:37:18Z</time></trkpt><trkpt lat="44.06162213979192" lon="12.018126794037158"><ele>120.79999999999998</ele><time>2026-04-12T13:37:19Z</time></trkpt><trkpt lat="44.06156326892718" lon="12.018007536795094"><ele>121.39999999999999</ele><time>2026-04-12T13:37:20Z</time></trkpt><trkpt lat="44.06151989824907" lon="12.017837775746697"><ele>122.0</ele><time>2026-04-12T13:37:21Z</time></trkpt><trkpt lat="44.06144099885884" lon="12.017667286992815"><ele>126.75</ele><time>2026-04-12T13:37:22Z</time></trkpt><trkpt lat="44.06138691075923" lon="12.017473051102117"><ele>131.5</ele><time>2026-04-12T13:37:23Z</time></trkpt><trkpt lat="44.06133725145963" lon="12.017270106016825"><ele>136.25</ele><time>2026-04-12T13:37:24Z</time></trkpt><trkpt lat="44.06132827124564" lon="12.017095563136758"><ele>141.0</ele><time>2026-04-12T13:37:25Z</time></trkpt><trkpt lat="44.06133913098924" lon="12.016972635353351"><ele>141.0</ele><time>2026-04-12T13:37:25.999Z</time></trkpt><trkpt lat="44.06136868889077" lon="12.016880106990184"><ele>141.0</ele><time>2026-04-12T13:37:26.999Z</time></trkpt><trkpt lat="44.06140354059129" lon="12.016746258022998"><ele>141.0</ele><time>2026-04-12T13:37:27.999Z</time></trkpt><trkpt lat="44.06142775338998" lon="12.016616286124828"><ele>141.0</ele><time>2026-04-12T13:37:28.999Z</time></trkpt><trkpt lat="44.061454048871006" lon="12.01650409824003"><ele>141.0</ele><time>2026-04-12T13:37:29.999Z</time></trkpt><trkpt lat="44.06154937100522" lon="12.016321745721228"><ele>142.25</ele><time>2026-04-12T13:37:31.999Z</time></trkpt><trkpt lat="44.06161697643347" lon="12.016179301478733"><ele>143.5</ele><time>2026-04-12T13:37:32.999Z</time></trkpt><trkpt lat="44.06165964084479" lon="12.016015613781088"><ele>144.75</ele><time>2026-04-12T13:37:33.999Z</time></trkpt><trkpt lat="44.06168572520551" lon="12.015855718275786"><ele>146.0</ele><time>2026-04-12T13:37:34.999Z</time></trkpt><trkpt lat="44.06169848547758" lon="12.015689307141692"><ele>147.2</ele><time>2026-04-12T13:37:35.999Z</time></trkpt><trkpt lat="44.06172219279485" lon="12.015512305173482"><ele>148.39999999999998</ele><time>2026-04-12T13:37:36.999Z</time></trkpt><trkpt lat="44.06173803482357" lon="12.015350612030588"><ele>149.6</ele><time>2026-04-12T13:37:37.999Z</time></trkpt><trkpt lat="44.061773292530376" lon="12.01521514148127"><ele>150.79999999999998</ele><time>2026-04-12T13:37:38.999Z</time></trkpt><trkpt lat="44.061787277015874" lon="12.015097227601315"><ele>152.0</ele><time>2026-04-12T13:37:39.999Z</time></trkpt><trkpt lat="44.061781097103584" lon="12.01499522787455"><ele>153.4</ele><time>2026-04-12T13:37:41.999Z</time></trkpt><trkpt lat="44.06173002490627" lon="12.014900240201257"><ele>154.79999999999998</ele><time>2026-04-12T13:37:52.999Z</time></trkpt><trkpt lat="44.061628156584916" lon="12.014892952937084"><ele>156.2</ele><time>2026-04-12T13:37:53.999Z</time></trkpt><trkpt lat="44.06151877367056" lon="12.014884659507901"><ele>157.6</ele><time>2026-04-12T13:37:54.999Z</time></trkpt><trkpt lat="44.06140065520668" lon="12.014861481552114"><ele>159.0</ele><time>2026-04-12T13:37:55.999Z</time></trkpt><trkpt lat="44.061255158954516" lon="12.014842499673572"><ele>162.33333333333334</ele><time>2026-04-12T13:37:56.999Z</time></trkpt><trkpt lat="44.0611180290704" lon="12.014774027389187"><ele>165.66666666666669</ele><time>2026-04-12T13:37:57.999Z</time></trkpt><trkpt lat="44.06098640844357" lon="12.014681871285754"><ele>169.0</ele><time>2026-04-12T13:37:58.999Z</time></trkpt><trkpt lat="44.060835273908104" lon="12.014533065929042"><ele>172.0</ele><time>2026-04-12T13:38:00.999Z</time></trkpt><trkpt lat="44.06073752307278" lon="12.014386407285981"><ele>175.0</ele><time>2026-04-12T13:38:01.999Z</time></trkpt><trkpt lat="44.06062831071661" lon="12.014218975510273"><ele>178.0</ele><time>2026-04-12T13:38:02.999Z</time></trkpt><trkpt lat="44.060520242509206" lon="12.014054024729798"><ele>181.0</ele><time>2026-04-12T13:38:03.999Z</time></trkpt><trkpt lat="44.06040303575871" lon="12.013879401560837"><ele>184.0</ele><time>2026-04-12T13:38:04.999Z</time></trkpt><trkpt lat="44.06030406576861" lon="12.013705078802364"><ele>187.0</ele><time>2026-04-12T13:38:05.999Z</time></trkpt><trkpt lat="44.06021416614271" lon="12.013521202457863"><ele>187.0</ele><time>2026-04-12T13:38:06.999Z</time></trkpt><trkpt lat="44.06012062736262" lon="12.013332710372545"><ele>187.0</ele><time>2026-04-12T13:38:07.999Z</time></trkpt><trkpt lat="44.060018626692354" lon="12.013180005325134"><ele>187.0</ele><time>2026-04-12T13:38:08.999Z</time></trkpt><trkpt lat="44.059940776497456" lon="12.013048554388826"><ele>187.0</ele><time>2026-04-12T13:38:09.999Z</time></trkpt><trkpt lat="44.05986645349549" lon="12.0130079008607"><ele>190.75</ele><time>2026-04-12T13:38:10.999Z</time></trkpt><trkpt lat="44.0597710608631" lon="12.01317774887094"><ele>194.5</ele><time>2026-04-12T13:38:14.999Z</time></trkpt><trkpt lat="44.05966699727143" lon="12.013252277772168"><ele>198.25</ele><time>2026-04-12T13:38:16.999Z</time></trkpt><trkpt lat="44.059547513505684" lon="12.013260531279563"><ele>202.0</ele><time>2026-04-12T13:38:18.999Z</time></trkpt><trkpt lat="44.05945511252277" lon="12.01328556049233"><ele>201.99999999999997</ele><time>2026-04-12T13:38:20.999Z</time></trkpt><trkpt lat="44.05938853208983" lon="12.013283458014763"><ele>202.0</ele><time>2026-04-12T13:38:22.999Z</time></trkpt><trkpt lat="44.05948341082761" lon="12.013269775490484"><ele>202.0</ele><time>2026-04-12T13:38:51Z</time></trkpt><trkpt lat="44.05954887020882" lon="12.01326033561456"><ele>202.0</ele><time>2026-04-12T13:38:54Z</time></trkpt><trkpt lat="44.059621704480044" lon="12.013249832497722"><ele>201.99999999999997</ele><time>2026-04-12T13:38:56Z</time></trkpt><trkpt lat="44.059704843899745" lon="12.013225965382407"><ele>202.0</ele><time>2026-04-12T13:38:59Z</time></trkpt><trkpt lat="44.05980159675693" lon="12.013154749923617"><ele>202.0</ele><time>2026-04-12T13:39:01Z</time></trkpt><trkpt lat="44.059836662227966" lon="12.0130684547277"><ele>202.0</ele><time>2026-04-12T13:39:04Z</time></trkpt><trkpt lat="44.05971472730554" lon="12.0129963699003"><ele>202.0</ele><time>2026-04-12T13:39:11Z</time></trkpt><trkpt lat="44.05967058950246" lon="12.013240747808869"><ele>202.0</ele><time>2026-04-12T13:39:13Z</time></trkpt><trkpt lat="44.059547028006804" lon="12.01326060128766"><ele>202.0</ele><time>2026-04-12T13:39:15Z</time></trkpt><trkpt lat="44.059471022486775" lon="12.013271562019627"><ele>202.0</ele><time>2026-04-12T13:39:16Z</time></trkpt><trkpt lat="44.05936845020209" lon="12.013257737245306"><ele>202.0</ele><time>2026-04-12T13:39:19Z</time></trkpt><trkpt lat="44.059301942991105" lon="12.012666636568946"><ele>201.99999999999997</ele><time>2026-04-12T13:39:20Z</time></trkpt><trkpt lat="44.05924573104015" lon="12.012548078076195"><ele>202.0</ele><time>2026-04-12T13:39:22Z</time></trkpt><trkpt lat="44.05917689311097" lon="12.012439523098319"><ele>202.0</ele><time>2026-04-12T13:39:24Z</time></trkpt><trkpt lat="44.05914931775125" lon="12.012349993407003"><ele>202.0</ele><time>2026-04-12T13:39:26Z</time></trkpt><trkpt lat="44.0591013422836" lon="12.012238733830937"><ele>201.99999999999997</ele><time>2026-04-12T13:39:28Z</time></trkpt><trkpt lat="44.05906184250054" lon="12.012156871831817"><ele>202.0</ele><time>2026-04-12T13:39:30Z</time></trkpt><trkpt lat="44.05900765661209" lon="12.011995073941774"><ele>204.8</ele><time>2026-04-12T13:39:32Z</time></trkpt><trkpt lat="44.05895317001253" lon="12.011850714888219"><ele>207.6</ele><time>2026-04-12T13:39:35Z</time></trkpt><trkpt lat="44.05891459291087" lon="12.011767617349966"><ele>210.40000000000003</ele><time>2026-04-12T13:39:37.999Z</time></trkpt><trkpt lat="44.05888796386324" lon="12.011681367877378"><ele>213.20000000000002</ele><time>2026-04-12T13:39:44.999Z</time></trkpt><trkpt lat="44.05883277181677" lon="12.011531330566141"><ele>216.0</ele><time>2026-04-12T13:40:55.998Z</time></trkpt><trkpt lat="44.05878503574543" lon="12.011377173557463"><ele>219.33333333333334</ele><time>2026-04-12T13:41:05Z</time></trkpt><trkpt lat="44.05876371285328" lon="12.01125742451372"><ele>222.66666666666669</ele><time>2026-04-12T13:41:07Z</time></trkpt><trkpt lat="44.05883142972921" lon="12.011200823658607"><ele>226.0</ele><time>2026-04-12T13:46:59.999Z</time></trkpt><trkpt lat="44.058881372910356" lon="12.01109307220558"><ele>229.33333333333334</ele><time>2026-04-12T13:47:01.999Z</time></trkpt><trkpt lat="44.05891404317924" lon="12.01098610489075"><ele>232.66666666666669</ele><time>2026-04-12T13:47:03.999Z</time></trkpt><trkpt lat="44.05896906240118" lon="12.01088333026281"><ele>236.0</ele><time>2026-04-12T13:47:05.999Z</time></trkpt><trkpt lat="44.059007853389815" lon="12.010773668220041"><ele>236.83333333333334</ele><time>2026-04-12T13:47:07.999Z</time></trkpt><trkpt lat="44.05905581583736" lon="12.010658465138446"><ele>237.66666666666669</ele><time>2026-04-12T13:47:09.999Z</time></trkpt><trkpt lat="44.05908711221578" lon="12.010561903238841"><ele>238.5</ele><time>2026-04-12T13:47:11.999Z</time></trkpt><trkpt lat="44.059109299276884" lon="12.010445844837761"><ele>239.33333333333331</ele><time>2026-04-12T13:47:39Z</time></trkpt><trkpt lat="44.05912746672961" lon="12.01033484845438"><ele>240.16666666666666</ele><time>2026-04-12T13:47:41Z</time></trkpt><trkpt lat="44.059162835241416" lon="12.010227291009986"><ele>241.0</ele><time>2026-04-12T13:47:43Z</time></trkpt><trkpt lat="44.05919953287327" lon="12.010145118070003"><ele>240.99999999999997</ele><time>2026-04-12T13:47:45Z</time></trkpt><trkpt lat="44.05922471130504" lon="12.010059916235496"><ele>241.0</ele><time>2026-04-12T13:47:48Z</time></trkpt><trkpt lat="44.0591419663711" lon="12.00996119063459"><ele>241.0</ele><time>2026-04-12T13:47:56Z</time></trkpt><trkpt lat="44.05905746255938" lon="12.009838704369082"><ele>241.0</ele><time>2026-04-12T13:47:58Z</time></trkpt><trkpt lat="44.059010907703076" lon="12.009767173676375"><ele>240.99999999999997</ele><time>2026-04-12T13:47:59Z</time></trkpt><trkpt lat="44.0589621198811" lon="12.009690171018818"><ele>241.0</ele><time>2026-04-12T13:48:00Z</time></trkpt><trkpt lat="44.05890916395046" lon="12.009618357267657"><ele>244.49999999999997</ele><time>2026-04-12T13:48:01Z</time></trkpt><trkpt lat="44.05885959657875" lon="12.00954982741259"><ele>248.0</ele><time>2026-04-12T13:48:02Z</time></trkpt><trkpt lat="44.058809931875246" lon="12.00946721346838"><ele>251.5</ele><time>2026-04-12T13:48:03Z</time></trkpt><trkpt lat="44.058757242380956" lon="12.009387012086927"><ele>255.0</ele><time>2026-04-12T13:48:04Z</time></trkpt><trkpt lat="44.05869331159712" lon="12.009300701639111"><ele>258.5</ele><time>2026-04-12T13:48:05Z</time></trkpt><trkpt lat="44.05864332884134" lon="12.00922968276277"><ele>262.0</ele><time>2026-04-12T13:48:05.999Z</time></trkpt><trkpt lat="44.05857366702667" lon="12.009122249672854"><ele>263.16666666666663</ele><time>2026-04-12T13:48:06.999Z</time></trkpt><trkpt lat="44.05851255012223" lon="12.009043246557523"><ele>264.3333333333333</ele><time>2026-04-12T13:48:07.999Z</time></trkpt><trkpt lat="44.05846087872752" lon="12.008973709339626"><ele>265.5</ele><time>2026-04-12T13:48:08.999Z</time></trkpt><trkpt lat="44.05840834268741" lon="12.008904107108439"><ele>266.6666666666667</ele><time>2026-04-12T13:48:11.999Z</time></trkpt><trkpt lat="44.05831447347633" lon="12.008974702446654"><ele>267.83333333333337</ele><time>2026-04-12T13:48:14.999Z</time></trkpt><trkpt lat="44.05825602711038" lon="12.00903598997174"><ele>269.0</ele><time>2026-04-12T13:48:15.999Z</time></trkpt><trkpt lat="44.05815272092299" lon="12.009086339185522"><ele>270.0</ele><time>2026-04-12T13:48:17.999Z</time></trkpt><trkpt lat="44.058031859182144" lon="12.009144814443705"><ele>271.0</ele><time>2026-04-12T13:48:19.999Z</time></trkpt><trkpt lat="44.05793768756538" lon="12.00914548655478"><ele>272.0</ele><time>2026-04-12T13:48:21.999Z</time></trkpt><trkpt lat="44.05789890389288" lon="12.009062860386981"><ele>273.0</ele><time>2026-04-12T13:48:24.999Z</time></trkpt><trkpt lat="44.05787211584047" lon="12.008976409088412"><ele>274.0</ele><time>2026-04-12T13:48:26.999Z</time></trkpt><trkpt lat="44.05782519811885" lon="12.008826111679841"><ele>274.0</ele><time>2026-04-12T13:48:28.999Z</time></trkpt><trkpt lat="44.05781248387926" lon="12.008734546538275"><ele>274.0</ele><time>2026-04-12T13:48:29.999Z</time></trkpt><trkpt lat="44.05776527158406" lon="12.008557132159096"><ele>274.0</ele><time>2026-04-12T13:48:31.999Z</time></trkpt><trkpt lat="44.05774647427849" lon="12.008378304069605"><ele>274.0</ele><time>2026-04-12T13:48:32.999Z</time></trkpt><trkpt lat="44.0577148122952" lon="12.008189609925994"><ele>275.4</ele><time>2026-04-12T13:48:33.999Z</time></trkpt><trkpt lat="44.05768247986581" lon="12.008066882339222"><ele>276.79999999999995</ele><time>2026-04-12T13:48:34.999Z</time></trkpt><trkpt lat="44.05766226035157" lon="12.007950470928805"><ele>278.20000000000005</ele><time>2026-04-12T13:48:35.999Z</time></trkpt><trkpt lat="44.057654925251555" lon="12.007825244934903"><ele>279.6</ele><time>2026-04-12T13:48:36.999Z</time></trkpt><trkpt lat="44.057636104850836" lon="12.007666088092394"><ele>281.0</ele><time>2026-04-12T13:48:38.999Z</time></trkpt><trkpt lat="44.057622995006234" lon="12.007571484022003"><ele>282.5</ele><time>2026-04-12T13:48:39.999Z</time></trkpt><trkpt lat="44.057593309014514" lon="12.0074720646044"><ele>284.0</ele><time>2026-04-12T13:48:40.999Z</time></trkpt><trkpt lat="44.05758003527371" lon="12.00735620815301"><ele>285.5</ele><time>2026-04-12T13:48:41.999Z</time></trkpt><trkpt lat="44.05756135764677" lon="12.007241666648849"><ele>287.0</ele><time>2026-04-12T13:48:42.999Z</time></trkpt><trkpt lat="44.05754848010437" lon="12.007148708082264"><ele>288.5</ele><time>2026-04-12T13:48:43.999Z</time></trkpt><trkpt lat="44.05753158754537" lon="12.00705854989128"><ele>290.0</ele><time>2026-04-12T13:48:44.999Z</time></trkpt><trkpt lat="44.05751155104037" lon="12.00695134158001"><ele>290.0</ele><time>2026-04-12T13:48:45.999Z</time></trkpt><trkpt lat="44.05749038056168" lon="12.006838585962777"><ele>290.0</ele><time>2026-04-12T13:48:46.999Z</time></trkpt><trkpt lat="44.05747087494846" lon="12.006732613681296"><ele>290.0</ele><time>2026-04-12T13:48:47.999Z</time></trkpt><trkpt lat="44.05748134094406" lon="12.006645420069612"><ele>290.0</ele><time>2026-04-12T13:48:48.999Z</time></trkpt><trkpt lat="44.0574761108711" lon="12.006511694508315"><ele>290.0</ele><time>2026-04-12T13:48:50.999Z</time></trkpt><trkpt lat="44.05749298533919" lon="12.006424480846709"><ele>290.0</ele><time>2026-04-12T13:48:51.999Z</time></trkpt><trkpt lat="44.05751619125308" lon="12.00634129435642"><ele>290.83333333333337</ele><time>2026-04-12T13:48:52.999Z</time></trkpt><trkpt lat="44.057544880333616" lon="12.00625556918645"><ele>291.6666666666667</ele><time>2026-04-12T13:48:53.999Z</time></trkpt><trkpt lat="44.05756827197008" lon="12.006168172296938"><ele>292.5</ele><time>2026-04-12T13:48:54.999Z</time></trkpt><trkpt lat="44.05758877504924" lon="12.006080622017134"><ele>293.3333333333333</ele><time>2026-04-12T13:48:55.999Z</time></trkpt><trkpt lat="44.0576224327033" lon="12.005915690921219"><ele>294.16666666666663</ele><time>2026-04-12T13:48:57.999Z</time></trkpt><trkpt lat="44.05763917346498" lon="12.005816380639347"><ele>295.0</ele><time>2026-04-12T13:48:58.999Z</time></trkpt><trkpt lat="44.057669816523145" lon="12.005738927413313"><ele>295.2</ele><time>2026-04-12T13:48:59.999Z</time></trkpt><trkpt lat="44.057688161889914" lon="12.005646233294284"><ele>295.4</ele><time>2026-04-12T13:49:00.999Z</time></trkpt><trkpt lat="44.0577107079505" lon="12.005480363543674"><ele>295.6</ele><time>2026-04-12T13:49:01.999Z</time></trkpt><trkpt lat="44.05774744432001" lon="12.00531904671587"><ele>295.8</ele><time>2026-04-12T13:49:02.999Z</time></trkpt><trkpt lat="44.05776254391983" lon="12.005178781244554"><ele>296.0</ele><time>2026-04-12T13:49:04.999Z</time></trkpt><trkpt lat="44.05778838856287" lon="12.005057321218835"><ele>295.40000000000003</ele><time>2026-04-12T13:49:05.999Z</time></trkpt><trkpt lat="44.05783602072343" lon="12.004882557253403"><ele>294.8</ele><time>2026-04-12T13:49:06.999Z</time></trkpt><trkpt lat="44.05787785361258" lon="12.004773249253626"><ele>294.20000000000005</ele><time>2026-04-12T13:49:07.999Z</time></trkpt><trkpt lat="44.057917114841125" lon="12.004679439614454"><ele>293.6</ele><time>2026-04-12T13:49:08.999Z</time></trkpt><trkpt lat="44.05795965379441" lon="12.004579545904058"><ele>293.0</ele><time>2026-04-12T13:49:09.999Z</time></trkpt><trkpt lat="44.05805181014539" lon="12.004383860136628"><ele>293.0</ele><time>2026-04-12T13:49:11.999Z</time></trkpt><trkpt lat="44.058104129425246" lon="12.004241581874204"><ele>293.0</ele><time>2026-04-12T13:49:12.999Z</time></trkpt><trkpt lat="44.05814481882969" lon="12.004148732706911"><ele>293.0</ele><time>2026-04-12T13:49:13.999Z</time></trkpt><trkpt lat="44.058174035653735" lon="12.004040477789042"><ele>293.0</ele><time>2026-04-12T13:49:14.999Z</time></trkpt><trkpt lat="44.05818530713346" lon="12.003895110444901"><ele>293.0</ele><time>2026-04-12T13:49:15.999Z</time></trkpt><trkpt lat="44.05820932752932" lon="12.003733575880034"><ele>293.6</ele><time>2026-04-12T13:49:16.999Z</time></trkpt><trkpt lat="44.05824072248753" lon="12.003556100872403"><ele>294.20000000000005</ele><time>2026-04-12T13:49:17.998Z</time></trkpt><trkpt lat="44.05828564266575" lon="12.003411110866448"><ele>294.8</ele><time>2026-04-12T13:49:18.998Z</time></trkpt><trkpt lat="44.05831849879481" lon="12.003288617512357"><ele>295.40000000000003</ele><time>2026-04-12T13:49:19.998Z</time></trkpt><trkpt lat="44.05836352072913" lon="12.003161525175333"><ele>296.0</ele><time>2026-04-12T13:49:21Z</time></trkpt><trkpt lat="44.05840119565796" lon="12.003058999763143"><ele>300.0</ele><time>2026-04-12T13:49:22Z</time></trkpt><trkpt lat="44.058434114947715" lon="12.002944319264511"><ele>304.0</ele><time>2026-04-12T13:49:24Z</time></trkpt><trkpt lat="44.05846742777405" lon="12.002838545833647"><ele>308.0</ele><time>2026-04-12T13:49:27Z</time></trkpt><trkpt lat="44.05848842975701" lon="12.002683749067963"><ele>312.0</ele><time>2026-04-12T13:51:22.998Z</time></trkpt><trkpt lat="44.05849323754967" lon="12.002549117654322"><ele>316.0</ele><time>2026-04-12T13:51:23.998Z</time></trkpt><trkpt lat="44.058480210510545" lon="12.002414426072777"><ele>317.0</ele><time>2026-04-12T13:51:24.998Z</time></trkpt><trkpt lat="44.058463438272746" lon="12.002328175350629"><ele>318.0</ele><time>2026-04-12T13:51:25.998Z</time></trkpt><trkpt lat="44.058426611604325" lon="12.002203900397864"><ele>319.0</ele><time>2026-04-12T13:51:27Z</time></trkpt><trkpt lat="44.05838956692249" lon="12.002104058926127"><ele>320.0</ele><time>2026-04-12T13:51:30Z</time></trkpt><trkpt lat="44.05836834260584" lon="12.001997603229881"><ele>321.0</ele><time>2026-04-12T13:52:27.999Z</time></trkpt><trkpt lat="44.058323302299186" lon="12.001862628306245"><ele>322.0</ele><time>2026-04-12T13:52:29.999Z</time></trkpt><trkpt lat="44.05829611828278" lon="12.001745904211713"><ele>322.8333333333333</ele><time>2026-04-12T13:52:31.999Z</time></trkpt><trkpt lat="44.05830420190854" lon="12.001622731343211"><ele>323.66666666666663</ele><time>2026-04-12T13:52:33.999Z</time></trkpt><trkpt lat="44.058358673545015" lon="12.001521517229424"><ele>324.5</ele><time>2026-04-12T13:52:35.999Z</time></trkpt><trkpt lat="44.05841114027041" lon="12.0014705540011"><ele>325.3333333333333</ele><time>2026-04-12T13:52:36.999Z</time></trkpt><trkpt lat="44.05851513162835" lon="12.001405867976262"><ele>326.1666666666667</ele><time>2026-04-12T13:52:38.999Z</time></trkpt><trkpt lat="44.058560921942764" lon="12.001343476528719"><ele>327.0</ele><time>2026-04-12T13:52:39.999Z</time></trkpt><trkpt lat="44.05859161451186" lon="12.001262138192917"><ele>327.0</ele><time>2026-04-12T13:52:40.999Z</time></trkpt><trkpt lat="44.05859617972291" lon="12.001168458929884"><ele>327.0</ele><time>2026-04-12T13:52:41.999Z</time></trkpt><trkpt lat="44.05859367694627" lon="12.001066602878081"><ele>327.0</ele><time>2026-04-12T13:52:42.999Z</time></trkpt><trkpt lat="44.058589205486825" lon="12.000949360362947"><ele>327.0</ele><time>2026-04-12T13:52:43.999Z</time></trkpt><trkpt lat="44.0585880889109" lon="12.000817837760165"><ele>327.0</ele><time>2026-04-12T13:52:44.999Z</time></trkpt><trkpt lat="44.05857948947616" lon="12.000673751490535"><ele>327.0</ele><time>2026-04-12T13:52:45.999Z</time></trkpt><trkpt lat="44.05855242496178" lon="12.000510949559763"><ele>329.0</ele><time>2026-04-12T13:52:46.999Z</time></trkpt><trkpt lat="44.05852259948116" lon="12.00035203435107"><ele>331.0</ele><time>2026-04-12T13:52:47.999Z</time></trkpt><trkpt lat="44.058510460988806" lon="12.000198254289309"><ele>333.0</ele><time>2026-04-12T13:52:48.999Z</time></trkpt><trkpt lat="44.05849025514209" lon="12.000043518234785"><ele>335.0</ele><time>2026-04-12T13:52:49.999Z</time></trkpt><trkpt lat="44.05847209836405" lon="11.999891637716155"><ele>335.0</ele><time>2026-04-12T13:52:50.999Z</time></trkpt><trkpt lat="44.058476246747716" lon="11.999727873508105"><ele>335.0</ele><time>2026-04-12T13:52:51.999Z</time></trkpt><trkpt lat="44.058480458629816" lon="11.999567168065159"><ele>335.0</ele><time>2026-04-12T13:52:52.999Z</time></trkpt><trkpt lat="44.05846011130547" lon="11.999413096078"><ele>335.0</ele><time>2026-04-12T13:52:53.999Z</time></trkpt><trkpt lat="44.05843226918668" lon="11.999262611618025"><ele>335.2</ele><time>2026-04-12T13:52:54.999Z</time></trkpt><trkpt lat="44.058401879366365" lon="11.999119917718458"><ele>335.4</ele><time>2026-04-12T13:52:55.999Z</time></trkpt><trkpt lat="44.0583668617368" lon="11.998979502793178"><ele>335.6</ele><time>2026-04-12T13:52:56.999Z</time></trkpt><trkpt lat="44.05831603376872" lon="11.998850608356463"><ele>335.8</ele><time>2026-04-12T13:52:57.999Z</time></trkpt><trkpt lat="44.05828610864859" lon="11.998707643093862"><ele>336.0</ele><time>2026-04-12T13:52:58.999Z</time></trkpt><trkpt lat="44.05822341776261" lon="11.998575108766339"><ele>336.0</ele><time>2026-04-12T13:52:59.999Z</time></trkpt><trkpt lat="44.05816389666496" lon="11.998440054988178"><ele>336.0</ele><time>2026-04-12T13:53:00.999Z</time></trkpt><trkpt lat="44.05810780576461" lon="11.998301830925536"><ele>336.0</ele><time>2026-04-12T13:53:01.999Z</time></trkpt><trkpt lat="44.05804606674682" lon="11.998174890258332"><ele>336.0</ele><time>2026-04-12T13:53:02.999Z</time></trkpt><trkpt lat="44.05797943307344" lon="11.99806256753921"><ele>336.0</ele><time>2026-04-12T13:53:03.999Z</time></trkpt><trkpt lat="44.057919312958774" lon="11.997965031364085"><ele>338.8</ele><time>2026-04-12T13:53:04.999Z</time></trkpt><trkpt lat="44.05786817357976" lon="11.99787838445281"><ele>341.6</ele><time>2026-04-12T13:53:05.999Z</time></trkpt><trkpt lat="44.05782931011155" lon="11.997786460859071"><ele>344.4</ele><time>2026-04-12T13:53:07.999Z</time></trkpt><trkpt lat="44.05791508930957" lon="11.997690135257967"><ele>347.2</ele><time>2026-04-12T13:53:10.999Z</time></trkpt><trkpt lat="44.05797310466725" lon="11.997587674929889"><ele>350.0</ele><time>2026-04-12T13:53:11.999Z</time></trkpt><trkpt lat="44.058029199795065" lon="11.997460771292575"><ele>351.25</ele><time>2026-04-12T13:53:12.999Z</time></trkpt><trkpt lat="44.05811273456695" lon="11.997334577445796"><ele>352.5</ele><time>2026-04-12T13:53:13.999Z</time></trkpt><trkpt lat="44.058193052228674" lon="11.997218075418964"><ele>353.75</ele><time>2026-04-12T13:53:14.999Z</time></trkpt><trkpt lat="44.05827330578196" lon="11.997103035500436"><ele>355.0</ele><time>2026-04-12T13:53:15.999Z</time></trkpt><trkpt lat="44.058365443786066" lon="11.996980132350567"><ele>357.3333333333333</ele><time>2026-04-12T13:53:16.999Z</time></trkpt><trkpt lat="44.05846632090714" lon="11.996832251789076"><ele>359.6666666666667</ele><time>2026-04-12T13:53:17.999Z</time></trkpt><trkpt lat="44.058571256393925" lon="11.996669700392305"><ele>362.0</ele><time>2026-04-12T13:53:18.999Z</time></trkpt><trkpt lat="44.0586728786939" lon="11.99651546765029"><ele>363.0</ele><time>2026-04-12T13:53:19.999Z</time></trkpt><trkpt lat="44.05877671131381" lon="11.996354037677067"><ele>364.0</ele><time>2026-04-12T13:53:20.999Z</time></trkpt><trkpt lat="44.058859217317035" lon="11.996194738405771"><ele>365.0</ele><time>2026-04-12T13:53:21.999Z</time></trkpt><trkpt lat="44.05894734660909" lon="11.99606367379375"><ele>366.0</ele><time>2026-04-12T13:53:22.999Z</time></trkpt><trkpt lat="44.05903773764396" lon="11.995941715771504"><ele>366.6</ele><time>2026-04-12T13:53:23.999Z</time></trkpt><trkpt lat="44.05913635137162" lon="11.995855368432796"><ele>367.20000000000005</ele><time>2026-04-12T13:53:24.999Z</time></trkpt><trkpt lat="44.05922847964068" lon="11.995746185518504"><ele>367.79999999999995</ele><time>2026-04-12T13:53:25.999Z</time></trkpt><trkpt lat="44.05931808296823" lon="11.995633385473134"><ele>368.4</ele><time>2026-04-12T13:53:26.999Z</time></trkpt><trkpt lat="44.05939255404508" lon="11.995568350310698"><ele>369.0</ele><time>2026-04-12T13:53:27.999Z</time></trkpt><trkpt lat="44.05945951039801" lon="11.995516543930378"><ele>371.6</ele><time>2026-04-12T13:53:28.998Z</time></trkpt><trkpt lat="44.05951341548127" lon="11.995427832058228"><ele>374.2</ele><time>2026-04-12T13:53:29.998Z</time></trkpt><trkpt lat="44.05956370046688" lon="11.99529291590106"><ele>376.8</ele><time>2026-04-12T13:53:30.998Z</time></trkpt><trkpt lat="44.0596372512089" lon="11.995156574208087"><ele>379.40000000000003</ele><time>2026-04-12T13:53:31.998Z</time></trkpt><trkpt lat="44.05969955368873" lon="11.995014679617613"><ele>382.0</ele><time>2026-04-12T13:53:33Z</time></trkpt><trkpt lat="44.059750897207934" lon="11.994868458166133"><ele>383.40000000000003</ele><time>2026-04-12T13:53:34Z</time></trkpt><trkpt lat="44.059776219354426" lon="11.994714035646577"><ele>384.8</ele><time>2026-04-12T13:53:35Z</time></trkpt><trkpt lat="44.05982670818682" lon="11.994579505415192"><ele>386.2</ele><time>2026-04-12T13:53:36Z</time></trkpt><trkpt lat="44.05984649589328" lon="11.994440214606891"><ele>387.6</ele><time>2026-04-12T13:53:37Z</time></trkpt><trkpt lat="44.05986321189115" lon="11.99430100571134"><ele>389.0</ele><time>2026-04-12T13:53:38Z</time></trkpt><trkpt lat="44.05987691114974" lon="11.994172087850119"><ele>389.6</ele><time>2026-04-12T13:53:39Z</time></trkpt><trkpt lat="44.059895141578345" lon="11.99404684060188"><ele>390.2</ele><time>2026-04-12T13:53:40Z</time></trkpt><trkpt lat="44.059915304906866" lon="11.993942982935168"><ele>390.8</ele><time>2026-04-12T13:53:41Z</time></trkpt><trkpt lat="44.05994987976665" lon="11.993833638583734"><ele>391.40000000000003</ele><time>2026-04-12T13:53:43Z</time></trkpt><trkpt lat="44.05997090882471" lon="11.99369847439757"><ele>392.0</ele><time>2026-04-12T13:53:56Z</time></trkpt><trkpt lat="44.06007988626677" lon="11.993645577649195"><ele>394.75</ele><time>2026-04-12T13:53:57Z</time></trkpt><trkpt lat="44.06014275531271" lon="11.993565333987622"><ele>397.5</ele><time>2026-04-12T13:53:58Z</time></trkpt><trkpt lat="44.06023128953492" lon="11.993488881384604"><ele>400.25</ele><time>2026-04-12T13:53:59Z</time></trkpt><trkpt lat="44.06033671117913" lon="11.993410614963603"><ele>403.0</ele><time>2026-04-12T13:54:00Z</time></trkpt><trkpt lat="44.060472352496916" lon="11.993310693761218"><ele>403.2</ele><time>2026-04-12T13:54:01Z</time></trkpt><trkpt lat="44.0605734103114" lon="11.993208666573297"><ele>403.4</ele><time>2026-04-12T13:54:02Z</time></trkpt><trkpt lat="44.06066234117524" lon="11.993156964871272"><ele>403.59999999999997</ele><time>2026-04-12T13:54:03Z</time></trkpt><trkpt lat="44.060746433890706" lon="11.993125858460534"><ele>403.79999999999995</ele><time>2026-04-12T13:54:04Z</time></trkpt><trkpt lat="44.060820490390356" lon="11.993186235158335"><ele>404.0</ele><time>2026-04-12T13:54:05Z</time></trkpt><trkpt lat="44.060916591837625" lon="11.99320024851374"><ele>404.0</ele><time>2026-04-12T13:54:06Z</time></trkpt><trkpt lat="44.06105758054492" lon="11.993216075463705"><ele>404.0</ele><time>2026-04-12T13:54:07Z</time></trkpt><trkpt lat="44.06121502768168" lon="11.993222397267987"><ele>404.0</ele><time>2026-04-12T13:54:08Z</time></trkpt><trkpt lat="44.06136107003927" lon="11.993199617621226"><ele>404.0</ele><time>2026-04-12T13:54:08.999Z</time></trkpt><trkpt lat="44.061494942214765" lon="11.993140304455396"><ele>403.79999999999995</ele><time>2026-04-12T13:54:09.999Z</time></trkpt><trkpt lat="44.06161579112216" lon="11.99307351243149"><ele>403.59999999999997</ele><time>2026-04-12T13:54:10.999Z</time></trkpt><trkpt lat="44.0617471721753" lon="11.993020078672782"><ele>403.4</ele><time>2026-04-12T13:54:11.999Z</time></trkpt><trkpt lat="44.06184239677628" lon="11.993025212133219"><ele>403.2</ele><time>2026-04-12T13:54:12.999Z</time></trkpt><trkpt lat="44.06190551018584" lon="11.993064661858027"><ele>403.0</ele><time>2026-04-12T13:54:13.999Z</time></trkpt><trkpt lat="44.06196329867643" lon="11.993134337807414"><ele>403.0</ele><time>2026-04-12T13:54:14.999Z</time></trkpt><trkpt lat="44.06205279953661" lon="11.99322910139192"><ele>403.0</ele><time>2026-04-12T13:54:15.999Z</time></trkpt><trkpt lat="44.06215904642318" lon="11.99332262089134"><ele>403.0</ele><time>2026-04-12T13:54:16.999Z</time></trkpt><trkpt lat="44.06224142468533" lon="11.993393320575674"><ele>403.0</ele><time>2026-04-12T13:54:17.999Z</time></trkpt><trkpt lat="44.06235684044482" lon="11.993440691389088"><ele>402.0</ele><time>2026-04-12T13:54:18.999Z</time></trkpt><trkpt lat="44.062500852751924" lon="11.993541333924506"><ele>401.0</ele><time>2026-04-12T13:54:19.999Z</time></trkpt><trkpt lat="44.062638000878046" lon="11.993571381857063"><ele>400.0</ele><time>2026-04-12T13:54:20.999Z</time></trkpt><trkpt lat="44.062739151846" lon="11.993625991365354"><ele>399.0</ele><time>2026-04-12T13:54:21.999Z</time></trkpt><trkpt lat="44.062820131415535" lon="11.993608788310315"><ele>399.0</ele><time>2026-04-12T13:54:22.999Z</time></trkpt><trkpt lat="44.062892787642696" lon="11.993561623102838"><ele>399.0</ele><time>2026-04-12T13:54:23.999Z</time></trkpt><trkpt lat="44.062997680671785" lon="11.993551739034908"><ele>399.0</ele><time>2026-04-12T13:54:24.999Z</time></trkpt><trkpt lat="44.06309911929526" lon="11.993574523316433"><ele>399.0</ele><time>2026-04-12T13:54:25.999Z</time></trkpt><trkpt lat="44.06319098622277" lon="11.993647158058922"><ele>399.0</ele><time>2026-04-12T13:54:26.999Z</time></trkpt><trkpt lat="44.06325858918972" lon="11.993729787744897"><ele>399.1666666666667</ele><time>2026-04-12T13:54:27.999Z</time></trkpt><trkpt lat="44.0632925765355" lon="11.993809028761495"><ele>399.33333333333337</ele><time>2026-04-12T13:54:28.999Z</time></trkpt><trkpt lat="44.06333569272073" lon="11.993882330511587"><ele>399.5</ele><time>2026-04-12T13:54:32.999Z</time></trkpt><trkpt lat="44.0634080430002" lon="11.99390597071217"><ele>399.6666666666667</ele><time>2026-04-12T13:54:35.999Z</time></trkpt><trkpt lat="44.06342949718353" lon="11.994046511424926"><ele>399.83333333333337</ele><time>2026-04-12T13:54:37.999Z</time></trkpt><trkpt lat="44.06346278816678" lon="11.994188113103386"><ele>400.0</ele><time>2026-04-12T13:54:38.999Z</time></trkpt><trkpt lat="44.063468192093815" lon="11.994307609408237"><ele>398.4</ele><time>2026-04-12T13:54:39.999Z</time></trkpt><trkpt lat="44.063490544956565" lon="11.99440093542594"><ele>396.8</ele><time>2026-04-12T13:54:41.999Z</time></trkpt><trkpt lat="44.0635023685111" lon="11.994547286634031"><ele>395.20000000000005</ele><time>2026-04-12T13:54:43.999Z</time></trkpt><trkpt lat="44.063544077144385" lon="11.994725105697214"><ele>393.6</ele><time>2026-04-12T13:54:44.999Z</time></trkpt><trkpt lat="44.063557895753306" lon="11.994847489837106"><ele>392.0</ele><time>2026-04-12T13:54:45.999Z</time></trkpt><trkpt lat="44.06347047910438" lon="11.99492728812542"><ele>386.66666666666663</ele><time>2026-04-12T13:54:48.999Z</time></trkpt><trkpt lat="44.06363445315916" lon="11.995182928580505"><ele>381.3333333333333</ele><time>2026-04-12T13:54:49.999Z</time></trkpt><trkpt lat="44.06375413717194" lon="11.995268507649946"><ele>376.0</ele><time>2026-04-12T13:54:51.999Z</time></trkpt><trkpt lat="44.063827516421355" lon="11.99529405127559"><ele>376.0</ele><time>2026-04-12T13:54:52.999Z</time></trkpt><trkpt lat="44.06389183751908" lon="11.99534495017223"><ele>376.0</ele><time>2026-04-12T13:54:53.999Z</time></trkpt><trkpt lat="44.063960643401224" lon="11.995405136638906"><ele>376.0</ele><time>2026-04-12T13:54:54.999Z</time></trkpt><trkpt lat="44.06404975241264" lon="11.995472957130236"><ele>376.0</ele><time>2026-04-12T13:54:55.999Z</time></trkpt><trkpt lat="44.0641206292629" lon="11.995517599615031"><ele>376.0</ele><time>2026-04-12T13:54:56.999Z</time></trkpt><trkpt lat="44.06420072409829" lon="11.995571013013103"><ele>376.0</ele><time>2026-04-12T13:54:57.999Z</time></trkpt><trkpt lat="44.06426680589776" lon="11.995586826239558"><ele>375.6</ele><time>2026-04-12T13:54:58.999Z</time></trkpt><trkpt lat="44.06434337692872" lon="11.995658655100726"><ele>375.20000000000005</ele><time>2026-04-12T13:55:00.999Z</time></trkpt><trkpt lat="44.064275810628324" lon="11.995763293610729"><ele>374.79999999999995</ele><time>2026-04-12T13:55:02.999Z</time></trkpt><trkpt lat="44.06418253915988" lon="11.995895648857347"><ele>374.4</ele><time>2026-04-12T13:55:04.999Z</time></trkpt><trkpt lat="44.06413049370463" lon="11.99599732544813"><ele>374.0</ele><time>2026-04-12T13:55:05.999Z</time></trkpt><trkpt lat="44.06410747917498" lon="11.99612134926592"><ele>370.6</ele><time>2026-04-12T13:55:06.999Z</time></trkpt><trkpt lat="44.06408997877745" lon="11.996238227782541"><ele>367.2</ele><time>2026-04-12T13:55:07.999Z</time></trkpt><trkpt lat="44.064085038547184" lon="11.996372781567722"><ele>363.8</ele><time>2026-04-12T13:55:08.999Z</time></trkpt><trkpt lat="44.064073789358865" lon="11.996505009702496"><ele>360.40000000000003</ele><time>2026-04-12T13:55:09.999Z</time></trkpt><trkpt lat="44.06404027911039" lon="11.996628455933307"><ele>357.0</ele><time>2026-04-12T13:55:10.999Z</time></trkpt><trkpt lat="44.064007973274975" lon="11.996765154818766"><ele>355.0</ele><time>2026-04-12T13:55:11.999Z</time></trkpt><trkpt lat="44.06397245716249" lon="11.996915961423442"><ele>353.0</ele><time>2026-04-12T13:55:12.999Z</time></trkpt><trkpt lat="44.06393521417897" lon="11.997043191114594"><ele>351.0</ele><time>2026-04-12T13:55:13.999Z</time></trkpt><trkpt lat="44.06389070628576" lon="11.99714500876141"><ele>349.0</ele><time>2026-04-12T13:55:14.999Z</time></trkpt><trkpt lat="44.06383105122421" lon="11.997214443728486"><ele>347.0</ele><time>2026-04-12T13:55:15.999Z</time></trkpt><trkpt lat="44.06378794052789" lon="11.997300282557239"><ele>347.0</ele><time>2026-04-12T13:55:16.999Z</time></trkpt><trkpt lat="44.06374890115092" lon="11.997459626440227"><ele>347.0</ele><time>2026-04-12T13:55:18.999Z</time></trkpt><trkpt lat="44.06377404315653" lon="11.997574924632367"><ele>347.0</ele><time>2026-04-12T13:55:19.999Z</time></trkpt><trkpt lat="44.06378439592975" lon="11.99768399705718"><ele>347.0</ele><time>2026-04-12T13:55:20.999Z</time></trkpt><trkpt lat="44.0637977621294" lon="11.997785671722479"><ele>347.0</ele><time>2026-04-12T13:55:21.999Z</time></trkpt><trkpt lat="44.063800125522214" lon="11.997890048233467"><ele>347.0</ele><time>2026-04-12T13:55:22.999Z</time></trkpt><trkpt lat="44.06380440094746" lon="11.9979922810035"><ele>344.8</ele><time>2026-04-12T13:55:23.999Z</time></trkpt><trkpt lat="44.06385108308212" lon="11.998115055193878"><ele>342.6</ele><time>2026-04-12T13:55:24.999Z</time></trkpt><trkpt lat="44.06389906631283" lon="11.99826986536912"><ele>340.40000000000003</ele><time>2026-04-12T13:55:25.999Z</time></trkpt><trkpt lat="44.06394397937383" lon="11.998409004089238"><ele>338.20000000000005</ele><time>2026-04-12T13:55:26.999Z</time></trkpt><trkpt lat="44.06396173380955" lon="11.998536272221603"><ele>336.0</ele><time>2026-04-12T13:55:27.999Z</time></trkpt><trkpt lat="44.064007157907795" lon="11.998638819486334"><ele>337.0</ele><time>2026-04-12T13:55:28.999Z</time></trkpt><trkpt lat="44.06403013221582" lon="11.998734381755055"><ele>338.0</ele><time>2026-04-12T13:55:29.999Z</time></trkpt><trkpt lat="44.06406635359297" lon="11.998841046201408"><ele>339.0</ele><time>2026-04-12T13:55:30.999Z</time></trkpt><trkpt lat="44.06414512383607" lon="11.998969558956473"><ele>340.0</ele><time>2026-04-12T13:55:31.999Z</time></trkpt><trkpt lat="44.06422011626018" lon="11.999071401311031"><ele>341.0</ele><time>2026-04-12T13:55:32.999Z</time></trkpt><trkpt lat="44.06428568410578" lon="11.99917326725363"><ele>339.0</ele><time>2026-04-12T13:55:33.999Z</time></trkpt><trkpt lat="44.064347677221946" lon="11.999275545198959"><ele>337.0</ele><time>2026-04-12T13:55:34.999Z</time></trkpt><trkpt lat="44.06437591671224" lon="11.99940969024549"><ele>335.0</ele><time>2026-04-12T13:55:35.999Z</time></trkpt><trkpt lat="44.06443533713303" lon="11.99955220035716"><ele>333.0</ele><time>2026-04-12T13:55:36.999Z</time></trkpt><trkpt lat="44.06445977538445" lon="11.999690637590565"><ele>331.0</ele><time>2026-04-12T13:55:37.998Z</time></trkpt><trkpt lat="44.06448085133448" lon="11.99982988315071"><ele>331.0</ele><time>2026-04-12T13:55:39Z</time></trkpt><trkpt lat="44.064493293365885" lon="11.999942661811122"><ele>331.0</ele><time>2026-04-12T13:55:40Z</time></trkpt><trkpt lat="44.064517175701184" lon="12.000079212700925"><ele>331.0</ele><time>2026-04-12T13:55:41Z</time></trkpt><trkpt lat="44.06452626945482" lon="12.000226007816822"><ele>331.0</ele><time>2026-04-12T13:55:42Z</time></trkpt><trkpt lat="44.06453294575083" lon="12.000365280651701"><ele>331.0</ele><time>2026-04-12T13:55:43Z</time></trkpt><trkpt lat="44.06453596325073" lon="12.000465958579467"><ele>331.0</ele><time>2026-04-12T13:55:44Z</time></trkpt><trkpt lat="44.06452605122459" lon="12.000576286114653"><ele>331.0</ele><time>2026-04-12T13:55:45Z</time></trkpt><trkpt lat="44.06452359068273" lon="12.00067245573552"><ele>331.0</ele><time>2026-04-12T13:55:46Z</time></trkpt><trkpt lat="44.064521251215446" lon="12.00078664278177"><ele>331.0</ele><time>2026-04-12T13:55:47Z</time></trkpt><trkpt lat="44.064537928797506" lon="12.000912711267217"><ele>331.0</ele><time>2026-04-12T13:55:48Z</time></trkpt><trkpt lat="44.064537664775926" lon="12.001053942113135"><ele>331.0</ele><time>2026-04-12T13:55:49Z</time></trkpt><trkpt lat="44.06457468342647" lon="12.001198949566138"><ele>328.8</ele><time>2026-04-12T13:55:50Z</time></trkpt><trkpt lat="44.06459771058344" lon="12.0013955596411"><ele>326.6</ele><time>2026-04-12T13:55:51Z</time></trkpt><trkpt lat="44.06462353262661" lon="12.001545129511488"><ele>324.4</ele><time>2026-04-12T13:55:52Z</time></trkpt><trkpt lat="44.064647976381394" lon="12.001674640063447"><ele>322.2</ele><time>2026-04-12T13:55:53Z</time></trkpt><trkpt lat="44.06465320513327" lon="12.00180681318887"><ele>320.0</ele><time>2026-04-12T13:55:54Z</time></trkpt><trkpt lat="44.06465609370967" lon="12.001951014237932"><ele>317.4</ele><time>2026-04-12T13:55:55Z</time></trkpt><trkpt lat="44.06465840218068" lon="12.002093675226677"><ele>314.8</ele><time>2026-04-12T13:55:56Z</time></trkpt><trkpt lat="44.06469850772218" lon="12.002239551181878"><ele>312.2</ele><time>2026-04-12T13:55:57Z</time></trkpt><trkpt lat="44.064741580760916" lon="12.002386172368444"><ele>309.6</ele><time>2026-04-12T13:55:58Z</time></trkpt><trkpt lat="44.06477054562196" lon="12.002496171614455"><ele>307.0</ele><time>2026-04-12T13:55:59Z</time></trkpt><trkpt lat="44.06480803080818" lon="12.002582859481365"><ele>306.0</ele><time>2026-04-12T13:56:00Z</time></trkpt><trkpt lat="44.064821970983914" lon="12.002692458382134"><ele>305.0</ele><time>2026-04-12T13:56:01Z</time></trkpt><trkpt lat="44.064788194944036" lon="12.00287939232478"><ele>304.0</ele><time>2026-04-12T13:56:03Z</time></trkpt><trkpt lat="44.06475584687511" lon="12.00296981500233"><ele>303.0</ele><time>2026-04-12T13:56:04Z</time></trkpt><trkpt lat="44.06473113093046" lon="12.003065381623687"><ele>302.0</ele><time>2026-04-12T13:56:05Z</time></trkpt><trkpt lat="44.064703680757546" lon="12.00317224354733"><ele>301.0</ele><time>2026-04-12T13:56:06Z</time></trkpt><trkpt lat="44.064683704158575" lon="12.003276720018018"><ele>298.8</ele><time>2026-04-12T13:56:07Z</time></trkpt><trkpt lat="44.064679233493045" lon="12.0033793224335"><ele>296.6</ele><time>2026-04-12T13:56:08Z</time></trkpt><trkpt lat="44.06472409730673" lon="12.003542328708939"><ele>294.4</ele><time>2026-04-12T13:56:10Z</time></trkpt><trkpt lat="44.06482274045603" lon="12.003557336040323"><ele>292.2</ele><time>2026-04-12T13:56:11Z</time></trkpt><trkpt lat="44.06491214368206" lon="12.003577506182069"><ele>290.0</ele><time>2026-04-12T13:56:12Z</time></trkpt><trkpt lat="44.06499239240641" lon="12.00361815376139"><ele>290.0</ele><time>2026-04-12T13:56:13Z</time></trkpt><trkpt lat="44.0650591466944" lon="12.003664335995404"><ele>290.0</ele><time>2026-04-12T13:56:14Z</time></trkpt><trkpt lat="44.065113624966315" lon="12.003747304853196"><ele>290.0</ele><time>2026-04-12T13:56:15Z</time></trkpt><trkpt lat="44.065154633506964" lon="12.003829065795587"><ele>290.0</ele><time>2026-04-12T13:56:16Z</time></trkpt><trkpt lat="44.06518102305983" lon="12.00393411642611"><ele>290.0</ele><time>2026-04-12T13:56:17Z</time></trkpt><trkpt lat="44.065164958118146" lon="12.004064826647516"><ele>290.0</ele><time>2026-04-12T13:56:18Z</time></trkpt><trkpt lat="44.065123330688365" lon="12.004143001819124"><ele>288.6</ele><time>2026-04-12T13:56:19Z</time></trkpt><trkpt lat="44.065091360013426" lon="12.004234806678857"><ele>287.2</ele><time>2026-04-12T13:56:20Z</time></trkpt><trkpt lat="44.06499808371229" lon="12.004329507154768"><ele>285.8</ele><time>2026-04-12T13:56:22Z</time></trkpt><trkpt lat="44.064935314225515" lon="12.004410349500352"><ele>284.4</ele><time>2026-04-12T13:56:22.999Z</time></trkpt><trkpt lat="44.06486372491773" lon="12.004512658056791"><ele>283.0</ele><time>2026-04-12T13:56:23.999Z</time></trkpt><trkpt lat="44.06482435471239" lon="12.004628750992165"><ele>283.0</ele><time>2026-04-12T13:56:24.999Z</time></trkpt><trkpt lat="44.06481677673424" lon="12.004738634283392"><ele>283.0</ele><time>2026-04-12T13:56:25.999Z</time></trkpt><trkpt lat="44.06486973219773" lon="12.004821363360886"><ele>283.0</ele><time>2026-04-12T13:56:26.999Z</time></trkpt><trkpt lat="44.064959267529346" lon="12.00489090992437"><ele>283.0</ele><time>2026-04-12T13:56:27.999Z</time></trkpt><trkpt lat="44.06499761185648" lon="12.005035640795384"><ele>283.0</ele><time>2026-04-12T13:56:28.999Z</time></trkpt><trkpt lat="44.06504184316202" lon="12.005178335221336"><ele>282.2</ele><time>2026-04-12T13:56:29.999Z</time></trkpt><trkpt lat="44.06502915110547" lon="12.00534091023611"><ele>281.4</ele><time>2026-04-12T13:56:30.999Z</time></trkpt><trkpt lat="44.06499077346251" lon="12.005443137962525"><ele>280.59999999999997</ele><time>2026-04-12T13:56:31.999Z</time></trkpt><trkpt lat="44.064958819316594" lon="12.005573071436606"><ele>279.8</ele><time>2026-04-12T13:56:32.999Z</time></trkpt><trkpt lat="44.06494325385617" lon="12.005750324606456"><ele>279.0</ele><time>2026-04-12T13:56:33.999Z</time></trkpt><trkpt lat="44.06495164679056" lon="12.005917216799318"><ele>278.0</ele><time>2026-04-12T13:56:34.999Z</time></trkpt><trkpt lat="44.06494443502418" lon="12.006034973991067"><ele>277.0</ele><time>2026-04-12T13:56:35.999Z</time></trkpt><trkpt lat="44.06495957834295" lon="12.006166928630869"><ele>276.0</ele><time>2026-04-12T13:56:37.999Z</time></trkpt><trkpt lat="44.06501484436254" lon="12.006286921867183"><ele>275.0</ele><time>2026-04-12T13:56:39.999Z</time></trkpt><trkpt lat="44.06505428389818" lon="12.006358704317886"><ele>274.0</ele><time>2026-04-12T13:56:40.999Z</time></trkpt><trkpt lat="44.06512127486439" lon="12.006475208065089"><ele>274.0</ele><time>2026-04-12T13:56:42.999Z</time></trkpt><trkpt lat="44.06516232985211" lon="12.006542926832008"><ele>274.0</ele><time>2026-04-12T13:56:43.999Z</time></trkpt><trkpt lat="44.065194483396226" lon="12.00662186995854"><ele>274.0</ele><time>2026-04-12T13:56:44.999Z</time></trkpt><trkpt lat="44.06523809782041" lon="12.006686252467963"><ele>274.0</ele><time>2026-04-12T13:56:45.999Z</time></trkpt><trkpt lat="44.06529954355532" lon="12.00674365060566"><ele>274.0</ele><time>2026-04-12T13:56:46.999Z</time></trkpt><trkpt lat="44.06539151825402" lon="12.00686802363374"><ele>274.0</ele><time>2026-04-12T13:56:48.999Z</time></trkpt><trkpt lat="44.06547596528441" lon="12.00696411938367"><ele>274.0</ele><time>2026-04-12T13:56:50.999Z</time></trkpt><trkpt lat="44.06556048835267" lon="12.007023516863176"><ele>274.0</ele><time>2026-04-12T13:56:52.999Z</time></trkpt><trkpt lat="44.06564894636103" lon="12.00706362947594"><ele>274.0</ele><time>2026-04-12T13:56:54.999Z</time></trkpt><trkpt lat="44.065715356613296" lon="12.00708740944923"><ele>274.0</ele><time>2026-04-12T13:56:55.999Z</time></trkpt><trkpt lat="44.06578731916381" lon="12.007094435793281"><ele>274.0</ele><time>2026-04-12T13:56:56.999Z</time></trkpt><trkpt lat="44.06588923850224" lon="12.00711868003454"><ele>274.0</ele><time>2026-04-12T13:56:57.999Z</time></trkpt><trkpt lat="44.06595812377649" lon="12.007138217856605"><ele>274.0</ele><time>2026-04-12T13:56:58.999Z</time></trkpt><trkpt lat="44.066165977039226" lon="12.007178156103198"><ele>274.0</ele><time>2026-04-12T13:57:01.999Z</time></trkpt><trkpt lat="44.06627561939567" lon="12.007238427783903"><ele>274.0</ele><time>2026-04-12T13:57:02.999Z</time></trkpt><trkpt lat="44.06637120806216" lon="12.00728352643554"><ele>274.0</ele><time>2026-04-12T13:57:03.999Z</time></trkpt><trkpt lat="44.066440978389664" lon="12.007332090821327"><ele>274.0</ele><time>2026-04-12T13:57:04.999Z</time></trkpt><trkpt lat="44.066515213737986" lon="12.007393571764794"><ele>274.0</ele><time>2026-04-12T13:57:05.999Z</time></trkpt><trkpt lat="44.06660134490918" lon="12.00748755612359"><ele>274.0</ele><time>2026-04-12T13:57:06.999Z</time></trkpt><trkpt lat="44.066695957009905" lon="12.007597199154564"><ele>274.0</ele><time>2026-04-12T13:57:07.999Z</time></trkpt><trkpt lat="44.06679231122711" lon="12.007699552865718"><ele>274.0</ele><time>2026-04-12T13:57:08.999Z</time></trkpt><trkpt lat="44.06688775344487" lon="12.007868296584704"><ele>274.0</ele><time>2026-04-12T13:57:09.999Z</time></trkpt><trkpt lat="44.06698699573229" lon="12.00801995949375"><ele>274.0</ele><time>2026-04-12T13:57:10.999Z</time></trkpt><trkpt lat="44.06706134173625" lon="12.00813831189284"><ele>274.0</ele><time>2026-04-12T13:57:11.999Z</time></trkpt><trkpt lat="44.067123446398895" lon="12.008245707145553"><ele>274.0</ele><time>2026-04-12T13:57:12.999Z</time></trkpt><trkpt lat="44.067169202513035" lon="12.008339498510312"><ele>274.0</ele><time>2026-04-12T13:57:13.999Z</time></trkpt><trkpt lat="44.06720898453426" lon="12.008422312843942"><ele>274.0</ele><time>2026-04-12T13:57:14.999Z</time></trkpt><trkpt lat="44.06727384228452" lon="12.00855978687304"><ele>274.0</ele><time>2026-04-12T13:57:15.999Z</time></trkpt><trkpt lat="44.067325716609375" lon="12.00867344100035"><ele>274.0</ele><time>2026-04-12T13:57:16.999Z</time></trkpt><trkpt lat="44.06737719923737" lon="12.008743009373585"><ele>274.0</ele><time>2026-04-12T13:57:17.999Z</time></trkpt><trkpt lat="44.06741850111914" lon="12.008819517246122"><ele>274.0</ele><time>2026-04-12T13:57:18.999Z</time></trkpt><trkpt lat="44.0674877696133" lon="12.008915287122836"><ele>270.3333333333333</ele><time>2026-04-12T13:57:19.999Z</time></trkpt><trkpt lat="44.0675390244265" lon="12.009049931199748"><ele>266.66666666666663</ele><time>2026-04-12T13:57:20.999Z</time></trkpt><trkpt lat="44.06759231584229" lon="12.009148842699174"><ele>263.0</ele><time>2026-04-12T13:57:21.999Z</time></trkpt><trkpt lat="44.06764542208467" lon="12.009243230899504"><ele>259.3333333333333</ele><time>2026-04-12T13:57:22.999Z</time></trkpt><trkpt lat="44.06768532381596" lon="12.009343852939521"><ele>255.66666666666666</ele><time>2026-04-12T13:57:23.999Z</time></trkpt><trkpt lat="44.06769667987135" lon="12.00944650788898"><ele>252.0</ele><time>2026-04-12T13:57:24.999Z</time></trkpt><trkpt lat="44.06770678448045" lon="12.0095492820277"><ele>252.0</ele><time>2026-04-12T13:57:25.999Z</time></trkpt><trkpt lat="44.06771762699987" lon="12.009652679825205"><ele>252.0</ele><time>2026-04-12T13:57:26.999Z</time></trkpt><trkpt lat="44.067727000439255" lon="12.009748909912233"><ele>252.0</ele><time>2026-04-12T13:57:27.999Z</time></trkpt><trkpt lat="44.06774815251926" lon="12.009837535345719"><ele>252.0</ele><time>2026-04-12T13:57:28.999Z</time></trkpt><trkpt lat="44.067755724929214" lon="12.010015434526494"><ele>252.0</ele><time>2026-04-12T13:57:30.999Z</time></trkpt><trkpt lat="44.067744425702216" lon="12.010152562839913"><ele>252.0</ele><time>2026-04-12T13:57:32.999Z</time></trkpt><trkpt lat="44.06775147173434" lon="12.010245561983574"><ele>251.2</ele><time>2026-04-12T13:57:33.999Z</time></trkpt><trkpt lat="44.06777741144187" lon="12.010327828050153"><ele>250.39999999999998</ele><time>2026-04-12T13:57:34.999Z</time></trkpt><trkpt lat="44.067878039063444" lon="12.010429004502996"><ele>249.60000000000002</ele><time>2026-04-12T13:57:36.999Z</time></trkpt><trkpt lat="44.067927410443545" lon="12.010504340653702"><ele>248.8</ele><time>2026-04-12T13:57:37.999Z</time></trkpt><trkpt lat="44.06808269455417" lon="12.010567264675407"><ele>248.0</ele><time>2026-04-12T13:57:39.999Z</time></trkpt><trkpt lat="44.06817377710778" lon="12.010595055378326"><ele>248.00000000000003</ele><time>2026-04-12T13:57:40.999Z</time></trkpt><trkpt lat="44.068242899122374" lon="12.01061683349836"><ele>248.0</ele><time>2026-04-12T13:57:41.999Z</time></trkpt><trkpt lat="44.06831066868961" lon="12.010667735380986"><ele>248.0</ele><time>2026-04-12T13:57:42.999Z</time></trkpt><trkpt lat="44.068400532696764" lon="12.010733989980068"><ele>248.0</ele><time>2026-04-12T13:57:45Z</time></trkpt><trkpt lat="44.06846231096652" lon="12.010759160498683"><ele>248.00000000000003</ele><time>2026-04-12T13:57:47Z</time></trkpt><trkpt lat="44.06855780628667" lon="12.010627109078657"><ele>248.0</ele><time>2026-04-12T13:57:49Z</time></trkpt><trkpt lat="44.06862915260894" lon="12.010504350520126"><ele>243.60000000000002</ele><time>2026-04-12T13:57:50Z</time></trkpt><trkpt lat="44.068720914945736" lon="12.010352299092624"><ele>239.20000000000002</ele><time>2026-04-12T13:57:51Z</time></trkpt><trkpt lat="44.06878809880154" lon="12.010242190028205"><ele>234.8</ele><time>2026-04-12T13:57:52Z</time></trkpt><trkpt lat="44.06883931746297" lon="12.010152346824645"><ele>230.4</ele><time>2026-04-12T13:57:53Z</time></trkpt><trkpt lat="44.068888139606216" lon="12.01006661293058"><ele>226.0</ele><time>2026-04-12T13:57:54Z</time></trkpt><trkpt lat="44.0689586435413" lon="12.010013169841162"><ele>226.16666666666666</ele><time>2026-04-12T13:57:55Z</time></trkpt><trkpt lat="44.06902046694025" lon="12.009976884531746"><ele>226.33333333333331</ele><time>2026-04-12T13:57:56Z</time></trkpt><trkpt lat="44.06909586797617" lon="12.009958437684908"><ele>226.5</ele><time>2026-04-12T13:57:57Z</time></trkpt><trkpt lat="44.06917619194669" lon="12.009992217923186"><ele>226.66666666666669</ele><time>2026-04-12T13:57:58Z</time></trkpt><trkpt lat="44.069271955354345" lon="12.010030850410574"><ele>226.83333333333334</ele><time>2026-04-12T13:57:59Z</time></trkpt><trkpt lat="44.069349321191936" lon="12.010047004621613"><ele>227.0</ele><time>2026-04-12T13:58:00Z</time></trkpt><trkpt lat="44.06946713847678" lon="12.010066948586935"><ele>223.39999999999998</ele><time>2026-04-12T13:58:02Z</time></trkpt><trkpt lat="44.06957845033052" lon="12.01001493813331"><ele>219.79999999999998</ele><time>2026-04-12T13:58:04Z</time></trkpt><trkpt lat="44.069635270172206" lon="12.009934634526347"><ele>216.2</ele><time>2026-04-12T13:58:05Z</time></trkpt><trkpt lat="44.06968504745309" lon="12.009825603078584"><ele>212.6</ele><time>2026-04-12T13:58:06Z</time></trkpt><trkpt lat="44.06972090001104" lon="12.009717028270291"><ele>209.0</ele><time>2026-04-12T13:58:07Z</time></trkpt><trkpt lat="44.069757829047774" lon="12.009597893883539"><ele>209.00000000000003</ele><time>2026-04-12T13:58:08Z</time></trkpt><trkpt lat="44.069807880215556" lon="12.009487497315789"><ele>209.0</ele><time>2026-04-12T13:58:09Z</time></trkpt><trkpt lat="44.0698469895044" lon="12.00939373111314"><ele>209.0</ele><time>2026-04-12T13:58:10Z</time></trkpt><trkpt lat="44.06988674742424" lon="12.009283604273676"><ele>209.0</ele><time>2026-04-12T13:58:11Z</time></trkpt><trkpt lat="44.069908766714725" lon="12.009169812069102"><ele>209.00000000000003</ele><time>2026-04-12T13:58:12Z</time></trkpt><trkpt lat="44.06992237035297" lon="12.009049873937862"><ele>209.0</ele><time>2026-04-12T13:58:13Z</time></trkpt><trkpt lat="44.069931301000295" lon="12.008905578294954"><ele>206.0</ele><time>2026-04-12T13:58:14Z</time></trkpt><trkpt lat="44.069956641943776" lon="12.008770863188442"><ele>203.0</ele><time>2026-04-12T13:58:15Z</time></trkpt><trkpt lat="44.0699852446996" lon="12.008660731386232"><ele>200.0</ele><time>2026-04-12T13:58:16Z</time></trkpt><trkpt lat="44.07002651255887" lon="12.008570434661221"><ele>197.0</ele><time>2026-04-12T13:58:17Z</time></trkpt><trkpt lat="44.0700882702155" lon="12.00845714884122"><ele>194.0</ele><time>2026-04-12T13:58:18Z</time></trkpt><trkpt lat="44.07014833321647" lon="12.008334984362879"><ele>193.6</ele><time>2026-04-12T13:58:19Z</time></trkpt><trkpt lat="44.07020520898583" lon="12.008207070505511"><ele>193.2</ele><time>2026-04-12T13:58:20Z</time></trkpt><trkpt lat="44.07024265024636" lon="12.008088981649312"><ele>192.79999999999998</ele><time>2026-04-12T13:58:21Z</time></trkpt><trkpt lat="44.07028242821607" lon="12.007960000849607"><ele>192.39999999999998</ele><time>2026-04-12T13:58:22Z</time></trkpt><trkpt lat="44.07032406697247" lon="12.007809867439509"><ele>192.0</ele><time>2026-04-12T13:58:23Z</time></trkpt><trkpt lat="44.07036355987178" lon="12.00764748608243"><ele>192.0</ele><time>2026-04-12T13:58:24Z</time></trkpt><trkpt lat="44.07039449949307" lon="12.007525145253917"><ele>192.0</ele><time>2026-04-12T13:58:25Z</time></trkpt><trkpt lat="44.07042782150464" lon="12.00742529669736"><ele>192.0</ele><time>2026-04-12T13:58:26Z</time></trkpt><trkpt lat="44.07047810872612" lon="12.007343327179887"><ele>192.0</ele><time>2026-04-12T13:58:27Z</time></trkpt><trkpt lat="44.07050941721563" lon="12.007237086286604"><ele>192.0</ele><time>2026-04-12T13:58:28Z</time></trkpt><trkpt lat="44.07054640627419" lon="12.007112259633942"><ele>192.0</ele><time>2026-04-12T13:58:29Z</time></trkpt><trkpt lat="44.07056896653551" lon="12.006992161774555"><ele>190.83333333333334</ele><time>2026-04-12T13:58:30Z</time></trkpt><trkpt lat="44.07055470980747" lon="12.006879830029542"><ele>189.66666666666666</ele><time>2026-04-12T13:58:31Z</time></trkpt><trkpt lat="44.07051463561762" lon="12.006742266375015"><ele>188.5</ele><time>2026-04-12T13:58:31.999Z</time></trkpt><trkpt lat="44.0704565798531" lon="12.006632921251354"><ele>187.33333333333331</ele><time>2026-04-12T13:58:32.999Z</time></trkpt><trkpt lat="44.070407889090205" lon="12.006550051174026"><ele>186.16666666666666</ele><time>2026-04-12T13:58:33.999Z</time></trkpt><trkpt lat="44.07034383729241" lon="12.006475414342598"><ele>185.0</ele><time>2026-04-12T13:58:34.999Z</time></trkpt><trkpt lat="44.07025929970665" lon="12.006418040194475"><ele>184.16666666666666</ele><time>2026-04-12T13:58:35.999Z</time></trkpt><trkpt lat="44.07017910882619" lon="12.006388950636032"><ele>183.33333333333331</ele><time>2026-04-12T13:58:36.999Z</time></trkpt><trkpt lat="44.07011929587871" lon="12.006340163083374"><ele>182.5</ele><time>2026-04-12T13:58:37.999Z</time></trkpt><trkpt lat="44.070092378884915" lon="12.006249818221253"><ele>181.66666666666666</ele><time>2026-04-12T13:58:38.999Z</time></trkpt><trkpt lat="44.070111654075575" lon="12.006146711632615"><ele>180.83333333333334</ele><time>2026-04-12T13:58:39.999Z</time></trkpt><trkpt lat="44.07018296490412" lon="12.006082682028572"><ele>180.0</ele><time>2026-04-12T13:58:40.999Z</time></trkpt><trkpt lat="44.070259475136936" lon="12.006079027046932"><ele>180.0</ele><time>2026-04-12T13:58:41.999Z</time></trkpt><trkpt lat="44.07035865741669" lon="12.00601061637712"><ele>180.0</ele><time>2026-04-12T13:58:42.999Z</time></trkpt><trkpt lat="44.07048359917889" lon="12.005928782651768"><ele>180.0</ele><time>2026-04-12T13:58:43.999Z</time></trkpt><trkpt lat="44.0706245280518" lon="12.005862034572177"><ele>180.0</ele><time>2026-04-12T13:58:44.999Z</time></trkpt><trkpt lat="44.0707346164485" lon="12.005869929771979"><ele>178.0</ele><time>2026-04-12T13:58:45.999Z</time></trkpt><trkpt lat="44.0708477196874" lon="12.005887227806449"><ele>176.0</ele><time>2026-04-12T13:58:46.999Z</time></trkpt><trkpt lat="44.07097337763738" lon="12.00588854762812"><ele>174.0</ele><time>2026-04-12T13:58:47.999Z</time></trkpt><trkpt lat="44.07111018420895" lon="12.005906098009755"><ele>172.0</ele><time>2026-04-12T13:58:48.999Z</time></trkpt><trkpt lat="44.07122714939639" lon="12.00592498385964"><ele>172.0</ele><time>2026-04-12T13:58:49.999Z</time></trkpt><trkpt lat="44.071319801190405" lon="12.005946755383569"><ele>172.0</ele><time>2026-04-12T13:58:50.999Z</time></trkpt><trkpt lat="44.07139081058512" lon="12.005924382938458"><ele>172.0</ele><time>2026-04-12T13:58:51.999Z</time></trkpt><trkpt lat="44.07144283010935" lon="12.005855790616202"><ele>172.0</ele><time>2026-04-12T13:58:52.999Z</time></trkpt><trkpt lat="44.07147619343785" lon="12.005740713542487"><ele>172.0</ele><time>2026-04-12T13:58:53.999Z</time></trkpt><trkpt lat="44.071464965789076" lon="12.005610849417664"><ele>172.0</ele><time>2026-04-12T13:58:54.999Z</time></trkpt><trkpt lat="44.071411598287014" lon="12.005489254241608"><ele>174.25</ele><time>2026-04-12T13:58:55.999Z</time></trkpt><trkpt lat="44.071342409374935" lon="12.005398189835304"><ele>176.5</ele><time>2026-04-12T13:58:56.999Z</time></trkpt><trkpt lat="44.07129293400824" lon="12.005242639217501"><ele>178.75</ele><time>2026-04-12T13:58:57.999Z</time></trkpt><trkpt lat="44.07125165588315" lon="12.00505328935498"><ele>181.0</ele><time>2026-04-12T13:58:58.999Z</time></trkpt><trkpt lat="44.07120181617876" lon="12.004902961527051"><ele>184.66666666666669</ele><time>2026-04-12T13:58:59.999Z</time></trkpt><trkpt lat="44.07114967333447" lon="12.004731305311326"><ele>188.33333333333334</ele><time>2026-04-12T13:59:00.999Z</time></trkpt><trkpt lat="44.07109860740474" lon="12.004513922828806"><ele>192.0</ele><time>2026-04-12T13:59:01.999Z</time></trkpt><trkpt lat="44.07106263159307" lon="12.004296147698044"><ele>195.33333333333331</ele><time>2026-04-12T13:59:02.999Z</time></trkpt><trkpt lat="44.071033676754375" lon="12.00407893937219"><ele>198.66666666666666</ele><time>2026-04-12T13:59:03.999Z</time></trkpt><trkpt lat="44.07100020065962" lon="12.00386014377289"><ele>202.0</ele><time>2026-04-12T13:59:04.999Z</time></trkpt><trkpt lat="44.07095108857554" lon="12.003620276788627"><ele>202.0</ele><time>2026-04-12T13:59:05.999Z</time></trkpt><trkpt lat="44.0709073836198" lon="12.003411010953036"><ele>202.0</ele><time>2026-04-12T13:59:06.999Z</time></trkpt><trkpt lat="44.070876351101255" lon="12.003218886333169"><ele>202.0</ele><time>2026-04-12T13:59:07.999Z</time></trkpt><trkpt lat="44.07078837297303" lon="12.003061567890649"><ele>202.0</ele><time>2026-04-12T13:59:08.999Z</time></trkpt><trkpt lat="44.07070212820341" lon="12.00291182956708"><ele>203.75</ele><time>2026-04-12T13:59:09.999Z</time></trkpt><trkpt lat="44.070619306361216" lon="12.00274590891578"><ele>205.5</ele><time>2026-04-12T13:59:10.999Z</time></trkpt><trkpt lat="44.07053600648834" lon="12.002583480117258"><ele>207.25</ele><time>2026-04-12T13:59:11.999Z</time></trkpt><trkpt lat="44.07045479604328" lon="12.002414228364552"><ele>209.0</ele><time>2026-04-12T13:59:12.999Z</time></trkpt><trkpt lat="44.070370588697955" lon="12.002240324330732"><ele>213.0</ele><time>2026-04-12T13:59:13.999Z</time></trkpt><trkpt lat="44.07026405402387" lon="12.002082612030657"><ele>217.0</ele><time>2026-04-12T13:59:14.999Z</time></trkpt><trkpt lat="44.070181789333496" lon="12.001897485220343"><ele>221.0</ele><time>2026-04-12T13:59:15.999Z</time></trkpt><trkpt lat="44.07009290456171" lon="12.001722488965243"><ele>223.25</ele><time>2026-04-12T13:59:16.999Z</time></trkpt><trkpt lat="44.070005449497984" lon="12.001550097719273"><ele>225.5</ele><time>2026-04-12T13:59:17.999Z</time></trkpt><trkpt lat="44.06991229664645" lon="12.001397616481775"><ele>227.75</ele><time>2026-04-12T13:59:18.999Z</time></trkpt><trkpt lat="44.06984193211074" lon="12.001240312202858"><ele>230.0</ele><time>2026-04-12T13:59:19.999Z</time></trkpt><trkpt lat="44.06979862855945" lon="12.001103548313102"><ele>230.6</ele><time>2026-04-12T13:59:20.999Z</time></trkpt><trkpt lat="44.069757633022675" lon="12.000971034943746"><ele>231.2</ele><time>2026-04-12T13:59:21.999Z</time></trkpt><trkpt lat="44.069735396214824" lon="12.000825542350315"><ele>231.8</ele><time>2026-04-12T13:59:22.999Z</time></trkpt><trkpt lat="44.069739792600714" lon="12.000695295744132"><ele>232.4</ele><time>2026-04-12T13:59:23.999Z</time></trkpt><trkpt lat="44.069787787323556" lon="12.000592572160006"><ele>233.0</ele><time>2026-04-12T13:59:24.999Z</time></trkpt><trkpt lat="44.069849865474026" lon="12.000509927776779"><ele>235.2</ele><time>2026-04-12T13:59:25.999Z</time></trkpt><trkpt lat="44.0699227935142" lon="12.000415616311129"><ele>237.4</ele><time>2026-04-12T13:59:26.999Z</time></trkpt><trkpt lat="44.069978985274716" lon="12.000343272467031"><ele>239.59999999999997</ele><time>2026-04-12T13:59:27.999Z</time></trkpt><trkpt lat="44.07005859759959" lon="12.00024143199293"><ele>241.79999999999998</ele><time>2026-04-12T13:59:28.999Z</time></trkpt><trkpt lat="44.070144023645376" lon="12.000098654445404"><ele>244.0</ele><time>2026-04-12T13:59:29.999Z</time></trkpt><trkpt lat="44.070250670853554" lon="11.999960419188298"><ele>244.0</ele><time>2026-04-12T13:59:30.999Z</time></trkpt><trkpt lat="44.07033536135213" lon="11.99985762819165"><ele>244.0</ele><time>2026-04-12T13:59:31.999Z</time></trkpt><trkpt lat="44.070428504494146" lon="11.999723525627115"><ele>244.0</ele><time>2026-04-12T13:59:32.999Z</time></trkpt><trkpt lat="44.07051496193161" lon="11.99957111234765"><ele>244.0</ele><time>2026-04-12T13:59:33.999Z</time></trkpt><trkpt lat="44.07058552063548" lon="11.999426979786994"><ele>244.0</ele><time>2026-04-12T13:59:34.999Z</time></trkpt><trkpt lat="44.070638948982726" lon="11.999271258366827"><ele>243.99999999999997</ele><time>2026-04-12T13:59:35.999Z</time></trkpt><trkpt lat="44.07066849903841" lon="11.999153067757929"><ele>243.99999999999997</ele><time>2026-04-12T13:59:36.999Z</time></trkpt><trkpt lat="44.07065105846594" lon="11.998996764198703"><ele>244.0</ele><time>2026-04-12T13:59:38.999Z</time></trkpt><trkpt lat="44.07059388496382" lon="11.99891968617914"><ele>244.0</ele><time>2026-04-12T13:59:39.999Z</time></trkpt><trkpt lat="44.07051256491313" lon="11.998887712165013"><ele>247.0</ele><time>2026-04-12T13:59:40.999Z</time></trkpt><trkpt lat="44.07042398906367" lon="11.998900505773497"><ele>250.0</ele><time>2026-04-12T13:59:41.999Z</time></trkpt><trkpt lat="44.070312126343666" lon="11.998938164423386"><ele>253.0</ele><time>2026-04-12T13:59:42.999Z</time></trkpt><trkpt lat="44.07019210656717" lon="11.998923383845634"><ele>256.0</ele><time>2026-04-12T13:59:43.999Z</time></trkpt><trkpt lat="44.07005254621642" lon="11.998922400254234"><ele>255.5</ele><time>2026-04-12T13:59:44.999Z</time></trkpt><trkpt lat="44.06988755417245" lon="11.998918341931349"><ele>255.0</ele><time>2026-04-12T13:59:45.999Z</time></trkpt><trkpt lat="44.069729966800736" lon="11.99890528343388"><ele>254.5</ele><time>2026-04-12T13:59:46.999Z</time></trkpt><trkpt lat="44.06961987160069" lon="11.998874831494614"><ele>254.0</ele><time>2026-04-12T13:59:47.999Z</time></trkpt><trkpt lat="44.069545045411964" lon="11.998835914042719"><ele>254.0</ele><time>2026-04-12T13:59:48.999Z</time></trkpt><trkpt lat="44.069473865839285" lon="11.99877287833062"><ele>254.0</ele><time>2026-04-12T13:59:49.999Z</time></trkpt><trkpt lat="44.069391307693586" lon="11.99863841602582"><ele>254.0</ele><time>2026-04-12T13:59:51Z</time></trkpt><trkpt lat="44.06930683695686" lon="11.9985235707942"><ele>254.0</ele><time>2026-04-12T13:59:52Z</time></trkpt><trkpt lat="44.06923289490554" lon="11.998386354406144"><ele>257.0</ele><time>2026-04-12T13:59:53Z</time></trkpt><trkpt lat="44.069154643239486" lon="11.998277551235926"><ele>260.0</ele><time>2026-04-12T13:59:54Z</time></trkpt><trkpt lat="44.069069624342276" lon="11.99814389241121"><ele>263.0</ele><time>2026-04-12T13:59:55Z</time></trkpt><trkpt lat="44.069006097176086" lon="11.998015679261885"><ele>266.0</ele><time>2026-04-12T13:59:56Z</time></trkpt><trkpt lat="44.068959285563025" lon="11.997907006003587"><ele>269.0</ele><time>2026-04-12T13:59:57Z</time></trkpt><trkpt lat="44.06893070745418" lon="11.997812149707563"><ele>269.2</ele><time>2026-04-12T13:59:58Z</time></trkpt><trkpt lat="44.06891935951316" lon="11.997707897425071"><ele>269.4</ele><time>2026-04-12T13:59:59Z</time></trkpt><trkpt lat="44.06892364165354" lon="11.99756841845062"><ele>269.6</ele><time>2026-04-12T14:00:00Z</time></trkpt><trkpt lat="44.06892536142718" lon="11.997407322064852"><ele>269.8</ele><time>2026-04-12T14:00:01Z</time></trkpt><trkpt lat="44.06890860888528" lon="11.99723127069904"><ele>270.0</ele><time>2026-04-12T14:00:02Z</time></trkpt><trkpt lat="44.068906023223356" lon="11.997039275392966"><ele>271.0</ele><time>2026-04-12T14:00:03Z</time></trkpt><trkpt lat="44.068906954014054" lon="11.99683652037445"><ele>272.0</ele><time>2026-04-12T14:00:04Z</time></trkpt><trkpt lat="44.06892787901713" lon="11.996666030871546"><ele>273.0</ele><time>2026-04-12T14:00:05Z</time></trkpt><trkpt lat="44.06891845149213" lon="11.996505576955675"><ele>274.0</ele><time>2026-04-12T14:00:06Z</time></trkpt><trkpt lat="44.06893028488594" lon="11.996346841736104"><ele>275.2</ele><time>2026-04-12T14:00:07Z</time></trkpt><trkpt lat="44.068910301317985" lon="11.996189835939562"><ele>276.4</ele><time>2026-04-12T14:00:08Z</time></trkpt><trkpt lat="44.06886017956229" lon="11.99607696701694"><ele>277.6</ele><time>2026-04-12T14:00:09Z</time></trkpt><trkpt lat="44.068793498795905" lon="11.99601699310786"><ele>278.8</ele><time>2026-04-12T14:00:10Z</time></trkpt><trkpt lat="44.06870885946714" lon="11.995976233779661"><ele>280.0</ele><time>2026-04-12T14:00:11Z</time></trkpt><trkpt lat="44.068604215918974" lon="11.995909223849061"><ele>282.0</ele><time>2026-04-12T14:00:12Z</time></trkpt><trkpt lat="44.06849495217997" lon="11.995823729014665"><ele>284.0</ele><time>2026-04-12T14:00:13Z</time></trkpt><trkpt lat="44.06840287550948" lon="11.995732653632645"><ele>286.0</ele><time>2026-04-12T14:00:14Z</time></trkpt><trkpt lat="44.068324780415495" lon="11.995682930092709"><ele>288.0</ele><time>2026-04-12T14:00:15Z</time></trkpt><trkpt lat="44.0682680557781" lon="11.995642648049138"><ele>290.0</ele><time>2026-04-12T14:00:16Z</time></trkpt><trkpt lat="44.068214180003714" lon="11.995574597142843"><ele>290.0</ele><time>2026-04-12T14:00:17Z</time></trkpt><trkpt lat="44.06825413578" lon="11.99542902050377"><ele>290.0</ele><time>2026-04-12T14:00:19Z</time></trkpt><trkpt lat="44.06832974314721" lon="11.995404764290138"><ele>290.0</ele><time>2026-04-12T14:00:20Z</time></trkpt><trkpt lat="44.06839549151121" lon="11.995391428240406"><ele>290.0</ele><time>2026-04-12T14:00:21Z</time></trkpt><trkpt lat="44.06851665980044" lon="11.995324316427743"><ele>290.0</ele><time>2026-04-12T14:00:23Z</time></trkpt><trkpt lat="44.06861575421927" lon="11.995320120407177"><ele>290.0</ele><time>2026-04-12T14:00:24Z</time></trkpt><trkpt lat="44.068720968195045" lon="11.995319979941863"><ele>290.0</ele><time>2026-04-12T14:00:25Z</time></trkpt><trkpt lat="44.06884214900808" lon="11.995324362553129"><ele>290.0</ele><time>2026-04-12T14:00:26Z</time></trkpt><trkpt lat="44.06897469921028" lon="11.99529505548736"><ele>290.0</ele><time>2026-04-12T14:00:27Z</time></trkpt><trkpt lat="44.06910920564795" lon="11.995281405500936"><ele>291.0</ele><time>2026-04-12T14:00:28Z</time></trkpt><trkpt lat="44.06921071953308" lon="11.995269633011759"><ele>292.0</ele><time>2026-04-12T14:00:29Z</time></trkpt><trkpt lat="44.069294475756365" lon="11.995364944596783"><ele>293.0</ele><time>2026-04-12T14:00:30Z</time></trkpt><trkpt lat="44.06934188764322" lon="11.995456336336462"><ele>294.0</ele><time>2026-04-12T14:00:31Z</time></trkpt><trkpt lat="44.06940190493334" lon="11.99557479949978"><ele>295.0</ele><time>2026-04-12T14:00:32Z</time></trkpt><trkpt lat="44.06949367071725" lon="11.995670650817994"><ele>295.0</ele><time>2026-04-12T14:00:33Z</time></trkpt><trkpt lat="44.069552985717856" lon="11.995735215053136"><ele>295.0</ele><time>2026-04-12T14:00:34Z</time></trkpt><trkpt lat="44.06962310970779" lon="11.995745325206554"><ele>295.0</ele><time>2026-04-12T14:00:35Z</time></trkpt><trkpt lat="44.069702137813294" lon="11.995681058558471"><ele>295.0</ele><time>2026-04-12T14:00:36Z</time></trkpt><trkpt lat="44.06979560392166" lon="11.99561848713036"><ele>295.0</ele><time>2026-04-12T14:00:37Z</time></trkpt><trkpt lat="44.069859787065404" lon="11.995514831841543"><ele>295.0</ele><time>2026-04-12T14:00:38Z</time></trkpt><trkpt lat="44.06988966745655" lon="11.995411875479096"><ele>295.0</ele><time>2026-04-12T14:00:39Z</time></trkpt><trkpt lat="44.06988091861763" lon="11.995312328053227"><ele>295.0</ele><time>2026-04-12T14:00:40Z</time></trkpt><trkpt lat="44.06983822363523" lon="11.995206991781167"><ele>295.0</ele><time>2026-04-12T14:00:41Z</time></trkpt><trkpt lat="44.06977413697506" lon="11.995076639062804"><ele>295.0</ele><time>2026-04-12T14:00:42Z</time></trkpt><trkpt lat="44.06969952561285" lon="11.99492501904751"><ele>295.0</ele><time>2026-04-12T14:00:43Z</time></trkpt><trkpt lat="44.06963615600213" lon="11.994762612506811"><ele>297.75</ele><time>2026-04-12T14:00:44Z</time></trkpt><trkpt lat="44.06960932235059" lon="11.994626071780289"><ele>300.5</ele><time>2026-04-12T14:00:45Z</time></trkpt><trkpt lat="44.06958823473588" lon="11.994472803854107"><ele>303.25</ele><time>2026-04-12T14:00:46Z</time></trkpt><trkpt lat="44.069581765284575" lon="11.994282159630401"><ele>306.0</ele><time>2026-04-12T14:00:47Z</time></trkpt><trkpt lat="44.06958171795007" lon="11.99406098392651"><ele>310.3333333333333</ele><time>2026-04-12T14:00:48Z</time></trkpt><trkpt lat="44.069584060361045" lon="11.993808033889529"><ele>314.66666666666663</ele><time>2026-04-12T14:00:49Z</time></trkpt><trkpt lat="44.06958413994212" lon="11.993561874481427"><ele>319.0</ele><time>2026-04-12T14:00:50Z</time></trkpt><trkpt lat="44.069585437519976" lon="11.993322433613367"><ele>322.25</ele><time>2026-04-12T14:00:51Z</time></trkpt><trkpt lat="44.069581738919354" lon="11.993086675540114"><ele>325.5</ele><time>2026-04-12T14:00:52Z</time></trkpt><trkpt lat="44.06958760014459" lon="11.992908344903856"><ele>328.75</ele><time>2026-04-12T14:00:53Z</time></trkpt><trkpt lat="44.06961551927967" lon="11.992764410550864"><ele>332.0</ele><time>2026-04-12T14:00:54Z</time></trkpt><trkpt lat="44.069636822511924" lon="11.992634807212507"><ele>332.0</ele><time>2026-04-12T14:00:55Z</time></trkpt><trkpt lat="44.06965696266193" lon="11.992511301396858"><ele>332.0</ele><time>2026-04-12T14:00:56Z</time></trkpt><trkpt lat="44.0696654577939" lon="11.99236031377144"><ele>332.0</ele><time>2026-04-12T14:00:57Z</time></trkpt><trkpt lat="44.06970993294605" lon="11.992186499543234"><ele>332.0</ele><time>2026-04-12T14:00:58Z</time></trkpt><trkpt lat="44.06975083783966" lon="11.992052211196656"><ele>332.0</ele><time>2026-04-12T14:00:59Z</time></trkpt><trkpt lat="44.069809043136395" lon="11.991961822913588"><ele>330.5</ele><time>2026-04-12T14:01:00Z</time></trkpt><trkpt lat="44.06987948368259" lon="11.991862511001418"><ele>329.0</ele><time>2026-04-12T14:01:01Z</time></trkpt><trkpt lat="44.06996615371965" lon="11.991774372006777"><ele>327.5</ele><time>2026-04-12T14:01:01.999Z</time></trkpt><trkpt lat="44.070083606038914" lon="11.991714445071791"><ele>326.0</ele><time>2026-04-12T14:01:02.999Z</time></trkpt><trkpt lat="44.0702329118085" lon="11.991628252338957"><ele>330.0</ele><time>2026-04-12T14:01:03.999Z</time></trkpt><trkpt lat="44.070358132559065" lon="11.991574551761827"><ele>334.0</ele><time>2026-04-12T14:01:04.999Z</time></trkpt><trkpt lat="44.07047921475081" lon="11.99156189479925"><ele>338.0</ele><time>2026-04-12T14:01:05.999Z</time></trkpt><trkpt lat="44.070626047391144" lon="11.991535101894247"><ele>342.0</ele><time>2026-04-12T14:01:06.999Z</time></trkpt><trkpt lat="44.07075264148019" lon="11.991486139503818"><ele>340.6</ele><time>2026-04-12T14:01:07.999Z</time></trkpt><trkpt lat="44.07085238409422" lon="11.991466213090645"><ele>339.20000000000005</ele><time>2026-04-12T14:01:08.999Z</time></trkpt><trkpt lat="44.07092961995763" lon="11.991426272406132"><ele>337.8</ele><time>2026-04-12T14:01:09.999Z</time></trkpt><trkpt lat="44.07099452502172" lon="11.991343214663198"><ele>336.4</ele><time>2026-04-12T14:01:10.999Z</time></trkpt><trkpt lat="44.07105965252047" lon="11.991226279000758"><ele>335.0</ele><time>2026-04-12T14:01:11.999Z</time></trkpt><trkpt lat="44.07111984895111" lon="11.991097852307064"><ele>335.0</ele><time>2026-04-12T14:01:12.999Z</time></trkpt><trkpt lat="44.07119533579153" lon="11.99098810772612"><ele>335.0</ele><time>2026-04-12T14:01:13.999Z</time></trkpt><trkpt lat="44.071277307484095" lon="11.990893081504161"><ele>335.0</ele><time>2026-04-12T14:01:14.999Z</time></trkpt><trkpt lat="44.07135766458209" lon="11.990856577653506"><ele>335.0</ele><time>2026-04-12T14:01:15.999Z</time></trkpt><trkpt lat="44.071420430736254" lon="11.990927460082222"><ele>335.0</ele><time>2026-04-12T14:01:16.999Z</time></trkpt><trkpt lat="44.0714964898767" lon="11.990963870243402"><ele>335.0</ele><time>2026-04-12T14:01:17.999Z</time></trkpt><trkpt lat="44.07157623692389" lon="11.990997000896112"><ele>335.0</ele><time>2026-04-12T14:01:18.999Z</time></trkpt><trkpt lat="44.071667154841805" lon="11.991032918985393"><ele>335.0</ele><time>2026-04-12T14:01:19.999Z</time></trkpt><trkpt lat="44.07174699858332" lon="11.991044794300088"><ele>335.0</ele><time>2026-04-12T14:01:20.999Z</time></trkpt><trkpt lat="44.07180989671914" lon="11.991089744908649"><ele>335.0</ele><time>2026-04-12T14:01:21.999Z</time></trkpt><trkpt lat="44.07187961625364" lon="11.991127855425034"><ele>335.0</ele><time>2026-04-12T14:01:22.999Z</time></trkpt><trkpt lat="44.07197451087592" lon="11.991063650546996"><ele>334.8</ele><time>2026-04-12T14:02:08Z</time></trkpt><trkpt lat="44.07204582057522" lon="11.99106018073892"><ele>334.6</ele><time>2026-04-12T14:02:09Z</time></trkpt><trkpt lat="44.07210500014898" lon="11.991018122398012"><ele>334.4</ele><time>2026-04-12T14:02:10Z</time></trkpt><trkpt lat="44.0722238518709" lon="11.991019506404859"><ele>334.2</ele><time>2026-04-12T14:02:11Z</time></trkpt><trkpt lat="44.07234136903771" lon="11.990981225412098"><ele>334.0</ele><time>2026-04-12T14:02:12Z</time></trkpt><trkpt lat="44.07245461880623" lon="11.990989852970314"><ele>336.0</ele><time>2026-04-12T14:02:13Z</time></trkpt><trkpt lat="44.072545439708264" lon="11.99103630126524"><ele>338.0</ele><time>2026-04-12T14:02:14Z</time></trkpt><trkpt lat="44.07263520765081" lon="11.991068353573043"><ele>340.0</ele><time>2026-04-12T14:02:15Z</time></trkpt><trkpt lat="44.07281900195423" lon="11.99114032183571"><ele>342.0</ele><time>2026-04-12T14:02:16Z</time></trkpt><trkpt lat="44.07292445074209" lon="11.991196018141338"><ele>342.0</ele><time>2026-04-12T14:02:17Z</time></trkpt><trkpt lat="44.07302400164504" lon="11.991213324645335"><ele>342.0</ele><time>2026-04-12T14:02:18Z</time></trkpt><trkpt lat="44.07313326286568" lon="11.99119117801017"><ele>342.0</ele><time>2026-04-12T14:02:19Z</time></trkpt><trkpt lat="44.07325100242814" lon="11.991138557706043"><ele>342.0</ele><time>2026-04-12T14:02:20Z</time></trkpt><trkpt lat="44.07336229248481" lon="11.991063273573369"><ele>343.0</ele><time>2026-04-12T14:02:21Z</time></trkpt><trkpt lat="44.073476641045694" lon="11.990974806994355"><ele>344.0</ele><time>2026-04-12T14:02:22Z</time></trkpt><trkpt lat="44.07360128264365" lon="11.990862002709175"><ele>345.0</ele><time>2026-04-12T14:02:23Z</time></trkpt><trkpt lat="44.073719145816945" lon="11.99079840657156"><ele>346.0</ele><time>2026-04-12T14:02:24Z</time></trkpt><trkpt lat="44.07383837757671" lon="11.990717067347187"><ele>351.0</ele><time>2026-04-12T14:02:25Z</time></trkpt><trkpt lat="44.07396648652397" lon="11.990582577046036"><ele>356.0</ele><time>2026-04-12T14:02:26Z</time></trkpt><trkpt lat="44.074105658095185" lon="11.990442111109893"><ele>361.0</ele><time>2026-04-12T14:02:27Z</time></trkpt><trkpt lat="44.07423224320384" lon="11.990328147055557"><ele>361.0</ele><time>2026-04-12T14:02:28Z</time></trkpt><trkpt lat="44.07435963430885" lon="11.990228451824287"><ele>361.0</ele><time>2026-04-12T14:02:29Z</time></trkpt><trkpt lat="44.074479867789286" lon="11.990111278112785"><ele>361.0</ele><time>2026-04-12T14:02:30Z</time></trkpt><trkpt lat="44.07458553825571" lon="11.989984436123674"><ele>361.0</ele><time>2026-04-12T14:02:31Z</time></trkpt><trkpt lat="44.07469945071847" lon="11.989877959043385"><ele>361.75</ele><time>2026-04-12T14:02:32Z</time></trkpt><trkpt lat="44.074810777523524" lon="11.989777639895296"><ele>362.5</ele><time>2026-04-12T14:02:33Z</time></trkpt><trkpt lat="44.07489989680756" lon="11.989698227497238"><ele>363.25</ele><time>2026-04-12T14:02:34Z</time></trkpt><trkpt lat="44.07502338235326" lon="11.989588192063858"><ele>364.0</ele><time>2026-04-12T14:02:35Z</time></trkpt><trkpt lat="44.07515434700498" lon="11.989468090992245"><ele>364.0</ele><time>2026-04-12T14:02:36Z</time></trkpt><trkpt lat="44.07526161979512" lon="11.98936337529295"><ele>364.0</ele><time>2026-04-12T14:02:37Z</time></trkpt><trkpt lat="44.07535596149566" lon="11.989261344850222"><ele>364.0</ele><time>2026-04-12T14:02:38Z</time></trkpt><trkpt lat="44.07547076521125" lon="11.989150846153557"><ele>364.0</ele><time>2026-04-12T14:02:39Z</time></trkpt><trkpt lat="44.07554022074995" lon="11.989060383760195"><ele>366.0</ele><time>2026-04-12T14:02:40Z</time></trkpt><trkpt lat="44.075620082132076" lon="11.989019016671625"><ele>368.0</ele><time>2026-04-12T14:02:41Z</time></trkpt><trkpt lat="44.075723974333776" lon="11.98908575911465"><ele>370.0</ele><time>2026-04-12T14:02:42Z</time></trkpt><trkpt lat="44.07584130448665" lon="11.989106087106686"><ele>372.0</ele><time>2026-04-12T14:02:43Z</time></trkpt><trkpt lat="44.075948830311624" lon="11.989122651251197"><ele>374.0</ele><time>2026-04-12T14:02:44Z</time></trkpt><trkpt lat="44.076047818092675" lon="11.989132655240136"><ele>374.0</ele><time>2026-04-12T14:02:45Z</time></trkpt><trkpt lat="44.0761438548917" lon="11.98904659473918"><ele>374.0</ele><time>2026-04-12T14:02:46Z</time></trkpt><trkpt lat="44.07624969277373" lon="11.988968679853192"><ele>374.0</ele><time>2026-04-12T14:02:47Z</time></trkpt><trkpt lat="44.07632670931067" lon="11.988834136387164"><ele>374.0</ele><time>2026-04-12T14:02:48Z</time></trkpt><trkpt lat="44.07640037183708" lon="11.988686259539364"><ele>374.0</ele><time>2026-04-12T14:02:49Z</time></trkpt><trkpt lat="44.07649199989736" lon="11.988596947563583"><ele>374.0</ele><time>2026-04-12T14:02:50Z</time></trkpt><trkpt lat="44.076561198771074" lon="11.988528024042171"><ele>374.0</ele><time>2026-04-12T14:02:51Z</time></trkpt><trkpt lat="44.07664466765596" lon="11.98852525731069"><ele>374.0</ele><time>2026-04-12T14:02:52Z</time></trkpt><trkpt lat="44.07673608206755" lon="11.98859712585913"><ele>374.0</ele><time>2026-04-12T14:02:53Z</time></trkpt><trkpt lat="44.076809622727325" lon="11.98865692369881"><ele>373.79999999999995</ele><time>2026-04-12T14:02:54Z</time></trkpt><trkpt lat="44.07687898667044" lon="11.988723624151428"><ele>373.59999999999997</ele><time>2026-04-12T14:02:55Z</time></trkpt><trkpt lat="44.07695667438623" lon="11.988849568047184"><ele>373.4</ele><time>2026-04-12T14:02:56Z</time></trkpt><trkpt lat="44.07703544463784" lon="11.988966960856436"><ele>373.2</ele><time>2026-04-12T14:02:57Z</time></trkpt><trkpt lat="44.077134753083556" lon="11.98908387309463"><ele>373.0</ele><time>2026-04-12T14:02:58Z</time></trkpt><trkpt lat="44.07720533013086" lon="11.989230153479468"><ele>373.16666666666663</ele><time>2026-04-12T14:02:59Z</time></trkpt><trkpt lat="44.077251620757146" lon="11.989342344494371"><ele>373.3333333333333</ele><time>2026-04-12T14:03:00Z</time></trkpt><trkpt lat="44.0772780516413" lon="11.989465852998253"><ele>373.5</ele><time>2026-04-12T14:03:01Z</time></trkpt><trkpt lat="44.07730996836384" lon="11.989572910129604"><ele>373.6666666666667</ele><time>2026-04-12T14:03:02Z</time></trkpt><trkpt lat="44.0773618576334" lon="11.98964776737784"><ele>373.83333333333337</ele><time>2026-04-12T14:03:03Z</time></trkpt><trkpt lat="44.07740757463148" lon="11.98975888483655"><ele>374.0</ele><time>2026-04-12T14:03:05Z</time></trkpt><trkpt lat="44.077470830595225" lon="11.989752607819577"><ele>374.0</ele><time>2026-04-12T14:03:08Z</time></trkpt><trkpt lat="44.07751411152482" lon="11.98964718006302"><ele>374.0</ele><time>2026-04-12T14:03:09Z</time></trkpt><trkpt lat="44.077526636641444" lon="11.989512022765092"><ele>374.0</ele><time>2026-04-12T14:03:10Z</time></trkpt><trkpt lat="44.07753859112201" lon="11.989387393552937"><ele>374.0</ele><time>2026-04-12T14:03:10.999Z</time></trkpt><trkpt lat="44.07754921716222" lon="11.989256485589523"><ele>374.0</ele><time>2026-04-12T14:03:11.999Z</time></trkpt><trkpt lat="44.077539128782995" lon="11.989168549041908"><ele>374.0</ele><time>2026-04-12T14:03:12.999Z</time></trkpt><trkpt lat="44.07751341128951" lon="11.989078345207336"><ele>373.5</ele><time>2026-04-12T14:03:13.999Z</time></trkpt><trkpt lat="44.07751614978102" lon="11.988901866275333"><ele>373.0</ele><time>2026-04-12T14:03:15.999Z</time></trkpt><trkpt lat="44.07753355198403" lon="11.988814641363938"><ele>372.5</ele><time>2026-04-12T14:03:16.999Z</time></trkpt><trkpt lat="44.07755773814692" lon="11.988733733672325"><ele>372.0</ele><time>2026-04-12T14:03:17.999Z</time></trkpt><trkpt lat="44.07760748767601" lon="11.98866656448099"><ele>371.5</ele><time>2026-04-12T14:03:18.999Z</time></trkpt><trkpt lat="44.07766447865754" lon="11.988582122025809"><ele>371.0</ele><time>2026-04-12T14:03:20.999Z</time></trkpt><trkpt lat="44.077716521543316" lon="11.9885197836149"><ele>371.0</ele><time>2026-04-12T14:03:21.999Z</time></trkpt><trkpt lat="44.07780119277687" lon="11.988428710422454"><ele>371.0</ele><time>2026-04-12T14:03:23.999Z</time></trkpt><trkpt lat="44.077855207789796" lon="11.988358292535882"><ele>371.0</ele><time>2026-04-12T14:03:24.999Z</time></trkpt><trkpt lat="44.077952252617614" lon="11.988278595938036"><ele>371.0</ele><time>2026-04-12T14:03:25.999Z</time></trkpt><trkpt lat="44.078010967296755" lon="11.988222493849856"><ele>371.0</ele><time>2026-04-12T14:03:26.999Z</time></trkpt><trkpt lat="44.0780729859383" lon="11.988172696328121"><ele>371.0</ele><time>2026-04-12T14:03:28.999Z</time></trkpt><trkpt lat="44.078179130133776" lon="11.988120381779963"><ele>367.0</ele><time>2026-04-12T14:03:30.999Z</time></trkpt><trkpt lat="44.07831897207037" lon="11.988113161040413"><ele>363.0</ele><time>2026-04-12T14:03:32.999Z</time></trkpt><trkpt lat="44.07842440406003" lon="11.988095545931925"><ele>359.0</ele><time>2026-04-12T14:03:34.999Z</time></trkpt><trkpt lat="44.07853913542458" lon="11.988050179547937"><ele>355.0</ele><time>2026-04-12T14:03:36.999Z</time></trkpt><trkpt lat="44.07860302612637" lon="11.987978999700672"><ele>351.0</ele><time>2026-04-12T14:03:37.999Z</time></trkpt><trkpt lat="44.07864327960775" lon="11.987870827990644"><ele>351.0</ele><time>2026-04-12T14:03:39.999Z</time></trkpt><trkpt lat="44.07870911366994" lon="11.987776262456181"><ele>351.0</ele><time>2026-04-12T14:03:42.999Z</time></trkpt><trkpt lat="44.078797587234014" lon="11.987746910633868"><ele>351.0</ele><time>2026-04-12T14:03:44.999Z</time></trkpt><trkpt lat="44.07888085785236" lon="11.987685092828485"><ele>351.0</ele><time>2026-04-12T14:03:45.999Z</time></trkpt><trkpt lat="44.07894117906927" lon="11.987640312063474"><ele>351.0</ele><time>2026-04-12T14:03:46.999Z</time></trkpt><trkpt lat="44.079008759147015" lon="11.987587454423972"><ele>351.0</ele><time>2026-04-12T14:03:47.999Z</time></trkpt><trkpt lat="44.079059883150606" lon="11.987524819979042"><ele>348.3333333333333</ele><time>2026-04-12T14:03:48.999Z</time></trkpt><trkpt lat="44.07913209803264" lon="11.987496656738799"><ele>345.6666666666667</ele><time>2026-04-12T14:03:49.999Z</time></trkpt><trkpt lat="44.079202420745766" lon="11.9874330981507"><ele>343.0</ele><time>2026-04-12T14:03:50.999Z</time></trkpt><trkpt lat="44.07926658307645" lon="11.98735139103403"><ele>340.33333333333337</ele><time>2026-04-12T14:03:52.999Z</time></trkpt><trkpt lat="44.07933319632175" lon="11.987295867866735"><ele>337.6666666666667</ele><time>2026-04-12T14:03:54.999Z</time></trkpt><trkpt lat="44.07941558236535" lon="11.987241663859368"><ele>335.0</ele><time>2026-04-12T14:03:57.999Z</time></trkpt><trkpt lat="44.07941553495416" lon="11.987397855293919"><ele>333.8</ele><time>2026-04-12T14:03:59.999Z</time></trkpt><trkpt lat="44.07937837853585" lon="11.987535626442673"><ele>332.6</ele><time>2026-04-12T14:04:01.999Z</time></trkpt><trkpt lat="44.0793651340739" lon="11.987704069198083"><ele>331.4</ele><time>2026-04-12T14:04:04.001Z</time></trkpt><trkpt lat="44.07932621264543" lon="11.987853921221273"><ele>330.2</ele><time>2026-04-12T14:04:06.001Z</time></trkpt><trkpt lat="44.07928947865872" lon="11.9879449771736"><ele>329.0</ele><time>2026-04-12T14:04:07.001Z</time></trkpt><trkpt lat="44.079240077161586" lon="11.988073069934433"><ele>329.0</ele><time>2026-04-12T14:04:09Z</time></trkpt><trkpt lat="44.07921633502967" lon="11.988161617595575"><ele>329.0</ele><time>2026-04-12T14:04:10Z</time></trkpt><trkpt lat="44.079169909761625" lon="11.988229629392654"><ele>329.0</ele><time>2026-04-12T14:04:36Z</time></trkpt><trkpt lat="44.079136044408706" lon="11.988324191852783"><ele>329.0</ele><time>2026-04-12T14:04:42Z</time></trkpt><trkpt lat="44.07917214977797" lon="11.988407787438785"><ele>329.0</ele><time>2026-04-12T14:04:43Z</time></trkpt><trkpt lat="44.07923544223749" lon="11.988411224412317"><ele>329.0</ele><time>2026-04-12T14:08:33Z</time></trkpt><trkpt lat="44.079364908224285" lon="11.988438953294152"><ele>329.0</ele><time>2026-04-12T14:09:21.999Z</time></trkpt><trkpt lat="44.07942930327706" lon="11.98840380689843"><ele>329.0</ele><time>2026-04-12T14:09:26.999Z</time></trkpt><trkpt lat="44.079509501848655" lon="11.988360046819754"><ele>329.0</ele><time>2026-04-12T14:09:29.999Z</time></trkpt><trkpt lat="44.079558834584226" lon="11.988294605019247"><ele>329.0</ele><time>2026-04-12T14:09:32.999Z</time></trkpt><trkpt lat="44.07962749861666" lon="11.98824749388241"><ele>329.0</ele><time>2026-04-12T14:09:36.999Z</time></trkpt><trkpt lat="44.07968865413817" lon="11.988208922087201"><ele>329.0</ele><time>2026-04-12T14:10:18.998Z</time></trkpt><trkpt lat="44.07974081180319" lon="11.9881501260314"><ele>329.0</ele><time>2026-04-12T14:10:23Z</time></trkpt><trkpt lat="44.07978305504837" lon="11.988076488918491"><ele>329.0</ele><time>2026-04-12T14:16:06.999Z</time></trkpt><trkpt lat="44.07983776185223" lon="11.98800064915922"><ele>329.0</ele><time>2026-04-12T14:16:08.999Z</time></trkpt><trkpt lat="44.07989035423398" lon="11.987931723303456"><ele>329.0</ele><time>2026-04-12T14:16:10.999Z</time></trkpt><trkpt lat="44.079938925612836" lon="11.987854908773608"><ele>329.0</ele><time>2026-04-12T14:16:12.999Z</time></trkpt><trkpt lat="44.08000012862172" lon="11.987781309008094"><ele>329.0</ele><time>2026-04-12T14:16:16.999Z</time></trkpt><trkpt lat="44.08006899655732" lon="11.987734883832536"><ele>329.0</ele><time>2026-04-12T14:16:19.999Z</time></trkpt><trkpt lat="44.08011686874046" lon="11.98767378911626"><ele>329.0</ele><time>2026-04-12T14:16:20.999Z</time></trkpt><trkpt lat="44.080151206059284" lon="11.987582755484619"><ele>326.0</ele><time>2026-04-12T14:16:22.999Z</time></trkpt><trkpt lat="44.08022417986027" lon="11.987501345112411"><ele>323.0</ele><time>2026-04-12T14:16:25.999Z</time></trkpt><trkpt lat="44.08029802123178" lon="11.987425455726843"><ele>320.0</ele><time>2026-04-12T14:16:27.998Z</time></trkpt><trkpt lat="44.08037599036018" lon="11.987379569617875"><ele>317.0</ele><time>2026-04-12T14:16:31.998Z</time></trkpt><trkpt lat="44.08045197055856" lon="11.987356325458546"><ele>314.0</ele><time>2026-04-12T14:16:33.998Z</time></trkpt><trkpt lat="44.08051627189917" lon="11.987367722665361"><ele>311.0</ele><time>2026-04-12T14:16:44Z</time></trkpt><trkpt lat="44.08059815697724" lon="11.987350960477187"><ele>311.0</ele><time>2026-04-12T14:16:49Z</time></trkpt><trkpt lat="44.08068515332528" lon="11.987391336700624"><ele>311.0</ele><time>2026-04-12T14:17:06Z</time></trkpt><trkpt lat="44.08079043689205" lon="11.98742663963684"><ele>311.0</ele><time>2026-04-12T14:17:08Z</time></trkpt><trkpt lat="44.080895192548034" lon="11.98739260332625"><ele>311.0</ele><time>2026-04-12T14:17:10Z</time></trkpt><trkpt lat="44.08100921570006" lon="11.987326590067635"><ele>311.0</ele><time>2026-04-12T14:17:12Z</time></trkpt><trkpt lat="44.08107371448849" lon="11.987262482429564"><ele>306.6</ele><time>2026-04-12T14:17:13Z</time></trkpt><trkpt lat="44.08114765716567" lon="11.987158970493237"><ele>302.20000000000005</ele><time>2026-04-12T14:17:14Z</time></trkpt><trkpt lat="44.08122180777147" lon="11.987082320717215"><ele>297.79999999999995</ele><time>2026-04-12T14:17:15Z</time></trkpt><trkpt lat="44.08127553829442" lon="11.987000452200755"><ele>293.4</ele><time>2026-04-12T14:17:16Z</time></trkpt><trkpt lat="44.081356532024" lon="11.986934291282903"><ele>289.0</ele><time>2026-04-12T14:17:17Z</time></trkpt><trkpt lat="44.08142124826001" lon="11.986828773712803"><ele>289.0</ele><time>2026-04-12T14:17:19Z</time></trkpt><trkpt lat="44.08148219100177" lon="11.986729954449954"><ele>289.0</ele><time>2026-04-12T14:17:21Z</time></trkpt><trkpt lat="44.081532473478696" lon="11.986611037152118"><ele>289.0</ele><time>2026-04-12T14:17:23Z</time></trkpt><trkpt lat="44.08156943949783" lon="11.986514001634049"><ele>289.0</ele><time>2026-04-12T14:17:24Z</time></trkpt><trkpt lat="44.08159915659675" lon="11.98643351257161"><ele>289.0</ele><time>2026-04-12T14:17:24.999Z</time></trkpt><trkpt lat="44.081648609737776" lon="11.98627102216837"><ele>286.66666666666663</ele><time>2026-04-12T14:17:26.999Z</time></trkpt><trkpt lat="44.08170603725601" lon="11.986131460799724"><ele>284.3333333333333</ele><time>2026-04-12T14:17:28.999Z</time></trkpt><trkpt lat="44.08174542705358" lon="11.986009153238122"><ele>282.0</ele><time>2026-04-12T14:17:30.999Z</time></trkpt><trkpt lat="44.08178929294446" lon="11.985932869421823"><ele>279.6666666666667</ele><time>2026-04-12T14:17:31.999Z</time></trkpt><trkpt lat="44.081819267060716" lon="11.985846295117623"><ele>277.33333333333337</ele><time>2026-04-12T14:17:32.999Z</time></trkpt><trkpt lat="44.0818564260045" lon="11.985728771687576"><ele>275.0</ele><time>2026-04-12T14:17:34.999Z</time></trkpt><trkpt lat="44.081895058267165" lon="11.98558211835037"><ele>275.0</ele><time>2026-04-12T14:17:36.999Z</time></trkpt><trkpt lat="44.08194043091452" lon="11.985423436549011"><ele>275.0</ele><time>2026-04-12T14:17:38.999Z</time></trkpt><trkpt lat="44.08197510830092" lon="11.985310129693284"><ele>275.0</ele><time>2026-04-12T14:17:40.999Z</time></trkpt><trkpt lat="44.08200819818919" lon="11.985207793220948"><ele>275.0</ele><time>2026-04-12T14:17:42.999Z</time></trkpt><trkpt lat="44.08205185667813" lon="11.985084181516575"><ele>275.0</ele><time>2026-04-12T14:17:44.999Z</time></trkpt><trkpt lat="44.0820648457356" lon="11.984986997247436"><ele>274.5</ele><time>2026-04-12T14:17:46.999Z</time></trkpt><trkpt lat="44.08209405690037" lon="11.984906183352576"><ele>274.0</ele><time>2026-04-12T14:17:48.999Z</time></trkpt><trkpt lat="44.08213314438147" lon="11.98478058647619"><ele>273.5</ele><time>2026-04-12T14:17:51.999Z</time></trkpt><trkpt lat="44.08218209094459" lon="11.984708581968512"><ele>273.0</ele><time>2026-04-12T14:17:53.999Z</time></trkpt><trkpt lat="44.08222024759458" lon="11.9845974066765"><ele>272.5</ele><time>2026-04-12T14:17:55.999Z</time></trkpt><trkpt lat="44.08224271499004" lon="11.984510386680848"><ele>272.0</ele><time>2026-04-12T14:17:57.999Z</time></trkpt><trkpt lat="44.08229351141004" lon="11.984373977188504"><ele>272.0</ele><time>2026-04-12T14:17:59.999Z</time></trkpt><trkpt lat="44.08231693926248" lon="11.984278420980568"><ele>272.0</ele><time>2026-04-12T14:18:01.999Z</time></trkpt><trkpt lat="44.08237757386088" lon="11.98416010276725"><ele>272.0</ele><time>2026-04-12T14:18:09.999Z</time></trkpt><trkpt lat="44.082409168146256" lon="11.984067265021418"><ele>272.0</ele><time>2026-04-12T14:18:10.999Z</time></trkpt><trkpt lat="44.082432506417156" lon="11.98396388389004"><ele>272.0</ele><time>2026-04-12T14:18:11.999Z</time></trkpt><trkpt lat="44.08246221818252" lon="11.983875387656218"><ele>272.0</ele><time>2026-04-12T14:18:12.999Z</time></trkpt><trkpt lat="44.082495095225504" lon="11.983791226863943"><ele>265.2</ele><time>2026-04-12T14:18:13.999Z</time></trkpt><trkpt lat="44.08252916632071" lon="11.983714649333718"><ele>258.4</ele><time>2026-04-12T14:18:14.999Z</time></trkpt><trkpt lat="44.08259520906261" lon="11.983574389866858"><ele>251.60000000000002</ele><time>2026-04-12T14:18:16.999Z</time></trkpt><trkpt lat="44.08262778388811" lon="11.983417875476597"><ele>244.8</ele><time>2026-04-12T14:18:18.999Z</time></trkpt><trkpt lat="44.08264737489167" lon="11.983333172072143"><ele>238.0</ele><time>2026-04-12T14:18:19.999Z</time></trkpt><trkpt lat="44.08268403276984" lon="11.983192825239087"><ele>237.60000000000002</ele><time>2026-04-12T14:18:21.999Z</time></trkpt><trkpt lat="44.08268336158463" lon="11.983038086871538"><ele>237.20000000000002</ele><time>2026-04-12T14:18:23.999Z</time></trkpt><trkpt lat="44.08267284089407" lon="11.982920508285847"><ele>236.8</ele><time>2026-04-12T14:18:25.999Z</time></trkpt><trkpt lat="44.08266162362439" lon="11.98277416724223"><ele>236.4</ele><time>2026-04-12T14:18:27.998Z</time></trkpt><trkpt lat="44.082616932317066" lon="11.982677803037465"><ele>236.0</ele><time>2026-04-12T14:18:29.998Z</time></trkpt><trkpt lat="44.082537247149816" lon="11.982522201706168"><ele>235.66666666666669</ele><time>2026-04-12T14:18:31.998Z</time></trkpt><trkpt lat="44.08248052289373" lon="11.982457341791294"><ele>235.33333333333334</ele><time>2026-04-12T14:18:32.998Z</time></trkpt><trkpt lat="44.082410063491686" lon="11.98239902048058"><ele>235.0</ele><time>2026-04-12T14:18:33.998Z</time></trkpt><trkpt lat="44.08233722890768" lon="11.982346909544312"><ele>234.66666666666669</ele><time>2026-04-12T14:18:34.998Z</time></trkpt><trkpt lat="44.0822795078717" lon="11.982308921198126"><ele>234.33333333333334</ele><time>2026-04-12T14:18:35.998Z</time></trkpt><trkpt lat="44.08221478406243" lon="11.982266968122634"><ele>234.0</ele><time>2026-04-12T14:18:36.998Z</time></trkpt><trkpt lat="44.08212968141903" lon="11.982232655272172"><ele>234.0</ele><time>2026-04-12T14:18:38.998Z</time></trkpt><trkpt lat="44.082073529418544" lon="11.982172481751254"><ele>234.0</ele><time>2026-04-12T14:18:40.998Z</time></trkpt><trkpt lat="44.08198639277496" lon="11.982128407609977"><ele>234.0</ele><time>2026-04-12T14:18:42.998Z</time></trkpt><trkpt lat="44.081926080760304" lon="11.98209305419254"><ele>234.0</ele><time>2026-04-12T14:18:43.998Z</time></trkpt><trkpt lat="44.08186810139534" lon="11.981998622455231"><ele>234.0</ele><time>2026-04-12T14:18:46Z</time></trkpt><trkpt lat="44.08192128709224" lon="11.981945668039836"><ele>234.0</ele><time>2026-04-12T14:18:48Z</time></trkpt><trkpt lat="44.0819973654003" lon="11.981865512942674"><ele>234.0</ele><time>2026-04-12T14:18:50Z</time></trkpt><trkpt lat="44.082072962631564" lon="11.981810484160347"><ele>233.99999999999997</ele><time>2026-04-12T14:18:52Z</time></trkpt><trkpt lat="44.08218971488562" lon="11.981785343469843"><ele>233.99999999999997</ele><time>2026-04-12T14:18:54Z</time></trkpt><trkpt lat="44.08226302569861" lon="11.98177948079138"><ele>234.0</ele><time>2026-04-12T14:18:55Z</time></trkpt><trkpt lat="44.08236240674609" lon="11.981803875969648"><ele>234.0</ele><time>2026-04-12T14:18:56Z</time></trkpt><trkpt lat="44.082461939666906" lon="11.981813939968436"><ele>230.66666666666666</ele><time>2026-04-12T14:18:57Z</time></trkpt><trkpt lat="44.082554870837704" lon="11.981819096719244"><ele>227.33333333333331</ele><time>2026-04-12T14:18:58Z</time></trkpt><trkpt lat="44.082625046547285" lon="11.981788422298735"><ele>224.0</ele><time>2026-04-12T14:19:00Z</time></trkpt><trkpt lat="44.082701679204675" lon="11.981747737399731"><ele>220.66666666666666</ele><time>2026-04-12T14:19:10.999Z</time></trkpt><trkpt lat="44.082769815963104" lon="11.981688510537783"><ele>217.33333333333331</ele><time>2026-04-12T14:19:12.999Z</time></trkpt><trkpt lat="44.08281729605226" lon="11.981583493528065"><ele>214.0</ele><time>2026-04-12T14:19:14.999Z</time></trkpt><trkpt lat="44.082851249998484" lon="11.981472684128885"><ele>208.79999999999998</ele><time>2026-04-12T14:19:16.999Z</time></trkpt><trkpt lat="44.08288565686858" lon="11.981377049648184"><ele>203.59999999999997</ele><time>2026-04-12T14:19:23.999Z</time></trkpt><trkpt lat="44.08291257327499" lon="11.981279445851344"><ele>198.4</ele><time>2026-04-12T14:19:24.999Z</time></trkpt><trkpt lat="44.08295284439521" lon="11.981157797506889"><ele>193.2</ele><time>2026-04-12T14:19:25.999Z</time></trkpt><trkpt lat="44.08301462401635" lon="11.981008425928252"><ele>188.0</ele><time>2026-04-12T14:19:26.999Z</time></trkpt><trkpt lat="44.08310003589696" lon="11.980861697165865"><ele>186.0</ele><time>2026-04-12T14:19:27.999Z</time></trkpt><trkpt lat="44.08315981314676" lon="11.980756137094247"><ele>184.0</ele><time>2026-04-12T14:19:28.999Z</time></trkpt><trkpt lat="44.083207073148834" lon="11.980681299926328"><ele>182.0</ele><time>2026-04-12T14:19:29.999Z</time></trkpt><trkpt lat="44.08326826199382" lon="11.980609992880112"><ele>180.0</ele><time>2026-04-12T14:19:31.998Z</time></trkpt><trkpt lat="44.08334377377105" lon="11.980598211633723"><ele>178.0</ele><time>2026-04-12T14:19:33.998Z</time></trkpt><trkpt lat="44.08340661036721" lon="11.98066666236396"><ele>176.0</ele><time>2026-04-12T14:19:36.998Z</time></trkpt><trkpt lat="44.083465455088266" lon="11.980708469050695"><ele>176.4</ele><time>2026-04-12T14:19:39.998Z</time></trkpt><trkpt lat="44.08356218828451" lon="11.98079024332738"><ele>176.8</ele><time>2026-04-12T14:20:51Z</time></trkpt><trkpt lat="44.08362950627896" lon="11.980829815913145"><ele>177.20000000000002</ele><time>2026-04-12T14:20:52Z</time></trkpt><trkpt lat="44.08370084251861" lon="11.980877035545053"><ele>177.60000000000002</ele><time>2026-04-12T14:20:53Z</time></trkpt><trkpt lat="44.08379561414352" lon="11.98094718165931"><ele>178.0</ele><time>2026-04-12T14:20:54Z</time></trkpt><trkpt lat="44.08388493657868" lon="11.981002429957938"><ele>178.0</ele><time>2026-04-12T14:20:55Z</time></trkpt><trkpt lat="44.083965826559556" lon="11.98104772280864"><ele>178.0</ele><time>2026-04-12T14:20:56Z</time></trkpt><trkpt lat="44.084044084181706" lon="11.981095828547284"><ele>178.0</ele><time>2026-04-12T14:20:57Z</time></trkpt><trkpt lat="44.08411635207948" lon="11.981150194282273"><ele>178.0</ele><time>2026-04-12T14:20:59Z</time></trkpt><trkpt lat="44.0842379792367" lon="11.981234440985272"><ele>178.0</ele><time>2026-04-12T14:21:01Z</time></trkpt><trkpt lat="44.08433122593892" lon="11.981287040281801"><ele>176.4</ele><time>2026-04-12T14:21:02Z</time></trkpt><trkpt lat="44.08443606271414" lon="11.981365665855316"><ele>174.8</ele><time>2026-04-12T14:21:03Z</time></trkpt><trkpt lat="44.08452440388197" lon="11.981437079421427"><ele>173.2</ele><time>2026-04-12T14:21:04Z</time></trkpt><trkpt lat="44.08457753011065" lon="11.98150182335073"><ele>171.6</ele><time>2026-04-12T14:21:05Z</time></trkpt><trkpt lat="44.08462206750465" lon="11.981570353073778"><ele>170.0</ele><time>2026-04-12T14:21:05.999Z</time></trkpt><trkpt lat="44.08464888120191" lon="11.981760102649263"><ele>170.0</ele><time>2026-04-12T14:21:07.999Z</time></trkpt><trkpt lat="44.08467902595894" lon="11.981903606047291"><ele>170.0</ele><time>2026-04-12T14:21:08.999Z</time></trkpt><trkpt lat="44.0847091132876" lon="11.982016231224515"><ele>170.0</ele><time>2026-04-12T14:21:09.999Z</time></trkpt><trkpt lat="44.08477912035204" lon="11.982094920447548"><ele>170.0</ele><time>2026-04-12T14:21:10.999Z</time></trkpt><trkpt lat="44.08484088476633" lon="11.982114100245822"><ele>170.0</ele><time>2026-04-12T14:21:11.999Z</time></trkpt><trkpt lat="44.08494896711433" lon="11.982024955979565"><ele>169.0</ele><time>2026-04-12T14:21:13.999Z</time></trkpt><trkpt lat="44.08499602192235" lon="11.98192735137019"><ele>168.0</ele><time>2026-04-12T14:21:14.999Z</time></trkpt><trkpt lat="44.08503594931169" lon="11.981785732919185"><ele>167.0</ele><time>2026-04-12T14:21:15.999Z</time></trkpt><trkpt lat="44.08509334020879" lon="11.981635168293268"><ele>166.0</ele><time>2026-04-12T14:21:16.998Z</time></trkpt><trkpt lat="44.08514333896044" lon="11.981524201651197"><ele>165.0</ele><time>2026-04-12T14:21:17.998Z</time></trkpt><trkpt lat="44.0851891689729" lon="11.981413197245262"><ele>164.16666666666666</ele><time>2026-04-12T14:21:18.998Z</time></trkpt><trkpt lat="44.08521504200208" lon="11.98130915496437"><ele>163.33333333333334</ele><time>2026-04-12T14:21:19.998Z</time></trkpt><trkpt lat="44.085263836906186" lon="11.98115346031317"><ele>162.5</ele><time>2026-04-12T14:21:21.998Z</time></trkpt><trkpt lat="44.0853175150927" lon="11.981084396278854"><ele>161.66666666666669</ele><time>2026-04-12T14:21:22.998Z</time></trkpt><trkpt lat="44.085382036819986" lon="11.981080813077975"><ele>160.83333333333334</ele><time>2026-04-12T14:21:23.998Z</time></trkpt><trkpt lat="44.0854284940189" lon="11.981200693796982"><ele>160.0</ele><time>2026-04-12T14:21:25.998Z</time></trkpt><trkpt lat="44.085469390246814" lon="11.98135297390147"><ele>160.0</ele><time>2026-04-12T14:21:27.998Z</time></trkpt><trkpt lat="44.08552004056732" lon="11.981505726427995"><ele>160.0</ele><time>2026-04-12T14:21:29.998Z</time></trkpt><trkpt lat="44.085568483850835" lon="11.98165590502605"><ele>160.0</ele><time>2026-04-12T14:21:31.998Z</time></trkpt><trkpt lat="44.085623380329245" lon="11.981816677714201"><ele>160.0</ele><time>2026-04-12T14:21:33.998Z</time></trkpt><trkpt lat="44.08565225911878" lon="11.981902938597424"><ele>160.0</ele><time>2026-04-12T14:21:34.998Z</time></trkpt><trkpt lat="44.08570197832868" lon="11.982024982592518"><ele>161.0</ele><time>2026-04-12T14:21:35.998Z</time></trkpt><trkpt lat="44.085755368172656" lon="11.982111618011075"><ele>162.0</ele><time>2026-04-12T14:21:36.998Z</time></trkpt><trkpt lat="44.0858225482948" lon="11.982245384902019"><ele>163.0</ele><time>2026-04-12T14:21:38.998Z</time></trkpt><trkpt lat="44.08588348720812" lon="11.982395137052894"><ele>164.0</ele><time>2026-04-12T14:21:40.997Z</time></trkpt><trkpt lat="44.08592847145965" lon="11.982479279480803"><ele>165.0</ele><time>2026-04-12T14:21:41.997Z</time></trkpt><trkpt lat="44.08597312447814" lon="11.982562802149175"><ele>165.8</ele><time>2026-04-12T14:21:42.997Z</time></trkpt><trkpt lat="44.08601621372519" lon="11.982643400176702"><ele>166.6</ele><time>2026-04-12T14:21:43.997Z</time></trkpt><trkpt lat="44.08608964444809" lon="11.982784169452373"><ele>167.39999999999998</ele><time>2026-04-12T14:21:45.997Z</time></trkpt><trkpt lat="44.086141143084454" lon="11.982882994545129"><ele>168.2</ele><time>2026-04-12T14:21:47.997Z</time></trkpt><trkpt lat="44.08623712820118" lon="11.983023104369094"><ele>169.0</ele><time>2026-04-12T14:21:49.997Z</time></trkpt><trkpt lat="44.08650068865859" lon="11.983285473908806"><ele>151.0</ele><time>2026-04-12T14:21:50.997Z</time></trkpt><trkpt lat="44.08672164972698" lon="11.982609331455322"><ele>151.0</ele><time>2026-04-12T14:21:53.997Z</time></trkpt><trkpt lat="44.08678594804635" lon="11.982603897825468"><ele>151.0</ele><time>2026-04-12T14:21:54.997Z</time></trkpt><trkpt lat="44.086855170121304" lon="11.98260481126942"><ele>151.0</ele><time>2026-04-12T14:21:55.997Z</time></trkpt><trkpt lat="44.08697609784756" lon="11.982595751497453"><ele>151.0</ele><time>2026-04-12T14:21:56.997Z</time></trkpt><trkpt lat="44.0871172639816" lon="11.98257461743148"><ele>151.0</ele><time>2026-04-12T14:21:57.997Z</time></trkpt><trkpt lat="44.08720386376722" lon="11.982577767737874"><ele>151.0</ele><time>2026-04-12T14:21:58.997Z</time></trkpt><trkpt lat="44.087346723190294" lon="11.982583272149583"><ele>151.0</ele><time>2026-04-12T14:21:59.997Z</time></trkpt><trkpt lat="44.08745564802079" lon="11.982591913392108"><ele>151.0</ele><time>2026-04-12T14:22:00.997Z</time></trkpt><trkpt lat="44.08761412996524" lon="11.98253541240466"><ele>151.0</ele><time>2026-04-12T14:22:01.997Z</time></trkpt><trkpt lat="44.08772330147335" lon="11.98246448992401"><ele>149.0</ele><time>2026-04-12T14:22:02.997Z</time></trkpt><trkpt lat="44.087794439173614" lon="11.982347406645692"><ele>147.0</ele><time>2026-04-12T14:22:03.997Z</time></trkpt><trkpt lat="44.0878473542324" lon="11.982252849553776"><ele>145.0</ele><time>2026-04-12T14:22:04.997Z</time></trkpt><trkpt lat="44.08791915290882" lon="11.982139982786851"><ele>143.0</ele><time>2026-04-12T14:22:05.997Z</time></trkpt><trkpt lat="44.087951674298736" lon="11.982005919395975"><ele>141.0</ele><time>2026-04-12T14:22:06.997Z</time></trkpt><trkpt lat="44.08800547307109" lon="11.981863022580288"><ele>141.0</ele><time>2026-04-12T14:22:07.997Z</time></trkpt><trkpt lat="44.088091530005016" lon="11.981789331712818"><ele>141.0</ele><time>2026-04-12T14:22:08.997Z</time></trkpt><trkpt lat="44.088182328255115" lon="11.981680017794329"><ele>141.0</ele><time>2026-04-12T14:22:09.997Z</time></trkpt><trkpt lat="44.088246274790734" lon="11.981612946559459"><ele>141.0</ele><time>2026-04-12T14:22:10.997Z</time></trkpt><trkpt lat="44.08832783500947" lon="11.981538098651354"><ele>141.0</ele><time>2026-04-12T14:22:12.997Z</time></trkpt><trkpt lat="44.08840531639622" lon="11.981479353822102"><ele>141.14285714285714</ele><time>2026-04-12T14:22:14.997Z</time></trkpt><trkpt lat="44.088495785778335" lon="11.98142711136085"><ele>141.28571428571428</ele><time>2026-04-12T14:22:16.997Z</time></trkpt><trkpt lat="44.088552122867696" lon="11.981380462378679"><ele>141.42857142857142</ele><time>2026-04-12T14:22:17.997Z</time></trkpt><trkpt lat="44.08861574552436" lon="11.981351704248324"><ele>141.57142857142856</ele><time>2026-04-12T14:22:18.997Z</time></trkpt><trkpt lat="44.08867895489165" lon="11.981328488341628"><ele>141.7142857142857</ele><time>2026-04-12T14:22:19.997Z</time></trkpt><trkpt lat="44.088741956813315" lon="11.981304546375782"><ele>141.85714285714286</ele><time>2026-04-12T14:22:20.997Z</time></trkpt><trkpt lat="44.08881507736307" lon="11.981278492379616"><ele>142.0</ele><time>2026-04-12T14:22:21.997Z</time></trkpt><trkpt lat="44.088895278972345" lon="11.981252993358522"><ele>142.0</ele><time>2026-04-12T14:22:22.997Z</time></trkpt><trkpt lat="44.08897197363979" lon="11.981227879891424"><ele>142.0</ele><time>2026-04-12T14:22:23.997Z</time></trkpt><trkpt lat="44.08906870948178" lon="11.981205791257183"><ele>142.0</ele><time>2026-04-12T14:22:25.997Z</time></trkpt></trkseg></trk></gpx>